<?xml version="1.0" encoding="UTF-8" standalone="no" ?>
<gpx xmlns="http://www.topografix.com/GPX/1/1" xmlns:xsi="http://www.w3.org/2001/XMLSchema-instance" xsi:schemaLocation="http://www.topografix.com/GPX/1/1 http://www.topografix.com/GPX/1/1/gpx.xsd" version="1.1" creator="VisuGPX - https://www.visugpx.com">
  <metadata>
    <name>SLDV NICE ESCARENE LUCERAM LANTOSQUE</name>
    <desc><![CDATA[112 Km D 1730m
Jolie sortie d'avril avec le soleil.
Col de Nice pour arriver à l'Escarene puis prendre le début du Turini jusqu’à Luceram et ensuite le col St Roch, continuer sur Col de Porte puis redescendre sur la vésubie pour arriver à Lantosque. 
Ensuite longer la vésubie jusqu'a la route qui remonte sur Nice en passant par Duranus et Levens.
Retour par la vallée du var et au pont de la Manda récupérer la piste cyclable rive droite coté St Laurent.]]></desc>
  </metadata>
  <trk>
    <name><![CDATA[20180424161349-LH5oN]]></name>
    <trkseg>
      <trkpt lat="43.66965" lon="7.18369">
        <ele>57</ele>
        <time>2018-04-24T06:26:48.000Z</time>
      </trkpt>
      <trkpt lat="43.66965" lon="7.18368">
        <ele>57</ele>
        <time>2018-04-24T06:26:57.000Z</time>
      </trkpt>
      <trkpt lat="43.66964" lon="7.18369">
        <ele>57</ele>
        <time>2018-04-24T06:27:03.000Z</time>
      </trkpt>
      <trkpt lat="43.66959" lon="7.18373">
        <ele>57</ele>
        <time>2018-04-24T06:27:08.000Z</time>
      </trkpt>
      <trkpt lat="43.66958" lon="7.18374">
        <ele>57</ele>
        <time>2018-04-24T06:27:14.000Z</time>
      </trkpt>
      <trkpt lat="43.66958" lon="7.18374">
        <ele>57</ele>
        <time>2018-04-24T06:27:19.000Z</time>
      </trkpt>
      <trkpt lat="43.66961" lon="7.18371">
        <ele>57</ele>
        <time>2018-04-24T06:27:24.000Z</time>
      </trkpt>
      <trkpt lat="43.66958" lon="7.18369">
        <ele>57</ele>
        <time>2018-04-24T06:27:28.000Z</time>
      </trkpt>
      <trkpt lat="43.66961" lon="7.1837">
        <ele>57</ele>
        <time>2018-04-24T06:27:33.000Z</time>
      </trkpt>
      <trkpt lat="43.66961" lon="7.18372">
        <ele>57</ele>
        <time>2018-04-24T06:27:34.000Z</time>
      </trkpt>
      <trkpt lat="43.6696" lon="7.18372">
        <ele>57</ele>
        <time>2018-04-24T06:27:37.000Z</time>
      </trkpt>
      <trkpt lat="43.66957" lon="7.18372">
        <ele>57</ele>
        <time>2018-04-24T06:27:43.000Z</time>
      </trkpt>
      <trkpt lat="43.66957" lon="7.18374">
        <ele>57</ele>
        <time>2018-04-24T06:27:49.000Z</time>
      </trkpt>
      <trkpt lat="43.66952" lon="7.18377">
        <ele>57</ele>
        <time>2018-04-24T06:27:53.000Z</time>
      </trkpt>
      <trkpt lat="43.66935" lon="7.18372">
        <ele>56</ele>
        <time>2018-04-24T06:27:57.000Z</time>
      </trkpt>
      <trkpt lat="43.66929" lon="7.18372">
        <ele>56</ele>
        <time>2018-04-24T06:27:58.000Z</time>
      </trkpt>
      <trkpt lat="43.66924" lon="7.18371">
        <ele>55</ele>
        <time>2018-04-24T06:27:59.000Z</time>
      </trkpt>
      <trkpt lat="43.6691" lon="7.1837">
        <ele>51</ele>
        <time>2018-04-24T06:28:01.000Z</time>
      </trkpt>
      <trkpt lat="43.66905" lon="7.1837">
        <ele>51</ele>
        <time>2018-04-24T06:28:02.000Z</time>
      </trkpt>
      <trkpt lat="43.66895" lon="7.1837">
        <ele>51</ele>
        <time>2018-04-24T06:28:04.000Z</time>
      </trkpt>
      <trkpt lat="43.6689" lon="7.18371">
        <ele>50</ele>
        <time>2018-04-24T06:28:05.000Z</time>
      </trkpt>
      <trkpt lat="43.66881" lon="7.18378">
        <ele>50</ele>
        <time>2018-04-24T06:28:07.000Z</time>
      </trkpt>
      <trkpt lat="43.66875" lon="7.18398">
        <ele>50</ele>
        <time>2018-04-24T06:28:10.000Z</time>
      </trkpt>
      <trkpt lat="43.66867" lon="7.18422">
        <ele>50</ele>
        <time>2018-04-24T06:28:14.000Z</time>
      </trkpt>
      <trkpt lat="43.66861" lon="7.18433">
        <ele>50</ele>
        <time>2018-04-24T06:28:16.000Z</time>
      </trkpt>
      <trkpt lat="43.66847" lon="7.18444">
        <ele>49</ele>
        <time>2018-04-24T06:28:19.000Z</time>
      </trkpt>
      <trkpt lat="43.66845" lon="7.18458">
        <ele>49</ele>
        <time>2018-04-24T06:28:21.000Z</time>
      </trkpt>
      <trkpt lat="43.66847" lon="7.18465">
        <ele>49</ele>
        <time>2018-04-24T06:28:22.000Z</time>
      </trkpt>
      <trkpt lat="43.66849" lon="7.1847">
        <ele>49</ele>
        <time>2018-04-24T06:28:23.000Z</time>
      </trkpt>
      <trkpt lat="43.66852" lon="7.18475">
        <ele>49</ele>
        <time>2018-04-24T06:28:24.000Z</time>
      </trkpt>
      <trkpt lat="43.66855" lon="7.18487">
        <ele>49</ele>
        <time>2018-04-24T06:28:26.000Z</time>
      </trkpt>
      <trkpt lat="43.66859" lon="7.18496">
        <ele>49</ele>
        <time>2018-04-24T06:28:28.000Z</time>
      </trkpt>
      <trkpt lat="43.66863" lon="7.18511">
        <ele>49</ele>
        <time>2018-04-24T06:28:31.000Z</time>
      </trkpt>
      <trkpt lat="43.66861" lon="7.18515">
        <ele>49</ele>
        <time>2018-04-24T06:28:32.000Z</time>
      </trkpt>
      <trkpt lat="43.66854" lon="7.1852">
        <ele>49</ele>
        <time>2018-04-24T06:28:34.000Z</time>
      </trkpt>
      <trkpt lat="43.66845" lon="7.18525">
        <ele>49</ele>
        <time>2018-04-24T06:28:36.000Z</time>
      </trkpt>
      <trkpt lat="43.6683" lon="7.18534">
        <ele>45</ele>
        <time>2018-04-24T06:28:39.000Z</time>
      </trkpt>
      <trkpt lat="43.668" lon="7.18554">
        <ele>45</ele>
        <time>2018-04-24T06:28:44.000Z</time>
      </trkpt>
      <trkpt lat="43.66792" lon="7.18559">
        <ele>44</ele>
        <time>2018-04-24T06:28:45.000Z</time>
      </trkpt>
      <trkpt lat="43.66772" lon="7.18574">
        <ele>44</ele>
        <time>2018-04-24T06:28:48.000Z</time>
      </trkpt>
      <trkpt lat="43.66752" lon="7.18591">
        <ele>42</ele>
        <time>2018-04-24T06:28:51.000Z</time>
      </trkpt>
      <trkpt lat="43.66744" lon="7.18596">
        <ele>42</ele>
        <time>2018-04-24T06:28:52.000Z</time>
      </trkpt>
      <trkpt lat="43.66737" lon="7.18601">
        <ele>41</ele>
        <time>2018-04-24T06:28:53.000Z</time>
      </trkpt>
      <trkpt lat="43.66704" lon="7.18624">
        <ele>41</ele>
        <time>2018-04-24T06:28:57.000Z</time>
      </trkpt>
      <trkpt lat="43.66683" lon="7.18637">
        <ele>40</ele>
        <time>2018-04-24T06:29:00.000Z</time>
      </trkpt>
      <trkpt lat="43.66647" lon="7.18661">
        <ele>38</ele>
        <time>2018-04-24T06:29:05.000Z</time>
      </trkpt>
      <trkpt lat="43.6664" lon="7.18665">
        <ele>38</ele>
        <time>2018-04-24T06:29:06.000Z</time>
      </trkpt>
      <trkpt lat="43.66623" lon="7.18678">
        <ele>36</ele>
        <time>2018-04-24T06:29:09.000Z</time>
      </trkpt>
      <trkpt lat="43.66617" lon="7.18681">
        <ele>36</ele>
        <time>2018-04-24T06:29:10.000Z</time>
      </trkpt>
      <trkpt lat="43.66599" lon="7.18674">
        <ele>35</ele>
        <time>2018-04-24T06:29:13.000Z</time>
      </trkpt>
      <trkpt lat="43.66581" lon="7.18666">
        <ele>34</ele>
        <time>2018-04-24T06:29:16.000Z</time>
      </trkpt>
      <trkpt lat="43.66559" lon="7.18661">
        <ele>34</ele>
        <time>2018-04-24T06:29:20.000Z</time>
      </trkpt>
      <trkpt lat="43.66554" lon="7.18673">
        <ele>34</ele>
        <time>2018-04-24T06:29:22.000Z</time>
      </trkpt>
      <trkpt lat="43.66539" lon="7.18696">
        <ele>34</ele>
        <time>2018-04-24T06:29:26.000Z</time>
      </trkpt>
      <trkpt lat="43.66533" lon="7.18698">
        <ele>34</ele>
        <time>2018-04-24T06:29:27.000Z</time>
      </trkpt>
      <trkpt lat="43.66527" lon="7.187">
        <ele>34</ele>
        <time>2018-04-24T06:29:28.000Z</time>
      </trkpt>
      <trkpt lat="43.66515" lon="7.18705">
        <ele>34</ele>
        <time>2018-04-24T06:29:30.000Z</time>
      </trkpt>
      <trkpt lat="43.66509" lon="7.18708">
        <ele>34</ele>
        <time>2018-04-24T06:29:31.000Z</time>
      </trkpt>
      <trkpt lat="43.66492" lon="7.18716">
        <ele>33</ele>
        <time>2018-04-24T06:29:34.000Z</time>
      </trkpt>
      <trkpt lat="43.66472" lon="7.18725">
        <ele>33</ele>
        <time>2018-04-24T06:29:37.000Z</time>
      </trkpt>
      <trkpt lat="43.66447" lon="7.18737">
        <ele>33</ele>
        <time>2018-04-24T06:29:41.000Z</time>
      </trkpt>
      <trkpt lat="43.66434" lon="7.18745">
        <ele>32</ele>
        <time>2018-04-24T06:29:43.000Z</time>
      </trkpt>
      <trkpt lat="43.66421" lon="7.18751">
        <ele>32</ele>
        <time>2018-04-24T06:29:45.000Z</time>
      </trkpt>
      <trkpt lat="43.66384" lon="7.18769">
        <ele>31</ele>
        <time>2018-04-24T06:29:51.000Z</time>
      </trkpt>
      <trkpt lat="43.66358" lon="7.18782">
        <ele>31</ele>
        <time>2018-04-24T06:29:55.000Z</time>
      </trkpt>
      <trkpt lat="43.66334" lon="7.18793">
        <ele>30</ele>
        <time>2018-04-24T06:29:59.000Z</time>
      </trkpt>
      <trkpt lat="43.66328" lon="7.18798">
        <ele>30</ele>
        <time>2018-04-24T06:30:00.000Z</time>
      </trkpt>
      <trkpt lat="43.66321" lon="7.18812">
        <ele>30</ele>
        <time>2018-04-24T06:30:02.000Z</time>
      </trkpt>
      <trkpt lat="43.66319" lon="7.18839">
        <ele>30</ele>
        <time>2018-04-24T06:30:05.000Z</time>
      </trkpt>
      <trkpt lat="43.66317" lon="7.18868">
        <ele>30</ele>
        <time>2018-04-24T06:30:08.000Z</time>
      </trkpt>
      <trkpt lat="43.66315" lon="7.18877">
        <ele>30</ele>
        <time>2018-04-24T06:30:09.000Z</time>
      </trkpt>
      <trkpt lat="43.66313" lon="7.18887">
        <ele>30</ele>
        <time>2018-04-24T06:30:10.000Z</time>
      </trkpt>
      <trkpt lat="43.66303" lon="7.18938">
        <ele>30</ele>
        <time>2018-04-24T06:30:15.000Z</time>
      </trkpt>
      <trkpt lat="43.66297" lon="7.18968">
        <ele>30</ele>
        <time>2018-04-24T06:30:18.000Z</time>
      </trkpt>
      <trkpt lat="43.66294" lon="7.18978">
        <ele>30</ele>
        <time>2018-04-24T06:30:19.000Z</time>
      </trkpt>
      <trkpt lat="43.66288" lon="7.19009">
        <ele>29</ele>
        <time>2018-04-24T06:30:22.000Z</time>
      </trkpt>
      <trkpt lat="43.66281" lon="7.1904">
        <ele>28</ele>
        <time>2018-04-24T06:30:25.000Z</time>
      </trkpt>
      <trkpt lat="43.66277" lon="7.19068">
        <ele>28</ele>
        <time>2018-04-24T06:30:28.000Z</time>
      </trkpt>
      <trkpt lat="43.66275" lon="7.19087">
        <ele>25</ele>
        <time>2018-04-24T06:30:30.000Z</time>
      </trkpt>
      <trkpt lat="43.66268" lon="7.19102">
        <ele>25</ele>
        <time>2018-04-24T06:30:32.000Z</time>
      </trkpt>
      <trkpt lat="43.66254" lon="7.19115">
        <ele>25</ele>
        <time>2018-04-24T06:30:35.000Z</time>
      </trkpt>
      <trkpt lat="43.66248" lon="7.19119">
        <ele>24</ele>
        <time>2018-04-24T06:30:36.000Z</time>
      </trkpt>
      <trkpt lat="43.66207" lon="7.19156">
        <ele>23</ele>
        <time>2018-04-24T06:30:42.000Z</time>
      </trkpt>
      <trkpt lat="43.66203" lon="7.19166">
        <ele>23</ele>
        <time>2018-04-24T06:30:43.000Z</time>
      </trkpt>
      <trkpt lat="43.66201" lon="7.19189">
        <ele>20</ele>
        <time>2018-04-24T06:30:45.000Z</time>
      </trkpt>
      <trkpt lat="43.66204" lon="7.19212">
        <ele>19</ele>
        <time>2018-04-24T06:30:47.000Z</time>
      </trkpt>
      <trkpt lat="43.66205" lon="7.19226">
        <ele>19</ele>
        <time>2018-04-24T06:30:48.000Z</time>
      </trkpt>
      <trkpt lat="43.66206" lon="7.19248">
        <ele>18</ele>
        <time>2018-04-24T06:30:50.000Z</time>
      </trkpt>
      <trkpt lat="43.66209" lon="7.19276">
        <ele>16</ele>
        <time>2018-04-24T06:30:53.000Z</time>
      </trkpt>
      <trkpt lat="43.66214" lon="7.19306">
        <ele>16</ele>
        <time>2018-04-24T06:30:57.000Z</time>
      </trkpt>
      <trkpt lat="43.66215" lon="7.19312">
        <ele>16</ele>
        <time>2018-04-24T06:30:58.000Z</time>
      </trkpt>
      <trkpt lat="43.66215" lon="7.19324">
        <ele>16</ele>
        <time>2018-04-24T06:31:00.000Z</time>
      </trkpt>
      <trkpt lat="43.66209" lon="7.19327">
        <ele>16</ele>
        <time>2018-04-24T06:31:02.000Z</time>
      </trkpt>
      <trkpt lat="43.66207" lon="7.19318">
        <ele>16</ele>
        <time>2018-04-24T06:31:04.000Z</time>
      </trkpt>
      <trkpt lat="43.66206" lon="7.19305">
        <ele>16</ele>
        <time>2018-04-24T06:31:06.000Z</time>
      </trkpt>
      <trkpt lat="43.66204" lon="7.19289">
        <ele>16</ele>
        <time>2018-04-24T06:31:08.000Z</time>
      </trkpt>
      <trkpt lat="43.662" lon="7.1927">
        <ele>16</ele>
        <time>2018-04-24T06:31:10.000Z</time>
      </trkpt>
      <trkpt lat="43.66192" lon="7.19252">
        <ele>16</ele>
        <time>2018-04-24T06:31:12.000Z</time>
      </trkpt>
      <trkpt lat="43.66186" lon="7.19243">
        <ele>17</ele>
        <time>2018-04-24T06:31:13.000Z</time>
      </trkpt>
      <trkpt lat="43.66169" lon="7.19231">
        <ele>17</ele>
        <time>2018-04-24T06:31:15.000Z</time>
      </trkpt>
      <trkpt lat="43.6615" lon="7.19227">
        <ele>15</ele>
        <time>2018-04-24T06:31:17.000Z</time>
      </trkpt>
      <trkpt lat="43.66142" lon="7.19226">
        <ele>15</ele>
        <time>2018-04-24T06:31:18.000Z</time>
      </trkpt>
      <trkpt lat="43.66134" lon="7.19224">
        <ele>15</ele>
        <time>2018-04-24T06:31:19.000Z</time>
      </trkpt>
      <trkpt lat="43.66112" lon="7.19229">
        <ele>14</ele>
        <time>2018-04-24T06:31:21.000Z</time>
      </trkpt>
      <trkpt lat="43.66104" lon="7.19231">
        <ele>14</ele>
        <time>2018-04-24T06:31:22.000Z</time>
      </trkpt>
      <trkpt lat="43.66086" lon="7.19237">
        <ele>13</ele>
        <time>2018-04-24T06:31:24.000Z</time>
      </trkpt>
      <trkpt lat="43.66078" lon="7.19243">
        <ele>11</ele>
        <time>2018-04-24T06:31:25.000Z</time>
      </trkpt>
      <trkpt lat="43.6607" lon="7.19248">
        <ele>11</ele>
        <time>2018-04-24T06:31:26.000Z</time>
      </trkpt>
      <trkpt lat="43.66062" lon="7.19254">
        <ele>10</ele>
        <time>2018-04-24T06:31:27.000Z</time>
      </trkpt>
      <trkpt lat="43.66043" lon="7.19271">
        <ele>10</ele>
        <time>2018-04-24T06:31:30.000Z</time>
      </trkpt>
      <trkpt lat="43.66035" lon="7.19276">
        <ele>9</ele>
        <time>2018-04-24T06:31:31.000Z</time>
      </trkpt>
      <trkpt lat="43.66038" lon="7.19287">
        <ele>9</ele>
        <time>2018-04-24T06:31:32.000Z</time>
      </trkpt>
      <trkpt lat="43.66042" lon="7.19297">
        <ele>9</ele>
        <time>2018-04-24T06:31:33.000Z</time>
      </trkpt>
      <trkpt lat="43.66056" lon="7.1931">
        <ele>9</ele>
        <time>2018-04-24T06:31:35.000Z</time>
      </trkpt>
      <trkpt lat="43.6606" lon="7.19316">
        <ele>9</ele>
        <time>2018-04-24T06:31:36.000Z</time>
      </trkpt>
      <trkpt lat="43.66075" lon="7.19335">
        <ele>9</ele>
        <time>2018-04-24T06:31:40.000Z</time>
      </trkpt>
      <trkpt lat="43.66079" lon="7.19339">
        <ele>10</ele>
        <time>2018-04-24T06:31:41.000Z</time>
      </trkpt>
      <trkpt lat="43.66082" lon="7.19342">
        <ele>9</ele>
        <time>2018-04-24T06:31:42.000Z</time>
      </trkpt>
      <trkpt lat="43.66093" lon="7.19353">
        <ele>11</ele>
        <time>2018-04-24T06:31:45.000Z</time>
      </trkpt>
      <trkpt lat="43.66102" lon="7.19363">
        <ele>11</ele>
        <time>2018-04-24T06:31:48.000Z</time>
      </trkpt>
      <trkpt lat="43.66105" lon="7.19365">
        <ele>11</ele>
        <time>2018-04-24T06:31:49.000Z</time>
      </trkpt>
      <trkpt lat="43.66115" lon="7.19377">
        <ele>12</ele>
        <time>2018-04-24T06:31:52.000Z</time>
      </trkpt>
      <trkpt lat="43.66126" lon="7.19392">
        <ele>12</ele>
        <time>2018-04-24T06:31:55.000Z</time>
      </trkpt>
      <trkpt lat="43.66155" lon="7.19439">
        <ele>12</ele>
        <time>2018-04-24T06:32:04.000Z</time>
      </trkpt>
      <trkpt lat="43.66171" lon="7.1946">
        <ele>14</ele>
        <time>2018-04-24T06:32:08.000Z</time>
      </trkpt>
      <trkpt lat="43.66178" lon="7.1947">
        <ele>14</ele>
        <time>2018-04-24T06:32:10.000Z</time>
      </trkpt>
      <trkpt lat="43.66189" lon="7.19487">
        <ele>14</ele>
        <time>2018-04-24T06:32:13.000Z</time>
      </trkpt>
      <trkpt lat="43.66218" lon="7.19535">
        <ele>11</ele>
        <time>2018-04-24T06:32:21.000Z</time>
      </trkpt>
      <trkpt lat="43.66244" lon="7.19581">
        <ele>10</ele>
        <time>2018-04-24T06:32:29.000Z</time>
      </trkpt>
      <trkpt lat="43.66266" lon="7.19621">
        <ele>12</ele>
        <time>2018-04-24T06:32:37.000Z</time>
      </trkpt>
      <trkpt lat="43.66267" lon="7.19621">
        <ele>12</ele>
        <time>2018-04-24T06:32:38.000Z</time>
      </trkpt>
      <trkpt lat="43.66275" lon="7.19629">
        <ele>12</ele>
        <time>2018-04-24T06:32:41.000Z</time>
      </trkpt>
      <trkpt lat="43.66279" lon="7.19638">
        <ele>12</ele>
        <time>2018-04-24T06:32:43.000Z</time>
      </trkpt>
      <trkpt lat="43.66286" lon="7.19652">
        <ele>13</ele>
        <time>2018-04-24T06:32:46.000Z</time>
      </trkpt>
      <trkpt lat="43.66298" lon="7.19682">
        <ele>12</ele>
        <time>2018-04-24T06:32:51.000Z</time>
      </trkpt>
      <trkpt lat="43.66299" lon="7.19688">
        <ele>12</ele>
        <time>2018-04-24T06:32:52.000Z</time>
      </trkpt>
      <trkpt lat="43.66308" lon="7.1971">
        <ele>12</ele>
        <time>2018-04-24T06:32:56.000Z</time>
      </trkpt>
      <trkpt lat="43.66314" lon="7.19722">
        <ele>12</ele>
        <time>2018-04-24T06:32:58.000Z</time>
      </trkpt>
      <trkpt lat="43.66329" lon="7.19761">
        <ele>10</ele>
        <time>2018-04-24T06:33:04.000Z</time>
      </trkpt>
      <trkpt lat="43.66353" lon="7.19823">
        <ele>8</ele>
        <time>2018-04-24T06:33:13.000Z</time>
      </trkpt>
      <trkpt lat="43.66372" lon="7.19872">
        <ele>6</ele>
        <time>2018-04-24T06:33:20.000Z</time>
      </trkpt>
      <trkpt lat="43.66377" lon="7.19887">
        <ele>6</ele>
        <time>2018-04-24T06:33:22.000Z</time>
      </trkpt>
      <trkpt lat="43.66397" lon="7.1994">
        <ele>6</ele>
        <time>2018-04-24T06:33:29.000Z</time>
      </trkpt>
      <trkpt lat="43.66421" lon="7.20009">
        <ele>8</ele>
        <time>2018-04-24T06:33:38.000Z</time>
      </trkpt>
      <trkpt lat="43.6643" lon="7.20032">
        <ele>9</ele>
        <time>2018-04-24T06:33:41.000Z</time>
      </trkpt>
      <trkpt lat="43.66454" lon="7.201">
        <ele>10</ele>
        <time>2018-04-24T06:33:50.000Z</time>
      </trkpt>
      <trkpt lat="43.6646" lon="7.20114">
        <ele>10</ele>
        <time>2018-04-24T06:33:52.000Z</time>
      </trkpt>
      <trkpt lat="43.66484" lon="7.20183">
        <ele>11</ele>
        <time>2018-04-24T06:34:01.000Z</time>
      </trkpt>
      <trkpt lat="43.66489" lon="7.20199">
        <ele>11</ele>
        <time>2018-04-24T06:34:03.000Z</time>
      </trkpt>
      <trkpt lat="43.66501" lon="7.20247">
        <ele>11</ele>
        <time>2018-04-24T06:34:10.000Z</time>
      </trkpt>
      <trkpt lat="43.66502" lon="7.20249">
        <ele>11</ele>
        <time>2018-04-24T06:34:13.000Z</time>
      </trkpt>
      <trkpt lat="43.66503" lon="7.2025">
        <ele>11</ele>
        <time>2018-04-24T06:34:15.000Z</time>
      </trkpt>
      <trkpt lat="43.66502" lon="7.2025">
        <ele>11</ele>
        <time>2018-04-24T06:34:19.000Z</time>
      </trkpt>
      <trkpt lat="43.66504" lon="7.20251">
        <ele>11</ele>
        <time>2018-04-24T06:34:21.000Z</time>
      </trkpt>
      <trkpt lat="43.66507" lon="7.20251">
        <ele>11</ele>
        <time>2018-04-24T06:34:23.000Z</time>
      </trkpt>
      <trkpt lat="43.6651" lon="7.20258">
        <ele>11</ele>
        <time>2018-04-24T06:34:26.000Z</time>
      </trkpt>
      <trkpt lat="43.66511" lon="7.20261">
        <ele>11</ele>
        <time>2018-04-24T06:34:27.000Z</time>
      </trkpt>
      <trkpt lat="43.66515" lon="7.20281">
        <ele>11</ele>
        <time>2018-04-24T06:34:31.000Z</time>
      </trkpt>
      <trkpt lat="43.66522" lon="7.20316">
        <ele>11</ele>
        <time>2018-04-24T06:34:36.000Z</time>
      </trkpt>
      <trkpt lat="43.66528" lon="7.20341">
        <ele>11</ele>
        <time>2018-04-24T06:34:39.000Z</time>
      </trkpt>
      <trkpt lat="43.66528" lon="7.20356">
        <ele>11</ele>
        <time>2018-04-24T06:34:41.000Z</time>
      </trkpt>
      <trkpt lat="43.66525" lon="7.20363">
        <ele>10</ele>
        <time>2018-04-24T06:34:42.000Z</time>
      </trkpt>
      <trkpt lat="43.66528" lon="7.20383">
        <ele>10</ele>
        <time>2018-04-24T06:34:45.000Z</time>
      </trkpt>
      <trkpt lat="43.66529" lon="7.2039">
        <ele>10</ele>
        <time>2018-04-24T06:34:46.000Z</time>
      </trkpt>
      <trkpt lat="43.66535" lon="7.20433">
        <ele>10</ele>
        <time>2018-04-24T06:34:51.000Z</time>
      </trkpt>
      <trkpt lat="43.6654" lon="7.20466">
        <ele>10</ele>
        <time>2018-04-24T06:34:55.000Z</time>
      </trkpt>
      <trkpt lat="43.66542" lon="7.205">
        <ele>10</ele>
        <time>2018-04-24T06:34:59.000Z</time>
      </trkpt>
      <trkpt lat="43.66541" lon="7.20543">
        <ele>9</ele>
        <time>2018-04-24T06:35:03.000Z</time>
      </trkpt>
      <trkpt lat="43.66541" lon="7.20554">
        <ele>9</ele>
        <time>2018-04-24T06:35:04.000Z</time>
      </trkpt>
      <trkpt lat="43.66541" lon="7.20567">
        <ele>9</ele>
        <time>2018-04-24T06:35:05.000Z</time>
      </trkpt>
      <trkpt lat="43.66541" lon="7.2058">
        <ele>8</ele>
        <time>2018-04-24T06:35:06.000Z</time>
      </trkpt>
      <trkpt lat="43.66541" lon="7.20593">
        <ele>8</ele>
        <time>2018-04-24T06:35:07.000Z</time>
      </trkpt>
      <trkpt lat="43.6654" lon="7.20618">
        <ele>8</ele>
        <time>2018-04-24T06:35:09.000Z</time>
      </trkpt>
      <trkpt lat="43.6654" lon="7.20645">
        <ele>8</ele>
        <time>2018-04-24T06:35:11.000Z</time>
      </trkpt>
      <trkpt lat="43.6654" lon="7.207">
        <ele>7</ele>
        <time>2018-04-24T06:35:16.000Z</time>
      </trkpt>
      <trkpt lat="43.66546" lon="7.20737">
        <ele>8</ele>
        <time>2018-04-24T06:35:20.000Z</time>
      </trkpt>
      <trkpt lat="43.66548" lon="7.20746">
        <ele>8</ele>
        <time>2018-04-24T06:35:21.000Z</time>
      </trkpt>
      <trkpt lat="43.66554" lon="7.20767">
        <ele>7</ele>
        <time>2018-04-24T06:35:24.000Z</time>
      </trkpt>
      <trkpt lat="43.66561" lon="7.20788">
        <ele>7</ele>
        <time>2018-04-24T06:35:27.000Z</time>
      </trkpt>
      <trkpt lat="43.66568" lon="7.20809">
        <ele>7</ele>
        <time>2018-04-24T06:35:30.000Z</time>
      </trkpt>
      <trkpt lat="43.66574" lon="7.20829">
        <ele>8</ele>
        <time>2018-04-24T06:35:33.000Z</time>
      </trkpt>
      <trkpt lat="43.66578" lon="7.20841">
        <ele>8</ele>
        <time>2018-04-24T06:35:35.000Z</time>
      </trkpt>
      <trkpt lat="43.66589" lon="7.20887">
        <ele>8</ele>
        <time>2018-04-24T06:35:41.000Z</time>
      </trkpt>
      <trkpt lat="43.66595" lon="7.20936">
        <ele>8</ele>
        <time>2018-04-24T06:35:47.000Z</time>
      </trkpt>
      <trkpt lat="43.66596" lon="7.20944">
        <ele>8</ele>
        <time>2018-04-24T06:35:48.000Z</time>
      </trkpt>
      <trkpt lat="43.66606" lon="7.21025">
        <ele>7</ele>
        <time>2018-04-24T06:35:58.000Z</time>
      </trkpt>
      <trkpt lat="43.66613" lon="7.21082">
        <ele>7</ele>
        <time>2018-04-24T06:36:05.000Z</time>
      </trkpt>
      <trkpt lat="43.66622" lon="7.21161">
        <ele>6</ele>
        <time>2018-04-24T06:36:15.000Z</time>
      </trkpt>
      <trkpt lat="43.66623" lon="7.21169">
        <ele>7</ele>
        <time>2018-04-24T06:36:16.000Z</time>
      </trkpt>
      <trkpt lat="43.66626" lon="7.21199">
        <ele>7</ele>
        <time>2018-04-24T06:36:20.000Z</time>
      </trkpt>
      <trkpt lat="43.66629" lon="7.21221">
        <ele>7</ele>
        <time>2018-04-24T06:36:23.000Z</time>
      </trkpt>
      <trkpt lat="43.66636" lon="7.21277">
        <ele>9</ele>
        <time>2018-04-24T06:36:30.000Z</time>
      </trkpt>
      <trkpt lat="43.6664" lon="7.2131">
        <ele>9</ele>
        <time>2018-04-24T06:36:34.000Z</time>
      </trkpt>
      <trkpt lat="43.66646" lon="7.21362">
        <ele>10</ele>
        <time>2018-04-24T06:36:40.000Z</time>
      </trkpt>
      <trkpt lat="43.66648" lon="7.21379">
        <ele>10</ele>
        <time>2018-04-24T06:36:42.000Z</time>
      </trkpt>
      <trkpt lat="43.66655" lon="7.21439">
        <ele>10</ele>
        <time>2018-04-24T06:36:49.000Z</time>
      </trkpt>
      <trkpt lat="43.66666" lon="7.21518">
        <ele>9</ele>
        <time>2018-04-24T06:36:58.000Z</time>
      </trkpt>
      <trkpt lat="43.66667" lon="7.21525">
        <ele>9</ele>
        <time>2018-04-24T06:36:59.000Z</time>
      </trkpt>
      <trkpt lat="43.66664" lon="7.21536">
        <ele>9</ele>
        <time>2018-04-24T06:37:01.000Z</time>
      </trkpt>
      <trkpt lat="43.66659" lon="7.21545">
        <ele>9</ele>
        <time>2018-04-24T06:37:04.000Z</time>
      </trkpt>
      <trkpt lat="43.6666" lon="7.21557">
        <ele>8</ele>
        <time>2018-04-24T06:37:06.000Z</time>
      </trkpt>
      <trkpt lat="43.66661" lon="7.2157">
        <ele>8</ele>
        <time>2018-04-24T06:37:08.000Z</time>
      </trkpt>
      <trkpt lat="43.66667" lon="7.21615">
        <ele>8</ele>
        <time>2018-04-24T06:37:14.000Z</time>
      </trkpt>
      <trkpt lat="43.66678" lon="7.21685">
        <ele>6</ele>
        <time>2018-04-24T06:37:23.000Z</time>
      </trkpt>
      <trkpt lat="43.66694" lon="7.21756">
        <ele>4</ele>
        <time>2018-04-24T06:37:32.000Z</time>
      </trkpt>
      <trkpt lat="43.66713" lon="7.21826">
        <ele>4</ele>
        <time>2018-04-24T06:37:41.000Z</time>
      </trkpt>
      <trkpt lat="43.66734" lon="7.21885">
        <ele>4</ele>
        <time>2018-04-24T06:37:49.000Z</time>
      </trkpt>
      <trkpt lat="43.6676" lon="7.21948">
        <ele>5</ele>
        <time>2018-04-24T06:37:58.000Z</time>
      </trkpt>
      <trkpt lat="43.66763" lon="7.21954">
        <ele>5</ele>
        <time>2018-04-24T06:37:59.000Z</time>
      </trkpt>
      <trkpt lat="43.66779" lon="7.21988">
        <ele>5</ele>
        <time>2018-04-24T06:38:04.000Z</time>
      </trkpt>
      <trkpt lat="43.66806" lon="7.22037">
        <ele>5</ele>
        <time>2018-04-24T06:38:12.000Z</time>
      </trkpt>
      <trkpt lat="43.66845" lon="7.22095">
        <ele>6</ele>
        <time>2018-04-24T06:38:22.000Z</time>
      </trkpt>
      <trkpt lat="43.66853" lon="7.22106">
        <ele>6</ele>
        <time>2018-04-24T06:38:24.000Z</time>
      </trkpt>
      <trkpt lat="43.66861" lon="7.22118">
        <ele>6</ele>
        <time>2018-04-24T06:38:26.000Z</time>
      </trkpt>
      <trkpt lat="43.66887" lon="7.22153">
        <ele>6</ele>
        <time>2018-04-24T06:38:32.000Z</time>
      </trkpt>
      <trkpt lat="43.66929" lon="7.2221">
        <ele>8</ele>
        <time>2018-04-24T06:38:42.000Z</time>
      </trkpt>
      <trkpt lat="43.66933" lon="7.22216">
        <ele>8</ele>
        <time>2018-04-24T06:38:43.000Z</time>
      </trkpt>
      <trkpt lat="43.66975" lon="7.22274">
        <ele>10</ele>
        <time>2018-04-24T06:38:53.000Z</time>
      </trkpt>
      <trkpt lat="43.67017" lon="7.22331">
        <ele>12</ele>
        <time>2018-04-24T06:39:03.000Z</time>
      </trkpt>
      <trkpt lat="43.6705" lon="7.22376">
        <ele>11</ele>
        <time>2018-04-24T06:39:11.000Z</time>
      </trkpt>
      <trkpt lat="43.67089" lon="7.22429">
        <ele>9</ele>
        <time>2018-04-24T06:39:20.000Z</time>
      </trkpt>
      <trkpt lat="43.67105" lon="7.22452">
        <ele>8</ele>
        <time>2018-04-24T06:39:24.000Z</time>
      </trkpt>
      <trkpt lat="43.67127" lon="7.22481">
        <ele>8</ele>
        <time>2018-04-24T06:39:29.000Z</time>
      </trkpt>
      <trkpt lat="43.67167" lon="7.22534">
        <ele>7</ele>
        <time>2018-04-24T06:39:38.000Z</time>
      </trkpt>
      <trkpt lat="43.67205" lon="7.22578">
        <ele>7</ele>
        <time>2018-04-24T06:39:46.000Z</time>
      </trkpt>
      <trkpt lat="43.6725" lon="7.22623">
        <ele>8</ele>
        <time>2018-04-24T06:39:55.000Z</time>
      </trkpt>
      <trkpt lat="43.6726" lon="7.22632">
        <ele>8</ele>
        <time>2018-04-24T06:39:57.000Z</time>
      </trkpt>
      <trkpt lat="43.67286" lon="7.22654">
        <ele>8</ele>
        <time>2018-04-24T06:40:02.000Z</time>
      </trkpt>
      <trkpt lat="43.67311" lon="7.22675">
        <ele>8</ele>
        <time>2018-04-24T06:40:07.000Z</time>
      </trkpt>
      <trkpt lat="43.67363" lon="7.22714">
        <ele>7</ele>
        <time>2018-04-24T06:40:17.000Z</time>
      </trkpt>
      <trkpt lat="43.674" lon="7.22737">
        <ele>7</ele>
        <time>2018-04-24T06:40:24.000Z</time>
      </trkpt>
      <trkpt lat="43.67403" lon="7.22743">
        <ele>7</ele>
        <time>2018-04-24T06:40:25.000Z</time>
      </trkpt>
      <trkpt lat="43.67403" lon="7.22756">
        <ele>6</ele>
        <time>2018-04-24T06:40:27.000Z</time>
      </trkpt>
      <trkpt lat="43.67414" lon="7.22765">
        <ele>5</ele>
        <time>2018-04-24T06:40:30.000Z</time>
      </trkpt>
      <trkpt lat="43.67419" lon="7.22768">
        <ele>6</ele>
        <time>2018-04-24T06:40:31.000Z</time>
      </trkpt>
      <trkpt lat="43.67441" lon="7.22781">
        <ele>6</ele>
        <time>2018-04-24T06:40:36.000Z</time>
      </trkpt>
      <trkpt lat="43.67465" lon="7.22797">
        <ele>5</ele>
        <time>2018-04-24T06:40:41.000Z</time>
      </trkpt>
      <trkpt lat="43.67502" lon="7.22817">
        <ele>6</ele>
        <time>2018-04-24T06:40:48.000Z</time>
      </trkpt>
      <trkpt lat="43.67544" lon="7.22842">
        <ele>5</ele>
        <time>2018-04-24T06:40:56.000Z</time>
      </trkpt>
      <trkpt lat="43.67566" lon="7.22855">
        <ele>5</ele>
        <time>2018-04-24T06:41:00.000Z</time>
      </trkpt>
      <trkpt lat="43.67571" lon="7.22858">
        <ele>5</ele>
        <time>2018-04-24T06:41:01.000Z</time>
      </trkpt>
      <trkpt lat="43.67613" lon="7.22881">
        <ele>6</ele>
        <time>2018-04-24T06:41:09.000Z</time>
      </trkpt>
      <trkpt lat="43.67617" lon="7.22887">
        <ele>6</ele>
        <time>2018-04-24T06:41:10.000Z</time>
      </trkpt>
      <trkpt lat="43.67624" lon="7.22899">
        <ele>6</ele>
        <time>2018-04-24T06:41:12.000Z</time>
      </trkpt>
      <trkpt lat="43.6764" lon="7.22908">
        <ele>6</ele>
        <time>2018-04-24T06:41:15.000Z</time>
      </trkpt>
      <trkpt lat="43.67681" lon="7.22931">
        <ele>6</ele>
        <time>2018-04-24T06:41:23.000Z</time>
      </trkpt>
      <trkpt lat="43.67691" lon="7.22935">
        <ele>6</ele>
        <time>2018-04-24T06:41:25.000Z</time>
      </trkpt>
      <trkpt lat="43.67701" lon="7.22929">
        <ele>7</ele>
        <time>2018-04-24T06:41:27.000Z</time>
      </trkpt>
      <trkpt lat="43.67709" lon="7.22921">
        <ele>7</ele>
        <time>2018-04-24T06:41:29.000Z</time>
      </trkpt>
      <trkpt lat="43.67714" lon="7.22917">
        <ele>7</ele>
        <time>2018-04-24T06:41:30.000Z</time>
      </trkpt>
      <trkpt lat="43.6772" lon="7.22915">
        <ele>8</ele>
        <time>2018-04-24T06:41:31.000Z</time>
      </trkpt>
      <trkpt lat="43.67742" lon="7.22917">
        <ele>8</ele>
        <time>2018-04-24T06:41:35.000Z</time>
      </trkpt>
      <trkpt lat="43.67753" lon="7.22923">
        <ele>8</ele>
        <time>2018-04-24T06:41:37.000Z</time>
      </trkpt>
      <trkpt lat="43.6777" lon="7.22935">
        <ele>8</ele>
        <time>2018-04-24T06:41:40.000Z</time>
      </trkpt>
      <trkpt lat="43.6782" lon="7.22969">
        <ele>9</ele>
        <time>2018-04-24T06:41:49.000Z</time>
      </trkpt>
      <trkpt lat="43.67852" lon="7.22992">
        <ele>10</ele>
        <time>2018-04-24T06:41:55.000Z</time>
      </trkpt>
      <trkpt lat="43.67862" lon="7.23">
        <ele>11</ele>
        <time>2018-04-24T06:41:57.000Z</time>
      </trkpt>
      <trkpt lat="43.67883" lon="7.23016">
        <ele>8</ele>
        <time>2018-04-24T06:42:01.000Z</time>
      </trkpt>
      <trkpt lat="43.67924" lon="7.23045">
        <ele>9</ele>
        <time>2018-04-24T06:42:09.000Z</time>
      </trkpt>
      <trkpt lat="43.67942" lon="7.23062">
        <ele>8</ele>
        <time>2018-04-24T06:42:13.000Z</time>
      </trkpt>
      <trkpt lat="43.67952" lon="7.2307">
        <ele>8</ele>
        <time>2018-04-24T06:42:15.000Z</time>
      </trkpt>
      <trkpt lat="43.67985" lon="7.23094">
        <ele>7</ele>
        <time>2018-04-24T06:42:22.000Z</time>
      </trkpt>
      <trkpt lat="43.67995" lon="7.23099">
        <ele>7</ele>
        <time>2018-04-24T06:42:24.000Z</time>
      </trkpt>
      <trkpt lat="43.68005" lon="7.23107">
        <ele>9</ele>
        <time>2018-04-24T06:42:26.000Z</time>
      </trkpt>
      <trkpt lat="43.68026" lon="7.23123">
        <ele>8</ele>
        <time>2018-04-24T06:42:30.000Z</time>
      </trkpt>
      <trkpt lat="43.68075" lon="7.23166">
        <ele>7</ele>
        <time>2018-04-24T06:42:40.000Z</time>
      </trkpt>
      <trkpt lat="43.68109" lon="7.232">
        <ele>7</ele>
        <time>2018-04-24T06:42:47.000Z</time>
      </trkpt>
      <trkpt lat="43.68153" lon="7.23246">
        <ele>7</ele>
        <time>2018-04-24T06:42:56.000Z</time>
      </trkpt>
      <trkpt lat="43.68158" lon="7.23252">
        <ele>7</ele>
        <time>2018-04-24T06:42:57.000Z</time>
      </trkpt>
      <trkpt lat="43.68195" lon="7.23294">
        <ele>8</ele>
        <time>2018-04-24T06:43:05.000Z</time>
      </trkpt>
      <trkpt lat="43.68199" lon="7.23301">
        <ele>8</ele>
        <time>2018-04-24T06:43:06.000Z</time>
      </trkpt>
      <trkpt lat="43.6822" lon="7.23324">
        <ele>9</ele>
        <time>2018-04-24T06:43:11.000Z</time>
      </trkpt>
      <trkpt lat="43.68226" lon="7.23327">
        <ele>9</ele>
        <time>2018-04-24T06:43:12.000Z</time>
      </trkpt>
      <trkpt lat="43.68235" lon="7.23336">
        <ele>9</ele>
        <time>2018-04-24T06:43:14.000Z</time>
      </trkpt>
      <trkpt lat="43.68253" lon="7.23356">
        <ele>10</ele>
        <time>2018-04-24T06:43:18.000Z</time>
      </trkpt>
      <trkpt lat="43.68292" lon="7.23398">
        <ele>9</ele>
        <time>2018-04-24T06:43:27.000Z</time>
      </trkpt>
      <trkpt lat="43.68335" lon="7.23445">
        <ele>10</ele>
        <time>2018-04-24T06:43:36.000Z</time>
      </trkpt>
      <trkpt lat="43.68377" lon="7.23491">
        <ele>11</ele>
        <time>2018-04-24T06:43:45.000Z</time>
      </trkpt>
      <trkpt lat="43.68386" lon="7.23502">
        <ele>10</ele>
        <time>2018-04-24T06:43:47.000Z</time>
      </trkpt>
      <trkpt lat="43.68404" lon="7.23522">
        <ele>10</ele>
        <time>2018-04-24T06:43:51.000Z</time>
      </trkpt>
      <trkpt lat="43.68431" lon="7.23551">
        <ele>8</ele>
        <time>2018-04-24T06:43:57.000Z</time>
      </trkpt>
      <trkpt lat="43.68446" lon="7.23572">
        <ele>8</ele>
        <time>2018-04-24T06:44:01.000Z</time>
      </trkpt>
      <trkpt lat="43.68453" lon="7.23582">
        <ele>8</ele>
        <time>2018-04-24T06:44:03.000Z</time>
      </trkpt>
      <trkpt lat="43.68462" lon="7.23591">
        <ele>7</ele>
        <time>2018-04-24T06:44:05.000Z</time>
      </trkpt>
      <trkpt lat="43.68471" lon="7.23598">
        <ele>7</ele>
        <time>2018-04-24T06:44:07.000Z</time>
      </trkpt>
      <trkpt lat="43.6848" lon="7.23605">
        <ele>7</ele>
        <time>2018-04-24T06:44:09.000Z</time>
      </trkpt>
      <trkpt lat="43.68489" lon="7.23615">
        <ele>6</ele>
        <time>2018-04-24T06:44:11.000Z</time>
      </trkpt>
      <trkpt lat="43.68498" lon="7.23624">
        <ele>6</ele>
        <time>2018-04-24T06:44:13.000Z</time>
      </trkpt>
      <trkpt lat="43.68511" lon="7.2364">
        <ele>7</ele>
        <time>2018-04-24T06:44:16.000Z</time>
      </trkpt>
      <trkpt lat="43.68529" lon="7.2366">
        <ele>7</ele>
        <time>2018-04-24T06:44:20.000Z</time>
      </trkpt>
      <trkpt lat="43.68552" lon="7.23685">
        <ele>7</ele>
        <time>2018-04-24T06:44:25.000Z</time>
      </trkpt>
      <trkpt lat="43.68596" lon="7.23737">
        <ele>8</ele>
        <time>2018-04-24T06:44:35.000Z</time>
      </trkpt>
      <trkpt lat="43.686" lon="7.23742">
        <ele>8</ele>
        <time>2018-04-24T06:44:36.000Z</time>
      </trkpt>
      <trkpt lat="43.68641" lon="7.23794">
        <ele>11</ele>
        <time>2018-04-24T06:44:46.000Z</time>
      </trkpt>
      <trkpt lat="43.68645" lon="7.238">
        <ele>12</ele>
        <time>2018-04-24T06:44:47.000Z</time>
      </trkpt>
      <trkpt lat="43.68649" lon="7.23805">
        <ele>12</ele>
        <time>2018-04-24T06:44:48.000Z</time>
      </trkpt>
      <trkpt lat="43.68675" lon="7.23844">
        <ele>13</ele>
        <time>2018-04-24T06:44:55.000Z</time>
      </trkpt>
      <trkpt lat="43.68688" lon="7.23865">
        <ele>12</ele>
        <time>2018-04-24T06:44:59.000Z</time>
      </trkpt>
      <trkpt lat="43.68696" lon="7.23874">
        <ele>12</ele>
        <time>2018-04-24T06:45:01.000Z</time>
      </trkpt>
      <trkpt lat="43.68712" lon="7.23893">
        <ele>12</ele>
        <time>2018-04-24T06:45:05.000Z</time>
      </trkpt>
      <trkpt lat="43.68716" lon="7.23899">
        <ele>12</ele>
        <time>2018-04-24T06:45:06.000Z</time>
      </trkpt>
      <trkpt lat="43.68736" lon="7.23933">
        <ele>11</ele>
        <time>2018-04-24T06:45:12.000Z</time>
      </trkpt>
      <trkpt lat="43.68774" lon="7.23994">
        <ele>11</ele>
        <time>2018-04-24T06:45:23.000Z</time>
      </trkpt>
      <trkpt lat="43.68777" lon="7.24">
        <ele>11</ele>
        <time>2018-04-24T06:45:24.000Z</time>
      </trkpt>
      <trkpt lat="43.6881" lon="7.24059">
        <ele>12</ele>
        <time>2018-04-24T06:45:34.000Z</time>
      </trkpt>
      <trkpt lat="43.68813" lon="7.24065">
        <ele>12</ele>
        <time>2018-04-24T06:45:35.000Z</time>
      </trkpt>
      <trkpt lat="43.68848" lon="7.24129">
        <ele>14</ele>
        <time>2018-04-24T06:45:46.000Z</time>
      </trkpt>
      <trkpt lat="43.68873" lon="7.24175">
        <ele>12</ele>
        <time>2018-04-24T06:45:54.000Z</time>
      </trkpt>
      <trkpt lat="43.68906" lon="7.24235">
        <ele>9</ele>
        <time>2018-04-24T06:46:05.000Z</time>
      </trkpt>
      <trkpt lat="43.68932" lon="7.24285">
        <ele>10</ele>
        <time>2018-04-24T06:46:14.000Z</time>
      </trkpt>
      <trkpt lat="43.68935" lon="7.24291">
        <ele>11</ele>
        <time>2018-04-24T06:46:15.000Z</time>
      </trkpt>
      <trkpt lat="43.68963" lon="7.24343">
        <ele>11</ele>
        <time>2018-04-24T06:46:24.000Z</time>
      </trkpt>
      <trkpt lat="43.68988" lon="7.244">
        <ele>10</ele>
        <time>2018-04-24T06:46:33.000Z</time>
      </trkpt>
      <trkpt lat="43.6901" lon="7.24455">
        <ele>11</ele>
        <time>2018-04-24T06:46:42.000Z</time>
      </trkpt>
      <trkpt lat="43.69022" lon="7.24486">
        <ele>11</ele>
        <time>2018-04-24T06:46:47.000Z</time>
      </trkpt>
      <trkpt lat="43.69033" lon="7.24516">
        <ele>10</ele>
        <time>2018-04-24T06:46:52.000Z</time>
      </trkpt>
      <trkpt lat="43.69035" lon="7.24522">
        <ele>10</ele>
        <time>2018-04-24T06:46:53.000Z</time>
      </trkpt>
      <trkpt lat="43.69054" lon="7.24573">
        <ele>10</ele>
        <time>2018-04-24T06:47:02.000Z</time>
      </trkpt>
      <trkpt lat="43.69058" lon="7.24585">
        <ele>9</ele>
        <time>2018-04-24T06:47:04.000Z</time>
      </trkpt>
      <trkpt lat="43.69073" lon="7.2463">
        <ele>8</ele>
        <time>2018-04-24T06:47:11.000Z</time>
      </trkpt>
      <trkpt lat="43.69085" lon="7.24663">
        <ele>8</ele>
        <time>2018-04-24T06:47:16.000Z</time>
      </trkpt>
      <trkpt lat="43.69092" lon="7.24682">
        <ele>9</ele>
        <time>2018-04-24T06:47:19.000Z</time>
      </trkpt>
      <trkpt lat="43.69099" lon="7.24702">
        <ele>9</ele>
        <time>2018-04-24T06:47:22.000Z</time>
      </trkpt>
      <trkpt lat="43.69124" lon="7.24774">
        <ele>10</ele>
        <time>2018-04-24T06:47:33.000Z</time>
      </trkpt>
      <trkpt lat="43.69148" lon="7.24844">
        <ele>9</ele>
        <time>2018-04-24T06:47:44.000Z</time>
      </trkpt>
      <trkpt lat="43.6915" lon="7.24851">
        <ele>9</ele>
        <time>2018-04-24T06:47:45.000Z</time>
      </trkpt>
      <trkpt lat="43.69172" lon="7.24921">
        <ele>8</ele>
        <time>2018-04-24T06:47:56.000Z</time>
      </trkpt>
      <trkpt lat="43.69186" lon="7.24964">
        <ele>9</ele>
        <time>2018-04-24T06:48:03.000Z</time>
      </trkpt>
      <trkpt lat="43.69207" lon="7.25024">
        <ele>9</ele>
        <time>2018-04-24T06:48:13.000Z</time>
      </trkpt>
      <trkpt lat="43.69229" lon="7.25086">
        <ele>8</ele>
        <time>2018-04-24T06:48:23.000Z</time>
      </trkpt>
      <trkpt lat="43.69244" lon="7.25129">
        <ele>7</ele>
        <time>2018-04-24T06:48:30.000Z</time>
      </trkpt>
      <trkpt lat="43.6925" lon="7.25147">
        <ele>7</ele>
        <time>2018-04-24T06:48:33.000Z</time>
      </trkpt>
      <trkpt lat="43.69266" lon="7.25197">
        <ele>9</ele>
        <time>2018-04-24T06:48:41.000Z</time>
      </trkpt>
      <trkpt lat="43.69271" lon="7.25215">
        <ele>9</ele>
        <time>2018-04-24T06:48:44.000Z</time>
      </trkpt>
      <trkpt lat="43.69286" lon="7.2528">
        <ele>8</ele>
        <time>2018-04-24T06:48:54.000Z</time>
      </trkpt>
      <trkpt lat="43.69299" lon="7.2534">
        <ele>7</ele>
        <time>2018-04-24T06:49:03.000Z</time>
      </trkpt>
      <trkpt lat="43.69312" lon="7.25403">
        <ele>9</ele>
        <time>2018-04-24T06:49:12.000Z</time>
      </trkpt>
      <trkpt lat="43.69328" lon="7.25471">
        <ele>10</ele>
        <time>2018-04-24T06:49:22.000Z</time>
      </trkpt>
      <trkpt lat="43.69338" lon="7.25518">
        <ele>10</ele>
        <time>2018-04-24T06:49:29.000Z</time>
      </trkpt>
      <trkpt lat="43.69343" lon="7.2554">
        <ele>10</ele>
        <time>2018-04-24T06:49:32.000Z</time>
      </trkpt>
      <trkpt lat="43.69356" lon="7.25603">
        <ele>8</ele>
        <time>2018-04-24T06:49:41.000Z</time>
      </trkpt>
      <trkpt lat="43.69371" lon="7.25669">
        <ele>9</ele>
        <time>2018-04-24T06:49:51.000Z</time>
      </trkpt>
      <trkpt lat="43.69383" lon="7.25726">
        <ele>12</ele>
        <time>2018-04-24T06:50:00.000Z</time>
      </trkpt>
      <trkpt lat="43.69391" lon="7.25758">
        <ele>13</ele>
        <time>2018-04-24T06:50:05.000Z</time>
      </trkpt>
      <trkpt lat="43.69395" lon="7.25778">
        <ele>12</ele>
        <time>2018-04-24T06:50:08.000Z</time>
      </trkpt>
      <trkpt lat="43.69404" lon="7.25817">
        <ele>10</ele>
        <time>2018-04-24T06:50:13.000Z</time>
      </trkpt>
      <trkpt lat="43.69416" lon="7.25882">
        <ele>6</ele>
        <time>2018-04-24T06:50:22.000Z</time>
      </trkpt>
      <trkpt lat="43.69419" lon="7.25895">
        <ele>8</ele>
        <time>2018-04-24T06:50:25.000Z</time>
      </trkpt>
      <trkpt lat="43.69421" lon="7.25918">
        <ele>5</ele>
        <time>2018-04-24T06:50:29.000Z</time>
      </trkpt>
      <trkpt lat="43.69427" lon="7.25958">
        <ele>7</ele>
        <time>2018-04-24T06:50:34.000Z</time>
      </trkpt>
      <trkpt lat="43.69438" lon="7.26034">
        <ele>7</ele>
        <time>2018-04-24T06:50:44.000Z</time>
      </trkpt>
      <trkpt lat="43.69448" lon="7.26102">
        <ele>8</ele>
        <time>2018-04-24T06:50:53.000Z</time>
      </trkpt>
      <trkpt lat="43.69453" lon="7.26155">
        <ele>9</ele>
        <time>2018-04-24T06:51:00.000Z</time>
      </trkpt>
      <trkpt lat="43.69456" lon="7.26191">
        <ele>13</ele>
        <time>2018-04-24T06:51:05.000Z</time>
      </trkpt>
      <trkpt lat="43.69457" lon="7.26205">
        <ele>13</ele>
        <time>2018-04-24T06:51:07.000Z</time>
      </trkpt>
      <trkpt lat="43.69458" lon="7.2622">
        <ele>13</ele>
        <time>2018-04-24T06:51:10.000Z</time>
      </trkpt>
      <trkpt lat="43.69459" lon="7.26232">
        <ele>13</ele>
        <time>2018-04-24T06:51:12.000Z</time>
      </trkpt>
      <trkpt lat="43.6946" lon="7.26259">
        <ele>12</ele>
        <time>2018-04-24T06:51:16.000Z</time>
      </trkpt>
      <trkpt lat="43.69464" lon="7.26304">
        <ele>11</ele>
        <time>2018-04-24T06:51:22.000Z</time>
      </trkpt>
      <trkpt lat="43.69465" lon="7.26312">
        <ele>11</ele>
        <time>2018-04-24T06:51:23.000Z</time>
      </trkpt>
      <trkpt lat="43.69467" lon="7.26354">
        <ele>10</ele>
        <time>2018-04-24T06:51:29.000Z</time>
      </trkpt>
      <trkpt lat="43.69468" lon="7.26368">
        <ele>10</ele>
        <time>2018-04-24T06:51:31.000Z</time>
      </trkpt>
      <trkpt lat="43.69468" lon="7.26375">
        <ele>10</ele>
        <time>2018-04-24T06:51:32.000Z</time>
      </trkpt>
      <trkpt lat="43.6947" lon="7.2641">
        <ele>10</ele>
        <time>2018-04-24T06:51:37.000Z</time>
      </trkpt>
      <trkpt lat="43.69471" lon="7.26437">
        <ele>10</ele>
        <time>2018-04-24T06:51:41.000Z</time>
      </trkpt>
      <trkpt lat="43.69472" lon="7.26467">
        <ele>10</ele>
        <time>2018-04-24T06:51:47.000Z</time>
      </trkpt>
      <trkpt lat="43.69472" lon="7.26468">
        <ele>10</ele>
        <time>2018-04-24T06:51:52.000Z</time>
      </trkpt>
      <trkpt lat="43.69473" lon="7.2647">
        <ele>10</ele>
        <time>2018-04-24T06:52:07.000Z</time>
      </trkpt>
      <trkpt lat="43.69473" lon="7.26471">
        <ele>10</ele>
        <time>2018-04-24T06:52:16.000Z</time>
      </trkpt>
      <trkpt lat="43.69473" lon="7.26475">
        <ele>10</ele>
        <time>2018-04-24T06:52:31.000Z</time>
      </trkpt>
      <trkpt lat="43.69473" lon="7.26481">
        <ele>10</ele>
        <time>2018-04-24T06:52:42.000Z</time>
      </trkpt>
      <trkpt lat="43.69474" lon="7.26483">
        <ele>10</ele>
        <time>2018-04-24T06:52:43.000Z</time>
      </trkpt>
      <trkpt lat="43.69474" lon="7.26491">
        <ele>10</ele>
        <time>2018-04-24T06:52:46.000Z</time>
      </trkpt>
      <trkpt lat="43.69475" lon="7.2651">
        <ele>10</ele>
        <time>2018-04-24T06:52:51.000Z</time>
      </trkpt>
      <trkpt lat="43.69476" lon="7.26534">
        <ele>10</ele>
        <time>2018-04-24T06:52:56.000Z</time>
      </trkpt>
      <trkpt lat="43.69477" lon="7.26545">
        <ele>10</ele>
        <time>2018-04-24T06:52:58.000Z</time>
      </trkpt>
      <trkpt lat="43.69478" lon="7.2659">
        <ele>10</ele>
        <time>2018-04-24T06:53:06.000Z</time>
      </trkpt>
      <trkpt lat="43.69481" lon="7.26647">
        <ele>8</ele>
        <time>2018-04-24T06:53:15.000Z</time>
      </trkpt>
      <trkpt lat="43.69484" lon="7.26699">
        <ele>7</ele>
        <time>2018-04-24T06:53:23.000Z</time>
      </trkpt>
      <trkpt lat="43.69486" lon="7.26756">
        <ele>5</ele>
        <time>2018-04-24T06:53:32.000Z</time>
      </trkpt>
      <trkpt lat="43.69488" lon="7.26812">
        <ele>4</ele>
        <time>2018-04-24T06:53:41.000Z</time>
      </trkpt>
      <trkpt lat="43.6949" lon="7.26843">
        <ele>4</ele>
        <time>2018-04-24T06:53:46.000Z</time>
      </trkpt>
      <trkpt lat="43.6949" lon="7.26868">
        <ele>5</ele>
        <time>2018-04-24T06:53:50.000Z</time>
      </trkpt>
      <trkpt lat="43.69493" lon="7.2691">
        <ele>6</ele>
        <time>2018-04-24T06:53:57.000Z</time>
      </trkpt>
      <trkpt lat="43.69496" lon="7.26921">
        <ele>6</ele>
        <time>2018-04-24T06:53:59.000Z</time>
      </trkpt>
      <trkpt lat="43.695" lon="7.26938">
        <ele>9</ele>
        <time>2018-04-24T06:54:02.000Z</time>
      </trkpt>
      <trkpt lat="43.695" lon="7.2695">
        <ele>10</ele>
        <time>2018-04-24T06:54:04.000Z</time>
      </trkpt>
      <trkpt lat="43.69501" lon="7.26989">
        <ele>10</ele>
        <time>2018-04-24T06:54:10.000Z</time>
      </trkpt>
      <trkpt lat="43.69501" lon="7.27008">
        <ele>11</ele>
        <time>2018-04-24T06:54:13.000Z</time>
      </trkpt>
      <trkpt lat="43.69501" lon="7.27027">
        <ele>11</ele>
        <time>2018-04-24T06:54:16.000Z</time>
      </trkpt>
      <trkpt lat="43.69502" lon="7.2708">
        <ele>10</ele>
        <time>2018-04-24T06:54:24.000Z</time>
      </trkpt>
      <trkpt lat="43.69499" lon="7.27107">
        <ele>11</ele>
        <time>2018-04-24T06:54:29.000Z</time>
      </trkpt>
      <trkpt lat="43.69499" lon="7.27133">
        <ele>11</ele>
        <time>2018-04-24T06:54:33.000Z</time>
      </trkpt>
      <trkpt lat="43.695" lon="7.27177">
        <ele>13</ele>
        <time>2018-04-24T06:54:40.000Z</time>
      </trkpt>
      <trkpt lat="43.69502" lon="7.27217">
        <ele>13</ele>
        <time>2018-04-24T06:54:46.000Z</time>
      </trkpt>
      <trkpt lat="43.69502" lon="7.27244">
        <ele>12</ele>
        <time>2018-04-24T06:54:50.000Z</time>
      </trkpt>
      <trkpt lat="43.69503" lon="7.27271">
        <ele>12</ele>
        <time>2018-04-24T06:54:54.000Z</time>
      </trkpt>
      <trkpt lat="43.69503" lon="7.27279">
        <ele>12</ele>
        <time>2018-04-24T06:54:55.000Z</time>
      </trkpt>
      <trkpt lat="43.69504" lon="7.27294">
        <ele>12</ele>
        <time>2018-04-24T06:54:57.000Z</time>
      </trkpt>
      <trkpt lat="43.69504" lon="7.27301">
        <ele>11</ele>
        <time>2018-04-24T06:54:58.000Z</time>
      </trkpt>
      <trkpt lat="43.69504" lon="7.27315">
        <ele>10</ele>
        <time>2018-04-24T06:55:00.000Z</time>
      </trkpt>
      <trkpt lat="43.69504" lon="7.27352">
        <ele>9</ele>
        <time>2018-04-24T06:55:05.000Z</time>
      </trkpt>
      <trkpt lat="43.69504" lon="7.27366">
        <ele>9</ele>
        <time>2018-04-24T06:55:07.000Z</time>
      </trkpt>
      <trkpt lat="43.69504" lon="7.27403">
        <ele>8</ele>
        <time>2018-04-24T06:55:12.000Z</time>
      </trkpt>
      <trkpt lat="43.69503" lon="7.27418">
        <ele>6</ele>
        <time>2018-04-24T06:55:14.000Z</time>
      </trkpt>
      <trkpt lat="43.695" lon="7.27477">
        <ele>5</ele>
        <time>2018-04-24T06:55:22.000Z</time>
      </trkpt>
      <trkpt lat="43.69495" lon="7.27544">
        <ele>5</ele>
        <time>2018-04-24T06:55:31.000Z</time>
      </trkpt>
      <trkpt lat="43.69494" lon="7.27551">
        <ele>5</ele>
        <time>2018-04-24T06:55:32.000Z</time>
      </trkpt>
      <trkpt lat="43.69492" lon="7.27589">
        <ele>5</ele>
        <time>2018-04-24T06:55:37.000Z</time>
      </trkpt>
      <trkpt lat="43.69492" lon="7.27597">
        <ele>5</ele>
        <time>2018-04-24T06:55:38.000Z</time>
      </trkpt>
      <trkpt lat="43.69491" lon="7.27604">
        <ele>6</ele>
        <time>2018-04-24T06:55:39.000Z</time>
      </trkpt>
      <trkpt lat="43.69486" lon="7.2765">
        <ele>7</ele>
        <time>2018-04-24T06:55:45.000Z</time>
      </trkpt>
      <trkpt lat="43.69483" lon="7.27672">
        <ele>8</ele>
        <time>2018-04-24T06:55:48.000Z</time>
      </trkpt>
      <trkpt lat="43.69479" lon="7.27707">
        <ele>9</ele>
        <time>2018-04-24T06:55:53.000Z</time>
      </trkpt>
      <trkpt lat="43.69478" lon="7.27714">
        <ele>9</ele>
        <time>2018-04-24T06:55:54.000Z</time>
      </trkpt>
      <trkpt lat="43.69474" lon="7.27742">
        <ele>9</ele>
        <time>2018-04-24T06:55:58.000Z</time>
      </trkpt>
      <trkpt lat="43.69472" lon="7.27769">
        <ele>11</ele>
        <time>2018-04-24T06:56:02.000Z</time>
      </trkpt>
      <trkpt lat="43.69471" lon="7.27795">
        <ele>11</ele>
        <time>2018-04-24T06:56:06.000Z</time>
      </trkpt>
      <trkpt lat="43.69467" lon="7.27813">
        <ele>11</ele>
        <time>2018-04-24T06:56:09.000Z</time>
      </trkpt>
      <trkpt lat="43.69465" lon="7.27819">
        <ele>11</ele>
        <time>2018-04-24T06:56:10.000Z</time>
      </trkpt>
      <trkpt lat="43.69461" lon="7.2783">
        <ele>11</ele>
        <time>2018-04-24T06:56:12.000Z</time>
      </trkpt>
      <trkpt lat="43.69456" lon="7.27841">
        <ele>17</ele>
        <time>2018-04-24T06:56:14.000Z</time>
      </trkpt>
      <trkpt lat="43.69437" lon="7.27874">
        <ele>18</ele>
        <time>2018-04-24T06:56:21.000Z</time>
      </trkpt>
      <trkpt lat="43.69417" lon="7.279">
        <ele>21</ele>
        <time>2018-04-24T06:56:28.000Z</time>
      </trkpt>
      <trkpt lat="43.69414" lon="7.27902">
        <ele>18</ele>
        <time>2018-04-24T06:56:29.000Z</time>
      </trkpt>
      <trkpt lat="43.694" lon="7.27907">
        <ele>17</ele>
        <time>2018-04-24T06:56:33.000Z</time>
      </trkpt>
      <trkpt lat="43.69388" lon="7.27907">
        <ele>15</ele>
        <time>2018-04-24T06:56:36.000Z</time>
      </trkpt>
      <trkpt lat="43.69384" lon="7.27908">
        <ele>14</ele>
        <time>2018-04-24T06:56:37.000Z</time>
      </trkpt>
      <trkpt lat="43.6938" lon="7.27909">
        <ele>14</ele>
        <time>2018-04-24T06:56:38.000Z</time>
      </trkpt>
      <trkpt lat="43.69359" lon="7.27918">
        <ele>17</ele>
        <time>2018-04-24T06:56:44.000Z</time>
      </trkpt>
      <trkpt lat="43.69353" lon="7.27933">
        <ele>17</ele>
        <time>2018-04-24T06:56:47.000Z</time>
      </trkpt>
      <trkpt lat="43.69351" lon="7.27939">
        <ele>17</ele>
        <time>2018-04-24T06:56:48.000Z</time>
      </trkpt>
      <trkpt lat="43.6935" lon="7.27944">
        <ele>18</ele>
        <time>2018-04-24T06:56:49.000Z</time>
      </trkpt>
      <trkpt lat="43.6934" lon="7.2798">
        <ele>18</ele>
        <time>2018-04-24T06:56:55.000Z</time>
      </trkpt>
      <trkpt lat="43.69321" lon="7.28034">
        <ele>15</ele>
        <time>2018-04-24T06:57:05.000Z</time>
      </trkpt>
      <trkpt lat="43.69305" lon="7.28083">
        <ele>16</ele>
        <time>2018-04-24T06:57:14.000Z</time>
      </trkpt>
      <trkpt lat="43.69305" lon="7.2809">
        <ele>16</ele>
        <time>2018-04-24T06:57:15.000Z</time>
      </trkpt>
      <trkpt lat="43.69305" lon="7.28116">
        <ele>15</ele>
        <time>2018-04-24T06:57:19.000Z</time>
      </trkpt>
      <trkpt lat="43.69305" lon="7.28123">
        <ele>15</ele>
        <time>2018-04-24T06:57:20.000Z</time>
      </trkpt>
      <trkpt lat="43.69307" lon="7.2813">
        <ele>15</ele>
        <time>2018-04-24T06:57:21.000Z</time>
      </trkpt>
      <trkpt lat="43.6931" lon="7.28143">
        <ele>14</ele>
        <time>2018-04-24T06:57:23.000Z</time>
      </trkpt>
      <trkpt lat="43.69312" lon="7.28149">
        <ele>14</ele>
        <time>2018-04-24T06:57:24.000Z</time>
      </trkpt>
      <trkpt lat="43.69333" lon="7.28211">
        <ele>10</ele>
        <time>2018-04-24T06:57:33.000Z</time>
      </trkpt>
      <trkpt lat="43.69353" lon="7.28244">
        <ele>15</ele>
        <time>2018-04-24T06:57:38.000Z</time>
      </trkpt>
      <trkpt lat="43.69357" lon="7.2825">
        <ele>10</ele>
        <time>2018-04-24T06:57:39.000Z</time>
      </trkpt>
      <trkpt lat="43.69366" lon="7.28261">
        <ele>11</ele>
        <time>2018-04-24T06:57:41.000Z</time>
      </trkpt>
      <trkpt lat="43.69378" lon="7.28275">
        <ele>12</ele>
        <time>2018-04-24T06:57:44.000Z</time>
      </trkpt>
      <trkpt lat="43.69404" lon="7.28294">
        <ele>11</ele>
        <time>2018-04-24T06:57:49.000Z</time>
      </trkpt>
      <trkpt lat="43.69433" lon="7.28309">
        <ele>14</ele>
        <time>2018-04-24T06:57:54.000Z</time>
      </trkpt>
      <trkpt lat="43.6944" lon="7.28311">
        <ele>14</ele>
        <time>2018-04-24T06:57:55.000Z</time>
      </trkpt>
      <trkpt lat="43.69447" lon="7.28313">
        <ele>14</ele>
        <time>2018-04-24T06:57:56.000Z</time>
      </trkpt>
      <trkpt lat="43.69487" lon="7.28328">
        <ele>13</ele>
        <time>2018-04-24T06:58:02.000Z</time>
      </trkpt>
      <trkpt lat="43.695" lon="7.28334">
        <ele>10</ele>
        <time>2018-04-24T06:58:04.000Z</time>
      </trkpt>
      <trkpt lat="43.69507" lon="7.28335">
        <ele>9</ele>
        <time>2018-04-24T06:58:05.000Z</time>
      </trkpt>
      <trkpt lat="43.69521" lon="7.28339">
        <ele>8</ele>
        <time>2018-04-24T06:58:07.000Z</time>
      </trkpt>
      <trkpt lat="43.69533" lon="7.28342">
        <ele>8</ele>
        <time>2018-04-24T06:58:09.000Z</time>
      </trkpt>
      <trkpt lat="43.69571" lon="7.2835">
        <ele>9</ele>
        <time>2018-04-24T06:58:15.000Z</time>
      </trkpt>
      <trkpt lat="43.6962" lon="7.28359">
        <ele>8</ele>
        <time>2018-04-24T06:58:24.000Z</time>
      </trkpt>
      <trkpt lat="43.69641" lon="7.28362">
        <ele>8</ele>
        <time>2018-04-24T06:58:28.000Z</time>
      </trkpt>
      <trkpt lat="43.69655" lon="7.28363">
        <ele>8</ele>
        <time>2018-04-24T06:58:31.000Z</time>
      </trkpt>
      <trkpt lat="43.69661" lon="7.28363">
        <ele>8</ele>
        <time>2018-04-24T06:58:34.000Z</time>
      </trkpt>
      <trkpt lat="43.69674" lon="7.28364">
        <ele>8</ele>
        <time>2018-04-24T06:58:39.000Z</time>
      </trkpt>
      <trkpt lat="43.69679" lon="7.28365">
        <ele>8</ele>
        <time>2018-04-24T06:58:40.000Z</time>
      </trkpt>
      <trkpt lat="43.69698" lon="7.28367">
        <ele>8</ele>
        <time>2018-04-24T06:58:44.000Z</time>
      </trkpt>
      <trkpt lat="43.69703" lon="7.28368">
        <ele>8</ele>
        <time>2018-04-24T06:58:45.000Z</time>
      </trkpt>
      <trkpt lat="43.69713" lon="7.28371">
        <ele>8</ele>
        <time>2018-04-24T06:58:47.000Z</time>
      </trkpt>
      <trkpt lat="43.69722" lon="7.28374">
        <ele>8</ele>
        <time>2018-04-24T06:58:49.000Z</time>
      </trkpt>
      <trkpt lat="43.69727" lon="7.28374">
        <ele>8</ele>
        <time>2018-04-24T06:58:50.000Z</time>
      </trkpt>
      <trkpt lat="43.69754" lon="7.28377">
        <ele>9</ele>
        <time>2018-04-24T06:58:56.000Z</time>
      </trkpt>
      <trkpt lat="43.69763" lon="7.28379">
        <ele>9</ele>
        <time>2018-04-24T06:58:58.000Z</time>
      </trkpt>
      <trkpt lat="43.69767" lon="7.28379">
        <ele>9</ele>
        <time>2018-04-24T06:58:59.000Z</time>
      </trkpt>
      <trkpt lat="43.69772" lon="7.28379">
        <ele>9</ele>
        <time>2018-04-24T06:59:00.000Z</time>
      </trkpt>
      <trkpt lat="43.69791" lon="7.28383">
        <ele>9</ele>
        <time>2018-04-24T06:59:04.000Z</time>
      </trkpt>
      <trkpt lat="43.69804" lon="7.28385">
        <ele>9</ele>
        <time>2018-04-24T06:59:07.000Z</time>
      </trkpt>
      <trkpt lat="43.69818" lon="7.28386">
        <ele>9</ele>
        <time>2018-04-24T06:59:10.000Z</time>
      </trkpt>
      <trkpt lat="43.69823" lon="7.28388">
        <ele>9</ele>
        <time>2018-04-24T06:59:11.000Z</time>
      </trkpt>
      <trkpt lat="43.69842" lon="7.284">
        <ele>11</ele>
        <time>2018-04-24T06:59:15.000Z</time>
      </trkpt>
      <trkpt lat="43.69846" lon="7.28405">
        <ele>10</ele>
        <time>2018-04-24T06:59:16.000Z</time>
      </trkpt>
      <trkpt lat="43.69855" lon="7.28421">
        <ele>10</ele>
        <time>2018-04-24T06:59:20.000Z</time>
      </trkpt>
      <trkpt lat="43.69862" lon="7.28416">
        <ele>12</ele>
        <time>2018-04-24T06:59:23.000Z</time>
      </trkpt>
      <trkpt lat="43.69865" lon="7.28418">
        <ele>10</ele>
        <time>2018-04-24T06:59:25.000Z</time>
      </trkpt>
      <trkpt lat="43.69866" lon="7.2842">
        <ele>11</ele>
        <time>2018-04-24T06:59:26.000Z</time>
      </trkpt>
      <trkpt lat="43.69874" lon="7.28416">
        <ele>13</ele>
        <time>2018-04-24T06:59:29.000Z</time>
      </trkpt>
      <trkpt lat="43.6988" lon="7.284">
        <ele>13</ele>
        <time>2018-04-24T06:59:32.000Z</time>
      </trkpt>
      <trkpt lat="43.6989" lon="7.28398">
        <ele>14</ele>
        <time>2018-04-24T06:59:35.000Z</time>
      </trkpt>
      <trkpt lat="43.699" lon="7.28398">
        <ele>14</ele>
        <time>2018-04-24T06:59:37.000Z</time>
      </trkpt>
      <trkpt lat="43.69908" lon="7.28398">
        <ele>15</ele>
        <time>2018-04-24T06:59:39.000Z</time>
      </trkpt>
      <trkpt lat="43.69913" lon="7.28399">
        <ele>15</ele>
        <time>2018-04-24T06:59:40.000Z</time>
      </trkpt>
      <trkpt lat="43.69926" lon="7.28405">
        <ele>16</ele>
        <time>2018-04-24T06:59:44.000Z</time>
      </trkpt>
      <trkpt lat="43.69938" lon="7.28406">
        <ele>16</ele>
        <time>2018-04-24T06:59:47.000Z</time>
      </trkpt>
      <trkpt lat="43.69943" lon="7.28405">
        <ele>15</ele>
        <time>2018-04-24T06:59:48.000Z</time>
      </trkpt>
      <trkpt lat="43.69962" lon="7.28408">
        <ele>15</ele>
        <time>2018-04-24T06:59:52.000Z</time>
      </trkpt>
      <trkpt lat="43.69971" lon="7.2841">
        <ele>15</ele>
        <time>2018-04-24T06:59:54.000Z</time>
      </trkpt>
      <trkpt lat="43.69985" lon="7.28412">
        <ele>14</ele>
        <time>2018-04-24T06:59:57.000Z</time>
      </trkpt>
      <trkpt lat="43.69998" lon="7.28415">
        <ele>12</ele>
        <time>2018-04-24T07:00:00.000Z</time>
      </trkpt>
      <trkpt lat="43.7001" lon="7.28418">
        <ele>13</ele>
        <time>2018-04-24T07:00:03.000Z</time>
      </trkpt>
      <trkpt lat="43.70014" lon="7.28419">
        <ele>13</ele>
        <time>2018-04-24T07:00:04.000Z</time>
      </trkpt>
      <trkpt lat="43.7003" lon="7.28421">
        <ele>14</ele>
        <time>2018-04-24T07:00:08.000Z</time>
      </trkpt>
      <trkpt lat="43.70044" lon="7.28422">
        <ele>15</ele>
        <time>2018-04-24T07:00:13.000Z</time>
      </trkpt>
      <trkpt lat="43.70052" lon="7.28424">
        <ele>15</ele>
        <time>2018-04-24T07:00:18.000Z</time>
      </trkpt>
      <trkpt lat="43.7006" lon="7.28426">
        <ele>15</ele>
        <time>2018-04-24T07:00:22.000Z</time>
      </trkpt>
      <trkpt lat="43.70076" lon="7.28429">
        <ele>15</ele>
        <time>2018-04-24T07:00:26.000Z</time>
      </trkpt>
      <trkpt lat="43.70095" lon="7.28431">
        <ele>17</ele>
        <time>2018-04-24T07:00:30.000Z</time>
      </trkpt>
      <trkpt lat="43.70104" lon="7.28433">
        <ele>17</ele>
        <time>2018-04-24T07:00:32.000Z</time>
      </trkpt>
      <trkpt lat="43.7012" lon="7.28436">
        <ele>18</ele>
        <time>2018-04-24T07:00:37.000Z</time>
      </trkpt>
      <trkpt lat="43.70138" lon="7.2844">
        <ele>18</ele>
        <time>2018-04-24T07:00:42.000Z</time>
      </trkpt>
      <trkpt lat="43.70151" lon="7.28447">
        <ele>19</ele>
        <time>2018-04-24T07:00:45.000Z</time>
      </trkpt>
      <trkpt lat="43.70156" lon="7.28449">
        <ele>19</ele>
        <time>2018-04-24T07:00:46.000Z</time>
      </trkpt>
      <trkpt lat="43.7016" lon="7.28452">
        <ele>19</ele>
        <time>2018-04-24T07:00:47.000Z</time>
      </trkpt>
      <trkpt lat="43.70192" lon="7.28468">
        <ele>19</ele>
        <time>2018-04-24T07:00:54.000Z</time>
      </trkpt>
      <trkpt lat="43.702" lon="7.28477">
        <ele>19</ele>
        <time>2018-04-24T07:00:58.000Z</time>
      </trkpt>
      <trkpt lat="43.70207" lon="7.28485">
        <ele>19</ele>
        <time>2018-04-24T07:01:03.000Z</time>
      </trkpt>
      <trkpt lat="43.70208" lon="7.28487">
        <ele>19</ele>
        <time>2018-04-24T07:01:04.000Z</time>
      </trkpt>
      <trkpt lat="43.7021" lon="7.28494">
        <ele>19</ele>
        <time>2018-04-24T07:01:07.000Z</time>
      </trkpt>
      <trkpt lat="43.70207" lon="7.28495">
        <ele>19</ele>
        <time>2018-04-24T07:01:08.000Z</time>
      </trkpt>
      <trkpt lat="43.70206" lon="7.28493">
        <ele>19</ele>
        <time>2018-04-24T07:01:11.000Z</time>
      </trkpt>
      <trkpt lat="43.70209" lon="7.28494">
        <ele>19</ele>
        <time>2018-04-24T07:01:13.000Z</time>
      </trkpt>
      <trkpt lat="43.70211" lon="7.28496">
        <ele>19</ele>
        <time>2018-04-24T07:01:15.000Z</time>
      </trkpt>
      <trkpt lat="43.70211" lon="7.28499">
        <ele>19</ele>
        <time>2018-04-24T07:01:16.000Z</time>
      </trkpt>
      <trkpt lat="43.70208" lon="7.28506">
        <ele>18</ele>
        <time>2018-04-24T07:01:18.000Z</time>
      </trkpt>
      <trkpt lat="43.7021" lon="7.28506">
        <ele>18</ele>
        <time>2018-04-24T07:01:20.000Z</time>
      </trkpt>
      <trkpt lat="43.70211" lon="7.28507">
        <ele>18</ele>
        <time>2018-04-24T07:01:21.000Z</time>
      </trkpt>
      <trkpt lat="43.70212" lon="7.28513">
        <ele>18</ele>
        <time>2018-04-24T07:01:24.000Z</time>
      </trkpt>
      <trkpt lat="43.70212" lon="7.28514">
        <ele>18</ele>
        <time>2018-04-24T07:01:25.000Z</time>
      </trkpt>
      <trkpt lat="43.7022" lon="7.2852">
        <ele>18</ele>
        <time>2018-04-24T07:01:29.000Z</time>
      </trkpt>
      <trkpt lat="43.70231" lon="7.28525">
        <ele>18</ele>
        <time>2018-04-24T07:01:34.000Z</time>
      </trkpt>
      <trkpt lat="43.70249" lon="7.28524">
        <ele>18</ele>
        <time>2018-04-24T07:01:40.000Z</time>
      </trkpt>
      <trkpt lat="43.70263" lon="7.28529">
        <ele>20</ele>
        <time>2018-04-24T07:01:44.000Z</time>
      </trkpt>
      <trkpt lat="43.70286" lon="7.28539">
        <ele>20</ele>
        <time>2018-04-24T07:01:49.000Z</time>
      </trkpt>
      <trkpt lat="43.70297" lon="7.28544">
        <ele>20</ele>
        <time>2018-04-24T07:01:51.000Z</time>
      </trkpt>
      <trkpt lat="43.70311" lon="7.28551">
        <ele>21</ele>
        <time>2018-04-24T07:01:54.000Z</time>
      </trkpt>
      <trkpt lat="43.70326" lon="7.28557">
        <ele>21</ele>
        <time>2018-04-24T07:01:57.000Z</time>
      </trkpt>
      <trkpt lat="43.70343" lon="7.28565">
        <ele>21</ele>
        <time>2018-04-24T07:02:01.000Z</time>
      </trkpt>
      <trkpt lat="43.70356" lon="7.28571">
        <ele>21</ele>
        <time>2018-04-24T07:02:04.000Z</time>
      </trkpt>
      <trkpt lat="43.7037" lon="7.28577">
        <ele>21</ele>
        <time>2018-04-24T07:02:07.000Z</time>
      </trkpt>
      <trkpt lat="43.70388" lon="7.28586">
        <ele>21</ele>
        <time>2018-04-24T07:02:11.000Z</time>
      </trkpt>
      <trkpt lat="43.70401" lon="7.28592">
        <ele>21</ele>
        <time>2018-04-24T07:02:14.000Z</time>
      </trkpt>
      <trkpt lat="43.7042" lon="7.28604">
        <ele>21</ele>
        <time>2018-04-24T07:02:20.000Z</time>
      </trkpt>
      <trkpt lat="43.70423" lon="7.28606">
        <ele>22</ele>
        <time>2018-04-24T07:02:21.000Z</time>
      </trkpt>
      <trkpt lat="43.70434" lon="7.28612">
        <ele>22</ele>
        <time>2018-04-24T07:02:25.000Z</time>
      </trkpt>
      <trkpt lat="43.70439" lon="7.28614">
        <ele>22</ele>
        <time>2018-04-24T07:02:26.000Z</time>
      </trkpt>
      <trkpt lat="43.70448" lon="7.28618">
        <ele>22</ele>
        <time>2018-04-24T07:02:28.000Z</time>
      </trkpt>
      <trkpt lat="43.70473" lon="7.28628">
        <ele>22</ele>
        <time>2018-04-24T07:02:35.000Z</time>
      </trkpt>
      <trkpt lat="43.70475" lon="7.2863">
        <ele>22</ele>
        <time>2018-04-24T07:02:39.000Z</time>
      </trkpt>
      <trkpt lat="43.7048" lon="7.28632">
        <ele>22</ele>
        <time>2018-04-24T07:02:45.000Z</time>
      </trkpt>
      <trkpt lat="43.70484" lon="7.28634">
        <ele>22</ele>
        <time>2018-04-24T07:02:49.000Z</time>
      </trkpt>
      <trkpt lat="43.70488" lon="7.28636">
        <ele>23</ele>
        <time>2018-04-24T07:02:51.000Z</time>
      </trkpt>
      <trkpt lat="43.70496" lon="7.2864">
        <ele>23</ele>
        <time>2018-04-24T07:02:54.000Z</time>
      </trkpt>
      <trkpt lat="43.70511" lon="7.28646">
        <ele>24</ele>
        <time>2018-04-24T07:02:58.000Z</time>
      </trkpt>
      <trkpt lat="43.70531" lon="7.28657">
        <ele>24</ele>
        <time>2018-04-24T07:03:02.000Z</time>
      </trkpt>
      <trkpt lat="43.70554" lon="7.28673">
        <ele>24</ele>
        <time>2018-04-24T07:03:07.000Z</time>
      </trkpt>
      <trkpt lat="43.70565" lon="7.28678">
        <ele>24</ele>
        <time>2018-04-24T07:03:09.000Z</time>
      </trkpt>
      <trkpt lat="43.70574" lon="7.28685">
        <ele>24</ele>
        <time>2018-04-24T07:03:11.000Z</time>
      </trkpt>
      <trkpt lat="43.70609" lon="7.28706">
        <ele>24</ele>
        <time>2018-04-24T07:03:18.000Z</time>
      </trkpt>
      <trkpt lat="43.70639" lon="7.28722">
        <ele>24</ele>
        <time>2018-04-24T07:03:24.000Z</time>
      </trkpt>
      <trkpt lat="43.70654" lon="7.28728">
        <ele>24</ele>
        <time>2018-04-24T07:03:27.000Z</time>
      </trkpt>
      <trkpt lat="43.70664" lon="7.28733">
        <ele>24</ele>
        <time>2018-04-24T07:03:29.000Z</time>
      </trkpt>
      <trkpt lat="43.70703" lon="7.28755">
        <ele>24</ele>
        <time>2018-04-24T07:03:36.000Z</time>
      </trkpt>
      <trkpt lat="43.70709" lon="7.28757">
        <ele>24</ele>
        <time>2018-04-24T07:03:37.000Z</time>
      </trkpt>
      <trkpt lat="43.70726" lon="7.28767">
        <ele>24</ele>
        <time>2018-04-24T07:03:40.000Z</time>
      </trkpt>
      <trkpt lat="43.70732" lon="7.2877">
        <ele>24</ele>
        <time>2018-04-24T07:03:41.000Z</time>
      </trkpt>
      <trkpt lat="43.70753" lon="7.28779">
        <ele>23</ele>
        <time>2018-04-24T07:03:45.000Z</time>
      </trkpt>
      <trkpt lat="43.7076" lon="7.28784">
        <ele>23</ele>
        <time>2018-04-24T07:03:46.000Z</time>
      </trkpt>
      <trkpt lat="43.70769" lon="7.28783">
        <ele>23</ele>
        <time>2018-04-24T07:03:48.000Z</time>
      </trkpt>
      <trkpt lat="43.70773" lon="7.2878">
        <ele>23</ele>
        <time>2018-04-24T07:03:49.000Z</time>
      </trkpt>
      <trkpt lat="43.70785" lon="7.28767">
        <ele>23</ele>
        <time>2018-04-24T07:03:52.000Z</time>
      </trkpt>
      <trkpt lat="43.70789" lon="7.28763">
        <ele>23</ele>
        <time>2018-04-24T07:03:53.000Z</time>
      </trkpt>
      <trkpt lat="43.70802" lon="7.2875">
        <ele>24</ele>
        <time>2018-04-24T07:03:56.000Z</time>
      </trkpt>
      <trkpt lat="43.70809" lon="7.28751">
        <ele>22</ele>
        <time>2018-04-24T07:03:58.000Z</time>
      </trkpt>
      <trkpt lat="43.70816" lon="7.28763">
        <ele>22</ele>
        <time>2018-04-24T07:04:01.000Z</time>
      </trkpt>
      <trkpt lat="43.70825" lon="7.2877">
        <ele>22</ele>
        <time>2018-04-24T07:04:04.000Z</time>
      </trkpt>
      <trkpt lat="43.7083" lon="7.28768">
        <ele>22</ele>
        <time>2018-04-24T07:04:05.000Z</time>
      </trkpt>
      <trkpt lat="43.70848" lon="7.28766">
        <ele>21</ele>
        <time>2018-04-24T07:04:09.000Z</time>
      </trkpt>
      <trkpt lat="43.70858" lon="7.28768">
        <ele>20</ele>
        <time>2018-04-24T07:04:11.000Z</time>
      </trkpt>
      <trkpt lat="43.70879" lon="7.2877">
        <ele>20</ele>
        <time>2018-04-24T07:04:15.000Z</time>
      </trkpt>
      <trkpt lat="43.70918" lon="7.28777">
        <ele>19</ele>
        <time>2018-04-24T07:04:23.000Z</time>
      </trkpt>
      <trkpt lat="43.70928" lon="7.28779">
        <ele>19</ele>
        <time>2018-04-24T07:04:25.000Z</time>
      </trkpt>
      <trkpt lat="43.70958" lon="7.28784">
        <ele>19</ele>
        <time>2018-04-24T07:04:32.000Z</time>
      </trkpt>
      <trkpt lat="43.70971" lon="7.28787">
        <ele>19</ele>
        <time>2018-04-24T07:04:37.000Z</time>
      </trkpt>
      <trkpt lat="43.70987" lon="7.28791">
        <ele>19</ele>
        <time>2018-04-24T07:04:42.000Z</time>
      </trkpt>
      <trkpt lat="43.70992" lon="7.28793">
        <ele>19</ele>
        <time>2018-04-24T07:04:43.000Z</time>
      </trkpt>
      <trkpt lat="43.71006" lon="7.28795">
        <ele>19</ele>
        <time>2018-04-24T07:04:46.000Z</time>
      </trkpt>
      <trkpt lat="43.7101" lon="7.28795">
        <ele>19</ele>
        <time>2018-04-24T07:04:47.000Z</time>
      </trkpt>
      <trkpt lat="43.71042" lon="7.28803">
        <ele>20</ele>
        <time>2018-04-24T07:04:54.000Z</time>
      </trkpt>
      <trkpt lat="43.71093" lon="7.28809">
        <ele>22</ele>
        <time>2018-04-24T07:05:05.000Z</time>
      </trkpt>
      <trkpt lat="43.71121" lon="7.28818">
        <ele>22</ele>
        <time>2018-04-24T07:05:11.000Z</time>
      </trkpt>
      <trkpt lat="43.71129" lon="7.28823">
        <ele>22</ele>
        <time>2018-04-24T07:05:15.000Z</time>
      </trkpt>
      <trkpt lat="43.71128" lon="7.28823">
        <ele>22</ele>
        <time>2018-04-24T07:05:17.000Z</time>
      </trkpt>
      <trkpt lat="43.71128" lon="7.28823">
        <ele>22</ele>
        <time>2018-04-24T07:05:19.000Z</time>
      </trkpt>
      <trkpt lat="43.71129" lon="7.28825">
        <ele>22</ele>
        <time>2018-04-24T07:05:33.000Z</time>
      </trkpt>
      <trkpt lat="43.71129" lon="7.28826">
        <ele>22</ele>
        <time>2018-04-24T07:05:55.000Z</time>
      </trkpt>
      <trkpt lat="43.7113" lon="7.28826">
        <ele>22</ele>
        <time>2018-04-24T07:05:57.000Z</time>
      </trkpt>
      <trkpt lat="43.71135" lon="7.28828">
        <ele>22</ele>
        <time>2018-04-24T07:06:00.000Z</time>
      </trkpt>
      <trkpt lat="43.71141" lon="7.2883">
        <ele>22</ele>
        <time>2018-04-24T07:06:02.000Z</time>
      </trkpt>
      <trkpt lat="43.71148" lon="7.28831">
        <ele>22</ele>
        <time>2018-04-24T07:06:04.000Z</time>
      </trkpt>
      <trkpt lat="43.71173" lon="7.2884">
        <ele>23</ele>
        <time>2018-04-24T07:06:10.000Z</time>
      </trkpt>
      <trkpt lat="43.71206" lon="7.28852">
        <ele>24</ele>
        <time>2018-04-24T07:06:17.000Z</time>
      </trkpt>
      <trkpt lat="43.71244" lon="7.28867">
        <ele>25</ele>
        <time>2018-04-24T07:06:25.000Z</time>
      </trkpt>
      <trkpt lat="43.71282" lon="7.2888">
        <ele>25</ele>
        <time>2018-04-24T07:06:33.000Z</time>
      </trkpt>
      <trkpt lat="43.71292" lon="7.28882">
        <ele>25</ele>
        <time>2018-04-24T07:06:35.000Z</time>
      </trkpt>
      <trkpt lat="43.71327" lon="7.2889">
        <ele>26</ele>
        <time>2018-04-24T07:06:42.000Z</time>
      </trkpt>
      <trkpt lat="43.71357" lon="7.28893">
        <ele>26</ele>
        <time>2018-04-24T07:06:48.000Z</time>
      </trkpt>
      <trkpt lat="43.71396" lon="7.289">
        <ele>27</ele>
        <time>2018-04-24T07:06:56.000Z</time>
      </trkpt>
      <trkpt lat="43.71412" lon="7.28906">
        <ele>27</ele>
        <time>2018-04-24T07:06:59.000Z</time>
      </trkpt>
      <trkpt lat="43.71429" lon="7.28911">
        <ele>28</ele>
        <time>2018-04-24T07:07:02.000Z</time>
      </trkpt>
      <trkpt lat="43.71451" lon="7.28917">
        <ele>28</ele>
        <time>2018-04-24T07:07:06.000Z</time>
      </trkpt>
      <trkpt lat="43.71467" lon="7.28923">
        <ele>28</ele>
        <time>2018-04-24T07:07:09.000Z</time>
      </trkpt>
      <trkpt lat="43.71478" lon="7.28927">
        <ele>28</ele>
        <time>2018-04-24T07:07:11.000Z</time>
      </trkpt>
      <trkpt lat="43.71499" lon="7.28937">
        <ele>29</ele>
        <time>2018-04-24T07:07:15.000Z</time>
      </trkpt>
      <trkpt lat="43.71534" lon="7.28954">
        <ele>28</ele>
        <time>2018-04-24T07:07:22.000Z</time>
      </trkpt>
      <trkpt lat="43.71551" lon="7.28958">
        <ele>28</ele>
        <time>2018-04-24T07:07:26.000Z</time>
      </trkpt>
      <trkpt lat="43.71554" lon="7.28959">
        <ele>28</ele>
        <time>2018-04-24T07:07:27.000Z</time>
      </trkpt>
      <trkpt lat="43.71567" lon="7.28965">
        <ele>28</ele>
        <time>2018-04-24T07:07:31.000Z</time>
      </trkpt>
      <trkpt lat="43.71574" lon="7.28968">
        <ele>28</ele>
        <time>2018-04-24T07:07:33.000Z</time>
      </trkpt>
      <trkpt lat="43.71603" lon="7.28986">
        <ele>29</ele>
        <time>2018-04-24T07:07:40.000Z</time>
      </trkpt>
      <trkpt lat="43.71654" lon="7.29017">
        <ele>31</ele>
        <time>2018-04-24T07:07:51.000Z</time>
      </trkpt>
      <trkpt lat="43.71701" lon="7.29046">
        <ele>33</ele>
        <time>2018-04-24T07:08:01.000Z</time>
      </trkpt>
      <trkpt lat="43.71744" lon="7.29072">
        <ele>33</ele>
        <time>2018-04-24T07:08:10.000Z</time>
      </trkpt>
      <trkpt lat="43.71787" lon="7.29098">
        <ele>31</ele>
        <time>2018-04-24T07:08:19.000Z</time>
      </trkpt>
      <trkpt lat="43.71801" lon="7.29106">
        <ele>31</ele>
        <time>2018-04-24T07:08:22.000Z</time>
      </trkpt>
      <trkpt lat="43.71833" lon="7.29125">
        <ele>30</ele>
        <time>2018-04-24T07:08:29.000Z</time>
      </trkpt>
      <trkpt lat="43.7186" lon="7.29143">
        <ele>29</ele>
        <time>2018-04-24T07:08:36.000Z</time>
      </trkpt>
      <trkpt lat="43.71863" lon="7.29145">
        <ele>29</ele>
        <time>2018-04-24T07:08:37.000Z</time>
      </trkpt>
      <trkpt lat="43.71875" lon="7.29152">
        <ele>29</ele>
        <time>2018-04-24T07:08:42.000Z</time>
      </trkpt>
      <trkpt lat="43.71894" lon="7.29162">
        <ele>29</ele>
        <time>2018-04-24T07:08:48.000Z</time>
      </trkpt>
      <trkpt lat="43.71914" lon="7.29166">
        <ele>29</ele>
        <time>2018-04-24T07:08:53.000Z</time>
      </trkpt>
      <trkpt lat="43.71957" lon="7.29171">
        <ele>30</ele>
        <time>2018-04-24T07:09:02.000Z</time>
      </trkpt>
      <trkpt lat="43.72013" lon="7.29177">
        <ele>31</ele>
        <time>2018-04-24T07:09:13.000Z</time>
      </trkpt>
      <trkpt lat="43.72029" lon="7.29178">
        <ele>32</ele>
        <time>2018-04-24T07:09:16.000Z</time>
      </trkpt>
      <trkpt lat="43.72076" lon="7.29184">
        <ele>32</ele>
        <time>2018-04-24T07:09:25.000Z</time>
      </trkpt>
      <trkpt lat="43.72108" lon="7.29187">
        <ele>33</ele>
        <time>2018-04-24T07:09:31.000Z</time>
      </trkpt>
      <trkpt lat="43.72113" lon="7.29187">
        <ele>33</ele>
        <time>2018-04-24T07:09:32.000Z</time>
      </trkpt>
      <trkpt lat="43.72153" lon="7.29191">
        <ele>33</ele>
        <time>2018-04-24T07:09:40.000Z</time>
      </trkpt>
      <trkpt lat="43.72158" lon="7.29191">
        <ele>33</ele>
        <time>2018-04-24T07:09:41.000Z</time>
      </trkpt>
      <trkpt lat="43.72177" lon="7.29192">
        <ele>33</ele>
        <time>2018-04-24T07:09:45.000Z</time>
      </trkpt>
      <trkpt lat="43.72199" lon="7.29192">
        <ele>34</ele>
        <time>2018-04-24T07:09:50.000Z</time>
      </trkpt>
      <trkpt lat="43.72208" lon="7.29193">
        <ele>34</ele>
        <time>2018-04-24T07:09:52.000Z</time>
      </trkpt>
      <trkpt lat="43.72229" lon="7.29194">
        <ele>34</ele>
        <time>2018-04-24T07:09:57.000Z</time>
      </trkpt>
      <trkpt lat="43.72233" lon="7.29194">
        <ele>34</ele>
        <time>2018-04-24T07:09:58.000Z</time>
      </trkpt>
      <trkpt lat="43.72246" lon="7.29195">
        <ele>33</ele>
        <time>2018-04-24T07:10:02.000Z</time>
      </trkpt>
      <trkpt lat="43.72248" lon="7.29195">
        <ele>33</ele>
        <time>2018-04-24T07:10:03.000Z</time>
      </trkpt>
      <trkpt lat="43.72253" lon="7.29195">
        <ele>36</ele>
        <time>2018-04-24T07:10:06.000Z</time>
      </trkpt>
      <trkpt lat="43.72259" lon="7.29196">
        <ele>36</ele>
        <time>2018-04-24T07:10:09.000Z</time>
      </trkpt>
      <trkpt lat="43.7227" lon="7.29195">
        <ele>36</ele>
        <time>2018-04-24T07:10:14.000Z</time>
      </trkpt>
      <trkpt lat="43.72271" lon="7.29194">
        <ele>36</ele>
        <time>2018-04-24T07:10:15.000Z</time>
      </trkpt>
      <trkpt lat="43.72274" lon="7.29183">
        <ele>36</ele>
        <time>2018-04-24T07:10:19.000Z</time>
      </trkpt>
      <trkpt lat="43.72276" lon="7.2918">
        <ele>36</ele>
        <time>2018-04-24T07:10:20.000Z</time>
      </trkpt>
      <trkpt lat="43.7228" lon="7.29156">
        <ele>33</ele>
        <time>2018-04-24T07:10:24.000Z</time>
      </trkpt>
      <trkpt lat="43.72285" lon="7.29106">
        <ele>33</ele>
        <time>2018-04-24T07:10:31.000Z</time>
      </trkpt>
      <trkpt lat="43.72292" lon="7.2906">
        <ele>33</ele>
        <time>2018-04-24T07:10:37.000Z</time>
      </trkpt>
      <trkpt lat="43.72295" lon="7.29045">
        <ele>34</ele>
        <time>2018-04-24T07:10:39.000Z</time>
      </trkpt>
      <trkpt lat="43.72297" lon="7.29037">
        <ele>34</ele>
        <time>2018-04-24T07:10:40.000Z</time>
      </trkpt>
      <trkpt lat="43.723" lon="7.29031">
        <ele>34</ele>
        <time>2018-04-24T07:10:41.000Z</time>
      </trkpt>
      <trkpt lat="43.72317" lon="7.2902">
        <ele>34</ele>
        <time>2018-04-24T07:10:44.000Z</time>
      </trkpt>
      <trkpt lat="43.72329" lon="7.29019">
        <ele>34</ele>
        <time>2018-04-24T07:10:46.000Z</time>
      </trkpt>
      <trkpt lat="43.72336" lon="7.29019">
        <ele>35</ele>
        <time>2018-04-24T07:10:47.000Z</time>
      </trkpt>
      <trkpt lat="43.72348" lon="7.29017">
        <ele>35</ele>
        <time>2018-04-24T07:10:49.000Z</time>
      </trkpt>
      <trkpt lat="43.72393" lon="7.29008">
        <ele>36</ele>
        <time>2018-04-24T07:10:56.000Z</time>
      </trkpt>
      <trkpt lat="43.72405" lon="7.29004">
        <ele>36</ele>
        <time>2018-04-24T07:10:58.000Z</time>
      </trkpt>
      <trkpt lat="43.72419" lon="7.29">
        <ele>37</ele>
        <time>2018-04-24T07:11:00.000Z</time>
      </trkpt>
      <trkpt lat="43.7243" lon="7.28992">
        <ele>38</ele>
        <time>2018-04-24T07:11:02.000Z</time>
      </trkpt>
      <trkpt lat="43.72456" lon="7.28966">
        <ele>39</ele>
        <time>2018-04-24T07:11:07.000Z</time>
      </trkpt>
      <trkpt lat="43.72465" lon="7.28954">
        <ele>40</ele>
        <time>2018-04-24T07:11:09.000Z</time>
      </trkpt>
      <trkpt lat="43.72479" lon="7.28928">
        <ele>40</ele>
        <time>2018-04-24T07:11:13.000Z</time>
      </trkpt>
      <trkpt lat="43.72504" lon="7.28883">
        <ele>41</ele>
        <time>2018-04-24T07:11:20.000Z</time>
      </trkpt>
      <trkpt lat="43.72507" lon="7.28878">
        <ele>41</ele>
        <time>2018-04-24T07:11:21.000Z</time>
      </trkpt>
      <trkpt lat="43.72517" lon="7.28858">
        <ele>42</ele>
        <time>2018-04-24T07:11:24.000Z</time>
      </trkpt>
      <trkpt lat="43.72523" lon="7.28846">
        <ele>42</ele>
        <time>2018-04-24T07:11:26.000Z</time>
      </trkpt>
      <trkpt lat="43.7253" lon="7.28833">
        <ele>40</ele>
        <time>2018-04-24T07:11:28.000Z</time>
      </trkpt>
      <trkpt lat="43.72537" lon="7.28819">
        <ele>40</ele>
        <time>2018-04-24T07:11:30.000Z</time>
      </trkpt>
      <trkpt lat="43.72544" lon="7.28806">
        <ele>39</ele>
        <time>2018-04-24T07:11:32.000Z</time>
      </trkpt>
      <trkpt lat="43.72574" lon="7.28749">
        <ele>38</ele>
        <time>2018-04-24T07:11:41.000Z</time>
      </trkpt>
      <trkpt lat="43.726" lon="7.28701">
        <ele>37</ele>
        <time>2018-04-24T07:11:49.000Z</time>
      </trkpt>
      <trkpt lat="43.72609" lon="7.28682">
        <ele>37</ele>
        <time>2018-04-24T07:11:52.000Z</time>
      </trkpt>
      <trkpt lat="43.72623" lon="7.28658">
        <ele>37</ele>
        <time>2018-04-24T07:11:56.000Z</time>
      </trkpt>
      <trkpt lat="43.72632" lon="7.2864">
        <ele>38</ele>
        <time>2018-04-24T07:11:59.000Z</time>
      </trkpt>
      <trkpt lat="43.72642" lon="7.28623">
        <ele>38</ele>
        <time>2018-04-24T07:12:02.000Z</time>
      </trkpt>
      <trkpt lat="43.72667" lon="7.28576">
        <ele>40</ele>
        <time>2018-04-24T07:12:10.000Z</time>
      </trkpt>
      <trkpt lat="43.72677" lon="7.28559">
        <ele>39</ele>
        <time>2018-04-24T07:12:13.000Z</time>
      </trkpt>
      <trkpt lat="43.72702" lon="7.28513">
        <ele>38</ele>
        <time>2018-04-24T07:12:21.000Z</time>
      </trkpt>
      <trkpt lat="43.7273" lon="7.28466">
        <ele>37</ele>
        <time>2018-04-24T07:12:30.000Z</time>
      </trkpt>
      <trkpt lat="43.72756" lon="7.2843">
        <ele>38</ele>
        <time>2018-04-24T07:12:37.000Z</time>
      </trkpt>
      <trkpt lat="43.7276" lon="7.28426">
        <ele>38</ele>
        <time>2018-04-24T07:12:38.000Z</time>
      </trkpt>
      <trkpt lat="43.72784" lon="7.28411">
        <ele>38</ele>
        <time>2018-04-24T07:12:43.000Z</time>
      </trkpt>
      <trkpt lat="43.72816" lon="7.28404">
        <ele>39</ele>
        <time>2018-04-24T07:12:49.000Z</time>
      </trkpt>
      <trkpt lat="43.72847" lon="7.284">
        <ele>40</ele>
        <time>2018-04-24T07:12:55.000Z</time>
      </trkpt>
      <trkpt lat="43.72857" lon="7.28399">
        <ele>40</ele>
        <time>2018-04-24T07:12:57.000Z</time>
      </trkpt>
      <trkpt lat="43.72878" lon="7.28398">
        <ele>40</ele>
        <time>2018-04-24T07:13:01.000Z</time>
      </trkpt>
      <trkpt lat="43.72914" lon="7.28399">
        <ele>40</ele>
        <time>2018-04-24T07:13:08.000Z</time>
      </trkpt>
      <trkpt lat="43.72959" lon="7.28401">
        <ele>41</ele>
        <time>2018-04-24T07:13:17.000Z</time>
      </trkpt>
      <trkpt lat="43.72974" lon="7.28401">
        <ele>41</ele>
        <time>2018-04-24T07:13:20.000Z</time>
      </trkpt>
      <trkpt lat="43.72978" lon="7.28402">
        <ele>41</ele>
        <time>2018-04-24T07:13:21.000Z</time>
      </trkpt>
      <trkpt lat="43.72993" lon="7.28407">
        <ele>41</ele>
        <time>2018-04-24T07:13:24.000Z</time>
      </trkpt>
      <trkpt lat="43.7301" lon="7.28419">
        <ele>43</ele>
        <time>2018-04-24T07:13:28.000Z</time>
      </trkpt>
      <trkpt lat="43.73018" lon="7.28428">
        <ele>43</ele>
        <time>2018-04-24T07:13:30.000Z</time>
      </trkpt>
      <trkpt lat="43.73022" lon="7.28433">
        <ele>43</ele>
        <time>2018-04-24T07:13:31.000Z</time>
      </trkpt>
      <trkpt lat="43.73031" lon="7.28449">
        <ele>44</ele>
        <time>2018-04-24T07:13:34.000Z</time>
      </trkpt>
      <trkpt lat="43.73035" lon="7.28462">
        <ele>44</ele>
        <time>2018-04-24T07:13:36.000Z</time>
      </trkpt>
      <trkpt lat="43.73039" lon="7.28481">
        <ele>45</ele>
        <time>2018-04-24T07:13:39.000Z</time>
      </trkpt>
      <trkpt lat="43.7304" lon="7.28499">
        <ele>45</ele>
        <time>2018-04-24T07:13:42.000Z</time>
      </trkpt>
      <trkpt lat="43.73041" lon="7.28504">
        <ele>50</ele>
        <time>2018-04-24T07:13:43.000Z</time>
      </trkpt>
      <trkpt lat="43.73044" lon="7.28531">
        <ele>51</ele>
        <time>2018-04-24T07:13:48.000Z</time>
      </trkpt>
      <trkpt lat="43.73044" lon="7.28549">
        <ele>52</ele>
        <time>2018-04-24T07:13:52.000Z</time>
      </trkpt>
      <trkpt lat="43.73047" lon="7.28554">
        <ele>52</ele>
        <time>2018-04-24T07:13:54.000Z</time>
      </trkpt>
      <trkpt lat="43.73048" lon="7.28557">
        <ele>52</ele>
        <time>2018-04-24T07:13:55.000Z</time>
      </trkpt>
      <trkpt lat="43.73048" lon="7.28571">
        <ele>53</ele>
        <time>2018-04-24T07:13:58.000Z</time>
      </trkpt>
      <trkpt lat="43.73048" lon="7.28578">
        <ele>53</ele>
        <time>2018-04-24T07:13:59.000Z</time>
      </trkpt>
      <trkpt lat="43.73047" lon="7.28592">
        <ele>59</ele>
        <time>2018-04-24T07:14:01.000Z</time>
      </trkpt>
      <trkpt lat="43.73049" lon="7.28614">
        <ele>60</ele>
        <time>2018-04-24T07:14:04.000Z</time>
      </trkpt>
      <trkpt lat="43.7305" lon="7.28622">
        <ele>60</ele>
        <time>2018-04-24T07:14:05.000Z</time>
      </trkpt>
      <trkpt lat="43.73062" lon="7.28686">
        <ele>61</ele>
        <time>2018-04-24T07:14:14.000Z</time>
      </trkpt>
      <trkpt lat="43.73063" lon="7.28694">
        <ele>62</ele>
        <time>2018-04-24T07:14:15.000Z</time>
      </trkpt>
      <trkpt lat="43.73062" lon="7.28723">
        <ele>62</ele>
        <time>2018-04-24T07:14:19.000Z</time>
      </trkpt>
      <trkpt lat="43.73062" lon="7.28759">
        <ele>62</ele>
        <time>2018-04-24T07:14:24.000Z</time>
      </trkpt>
      <trkpt lat="43.73062" lon="7.28767">
        <ele>63</ele>
        <time>2018-04-24T07:14:25.000Z</time>
      </trkpt>
      <trkpt lat="43.73072" lon="7.28824">
        <ele>61</ele>
        <time>2018-04-24T07:14:33.000Z</time>
      </trkpt>
      <trkpt lat="43.73074" lon="7.28847">
        <ele>61</ele>
        <time>2018-04-24T07:14:36.000Z</time>
      </trkpt>
      <trkpt lat="43.73076" lon="7.28861">
        <ele>63</ele>
        <time>2018-04-24T07:14:38.000Z</time>
      </trkpt>
      <trkpt lat="43.73079" lon="7.28867">
        <ele>63</ele>
        <time>2018-04-24T07:14:39.000Z</time>
      </trkpt>
      <trkpt lat="43.73094" lon="7.28877">
        <ele>51</ele>
        <time>2018-04-24T07:14:42.000Z</time>
      </trkpt>
      <trkpt lat="43.73099" lon="7.2888">
        <ele>51</ele>
        <time>2018-04-24T07:14:43.000Z</time>
      </trkpt>
      <trkpt lat="43.73105" lon="7.28883">
        <ele>51</ele>
        <time>2018-04-24T07:14:44.000Z</time>
      </trkpt>
      <trkpt lat="43.73122" lon="7.28896">
        <ele>50</ele>
        <time>2018-04-24T07:14:47.000Z</time>
      </trkpt>
      <trkpt lat="43.73126" lon="7.28901">
        <ele>50</ele>
        <time>2018-04-24T07:14:48.000Z</time>
      </trkpt>
      <trkpt lat="43.73131" lon="7.28907">
        <ele>50</ele>
        <time>2018-04-24T07:14:49.000Z</time>
      </trkpt>
      <trkpt lat="43.7314" lon="7.28924">
        <ele>51</ele>
        <time>2018-04-24T07:14:52.000Z</time>
      </trkpt>
      <trkpt lat="43.73163" lon="7.28966">
        <ele>52</ele>
        <time>2018-04-24T07:15:00.000Z</time>
      </trkpt>
      <trkpt lat="43.73182" lon="7.29006">
        <ele>51</ele>
        <time>2018-04-24T07:15:07.000Z</time>
      </trkpt>
      <trkpt lat="43.73208" lon="7.29051">
        <ele>52</ele>
        <time>2018-04-24T07:15:15.000Z</time>
      </trkpt>
      <trkpt lat="43.7321" lon="7.29057">
        <ele>52</ele>
        <time>2018-04-24T07:15:16.000Z</time>
      </trkpt>
      <trkpt lat="43.73228" lon="7.29088">
        <ele>53</ele>
        <time>2018-04-24T07:15:21.000Z</time>
      </trkpt>
      <trkpt lat="43.73262" lon="7.2915">
        <ele>52</ele>
        <time>2018-04-24T07:15:31.000Z</time>
      </trkpt>
      <trkpt lat="43.73281" lon="7.29187">
        <ele>54</ele>
        <time>2018-04-24T07:15:37.000Z</time>
      </trkpt>
      <trkpt lat="43.73283" lon="7.29194">
        <ele>55</ele>
        <time>2018-04-24T07:15:38.000Z</time>
      </trkpt>
      <trkpt lat="43.73289" lon="7.29216">
        <ele>56</ele>
        <time>2018-04-24T07:15:41.000Z</time>
      </trkpt>
      <trkpt lat="43.73292" lon="7.2923">
        <ele>56</ele>
        <time>2018-04-24T07:15:43.000Z</time>
      </trkpt>
      <trkpt lat="43.73301" lon="7.29296">
        <ele>62</ele>
        <time>2018-04-24T07:15:52.000Z</time>
      </trkpt>
      <trkpt lat="43.73302" lon="7.29311">
        <ele>62</ele>
        <time>2018-04-24T07:15:54.000Z</time>
      </trkpt>
      <trkpt lat="43.73307" lon="7.29355">
        <ele>64</ele>
        <time>2018-04-24T07:16:00.000Z</time>
      </trkpt>
      <trkpt lat="43.73311" lon="7.294">
        <ele>62</ele>
        <time>2018-04-24T07:16:06.000Z</time>
      </trkpt>
      <trkpt lat="43.73312" lon="7.29415">
        <ele>61</ele>
        <time>2018-04-24T07:16:08.000Z</time>
      </trkpt>
      <trkpt lat="43.7332" lon="7.29481">
        <ele>62</ele>
        <time>2018-04-24T07:16:17.000Z</time>
      </trkpt>
      <trkpt lat="43.73322" lon="7.29502">
        <ele>61</ele>
        <time>2018-04-24T07:16:20.000Z</time>
      </trkpt>
      <trkpt lat="43.73325" lon="7.2953">
        <ele>69</ele>
        <time>2018-04-24T07:16:24.000Z</time>
      </trkpt>
      <trkpt lat="43.73331" lon="7.29578">
        <ele>64</ele>
        <time>2018-04-24T07:16:31.000Z</time>
      </trkpt>
      <trkpt lat="43.73333" lon="7.29598">
        <ele>72</ele>
        <time>2018-04-24T07:16:34.000Z</time>
      </trkpt>
      <trkpt lat="43.7334" lon="7.29658">
        <ele>63</ele>
        <time>2018-04-24T07:16:43.000Z</time>
      </trkpt>
      <trkpt lat="43.73341" lon="7.29666">
        <ele>64</ele>
        <time>2018-04-24T07:16:44.000Z</time>
      </trkpt>
      <trkpt lat="43.7335" lon="7.29742">
        <ele>61</ele>
        <time>2018-04-24T07:16:55.000Z</time>
      </trkpt>
      <trkpt lat="43.73351" lon="7.29749">
        <ele>61</ele>
        <time>2018-04-24T07:16:56.000Z</time>
      </trkpt>
      <trkpt lat="43.73356" lon="7.29792">
        <ele>58</ele>
        <time>2018-04-24T07:17:02.000Z</time>
      </trkpt>
      <trkpt lat="43.73361" lon="7.29833">
        <ele>57</ele>
        <time>2018-04-24T07:17:08.000Z</time>
      </trkpt>
      <trkpt lat="43.73371" lon="7.2991">
        <ele>56</ele>
        <time>2018-04-24T07:17:19.000Z</time>
      </trkpt>
      <trkpt lat="43.73371" lon="7.29917">
        <ele>56</ele>
        <time>2018-04-24T07:17:20.000Z</time>
      </trkpt>
      <trkpt lat="43.73377" lon="7.29964">
        <ele>56</ele>
        <time>2018-04-24T07:17:27.000Z</time>
      </trkpt>
      <trkpt lat="43.73382" lon="7.29998">
        <ele>56</ele>
        <time>2018-04-24T07:17:32.000Z</time>
      </trkpt>
      <trkpt lat="43.73388" lon="7.30046">
        <ele>57</ele>
        <time>2018-04-24T07:17:39.000Z</time>
      </trkpt>
      <trkpt lat="43.73393" lon="7.30084">
        <ele>58</ele>
        <time>2018-04-24T07:17:45.000Z</time>
      </trkpt>
      <trkpt lat="43.73399" lon="7.30117">
        <ele>58</ele>
        <time>2018-04-24T07:17:51.000Z</time>
      </trkpt>
      <trkpt lat="43.73399" lon="7.30123">
        <ele>58</ele>
        <time>2018-04-24T07:17:52.000Z</time>
      </trkpt>
      <trkpt lat="43.73401" lon="7.30142">
        <ele>58</ele>
        <time>2018-04-24T07:17:55.000Z</time>
      </trkpt>
      <trkpt lat="43.73403" lon="7.30156">
        <ele>58</ele>
        <time>2018-04-24T07:17:57.000Z</time>
      </trkpt>
      <trkpt lat="43.73408" lon="7.30207">
        <ele>58</ele>
        <time>2018-04-24T07:18:04.000Z</time>
      </trkpt>
      <trkpt lat="43.7342" lon="7.30282">
        <ele>57</ele>
        <time>2018-04-24T07:18:13.000Z</time>
      </trkpt>
      <trkpt lat="43.73427" lon="7.30314">
        <ele>57</ele>
        <time>2018-04-24T07:18:17.000Z</time>
      </trkpt>
      <trkpt lat="43.73434" lon="7.30346">
        <ele>57</ele>
        <time>2018-04-24T07:18:21.000Z</time>
      </trkpt>
      <trkpt lat="43.73452" lon="7.30417">
        <ele>58</ele>
        <time>2018-04-24T07:18:30.000Z</time>
      </trkpt>
      <trkpt lat="43.73454" lon="7.30424">
        <ele>58</ele>
        <time>2018-04-24T07:18:31.000Z</time>
      </trkpt>
      <trkpt lat="43.73459" lon="7.30439">
        <ele>58</ele>
        <time>2018-04-24T07:18:33.000Z</time>
      </trkpt>
      <trkpt lat="43.73474" lon="7.30484">
        <ele>58</ele>
        <time>2018-04-24T07:18:39.000Z</time>
      </trkpt>
      <trkpt lat="43.73491" lon="7.30534">
        <ele>58</ele>
        <time>2018-04-24T07:18:46.000Z</time>
      </trkpt>
      <trkpt lat="43.73494" lon="7.3055">
        <ele>59</ele>
        <time>2018-04-24T07:18:48.000Z</time>
      </trkpt>
      <trkpt lat="43.73497" lon="7.30566">
        <ele>59</ele>
        <time>2018-04-24T07:18:50.000Z</time>
      </trkpt>
      <trkpt lat="43.73504" lon="7.30578">
        <ele>59</ele>
        <time>2018-04-24T07:18:52.000Z</time>
      </trkpt>
      <trkpt lat="43.73508" lon="7.30584">
        <ele>60</ele>
        <time>2018-04-24T07:18:53.000Z</time>
      </trkpt>
      <trkpt lat="43.73512" lon="7.3059">
        <ele>60</ele>
        <time>2018-04-24T07:18:54.000Z</time>
      </trkpt>
      <trkpt lat="43.73519" lon="7.30603">
        <ele>60</ele>
        <time>2018-04-24T07:18:56.000Z</time>
      </trkpt>
      <trkpt lat="43.73532" lon="7.3063">
        <ele>61</ele>
        <time>2018-04-24T07:19:00.000Z</time>
      </trkpt>
      <trkpt lat="43.73554" lon="7.30674">
        <ele>62</ele>
        <time>2018-04-24T07:19:07.000Z</time>
      </trkpt>
      <trkpt lat="43.73573" lon="7.30703">
        <ele>62</ele>
        <time>2018-04-24T07:19:12.000Z</time>
      </trkpt>
      <trkpt lat="43.73576" lon="7.30708">
        <ele>62</ele>
        <time>2018-04-24T07:19:13.000Z</time>
      </trkpt>
      <trkpt lat="43.73606" lon="7.30753">
        <ele>63</ele>
        <time>2018-04-24T07:19:22.000Z</time>
      </trkpt>
      <trkpt lat="43.73622" lon="7.30773">
        <ele>63</ele>
        <time>2018-04-24T07:19:26.000Z</time>
      </trkpt>
      <trkpt lat="43.73637" lon="7.30794">
        <ele>63</ele>
        <time>2018-04-24T07:19:30.000Z</time>
      </trkpt>
      <trkpt lat="43.73676" lon="7.30841">
        <ele>63</ele>
        <time>2018-04-24T07:19:39.000Z</time>
      </trkpt>
      <trkpt lat="43.73715" lon="7.30878">
        <ele>64</ele>
        <time>2018-04-24T07:19:47.000Z</time>
      </trkpt>
      <trkpt lat="43.73745" lon="7.309">
        <ele>65</ele>
        <time>2018-04-24T07:19:53.000Z</time>
      </trkpt>
      <trkpt lat="43.73754" lon="7.30907">
        <ele>66</ele>
        <time>2018-04-24T07:19:55.000Z</time>
      </trkpt>
      <trkpt lat="43.73797" lon="7.3094">
        <ele>65</ele>
        <time>2018-04-24T07:20:04.000Z</time>
      </trkpt>
      <trkpt lat="43.73835" lon="7.30967">
        <ele>65</ele>
        <time>2018-04-24T07:20:12.000Z</time>
      </trkpt>
      <trkpt lat="43.7384" lon="7.30971">
        <ele>66</ele>
        <time>2018-04-24T07:20:13.000Z</time>
      </trkpt>
      <trkpt lat="43.73855" lon="7.30981">
        <ele>66</ele>
        <time>2018-04-24T07:20:16.000Z</time>
      </trkpt>
      <trkpt lat="43.7387" lon="7.30991">
        <ele>65</ele>
        <time>2018-04-24T07:20:19.000Z</time>
      </trkpt>
      <trkpt lat="43.73911" lon="7.31016">
        <ele>66</ele>
        <time>2018-04-24T07:20:27.000Z</time>
      </trkpt>
      <trkpt lat="43.73945" lon="7.31035">
        <ele>66</ele>
        <time>2018-04-24T07:20:34.000Z</time>
      </trkpt>
      <trkpt lat="43.73954" lon="7.31041">
        <ele>66</ele>
        <time>2018-04-24T07:20:36.000Z</time>
      </trkpt>
      <trkpt lat="43.73973" lon="7.31051">
        <ele>67</ele>
        <time>2018-04-24T07:20:40.000Z</time>
      </trkpt>
      <trkpt lat="43.74006" lon="7.31071">
        <ele>69</ele>
        <time>2018-04-24T07:20:47.000Z</time>
      </trkpt>
      <trkpt lat="43.74011" lon="7.31074">
        <ele>69</ele>
        <time>2018-04-24T07:20:48.000Z</time>
      </trkpt>
      <trkpt lat="43.74047" lon="7.31095">
        <ele>70</ele>
        <time>2018-04-24T07:20:56.000Z</time>
      </trkpt>
      <trkpt lat="43.7406" lon="7.31103">
        <ele>70</ele>
        <time>2018-04-24T07:20:59.000Z</time>
      </trkpt>
      <trkpt lat="43.74073" lon="7.31109">
        <ele>70</ele>
        <time>2018-04-24T07:21:02.000Z</time>
      </trkpt>
      <trkpt lat="43.74077" lon="7.3111">
        <ele>70</ele>
        <time>2018-04-24T07:21:03.000Z</time>
      </trkpt>
      <trkpt lat="43.74086" lon="7.31113">
        <ele>72</ele>
        <time>2018-04-24T07:21:05.000Z</time>
      </trkpt>
      <trkpt lat="43.74093" lon="7.31118">
        <ele>72</ele>
        <time>2018-04-24T07:21:07.000Z</time>
      </trkpt>
      <trkpt lat="43.74102" lon="7.31127">
        <ele>72</ele>
        <time>2018-04-24T07:21:10.000Z</time>
      </trkpt>
      <trkpt lat="43.74113" lon="7.31131">
        <ele>72</ele>
        <time>2018-04-24T07:21:13.000Z</time>
      </trkpt>
      <trkpt lat="43.74122" lon="7.3113">
        <ele>72</ele>
        <time>2018-04-24T07:21:15.000Z</time>
      </trkpt>
      <trkpt lat="43.74136" lon="7.31129">
        <ele>72</ele>
        <time>2018-04-24T07:21:18.000Z</time>
      </trkpt>
      <trkpt lat="43.74141" lon="7.31129">
        <ele>72</ele>
        <time>2018-04-24T07:21:19.000Z</time>
      </trkpt>
      <trkpt lat="43.74157" lon="7.31141">
        <ele>73</ele>
        <time>2018-04-24T07:21:23.000Z</time>
      </trkpt>
      <trkpt lat="43.74165" lon="7.31151">
        <ele>74</ele>
        <time>2018-04-24T07:21:25.000Z</time>
      </trkpt>
      <trkpt lat="43.7418" lon="7.31166">
        <ele>74</ele>
        <time>2018-04-24T07:21:29.000Z</time>
      </trkpt>
      <trkpt lat="43.74184" lon="7.31169">
        <ele>75</ele>
        <time>2018-04-24T07:21:30.000Z</time>
      </trkpt>
      <trkpt lat="43.74191" lon="7.31176">
        <ele>75</ele>
        <time>2018-04-24T07:21:32.000Z</time>
      </trkpt>
      <trkpt lat="43.74203" lon="7.31191">
        <ele>75</ele>
        <time>2018-04-24T07:21:35.000Z</time>
      </trkpt>
      <trkpt lat="43.74206" lon="7.31196">
        <ele>75</ele>
        <time>2018-04-24T07:21:36.000Z</time>
      </trkpt>
      <trkpt lat="43.74221" lon="7.31219">
        <ele>75</ele>
        <time>2018-04-24T07:21:40.000Z</time>
      </trkpt>
      <trkpt lat="43.74266" lon="7.31273">
        <ele>75</ele>
        <time>2018-04-24T07:21:50.000Z</time>
      </trkpt>
      <trkpt lat="43.74271" lon="7.31277">
        <ele>75</ele>
        <time>2018-04-24T07:21:51.000Z</time>
      </trkpt>
      <trkpt lat="43.74309" lon="7.31315">
        <ele>75</ele>
        <time>2018-04-24T07:21:59.000Z</time>
      </trkpt>
      <trkpt lat="43.74313" lon="7.3132">
        <ele>75</ele>
        <time>2018-04-24T07:22:00.000Z</time>
      </trkpt>
      <trkpt lat="43.74324" lon="7.31336">
        <ele>76</ele>
        <time>2018-04-24T07:22:03.000Z</time>
      </trkpt>
      <trkpt lat="43.74334" lon="7.31353">
        <ele>76</ele>
        <time>2018-04-24T07:22:06.000Z</time>
      </trkpt>
      <trkpt lat="43.74342" lon="7.31361">
        <ele>77</ele>
        <time>2018-04-24T07:22:08.000Z</time>
      </trkpt>
      <trkpt lat="43.74345" lon="7.31365">
        <ele>77</ele>
        <time>2018-04-24T07:22:09.000Z</time>
      </trkpt>
      <trkpt lat="43.74349" lon="7.31369">
        <ele>77</ele>
        <time>2018-04-24T07:22:10.000Z</time>
      </trkpt>
      <trkpt lat="43.74362" lon="7.31384">
        <ele>78</ele>
        <time>2018-04-24T07:22:14.000Z</time>
      </trkpt>
      <trkpt lat="43.74365" lon="7.31387">
        <ele>78</ele>
        <time>2018-04-24T07:22:15.000Z</time>
      </trkpt>
      <trkpt lat="43.74372" lon="7.31394">
        <ele>78</ele>
        <time>2018-04-24T07:22:17.000Z</time>
      </trkpt>
      <trkpt lat="43.74391" lon="7.31411">
        <ele>78</ele>
        <time>2018-04-24T07:22:23.000Z</time>
      </trkpt>
      <trkpt lat="43.74402" lon="7.31427">
        <ele>82</ele>
        <time>2018-04-24T07:22:28.000Z</time>
      </trkpt>
      <trkpt lat="43.74409" lon="7.31434">
        <ele>83</ele>
        <time>2018-04-24T07:22:30.000Z</time>
      </trkpt>
      <trkpt lat="43.74416" lon="7.31441">
        <ele>83</ele>
        <time>2018-04-24T07:22:32.000Z</time>
      </trkpt>
      <trkpt lat="43.74433" lon="7.31453">
        <ele>82</ele>
        <time>2018-04-24T07:22:37.000Z</time>
      </trkpt>
      <trkpt lat="43.74436" lon="7.31456">
        <ele>82</ele>
        <time>2018-04-24T07:22:38.000Z</time>
      </trkpt>
      <trkpt lat="43.74452" lon="7.3147">
        <ele>83</ele>
        <time>2018-04-24T07:22:43.000Z</time>
      </trkpt>
      <trkpt lat="43.74455" lon="7.31474">
        <ele>83</ele>
        <time>2018-04-24T07:22:44.000Z</time>
      </trkpt>
      <trkpt lat="43.74474" lon="7.31496">
        <ele>82</ele>
        <time>2018-04-24T07:22:51.000Z</time>
      </trkpt>
      <trkpt lat="43.74494" lon="7.31519">
        <ele>88</ele>
        <time>2018-04-24T07:22:58.000Z</time>
      </trkpt>
      <trkpt lat="43.74499" lon="7.31525">
        <ele>89</ele>
        <time>2018-04-24T07:23:00.000Z</time>
      </trkpt>
      <trkpt lat="43.74511" lon="7.31536">
        <ele>85</ele>
        <time>2018-04-24T07:23:04.000Z</time>
      </trkpt>
      <trkpt lat="43.74518" lon="7.31542">
        <ele>86</ele>
        <time>2018-04-24T07:23:06.000Z</time>
      </trkpt>
      <trkpt lat="43.74528" lon="7.31557">
        <ele>86</ele>
        <time>2018-04-24T07:23:10.000Z</time>
      </trkpt>
      <trkpt lat="43.74531" lon="7.31562">
        <ele>87</ele>
        <time>2018-04-24T07:23:11.000Z</time>
      </trkpt>
      <trkpt lat="43.74533" lon="7.31567">
        <ele>87</ele>
        <time>2018-04-24T07:23:12.000Z</time>
      </trkpt>
      <trkpt lat="43.74538" lon="7.31583">
        <ele>87</ele>
        <time>2018-04-24T07:23:15.000Z</time>
      </trkpt>
      <trkpt lat="43.74539" lon="7.31612">
        <ele>92</ele>
        <time>2018-04-24T07:23:20.000Z</time>
      </trkpt>
      <trkpt lat="43.74536" lon="7.31624">
        <ele>93</ele>
        <time>2018-04-24T07:23:22.000Z</time>
      </trkpt>
      <trkpt lat="43.74532" lon="7.31651">
        <ele>95</ele>
        <time>2018-04-24T07:23:26.000Z</time>
      </trkpt>
      <trkpt lat="43.74533" lon="7.31659">
        <ele>95</ele>
        <time>2018-04-24T07:23:27.000Z</time>
      </trkpt>
      <trkpt lat="43.74534" lon="7.3169">
        <ele>95</ele>
        <time>2018-04-24T07:23:31.000Z</time>
      </trkpt>
      <trkpt lat="43.74542" lon="7.31754">
        <ele>93</ele>
        <time>2018-04-24T07:23:39.000Z</time>
      </trkpt>
      <trkpt lat="43.74557" lon="7.3178">
        <ele>91</ele>
        <time>2018-04-24T07:23:43.000Z</time>
      </trkpt>
      <trkpt lat="43.74565" lon="7.31793">
        <ele>91</ele>
        <time>2018-04-24T07:23:45.000Z</time>
      </trkpt>
      <trkpt lat="43.74572" lon="7.31815">
        <ele>91</ele>
        <time>2018-04-24T07:23:48.000Z</time>
      </trkpt>
      <trkpt lat="43.74574" lon="7.31841">
        <ele>91</ele>
        <time>2018-04-24T07:23:51.000Z</time>
      </trkpt>
      <trkpt lat="43.74574" lon="7.3185">
        <ele>92</ele>
        <time>2018-04-24T07:23:52.000Z</time>
      </trkpt>
      <trkpt lat="43.74579" lon="7.31893">
        <ele>95</ele>
        <time>2018-04-24T07:23:57.000Z</time>
      </trkpt>
      <trkpt lat="43.74581" lon="7.31901">
        <ele>95</ele>
        <time>2018-04-24T07:23:58.000Z</time>
      </trkpt>
      <trkpt lat="43.74589" lon="7.31926">
        <ele>95</ele>
        <time>2018-04-24T07:24:01.000Z</time>
      </trkpt>
      <trkpt lat="43.74597" lon="7.3194">
        <ele>95</ele>
        <time>2018-04-24T07:24:03.000Z</time>
      </trkpt>
      <trkpt lat="43.74623" lon="7.31974">
        <ele>95</ele>
        <time>2018-04-24T07:24:08.000Z</time>
      </trkpt>
      <trkpt lat="43.74645" lon="7.31994">
        <ele>94</ele>
        <time>2018-04-24T07:24:12.000Z</time>
      </trkpt>
      <trkpt lat="43.7465" lon="7.31997">
        <ele>94</ele>
        <time>2018-04-24T07:24:13.000Z</time>
      </trkpt>
      <trkpt lat="43.7468" lon="7.32013">
        <ele>97</ele>
        <time>2018-04-24T07:24:18.000Z</time>
      </trkpt>
      <trkpt lat="43.74721" lon="7.32038">
        <ele>98</ele>
        <time>2018-04-24T07:24:25.000Z</time>
      </trkpt>
      <trkpt lat="43.74743" lon="7.32066">
        <ele>100</ele>
        <time>2018-04-24T07:24:30.000Z</time>
      </trkpt>
      <trkpt lat="43.74766" lon="7.32096">
        <ele>104</ele>
        <time>2018-04-24T07:24:36.000Z</time>
      </trkpt>
      <trkpt lat="43.74774" lon="7.32103">
        <ele>104</ele>
        <time>2018-04-24T07:24:38.000Z</time>
      </trkpt>
      <trkpt lat="43.74782" lon="7.32109">
        <ele>105</ele>
        <time>2018-04-24T07:24:40.000Z</time>
      </trkpt>
      <trkpt lat="43.74788" lon="7.32111">
        <ele>105</ele>
        <time>2018-04-24T07:24:41.000Z</time>
      </trkpt>
      <trkpt lat="43.74809" lon="7.3211">
        <ele>103</ele>
        <time>2018-04-24T07:24:45.000Z</time>
      </trkpt>
      <trkpt lat="43.7482" lon="7.32104">
        <ele>101</ele>
        <time>2018-04-24T07:24:47.000Z</time>
      </trkpt>
      <trkpt lat="43.74835" lon="7.32094">
        <ele>96</ele>
        <time>2018-04-24T07:24:50.000Z</time>
      </trkpt>
      <trkpt lat="43.74883" lon="7.32061">
        <ele>90</ele>
        <time>2018-04-24T07:24:59.000Z</time>
      </trkpt>
      <trkpt lat="43.74937" lon="7.3203">
        <ele>90</ele>
        <time>2018-04-24T07:25:09.000Z</time>
      </trkpt>
      <trkpt lat="43.74986" lon="7.32004">
        <ele>88</ele>
        <time>2018-04-24T07:25:18.000Z</time>
      </trkpt>
      <trkpt lat="43.75013" lon="7.31991">
        <ele>86</ele>
        <time>2018-04-24T07:25:23.000Z</time>
      </trkpt>
      <trkpt lat="43.75024" lon="7.31988">
        <ele>86</ele>
        <time>2018-04-24T07:25:25.000Z</time>
      </trkpt>
      <trkpt lat="43.75063" lon="7.31988">
        <ele>87</ele>
        <time>2018-04-24T07:25:32.000Z</time>
      </trkpt>
      <trkpt lat="43.75086" lon="7.31989">
        <ele>88</ele>
        <time>2018-04-24T07:25:36.000Z</time>
      </trkpt>
      <trkpt lat="43.75102" lon="7.31997">
        <ele>87</ele>
        <time>2018-04-24T07:25:39.000Z</time>
      </trkpt>
      <trkpt lat="43.75117" lon="7.32011">
        <ele>89</ele>
        <time>2018-04-24T07:25:42.000Z</time>
      </trkpt>
      <trkpt lat="43.75127" lon="7.3202">
        <ele>89</ele>
        <time>2018-04-24T07:25:44.000Z</time>
      </trkpt>
      <trkpt lat="43.75164" lon="7.32045">
        <ele>89</ele>
        <time>2018-04-24T07:25:51.000Z</time>
      </trkpt>
      <trkpt lat="43.75214" lon="7.32069">
        <ele>87</ele>
        <time>2018-04-24T07:26:00.000Z</time>
      </trkpt>
      <trkpt lat="43.75256" lon="7.3209">
        <ele>87</ele>
        <time>2018-04-24T07:26:08.000Z</time>
      </trkpt>
      <trkpt lat="43.75267" lon="7.32092">
        <ele>88</ele>
        <time>2018-04-24T07:26:10.000Z</time>
      </trkpt>
      <trkpt lat="43.75289" lon="7.32093">
        <ele>88</ele>
        <time>2018-04-24T07:26:14.000Z</time>
      </trkpt>
      <trkpt lat="43.75306" lon="7.32092">
        <ele>88</ele>
        <time>2018-04-24T07:26:17.000Z</time>
      </trkpt>
      <trkpt lat="43.75328" lon="7.32087">
        <ele>89</ele>
        <time>2018-04-24T07:26:21.000Z</time>
      </trkpt>
      <trkpt lat="43.75349" lon="7.32079">
        <ele>89</ele>
        <time>2018-04-24T07:26:25.000Z</time>
      </trkpt>
      <trkpt lat="43.7537" lon="7.32069">
        <ele>90</ele>
        <time>2018-04-24T07:26:29.000Z</time>
      </trkpt>
      <trkpt lat="43.75404" lon="7.32046">
        <ele>91</ele>
        <time>2018-04-24T07:26:36.000Z</time>
      </trkpt>
      <trkpt lat="43.7541" lon="7.32043">
        <ele>91</ele>
        <time>2018-04-24T07:26:37.000Z</time>
      </trkpt>
      <trkpt lat="43.75425" lon="7.32036">
        <ele>92</ele>
        <time>2018-04-24T07:26:40.000Z</time>
      </trkpt>
      <trkpt lat="43.75436" lon="7.32033">
        <ele>92</ele>
        <time>2018-04-24T07:26:42.000Z</time>
      </trkpt>
      <trkpt lat="43.75446" lon="7.32032">
        <ele>92</ele>
        <time>2018-04-24T07:26:44.000Z</time>
      </trkpt>
      <trkpt lat="43.75482" lon="7.32033">
        <ele>92</ele>
        <time>2018-04-24T07:26:51.000Z</time>
      </trkpt>
      <trkpt lat="43.75517" lon="7.3204">
        <ele>92</ele>
        <time>2018-04-24T07:26:58.000Z</time>
      </trkpt>
      <trkpt lat="43.75545" lon="7.32044">
        <ele>92</ele>
        <time>2018-04-24T07:27:03.000Z</time>
      </trkpt>
      <trkpt lat="43.75567" lon="7.32048">
        <ele>92</ele>
        <time>2018-04-24T07:27:07.000Z</time>
      </trkpt>
      <trkpt lat="43.7559" lon="7.32051">
        <ele>91</ele>
        <time>2018-04-24T07:27:11.000Z</time>
      </trkpt>
      <trkpt lat="43.75617" lon="7.32055">
        <ele>92</ele>
        <time>2018-04-24T07:27:16.000Z</time>
      </trkpt>
      <trkpt lat="43.75649" lon="7.3206">
        <ele>92</ele>
        <time>2018-04-24T07:27:22.000Z</time>
      </trkpt>
      <trkpt lat="43.7566" lon="7.32062">
        <ele>92</ele>
        <time>2018-04-24T07:27:24.000Z</time>
      </trkpt>
      <trkpt lat="43.75693" lon="7.32065">
        <ele>93</ele>
        <time>2018-04-24T07:27:30.000Z</time>
      </trkpt>
      <trkpt lat="43.75704" lon="7.32065">
        <ele>93</ele>
        <time>2018-04-24T07:27:32.000Z</time>
      </trkpt>
      <trkpt lat="43.75734" lon="7.32062">
        <ele>93</ele>
        <time>2018-04-24T07:27:38.000Z</time>
      </trkpt>
      <trkpt lat="43.75775" lon="7.32056">
        <ele>95</ele>
        <time>2018-04-24T07:27:45.000Z</time>
      </trkpt>
      <trkpt lat="43.75824" lon="7.32049">
        <ele>96</ele>
        <time>2018-04-24T07:27:54.000Z</time>
      </trkpt>
      <trkpt lat="43.75862" lon="7.32042">
        <ele>100</ele>
        <time>2018-04-24T07:28:01.000Z</time>
      </trkpt>
      <trkpt lat="43.75867" lon="7.3204">
        <ele>100</ele>
        <time>2018-04-24T07:28:02.000Z</time>
      </trkpt>
      <trkpt lat="43.75898" lon="7.3203">
        <ele>100</ele>
        <time>2018-04-24T07:28:08.000Z</time>
      </trkpt>
      <trkpt lat="43.75946" lon="7.32009">
        <ele>103</ele>
        <time>2018-04-24T07:28:17.000Z</time>
      </trkpt>
      <trkpt lat="43.75956" lon="7.32004">
        <ele>104</ele>
        <time>2018-04-24T07:28:19.000Z</time>
      </trkpt>
      <trkpt lat="43.75982" lon="7.31991">
        <ele>99</ele>
        <time>2018-04-24T07:28:24.000Z</time>
      </trkpt>
      <trkpt lat="43.76011" lon="7.31977">
        <ele>99</ele>
        <time>2018-04-24T07:28:30.000Z</time>
      </trkpt>
      <trkpt lat="43.76027" lon="7.31972">
        <ele>99</ele>
        <time>2018-04-24T07:28:33.000Z</time>
      </trkpt>
      <trkpt lat="43.76043" lon="7.3197">
        <ele>98</ele>
        <time>2018-04-24T07:28:36.000Z</time>
      </trkpt>
      <trkpt lat="43.76057" lon="7.31976">
        <ele>98</ele>
        <time>2018-04-24T07:28:39.000Z</time>
      </trkpt>
      <trkpt lat="43.76066" lon="7.31984">
        <ele>98</ele>
        <time>2018-04-24T07:28:41.000Z</time>
      </trkpt>
      <trkpt lat="43.76074" lon="7.31992">
        <ele>99</ele>
        <time>2018-04-24T07:28:43.000Z</time>
      </trkpt>
      <trkpt lat="43.76083" lon="7.32002">
        <ele>100</ele>
        <time>2018-04-24T07:28:45.000Z</time>
      </trkpt>
      <trkpt lat="43.76121" lon="7.32045">
        <ele>105</ele>
        <time>2018-04-24T07:28:54.000Z</time>
      </trkpt>
      <trkpt lat="43.76143" lon="7.32067">
        <ele>106</ele>
        <time>2018-04-24T07:28:59.000Z</time>
      </trkpt>
      <trkpt lat="43.76146" lon="7.32072">
        <ele>106</ele>
        <time>2018-04-24T07:29:00.000Z</time>
      </trkpt>
      <trkpt lat="43.76173" lon="7.32105">
        <ele>113</ele>
        <time>2018-04-24T07:29:06.000Z</time>
      </trkpt>
      <trkpt lat="43.76202" lon="7.32132">
        <ele>116</ele>
        <time>2018-04-24T07:29:12.000Z</time>
      </trkpt>
      <trkpt lat="43.76207" lon="7.32135">
        <ele>116</ele>
        <time>2018-04-24T07:29:13.000Z</time>
      </trkpt>
      <trkpt lat="43.76252" lon="7.32166">
        <ele>112</ele>
        <time>2018-04-24T07:29:21.000Z</time>
      </trkpt>
      <trkpt lat="43.76291" lon="7.32192">
        <ele>120</ele>
        <time>2018-04-24T07:29:28.000Z</time>
      </trkpt>
      <trkpt lat="43.76298" lon="7.32196">
        <ele>120</ele>
        <time>2018-04-24T07:29:29.000Z</time>
      </trkpt>
      <trkpt lat="43.76322" lon="7.32204">
        <ele>119</ele>
        <time>2018-04-24T07:29:33.000Z</time>
      </trkpt>
      <trkpt lat="43.76352" lon="7.32213">
        <ele>112</ele>
        <time>2018-04-24T07:29:38.000Z</time>
      </trkpt>
      <trkpt lat="43.76368" lon="7.32218">
        <ele>111</ele>
        <time>2018-04-24T07:29:42.000Z</time>
      </trkpt>
      <trkpt lat="43.76378" lon="7.32221">
        <ele>110</ele>
        <time>2018-04-24T07:29:44.000Z</time>
      </trkpt>
      <trkpt lat="43.7639" lon="7.32228">
        <ele>110</ele>
        <time>2018-04-24T07:29:46.000Z</time>
      </trkpt>
      <trkpt lat="43.76411" lon="7.32251">
        <ele>110</ele>
        <time>2018-04-24T07:29:50.000Z</time>
      </trkpt>
      <trkpt lat="43.76418" lon="7.32266">
        <ele>107</ele>
        <time>2018-04-24T07:29:52.000Z</time>
      </trkpt>
      <trkpt lat="43.76425" lon="7.32282">
        <ele>108</ele>
        <time>2018-04-24T07:29:54.000Z</time>
      </trkpt>
      <trkpt lat="43.76428" lon="7.3229">
        <ele>108</ele>
        <time>2018-04-24T07:29:55.000Z</time>
      </trkpt>
      <trkpt lat="43.76442" lon="7.3235">
        <ele>112</ele>
        <time>2018-04-24T07:30:02.000Z</time>
      </trkpt>
      <trkpt lat="43.76443" lon="7.32359">
        <ele>111</ele>
        <time>2018-04-24T07:30:03.000Z</time>
      </trkpt>
      <trkpt lat="43.76445" lon="7.32377">
        <ele>111</ele>
        <time>2018-04-24T07:30:05.000Z</time>
      </trkpt>
      <trkpt lat="43.76446" lon="7.32421">
        <ele>111</ele>
        <time>2018-04-24T07:30:10.000Z</time>
      </trkpt>
      <trkpt lat="43.76444" lon="7.32469">
        <ele>111</ele>
        <time>2018-04-24T07:30:16.000Z</time>
      </trkpt>
      <trkpt lat="43.76443" lon="7.32476">
        <ele>111</ele>
        <time>2018-04-24T07:30:17.000Z</time>
      </trkpt>
      <trkpt lat="43.76437" lon="7.32496">
        <ele>113</ele>
        <time>2018-04-24T07:30:20.000Z</time>
      </trkpt>
      <trkpt lat="43.76436" lon="7.32503">
        <ele>113</ele>
        <time>2018-04-24T07:30:21.000Z</time>
      </trkpt>
      <trkpt lat="43.76438" lon="7.32517">
        <ele>113</ele>
        <time>2018-04-24T07:30:23.000Z</time>
      </trkpt>
      <trkpt lat="43.7644" lon="7.32524">
        <ele>112</ele>
        <time>2018-04-24T07:30:24.000Z</time>
      </trkpt>
      <trkpt lat="43.76442" lon="7.32532">
        <ele>112</ele>
        <time>2018-04-24T07:30:25.000Z</time>
      </trkpt>
      <trkpt lat="43.76442" lon="7.32555">
        <ele>112</ele>
        <time>2018-04-24T07:30:28.000Z</time>
      </trkpt>
      <trkpt lat="43.76441" lon="7.32584">
        <ele>114</ele>
        <time>2018-04-24T07:30:32.000Z</time>
      </trkpt>
      <trkpt lat="43.7644" lon="7.32598">
        <ele>114</ele>
        <time>2018-04-24T07:30:34.000Z</time>
      </trkpt>
      <trkpt lat="43.7644" lon="7.32606">
        <ele>114</ele>
        <time>2018-04-24T07:30:35.000Z</time>
      </trkpt>
      <trkpt lat="43.76442" lon="7.32639">
        <ele>114</ele>
        <time>2018-04-24T07:30:39.000Z</time>
      </trkpt>
      <trkpt lat="43.76443" lon="7.32647">
        <ele>115</ele>
        <time>2018-04-24T07:30:40.000Z</time>
      </trkpt>
      <trkpt lat="43.76447" lon="7.32664">
        <ele>115</ele>
        <time>2018-04-24T07:30:42.000Z</time>
      </trkpt>
      <trkpt lat="43.76453" lon="7.32696">
        <ele>117</ele>
        <time>2018-04-24T07:30:46.000Z</time>
      </trkpt>
      <trkpt lat="43.7646" lon="7.32743">
        <ele>117</ele>
        <time>2018-04-24T07:30:52.000Z</time>
      </trkpt>
      <trkpt lat="43.76463" lon="7.32759">
        <ele>120</ele>
        <time>2018-04-24T07:30:54.000Z</time>
      </trkpt>
      <trkpt lat="43.76478" lon="7.32821">
        <ele>117</ele>
        <time>2018-04-24T07:31:02.000Z</time>
      </trkpt>
      <trkpt lat="43.76481" lon="7.32828">
        <ele>116</ele>
        <time>2018-04-24T07:31:03.000Z</time>
      </trkpt>
      <trkpt lat="43.765" lon="7.32878">
        <ele>122</ele>
        <time>2018-04-24T07:31:10.000Z</time>
      </trkpt>
      <trkpt lat="43.76506" lon="7.32892">
        <ele>110</ele>
        <time>2018-04-24T07:31:12.000Z</time>
      </trkpt>
      <trkpt lat="43.76515" lon="7.32902">
        <ele>111</ele>
        <time>2018-04-24T07:31:14.000Z</time>
      </trkpt>
      <trkpt lat="43.76549" lon="7.32934">
        <ele>111</ele>
        <time>2018-04-24T07:31:21.000Z</time>
      </trkpt>
      <trkpt lat="43.76572" lon="7.32954">
        <ele>111</ele>
        <time>2018-04-24T07:31:26.000Z</time>
      </trkpt>
      <trkpt lat="43.7658" lon="7.32961">
        <ele>111</ele>
        <time>2018-04-24T07:31:28.000Z</time>
      </trkpt>
      <trkpt lat="43.76593" lon="7.32971">
        <ele>108</ele>
        <time>2018-04-24T07:31:31.000Z</time>
      </trkpt>
      <trkpt lat="43.76611" lon="7.32985">
        <ele>108</ele>
        <time>2018-04-24T07:31:35.000Z</time>
      </trkpt>
      <trkpt lat="43.76619" lon="7.32991">
        <ele>108</ele>
        <time>2018-04-24T07:31:37.000Z</time>
      </trkpt>
      <trkpt lat="43.76634" lon="7.33004">
        <ele>109</ele>
        <time>2018-04-24T07:31:41.000Z</time>
      </trkpt>
      <trkpt lat="43.76638" lon="7.33007">
        <ele>109</ele>
        <time>2018-04-24T07:31:42.000Z</time>
      </trkpt>
      <trkpt lat="43.76649" lon="7.33017">
        <ele>109</ele>
        <time>2018-04-24T07:31:45.000Z</time>
      </trkpt>
      <trkpt lat="43.76666" lon="7.3303">
        <ele>109</ele>
        <time>2018-04-24T07:31:49.000Z</time>
      </trkpt>
      <trkpt lat="43.76674" lon="7.33036">
        <ele>108</ele>
        <time>2018-04-24T07:31:51.000Z</time>
      </trkpt>
      <trkpt lat="43.76688" lon="7.33047">
        <ele>108</ele>
        <time>2018-04-24T07:31:55.000Z</time>
      </trkpt>
      <trkpt lat="43.76698" lon="7.33055">
        <ele>108</ele>
        <time>2018-04-24T07:31:58.000Z</time>
      </trkpt>
      <trkpt lat="43.76702" lon="7.33058">
        <ele>108</ele>
        <time>2018-04-24T07:31:59.000Z</time>
      </trkpt>
      <trkpt lat="43.76723" lon="7.33075">
        <ele>109</ele>
        <time>2018-04-24T07:32:04.000Z</time>
      </trkpt>
      <trkpt lat="43.76738" lon="7.33087">
        <ele>110</ele>
        <time>2018-04-24T07:32:07.000Z</time>
      </trkpt>
      <trkpt lat="43.76761" lon="7.33105">
        <ele>111</ele>
        <time>2018-04-24T07:32:11.000Z</time>
      </trkpt>
      <trkpt lat="43.7678" lon="7.33119">
        <ele>112</ele>
        <time>2018-04-24T07:32:14.000Z</time>
      </trkpt>
      <trkpt lat="43.768" lon="7.33134">
        <ele>113</ele>
        <time>2018-04-24T07:32:17.000Z</time>
      </trkpt>
      <trkpt lat="43.76813" lon="7.33141">
        <ele>113</ele>
        <time>2018-04-24T07:32:19.000Z</time>
      </trkpt>
      <trkpt lat="43.7682" lon="7.33146">
        <ele>113</ele>
        <time>2018-04-24T07:32:20.000Z</time>
      </trkpt>
      <trkpt lat="43.76837" lon="7.33163">
        <ele>115</ele>
        <time>2018-04-24T07:32:23.000Z</time>
      </trkpt>
      <trkpt lat="43.76863" lon="7.3318">
        <ele>119</ele>
        <time>2018-04-24T07:32:27.000Z</time>
      </trkpt>
      <trkpt lat="43.7691" lon="7.3322">
        <ele>124</ele>
        <time>2018-04-24T07:32:35.000Z</time>
      </trkpt>
      <trkpt lat="43.76922" lon="7.33228">
        <ele>125</ele>
        <time>2018-04-24T07:32:37.000Z</time>
      </trkpt>
      <trkpt lat="43.76966" lon="7.33247">
        <ele>123</ele>
        <time>2018-04-24T07:32:44.000Z</time>
      </trkpt>
      <trkpt lat="43.76972" lon="7.3325">
        <ele>135</ele>
        <time>2018-04-24T07:32:45.000Z</time>
      </trkpt>
      <trkpt lat="43.7701" lon="7.33271">
        <ele>131</ele>
        <time>2018-04-24T07:32:51.000Z</time>
      </trkpt>
      <trkpt lat="43.77058" lon="7.33297">
        <ele>136</ele>
        <time>2018-04-24T07:32:59.000Z</time>
      </trkpt>
      <trkpt lat="43.7707" lon="7.33302">
        <ele>137</ele>
        <time>2018-04-24T07:33:01.000Z</time>
      </trkpt>
      <trkpt lat="43.77096" lon="7.33309">
        <ele>134</ele>
        <time>2018-04-24T07:33:05.000Z</time>
      </trkpt>
      <trkpt lat="43.77122" lon="7.33314">
        <ele>132</ele>
        <time>2018-04-24T07:33:09.000Z</time>
      </trkpt>
      <trkpt lat="43.77154" lon="7.33317">
        <ele>132</ele>
        <time>2018-04-24T07:33:14.000Z</time>
      </trkpt>
      <trkpt lat="43.77199" lon="7.33313">
        <ele>125</ele>
        <time>2018-04-24T07:33:21.000Z</time>
      </trkpt>
      <trkpt lat="43.77229" lon="7.33325">
        <ele>123</ele>
        <time>2018-04-24T07:33:26.000Z</time>
      </trkpt>
      <trkpt lat="43.77234" lon="7.33327">
        <ele>123</ele>
        <time>2018-04-24T07:33:27.000Z</time>
      </trkpt>
      <trkpt lat="43.77261" lon="7.33343">
        <ele>125</ele>
        <time>2018-04-24T07:33:32.000Z</time>
      </trkpt>
      <trkpt lat="43.77266" lon="7.33348">
        <ele>125</ele>
        <time>2018-04-24T07:33:33.000Z</time>
      </trkpt>
      <trkpt lat="43.77278" lon="7.33366">
        <ele>127</ele>
        <time>2018-04-24T07:33:36.000Z</time>
      </trkpt>
      <trkpt lat="43.77284" lon="7.33379">
        <ele>128</ele>
        <time>2018-04-24T07:33:38.000Z</time>
      </trkpt>
      <trkpt lat="43.77316" lon="7.33449">
        <ele>139</ele>
        <time>2018-04-24T07:33:48.000Z</time>
      </trkpt>
      <trkpt lat="43.77322" lon="7.33463">
        <ele>140</ele>
        <time>2018-04-24T07:33:50.000Z</time>
      </trkpt>
      <trkpt lat="43.77341" lon="7.33495">
        <ele>132</ele>
        <time>2018-04-24T07:33:55.000Z</time>
      </trkpt>
      <trkpt lat="43.77357" lon="7.33519">
        <ele>135</ele>
        <time>2018-04-24T07:33:59.000Z</time>
      </trkpt>
      <trkpt lat="43.77375" lon="7.3354">
        <ele>135</ele>
        <time>2018-04-24T07:34:03.000Z</time>
      </trkpt>
      <trkpt lat="43.7742" lon="7.33586">
        <ele>129</ele>
        <time>2018-04-24T07:34:12.000Z</time>
      </trkpt>
      <trkpt lat="43.77424" lon="7.3359">
        <ele>130</ele>
        <time>2018-04-24T07:34:13.000Z</time>
      </trkpt>
      <trkpt lat="43.77443" lon="7.3361">
        <ele>132</ele>
        <time>2018-04-24T07:34:17.000Z</time>
      </trkpt>
      <trkpt lat="43.77462" lon="7.33629">
        <ele>132</ele>
        <time>2018-04-24T07:34:21.000Z</time>
      </trkpt>
      <trkpt lat="43.77481" lon="7.33649">
        <ele>132</ele>
        <time>2018-04-24T07:34:25.000Z</time>
      </trkpt>
      <trkpt lat="43.77495" lon="7.33664">
        <ele>132</ele>
        <time>2018-04-24T07:34:28.000Z</time>
      </trkpt>
      <trkpt lat="43.77513" lon="7.33686">
        <ele>135</ele>
        <time>2018-04-24T07:34:32.000Z</time>
      </trkpt>
      <trkpt lat="43.77524" lon="7.33697">
        <ele>136</ele>
        <time>2018-04-24T07:34:34.000Z</time>
      </trkpt>
      <trkpt lat="43.77552" lon="7.33725">
        <ele>136</ele>
        <time>2018-04-24T07:34:39.000Z</time>
      </trkpt>
      <trkpt lat="43.77591" lon="7.33753">
        <ele>129</ele>
        <time>2018-04-24T07:34:46.000Z</time>
      </trkpt>
      <trkpt lat="43.77633" lon="7.33769">
        <ele>128</ele>
        <time>2018-04-24T07:34:53.000Z</time>
      </trkpt>
      <trkpt lat="43.77639" lon="7.3377">
        <ele>128</ele>
        <time>2018-04-24T07:34:54.000Z</time>
      </trkpt>
      <trkpt lat="43.77675" lon="7.33781">
        <ele>124</ele>
        <time>2018-04-24T07:35:00.000Z</time>
      </trkpt>
      <trkpt lat="43.77692" lon="7.33786">
        <ele>124</ele>
        <time>2018-04-24T07:35:03.000Z</time>
      </trkpt>
      <trkpt lat="43.77703" lon="7.3379">
        <ele>124</ele>
        <time>2018-04-24T07:35:05.000Z</time>
      </trkpt>
      <trkpt lat="43.77739" lon="7.33805">
        <ele>124</ele>
        <time>2018-04-24T07:35:12.000Z</time>
      </trkpt>
      <trkpt lat="43.77749" lon="7.3381">
        <ele>124</ele>
        <time>2018-04-24T07:35:14.000Z</time>
      </trkpt>
      <trkpt lat="43.77754" lon="7.33812">
        <ele>125</ele>
        <time>2018-04-24T07:35:15.000Z</time>
      </trkpt>
      <trkpt lat="43.77765" lon="7.33813">
        <ele>125</ele>
        <time>2018-04-24T07:35:17.000Z</time>
      </trkpt>
      <trkpt lat="43.77781" lon="7.33814">
        <ele>125</ele>
        <time>2018-04-24T07:35:20.000Z</time>
      </trkpt>
      <trkpt lat="43.77808" lon="7.33814">
        <ele>125</ele>
        <time>2018-04-24T07:35:25.000Z</time>
      </trkpt>
      <trkpt lat="43.77865" lon="7.33808">
        <ele>127</ele>
        <time>2018-04-24T07:35:35.000Z</time>
      </trkpt>
      <trkpt lat="43.77917" lon="7.33803">
        <ele>131</ele>
        <time>2018-04-24T07:35:44.000Z</time>
      </trkpt>
      <trkpt lat="43.77923" lon="7.33802">
        <ele>131</ele>
        <time>2018-04-24T07:35:45.000Z</time>
      </trkpt>
      <trkpt lat="43.77963" lon="7.33799">
        <ele>132</ele>
        <time>2018-04-24T07:35:52.000Z</time>
      </trkpt>
      <trkpt lat="43.77997" lon="7.33797">
        <ele>132</ele>
        <time>2018-04-24T07:35:58.000Z</time>
      </trkpt>
      <trkpt lat="43.78019" lon="7.33793">
        <ele>134</ele>
        <time>2018-04-24T07:36:02.000Z</time>
      </trkpt>
      <trkpt lat="43.78036" lon="7.3379">
        <ele>133</ele>
        <time>2018-04-24T07:36:05.000Z</time>
      </trkpt>
      <trkpt lat="43.78075" lon="7.3379">
        <ele>133</ele>
        <time>2018-04-24T07:36:12.000Z</time>
      </trkpt>
      <trkpt lat="43.78096" lon="7.33792">
        <ele>134</ele>
        <time>2018-04-24T07:36:16.000Z</time>
      </trkpt>
      <trkpt lat="43.7811" lon="7.33792">
        <ele>134</ele>
        <time>2018-04-24T07:36:19.000Z</time>
      </trkpt>
      <trkpt lat="43.78123" lon="7.33792">
        <ele>134</ele>
        <time>2018-04-24T07:36:23.000Z</time>
      </trkpt>
      <trkpt lat="43.78123" lon="7.33792">
        <ele>134</ele>
        <time>2018-04-24T07:36:25.000Z</time>
      </trkpt>
      <trkpt lat="43.78123" lon="7.33792">
        <ele>134</ele>
        <time>2018-04-24T07:36:28.000Z</time>
      </trkpt>
      <trkpt lat="43.78123" lon="7.33791">
        <ele>134</ele>
        <time>2018-04-24T07:36:35.000Z</time>
      </trkpt>
      <trkpt lat="43.78123" lon="7.3379">
        <ele>134</ele>
        <time>2018-04-24T07:36:42.000Z</time>
      </trkpt>
      <trkpt lat="43.78122" lon="7.33784">
        <ele>134</ele>
        <time>2018-04-24T07:36:54.000Z</time>
      </trkpt>
      <trkpt lat="43.78121" lon="7.33778">
        <ele>133</ele>
        <time>2018-04-24T07:37:04.000Z</time>
      </trkpt>
      <trkpt lat="43.78119" lon="7.33766">
        <ele>133</ele>
        <time>2018-04-24T07:37:14.000Z</time>
      </trkpt>
      <trkpt lat="43.78118" lon="7.33763">
        <ele>132</ele>
        <time>2018-04-24T07:37:23.000Z</time>
      </trkpt>
      <trkpt lat="43.7812" lon="7.33762">
        <ele>132</ele>
        <time>2018-04-24T07:37:29.000Z</time>
      </trkpt>
      <trkpt lat="43.78123" lon="7.33762">
        <ele>133</ele>
        <time>2018-04-24T07:37:31.000Z</time>
      </trkpt>
      <trkpt lat="43.78129" lon="7.33764">
        <ele>133</ele>
        <time>2018-04-24T07:37:34.000Z</time>
      </trkpt>
      <trkpt lat="43.78138" lon="7.33771">
        <ele>133</ele>
        <time>2018-04-24T07:37:37.000Z</time>
      </trkpt>
      <trkpt lat="43.78154" lon="7.33795">
        <ele>134</ele>
        <time>2018-04-24T07:37:42.000Z</time>
      </trkpt>
      <trkpt lat="43.78182" lon="7.33841">
        <ele>137</ele>
        <time>2018-04-24T07:37:50.000Z</time>
      </trkpt>
      <trkpt lat="43.78209" lon="7.33882">
        <ele>137</ele>
        <time>2018-04-24T07:37:58.000Z</time>
      </trkpt>
      <trkpt lat="43.78227" lon="7.33909">
        <ele>135</ele>
        <time>2018-04-24T07:38:04.000Z</time>
      </trkpt>
      <trkpt lat="43.78247" lon="7.33919">
        <ele>132</ele>
        <time>2018-04-24T07:38:09.000Z</time>
      </trkpt>
      <trkpt lat="43.78271" lon="7.33925">
        <ele>133</ele>
        <time>2018-04-24T07:38:14.000Z</time>
      </trkpt>
      <trkpt lat="43.78275" lon="7.33927">
        <ele>134</ele>
        <time>2018-04-24T07:38:15.000Z</time>
      </trkpt>
      <trkpt lat="43.7828" lon="7.33929">
        <ele>134</ele>
        <time>2018-04-24T07:38:16.000Z</time>
      </trkpt>
      <trkpt lat="43.78288" lon="7.33934">
        <ele>135</ele>
        <time>2018-04-24T07:38:18.000Z</time>
      </trkpt>
      <trkpt lat="43.78306" lon="7.33949">
        <ele>136</ele>
        <time>2018-04-24T07:38:22.000Z</time>
      </trkpt>
      <trkpt lat="43.78334" lon="7.33987">
        <ele>138</ele>
        <time>2018-04-24T07:38:29.000Z</time>
      </trkpt>
      <trkpt lat="43.78367" lon="7.34033">
        <ele>138</ele>
        <time>2018-04-24T07:38:37.000Z</time>
      </trkpt>
      <trkpt lat="43.78395" lon="7.34073">
        <ele>138</ele>
        <time>2018-04-24T07:38:44.000Z</time>
      </trkpt>
      <trkpt lat="43.78419" lon="7.34108">
        <ele>139</ele>
        <time>2018-04-24T07:38:50.000Z</time>
      </trkpt>
      <trkpt lat="43.78436" lon="7.34131">
        <ele>139</ele>
        <time>2018-04-24T07:38:54.000Z</time>
      </trkpt>
      <trkpt lat="43.78441" lon="7.34137">
        <ele>139</ele>
        <time>2018-04-24T07:38:55.000Z</time>
      </trkpt>
      <trkpt lat="43.78472" lon="7.34165">
        <ele>139</ele>
        <time>2018-04-24T07:39:01.000Z</time>
      </trkpt>
      <trkpt lat="43.78477" lon="7.34169">
        <ele>141</ele>
        <time>2018-04-24T07:39:02.000Z</time>
      </trkpt>
      <trkpt lat="43.78506" lon="7.34195">
        <ele>141</ele>
        <time>2018-04-24T07:39:08.000Z</time>
      </trkpt>
      <trkpt lat="43.78515" lon="7.34204">
        <ele>141</ele>
        <time>2018-04-24T07:39:10.000Z</time>
      </trkpt>
      <trkpt lat="43.78535" lon="7.3422">
        <ele>141</ele>
        <time>2018-04-24T07:39:14.000Z</time>
      </trkpt>
      <trkpt lat="43.78539" lon="7.34225">
        <ele>141</ele>
        <time>2018-04-24T07:39:15.000Z</time>
      </trkpt>
      <trkpt lat="43.78549" lon="7.34233">
        <ele>141</ele>
        <time>2018-04-24T07:39:17.000Z</time>
      </trkpt>
      <trkpt lat="43.78553" lon="7.34237">
        <ele>141</ele>
        <time>2018-04-24T07:39:18.000Z</time>
      </trkpt>
      <trkpt lat="43.78583" lon="7.34266">
        <ele>142</ele>
        <time>2018-04-24T07:39:25.000Z</time>
      </trkpt>
      <trkpt lat="43.78592" lon="7.34274">
        <ele>143</ele>
        <time>2018-04-24T07:39:27.000Z</time>
      </trkpt>
      <trkpt lat="43.78614" lon="7.34294">
        <ele>143</ele>
        <time>2018-04-24T07:39:32.000Z</time>
      </trkpt>
      <trkpt lat="43.78617" lon="7.34297">
        <ele>143</ele>
        <time>2018-04-24T07:39:33.000Z</time>
      </trkpt>
      <trkpt lat="43.78627" lon="7.34305">
        <ele>144</ele>
        <time>2018-04-24T07:39:35.000Z</time>
      </trkpt>
      <trkpt lat="43.78639" lon="7.34317">
        <ele>144</ele>
        <time>2018-04-24T07:39:38.000Z</time>
      </trkpt>
      <trkpt lat="43.78662" lon="7.34338">
        <ele>144</ele>
        <time>2018-04-24T07:39:43.000Z</time>
      </trkpt>
      <trkpt lat="43.78674" lon="7.34354">
        <ele>145</ele>
        <time>2018-04-24T07:39:46.000Z</time>
      </trkpt>
      <trkpt lat="43.78683" lon="7.34384">
        <ele>145</ele>
        <time>2018-04-24T07:39:50.000Z</time>
      </trkpt>
      <trkpt lat="43.78699" lon="7.34431">
        <ele>144</ele>
        <time>2018-04-24T07:39:57.000Z</time>
      </trkpt>
      <trkpt lat="43.78723" lon="7.34481">
        <ele>144</ele>
        <time>2018-04-24T07:40:05.000Z</time>
      </trkpt>
      <trkpt lat="43.78752" lon="7.3454">
        <ele>145</ele>
        <time>2018-04-24T07:40:14.000Z</time>
      </trkpt>
      <trkpt lat="43.78764" lon="7.3457">
        <ele>146</ele>
        <time>2018-04-24T07:40:19.000Z</time>
      </trkpt>
      <trkpt lat="43.78769" lon="7.34582">
        <ele>146</ele>
        <time>2018-04-24T07:40:21.000Z</time>
      </trkpt>
      <trkpt lat="43.78778" lon="7.34604">
        <ele>148</ele>
        <time>2018-04-24T07:40:25.000Z</time>
      </trkpt>
      <trkpt lat="43.78784" lon="7.34618">
        <ele>148</ele>
        <time>2018-04-24T07:40:28.000Z</time>
      </trkpt>
      <trkpt lat="43.78794" lon="7.34633">
        <ele>148</ele>
        <time>2018-04-24T07:40:31.000Z</time>
      </trkpt>
      <trkpt lat="43.78801" lon="7.34643">
        <ele>148</ele>
        <time>2018-04-24T07:40:33.000Z</time>
      </trkpt>
      <trkpt lat="43.78808" lon="7.34653">
        <ele>148</ele>
        <time>2018-04-24T07:40:35.000Z</time>
      </trkpt>
      <trkpt lat="43.78815" lon="7.34662">
        <ele>149</ele>
        <time>2018-04-24T07:40:37.000Z</time>
      </trkpt>
      <trkpt lat="43.78824" lon="7.34675">
        <ele>151</ele>
        <time>2018-04-24T07:40:40.000Z</time>
      </trkpt>
      <trkpt lat="43.78827" lon="7.34679">
        <ele>151</ele>
        <time>2018-04-24T07:40:41.000Z</time>
      </trkpt>
      <trkpt lat="43.78842" lon="7.347">
        <ele>152</ele>
        <time>2018-04-24T07:40:46.000Z</time>
      </trkpt>
      <trkpt lat="43.78851" lon="7.34714">
        <ele>153</ele>
        <time>2018-04-24T07:40:49.000Z</time>
      </trkpt>
      <trkpt lat="43.78857" lon="7.34723">
        <ele>153</ele>
        <time>2018-04-24T07:40:51.000Z</time>
      </trkpt>
      <trkpt lat="43.78862" lon="7.34732">
        <ele>153</ele>
        <time>2018-04-24T07:40:53.000Z</time>
      </trkpt>
      <trkpt lat="43.78867" lon="7.34741">
        <ele>154</ele>
        <time>2018-04-24T07:40:55.000Z</time>
      </trkpt>
      <trkpt lat="43.7887" lon="7.34745">
        <ele>154</ele>
        <time>2018-04-24T07:40:56.000Z</time>
      </trkpt>
      <trkpt lat="43.78873" lon="7.34749">
        <ele>154</ele>
        <time>2018-04-24T07:40:57.000Z</time>
      </trkpt>
      <trkpt lat="43.78883" lon="7.34766">
        <ele>156</ele>
        <time>2018-04-24T07:41:02.000Z</time>
      </trkpt>
      <trkpt lat="43.78887" lon="7.34774">
        <ele>156</ele>
        <time>2018-04-24T07:41:04.000Z</time>
      </trkpt>
      <trkpt lat="43.78893" lon="7.34784">
        <ele>156</ele>
        <time>2018-04-24T07:41:06.000Z</time>
      </trkpt>
      <trkpt lat="43.78902" lon="7.348">
        <ele>156</ele>
        <time>2018-04-24T07:41:10.000Z</time>
      </trkpt>
      <trkpt lat="43.78922" lon="7.34822">
        <ele>158</ele>
        <time>2018-04-24T07:41:16.000Z</time>
      </trkpt>
      <trkpt lat="43.78924" lon="7.34826">
        <ele>158</ele>
        <time>2018-04-24T07:41:17.000Z</time>
      </trkpt>
      <trkpt lat="43.78948" lon="7.34857">
        <ele>162</ele>
        <time>2018-04-24T07:41:25.000Z</time>
      </trkpt>
      <trkpt lat="43.7895" lon="7.34861">
        <ele>162</ele>
        <time>2018-04-24T07:41:26.000Z</time>
      </trkpt>
      <trkpt lat="43.7896" lon="7.34878">
        <ele>163</ele>
        <time>2018-04-24T07:41:30.000Z</time>
      </trkpt>
      <trkpt lat="43.78962" lon="7.34883">
        <ele>163</ele>
        <time>2018-04-24T07:41:31.000Z</time>
      </trkpt>
      <trkpt lat="43.78971" lon="7.349">
        <ele>164</ele>
        <time>2018-04-24T07:41:35.000Z</time>
      </trkpt>
      <trkpt lat="43.78979" lon="7.34917">
        <ele>165</ele>
        <time>2018-04-24T07:41:39.000Z</time>
      </trkpt>
      <trkpt lat="43.78989" lon="7.34939">
        <ele>164</ele>
        <time>2018-04-24T07:41:44.000Z</time>
      </trkpt>
      <trkpt lat="43.7899" lon="7.34944">
        <ele>164</ele>
        <time>2018-04-24T07:41:45.000Z</time>
      </trkpt>
      <trkpt lat="43.78999" lon="7.34969">
        <ele>163</ele>
        <time>2018-04-24T07:41:50.000Z</time>
      </trkpt>
      <trkpt lat="43.79005" lon="7.34989">
        <ele>166</ele>
        <time>2018-04-24T07:41:54.000Z</time>
      </trkpt>
      <trkpt lat="43.79008" lon="7.34999">
        <ele>165</ele>
        <time>2018-04-24T07:41:56.000Z</time>
      </trkpt>
      <trkpt lat="43.7901" lon="7.35004">
        <ele>164</ele>
        <time>2018-04-24T07:41:57.000Z</time>
      </trkpt>
      <trkpt lat="43.79016" lon="7.35014">
        <ele>166</ele>
        <time>2018-04-24T07:41:59.000Z</time>
      </trkpt>
      <trkpt lat="43.79019" lon="7.35019">
        <ele>167</ele>
        <time>2018-04-24T07:42:00.000Z</time>
      </trkpt>
      <trkpt lat="43.79037" lon="7.35039">
        <ele>169</ele>
        <time>2018-04-24T07:42:05.000Z</time>
      </trkpt>
      <trkpt lat="43.79047" lon="7.35051">
        <ele>170</ele>
        <time>2018-04-24T07:42:08.000Z</time>
      </trkpt>
      <trkpt lat="43.79061" lon="7.35067">
        <ele>170</ele>
        <time>2018-04-24T07:42:12.000Z</time>
      </trkpt>
      <trkpt lat="43.79079" lon="7.35086">
        <ele>169</ele>
        <time>2018-04-24T07:42:17.000Z</time>
      </trkpt>
      <trkpt lat="43.79106" lon="7.35108">
        <ele>174</ele>
        <time>2018-04-24T07:42:24.000Z</time>
      </trkpt>
      <trkpt lat="43.79128" lon="7.35117">
        <ele>176</ele>
        <time>2018-04-24T07:42:30.000Z</time>
      </trkpt>
      <trkpt lat="43.79131" lon="7.35118">
        <ele>176</ele>
        <time>2018-04-24T07:42:31.000Z</time>
      </trkpt>
      <trkpt lat="43.79143" lon="7.35122">
        <ele>177</ele>
        <time>2018-04-24T07:42:35.000Z</time>
      </trkpt>
      <trkpt lat="43.79154" lon="7.35126">
        <ele>178</ele>
        <time>2018-04-24T07:42:38.000Z</time>
      </trkpt>
      <trkpt lat="43.79169" lon="7.35132">
        <ele>186</ele>
        <time>2018-04-24T07:42:42.000Z</time>
      </trkpt>
      <trkpt lat="43.79184" lon="7.35138">
        <ele>186</ele>
        <time>2018-04-24T07:42:46.000Z</time>
      </trkpt>
      <trkpt lat="43.79191" lon="7.35142">
        <ele>186</ele>
        <time>2018-04-24T07:42:48.000Z</time>
      </trkpt>
      <trkpt lat="43.7921" lon="7.35154">
        <ele>186</ele>
        <time>2018-04-24T07:42:53.000Z</time>
      </trkpt>
      <trkpt lat="43.79225" lon="7.35164">
        <ele>186</ele>
        <time>2018-04-24T07:42:57.000Z</time>
      </trkpt>
      <trkpt lat="43.79232" lon="7.35169">
        <ele>180</ele>
        <time>2018-04-24T07:42:59.000Z</time>
      </trkpt>
      <trkpt lat="43.79254" lon="7.35177">
        <ele>181</ele>
        <time>2018-04-24T07:43:04.000Z</time>
      </trkpt>
      <trkpt lat="43.79258" lon="7.35178">
        <ele>181</ele>
        <time>2018-04-24T07:43:05.000Z</time>
      </trkpt>
      <trkpt lat="43.79292" lon="7.35186">
        <ele>180</ele>
        <time>2018-04-24T07:43:13.000Z</time>
      </trkpt>
      <trkpt lat="43.79295" lon="7.35187">
        <ele>180</ele>
        <time>2018-04-24T07:43:14.000Z</time>
      </trkpt>
      <trkpt lat="43.79308" lon="7.35196">
        <ele>179</ele>
        <time>2018-04-24T07:43:18.000Z</time>
      </trkpt>
      <trkpt lat="43.79312" lon="7.35199">
        <ele>179</ele>
        <time>2018-04-24T07:43:19.000Z</time>
      </trkpt>
      <trkpt lat="43.79327" lon="7.35215">
        <ele>178</ele>
        <time>2018-04-24T07:43:23.000Z</time>
      </trkpt>
      <trkpt lat="43.79333" lon="7.35224">
        <ele>178</ele>
        <time>2018-04-24T07:43:25.000Z</time>
      </trkpt>
      <trkpt lat="43.7934" lon="7.3524">
        <ele>177</ele>
        <time>2018-04-24T07:43:28.000Z</time>
      </trkpt>
      <trkpt lat="43.79342" lon="7.35245">
        <ele>177</ele>
        <time>2018-04-24T07:43:29.000Z</time>
      </trkpt>
      <trkpt lat="43.79347" lon="7.35262">
        <ele>178</ele>
        <time>2018-04-24T07:43:32.000Z</time>
      </trkpt>
      <trkpt lat="43.79353" lon="7.35279">
        <ele>178</ele>
        <time>2018-04-24T07:43:35.000Z</time>
      </trkpt>
      <trkpt lat="43.79358" lon="7.353">
        <ele>179</ele>
        <time>2018-04-24T07:43:39.000Z</time>
      </trkpt>
      <trkpt lat="43.79361" lon="7.3531">
        <ele>179</ele>
        <time>2018-04-24T07:43:41.000Z</time>
      </trkpt>
      <trkpt lat="43.79373" lon="7.35323">
        <ele>179</ele>
        <time>2018-04-24T07:43:45.000Z</time>
      </trkpt>
      <trkpt lat="43.79404" lon="7.35339">
        <ele>181</ele>
        <time>2018-04-24T07:43:53.000Z</time>
      </trkpt>
      <trkpt lat="43.79413" lon="7.35342">
        <ele>181</ele>
        <time>2018-04-24T07:43:55.000Z</time>
      </trkpt>
      <trkpt lat="43.79432" lon="7.35347">
        <ele>183</ele>
        <time>2018-04-24T07:44:00.000Z</time>
      </trkpt>
      <trkpt lat="43.79436" lon="7.35348">
        <ele>183</ele>
        <time>2018-04-24T07:44:01.000Z</time>
      </trkpt>
      <trkpt lat="43.79458" lon="7.35354">
        <ele>185</ele>
        <time>2018-04-24T07:44:07.000Z</time>
      </trkpt>
      <trkpt lat="43.79476" lon="7.35362">
        <ele>186</ele>
        <time>2018-04-24T07:44:12.000Z</time>
      </trkpt>
      <trkpt lat="43.79479" lon="7.35364">
        <ele>186</ele>
        <time>2018-04-24T07:44:13.000Z</time>
      </trkpt>
      <trkpt lat="43.79503" lon="7.35373">
        <ele>188</ele>
        <time>2018-04-24T07:44:20.000Z</time>
      </trkpt>
      <trkpt lat="43.79507" lon="7.35375">
        <ele>188</ele>
        <time>2018-04-24T07:44:21.000Z</time>
      </trkpt>
      <trkpt lat="43.79524" lon="7.35379">
        <ele>188</ele>
        <time>2018-04-24T07:44:25.000Z</time>
      </trkpt>
      <trkpt lat="43.79559" lon="7.3539">
        <ele>187</ele>
        <time>2018-04-24T07:44:33.000Z</time>
      </trkpt>
      <trkpt lat="43.79571" lon="7.35394">
        <ele>187</ele>
        <time>2018-04-24T07:44:36.000Z</time>
      </trkpt>
      <trkpt lat="43.79582" lon="7.35397">
        <ele>186</ele>
        <time>2018-04-24T07:44:39.000Z</time>
      </trkpt>
      <trkpt lat="43.79602" lon="7.35403">
        <ele>187</ele>
        <time>2018-04-24T07:44:44.000Z</time>
      </trkpt>
      <trkpt lat="43.7961" lon="7.35406">
        <ele>187</ele>
        <time>2018-04-24T07:44:46.000Z</time>
      </trkpt>
      <trkpt lat="43.79644" lon="7.35417">
        <ele>188</ele>
        <time>2018-04-24T07:44:54.000Z</time>
      </trkpt>
      <trkpt lat="43.79655" lon="7.35418">
        <ele>187</ele>
        <time>2018-04-24T07:44:57.000Z</time>
      </trkpt>
      <trkpt lat="43.79671" lon="7.35418">
        <ele>188</ele>
        <time>2018-04-24T07:45:01.000Z</time>
      </trkpt>
      <trkpt lat="43.79686" lon="7.35417">
        <ele>189</ele>
        <time>2018-04-24T07:45:05.000Z</time>
      </trkpt>
      <trkpt lat="43.79721" lon="7.35415">
        <ele>192</ele>
        <time>2018-04-24T07:45:14.000Z</time>
      </trkpt>
      <trkpt lat="43.79729" lon="7.35414">
        <ele>192</ele>
        <time>2018-04-24T07:45:16.000Z</time>
      </trkpt>
      <trkpt lat="43.79758" lon="7.35412">
        <ele>193</ele>
        <time>2018-04-24T07:45:23.000Z</time>
      </trkpt>
      <trkpt lat="43.79763" lon="7.35413">
        <ele>193</ele>
        <time>2018-04-24T07:45:24.000Z</time>
      </trkpt>
      <trkpt lat="43.79774" lon="7.35418">
        <ele>192</ele>
        <time>2018-04-24T07:45:27.000Z</time>
      </trkpt>
      <trkpt lat="43.79785" lon="7.35425">
        <ele>193</ele>
        <time>2018-04-24T07:45:30.000Z</time>
      </trkpt>
      <trkpt lat="43.79808" lon="7.35446">
        <ele>193</ele>
        <time>2018-04-24T07:45:37.000Z</time>
      </trkpt>
      <trkpt lat="43.79811" lon="7.35449">
        <ele>193</ele>
        <time>2018-04-24T07:45:38.000Z</time>
      </trkpt>
      <trkpt lat="43.79835" lon="7.35467">
        <ele>193</ele>
        <time>2018-04-24T07:45:45.000Z</time>
      </trkpt>
      <trkpt lat="43.79843" lon="7.35472">
        <ele>193</ele>
        <time>2018-04-24T07:45:47.000Z</time>
      </trkpt>
      <trkpt lat="43.79868" lon="7.35481">
        <ele>193</ele>
        <time>2018-04-24T07:45:53.000Z</time>
      </trkpt>
      <trkpt lat="43.79901" lon="7.3549">
        <ele>193</ele>
        <time>2018-04-24T07:46:01.000Z</time>
      </trkpt>
      <trkpt lat="43.79921" lon="7.35488">
        <ele>195</ele>
        <time>2018-04-24T07:46:06.000Z</time>
      </trkpt>
      <trkpt lat="43.79928" lon="7.35486">
        <ele>196</ele>
        <time>2018-04-24T07:46:08.000Z</time>
      </trkpt>
      <trkpt lat="43.79943" lon="7.35482">
        <ele>197</ele>
        <time>2018-04-24T07:46:12.000Z</time>
      </trkpt>
      <trkpt lat="43.79954" lon="7.35483">
        <ele>198</ele>
        <time>2018-04-24T07:46:15.000Z</time>
      </trkpt>
      <trkpt lat="43.79974" lon="7.35493">
        <ele>199</ele>
        <time>2018-04-24T07:46:21.000Z</time>
      </trkpt>
      <trkpt lat="43.79991" lon="7.35509">
        <ele>196</ele>
        <time>2018-04-24T07:46:27.000Z</time>
      </trkpt>
      <trkpt lat="43.80003" lon="7.35521">
        <ele>197</ele>
        <time>2018-04-24T07:46:31.000Z</time>
      </trkpt>
      <trkpt lat="43.80018" lon="7.35528">
        <ele>196</ele>
        <time>2018-04-24T07:46:35.000Z</time>
      </trkpt>
      <trkpt lat="43.80041" lon="7.35527">
        <ele>197</ele>
        <time>2018-04-24T07:46:41.000Z</time>
      </trkpt>
      <trkpt lat="43.80067" lon="7.3552">
        <ele>198</ele>
        <time>2018-04-24T07:46:48.000Z</time>
      </trkpt>
      <trkpt lat="43.80072" lon="7.3552">
        <ele>198</ele>
        <time>2018-04-24T07:46:49.000Z</time>
      </trkpt>
      <trkpt lat="43.8008" lon="7.35522">
        <ele>198</ele>
        <time>2018-04-24T07:46:51.000Z</time>
      </trkpt>
      <trkpt lat="43.80104" lon="7.35528">
        <ele>201</ele>
        <time>2018-04-24T07:46:57.000Z</time>
      </trkpt>
      <trkpt lat="43.80121" lon="7.35534">
        <ele>201</ele>
        <time>2018-04-24T07:47:02.000Z</time>
      </trkpt>
      <trkpt lat="43.80147" lon="7.35541">
        <ele>201</ele>
        <time>2018-04-24T07:47:09.000Z</time>
      </trkpt>
      <trkpt lat="43.80151" lon="7.35543">
        <ele>201</ele>
        <time>2018-04-24T07:47:10.000Z</time>
      </trkpt>
      <trkpt lat="43.8017" lon="7.3555">
        <ele>205</ele>
        <time>2018-04-24T07:47:15.000Z</time>
      </trkpt>
      <trkpt lat="43.80178" lon="7.35553">
        <ele>204</ele>
        <time>2018-04-24T07:47:18.000Z</time>
      </trkpt>
      <trkpt lat="43.80186" lon="7.35556">
        <ele>204</ele>
        <time>2018-04-24T07:47:20.000Z</time>
      </trkpt>
      <trkpt lat="43.80204" lon="7.35563">
        <ele>205</ele>
        <time>2018-04-24T07:47:25.000Z</time>
      </trkpt>
      <trkpt lat="43.80208" lon="7.35564">
        <ele>205</ele>
        <time>2018-04-24T07:47:26.000Z</time>
      </trkpt>
      <trkpt lat="43.80219" lon="7.35567">
        <ele>205</ele>
        <time>2018-04-24T07:47:29.000Z</time>
      </trkpt>
      <trkpt lat="43.80233" lon="7.3557">
        <ele>205</ele>
        <time>2018-04-24T07:47:33.000Z</time>
      </trkpt>
      <trkpt lat="43.80241" lon="7.35572">
        <ele>205</ele>
        <time>2018-04-24T07:47:35.000Z</time>
      </trkpt>
      <trkpt lat="43.80258" lon="7.35575">
        <ele>207</ele>
        <time>2018-04-24T07:47:40.000Z</time>
      </trkpt>
      <trkpt lat="43.80265" lon="7.35577">
        <ele>208</ele>
        <time>2018-04-24T07:47:42.000Z</time>
      </trkpt>
      <trkpt lat="43.80282" lon="7.35581">
        <ele>211</ele>
        <time>2018-04-24T07:47:48.000Z</time>
      </trkpt>
      <trkpt lat="43.80289" lon="7.35583">
        <ele>212</ele>
        <time>2018-04-24T07:47:50.000Z</time>
      </trkpt>
      <trkpt lat="43.80294" lon="7.35585">
        <ele>208</ele>
        <time>2018-04-24T07:47:52.000Z</time>
      </trkpt>
      <trkpt lat="43.80312" lon="7.35589">
        <ele>210</ele>
        <time>2018-04-24T07:47:57.000Z</time>
      </trkpt>
      <trkpt lat="43.80334" lon="7.35594">
        <ele>213</ele>
        <time>2018-04-24T07:48:04.000Z</time>
      </trkpt>
      <trkpt lat="43.80337" lon="7.35595">
        <ele>213</ele>
        <time>2018-04-24T07:48:05.000Z</time>
      </trkpt>
      <trkpt lat="43.80354" lon="7.35599">
        <ele>212</ele>
        <time>2018-04-24T07:48:10.000Z</time>
      </trkpt>
      <trkpt lat="43.80371" lon="7.35602">
        <ele>212</ele>
        <time>2018-04-24T07:48:15.000Z</time>
      </trkpt>
      <trkpt lat="43.80378" lon="7.35603">
        <ele>212</ele>
        <time>2018-04-24T07:48:17.000Z</time>
      </trkpt>
      <trkpt lat="43.80401" lon="7.35607">
        <ele>213</ele>
        <time>2018-04-24T07:48:24.000Z</time>
      </trkpt>
      <trkpt lat="43.80424" lon="7.35611">
        <ele>214</ele>
        <time>2018-04-24T07:48:31.000Z</time>
      </trkpt>
      <trkpt lat="43.80437" lon="7.35612">
        <ele>214</ele>
        <time>2018-04-24T07:48:35.000Z</time>
      </trkpt>
      <trkpt lat="43.8045" lon="7.35615">
        <ele>214</ele>
        <time>2018-04-24T07:48:39.000Z</time>
      </trkpt>
      <trkpt lat="43.80472" lon="7.35618">
        <ele>214</ele>
        <time>2018-04-24T07:48:46.000Z</time>
      </trkpt>
      <trkpt lat="43.80476" lon="7.35619">
        <ele>214</ele>
        <time>2018-04-24T07:48:47.000Z</time>
      </trkpt>
      <trkpt lat="43.80494" lon="7.35622">
        <ele>214</ele>
        <time>2018-04-24T07:48:53.000Z</time>
      </trkpt>
      <trkpt lat="43.80515" lon="7.35627">
        <ele>217</ele>
        <time>2018-04-24T07:49:00.000Z</time>
      </trkpt>
      <trkpt lat="43.80518" lon="7.35628">
        <ele>217</ele>
        <time>2018-04-24T07:49:01.000Z</time>
      </trkpt>
      <trkpt lat="43.80539" lon="7.35637">
        <ele>217</ele>
        <time>2018-04-24T07:49:08.000Z</time>
      </trkpt>
      <trkpt lat="43.80543" lon="7.35638">
        <ele>217</ele>
        <time>2018-04-24T07:49:09.000Z</time>
      </trkpt>
      <trkpt lat="43.8056" lon="7.35646">
        <ele>217</ele>
        <time>2018-04-24T07:49:14.000Z</time>
      </trkpt>
      <trkpt lat="43.80577" lon="7.35653">
        <ele>217</ele>
        <time>2018-04-24T07:49:19.000Z</time>
      </trkpt>
      <trkpt lat="43.80588" lon="7.35657">
        <ele>219</ele>
        <time>2018-04-24T07:49:22.000Z</time>
      </trkpt>
      <trkpt lat="43.8062" lon="7.3567">
        <ele>220</ele>
        <time>2018-04-24T07:49:31.000Z</time>
      </trkpt>
      <trkpt lat="43.80651" lon="7.3568">
        <ele>222</ele>
        <time>2018-04-24T07:49:40.000Z</time>
      </trkpt>
      <trkpt lat="43.80658" lon="7.35681">
        <ele>222</ele>
        <time>2018-04-24T07:49:42.000Z</time>
      </trkpt>
      <trkpt lat="43.80693" lon="7.35688">
        <ele>226</ele>
        <time>2018-04-24T07:49:52.000Z</time>
      </trkpt>
      <trkpt lat="43.80703" lon="7.3569">
        <ele>226</ele>
        <time>2018-04-24T07:49:55.000Z</time>
      </trkpt>
      <trkpt lat="43.80718" lon="7.35693">
        <ele>227</ele>
        <time>2018-04-24T07:50:00.000Z</time>
      </trkpt>
      <trkpt lat="43.80724" lon="7.35694">
        <ele>227</ele>
        <time>2018-04-24T07:50:02.000Z</time>
      </trkpt>
      <trkpt lat="43.80733" lon="7.35696">
        <ele>228</ele>
        <time>2018-04-24T07:50:05.000Z</time>
      </trkpt>
      <trkpt lat="43.80753" lon="7.35699">
        <ele>233</ele>
        <time>2018-04-24T07:50:11.000Z</time>
      </trkpt>
      <trkpt lat="43.80759" lon="7.35701">
        <ele>233</ele>
        <time>2018-04-24T07:50:13.000Z</time>
      </trkpt>
      <trkpt lat="43.80782" lon="7.35705">
        <ele>234</ele>
        <time>2018-04-24T07:50:20.000Z</time>
      </trkpt>
      <trkpt lat="43.80785" lon="7.35706">
        <ele>235</ele>
        <time>2018-04-24T07:50:21.000Z</time>
      </trkpt>
      <trkpt lat="43.80797" lon="7.35708">
        <ele>235</ele>
        <time>2018-04-24T07:50:25.000Z</time>
      </trkpt>
      <trkpt lat="43.80806" lon="7.35709">
        <ele>236</ele>
        <time>2018-04-24T07:50:28.000Z</time>
      </trkpt>
      <trkpt lat="43.80815" lon="7.35711">
        <ele>236</ele>
        <time>2018-04-24T07:50:31.000Z</time>
      </trkpt>
      <trkpt lat="43.8083" lon="7.35713">
        <ele>237</ele>
        <time>2018-04-24T07:50:36.000Z</time>
      </trkpt>
      <trkpt lat="43.80832" lon="7.35714">
        <ele>237</ele>
        <time>2018-04-24T07:50:37.000Z</time>
      </trkpt>
      <trkpt lat="43.80849" lon="7.35716">
        <ele>241</ele>
        <time>2018-04-24T07:50:43.000Z</time>
      </trkpt>
      <trkpt lat="43.80856" lon="7.35717">
        <ele>241</ele>
        <time>2018-04-24T07:50:45.000Z</time>
      </trkpt>
      <trkpt lat="43.80872" lon="7.35719">
        <ele>241</ele>
        <time>2018-04-24T07:50:50.000Z</time>
      </trkpt>
      <trkpt lat="43.80883" lon="7.35721">
        <ele>241</ele>
        <time>2018-04-24T07:50:54.000Z</time>
      </trkpt>
      <trkpt lat="43.80886" lon="7.35721">
        <ele>241</ele>
        <time>2018-04-24T07:50:55.000Z</time>
      </trkpt>
      <trkpt lat="43.80905" lon="7.35724">
        <ele>242</ele>
        <time>2018-04-24T07:51:02.000Z</time>
      </trkpt>
      <trkpt lat="43.80908" lon="7.35724">
        <ele>242</ele>
        <time>2018-04-24T07:51:03.000Z</time>
      </trkpt>
      <trkpt lat="43.80928" lon="7.35731">
        <ele>243</ele>
        <time>2018-04-24T07:51:11.000Z</time>
      </trkpt>
      <trkpt lat="43.80931" lon="7.35733">
        <ele>243</ele>
        <time>2018-04-24T07:51:12.000Z</time>
      </trkpt>
      <trkpt lat="43.80945" lon="7.35739">
        <ele>243</ele>
        <time>2018-04-24T07:51:18.000Z</time>
      </trkpt>
      <trkpt lat="43.80962" lon="7.35745">
        <ele>243</ele>
        <time>2018-04-24T07:51:24.000Z</time>
      </trkpt>
      <trkpt lat="43.80968" lon="7.35746">
        <ele>243</ele>
        <time>2018-04-24T07:51:26.000Z</time>
      </trkpt>
      <trkpt lat="43.80989" lon="7.35742">
        <ele>244</ele>
        <time>2018-04-24T07:51:33.000Z</time>
      </trkpt>
      <trkpt lat="43.80992" lon="7.3574">
        <ele>244</ele>
        <time>2018-04-24T07:51:34.000Z</time>
      </trkpt>
      <trkpt lat="43.8101" lon="7.35729">
        <ele>246</ele>
        <time>2018-04-24T07:51:40.000Z</time>
      </trkpt>
      <trkpt lat="43.81015" lon="7.35725">
        <ele>246</ele>
        <time>2018-04-24T07:51:42.000Z</time>
      </trkpt>
      <trkpt lat="43.81034" lon="7.35714">
        <ele>247</ele>
        <time>2018-04-24T07:51:49.000Z</time>
      </trkpt>
      <trkpt lat="43.81049" lon="7.35709">
        <ele>247</ele>
        <time>2018-04-24T07:51:54.000Z</time>
      </trkpt>
      <trkpt lat="43.81054" lon="7.35707">
        <ele>247</ele>
        <time>2018-04-24T07:51:56.000Z</time>
      </trkpt>
      <trkpt lat="43.81071" lon="7.35706">
        <ele>248</ele>
        <time>2018-04-24T07:52:02.000Z</time>
      </trkpt>
      <trkpt lat="43.81074" lon="7.35706">
        <ele>248</ele>
        <time>2018-04-24T07:52:03.000Z</time>
      </trkpt>
      <trkpt lat="43.81086" lon="7.35706">
        <ele>253</ele>
        <time>2018-04-24T07:52:08.000Z</time>
      </trkpt>
      <trkpt lat="43.81097" lon="7.35703">
        <ele>253</ele>
        <time>2018-04-24T07:52:13.000Z</time>
      </trkpt>
      <trkpt lat="43.81099" lon="7.35702">
        <ele>253</ele>
        <time>2018-04-24T07:52:14.000Z</time>
      </trkpt>
      <trkpt lat="43.81113" lon="7.35697">
        <ele>254</ele>
        <time>2018-04-24T07:52:20.000Z</time>
      </trkpt>
      <trkpt lat="43.81117" lon="7.35696">
        <ele>254</ele>
        <time>2018-04-24T07:52:22.000Z</time>
      </trkpt>
      <trkpt lat="43.81128" lon="7.35693">
        <ele>254</ele>
        <time>2018-04-24T07:52:27.000Z</time>
      </trkpt>
      <trkpt lat="43.81138" lon="7.35691">
        <ele>254</ele>
        <time>2018-04-24T07:52:31.000Z</time>
      </trkpt>
      <trkpt lat="43.81145" lon="7.3569">
        <ele>254</ele>
        <time>2018-04-24T07:52:34.000Z</time>
      </trkpt>
      <trkpt lat="43.81155" lon="7.35689">
        <ele>254</ele>
        <time>2018-04-24T07:52:38.000Z</time>
      </trkpt>
      <trkpt lat="43.81163" lon="7.35689">
        <ele>254</ele>
        <time>2018-04-24T07:52:42.000Z</time>
      </trkpt>
      <trkpt lat="43.81172" lon="7.35689">
        <ele>259</ele>
        <time>2018-04-24T07:52:46.000Z</time>
      </trkpt>
      <trkpt lat="43.81176" lon="7.35689">
        <ele>259</ele>
        <time>2018-04-24T07:52:48.000Z</time>
      </trkpt>
      <trkpt lat="43.81187" lon="7.35688">
        <ele>260</ele>
        <time>2018-04-24T07:52:53.000Z</time>
      </trkpt>
      <trkpt lat="43.8119" lon="7.35689">
        <ele>261</ele>
        <time>2018-04-24T07:52:55.000Z</time>
      </trkpt>
      <trkpt lat="43.81194" lon="7.35689">
        <ele>261</ele>
        <time>2018-04-24T07:52:57.000Z</time>
      </trkpt>
      <trkpt lat="43.81205" lon="7.35689">
        <ele>262</ele>
        <time>2018-04-24T07:53:02.000Z</time>
      </trkpt>
      <trkpt lat="43.81209" lon="7.35689">
        <ele>262</ele>
        <time>2018-04-24T07:53:04.000Z</time>
      </trkpt>
      <trkpt lat="43.81215" lon="7.35689">
        <ele>262</ele>
        <time>2018-04-24T07:53:07.000Z</time>
      </trkpt>
      <trkpt lat="43.81224" lon="7.35689">
        <ele>263</ele>
        <time>2018-04-24T07:53:11.000Z</time>
      </trkpt>
      <trkpt lat="43.81226" lon="7.35689">
        <ele>263</ele>
        <time>2018-04-24T07:53:12.000Z</time>
      </trkpt>
      <trkpt lat="43.81233" lon="7.35689">
        <ele>263</ele>
        <time>2018-04-24T07:53:15.000Z</time>
      </trkpt>
      <trkpt lat="43.81243" lon="7.35689">
        <ele>263</ele>
        <time>2018-04-24T07:53:20.000Z</time>
      </trkpt>
      <trkpt lat="43.81247" lon="7.35689">
        <ele>263</ele>
        <time>2018-04-24T07:53:22.000Z</time>
      </trkpt>
      <trkpt lat="43.81251" lon="7.35688">
        <ele>270</ele>
        <time>2018-04-24T07:53:24.000Z</time>
      </trkpt>
      <trkpt lat="43.81261" lon="7.35687">
        <ele>271</ele>
        <time>2018-04-24T07:53:29.000Z</time>
      </trkpt>
      <trkpt lat="43.81263" lon="7.35686">
        <ele>271</ele>
        <time>2018-04-24T07:53:30.000Z</time>
      </trkpt>
      <trkpt lat="43.81274" lon="7.35682">
        <ele>273</ele>
        <time>2018-04-24T07:53:35.000Z</time>
      </trkpt>
      <trkpt lat="43.81282" lon="7.35677">
        <ele>274</ele>
        <time>2018-04-24T07:53:39.000Z</time>
      </trkpt>
      <trkpt lat="43.81289" lon="7.35674">
        <ele>275</ele>
        <time>2018-04-24T07:53:42.000Z</time>
      </trkpt>
      <trkpt lat="43.81303" lon="7.35666">
        <ele>271</ele>
        <time>2018-04-24T07:53:49.000Z</time>
      </trkpt>
      <trkpt lat="43.81305" lon="7.35666">
        <ele>271</ele>
        <time>2018-04-24T07:53:50.000Z</time>
      </trkpt>
      <trkpt lat="43.81315" lon="7.35659">
        <ele>273</ele>
        <time>2018-04-24T07:53:55.000Z</time>
      </trkpt>
      <trkpt lat="43.81321" lon="7.35655">
        <ele>274</ele>
        <time>2018-04-24T07:53:58.000Z</time>
      </trkpt>
      <trkpt lat="43.81326" lon="7.35652">
        <ele>274</ele>
        <time>2018-04-24T07:54:01.000Z</time>
      </trkpt>
      <trkpt lat="43.81334" lon="7.35649">
        <ele>281</ele>
        <time>2018-04-24T07:54:05.000Z</time>
      </trkpt>
      <trkpt lat="43.81336" lon="7.35648">
        <ele>281</ele>
        <time>2018-04-24T07:54:06.000Z</time>
      </trkpt>
      <trkpt lat="43.81344" lon="7.35645">
        <ele>281</ele>
        <time>2018-04-24T07:54:10.000Z</time>
      </trkpt>
      <trkpt lat="43.8135" lon="7.35642">
        <ele>282</ele>
        <time>2018-04-24T07:54:13.000Z</time>
      </trkpt>
      <trkpt lat="43.81363" lon="7.35638">
        <ele>283</ele>
        <time>2018-04-24T07:54:19.000Z</time>
      </trkpt>
      <trkpt lat="43.81367" lon="7.35636">
        <ele>283</ele>
        <time>2018-04-24T07:54:21.000Z</time>
      </trkpt>
      <trkpt lat="43.81374" lon="7.35633">
        <ele>284</ele>
        <time>2018-04-24T07:54:24.000Z</time>
      </trkpt>
      <trkpt lat="43.81375" lon="7.35632">
        <ele>284</ele>
        <time>2018-04-24T07:54:25.000Z</time>
      </trkpt>
      <trkpt lat="43.81382" lon="7.35626">
        <ele>284</ele>
        <time>2018-04-24T07:54:28.000Z</time>
      </trkpt>
      <trkpt lat="43.81389" lon="7.35621">
        <ele>284</ele>
        <time>2018-04-24T07:54:31.000Z</time>
      </trkpt>
      <trkpt lat="43.81394" lon="7.35617">
        <ele>284</ele>
        <time>2018-04-24T07:54:34.000Z</time>
      </trkpt>
      <trkpt lat="43.81397" lon="7.35612">
        <ele>283</ele>
        <time>2018-04-24T07:54:36.000Z</time>
      </trkpt>
      <trkpt lat="43.81408" lon="7.35603">
        <ele>282</ele>
        <time>2018-04-24T07:54:41.000Z</time>
      </trkpt>
      <trkpt lat="43.81412" lon="7.35599">
        <ele>281</ele>
        <time>2018-04-24T07:54:43.000Z</time>
      </trkpt>
      <trkpt lat="43.81421" lon="7.35589">
        <ele>284</ele>
        <time>2018-04-24T07:54:48.000Z</time>
      </trkpt>
      <trkpt lat="43.81423" lon="7.35587">
        <ele>283</ele>
        <time>2018-04-24T07:54:49.000Z</time>
      </trkpt>
      <trkpt lat="43.81432" lon="7.35575">
        <ele>281</ele>
        <time>2018-04-24T07:54:55.000Z</time>
      </trkpt>
      <trkpt lat="43.81437" lon="7.3557">
        <ele>282</ele>
        <time>2018-04-24T07:54:58.000Z</time>
      </trkpt>
      <trkpt lat="43.81443" lon="7.35562">
        <ele>284</ele>
        <time>2018-04-24T07:55:02.000Z</time>
      </trkpt>
      <trkpt lat="43.8145" lon="7.35556">
        <ele>284</ele>
        <time>2018-04-24T07:55:06.000Z</time>
      </trkpt>
      <trkpt lat="43.81452" lon="7.35554">
        <ele>284</ele>
        <time>2018-04-24T07:55:07.000Z</time>
      </trkpt>
      <trkpt lat="43.81463" lon="7.35548">
        <ele>285</ele>
        <time>2018-04-24T07:55:12.000Z</time>
      </trkpt>
      <trkpt lat="43.81471" lon="7.35544">
        <ele>286</ele>
        <time>2018-04-24T07:55:16.000Z</time>
      </trkpt>
      <trkpt lat="43.81475" lon="7.35542">
        <ele>286</ele>
        <time>2018-04-24T07:55:18.000Z</time>
      </trkpt>
      <trkpt lat="43.81486" lon="7.35536">
        <ele>285</ele>
        <time>2018-04-24T07:55:23.000Z</time>
      </trkpt>
      <trkpt lat="43.8149" lon="7.35534">
        <ele>285</ele>
        <time>2018-04-24T07:55:25.000Z</time>
      </trkpt>
      <trkpt lat="43.81496" lon="7.35531">
        <ele>285</ele>
        <time>2018-04-24T07:55:28.000Z</time>
      </trkpt>
      <trkpt lat="43.81505" lon="7.35525">
        <ele>295</ele>
        <time>2018-04-24T07:55:32.000Z</time>
      </trkpt>
      <trkpt lat="43.81509" lon="7.35523">
        <ele>294</ele>
        <time>2018-04-24T07:55:34.000Z</time>
      </trkpt>
      <trkpt lat="43.81515" lon="7.3552">
        <ele>295</ele>
        <time>2018-04-24T07:55:37.000Z</time>
      </trkpt>
      <trkpt lat="43.81522" lon="7.35516">
        <ele>296</ele>
        <time>2018-04-24T07:55:41.000Z</time>
      </trkpt>
      <trkpt lat="43.81524" lon="7.35514">
        <ele>296</ele>
        <time>2018-04-24T07:55:42.000Z</time>
      </trkpt>
      <trkpt lat="43.81535" lon="7.35508">
        <ele>298</ele>
        <time>2018-04-24T07:55:48.000Z</time>
      </trkpt>
      <trkpt lat="43.81543" lon="7.35501">
        <ele>300</ele>
        <time>2018-04-24T07:55:52.000Z</time>
      </trkpt>
      <trkpt lat="43.81547" lon="7.35497">
        <ele>292</ele>
        <time>2018-04-24T07:55:54.000Z</time>
      </trkpt>
      <trkpt lat="43.81558" lon="7.35487">
        <ele>294</ele>
        <time>2018-04-24T07:56:00.000Z</time>
      </trkpt>
      <trkpt lat="43.81562" lon="7.35484">
        <ele>295</ele>
        <time>2018-04-24T07:56:02.000Z</time>
      </trkpt>
      <trkpt lat="43.81575" lon="7.35475">
        <ele>295</ele>
        <time>2018-04-24T07:56:08.000Z</time>
      </trkpt>
      <trkpt lat="43.81576" lon="7.35473">
        <ele>295</ele>
        <time>2018-04-24T07:56:09.000Z</time>
      </trkpt>
      <trkpt lat="43.81589" lon="7.35464">
        <ele>302</ele>
        <time>2018-04-24T07:56:15.000Z</time>
      </trkpt>
      <trkpt lat="43.81602" lon="7.35456">
        <ele>301</ele>
        <time>2018-04-24T07:56:21.000Z</time>
      </trkpt>
      <trkpt lat="43.81617" lon="7.35453">
        <ele>302</ele>
        <time>2018-04-24T07:56:27.000Z</time>
      </trkpt>
      <trkpt lat="43.81619" lon="7.35452">
        <ele>302</ele>
        <time>2018-04-24T07:56:28.000Z</time>
      </trkpt>
      <trkpt lat="43.81628" lon="7.35451">
        <ele>303</ele>
        <time>2018-04-24T07:56:32.000Z</time>
      </trkpt>
      <trkpt lat="43.8164" lon="7.35449">
        <ele>303</ele>
        <time>2018-04-24T07:56:37.000Z</time>
      </trkpt>
      <trkpt lat="43.81644" lon="7.35447">
        <ele>303</ele>
        <time>2018-04-24T07:56:39.000Z</time>
      </trkpt>
      <trkpt lat="43.81655" lon="7.35444">
        <ele>303</ele>
        <time>2018-04-24T07:56:44.000Z</time>
      </trkpt>
      <trkpt lat="43.81662" lon="7.35441">
        <ele>303</ele>
        <time>2018-04-24T07:56:48.000Z</time>
      </trkpt>
      <trkpt lat="43.81666" lon="7.35439">
        <ele>302</ele>
        <time>2018-04-24T07:56:50.000Z</time>
      </trkpt>
      <trkpt lat="43.81667" lon="7.35439">
        <ele>311</ele>
        <time>2018-04-24T07:56:53.000Z</time>
      </trkpt>
      <trkpt lat="43.81667" lon="7.35439">
        <ele>311</ele>
        <time>2018-04-24T07:57:01.000Z</time>
      </trkpt>
      <trkpt lat="43.81667" lon="7.35439">
        <ele>311</ele>
        <time>2018-04-24T07:57:04.000Z</time>
      </trkpt>
      <trkpt lat="43.81667" lon="7.35438">
        <ele>311</ele>
        <time>2018-04-24T07:57:14.000Z</time>
      </trkpt>
      <trkpt lat="43.81668" lon="7.35438">
        <ele>311</ele>
        <time>2018-04-24T07:57:21.000Z</time>
      </trkpt>
      <trkpt lat="43.81668" lon="7.35437">
        <ele>310</ele>
        <time>2018-04-24T07:57:28.000Z</time>
      </trkpt>
      <trkpt lat="43.81668" lon="7.35437">
        <ele>311</ele>
        <time>2018-04-24T07:57:40.000Z</time>
      </trkpt>
      <trkpt lat="43.81667" lon="7.35436">
        <ele>310</ele>
        <time>2018-04-24T07:57:46.000Z</time>
      </trkpt>
      <trkpt lat="43.81667" lon="7.35434">
        <ele>309</ele>
        <time>2018-04-24T07:57:53.000Z</time>
      </trkpt>
      <trkpt lat="43.81668" lon="7.35431">
        <ele>308</ele>
        <time>2018-04-24T07:57:59.000Z</time>
      </trkpt>
      <trkpt lat="43.81669" lon="7.3543">
        <ele>308</ele>
        <time>2018-04-24T07:58:00.000Z</time>
      </trkpt>
      <trkpt lat="43.81681" lon="7.35423">
        <ele>309</ele>
        <time>2018-04-24T07:58:08.000Z</time>
      </trkpt>
      <trkpt lat="43.81689" lon="7.3542">
        <ele>311</ele>
        <time>2018-04-24T07:58:12.000Z</time>
      </trkpt>
      <trkpt lat="43.81694" lon="7.35419">
        <ele>313</ele>
        <time>2018-04-24T07:58:14.000Z</time>
      </trkpt>
      <trkpt lat="43.81705" lon="7.35415">
        <ele>305</ele>
        <time>2018-04-24T07:58:19.000Z</time>
      </trkpt>
      <trkpt lat="43.8171" lon="7.35414">
        <ele>305</ele>
        <time>2018-04-24T07:58:21.000Z</time>
      </trkpt>
      <trkpt lat="43.81714" lon="7.35412">
        <ele>306</ele>
        <time>2018-04-24T07:58:23.000Z</time>
      </trkpt>
      <trkpt lat="43.81728" lon="7.35407">
        <ele>309</ele>
        <time>2018-04-24T07:58:29.000Z</time>
      </trkpt>
      <trkpt lat="43.81735" lon="7.35405">
        <ele>310</ele>
        <time>2018-04-24T07:58:32.000Z</time>
      </trkpt>
      <trkpt lat="43.81743" lon="7.35403">
        <ele>311</ele>
        <time>2018-04-24T07:58:35.000Z</time>
      </trkpt>
      <trkpt lat="43.81752" lon="7.35401">
        <ele>316</ele>
        <time>2018-04-24T07:58:39.000Z</time>
      </trkpt>
      <trkpt lat="43.81754" lon="7.35401">
        <ele>316</ele>
        <time>2018-04-24T07:58:40.000Z</time>
      </trkpt>
      <trkpt lat="43.81764" lon="7.35399">
        <ele>316</ele>
        <time>2018-04-24T07:58:45.000Z</time>
      </trkpt>
      <trkpt lat="43.8177" lon="7.35398">
        <ele>315</ele>
        <time>2018-04-24T07:58:48.000Z</time>
      </trkpt>
      <trkpt lat="43.81774" lon="7.35398">
        <ele>315</ele>
        <time>2018-04-24T07:58:50.000Z</time>
      </trkpt>
      <trkpt lat="43.8178" lon="7.35397">
        <ele>315</ele>
        <time>2018-04-24T07:58:53.000Z</time>
      </trkpt>
      <trkpt lat="43.81784" lon="7.35397">
        <ele>316</ele>
        <time>2018-04-24T07:58:55.000Z</time>
      </trkpt>
      <trkpt lat="43.81795" lon="7.35397">
        <ele>316</ele>
        <time>2018-04-24T07:59:00.000Z</time>
      </trkpt>
      <trkpt lat="43.81797" lon="7.35397">
        <ele>317</ele>
        <time>2018-04-24T07:59:01.000Z</time>
      </trkpt>
      <trkpt lat="43.81807" lon="7.35397">
        <ele>318</ele>
        <time>2018-04-24T07:59:06.000Z</time>
      </trkpt>
      <trkpt lat="43.81809" lon="7.35397">
        <ele>318</ele>
        <time>2018-04-24T07:59:07.000Z</time>
      </trkpt>
      <trkpt lat="43.8182" lon="7.35397">
        <ele>320</ele>
        <time>2018-04-24T07:59:12.000Z</time>
      </trkpt>
      <trkpt lat="43.81827" lon="7.35396">
        <ele>321</ele>
        <time>2018-04-24T07:59:15.000Z</time>
      </trkpt>
      <trkpt lat="43.81831" lon="7.35396">
        <ele>321</ele>
        <time>2018-04-24T07:59:17.000Z</time>
      </trkpt>
      <trkpt lat="43.81844" lon="7.35395">
        <ele>327</ele>
        <time>2018-04-24T07:59:23.000Z</time>
      </trkpt>
      <trkpt lat="43.81851" lon="7.35394">
        <ele>327</ele>
        <time>2018-04-24T07:59:26.000Z</time>
      </trkpt>
      <trkpt lat="43.81857" lon="7.35393">
        <ele>327</ele>
        <time>2018-04-24T07:59:29.000Z</time>
      </trkpt>
      <trkpt lat="43.81873" lon="7.35388">
        <ele>328</ele>
        <time>2018-04-24T07:59:36.000Z</time>
      </trkpt>
      <trkpt lat="43.81883" lon="7.35385">
        <ele>328</ele>
        <time>2018-04-24T07:59:40.000Z</time>
      </trkpt>
      <trkpt lat="43.81892" lon="7.35383">
        <ele>329</ele>
        <time>2018-04-24T07:59:44.000Z</time>
      </trkpt>
      <trkpt lat="43.81896" lon="7.35381">
        <ele>329</ele>
        <time>2018-04-24T07:59:46.000Z</time>
      </trkpt>
      <trkpt lat="43.81911" lon="7.35377">
        <ele>329</ele>
        <time>2018-04-24T07:59:52.000Z</time>
      </trkpt>
      <trkpt lat="43.81913" lon="7.35376">
        <ele>329</ele>
        <time>2018-04-24T07:59:53.000Z</time>
      </trkpt>
      <trkpt lat="43.81922" lon="7.35373">
        <ele>338</ele>
        <time>2018-04-24T07:59:57.000Z</time>
      </trkpt>
      <trkpt lat="43.81932" lon="7.35367">
        <ele>337</ele>
        <time>2018-04-24T08:00:02.000Z</time>
      </trkpt>
      <trkpt lat="43.81936" lon="7.35365">
        <ele>337</ele>
        <time>2018-04-24T08:00:04.000Z</time>
      </trkpt>
      <trkpt lat="43.81942" lon="7.35359">
        <ele>337</ele>
        <time>2018-04-24T08:00:07.000Z</time>
      </trkpt>
      <trkpt lat="43.81953" lon="7.35348">
        <ele>337</ele>
        <time>2018-04-24T08:00:13.000Z</time>
      </trkpt>
      <trkpt lat="43.81955" lon="7.35346">
        <ele>337</ele>
        <time>2018-04-24T08:00:14.000Z</time>
      </trkpt>
      <trkpt lat="43.81965" lon="7.35336">
        <ele>338</ele>
        <time>2018-04-24T08:00:19.000Z</time>
      </trkpt>
      <trkpt lat="43.81975" lon="7.35328">
        <ele>328</ele>
        <time>2018-04-24T08:00:24.000Z</time>
      </trkpt>
      <trkpt lat="43.81979" lon="7.35325">
        <ele>329</ele>
        <time>2018-04-24T08:00:26.000Z</time>
      </trkpt>
      <trkpt lat="43.81991" lon="7.35317">
        <ele>330</ele>
        <time>2018-04-24T08:00:32.000Z</time>
      </trkpt>
      <trkpt lat="43.82006" lon="7.35306">
        <ele>342</ele>
        <time>2018-04-24T08:00:39.000Z</time>
      </trkpt>
      <trkpt lat="43.82015" lon="7.353">
        <ele>343</ele>
        <time>2018-04-24T08:00:43.000Z</time>
      </trkpt>
      <trkpt lat="43.82017" lon="7.35299">
        <ele>343</ele>
        <time>2018-04-24T08:00:44.000Z</time>
      </trkpt>
      <trkpt lat="43.82023" lon="7.35293">
        <ele>343</ele>
        <time>2018-04-24T08:00:47.000Z</time>
      </trkpt>
      <trkpt lat="43.82031" lon="7.3528">
        <ele>343</ele>
        <time>2018-04-24T08:00:52.000Z</time>
      </trkpt>
      <trkpt lat="43.82034" lon="7.35275">
        <ele>343</ele>
        <time>2018-04-24T08:00:54.000Z</time>
      </trkpt>
      <trkpt lat="43.82043" lon="7.35253">
        <ele>344</ele>
        <time>2018-04-24T08:01:01.000Z</time>
      </trkpt>
      <trkpt lat="43.82043" lon="7.3525">
        <ele>338</ele>
        <time>2018-04-24T08:01:02.000Z</time>
      </trkpt>
      <trkpt lat="43.82045" lon="7.35231">
        <ele>337</ele>
        <time>2018-04-24T08:01:07.000Z</time>
      </trkpt>
      <trkpt lat="43.82046" lon="7.35224">
        <ele>337</ele>
        <time>2018-04-24T08:01:09.000Z</time>
      </trkpt>
      <trkpt lat="43.82052" lon="7.35211">
        <ele>337</ele>
        <time>2018-04-24T08:01:14.000Z</time>
      </trkpt>
      <trkpt lat="43.82053" lon="7.35212">
        <ele>337</ele>
        <time>2018-04-24T08:01:15.000Z</time>
      </trkpt>
      <trkpt lat="43.82054" lon="7.35216">
        <ele>338</ele>
        <time>2018-04-24T08:01:17.000Z</time>
      </trkpt>
      <trkpt lat="43.82054" lon="7.35222">
        <ele>338</ele>
        <time>2018-04-24T08:01:19.000Z</time>
      </trkpt>
      <trkpt lat="43.82054" lon="7.35224">
        <ele>338</ele>
        <time>2018-04-24T08:01:20.000Z</time>
      </trkpt>
      <trkpt lat="43.82053" lon="7.35233">
        <ele>339</ele>
        <time>2018-04-24T08:01:23.000Z</time>
      </trkpt>
      <trkpt lat="43.82052" lon="7.35245">
        <ele>340</ele>
        <time>2018-04-24T08:01:27.000Z</time>
      </trkpt>
      <trkpt lat="43.82052" lon="7.35251">
        <ele>346</ele>
        <time>2018-04-24T08:01:29.000Z</time>
      </trkpt>
      <trkpt lat="43.82051" lon="7.35263">
        <ele>346</ele>
        <time>2018-04-24T08:01:33.000Z</time>
      </trkpt>
      <trkpt lat="43.82048" lon="7.35281">
        <ele>346</ele>
        <time>2018-04-24T08:01:39.000Z</time>
      </trkpt>
      <trkpt lat="43.82047" lon="7.35284">
        <ele>346</ele>
        <time>2018-04-24T08:01:40.000Z</time>
      </trkpt>
      <trkpt lat="43.82043" lon="7.35295">
        <ele>346</ele>
        <time>2018-04-24T08:01:44.000Z</time>
      </trkpt>
      <trkpt lat="43.82038" lon="7.35311">
        <ele>347</ele>
        <time>2018-04-24T08:01:50.000Z</time>
      </trkpt>
      <trkpt lat="43.82037" lon="7.35314">
        <ele>347</ele>
        <time>2018-04-24T08:01:51.000Z</time>
      </trkpt>
      <trkpt lat="43.82033" lon="7.35325">
        <ele>346</ele>
        <time>2018-04-24T08:01:55.000Z</time>
      </trkpt>
      <trkpt lat="43.82028" lon="7.35343">
        <ele>356</ele>
        <time>2018-04-24T08:02:01.000Z</time>
      </trkpt>
      <trkpt lat="43.8202" lon="7.35367">
        <ele>359</ele>
        <time>2018-04-24T08:02:09.000Z</time>
      </trkpt>
      <trkpt lat="43.82017" lon="7.35376">
        <ele>360</ele>
        <time>2018-04-24T08:02:12.000Z</time>
      </trkpt>
      <trkpt lat="43.82012" lon="7.35387">
        <ele>362</ele>
        <time>2018-04-24T08:02:16.000Z</time>
      </trkpt>
      <trkpt lat="43.82011" lon="7.35397">
        <ele>363</ele>
        <time>2018-04-24T08:02:19.000Z</time>
      </trkpt>
      <trkpt lat="43.82012" lon="7.35402">
        <ele>363</ele>
        <time>2018-04-24T08:02:21.000Z</time>
      </trkpt>
      <trkpt lat="43.82016" lon="7.35405">
        <ele>363</ele>
        <time>2018-04-24T08:02:23.000Z</time>
      </trkpt>
      <trkpt lat="43.82021" lon="7.35405">
        <ele>364</ele>
        <time>2018-04-24T08:02:25.000Z</time>
      </trkpt>
      <trkpt lat="43.82025" lon="7.354">
        <ele>364</ele>
        <time>2018-04-24T08:02:27.000Z</time>
      </trkpt>
      <trkpt lat="43.82027" lon="7.35397">
        <ele>364</ele>
        <time>2018-04-24T08:02:28.000Z</time>
      </trkpt>
      <trkpt lat="43.82036" lon="7.35375">
        <ele>363</ele>
        <time>2018-04-24T08:02:34.000Z</time>
      </trkpt>
      <trkpt lat="43.82045" lon="7.35356">
        <ele>362</ele>
        <time>2018-04-24T08:02:40.000Z</time>
      </trkpt>
      <trkpt lat="43.82054" lon="7.35341">
        <ele>362</ele>
        <time>2018-04-24T08:02:45.000Z</time>
      </trkpt>
      <trkpt lat="43.82064" lon="7.3533">
        <ele>355</ele>
        <time>2018-04-24T08:02:50.000Z</time>
      </trkpt>
      <trkpt lat="43.82076" lon="7.35319">
        <ele>356</ele>
        <time>2018-04-24T08:02:56.000Z</time>
      </trkpt>
      <trkpt lat="43.82083" lon="7.35309">
        <ele>354</ele>
        <time>2018-04-24T08:03:00.000Z</time>
      </trkpt>
      <trkpt lat="43.82086" lon="7.35303">
        <ele>365</ele>
        <time>2018-04-24T08:03:02.000Z</time>
      </trkpt>
      <trkpt lat="43.82095" lon="7.35282">
        <ele>363</ele>
        <time>2018-04-24T08:03:09.000Z</time>
      </trkpt>
      <trkpt lat="43.82096" lon="7.35279">
        <ele>363</ele>
        <time>2018-04-24T08:03:10.000Z</time>
      </trkpt>
      <trkpt lat="43.82103" lon="7.35266">
        <ele>362</ele>
        <time>2018-04-24T08:03:15.000Z</time>
      </trkpt>
      <trkpt lat="43.82106" lon="7.35265">
        <ele>362</ele>
        <time>2018-04-24T08:03:16.000Z</time>
      </trkpt>
      <trkpt lat="43.82107" lon="7.35268">
        <ele>363</ele>
        <time>2018-04-24T08:03:17.000Z</time>
      </trkpt>
      <trkpt lat="43.82106" lon="7.35273">
        <ele>363</ele>
        <time>2018-04-24T08:03:19.000Z</time>
      </trkpt>
      <trkpt lat="43.82104" lon="7.35275">
        <ele>363</ele>
        <time>2018-04-24T08:03:20.000Z</time>
      </trkpt>
      <trkpt lat="43.82099" lon="7.35286">
        <ele>364</ele>
        <time>2018-04-24T08:03:24.000Z</time>
      </trkpt>
      <trkpt lat="43.82093" lon="7.353">
        <ele>365</ele>
        <time>2018-04-24T08:03:29.000Z</time>
      </trkpt>
      <trkpt lat="43.82091" lon="7.35305">
        <ele>366</ele>
        <time>2018-04-24T08:03:31.000Z</time>
      </trkpt>
      <trkpt lat="43.82082" lon="7.35325">
        <ele>360</ele>
        <time>2018-04-24T08:03:39.000Z</time>
      </trkpt>
      <trkpt lat="43.82078" lon="7.35344">
        <ele>365</ele>
        <time>2018-04-24T08:03:46.000Z</time>
      </trkpt>
      <trkpt lat="43.82078" lon="7.35345">
        <ele>365</ele>
        <time>2018-04-24T08:03:47.000Z</time>
      </trkpt>
      <trkpt lat="43.82085" lon="7.35346">
        <ele>374</ele>
        <time>2018-04-24T08:03:50.000Z</time>
      </trkpt>
      <trkpt lat="43.82094" lon="7.35337">
        <ele>374</ele>
        <time>2018-04-24T08:03:54.000Z</time>
      </trkpt>
      <trkpt lat="43.82097" lon="7.35332">
        <ele>367</ele>
        <time>2018-04-24T08:03:56.000Z</time>
      </trkpt>
      <trkpt lat="43.82113" lon="7.35314">
        <ele>368</ele>
        <time>2018-04-24T08:04:04.000Z</time>
      </trkpt>
      <trkpt lat="43.82117" lon="7.35309">
        <ele>368</ele>
        <time>2018-04-24T08:04:06.000Z</time>
      </trkpt>
      <trkpt lat="43.82126" lon="7.35303">
        <ele>368</ele>
        <time>2018-04-24T08:04:10.000Z</time>
      </trkpt>
      <trkpt lat="43.8213" lon="7.353">
        <ele>368</ele>
        <time>2018-04-24T08:04:12.000Z</time>
      </trkpt>
      <trkpt lat="43.82138" lon="7.35299">
        <ele>369</ele>
        <time>2018-04-24T08:04:15.000Z</time>
      </trkpt>
      <trkpt lat="43.82147" lon="7.35301">
        <ele>370</ele>
        <time>2018-04-24T08:04:18.000Z</time>
      </trkpt>
      <trkpt lat="43.82155" lon="7.35303">
        <ele>371</ele>
        <time>2018-04-24T08:04:21.000Z</time>
      </trkpt>
      <trkpt lat="43.82162" lon="7.35305">
        <ele>372</ele>
        <time>2018-04-24T08:04:24.000Z</time>
      </trkpt>
      <trkpt lat="43.82164" lon="7.35305">
        <ele>373</ele>
        <time>2018-04-24T08:04:25.000Z</time>
      </trkpt>
      <trkpt lat="43.82176" lon="7.35305">
        <ele>384</ele>
        <time>2018-04-24T08:04:31.000Z</time>
      </trkpt>
      <trkpt lat="43.8218" lon="7.35304">
        <ele>384</ele>
        <time>2018-04-24T08:04:33.000Z</time>
      </trkpt>
      <trkpt lat="43.82189" lon="7.353">
        <ele>385</ele>
        <time>2018-04-24T08:04:37.000Z</time>
      </trkpt>
      <trkpt lat="43.82198" lon="7.35294">
        <ele>385</ele>
        <time>2018-04-24T08:04:42.000Z</time>
      </trkpt>
      <trkpt lat="43.822" lon="7.35292">
        <ele>385</ele>
        <time>2018-04-24T08:04:43.000Z</time>
      </trkpt>
      <trkpt lat="43.82213" lon="7.35282">
        <ele>385</ele>
        <time>2018-04-24T08:04:50.000Z</time>
      </trkpt>
      <trkpt lat="43.82225" lon="7.35272">
        <ele>385</ele>
        <time>2018-04-24T08:04:56.000Z</time>
      </trkpt>
      <trkpt lat="43.8223" lon="7.35269">
        <ele>385</ele>
        <time>2018-04-24T08:04:58.000Z</time>
      </trkpt>
      <trkpt lat="43.82238" lon="7.35262">
        <ele>384</ele>
        <time>2018-04-24T08:05:02.000Z</time>
      </trkpt>
      <trkpt lat="43.82239" lon="7.3526">
        <ele>384</ele>
        <time>2018-04-24T08:05:03.000Z</time>
      </trkpt>
      <trkpt lat="43.82251" lon="7.3525">
        <ele>383</ele>
        <time>2018-04-24T08:05:09.000Z</time>
      </trkpt>
      <trkpt lat="43.82253" lon="7.35248">
        <ele>383</ele>
        <time>2018-04-24T08:05:10.000Z</time>
      </trkpt>
      <trkpt lat="43.82264" lon="7.35242">
        <ele>382</ele>
        <time>2018-04-24T08:05:15.000Z</time>
      </trkpt>
      <trkpt lat="43.82273" lon="7.35238">
        <ele>383</ele>
        <time>2018-04-24T08:05:19.000Z</time>
      </trkpt>
      <trkpt lat="43.8228" lon="7.35235">
        <ele>383</ele>
        <time>2018-04-24T08:05:22.000Z</time>
      </trkpt>
      <trkpt lat="43.82287" lon="7.35231">
        <ele>384</ele>
        <time>2018-04-24T08:05:25.000Z</time>
      </trkpt>
      <trkpt lat="43.82291" lon="7.35229">
        <ele>384</ele>
        <time>2018-04-24T08:05:27.000Z</time>
      </trkpt>
      <trkpt lat="43.82304" lon="7.35223">
        <ele>385</ele>
        <time>2018-04-24T08:05:33.000Z</time>
      </trkpt>
      <trkpt lat="43.82306" lon="7.35222">
        <ele>386</ele>
        <time>2018-04-24T08:05:34.000Z</time>
      </trkpt>
      <trkpt lat="43.82319" lon="7.35217">
        <ele>386</ele>
        <time>2018-04-24T08:05:40.000Z</time>
      </trkpt>
      <trkpt lat="43.82328" lon="7.35213">
        <ele>386</ele>
        <time>2018-04-24T08:05:44.000Z</time>
      </trkpt>
      <trkpt lat="43.82332" lon="7.35211">
        <ele>386</ele>
        <time>2018-04-24T08:05:46.000Z</time>
      </trkpt>
      <trkpt lat="43.82347" lon="7.35207">
        <ele>396</ele>
        <time>2018-04-24T08:05:53.000Z</time>
      </trkpt>
      <trkpt lat="43.8236" lon="7.35206">
        <ele>397</ele>
        <time>2018-04-24T08:05:59.000Z</time>
      </trkpt>
      <trkpt lat="43.82364" lon="7.35207">
        <ele>397</ele>
        <time>2018-04-24T08:06:01.000Z</time>
      </trkpt>
      <trkpt lat="43.82374" lon="7.35207">
        <ele>398</ele>
        <time>2018-04-24T08:06:06.000Z</time>
      </trkpt>
      <trkpt lat="43.8238" lon="7.35207">
        <ele>398</ele>
        <time>2018-04-24T08:06:09.000Z</time>
      </trkpt>
      <trkpt lat="43.82389" lon="7.35205">
        <ele>399</ele>
        <time>2018-04-24T08:06:13.000Z</time>
      </trkpt>
      <trkpt lat="43.82405" lon="7.35203">
        <ele>399</ele>
        <time>2018-04-24T08:06:20.000Z</time>
      </trkpt>
      <trkpt lat="43.82424" lon="7.35199">
        <ele>409</ele>
        <time>2018-04-24T08:06:28.000Z</time>
      </trkpt>
      <trkpt lat="43.82438" lon="7.35191">
        <ele>408</ele>
        <time>2018-04-24T08:06:34.000Z</time>
      </trkpt>
      <trkpt lat="43.8244" lon="7.35189">
        <ele>408</ele>
        <time>2018-04-24T08:06:35.000Z</time>
      </trkpt>
      <trkpt lat="43.82447" lon="7.3518">
        <ele>408</ele>
        <time>2018-04-24T08:06:39.000Z</time>
      </trkpt>
      <trkpt lat="43.82453" lon="7.3517">
        <ele>409</ele>
        <time>2018-04-24T08:06:43.000Z</time>
      </trkpt>
      <trkpt lat="43.8246" lon="7.35159">
        <ele>395</ele>
        <time>2018-04-24T08:06:47.000Z</time>
      </trkpt>
      <trkpt lat="43.82471" lon="7.35141">
        <ele>395</ele>
        <time>2018-04-24T08:06:54.000Z</time>
      </trkpt>
      <trkpt lat="43.82483" lon="7.35124">
        <ele>395</ele>
        <time>2018-04-24T08:07:01.000Z</time>
      </trkpt>
      <trkpt lat="43.82485" lon="7.35122">
        <ele>395</ele>
        <time>2018-04-24T08:07:02.000Z</time>
      </trkpt>
      <trkpt lat="43.82494" lon="7.35115">
        <ele>395</ele>
        <time>2018-04-24T08:07:06.000Z</time>
      </trkpt>
      <trkpt lat="43.82506" lon="7.35107">
        <ele>407</ele>
        <time>2018-04-24T08:07:12.000Z</time>
      </trkpt>
      <trkpt lat="43.82508" lon="7.35106">
        <ele>407</ele>
        <time>2018-04-24T08:07:13.000Z</time>
      </trkpt>
      <trkpt lat="43.82521" lon="7.35098">
        <ele>408</ele>
        <time>2018-04-24T08:07:19.000Z</time>
      </trkpt>
      <trkpt lat="43.82527" lon="7.35096">
        <ele>409</ele>
        <time>2018-04-24T08:07:22.000Z</time>
      </trkpt>
      <trkpt lat="43.82534" lon="7.35092">
        <ele>410</ele>
        <time>2018-04-24T08:07:25.000Z</time>
      </trkpt>
      <trkpt lat="43.82548" lon="7.35084">
        <ele>412</ele>
        <time>2018-04-24T08:07:32.000Z</time>
      </trkpt>
      <trkpt lat="43.8255" lon="7.35083">
        <ele>400</ele>
        <time>2018-04-24T08:07:33.000Z</time>
      </trkpt>
      <trkpt lat="43.82565" lon="7.35074">
        <ele>403</ele>
        <time>2018-04-24T08:07:39.000Z</time>
      </trkpt>
      <trkpt lat="43.82576" lon="7.35068">
        <ele>405</ele>
        <time>2018-04-24T08:07:44.000Z</time>
      </trkpt>
      <trkpt lat="43.82588" lon="7.35063">
        <ele>412</ele>
        <time>2018-04-24T08:07:49.000Z</time>
      </trkpt>
      <trkpt lat="43.8259" lon="7.35062">
        <ele>412</ele>
        <time>2018-04-24T08:07:50.000Z</time>
      </trkpt>
      <trkpt lat="43.82604" lon="7.35056">
        <ele>412</ele>
        <time>2018-04-24T08:07:56.000Z</time>
      </trkpt>
      <trkpt lat="43.82608" lon="7.35054">
        <ele>412</ele>
        <time>2018-04-24T08:07:58.000Z</time>
      </trkpt>
      <trkpt lat="43.82616" lon="7.35051">
        <ele>413</ele>
        <time>2018-04-24T08:08:01.000Z</time>
      </trkpt>
      <trkpt lat="43.82625" lon="7.35049">
        <ele>413</ele>
        <time>2018-04-24T08:08:05.000Z</time>
      </trkpt>
      <trkpt lat="43.82627" lon="7.35048">
        <ele>413</ele>
        <time>2018-04-24T08:08:06.000Z</time>
      </trkpt>
      <trkpt lat="43.82632" lon="7.35048">
        <ele>414</ele>
        <time>2018-04-24T08:08:11.000Z</time>
      </trkpt>
      <trkpt lat="43.82633" lon="7.35047">
        <ele>414</ele>
        <time>2018-04-24T08:08:12.000Z</time>
      </trkpt>
      <trkpt lat="43.82632" lon="7.35046">
        <ele>414</ele>
        <time>2018-04-24T08:08:21.000Z</time>
      </trkpt>
      <trkpt lat="43.82631" lon="7.35044">
        <ele>413</ele>
        <time>2018-04-24T08:08:36.000Z</time>
      </trkpt>
      <trkpt lat="43.82631" lon="7.35042">
        <ele>413</ele>
        <time>2018-04-24T08:08:47.000Z</time>
      </trkpt>
      <trkpt lat="43.8263" lon="7.35041">
        <ele>413</ele>
        <time>2018-04-24T08:09:01.000Z</time>
      </trkpt>
      <trkpt lat="43.8263" lon="7.35038">
        <ele>413</ele>
        <time>2018-04-24T08:09:24.000Z</time>
      </trkpt>
      <trkpt lat="43.82628" lon="7.35038">
        <ele>413</ele>
        <time>2018-04-24T08:09:38.000Z</time>
      </trkpt>
      <trkpt lat="43.82629" lon="7.3504">
        <ele>413</ele>
        <time>2018-04-24T08:09:52.000Z</time>
      </trkpt>
      <trkpt lat="43.82629" lon="7.35041">
        <ele>413</ele>
        <time>2018-04-24T08:10:07.000Z</time>
      </trkpt>
      <trkpt lat="43.82629" lon="7.35042">
        <ele>413</ele>
        <time>2018-04-24T08:10:40.000Z</time>
      </trkpt>
      <trkpt lat="43.82629" lon="7.3504">
        <ele>413</ele>
        <time>2018-04-24T08:10:58.000Z</time>
      </trkpt>
      <trkpt lat="43.82632" lon="7.35038">
        <ele>413</ele>
        <time>2018-04-24T08:11:01.000Z</time>
      </trkpt>
      <trkpt lat="43.82634" lon="7.35038">
        <ele>413</ele>
        <time>2018-04-24T08:11:03.000Z</time>
      </trkpt>
      <trkpt lat="43.82642" lon="7.35039">
        <ele>414</ele>
        <time>2018-04-24T08:11:09.000Z</time>
      </trkpt>
      <trkpt lat="43.82646" lon="7.35039">
        <ele>414</ele>
        <time>2018-04-24T08:11:11.000Z</time>
      </trkpt>
      <trkpt lat="43.82652" lon="7.35041">
        <ele>415</ele>
        <time>2018-04-24T08:11:15.000Z</time>
      </trkpt>
      <trkpt lat="43.82661" lon="7.35043">
        <ele>416</ele>
        <time>2018-04-24T08:11:20.000Z</time>
      </trkpt>
      <trkpt lat="43.82667" lon="7.35046">
        <ele>420</ele>
        <time>2018-04-24T08:11:23.000Z</time>
      </trkpt>
      <trkpt lat="43.82684" lon="7.35051">
        <ele>420</ele>
        <time>2018-04-24T08:11:28.000Z</time>
      </trkpt>
      <trkpt lat="43.82689" lon="7.35052">
        <ele>420</ele>
        <time>2018-04-24T08:11:29.000Z</time>
      </trkpt>
      <trkpt lat="43.82704" lon="7.35056">
        <ele>419</ele>
        <time>2018-04-24T08:11:32.000Z</time>
      </trkpt>
      <trkpt lat="43.82708" lon="7.35056">
        <ele>419</ele>
        <time>2018-04-24T08:11:33.000Z</time>
      </trkpt>
      <trkpt lat="43.82713" lon="7.35057">
        <ele>419</ele>
        <time>2018-04-24T08:11:34.000Z</time>
      </trkpt>
      <trkpt lat="43.82728" lon="7.3506">
        <ele>418</ele>
        <time>2018-04-24T08:11:37.000Z</time>
      </trkpt>
      <trkpt lat="43.82743" lon="7.35062">
        <ele>418</ele>
        <time>2018-04-24T08:11:40.000Z</time>
      </trkpt>
      <trkpt lat="43.82748" lon="7.35062">
        <ele>418</ele>
        <time>2018-04-24T08:11:41.000Z</time>
      </trkpt>
      <trkpt lat="43.82758" lon="7.35063">
        <ele>415</ele>
        <time>2018-04-24T08:11:43.000Z</time>
      </trkpt>
      <trkpt lat="43.82777" lon="7.35065">
        <ele>415</ele>
        <time>2018-04-24T08:11:47.000Z</time>
      </trkpt>
      <trkpt lat="43.82789" lon="7.35065">
        <ele>414</ele>
        <time>2018-04-24T08:11:49.000Z</time>
      </trkpt>
      <trkpt lat="43.82795" lon="7.35065">
        <ele>414</ele>
        <time>2018-04-24T08:11:50.000Z</time>
      </trkpt>
      <trkpt lat="43.82807" lon="7.35066">
        <ele>413</ele>
        <time>2018-04-24T08:11:52.000Z</time>
      </trkpt>
      <trkpt lat="43.82812" lon="7.35065">
        <ele>413</ele>
        <time>2018-04-24T08:11:53.000Z</time>
      </trkpt>
      <trkpt lat="43.82819" lon="7.35064">
        <ele>412</ele>
        <time>2018-04-24T08:11:54.000Z</time>
      </trkpt>
      <trkpt lat="43.82825" lon="7.35063">
        <ele>412</ele>
        <time>2018-04-24T08:11:55.000Z</time>
      </trkpt>
      <trkpt lat="43.82837" lon="7.35061">
        <ele>409</ele>
        <time>2018-04-24T08:11:57.000Z</time>
      </trkpt>
      <trkpt lat="43.82849" lon="7.3506">
        <ele>409</ele>
        <time>2018-04-24T08:11:59.000Z</time>
      </trkpt>
      <trkpt lat="43.8286" lon="7.3506">
        <ele>409</ele>
        <time>2018-04-24T08:12:01.000Z</time>
      </trkpt>
      <trkpt lat="43.82864" lon="7.3506">
        <ele>409</ele>
        <time>2018-04-24T08:12:02.000Z</time>
      </trkpt>
      <trkpt lat="43.82878" lon="7.35061">
        <ele>409</ele>
        <time>2018-04-24T08:12:05.000Z</time>
      </trkpt>
      <trkpt lat="43.82903" lon="7.35062">
        <ele>407</ele>
        <time>2018-04-24T08:12:09.000Z</time>
      </trkpt>
      <trkpt lat="43.8291" lon="7.35062">
        <ele>407</ele>
        <time>2018-04-24T08:12:10.000Z</time>
      </trkpt>
      <trkpt lat="43.82918" lon="7.35061">
        <ele>402</ele>
        <time>2018-04-24T08:12:11.000Z</time>
      </trkpt>
      <trkpt lat="43.82935" lon="7.35061">
        <ele>402</ele>
        <time>2018-04-24T08:12:13.000Z</time>
      </trkpt>
      <trkpt lat="43.82944" lon="7.35062">
        <ele>401</ele>
        <time>2018-04-24T08:12:14.000Z</time>
      </trkpt>
      <trkpt lat="43.82963" lon="7.35065">
        <ele>400</ele>
        <time>2018-04-24T08:12:16.000Z</time>
      </trkpt>
      <trkpt lat="43.82973" lon="7.35071">
        <ele>399</ele>
        <time>2018-04-24T08:12:17.000Z</time>
      </trkpt>
      <trkpt lat="43.82982" lon="7.35076">
        <ele>397</ele>
        <time>2018-04-24T08:12:18.000Z</time>
      </trkpt>
      <trkpt lat="43.82992" lon="7.35082">
        <ele>394</ele>
        <time>2018-04-24T08:12:19.000Z</time>
      </trkpt>
      <trkpt lat="43.83002" lon="7.35088">
        <ele>393</ele>
        <time>2018-04-24T08:12:20.000Z</time>
      </trkpt>
      <trkpt lat="43.83012" lon="7.35095">
        <ele>394</ele>
        <time>2018-04-24T08:12:21.000Z</time>
      </trkpt>
      <trkpt lat="43.83032" lon="7.35108">
        <ele>396</ele>
        <time>2018-04-24T08:12:23.000Z</time>
      </trkpt>
      <trkpt lat="43.83053" lon="7.35122">
        <ele>396</ele>
        <time>2018-04-24T08:12:25.000Z</time>
      </trkpt>
      <trkpt lat="43.83073" lon="7.35137">
        <ele>394</ele>
        <time>2018-04-24T08:12:27.000Z</time>
      </trkpt>
      <trkpt lat="43.83093" lon="7.35151">
        <ele>395</ele>
        <time>2018-04-24T08:12:29.000Z</time>
      </trkpt>
      <trkpt lat="43.83103" lon="7.35159">
        <ele>395</ele>
        <time>2018-04-24T08:12:30.000Z</time>
      </trkpt>
      <trkpt lat="43.83123" lon="7.35176">
        <ele>391</ele>
        <time>2018-04-24T08:12:32.000Z</time>
      </trkpt>
      <trkpt lat="43.83143" lon="7.35194">
        <ele>391</ele>
        <time>2018-04-24T08:12:34.000Z</time>
      </trkpt>
      <trkpt lat="43.83165" lon="7.3521">
        <ele>389</ele>
        <time>2018-04-24T08:12:36.000Z</time>
      </trkpt>
      <trkpt lat="43.83176" lon="7.35218">
        <ele>389</ele>
        <time>2018-04-24T08:12:37.000Z</time>
      </trkpt>
      <trkpt lat="43.83185" lon="7.35226">
        <ele>388</ele>
        <time>2018-04-24T08:12:38.000Z</time>
      </trkpt>
      <trkpt lat="43.83196" lon="7.35235">
        <ele>388</ele>
        <time>2018-04-24T08:12:39.000Z</time>
      </trkpt>
      <trkpt lat="43.83214" lon="7.35254">
        <ele>381</ele>
        <time>2018-04-24T08:12:41.000Z</time>
      </trkpt>
      <trkpt lat="43.83223" lon="7.35265">
        <ele>381</ele>
        <time>2018-04-24T08:12:42.000Z</time>
      </trkpt>
      <trkpt lat="43.83238" lon="7.35285">
        <ele>380</ele>
        <time>2018-04-24T08:12:44.000Z</time>
      </trkpt>
      <trkpt lat="43.83253" lon="7.35306">
        <ele>380</ele>
        <time>2018-04-24T08:12:46.000Z</time>
      </trkpt>
      <trkpt lat="43.83267" lon="7.35326">
        <ele>378</ele>
        <time>2018-04-24T08:12:48.000Z</time>
      </trkpt>
      <trkpt lat="43.83276" lon="7.35337">
        <ele>375</ele>
        <time>2018-04-24T08:12:49.000Z</time>
      </trkpt>
      <trkpt lat="43.83291" lon="7.35356">
        <ele>375</ele>
        <time>2018-04-24T08:12:51.000Z</time>
      </trkpt>
      <trkpt lat="43.83298" lon="7.35363">
        <ele>375</ele>
        <time>2018-04-24T08:12:52.000Z</time>
      </trkpt>
      <trkpt lat="43.83306" lon="7.3537">
        <ele>375</ele>
        <time>2018-04-24T08:12:53.000Z</time>
      </trkpt>
      <trkpt lat="43.83334" lon="7.35389">
        <ele>374</ele>
        <time>2018-04-24T08:12:56.000Z</time>
      </trkpt>
      <trkpt lat="43.83342" lon="7.35395">
        <ele>373</ele>
        <time>2018-04-24T08:12:57.000Z</time>
      </trkpt>
      <trkpt lat="43.8337" lon="7.35414">
        <ele>373</ele>
        <time>2018-04-24T08:13:00.000Z</time>
      </trkpt>
      <trkpt lat="43.83385" lon="7.35426">
        <ele>364</ele>
        <time>2018-04-24T08:13:02.000Z</time>
      </trkpt>
      <trkpt lat="43.83399" lon="7.35434">
        <ele>364</ele>
        <time>2018-04-24T08:13:04.000Z</time>
      </trkpt>
      <trkpt lat="43.83408" lon="7.35435">
        <ele>364</ele>
        <time>2018-04-24T08:13:05.000Z</time>
      </trkpt>
      <trkpt lat="43.83417" lon="7.35434">
        <ele>362</ele>
        <time>2018-04-24T08:13:06.000Z</time>
      </trkpt>
      <trkpt lat="43.83432" lon="7.35426">
        <ele>361</ele>
        <time>2018-04-24T08:13:08.000Z</time>
      </trkpt>
      <trkpt lat="43.83446" lon="7.35416">
        <ele>368</ele>
        <time>2018-04-24T08:13:10.000Z</time>
      </trkpt>
      <trkpt lat="43.83475" lon="7.35386">
        <ele>368</ele>
        <time>2018-04-24T08:13:15.000Z</time>
      </trkpt>
      <trkpt lat="43.83491" lon="7.3537">
        <ele>369</ele>
        <time>2018-04-24T08:13:18.000Z</time>
      </trkpt>
      <trkpt lat="43.83506" lon="7.3535">
        <ele>363</ele>
        <time>2018-04-24T08:13:21.000Z</time>
      </trkpt>
      <trkpt lat="43.83516" lon="7.35338">
        <ele>363</ele>
        <time>2018-04-24T08:13:23.000Z</time>
      </trkpt>
      <trkpt lat="43.83527" lon="7.35329">
        <ele>368</ele>
        <time>2018-04-24T08:13:25.000Z</time>
      </trkpt>
      <trkpt lat="43.83541" lon="7.35331">
        <ele>366</ele>
        <time>2018-04-24T08:13:28.000Z</time>
      </trkpt>
      <trkpt lat="43.83546" lon="7.35337">
        <ele>358</ele>
        <time>2018-04-24T08:13:29.000Z</time>
      </trkpt>
      <trkpt lat="43.83554" lon="7.35347">
        <ele>357</ele>
        <time>2018-04-24T08:13:31.000Z</time>
      </trkpt>
      <trkpt lat="43.83557" lon="7.35353">
        <ele>357</ele>
        <time>2018-04-24T08:13:32.000Z</time>
      </trkpt>
      <trkpt lat="43.83567" lon="7.35371">
        <ele>356</ele>
        <time>2018-04-24T08:13:35.000Z</time>
      </trkpt>
      <trkpt lat="43.83602" lon="7.35436">
        <ele>355</ele>
        <time>2018-04-24T08:13:45.000Z</time>
      </trkpt>
      <trkpt lat="43.83617" lon="7.35461">
        <ele>357</ele>
        <time>2018-04-24T08:13:49.000Z</time>
      </trkpt>
      <trkpt lat="43.83636" lon="7.35492">
        <ele>360</ele>
        <time>2018-04-24T08:13:55.000Z</time>
      </trkpt>
      <trkpt lat="43.83638" lon="7.35494">
        <ele>360</ele>
        <time>2018-04-24T08:13:56.000Z</time>
      </trkpt>
      <trkpt lat="43.83639" lon="7.35497">
        <ele>360</ele>
        <time>2018-04-24T08:13:58.000Z</time>
      </trkpt>
      <trkpt lat="43.83638" lon="7.35498">
        <ele>360</ele>
        <time>2018-04-24T08:14:02.000Z</time>
      </trkpt>
      <trkpt lat="43.83637" lon="7.35497">
        <ele>360</ele>
        <time>2018-04-24T08:14:10.000Z</time>
      </trkpt>
      <trkpt lat="43.83636" lon="7.35496">
        <ele>360</ele>
        <time>2018-04-24T08:14:11.000Z</time>
      </trkpt>
      <trkpt lat="43.83634" lon="7.35493">
        <ele>360</ele>
        <time>2018-04-24T08:14:14.000Z</time>
      </trkpt>
      <trkpt lat="43.83632" lon="7.3549">
        <ele>359</ele>
        <time>2018-04-24T08:14:24.000Z</time>
      </trkpt>
      <trkpt lat="43.83633" lon="7.35489">
        <ele>359</ele>
        <time>2018-04-24T08:14:31.000Z</time>
      </trkpt>
      <trkpt lat="43.83633" lon="7.35487">
        <ele>359</ele>
        <time>2018-04-24T08:14:37.000Z</time>
      </trkpt>
      <trkpt lat="43.83634" lon="7.35486">
        <ele>359</ele>
        <time>2018-04-24T08:14:39.000Z</time>
      </trkpt>
      <trkpt lat="43.83633" lon="7.35481">
        <ele>359</ele>
        <time>2018-04-24T08:14:52.000Z</time>
      </trkpt>
      <trkpt lat="43.83634" lon="7.35481">
        <ele>359</ele>
        <time>2018-04-24T08:15:00.000Z</time>
      </trkpt>
      <trkpt lat="43.83638" lon="7.35483">
        <ele>360</ele>
        <time>2018-04-24T08:15:10.000Z</time>
      </trkpt>
      <trkpt lat="43.8364" lon="7.35488">
        <ele>360</ele>
        <time>2018-04-24T08:15:15.000Z</time>
      </trkpt>
      <trkpt lat="43.83642" lon="7.35485">
        <ele>360</ele>
        <time>2018-04-24T08:15:23.000Z</time>
      </trkpt>
      <trkpt lat="43.83644" lon="7.35484">
        <ele>360</ele>
        <time>2018-04-24T08:15:28.000Z</time>
      </trkpt>
      <trkpt lat="43.83645" lon="7.35484">
        <ele>360</ele>
        <time>2018-04-24T08:15:31.000Z</time>
      </trkpt>
      <trkpt lat="43.83648" lon="7.35485">
        <ele>361</ele>
        <time>2018-04-24T08:15:34.000Z</time>
      </trkpt>
      <trkpt lat="43.83653" lon="7.35487">
        <ele>362</ele>
        <time>2018-04-24T08:15:36.000Z</time>
      </trkpt>
      <trkpt lat="43.83669" lon="7.35493">
        <ele>367</ele>
        <time>2018-04-24T08:15:42.000Z</time>
      </trkpt>
      <trkpt lat="43.83691" lon="7.35503">
        <ele>365</ele>
        <time>2018-04-24T08:15:49.000Z</time>
      </trkpt>
      <trkpt lat="43.83695" lon="7.35504">
        <ele>365</ele>
        <time>2018-04-24T08:15:50.000Z</time>
      </trkpt>
      <trkpt lat="43.83713" lon="7.35509">
        <ele>366</ele>
        <time>2018-04-24T08:15:55.000Z</time>
      </trkpt>
      <trkpt lat="43.83725" lon="7.35509">
        <ele>367</ele>
        <time>2018-04-24T08:15:59.000Z</time>
      </trkpt>
      <trkpt lat="43.83731" lon="7.35507">
        <ele>368</ele>
        <time>2018-04-24T08:16:01.000Z</time>
      </trkpt>
      <trkpt lat="43.83742" lon="7.35496">
        <ele>374</ele>
        <time>2018-04-24T08:16:06.000Z</time>
      </trkpt>
      <trkpt lat="43.83743" lon="7.35494">
        <ele>374</ele>
        <time>2018-04-24T08:16:07.000Z</time>
      </trkpt>
      <trkpt lat="43.83747" lon="7.35475">
        <ele>373</ele>
        <time>2018-04-24T08:16:12.000Z</time>
      </trkpt>
      <trkpt lat="43.83749" lon="7.35459">
        <ele>373</ele>
        <time>2018-04-24T08:16:16.000Z</time>
      </trkpt>
      <trkpt lat="43.8375" lon="7.35453">
        <ele>374</ele>
        <time>2018-04-24T08:16:18.000Z</time>
      </trkpt>
      <trkpt lat="43.83754" lon="7.3544">
        <ele>381</ele>
        <time>2018-04-24T08:16:22.000Z</time>
      </trkpt>
      <trkpt lat="43.83756" lon="7.35435">
        <ele>381</ele>
        <time>2018-04-24T08:16:23.000Z</time>
      </trkpt>
      <trkpt lat="43.83754" lon="7.35395">
        <ele>381</ele>
        <time>2018-04-24T08:16:32.000Z</time>
      </trkpt>
      <trkpt lat="43.83755" lon="7.35385">
        <ele>380</ele>
        <time>2018-04-24T08:16:34.000Z</time>
      </trkpt>
      <trkpt lat="43.83749" lon="7.35382">
        <ele>371</ele>
        <time>2018-04-24T08:16:35.000Z</time>
      </trkpt>
      <trkpt lat="43.83746" lon="7.35379">
        <ele>370</ele>
        <time>2018-04-24T08:16:36.000Z</time>
      </trkpt>
      <trkpt lat="43.83744" lon="7.35363">
        <ele>369</ele>
        <time>2018-04-24T08:16:41.000Z</time>
      </trkpt>
      <trkpt lat="43.83754" lon="7.35343">
        <ele>375</ele>
        <time>2018-04-24T08:16:47.000Z</time>
      </trkpt>
      <trkpt lat="43.83757" lon="7.35337">
        <ele>375</ele>
        <time>2018-04-24T08:16:49.000Z</time>
      </trkpt>
      <trkpt lat="43.83765" lon="7.35328">
        <ele>372</ele>
        <time>2018-04-24T08:16:53.000Z</time>
      </trkpt>
      <trkpt lat="43.83769" lon="7.35322">
        <ele>372</ele>
        <time>2018-04-24T08:16:55.000Z</time>
      </trkpt>
      <trkpt lat="43.83778" lon="7.35311">
        <ele>373</ele>
        <time>2018-04-24T08:16:59.000Z</time>
      </trkpt>
      <trkpt lat="43.83789" lon="7.35297">
        <ele>373</ele>
        <time>2018-04-24T08:17:05.000Z</time>
      </trkpt>
      <trkpt lat="43.83791" lon="7.35294">
        <ele>373</ele>
        <time>2018-04-24T08:17:06.000Z</time>
      </trkpt>
      <trkpt lat="43.83801" lon="7.35282">
        <ele>373</ele>
        <time>2018-04-24T08:17:11.000Z</time>
      </trkpt>
      <trkpt lat="43.83812" lon="7.35272">
        <ele>373</ele>
        <time>2018-04-24T08:17:16.000Z</time>
      </trkpt>
      <trkpt lat="43.83814" lon="7.35269">
        <ele>373</ele>
        <time>2018-04-24T08:17:17.000Z</time>
      </trkpt>
      <trkpt lat="43.83829" lon="7.35255">
        <ele>375</ele>
        <time>2018-04-24T08:17:24.000Z</time>
      </trkpt>
      <trkpt lat="43.83837" lon="7.35248">
        <ele>376</ele>
        <time>2018-04-24T08:17:28.000Z</time>
      </trkpt>
      <trkpt lat="43.83842" lon="7.35245">
        <ele>376</ele>
        <time>2018-04-24T08:17:30.000Z</time>
      </trkpt>
      <trkpt lat="43.83849" lon="7.3524">
        <ele>376</ele>
        <time>2018-04-24T08:17:33.000Z</time>
      </trkpt>
      <trkpt lat="43.83856" lon="7.35231">
        <ele>376</ele>
        <time>2018-04-24T08:17:37.000Z</time>
      </trkpt>
      <trkpt lat="43.8386" lon="7.35227">
        <ele>376</ele>
        <time>2018-04-24T08:17:39.000Z</time>
      </trkpt>
      <trkpt lat="43.83871" lon="7.35217">
        <ele>376</ele>
        <time>2018-04-24T08:17:44.000Z</time>
      </trkpt>
      <trkpt lat="43.8388" lon="7.35209">
        <ele>377</ele>
        <time>2018-04-24T08:17:49.000Z</time>
      </trkpt>
      <trkpt lat="43.83882" lon="7.35207">
        <ele>377</ele>
        <time>2018-04-24T08:17:50.000Z</time>
      </trkpt>
      <trkpt lat="43.83896" lon="7.35196">
        <ele>377</ele>
        <time>2018-04-24T08:17:56.000Z</time>
      </trkpt>
      <trkpt lat="43.83899" lon="7.35192">
        <ele>377</ele>
        <time>2018-04-24T08:17:58.000Z</time>
      </trkpt>
      <trkpt lat="43.83907" lon="7.35185">
        <ele>378</ele>
        <time>2018-04-24T08:18:02.000Z</time>
      </trkpt>
      <trkpt lat="43.83908" lon="7.35183">
        <ele>378</ele>
        <time>2018-04-24T08:18:03.000Z</time>
      </trkpt>
      <trkpt lat="43.83917" lon="7.35175">
        <ele>381</ele>
        <time>2018-04-24T08:18:07.000Z</time>
      </trkpt>
      <trkpt lat="43.83921" lon="7.35171">
        <ele>380</ele>
        <time>2018-04-24T08:18:09.000Z</time>
      </trkpt>
      <trkpt lat="43.8393" lon="7.35164">
        <ele>378</ele>
        <time>2018-04-24T08:18:13.000Z</time>
      </trkpt>
      <trkpt lat="43.83937" lon="7.35158">
        <ele>378</ele>
        <time>2018-04-24T08:18:16.000Z</time>
      </trkpt>
      <trkpt lat="43.83949" lon="7.35149">
        <ele>378</ele>
        <time>2018-04-24T08:18:21.000Z</time>
      </trkpt>
      <trkpt lat="43.83952" lon="7.35147">
        <ele>378</ele>
        <time>2018-04-24T08:18:22.000Z</time>
      </trkpt>
      <trkpt lat="43.83976" lon="7.35134">
        <ele>378</ele>
        <time>2018-04-24T08:18:30.000Z</time>
      </trkpt>
      <trkpt lat="43.84005" lon="7.35124">
        <ele>380</ele>
        <time>2018-04-24T08:18:38.000Z</time>
      </trkpt>
      <trkpt lat="43.84042" lon="7.35117">
        <ele>380</ele>
        <time>2018-04-24T08:18:47.000Z</time>
      </trkpt>
      <trkpt lat="43.84047" lon="7.35117">
        <ele>380</ele>
        <time>2018-04-24T08:18:48.000Z</time>
      </trkpt>
      <trkpt lat="43.84073" lon="7.35117">
        <ele>380</ele>
        <time>2018-04-24T08:18:54.000Z</time>
      </trkpt>
      <trkpt lat="43.84127" lon="7.35119">
        <ele>379</ele>
        <time>2018-04-24T08:19:06.000Z</time>
      </trkpt>
      <trkpt lat="43.84162" lon="7.3513">
        <ele>380</ele>
        <time>2018-04-24T08:19:14.000Z</time>
      </trkpt>
      <trkpt lat="43.84197" lon="7.35148">
        <ele>380</ele>
        <time>2018-04-24T08:19:22.000Z</time>
      </trkpt>
      <trkpt lat="43.84226" lon="7.35164">
        <ele>379</ele>
        <time>2018-04-24T08:19:29.000Z</time>
      </trkpt>
      <trkpt lat="43.8426" lon="7.35183">
        <ele>383</ele>
        <time>2018-04-24T08:19:37.000Z</time>
      </trkpt>
      <trkpt lat="43.84299" lon="7.35207">
        <ele>385</ele>
        <time>2018-04-24T08:19:46.000Z</time>
      </trkpt>
      <trkpt lat="43.84348" lon="7.35241">
        <ele>387</ele>
        <time>2018-04-24T08:19:57.000Z</time>
      </trkpt>
      <trkpt lat="43.84387" lon="7.35272">
        <ele>392</ele>
        <time>2018-04-24T08:20:06.000Z</time>
      </trkpt>
      <trkpt lat="43.84403" lon="7.35287">
        <ele>393</ele>
        <time>2018-04-24T08:20:11.000Z</time>
      </trkpt>
      <trkpt lat="43.84413" lon="7.35297">
        <ele>394</ele>
        <time>2018-04-24T08:20:15.000Z</time>
      </trkpt>
      <trkpt lat="43.84426" lon="7.35308">
        <ele>393</ele>
        <time>2018-04-24T08:20:20.000Z</time>
      </trkpt>
      <trkpt lat="43.84428" lon="7.3531">
        <ele>393</ele>
        <time>2018-04-24T08:20:21.000Z</time>
      </trkpt>
      <trkpt lat="43.84441" lon="7.35322">
        <ele>393</ele>
        <time>2018-04-24T08:20:26.000Z</time>
      </trkpt>
      <trkpt lat="43.84451" lon="7.35331">
        <ele>392</ele>
        <time>2018-04-24T08:20:30.000Z</time>
      </trkpt>
      <trkpt lat="43.84456" lon="7.35335">
        <ele>402</ele>
        <time>2018-04-24T08:20:32.000Z</time>
      </trkpt>
      <trkpt lat="43.84468" lon="7.35346">
        <ele>402</ele>
        <time>2018-04-24T08:20:37.000Z</time>
      </trkpt>
      <trkpt lat="43.8447" lon="7.35348">
        <ele>402</ele>
        <time>2018-04-24T08:20:38.000Z</time>
      </trkpt>
      <trkpt lat="43.84486" lon="7.35362">
        <ele>403</ele>
        <time>2018-04-24T08:20:44.000Z</time>
      </trkpt>
      <trkpt lat="43.845" lon="7.35375">
        <ele>399</ele>
        <time>2018-04-24T08:20:50.000Z</time>
      </trkpt>
      <trkpt lat="43.84504" lon="7.35381">
        <ele>401</ele>
        <time>2018-04-24T08:20:52.000Z</time>
      </trkpt>
      <trkpt lat="43.84508" lon="7.35396">
        <ele>404</ele>
        <time>2018-04-24T08:20:56.000Z</time>
      </trkpt>
      <trkpt lat="43.84511" lon="7.35408">
        <ele>406</ele>
        <time>2018-04-24T08:20:59.000Z</time>
      </trkpt>
      <trkpt lat="43.84513" lon="7.35411">
        <ele>406</ele>
        <time>2018-04-24T08:21:00.000Z</time>
      </trkpt>
      <trkpt lat="43.84524" lon="7.35415">
        <ele>404</ele>
        <time>2018-04-24T08:21:04.000Z</time>
      </trkpt>
      <trkpt lat="43.84527" lon="7.35414">
        <ele>404</ele>
        <time>2018-04-24T08:21:05.000Z</time>
      </trkpt>
      <trkpt lat="43.84529" lon="7.35413">
        <ele>404</ele>
        <time>2018-04-24T08:21:06.000Z</time>
      </trkpt>
      <trkpt lat="43.8454" lon="7.35409">
        <ele>403</ele>
        <time>2018-04-24T08:21:10.000Z</time>
      </trkpt>
      <trkpt lat="43.84546" lon="7.35409">
        <ele>403</ele>
        <time>2018-04-24T08:21:12.000Z</time>
      </trkpt>
      <trkpt lat="43.8456" lon="7.3541">
        <ele>404</ele>
        <time>2018-04-24T08:21:17.000Z</time>
      </trkpt>
      <trkpt lat="43.84565" lon="7.35411">
        <ele>404</ele>
        <time>2018-04-24T08:21:19.000Z</time>
      </trkpt>
      <trkpt lat="43.84579" lon="7.35413">
        <ele>406</ele>
        <time>2018-04-24T08:21:24.000Z</time>
      </trkpt>
      <trkpt lat="43.84586" lon="7.35417">
        <ele>410</ele>
        <time>2018-04-24T08:21:27.000Z</time>
      </trkpt>
      <trkpt lat="43.84593" lon="7.35422">
        <ele>414</ele>
        <time>2018-04-24T08:21:30.000Z</time>
      </trkpt>
      <trkpt lat="43.84602" lon="7.3543">
        <ele>417</ele>
        <time>2018-04-24T08:21:34.000Z</time>
      </trkpt>
      <trkpt lat="43.84609" lon="7.35438">
        <ele>420</ele>
        <time>2018-04-24T08:21:37.000Z</time>
      </trkpt>
      <trkpt lat="43.8462" lon="7.3545">
        <ele>423</ele>
        <time>2018-04-24T08:21:42.000Z</time>
      </trkpt>
      <trkpt lat="43.84632" lon="7.35457">
        <ele>424</ele>
        <time>2018-04-24T08:21:47.000Z</time>
      </trkpt>
      <trkpt lat="43.84639" lon="7.35461">
        <ele>425</ele>
        <time>2018-04-24T08:21:50.000Z</time>
      </trkpt>
      <trkpt lat="43.8465" lon="7.35466">
        <ele>427</ele>
        <time>2018-04-24T08:21:54.000Z</time>
      </trkpt>
      <trkpt lat="43.84658" lon="7.35469">
        <ele>428</ele>
        <time>2018-04-24T08:21:57.000Z</time>
      </trkpt>
      <trkpt lat="43.84677" lon="7.35475">
        <ele>428</ele>
        <time>2018-04-24T08:22:04.000Z</time>
      </trkpt>
      <trkpt lat="43.84688" lon="7.35478">
        <ele>427</ele>
        <time>2018-04-24T08:22:07.000Z</time>
      </trkpt>
      <trkpt lat="43.84704" lon="7.35483">
        <ele>426</ele>
        <time>2018-04-24T08:22:12.000Z</time>
      </trkpt>
      <trkpt lat="43.84731" lon="7.35488">
        <ele>426</ele>
        <time>2018-04-24T08:22:20.000Z</time>
      </trkpt>
      <trkpt lat="43.84756" lon="7.35479">
        <ele>427</ele>
        <time>2018-04-24T08:22:27.000Z</time>
      </trkpt>
      <trkpt lat="43.84796" lon="7.35451">
        <ele>423</ele>
        <time>2018-04-24T08:22:39.000Z</time>
      </trkpt>
      <trkpt lat="43.84819" lon="7.3542">
        <ele>421</ele>
        <time>2018-04-24T08:22:47.000Z</time>
      </trkpt>
      <trkpt lat="43.8483" lon="7.3539">
        <ele>411</ele>
        <time>2018-04-24T08:22:53.000Z</time>
      </trkpt>
      <trkpt lat="43.84842" lon="7.35358">
        <ele>417</ele>
        <time>2018-04-24T08:22:59.000Z</time>
      </trkpt>
      <trkpt lat="43.84845" lon="7.35354">
        <ele>416</ele>
        <time>2018-04-24T08:23:00.000Z</time>
      </trkpt>
      <trkpt lat="43.84874" lon="7.35328">
        <ele>413</ele>
        <time>2018-04-24T08:23:08.000Z</time>
      </trkpt>
      <trkpt lat="43.84895" lon="7.3531">
        <ele>416</ele>
        <time>2018-04-24T08:23:14.000Z</time>
      </trkpt>
      <trkpt lat="43.84899" lon="7.35306">
        <ele>416</ele>
        <time>2018-04-24T08:23:15.000Z</time>
      </trkpt>
      <trkpt lat="43.84911" lon="7.35299">
        <ele>415</ele>
        <time>2018-04-24T08:23:18.000Z</time>
      </trkpt>
      <trkpt lat="43.84941" lon="7.35289">
        <ele>422</ele>
        <time>2018-04-24T08:23:25.000Z</time>
      </trkpt>
      <trkpt lat="43.84968" lon="7.35286">
        <ele>424</ele>
        <time>2018-04-24T08:23:31.000Z</time>
      </trkpt>
      <trkpt lat="43.8498" lon="7.35281">
        <ele>424</ele>
        <time>2018-04-24T08:23:34.000Z</time>
      </trkpt>
      <trkpt lat="43.8499" lon="7.35271">
        <ele>422</ele>
        <time>2018-04-24T08:23:37.000Z</time>
      </trkpt>
      <trkpt lat="43.84997" lon="7.35263">
        <ele>420</ele>
        <time>2018-04-24T08:23:39.000Z</time>
      </trkpt>
      <trkpt lat="43.85019" lon="7.35238">
        <ele>418</ele>
        <time>2018-04-24T08:23:46.000Z</time>
      </trkpt>
      <trkpt lat="43.85029" lon="7.35229">
        <ele>419</ele>
        <time>2018-04-24T08:23:49.000Z</time>
      </trkpt>
      <trkpt lat="43.85058" lon="7.35215">
        <ele>421</ele>
        <time>2018-04-24T08:23:57.000Z</time>
      </trkpt>
      <trkpt lat="43.85062" lon="7.35213">
        <ele>421</ele>
        <time>2018-04-24T08:23:58.000Z</time>
      </trkpt>
      <trkpt lat="43.85097" lon="7.35198">
        <ele>428</ele>
        <time>2018-04-24T08:24:07.000Z</time>
      </trkpt>
      <trkpt lat="43.85106" lon="7.35189">
        <ele>428</ele>
        <time>2018-04-24T08:24:10.000Z</time>
      </trkpt>
      <trkpt lat="43.85117" lon="7.35176">
        <ele>428</ele>
        <time>2018-04-24T08:24:14.000Z</time>
      </trkpt>
      <trkpt lat="43.85122" lon="7.3517">
        <ele>429</ele>
        <time>2018-04-24T08:24:16.000Z</time>
      </trkpt>
      <trkpt lat="43.85138" lon="7.35153">
        <ele>428</ele>
        <time>2018-04-24T08:24:22.000Z</time>
      </trkpt>
      <trkpt lat="43.85152" lon="7.35139">
        <ele>428</ele>
        <time>2018-04-24T08:24:27.000Z</time>
      </trkpt>
      <trkpt lat="43.85155" lon="7.35137">
        <ele>428</ele>
        <time>2018-04-24T08:24:28.000Z</time>
      </trkpt>
      <trkpt lat="43.85168" lon="7.35124">
        <ele>434</ele>
        <time>2018-04-24T08:24:33.000Z</time>
      </trkpt>
      <trkpt lat="43.85184" lon="7.35111">
        <ele>434</ele>
        <time>2018-04-24T08:24:39.000Z</time>
      </trkpt>
      <trkpt lat="43.85201" lon="7.35101">
        <ele>435</ele>
        <time>2018-04-24T08:24:45.000Z</time>
      </trkpt>
      <trkpt lat="43.85212" lon="7.35096">
        <ele>436</ele>
        <time>2018-04-24T08:24:49.000Z</time>
      </trkpt>
      <trkpt lat="43.85214" lon="7.35094">
        <ele>436</ele>
        <time>2018-04-24T08:24:50.000Z</time>
      </trkpt>
      <trkpt lat="43.85231" lon="7.35087">
        <ele>436</ele>
        <time>2018-04-24T08:24:56.000Z</time>
      </trkpt>
      <trkpt lat="43.85239" lon="7.35083">
        <ele>435</ele>
        <time>2018-04-24T08:24:59.000Z</time>
      </trkpt>
      <trkpt lat="43.85247" lon="7.35079">
        <ele>435</ele>
        <time>2018-04-24T08:25:02.000Z</time>
      </trkpt>
      <trkpt lat="43.85263" lon="7.35071">
        <ele>437</ele>
        <time>2018-04-24T08:25:08.000Z</time>
      </trkpt>
      <trkpt lat="43.85268" lon="7.35069">
        <ele>438</ele>
        <time>2018-04-24T08:25:10.000Z</time>
      </trkpt>
      <trkpt lat="43.85279" lon="7.35062">
        <ele>439</ele>
        <time>2018-04-24T08:25:14.000Z</time>
      </trkpt>
      <trkpt lat="43.85285" lon="7.3506">
        <ele>439</ele>
        <time>2018-04-24T08:25:16.000Z</time>
      </trkpt>
      <trkpt lat="43.85292" lon="7.35056">
        <ele>440</ele>
        <time>2018-04-24T08:25:19.000Z</time>
      </trkpt>
      <trkpt lat="43.85302" lon="7.3505">
        <ele>440</ele>
        <time>2018-04-24T08:25:23.000Z</time>
      </trkpt>
      <trkpt lat="43.85307" lon="7.35047">
        <ele>440</ele>
        <time>2018-04-24T08:25:25.000Z</time>
      </trkpt>
      <trkpt lat="43.85322" lon="7.35037">
        <ele>439</ele>
        <time>2018-04-24T08:25:31.000Z</time>
      </trkpt>
      <trkpt lat="43.85327" lon="7.35033">
        <ele>439</ele>
        <time>2018-04-24T08:25:33.000Z</time>
      </trkpt>
      <trkpt lat="43.85337" lon="7.35025">
        <ele>448</ele>
        <time>2018-04-24T08:25:37.000Z</time>
      </trkpt>
      <trkpt lat="43.85346" lon="7.35017">
        <ele>447</ele>
        <time>2018-04-24T08:25:41.000Z</time>
      </trkpt>
      <trkpt lat="43.85356" lon="7.35008">
        <ele>449</ele>
        <time>2018-04-24T08:25:45.000Z</time>
      </trkpt>
      <trkpt lat="43.85364" lon="7.35">
        <ele>451</ele>
        <time>2018-04-24T08:25:49.000Z</time>
      </trkpt>
      <trkpt lat="43.85371" lon="7.34993">
        <ele>445</ele>
        <time>2018-04-24T08:25:52.000Z</time>
      </trkpt>
      <trkpt lat="43.85386" lon="7.34978">
        <ele>448</ele>
        <time>2018-04-24T08:25:58.000Z</time>
      </trkpt>
      <trkpt lat="43.8539" lon="7.34974">
        <ele>448</ele>
        <time>2018-04-24T08:26:00.000Z</time>
      </trkpt>
      <trkpt lat="43.85398" lon="7.34964">
        <ele>448</ele>
        <time>2018-04-24T08:26:04.000Z</time>
      </trkpt>
      <trkpt lat="43.85406" lon="7.34951">
        <ele>446</ele>
        <time>2018-04-24T08:26:08.000Z</time>
      </trkpt>
      <trkpt lat="43.8541" lon="7.34944">
        <ele>445</ele>
        <time>2018-04-24T08:26:10.000Z</time>
      </trkpt>
      <trkpt lat="43.85422" lon="7.3492">
        <ele>448</ele>
        <time>2018-04-24T08:26:17.000Z</time>
      </trkpt>
      <trkpt lat="43.85429" lon="7.34902">
        <ele>447</ele>
        <time>2018-04-24T08:26:22.000Z</time>
      </trkpt>
      <trkpt lat="43.85436" lon="7.34888">
        <ele>448</ele>
        <time>2018-04-24T08:26:26.000Z</time>
      </trkpt>
      <trkpt lat="43.8544" lon="7.34881">
        <ele>449</ele>
        <time>2018-04-24T08:26:28.000Z</time>
      </trkpt>
      <trkpt lat="43.85457" lon="7.34864">
        <ele>449</ele>
        <time>2018-04-24T08:26:35.000Z</time>
      </trkpt>
      <trkpt lat="43.85472" lon="7.34851">
        <ele>449</ele>
        <time>2018-04-24T08:26:41.000Z</time>
      </trkpt>
      <trkpt lat="43.85481" lon="7.34846">
        <ele>448</ele>
        <time>2018-04-24T08:26:44.000Z</time>
      </trkpt>
      <trkpt lat="43.85491" lon="7.34839">
        <ele>446</ele>
        <time>2018-04-24T08:26:48.000Z</time>
      </trkpt>
      <trkpt lat="43.85496" lon="7.34835">
        <ele>444</ele>
        <time>2018-04-24T08:26:50.000Z</time>
      </trkpt>
      <trkpt lat="43.8551" lon="7.34826">
        <ele>446</ele>
        <time>2018-04-24T08:26:55.000Z</time>
      </trkpt>
      <trkpt lat="43.85519" lon="7.34817">
        <ele>447</ele>
        <time>2018-04-24T08:26:59.000Z</time>
      </trkpt>
      <trkpt lat="43.85525" lon="7.34812">
        <ele>448</ele>
        <time>2018-04-24T08:27:01.000Z</time>
      </trkpt>
      <trkpt lat="43.85544" lon="7.34796">
        <ele>449</ele>
        <time>2018-04-24T08:27:08.000Z</time>
      </trkpt>
      <trkpt lat="43.8556" lon="7.34784">
        <ele>449</ele>
        <time>2018-04-24T08:27:14.000Z</time>
      </trkpt>
      <trkpt lat="43.85573" lon="7.34773">
        <ele>447</ele>
        <time>2018-04-24T08:27:19.000Z</time>
      </trkpt>
      <trkpt lat="43.85596" lon="7.34763">
        <ele>450</ele>
        <time>2018-04-24T08:27:27.000Z</time>
      </trkpt>
      <trkpt lat="43.85599" lon="7.34762">
        <ele>451</ele>
        <time>2018-04-24T08:27:28.000Z</time>
      </trkpt>
      <trkpt lat="43.85617" lon="7.34764">
        <ele>454</ele>
        <time>2018-04-24T08:27:34.000Z</time>
      </trkpt>
      <trkpt lat="43.85624" lon="7.34766">
        <ele>455</ele>
        <time>2018-04-24T08:27:36.000Z</time>
      </trkpt>
      <trkpt lat="43.85641" lon="7.34763">
        <ele>455</ele>
        <time>2018-04-24T08:27:41.000Z</time>
      </trkpt>
      <trkpt lat="43.85648" lon="7.34762">
        <ele>455</ele>
        <time>2018-04-24T08:27:43.000Z</time>
      </trkpt>
      <trkpt lat="43.85671" lon="7.34756">
        <ele>456</ele>
        <time>2018-04-24T08:27:50.000Z</time>
      </trkpt>
      <trkpt lat="43.85675" lon="7.34756">
        <ele>457</ele>
        <time>2018-04-24T08:27:51.000Z</time>
      </trkpt>
      <trkpt lat="43.85686" lon="7.34755">
        <ele>460</ele>
        <time>2018-04-24T08:27:55.000Z</time>
      </trkpt>
      <trkpt lat="43.85689" lon="7.34755">
        <ele>461</ele>
        <time>2018-04-24T08:27:56.000Z</time>
      </trkpt>
      <trkpt lat="43.85705" lon="7.34759">
        <ele>464</ele>
        <time>2018-04-24T08:28:01.000Z</time>
      </trkpt>
      <trkpt lat="43.85708" lon="7.34759">
        <ele>465</ele>
        <time>2018-04-24T08:28:02.000Z</time>
      </trkpt>
      <trkpt lat="43.85731" lon="7.34762">
        <ele>465</ele>
        <time>2018-04-24T08:28:09.000Z</time>
      </trkpt>
      <trkpt lat="43.85754" lon="7.34763">
        <ele>467</ele>
        <time>2018-04-24T08:28:17.000Z</time>
      </trkpt>
      <trkpt lat="43.85757" lon="7.34763">
        <ele>467</ele>
        <time>2018-04-24T08:28:18.000Z</time>
      </trkpt>
      <trkpt lat="43.85772" lon="7.34762">
        <ele>470</ele>
        <time>2018-04-24T08:28:23.000Z</time>
      </trkpt>
      <trkpt lat="43.85778" lon="7.34762">
        <ele>471</ele>
        <time>2018-04-24T08:28:25.000Z</time>
      </trkpt>
      <trkpt lat="43.85788" lon="7.3476">
        <ele>472</ele>
        <time>2018-04-24T08:28:29.000Z</time>
      </trkpt>
      <trkpt lat="43.85798" lon="7.34759">
        <ele>472</ele>
        <time>2018-04-24T08:28:33.000Z</time>
      </trkpt>
      <trkpt lat="43.85806" lon="7.34758">
        <ele>472</ele>
        <time>2018-04-24T08:28:36.000Z</time>
      </trkpt>
      <trkpt lat="43.8582" lon="7.34757">
        <ele>470</ele>
        <time>2018-04-24T08:28:41.000Z</time>
      </trkpt>
      <trkpt lat="43.85825" lon="7.34758">
        <ele>469</ele>
        <time>2018-04-24T08:28:43.000Z</time>
      </trkpt>
      <trkpt lat="43.85842" lon="7.34763">
        <ele>471</ele>
        <time>2018-04-24T08:28:49.000Z</time>
      </trkpt>
      <trkpt lat="43.85858" lon="7.34771">
        <ele>474</ele>
        <time>2018-04-24T08:28:55.000Z</time>
      </trkpt>
      <trkpt lat="43.8586" lon="7.34772">
        <ele>474</ele>
        <time>2018-04-24T08:28:56.000Z</time>
      </trkpt>
      <trkpt lat="43.85871" lon="7.34777">
        <ele>475</ele>
        <time>2018-04-24T08:29:00.000Z</time>
      </trkpt>
      <trkpt lat="43.85877" lon="7.34778">
        <ele>476</ele>
        <time>2018-04-24T08:29:02.000Z</time>
      </trkpt>
      <trkpt lat="43.85888" lon="7.34778">
        <ele>475</ele>
        <time>2018-04-24T08:29:06.000Z</time>
      </trkpt>
      <trkpt lat="43.85898" lon="7.34775">
        <ele>474</ele>
        <time>2018-04-24T08:29:10.000Z</time>
      </trkpt>
      <trkpt lat="43.85901" lon="7.34774">
        <ele>474</ele>
        <time>2018-04-24T08:29:11.000Z</time>
      </trkpt>
      <trkpt lat="43.85925" lon="7.34762">
        <ele>475</ele>
        <time>2018-04-24T08:29:20.000Z</time>
      </trkpt>
      <trkpt lat="43.85944" lon="7.34751">
        <ele>479</ele>
        <time>2018-04-24T08:29:27.000Z</time>
      </trkpt>
      <trkpt lat="43.85954" lon="7.34745">
        <ele>467</ele>
        <time>2018-04-24T08:29:31.000Z</time>
      </trkpt>
      <trkpt lat="43.85959" lon="7.34742">
        <ele>468</ele>
        <time>2018-04-24T08:29:33.000Z</time>
      </trkpt>
      <trkpt lat="43.85976" lon="7.34727">
        <ele>469</ele>
        <time>2018-04-24T08:29:40.000Z</time>
      </trkpt>
      <trkpt lat="43.85979" lon="7.34724">
        <ele>469</ele>
        <time>2018-04-24T08:29:41.000Z</time>
      </trkpt>
      <trkpt lat="43.85997" lon="7.34707">
        <ele>467</ele>
        <time>2018-04-24T08:29:49.000Z</time>
      </trkpt>
      <trkpt lat="43.86003" lon="7.34704">
        <ele>475</ele>
        <time>2018-04-24T08:29:51.000Z</time>
      </trkpt>
      <trkpt lat="43.86012" lon="7.34702">
        <ele>475</ele>
        <time>2018-04-24T08:29:54.000Z</time>
      </trkpt>
      <trkpt lat="43.86025" lon="7.34701">
        <ele>476</ele>
        <time>2018-04-24T08:29:59.000Z</time>
      </trkpt>
      <trkpt lat="43.86033" lon="7.34703">
        <ele>476</ele>
        <time>2018-04-24T08:30:02.000Z</time>
      </trkpt>
      <trkpt lat="43.86049" lon="7.34708">
        <ele>478</ele>
        <time>2018-04-24T08:30:08.000Z</time>
      </trkpt>
      <trkpt lat="43.86052" lon="7.34708">
        <ele>478</ele>
        <time>2018-04-24T08:30:09.000Z</time>
      </trkpt>
      <trkpt lat="43.86073" lon="7.34714">
        <ele>481</ele>
        <time>2018-04-24T08:30:17.000Z</time>
      </trkpt>
      <trkpt lat="43.86081" lon="7.34717">
        <ele>482</ele>
        <time>2018-04-24T08:30:20.000Z</time>
      </trkpt>
      <trkpt lat="43.86094" lon="7.34721">
        <ele>486</ele>
        <time>2018-04-24T08:30:25.000Z</time>
      </trkpt>
      <trkpt lat="43.86105" lon="7.34724">
        <ele>487</ele>
        <time>2018-04-24T08:30:29.000Z</time>
      </trkpt>
      <trkpt lat="43.86113" lon="7.34726">
        <ele>487</ele>
        <time>2018-04-24T08:30:32.000Z</time>
      </trkpt>
      <trkpt lat="43.8612" lon="7.34727">
        <ele>487</ele>
        <time>2018-04-24T08:30:35.000Z</time>
      </trkpt>
      <trkpt lat="43.86133" lon="7.3473">
        <ele>488</ele>
        <time>2018-04-24T08:30:40.000Z</time>
      </trkpt>
      <trkpt lat="43.86138" lon="7.34731">
        <ele>488</ele>
        <time>2018-04-24T08:30:42.000Z</time>
      </trkpt>
      <trkpt lat="43.86147" lon="7.34731">
        <ele>489</ele>
        <time>2018-04-24T08:30:45.000Z</time>
      </trkpt>
      <trkpt lat="43.86153" lon="7.34731">
        <ele>490</ele>
        <time>2018-04-24T08:30:47.000Z</time>
      </trkpt>
      <trkpt lat="43.86162" lon="7.3473">
        <ele>491</ele>
        <time>2018-04-24T08:30:50.000Z</time>
      </trkpt>
      <trkpt lat="43.86173" lon="7.34728">
        <ele>492</ele>
        <time>2018-04-24T08:30:54.000Z</time>
      </trkpt>
      <trkpt lat="43.86184" lon="7.34724">
        <ele>490</ele>
        <time>2018-04-24T08:30:58.000Z</time>
      </trkpt>
      <trkpt lat="43.8619" lon="7.34722">
        <ele>489</ele>
        <time>2018-04-24T08:31:00.000Z</time>
      </trkpt>
      <trkpt lat="43.86211" lon="7.34714">
        <ele>488</ele>
        <time>2018-04-24T08:31:07.000Z</time>
      </trkpt>
      <trkpt lat="43.86214" lon="7.34713">
        <ele>488</ele>
        <time>2018-04-24T08:31:08.000Z</time>
      </trkpt>
      <trkpt lat="43.86231" lon="7.34707">
        <ele>487</ele>
        <time>2018-04-24T08:31:14.000Z</time>
      </trkpt>
      <trkpt lat="43.8624" lon="7.34706">
        <ele>486</ele>
        <time>2018-04-24T08:31:17.000Z</time>
      </trkpt>
      <trkpt lat="43.86249" lon="7.34708">
        <ele>487</ele>
        <time>2018-04-24T08:31:20.000Z</time>
      </trkpt>
      <trkpt lat="43.86258" lon="7.34712">
        <ele>488</ele>
        <time>2018-04-24T08:31:23.000Z</time>
      </trkpt>
      <trkpt lat="43.86265" lon="7.34719">
        <ele>490</ele>
        <time>2018-04-24T08:31:26.000Z</time>
      </trkpt>
      <trkpt lat="43.86273" lon="7.34726">
        <ele>491</ele>
        <time>2018-04-24T08:31:29.000Z</time>
      </trkpt>
      <trkpt lat="43.86278" lon="7.34731">
        <ele>491</ele>
        <time>2018-04-24T08:31:31.000Z</time>
      </trkpt>
      <trkpt lat="43.86294" lon="7.34749">
        <ele>491</ele>
        <time>2018-04-24T08:31:38.000Z</time>
      </trkpt>
      <trkpt lat="43.86297" lon="7.34751">
        <ele>510</ele>
        <time>2018-04-24T08:31:39.000Z</time>
      </trkpt>
      <trkpt lat="43.86318" lon="7.34769">
        <ele>508</ele>
        <time>2018-04-24T08:31:47.000Z</time>
      </trkpt>
      <trkpt lat="43.8634" lon="7.34774">
        <ele>503</ele>
        <time>2018-04-24T08:31:54.000Z</time>
      </trkpt>
      <trkpt lat="43.86346" lon="7.34774">
        <ele>503</ele>
        <time>2018-04-24T08:31:56.000Z</time>
      </trkpt>
      <trkpt lat="43.86357" lon="7.34772">
        <ele>503</ele>
        <time>2018-04-24T08:31:59.000Z</time>
      </trkpt>
      <trkpt lat="43.86389" lon="7.34765">
        <ele>501</ele>
        <time>2018-04-24T08:32:08.000Z</time>
      </trkpt>
      <trkpt lat="43.8641" lon="7.34766">
        <ele>498</ele>
        <time>2018-04-24T08:32:14.000Z</time>
      </trkpt>
      <trkpt lat="43.86417" lon="7.34769">
        <ele>498</ele>
        <time>2018-04-24T08:32:16.000Z</time>
      </trkpt>
      <trkpt lat="43.86439" lon="7.34782">
        <ele>500</ele>
        <time>2018-04-24T08:32:23.000Z</time>
      </trkpt>
      <trkpt lat="43.86442" lon="7.34784">
        <ele>500</ele>
        <time>2018-04-24T08:32:24.000Z</time>
      </trkpt>
      <trkpt lat="43.86466" lon="7.34799">
        <ele>502</ele>
        <time>2018-04-24T08:32:32.000Z</time>
      </trkpt>
      <trkpt lat="43.86489" lon="7.34813">
        <ele>504</ele>
        <time>2018-04-24T08:32:40.000Z</time>
      </trkpt>
      <trkpt lat="43.86492" lon="7.34815">
        <ele>504</ele>
        <time>2018-04-24T08:32:41.000Z</time>
      </trkpt>
      <trkpt lat="43.86509" lon="7.34826">
        <ele>502</ele>
        <time>2018-04-24T08:32:47.000Z</time>
      </trkpt>
      <trkpt lat="43.86524" lon="7.34834">
        <ele>510</ele>
        <time>2018-04-24T08:32:52.000Z</time>
      </trkpt>
      <trkpt lat="43.86533" lon="7.34839">
        <ele>510</ele>
        <time>2018-04-24T08:32:55.000Z</time>
      </trkpt>
      <trkpt lat="43.86551" lon="7.34851">
        <ele>508</ele>
        <time>2018-04-24T08:33:01.000Z</time>
      </trkpt>
      <trkpt lat="43.86557" lon="7.34856">
        <ele>508</ele>
        <time>2018-04-24T08:33:03.000Z</time>
      </trkpt>
      <trkpt lat="43.86569" lon="7.34868">
        <ele>509</ele>
        <time>2018-04-24T08:33:08.000Z</time>
      </trkpt>
      <trkpt lat="43.86579" lon="7.34876">
        <ele>509</ele>
        <time>2018-04-24T08:33:12.000Z</time>
      </trkpt>
      <trkpt lat="43.86591" lon="7.34879">
        <ele>502</ele>
        <time>2018-04-24T08:33:16.000Z</time>
      </trkpt>
      <trkpt lat="43.86603" lon="7.34879">
        <ele>502</ele>
        <time>2018-04-24T08:33:20.000Z</time>
      </trkpt>
      <trkpt lat="43.86615" lon="7.34881">
        <ele>502</ele>
        <time>2018-04-24T08:33:24.000Z</time>
      </trkpt>
      <trkpt lat="43.86628" lon="7.34887">
        <ele>502</ele>
        <time>2018-04-24T08:33:29.000Z</time>
      </trkpt>
      <trkpt lat="43.86633" lon="7.3489">
        <ele>502</ele>
        <time>2018-04-24T08:33:31.000Z</time>
      </trkpt>
      <trkpt lat="43.86644" lon="7.34903">
        <ele>503</ele>
        <time>2018-04-24T08:33:36.000Z</time>
      </trkpt>
      <trkpt lat="43.86663" lon="7.34921">
        <ele>509</ele>
        <time>2018-04-24T08:33:44.000Z</time>
      </trkpt>
      <trkpt lat="43.86665" lon="7.34923">
        <ele>510</ele>
        <time>2018-04-24T08:33:45.000Z</time>
      </trkpt>
      <trkpt lat="43.8668" lon="7.34939">
        <ele>511</ele>
        <time>2018-04-24T08:33:52.000Z</time>
      </trkpt>
      <trkpt lat="43.86686" lon="7.34944">
        <ele>512</ele>
        <time>2018-04-24T08:33:54.000Z</time>
      </trkpt>
      <trkpt lat="43.86695" lon="7.34953">
        <ele>512</ele>
        <time>2018-04-24T08:33:58.000Z</time>
      </trkpt>
      <trkpt lat="43.86701" lon="7.34959">
        <ele>513</ele>
        <time>2018-04-24T08:34:01.000Z</time>
      </trkpt>
      <trkpt lat="43.86706" lon="7.34964">
        <ele>513</ele>
        <time>2018-04-24T08:34:03.000Z</time>
      </trkpt>
      <trkpt lat="43.86718" lon="7.3498">
        <ele>513</ele>
        <time>2018-04-24T08:34:09.000Z</time>
      </trkpt>
      <trkpt lat="43.86721" lon="7.34983">
        <ele>513</ele>
        <time>2018-04-24T08:34:10.000Z</time>
      </trkpt>
      <trkpt lat="43.86733" lon="7.34999">
        <ele>513</ele>
        <time>2018-04-24T08:34:16.000Z</time>
      </trkpt>
      <trkpt lat="43.8674" lon="7.35007">
        <ele>523</ele>
        <time>2018-04-24T08:34:19.000Z</time>
      </trkpt>
      <trkpt lat="43.86746" lon="7.35014">
        <ele>524</ele>
        <time>2018-04-24T08:34:22.000Z</time>
      </trkpt>
      <trkpt lat="43.86759" lon="7.35027">
        <ele>524</ele>
        <time>2018-04-24T08:34:28.000Z</time>
      </trkpt>
      <trkpt lat="43.86775" lon="7.35035">
        <ele>526</ele>
        <time>2018-04-24T08:34:34.000Z</time>
      </trkpt>
      <trkpt lat="43.86792" lon="7.35037">
        <ele>526</ele>
        <time>2018-04-24T08:34:40.000Z</time>
      </trkpt>
      <trkpt lat="43.86797" lon="7.35037">
        <ele>525</ele>
        <time>2018-04-24T08:34:42.000Z</time>
      </trkpt>
      <trkpt lat="43.86811" lon="7.35038">
        <ele>525</ele>
        <time>2018-04-24T08:34:47.000Z</time>
      </trkpt>
      <trkpt lat="43.86824" lon="7.35039">
        <ele>525</ele>
        <time>2018-04-24T08:34:52.000Z</time>
      </trkpt>
      <trkpt lat="43.86827" lon="7.3504">
        <ele>525</ele>
        <time>2018-04-24T08:34:53.000Z</time>
      </trkpt>
      <trkpt lat="43.86843" lon="7.35044">
        <ele>522</ele>
        <time>2018-04-24T08:34:59.000Z</time>
      </trkpt>
      <trkpt lat="43.86846" lon="7.35045">
        <ele>522</ele>
        <time>2018-04-24T08:35:00.000Z</time>
      </trkpt>
      <trkpt lat="43.86858" lon="7.35049">
        <ele>522</ele>
        <time>2018-04-24T08:35:05.000Z</time>
      </trkpt>
      <trkpt lat="43.8686" lon="7.3505">
        <ele>522</ele>
        <time>2018-04-24T08:35:06.000Z</time>
      </trkpt>
      <trkpt lat="43.86875" lon="7.35054">
        <ele>522</ele>
        <time>2018-04-24T08:35:12.000Z</time>
      </trkpt>
      <trkpt lat="43.8688" lon="7.35056">
        <ele>522</ele>
        <time>2018-04-24T08:35:14.000Z</time>
      </trkpt>
      <trkpt lat="43.86892" lon="7.35064">
        <ele>524</ele>
        <time>2018-04-24T08:35:19.000Z</time>
      </trkpt>
      <trkpt lat="43.86896" lon="7.35069">
        <ele>524</ele>
        <time>2018-04-24T08:35:21.000Z</time>
      </trkpt>
      <trkpt lat="43.86903" lon="7.3508">
        <ele>526</ele>
        <time>2018-04-24T08:35:25.000Z</time>
      </trkpt>
      <trkpt lat="43.86904" lon="7.35083">
        <ele>527</ele>
        <time>2018-04-24T08:35:26.000Z</time>
      </trkpt>
      <trkpt lat="43.86912" lon="7.35097">
        <ele>539</ele>
        <time>2018-04-24T08:35:31.000Z</time>
      </trkpt>
      <trkpt lat="43.86913" lon="7.35099">
        <ele>540</ele>
        <time>2018-04-24T08:35:32.000Z</time>
      </trkpt>
      <trkpt lat="43.86915" lon="7.35103">
        <ele>541</ele>
        <time>2018-04-24T08:35:34.000Z</time>
      </trkpt>
      <trkpt lat="43.86922" lon="7.35109">
        <ele>541</ele>
        <time>2018-04-24T08:35:37.000Z</time>
      </trkpt>
      <trkpt lat="43.86927" lon="7.35112">
        <ele>542</ele>
        <time>2018-04-24T08:35:39.000Z</time>
      </trkpt>
      <trkpt lat="43.86945" lon="7.35115">
        <ele>543</ele>
        <time>2018-04-24T08:35:45.000Z</time>
      </trkpt>
      <trkpt lat="43.86952" lon="7.35115">
        <ele>543</ele>
        <time>2018-04-24T08:35:47.000Z</time>
      </trkpt>
      <trkpt lat="43.86965" lon="7.35114">
        <ele>542</ele>
        <time>2018-04-24T08:35:52.000Z</time>
      </trkpt>
      <trkpt lat="43.86971" lon="7.35112">
        <ele>541</ele>
        <time>2018-04-24T08:35:54.000Z</time>
      </trkpt>
      <trkpt lat="43.86978" lon="7.35111">
        <ele>540</ele>
        <time>2018-04-24T08:35:57.000Z</time>
      </trkpt>
      <trkpt lat="43.86986" lon="7.35112">
        <ele>540</ele>
        <time>2018-04-24T08:36:00.000Z</time>
      </trkpt>
      <trkpt lat="43.86993" lon="7.35115">
        <ele>541</ele>
        <time>2018-04-24T08:36:03.000Z</time>
      </trkpt>
      <trkpt lat="43.87001" lon="7.3512">
        <ele>541</ele>
        <time>2018-04-24T08:36:06.000Z</time>
      </trkpt>
      <trkpt lat="43.8701" lon="7.35125">
        <ele>543</ele>
        <time>2018-04-24T08:36:10.000Z</time>
      </trkpt>
      <trkpt lat="43.87013" lon="7.35126">
        <ele>543</ele>
        <time>2018-04-24T08:36:11.000Z</time>
      </trkpt>
      <trkpt lat="43.87025" lon="7.35126">
        <ele>543</ele>
        <time>2018-04-24T08:36:16.000Z</time>
      </trkpt>
      <trkpt lat="43.87042" lon="7.35114">
        <ele>541</ele>
        <time>2018-04-24T08:36:22.000Z</time>
      </trkpt>
      <trkpt lat="43.87058" lon="7.35097">
        <ele>538</ele>
        <time>2018-04-24T08:36:28.000Z</time>
      </trkpt>
      <trkpt lat="43.87075" lon="7.3509">
        <ele>534</ele>
        <time>2018-04-24T08:36:33.000Z</time>
      </trkpt>
      <trkpt lat="43.87099" lon="7.35092">
        <ele>536</ele>
        <time>2018-04-24T08:36:40.000Z</time>
      </trkpt>
      <trkpt lat="43.87108" lon="7.35097">
        <ele>538</ele>
        <time>2018-04-24T08:36:43.000Z</time>
      </trkpt>
      <trkpt lat="43.87115" lon="7.35104">
        <ele>539</ele>
        <time>2018-04-24T08:36:46.000Z</time>
      </trkpt>
      <trkpt lat="43.87125" lon="7.35112">
        <ele>541</ele>
        <time>2018-04-24T08:36:50.000Z</time>
      </trkpt>
      <trkpt lat="43.87136" lon="7.35121">
        <ele>542</ele>
        <time>2018-04-24T08:36:55.000Z</time>
      </trkpt>
      <trkpt lat="43.8714" lon="7.35125">
        <ele>543</ele>
        <time>2018-04-24T08:36:57.000Z</time>
      </trkpt>
      <trkpt lat="43.87156" lon="7.35137">
        <ele>546</ele>
        <time>2018-04-24T08:37:04.000Z</time>
      </trkpt>
      <trkpt lat="43.87159" lon="7.35139">
        <ele>546</ele>
        <time>2018-04-24T08:37:05.000Z</time>
      </trkpt>
      <trkpt lat="43.87161" lon="7.35141">
        <ele>547</ele>
        <time>2018-04-24T08:37:07.000Z</time>
      </trkpt>
      <trkpt lat="43.87165" lon="7.35144">
        <ele>548</ele>
        <time>2018-04-24T08:37:09.000Z</time>
      </trkpt>
      <trkpt lat="43.87167" lon="7.35146">
        <ele>546</ele>
        <time>2018-04-24T08:37:10.000Z</time>
      </trkpt>
      <trkpt lat="43.87186" lon="7.35159">
        <ele>546</ele>
        <time>2018-04-24T08:37:17.000Z</time>
      </trkpt>
      <trkpt lat="43.87203" lon="7.35171">
        <ele>565</ele>
        <time>2018-04-24T08:37:24.000Z</time>
      </trkpt>
      <trkpt lat="43.87218" lon="7.35182">
        <ele>565</ele>
        <time>2018-04-24T08:37:30.000Z</time>
      </trkpt>
      <trkpt lat="43.87221" lon="7.35184">
        <ele>564</ele>
        <time>2018-04-24T08:37:31.000Z</time>
      </trkpt>
      <trkpt lat="43.87234" lon="7.35193">
        <ele>565</ele>
        <time>2018-04-24T08:37:37.000Z</time>
      </trkpt>
      <trkpt lat="43.87236" lon="7.35195">
        <ele>565</ele>
        <time>2018-04-24T08:37:38.000Z</time>
      </trkpt>
      <trkpt lat="43.87248" lon="7.35197">
        <ele>565</ele>
        <time>2018-04-24T08:37:42.000Z</time>
      </trkpt>
      <trkpt lat="43.87253" lon="7.35197">
        <ele>559</ele>
        <time>2018-04-24T08:37:44.000Z</time>
      </trkpt>
      <trkpt lat="43.87266" lon="7.35197">
        <ele>560</ele>
        <time>2018-04-24T08:37:49.000Z</time>
      </trkpt>
      <trkpt lat="43.87276" lon="7.35195">
        <ele>560</ele>
        <time>2018-04-24T08:37:53.000Z</time>
      </trkpt>
      <trkpt lat="43.87281" lon="7.35194">
        <ele>560</ele>
        <time>2018-04-24T08:37:55.000Z</time>
      </trkpt>
      <trkpt lat="43.87301" lon="7.35199">
        <ele>561</ele>
        <time>2018-04-24T08:38:02.000Z</time>
      </trkpt>
      <trkpt lat="43.87316" lon="7.35208">
        <ele>563</ele>
        <time>2018-04-24T08:38:08.000Z</time>
      </trkpt>
      <trkpt lat="43.87323" lon="7.35213">
        <ele>565</ele>
        <time>2018-04-24T08:38:11.000Z</time>
      </trkpt>
      <trkpt lat="43.8733" lon="7.35216">
        <ele>566</ele>
        <time>2018-04-24T08:38:14.000Z</time>
      </trkpt>
      <trkpt lat="43.87336" lon="7.35218">
        <ele>564</ele>
        <time>2018-04-24T08:38:16.000Z</time>
      </trkpt>
      <trkpt lat="43.87351" lon="7.35214">
        <ele>561</ele>
        <time>2018-04-24T08:38:21.000Z</time>
      </trkpt>
      <trkpt lat="43.8736" lon="7.35208">
        <ele>559</ele>
        <time>2018-04-24T08:38:24.000Z</time>
      </trkpt>
      <trkpt lat="43.87377" lon="7.35191">
        <ele>556</ele>
        <time>2018-04-24T08:38:31.000Z</time>
      </trkpt>
      <trkpt lat="43.87379" lon="7.35189">
        <ele>556</ele>
        <time>2018-04-24T08:38:32.000Z</time>
      </trkpt>
      <trkpt lat="43.87398" lon="7.3517">
        <ele>553</ele>
        <time>2018-04-24T08:38:40.000Z</time>
      </trkpt>
      <trkpt lat="43.87403" lon="7.35165">
        <ele>551</ele>
        <time>2018-04-24T08:38:42.000Z</time>
      </trkpt>
      <trkpt lat="43.87421" lon="7.35146">
        <ele>560</ele>
        <time>2018-04-24T08:38:50.000Z</time>
      </trkpt>
      <trkpt lat="43.87423" lon="7.35144">
        <ele>561</ele>
        <time>2018-04-24T08:38:51.000Z</time>
      </trkpt>
      <trkpt lat="43.87439" lon="7.35133">
        <ele>565</ele>
        <time>2018-04-24T08:38:58.000Z</time>
      </trkpt>
      <trkpt lat="43.87442" lon="7.35132">
        <ele>566</ele>
        <time>2018-04-24T08:38:59.000Z</time>
      </trkpt>
      <trkpt lat="43.87454" lon="7.35131">
        <ele>567</ele>
        <time>2018-04-24T08:39:03.000Z</time>
      </trkpt>
      <trkpt lat="43.87461" lon="7.35133">
        <ele>568</ele>
        <time>2018-04-24T08:39:06.000Z</time>
      </trkpt>
      <trkpt lat="43.87474" lon="7.35138">
        <ele>568</ele>
        <time>2018-04-24T08:39:11.000Z</time>
      </trkpt>
      <trkpt lat="43.87477" lon="7.35139">
        <ele>568</ele>
        <time>2018-04-24T08:39:12.000Z</time>
      </trkpt>
      <trkpt lat="43.87493" lon="7.35147">
        <ele>567</ele>
        <time>2018-04-24T08:39:18.000Z</time>
      </trkpt>
      <trkpt lat="43.87495" lon="7.35148">
        <ele>567</ele>
        <time>2018-04-24T08:39:19.000Z</time>
      </trkpt>
      <trkpt lat="43.8751" lon="7.35156">
        <ele>575</ele>
        <time>2018-04-24T08:39:25.000Z</time>
      </trkpt>
      <trkpt lat="43.87515" lon="7.35161">
        <ele>576</ele>
        <time>2018-04-24T08:39:27.000Z</time>
      </trkpt>
      <trkpt lat="43.87521" lon="7.35168">
        <ele>566</ele>
        <time>2018-04-24T08:39:30.000Z</time>
      </trkpt>
      <trkpt lat="43.87532" lon="7.35184">
        <ele>567</ele>
        <time>2018-04-24T08:39:36.000Z</time>
      </trkpt>
      <trkpt lat="43.87534" lon="7.35187">
        <ele>567</ele>
        <time>2018-04-24T08:39:37.000Z</time>
      </trkpt>
      <trkpt lat="43.87547" lon="7.352">
        <ele>568</ele>
        <time>2018-04-24T08:39:43.000Z</time>
      </trkpt>
      <trkpt lat="43.8755" lon="7.352">
        <ele>568</ele>
        <time>2018-04-24T08:39:44.000Z</time>
      </trkpt>
      <trkpt lat="43.8756" lon="7.35205">
        <ele>569</ele>
        <time>2018-04-24T08:39:48.000Z</time>
      </trkpt>
      <trkpt lat="43.87569" lon="7.35207">
        <ele>570</ele>
        <time>2018-04-24T08:39:52.000Z</time>
      </trkpt>
      <trkpt lat="43.87575" lon="7.35207">
        <ele>570</ele>
        <time>2018-04-24T08:39:54.000Z</time>
      </trkpt>
      <trkpt lat="43.87583" lon="7.35207">
        <ele>571</ele>
        <time>2018-04-24T08:39:57.000Z</time>
      </trkpt>
      <trkpt lat="43.87591" lon="7.35207">
        <ele>583</ele>
        <time>2018-04-24T08:40:00.000Z</time>
      </trkpt>
      <trkpt lat="43.87602" lon="7.35206">
        <ele>584</ele>
        <time>2018-04-24T08:40:04.000Z</time>
      </trkpt>
      <trkpt lat="43.87607" lon="7.35206">
        <ele>584</ele>
        <time>2018-04-24T08:40:06.000Z</time>
      </trkpt>
      <trkpt lat="43.87624" lon="7.35211">
        <ele>585</ele>
        <time>2018-04-24T08:40:12.000Z</time>
      </trkpt>
      <trkpt lat="43.87637" lon="7.35218">
        <ele>584</ele>
        <time>2018-04-24T08:40:17.000Z</time>
      </trkpt>
      <trkpt lat="43.87649" lon="7.35227">
        <ele>583</ele>
        <time>2018-04-24T08:40:22.000Z</time>
      </trkpt>
      <trkpt lat="43.87652" lon="7.35229">
        <ele>582</ele>
        <time>2018-04-24T08:40:23.000Z</time>
      </trkpt>
      <trkpt lat="43.87662" lon="7.35236">
        <ele>580</ele>
        <time>2018-04-24T08:40:27.000Z</time>
      </trkpt>
      <trkpt lat="43.87673" lon="7.35242">
        <ele>584</ele>
        <time>2018-04-24T08:40:31.000Z</time>
      </trkpt>
      <trkpt lat="43.87681" lon="7.35247">
        <ele>587</ele>
        <time>2018-04-24T08:40:34.000Z</time>
      </trkpt>
      <trkpt lat="43.87696" lon="7.35256">
        <ele>579</ele>
        <time>2018-04-24T08:40:40.000Z</time>
      </trkpt>
      <trkpt lat="43.87698" lon="7.35258">
        <ele>579</ele>
        <time>2018-04-24T08:40:41.000Z</time>
      </trkpt>
      <trkpt lat="43.87715" lon="7.35267">
        <ele>581</ele>
        <time>2018-04-24T08:40:47.000Z</time>
      </trkpt>
      <trkpt lat="43.87721" lon="7.35269">
        <ele>582</ele>
        <time>2018-04-24T08:40:49.000Z</time>
      </trkpt>
      <trkpt lat="43.87732" lon="7.35271">
        <ele>583</ele>
        <time>2018-04-24T08:40:53.000Z</time>
      </trkpt>
      <trkpt lat="43.87739" lon="7.35272">
        <ele>584</ele>
        <time>2018-04-24T08:40:55.000Z</time>
      </trkpt>
      <trkpt lat="43.87751" lon="7.35273">
        <ele>592</ele>
        <time>2018-04-24T08:40:59.000Z</time>
      </trkpt>
      <trkpt lat="43.87762" lon="7.35274">
        <ele>592</ele>
        <time>2018-04-24T08:41:03.000Z</time>
      </trkpt>
      <trkpt lat="43.87768" lon="7.35275">
        <ele>592</ele>
        <time>2018-04-24T08:41:05.000Z</time>
      </trkpt>
      <trkpt lat="43.87779" lon="7.35279">
        <ele>592</ele>
        <time>2018-04-24T08:41:09.000Z</time>
      </trkpt>
      <trkpt lat="43.87788" lon="7.35281">
        <ele>593</ele>
        <time>2018-04-24T08:41:12.000Z</time>
      </trkpt>
      <trkpt lat="43.87798" lon="7.35285">
        <ele>593</ele>
        <time>2018-04-24T08:41:15.000Z</time>
      </trkpt>
      <trkpt lat="43.87804" lon="7.35288">
        <ele>593</ele>
        <time>2018-04-24T08:41:17.000Z</time>
      </trkpt>
      <trkpt lat="43.87816" lon="7.35298">
        <ele>593</ele>
        <time>2018-04-24T08:41:22.000Z</time>
      </trkpt>
      <trkpt lat="43.87829" lon="7.35316">
        <ele>590</ele>
        <time>2018-04-24T08:41:29.000Z</time>
      </trkpt>
      <trkpt lat="43.87831" lon="7.35318">
        <ele>590</ele>
        <time>2018-04-24T08:41:30.000Z</time>
      </trkpt>
      <trkpt lat="43.87836" lon="7.35328">
        <ele>594</ele>
        <time>2018-04-24T08:41:34.000Z</time>
      </trkpt>
      <trkpt lat="43.8784" lon="7.35333">
        <ele>595</ele>
        <time>2018-04-24T08:41:36.000Z</time>
      </trkpt>
      <trkpt lat="43.87849" lon="7.35342">
        <ele>593</ele>
        <time>2018-04-24T08:41:40.000Z</time>
      </trkpt>
      <trkpt lat="43.87857" lon="7.35349">
        <ele>595</ele>
        <time>2018-04-24T08:41:44.000Z</time>
      </trkpt>
      <trkpt lat="43.87862" lon="7.35353">
        <ele>595</ele>
        <time>2018-04-24T08:41:46.000Z</time>
      </trkpt>
      <trkpt lat="43.87874" lon="7.35363">
        <ele>597</ele>
        <time>2018-04-24T08:41:52.000Z</time>
      </trkpt>
      <trkpt lat="43.87886" lon="7.35372">
        <ele>598</ele>
        <time>2018-04-24T08:41:58.000Z</time>
      </trkpt>
      <trkpt lat="43.87892" lon="7.35377">
        <ele>598</ele>
        <time>2018-04-24T08:42:01.000Z</time>
      </trkpt>
      <trkpt lat="43.87897" lon="7.35382">
        <ele>598</ele>
        <time>2018-04-24T08:42:04.000Z</time>
      </trkpt>
      <trkpt lat="43.87905" lon="7.35388">
        <ele>598</ele>
        <time>2018-04-24T08:42:08.000Z</time>
      </trkpt>
      <trkpt lat="43.87908" lon="7.3539">
        <ele>598</ele>
        <time>2018-04-24T08:42:10.000Z</time>
      </trkpt>
      <trkpt lat="43.87919" lon="7.35399">
        <ele>610</ele>
        <time>2018-04-24T08:42:16.000Z</time>
      </trkpt>
      <trkpt lat="43.8793" lon="7.35407">
        <ele>610</ele>
        <time>2018-04-24T08:42:22.000Z</time>
      </trkpt>
      <trkpt lat="43.87934" lon="7.3541">
        <ele>611</ele>
        <time>2018-04-24T08:42:25.000Z</time>
      </trkpt>
      <trkpt lat="43.87939" lon="7.35414">
        <ele>612</ele>
        <time>2018-04-24T08:42:28.000Z</time>
      </trkpt>
      <trkpt lat="43.87942" lon="7.35416">
        <ele>613</ele>
        <time>2018-04-24T08:42:30.000Z</time>
      </trkpt>
      <trkpt lat="43.87951" lon="7.35422">
        <ele>603</ele>
        <time>2018-04-24T08:42:35.000Z</time>
      </trkpt>
      <trkpt lat="43.87954" lon="7.35425">
        <ele>604</ele>
        <time>2018-04-24T08:42:37.000Z</time>
      </trkpt>
      <trkpt lat="43.87962" lon="7.3543">
        <ele>605</ele>
        <time>2018-04-24T08:42:41.000Z</time>
      </trkpt>
      <trkpt lat="43.87971" lon="7.35436">
        <ele>606</ele>
        <time>2018-04-24T08:42:46.000Z</time>
      </trkpt>
      <trkpt lat="43.87973" lon="7.35437">
        <ele>606</ele>
        <time>2018-04-24T08:42:47.000Z</time>
      </trkpt>
      <trkpt lat="43.87986" lon="7.35445">
        <ele>607</ele>
        <time>2018-04-24T08:42:54.000Z</time>
      </trkpt>
      <trkpt lat="43.87991" lon="7.35447">
        <ele>607</ele>
        <time>2018-04-24T08:42:56.000Z</time>
      </trkpt>
      <trkpt lat="43.87996" lon="7.3545">
        <ele>607</ele>
        <time>2018-04-24T08:42:59.000Z</time>
      </trkpt>
      <trkpt lat="43.8801" lon="7.35452">
        <ele>617</ele>
        <time>2018-04-24T08:43:05.000Z</time>
      </trkpt>
      <trkpt lat="43.88027" lon="7.35452">
        <ele>617</ele>
        <time>2018-04-24T08:43:12.000Z</time>
      </trkpt>
      <trkpt lat="43.88031" lon="7.35453">
        <ele>618</ele>
        <time>2018-04-24T08:43:14.000Z</time>
      </trkpt>
      <trkpt lat="43.88039" lon="7.35458">
        <ele>618</ele>
        <time>2018-04-24T08:43:18.000Z</time>
      </trkpt>
      <trkpt lat="43.88047" lon="7.35466">
        <ele>617</ele>
        <time>2018-04-24T08:43:22.000Z</time>
      </trkpt>
      <trkpt lat="43.88052" lon="7.35475">
        <ele>617</ele>
        <time>2018-04-24T08:43:25.000Z</time>
      </trkpt>
      <trkpt lat="43.88056" lon="7.35486">
        <ele>617</ele>
        <time>2018-04-24T08:43:29.000Z</time>
      </trkpt>
      <trkpt lat="43.88057" lon="7.3549">
        <ele>617</ele>
        <time>2018-04-24T08:43:30.000Z</time>
      </trkpt>
      <trkpt lat="43.88059" lon="7.35507">
        <ele>613</ele>
        <time>2018-04-24T08:43:36.000Z</time>
      </trkpt>
      <trkpt lat="43.88058" lon="7.35512">
        <ele>613</ele>
        <time>2018-04-24T08:43:38.000Z</time>
      </trkpt>
      <trkpt lat="43.88055" lon="7.3552">
        <ele>612</ele>
        <time>2018-04-24T08:43:41.000Z</time>
      </trkpt>
      <trkpt lat="43.88053" lon="7.35521">
        <ele>612</ele>
        <time>2018-04-24T08:43:42.000Z</time>
      </trkpt>
      <trkpt lat="43.8805" lon="7.35527">
        <ele>611</ele>
        <time>2018-04-24T08:43:45.000Z</time>
      </trkpt>
      <trkpt lat="43.88051" lon="7.35529">
        <ele>611</ele>
        <time>2018-04-24T08:43:46.000Z</time>
      </trkpt>
      <trkpt lat="43.88052" lon="7.35538">
        <ele>612</ele>
        <time>2018-04-24T08:43:50.000Z</time>
      </trkpt>
      <trkpt lat="43.88053" lon="7.3555">
        <ele>612</ele>
        <time>2018-04-24T08:43:53.000Z</time>
      </trkpt>
      <trkpt lat="43.88053" lon="7.35554">
        <ele>612</ele>
        <time>2018-04-24T08:43:54.000Z</time>
      </trkpt>
      <trkpt lat="43.88054" lon="7.35556">
        <ele>612</ele>
        <time>2018-04-24T08:43:55.000Z</time>
      </trkpt>
      <trkpt lat="43.88055" lon="7.35565">
        <ele>613</ele>
        <time>2018-04-24T08:43:58.000Z</time>
      </trkpt>
      <trkpt lat="43.88055" lon="7.35575">
        <ele>613</ele>
        <time>2018-04-24T08:44:00.000Z</time>
      </trkpt>
      <trkpt lat="43.88055" lon="7.35596">
        <ele>613</ele>
        <time>2018-04-24T08:44:05.000Z</time>
      </trkpt>
      <trkpt lat="43.88053" lon="7.35614">
        <ele>612</ele>
        <time>2018-04-24T08:44:11.000Z</time>
      </trkpt>
      <trkpt lat="43.88052" lon="7.35623">
        <ele>612</ele>
        <time>2018-04-24T08:44:14.000Z</time>
      </trkpt>
      <trkpt lat="43.88052" lon="7.35632">
        <ele>612</ele>
        <time>2018-04-24T08:44:17.000Z</time>
      </trkpt>
      <trkpt lat="43.88052" lon="7.35643">
        <ele>612</ele>
        <time>2018-04-24T08:44:21.000Z</time>
      </trkpt>
      <trkpt lat="43.88052" lon="7.35652">
        <ele>612</ele>
        <time>2018-04-24T08:44:24.000Z</time>
      </trkpt>
      <trkpt lat="43.88054" lon="7.35657">
        <ele>613</ele>
        <time>2018-04-24T08:44:26.000Z</time>
      </trkpt>
      <trkpt lat="43.88056" lon="7.35662">
        <ele>613</ele>
        <time>2018-04-24T08:44:28.000Z</time>
      </trkpt>
      <trkpt lat="43.88061" lon="7.35673">
        <ele>614</ele>
        <time>2018-04-24T08:44:33.000Z</time>
      </trkpt>
      <trkpt lat="43.88065" lon="7.35681">
        <ele>615</ele>
        <time>2018-04-24T08:44:36.000Z</time>
      </trkpt>
      <trkpt lat="43.88071" lon="7.35689">
        <ele>615</ele>
        <time>2018-04-24T08:44:40.000Z</time>
      </trkpt>
      <trkpt lat="43.88076" lon="7.35696">
        <ele>614</ele>
        <time>2018-04-24T08:44:43.000Z</time>
      </trkpt>
      <trkpt lat="43.88085" lon="7.3571">
        <ele>626</ele>
        <time>2018-04-24T08:44:49.000Z</time>
      </trkpt>
      <trkpt lat="43.88086" lon="7.35712">
        <ele>626</ele>
        <time>2018-04-24T08:44:50.000Z</time>
      </trkpt>
      <trkpt lat="43.88095" lon="7.35726">
        <ele>625</ele>
        <time>2018-04-24T08:44:56.000Z</time>
      </trkpt>
      <trkpt lat="43.88097" lon="7.35729">
        <ele>625</ele>
        <time>2018-04-24T08:44:57.000Z</time>
      </trkpt>
      <trkpt lat="43.88104" lon="7.35743">
        <ele>624</ele>
        <time>2018-04-24T08:45:03.000Z</time>
      </trkpt>
      <trkpt lat="43.88109" lon="7.35755">
        <ele>622</ele>
        <time>2018-04-24T08:45:07.000Z</time>
      </trkpt>
      <trkpt lat="43.88112" lon="7.35763">
        <ele>622</ele>
        <time>2018-04-24T08:45:10.000Z</time>
      </trkpt>
      <trkpt lat="43.88116" lon="7.35777">
        <ele>623</ele>
        <time>2018-04-24T08:45:15.000Z</time>
      </trkpt>
      <trkpt lat="43.88118" lon="7.35782">
        <ele>623</ele>
        <time>2018-04-24T08:45:17.000Z</time>
      </trkpt>
      <trkpt lat="43.88123" lon="7.35795">
        <ele>623</ele>
        <time>2018-04-24T08:45:22.000Z</time>
      </trkpt>
      <trkpt lat="43.88125" lon="7.35801">
        <ele>623</ele>
        <time>2018-04-24T08:45:24.000Z</time>
      </trkpt>
      <trkpt lat="43.88132" lon="7.35815">
        <ele>624</ele>
        <time>2018-04-24T08:45:30.000Z</time>
      </trkpt>
      <trkpt lat="43.88136" lon="7.35823">
        <ele>624</ele>
        <time>2018-04-24T08:45:33.000Z</time>
      </trkpt>
      <trkpt lat="43.88142" lon="7.35834">
        <ele>624</ele>
        <time>2018-04-24T08:45:38.000Z</time>
      </trkpt>
      <trkpt lat="43.88147" lon="7.35846">
        <ele>624</ele>
        <time>2018-04-24T08:45:43.000Z</time>
      </trkpt>
      <trkpt lat="43.88149" lon="7.35851">
        <ele>624</ele>
        <time>2018-04-24T08:45:45.000Z</time>
      </trkpt>
      <trkpt lat="43.88154" lon="7.35859">
        <ele>624</ele>
        <time>2018-04-24T08:45:48.000Z</time>
      </trkpt>
      <trkpt lat="43.88162" lon="7.35876">
        <ele>623</ele>
        <time>2018-04-24T08:45:54.000Z</time>
      </trkpt>
      <trkpt lat="43.88173" lon="7.35904">
        <ele>631</ele>
        <time>2018-04-24T08:46:02.000Z</time>
      </trkpt>
      <trkpt lat="43.88182" lon="7.35929">
        <ele>630</ele>
        <time>2018-04-24T08:46:09.000Z</time>
      </trkpt>
      <trkpt lat="43.88191" lon="7.35948">
        <ele>632</ele>
        <time>2018-04-24T08:46:14.000Z</time>
      </trkpt>
      <trkpt lat="43.88198" lon="7.35958">
        <ele>632</ele>
        <time>2018-04-24T08:46:17.000Z</time>
      </trkpt>
      <trkpt lat="43.88223" lon="7.35988">
        <ele>635</ele>
        <time>2018-04-24T08:46:26.000Z</time>
      </trkpt>
      <trkpt lat="43.88225" lon="7.35992">
        <ele>635</ele>
        <time>2018-04-24T08:46:27.000Z</time>
      </trkpt>
      <trkpt lat="43.88246" lon="7.3602">
        <ele>638</ele>
        <time>2018-04-24T08:46:35.000Z</time>
      </trkpt>
      <trkpt lat="43.8825" lon="7.36028">
        <ele>643</ele>
        <time>2018-04-24T08:46:37.000Z</time>
      </trkpt>
      <trkpt lat="43.88256" lon="7.36045">
        <ele>644</ele>
        <time>2018-04-24T08:46:41.000Z</time>
      </trkpt>
      <trkpt lat="43.88264" lon="7.36055">
        <ele>644</ele>
        <time>2018-04-24T08:46:44.000Z</time>
      </trkpt>
      <trkpt lat="43.8827" lon="7.3606">
        <ele>644</ele>
        <time>2018-04-24T08:46:46.000Z</time>
      </trkpt>
      <trkpt lat="43.88276" lon="7.36063">
        <ele>645</ele>
        <time>2018-04-24T08:46:48.000Z</time>
      </trkpt>
      <trkpt lat="43.88291" lon="7.36067">
        <ele>646</ele>
        <time>2018-04-24T08:46:53.000Z</time>
      </trkpt>
      <trkpt lat="43.88306" lon="7.36071">
        <ele>648</ele>
        <time>2018-04-24T08:46:59.000Z</time>
      </trkpt>
      <trkpt lat="43.88312" lon="7.36073">
        <ele>648</ele>
        <time>2018-04-24T08:47:01.000Z</time>
      </trkpt>
      <trkpt lat="43.88319" lon="7.36076">
        <ele>649</ele>
        <time>2018-04-24T08:47:04.000Z</time>
      </trkpt>
      <trkpt lat="43.88327" lon="7.36081">
        <ele>651</ele>
        <time>2018-04-24T08:47:07.000Z</time>
      </trkpt>
      <trkpt lat="43.88334" lon="7.36085">
        <ele>653</ele>
        <time>2018-04-24T08:47:10.000Z</time>
      </trkpt>
      <trkpt lat="43.88342" lon="7.36089">
        <ele>656</ele>
        <time>2018-04-24T08:47:14.000Z</time>
      </trkpt>
      <trkpt lat="43.8835" lon="7.36092">
        <ele>658</ele>
        <time>2018-04-24T08:47:17.000Z</time>
      </trkpt>
      <trkpt lat="43.8836" lon="7.36095">
        <ele>659</ele>
        <time>2018-04-24T08:47:21.000Z</time>
      </trkpt>
      <trkpt lat="43.8837" lon="7.36093">
        <ele>660</ele>
        <time>2018-04-24T08:47:25.000Z</time>
      </trkpt>
      <trkpt lat="43.88374" lon="7.36091">
        <ele>660</ele>
        <time>2018-04-24T08:47:27.000Z</time>
      </trkpt>
      <trkpt lat="43.88389" lon="7.36085">
        <ele>660</ele>
        <time>2018-04-24T08:47:32.000Z</time>
      </trkpt>
      <trkpt lat="43.88392" lon="7.36085">
        <ele>660</ele>
        <time>2018-04-24T08:47:33.000Z</time>
      </trkpt>
      <trkpt lat="43.88415" lon="7.36077">
        <ele>657</ele>
        <time>2018-04-24T08:47:41.000Z</time>
      </trkpt>
      <trkpt lat="43.8842" lon="7.36072">
        <ele>660</ele>
        <time>2018-04-24T08:47:44.000Z</time>
      </trkpt>
      <trkpt lat="43.8842" lon="7.36072">
        <ele>660</ele>
        <time>2018-04-24T08:47:46.000Z</time>
      </trkpt>
      <trkpt lat="43.88423" lon="7.36065">
        <ele>661</ele>
        <time>2018-04-24T08:47:51.000Z</time>
      </trkpt>
      <trkpt lat="43.88424" lon="7.36063">
        <ele>661</ele>
        <time>2018-04-24T08:47:53.000Z</time>
      </trkpt>
      <trkpt lat="43.88426" lon="7.36062">
        <ele>661</ele>
        <time>2018-04-24T08:47:54.000Z</time>
      </trkpt>
      <trkpt lat="43.88433" lon="7.36059">
        <ele>662</ele>
        <time>2018-04-24T08:47:57.000Z</time>
      </trkpt>
      <trkpt lat="43.88437" lon="7.36057">
        <ele>662</ele>
        <time>2018-04-24T08:47:59.000Z</time>
      </trkpt>
      <trkpt lat="43.8844" lon="7.36053">
        <ele>663</ele>
        <time>2018-04-24T08:48:02.000Z</time>
      </trkpt>
      <trkpt lat="43.88444" lon="7.3605">
        <ele>663</ele>
        <time>2018-04-24T08:48:05.000Z</time>
      </trkpt>
      <trkpt lat="43.8845" lon="7.36047">
        <ele>663</ele>
        <time>2018-04-24T08:48:07.000Z</time>
      </trkpt>
      <trkpt lat="43.88466" lon="7.36044">
        <ele>664</ele>
        <time>2018-04-24T08:48:11.000Z</time>
      </trkpt>
      <trkpt lat="43.88473" lon="7.3604">
        <ele>665</ele>
        <time>2018-04-24T08:48:13.000Z</time>
      </trkpt>
      <trkpt lat="43.88487" lon="7.36033">
        <ele>666</ele>
        <time>2018-04-24T08:48:18.000Z</time>
      </trkpt>
      <trkpt lat="43.88492" lon="7.3603">
        <ele>666</ele>
        <time>2018-04-24T08:48:21.000Z</time>
      </trkpt>
      <trkpt lat="43.88495" lon="7.36028">
        <ele>666</ele>
        <time>2018-04-24T08:48:24.000Z</time>
      </trkpt>
      <trkpt lat="43.88498" lon="7.36025">
        <ele>667</ele>
        <time>2018-04-24T08:48:25.000Z</time>
      </trkpt>
      <trkpt lat="43.88503" lon="7.36024">
        <ele>672</ele>
        <time>2018-04-24T08:48:26.000Z</time>
      </trkpt>
      <trkpt lat="43.88507" lon="7.36018">
        <ele>672</ele>
        <time>2018-04-24T08:48:30.000Z</time>
      </trkpt>
      <trkpt lat="43.88509" lon="7.36018">
        <ele>672</ele>
        <time>2018-04-24T08:48:32.000Z</time>
      </trkpt>
      <trkpt lat="43.88509" lon="7.36018">
        <ele>672</ele>
        <time>2018-04-24T08:48:35.000Z</time>
      </trkpt>
      <trkpt lat="43.8851" lon="7.36018">
        <ele>672</ele>
        <time>2018-04-24T08:48:44.000Z</time>
      </trkpt>
      <trkpt lat="43.88509" lon="7.36017">
        <ele>672</ele>
        <time>2018-04-24T08:48:50.000Z</time>
      </trkpt>
      <trkpt lat="43.88509" lon="7.36017">
        <ele>672</ele>
        <time>2018-04-24T08:49:03.000Z</time>
      </trkpt>
      <trkpt lat="43.88507" lon="7.36012">
        <ele>672</ele>
        <time>2018-04-24T08:49:16.000Z</time>
      </trkpt>
      <trkpt lat="43.88511" lon="7.36015">
        <ele>672</ele>
        <time>2018-04-24T08:49:25.000Z</time>
      </trkpt>
      <trkpt lat="43.88511" lon="7.36015">
        <ele>672</ele>
        <time>2018-04-24T08:49:29.000Z</time>
      </trkpt>
      <trkpt lat="43.88511" lon="7.36013">
        <ele>672</ele>
        <time>2018-04-24T08:49:31.000Z</time>
      </trkpt>
      <trkpt lat="43.88512" lon="7.36012">
        <ele>672</ele>
        <time>2018-04-24T08:49:41.000Z</time>
      </trkpt>
      <trkpt lat="43.88513" lon="7.36012">
        <ele>672</ele>
        <time>2018-04-24T08:49:51.000Z</time>
      </trkpt>
      <trkpt lat="43.88514" lon="7.36013">
        <ele>672</ele>
        <time>2018-04-24T08:49:59.000Z</time>
      </trkpt>
      <trkpt lat="43.88513" lon="7.36013">
        <ele>672</ele>
        <time>2018-04-24T08:50:13.000Z</time>
      </trkpt>
      <trkpt lat="43.88511" lon="7.36017">
        <ele>672</ele>
        <time>2018-04-24T08:50:31.000Z</time>
      </trkpt>
      <trkpt lat="43.88511" lon="7.36017">
        <ele>672</ele>
        <time>2018-04-24T08:50:40.000Z</time>
      </trkpt>
      <trkpt lat="43.88511" lon="7.36013">
        <ele>672</ele>
        <time>2018-04-24T08:50:45.000Z</time>
      </trkpt>
      <trkpt lat="43.8851" lon="7.36012">
        <ele>672</ele>
        <time>2018-04-24T08:50:46.000Z</time>
      </trkpt>
      <trkpt lat="43.88507" lon="7.36012">
        <ele>672</ele>
        <time>2018-04-24T08:50:48.000Z</time>
      </trkpt>
      <trkpt lat="43.88491" lon="7.36019">
        <ele>667</ele>
        <time>2018-04-24T08:50:55.000Z</time>
      </trkpt>
      <trkpt lat="43.88489" lon="7.3602">
        <ele>667</ele>
        <time>2018-04-24T08:50:56.000Z</time>
      </trkpt>
      <trkpt lat="43.88474" lon="7.36026">
        <ele>665</ele>
        <time>2018-04-24T08:51:03.000Z</time>
      </trkpt>
      <trkpt lat="43.88469" lon="7.36027">
        <ele>665</ele>
        <time>2018-04-24T08:51:05.000Z</time>
      </trkpt>
      <trkpt lat="43.88458" lon="7.36027">
        <ele>665</ele>
        <time>2018-04-24T08:51:10.000Z</time>
      </trkpt>
      <trkpt lat="43.88454" lon="7.36027">
        <ele>664</ele>
        <time>2018-04-24T08:51:12.000Z</time>
      </trkpt>
      <trkpt lat="43.88443" lon="7.36025">
        <ele>664</ele>
        <time>2018-04-24T08:51:17.000Z</time>
      </trkpt>
      <trkpt lat="43.88438" lon="7.36023">
        <ele>664</ele>
        <time>2018-04-24T08:51:19.000Z</time>
      </trkpt>
      <trkpt lat="43.88427" lon="7.36024">
        <ele>663</ele>
        <time>2018-04-24T08:51:24.000Z</time>
      </trkpt>
      <trkpt lat="43.88423" lon="7.36026">
        <ele>663</ele>
        <time>2018-04-24T08:51:26.000Z</time>
      </trkpt>
      <trkpt lat="43.88411" lon="7.36028">
        <ele>659</ele>
        <time>2018-04-24T08:51:31.000Z</time>
      </trkpt>
      <trkpt lat="43.88408" lon="7.36027">
        <ele>659</ele>
        <time>2018-04-24T08:51:32.000Z</time>
      </trkpt>
      <trkpt lat="43.88399" lon="7.36022">
        <ele>659</ele>
        <time>2018-04-24T08:51:36.000Z</time>
      </trkpt>
      <trkpt lat="43.88395" lon="7.36017">
        <ele>659</ele>
        <time>2018-04-24T08:51:38.000Z</time>
      </trkpt>
      <trkpt lat="43.88387" lon="7.36003">
        <ele>659</ele>
        <time>2018-04-24T08:51:43.000Z</time>
      </trkpt>
      <trkpt lat="43.88381" lon="7.35987">
        <ele>665</ele>
        <time>2018-04-24T08:51:48.000Z</time>
      </trkpt>
      <trkpt lat="43.8837" lon="7.3596">
        <ele>666</ele>
        <time>2018-04-24T08:51:56.000Z</time>
      </trkpt>
      <trkpt lat="43.88369" lon="7.35956">
        <ele>666</ele>
        <time>2018-04-24T08:51:57.000Z</time>
      </trkpt>
      <trkpt lat="43.8836" lon="7.35931">
        <ele>666</ele>
        <time>2018-04-24T08:52:04.000Z</time>
      </trkpt>
      <trkpt lat="43.88357" lon="7.35924">
        <ele>666</ele>
        <time>2018-04-24T08:52:06.000Z</time>
      </trkpt>
      <trkpt lat="43.88351" lon="7.35909">
        <ele>673</ele>
        <time>2018-04-24T08:52:11.000Z</time>
      </trkpt>
      <trkpt lat="43.8835" lon="7.35906">
        <ele>673</ele>
        <time>2018-04-24T08:52:12.000Z</time>
      </trkpt>
      <trkpt lat="43.88341" lon="7.35886">
        <ele>677</ele>
        <time>2018-04-24T08:52:18.000Z</time>
      </trkpt>
      <trkpt lat="43.8834" lon="7.35883">
        <ele>677</ele>
        <time>2018-04-24T08:52:19.000Z</time>
      </trkpt>
      <trkpt lat="43.88331" lon="7.35866">
        <ele>664</ele>
        <time>2018-04-24T08:52:25.000Z</time>
      </trkpt>
      <trkpt lat="43.88329" lon="7.35863">
        <ele>664</ele>
        <time>2018-04-24T08:52:26.000Z</time>
      </trkpt>
      <trkpt lat="43.88321" lon="7.35848">
        <ele>667</ele>
        <time>2018-04-24T08:52:31.000Z</time>
      </trkpt>
      <trkpt lat="43.88316" lon="7.3584">
        <ele>667</ele>
        <time>2018-04-24T08:52:34.000Z</time>
      </trkpt>
      <trkpt lat="43.88308" lon="7.35829">
        <ele>674</ele>
        <time>2018-04-24T08:52:38.000Z</time>
      </trkpt>
      <trkpt lat="43.88304" lon="7.35824">
        <ele>673</ele>
        <time>2018-04-24T08:52:40.000Z</time>
      </trkpt>
      <trkpt lat="43.88294" lon="7.35813">
        <ele>672</ele>
        <time>2018-04-24T08:52:44.000Z</time>
      </trkpt>
      <trkpt lat="43.88283" lon="7.358">
        <ele>672</ele>
        <time>2018-04-24T08:52:49.000Z</time>
      </trkpt>
      <trkpt lat="43.88278" lon="7.35795">
        <ele>672</ele>
        <time>2018-04-24T08:52:51.000Z</time>
      </trkpt>
      <trkpt lat="43.88265" lon="7.35781">
        <ele>671</ele>
        <time>2018-04-24T08:52:57.000Z</time>
      </trkpt>
      <trkpt lat="43.88261" lon="7.35776">
        <ele>671</ele>
        <time>2018-04-24T08:52:59.000Z</time>
      </trkpt>
      <trkpt lat="43.88253" lon="7.35761">
        <ele>670</ele>
        <time>2018-04-24T08:53:04.000Z</time>
      </trkpt>
      <trkpt lat="43.8825" lon="7.35751">
        <ele>668</ele>
        <time>2018-04-24T08:53:07.000Z</time>
      </trkpt>
      <trkpt lat="43.88245" lon="7.35734">
        <ele>662</ele>
        <time>2018-04-24T08:53:12.000Z</time>
      </trkpt>
      <trkpt lat="43.88244" lon="7.35727">
        <ele>661</ele>
        <time>2018-04-24T08:53:14.000Z</time>
      </trkpt>
      <trkpt lat="43.88242" lon="7.35706">
        <ele>659</ele>
        <time>2018-04-24T08:53:20.000Z</time>
      </trkpt>
      <trkpt lat="43.88242" lon="7.35699">
        <ele>660</ele>
        <time>2018-04-24T08:53:22.000Z</time>
      </trkpt>
      <trkpt lat="43.88246" lon="7.35686">
        <ele>661</ele>
        <time>2018-04-24T08:53:26.000Z</time>
      </trkpt>
      <trkpt lat="43.8825" lon="7.35681">
        <ele>673</ele>
        <time>2018-04-24T08:53:28.000Z</time>
      </trkpt>
      <trkpt lat="43.8826" lon="7.35675">
        <ele>673</ele>
        <time>2018-04-24T08:53:32.000Z</time>
      </trkpt>
      <trkpt lat="43.88265" lon="7.35672">
        <ele>674</ele>
        <time>2018-04-24T08:53:34.000Z</time>
      </trkpt>
      <trkpt lat="43.88277" lon="7.35668">
        <ele>677</ele>
        <time>2018-04-24T08:53:39.000Z</time>
      </trkpt>
      <trkpt lat="43.88282" lon="7.35665">
        <ele>673</ele>
        <time>2018-04-24T08:53:41.000Z</time>
      </trkpt>
      <trkpt lat="43.88298" lon="7.35657">
        <ele>676</ele>
        <time>2018-04-24T08:53:48.000Z</time>
      </trkpt>
      <trkpt lat="43.88313" lon="7.35646">
        <ele>678</ele>
        <time>2018-04-24T08:53:55.000Z</time>
      </trkpt>
      <trkpt lat="43.88315" lon="7.35644">
        <ele>678</ele>
        <time>2018-04-24T08:53:56.000Z</time>
      </trkpt>
      <trkpt lat="43.88329" lon="7.35632">
        <ele>677</ele>
        <time>2018-04-24T08:54:03.000Z</time>
      </trkpt>
      <trkpt lat="43.88331" lon="7.3563">
        <ele>677</ele>
        <time>2018-04-24T08:54:04.000Z</time>
      </trkpt>
      <trkpt lat="43.88342" lon="7.35618">
        <ele>692</ele>
        <time>2018-04-24T08:54:09.000Z</time>
      </trkpt>
      <trkpt lat="43.88352" lon="7.35606">
        <ele>690</ele>
        <time>2018-04-24T08:54:14.000Z</time>
      </trkpt>
      <trkpt lat="43.8836" lon="7.35597">
        <ele>691</ele>
        <time>2018-04-24T08:54:18.000Z</time>
      </trkpt>
      <trkpt lat="43.88374" lon="7.35587">
        <ele>693</ele>
        <time>2018-04-24T08:54:24.000Z</time>
      </trkpt>
      <trkpt lat="43.88378" lon="7.35583">
        <ele>686</ele>
        <time>2018-04-24T08:54:26.000Z</time>
      </trkpt>
      <trkpt lat="43.88389" lon="7.35575">
        <ele>688</ele>
        <time>2018-04-24T08:54:31.000Z</time>
      </trkpt>
      <trkpt lat="43.88392" lon="7.35574">
        <ele>688</ele>
        <time>2018-04-24T08:54:32.000Z</time>
      </trkpt>
      <trkpt lat="43.8841" lon="7.35567">
        <ele>690</ele>
        <time>2018-04-24T08:54:39.000Z</time>
      </trkpt>
      <trkpt lat="43.88412" lon="7.35566">
        <ele>690</ele>
        <time>2018-04-24T08:54:40.000Z</time>
      </trkpt>
      <trkpt lat="43.88426" lon="7.35559">
        <ele>697</ele>
        <time>2018-04-24T08:54:46.000Z</time>
      </trkpt>
      <trkpt lat="43.88428" lon="7.35558">
        <ele>697</ele>
        <time>2018-04-24T08:54:47.000Z</time>
      </trkpt>
      <trkpt lat="43.88441" lon="7.3555">
        <ele>697</ele>
        <time>2018-04-24T08:54:53.000Z</time>
      </trkpt>
      <trkpt lat="43.88444" lon="7.35549">
        <ele>697</ele>
        <time>2018-04-24T08:54:54.000Z</time>
      </trkpt>
      <trkpt lat="43.88461" lon="7.35543">
        <ele>698</ele>
        <time>2018-04-24T08:55:00.000Z</time>
      </trkpt>
      <trkpt lat="43.88468" lon="7.35538">
        <ele>698</ele>
        <time>2018-04-24T08:55:03.000Z</time>
      </trkpt>
      <trkpt lat="43.88478" lon="7.35531">
        <ele>698</ele>
        <time>2018-04-24T08:55:07.000Z</time>
      </trkpt>
      <trkpt lat="43.88486" lon="7.35532">
        <ele>698</ele>
        <time>2018-04-24T08:55:10.000Z</time>
      </trkpt>
      <trkpt lat="43.88485" lon="7.3554">
        <ele>699</ele>
        <time>2018-04-24T08:55:13.000Z</time>
      </trkpt>
      <trkpt lat="43.88483" lon="7.35541">
        <ele>699</ele>
        <time>2018-04-24T08:55:14.000Z</time>
      </trkpt>
      <trkpt lat="43.88481" lon="7.35542">
        <ele>699</ele>
        <time>2018-04-24T08:55:15.000Z</time>
      </trkpt>
      <trkpt lat="43.88476" lon="7.35546">
        <ele>699</ele>
        <time>2018-04-24T08:55:18.000Z</time>
      </trkpt>
      <trkpt lat="43.88468" lon="7.3555">
        <ele>699</ele>
        <time>2018-04-24T08:55:22.000Z</time>
      </trkpt>
      <trkpt lat="43.88462" lon="7.35554">
        <ele>699</ele>
        <time>2018-04-24T08:55:25.000Z</time>
      </trkpt>
      <trkpt lat="43.8845" lon="7.3556">
        <ele>698</ele>
        <time>2018-04-24T08:55:31.000Z</time>
      </trkpt>
      <trkpt lat="43.88448" lon="7.35562">
        <ele>698</ele>
        <time>2018-04-24T08:55:32.000Z</time>
      </trkpt>
      <trkpt lat="43.88436" lon="7.35568">
        <ele>697</ele>
        <time>2018-04-24T08:55:38.000Z</time>
      </trkpt>
      <trkpt lat="43.88434" lon="7.35569">
        <ele>697</ele>
        <time>2018-04-24T08:55:39.000Z</time>
      </trkpt>
      <trkpt lat="43.88421" lon="7.35578">
        <ele>696</ele>
        <time>2018-04-24T08:55:46.000Z</time>
      </trkpt>
      <trkpt lat="43.88417" lon="7.3558">
        <ele>696</ele>
        <time>2018-04-24T08:55:48.000Z</time>
      </trkpt>
      <trkpt lat="43.88405" lon="7.35586">
        <ele>697</ele>
        <time>2018-04-24T08:55:54.000Z</time>
      </trkpt>
      <trkpt lat="43.88401" lon="7.35589">
        <ele>697</ele>
        <time>2018-04-24T08:55:56.000Z</time>
      </trkpt>
      <trkpt lat="43.88393" lon="7.35594">
        <ele>696</ele>
        <time>2018-04-24T08:56:00.000Z</time>
      </trkpt>
      <trkpt lat="43.88386" lon="7.356">
        <ele>696</ele>
        <time>2018-04-24T08:56:04.000Z</time>
      </trkpt>
      <trkpt lat="43.88381" lon="7.35608">
        <ele>696</ele>
        <time>2018-04-24T08:56:07.000Z</time>
      </trkpt>
      <trkpt lat="43.88377" lon="7.35613">
        <ele>696</ele>
        <time>2018-04-24T08:56:09.000Z</time>
      </trkpt>
      <trkpt lat="43.88375" lon="7.35615">
        <ele>696</ele>
        <time>2018-04-24T08:56:10.000Z</time>
      </trkpt>
      <trkpt lat="43.88366" lon="7.35627">
        <ele>696</ele>
        <time>2018-04-24T08:56:15.000Z</time>
      </trkpt>
      <trkpt lat="43.88359" lon="7.35636">
        <ele>697</ele>
        <time>2018-04-24T08:56:19.000Z</time>
      </trkpt>
      <trkpt lat="43.88351" lon="7.35649">
        <ele>696</ele>
        <time>2018-04-24T08:56:24.000Z</time>
      </trkpt>
      <trkpt lat="43.8834" lon="7.35663">
        <ele>695</ele>
        <time>2018-04-24T08:56:30.000Z</time>
      </trkpt>
      <trkpt lat="43.88337" lon="7.35668">
        <ele>696</ele>
        <time>2018-04-24T08:56:32.000Z</time>
      </trkpt>
      <trkpt lat="43.88325" lon="7.35685">
        <ele>688</ele>
        <time>2018-04-24T08:56:39.000Z</time>
      </trkpt>
      <trkpt lat="43.88323" lon="7.35687">
        <ele>687</ele>
        <time>2018-04-24T08:56:40.000Z</time>
      </trkpt>
      <trkpt lat="43.88311" lon="7.35708">
        <ele>685</ele>
        <time>2018-04-24T08:56:48.000Z</time>
      </trkpt>
      <trkpt lat="43.8831" lon="7.35711">
        <ele>685</ele>
        <time>2018-04-24T08:56:49.000Z</time>
      </trkpt>
      <trkpt lat="43.88311" lon="7.35728">
        <ele>687</ele>
        <time>2018-04-24T08:56:54.000Z</time>
      </trkpt>
      <trkpt lat="43.88312" lon="7.35731">
        <ele>687</ele>
        <time>2018-04-24T08:56:55.000Z</time>
      </trkpt>
      <trkpt lat="43.88322" lon="7.35748">
        <ele>693</ele>
        <time>2018-04-24T08:57:01.000Z</time>
      </trkpt>
      <trkpt lat="43.88326" lon="7.35752">
        <ele>693</ele>
        <time>2018-04-24T08:57:03.000Z</time>
      </trkpt>
      <trkpt lat="43.88339" lon="7.35763">
        <ele>702</ele>
        <time>2018-04-24T08:57:09.000Z</time>
      </trkpt>
      <trkpt lat="43.88349" lon="7.35769">
        <ele>703</ele>
        <time>2018-04-24T08:57:13.000Z</time>
      </trkpt>
      <trkpt lat="43.88363" lon="7.35781">
        <ele>705</ele>
        <time>2018-04-24T08:57:19.000Z</time>
      </trkpt>
      <trkpt lat="43.88377" lon="7.35794">
        <ele>706</ele>
        <time>2018-04-24T08:57:25.000Z</time>
      </trkpt>
      <trkpt lat="43.88381" lon="7.35799">
        <ele>706</ele>
        <time>2018-04-24T08:57:27.000Z</time>
      </trkpt>
      <trkpt lat="43.88396" lon="7.35815">
        <ele>707</ele>
        <time>2018-04-24T08:57:35.000Z</time>
      </trkpt>
      <trkpt lat="43.88398" lon="7.35816">
        <ele>708</ele>
        <time>2018-04-24T08:57:36.000Z</time>
      </trkpt>
      <trkpt lat="43.884" lon="7.35815">
        <ele>708</ele>
        <time>2018-04-24T08:57:37.000Z</time>
      </trkpt>
      <trkpt lat="43.88404" lon="7.35811">
        <ele>709</ele>
        <time>2018-04-24T08:57:39.000Z</time>
      </trkpt>
      <trkpt lat="43.88402" lon="7.35799">
        <ele>710</ele>
        <time>2018-04-24T08:57:43.000Z</time>
      </trkpt>
      <trkpt lat="43.88391" lon="7.35788">
        <ele>710</ele>
        <time>2018-04-24T08:57:48.000Z</time>
      </trkpt>
      <trkpt lat="43.88387" lon="7.35784">
        <ele>709</ele>
        <time>2018-04-24T08:57:50.000Z</time>
      </trkpt>
      <trkpt lat="43.88385" lon="7.35782">
        <ele>709</ele>
        <time>2018-04-24T08:57:51.000Z</time>
      </trkpt>
      <trkpt lat="43.88372" lon="7.3577">
        <ele>708</ele>
        <time>2018-04-24T08:57:57.000Z</time>
      </trkpt>
      <trkpt lat="43.88368" lon="7.35767">
        <ele>707</ele>
        <time>2018-04-24T08:57:59.000Z</time>
      </trkpt>
      <trkpt lat="43.88359" lon="7.35759">
        <ele>706</ele>
        <time>2018-04-24T08:58:03.000Z</time>
      </trkpt>
      <trkpt lat="43.88353" lon="7.35753">
        <ele>704</ele>
        <time>2018-04-24T08:58:06.000Z</time>
      </trkpt>
      <trkpt lat="43.88347" lon="7.35748">
        <ele>707</ele>
        <time>2018-04-24T08:58:09.000Z</time>
      </trkpt>
      <trkpt lat="43.88342" lon="7.35739">
        <ele>706</ele>
        <time>2018-04-24T08:58:13.000Z</time>
      </trkpt>
      <trkpt lat="43.8834" lon="7.35731">
        <ele>707</ele>
        <time>2018-04-24T08:58:16.000Z</time>
      </trkpt>
      <trkpt lat="43.88341" lon="7.3572">
        <ele>708</ele>
        <time>2018-04-24T08:58:19.000Z</time>
      </trkpt>
      <trkpt lat="43.88343" lon="7.35714">
        <ele>709</ele>
        <time>2018-04-24T08:58:21.000Z</time>
      </trkpt>
      <trkpt lat="43.88347" lon="7.35707">
        <ele>709</ele>
        <time>2018-04-24T08:58:24.000Z</time>
      </trkpt>
      <trkpt lat="43.88349" lon="7.35705">
        <ele>709</ele>
        <time>2018-04-24T08:58:25.000Z</time>
      </trkpt>
      <trkpt lat="43.88359" lon="7.35693">
        <ele>710</ele>
        <time>2018-04-24T08:58:32.000Z</time>
      </trkpt>
      <trkpt lat="43.88361" lon="7.35691">
        <ele>710</ele>
        <time>2018-04-24T08:58:33.000Z</time>
      </trkpt>
      <trkpt lat="43.8837" lon="7.35684">
        <ele>712</ele>
        <time>2018-04-24T08:58:38.000Z</time>
      </trkpt>
      <trkpt lat="43.88376" lon="7.35678">
        <ele>713</ele>
        <time>2018-04-24T08:58:42.000Z</time>
      </trkpt>
      <trkpt lat="43.88381" lon="7.35673">
        <ele>715</ele>
        <time>2018-04-24T08:58:45.000Z</time>
      </trkpt>
      <trkpt lat="43.88393" lon="7.35663">
        <ele>709</ele>
        <time>2018-04-24T08:58:52.000Z</time>
      </trkpt>
      <trkpt lat="43.88405" lon="7.35654">
        <ele>713</ele>
        <time>2018-04-24T08:58:58.000Z</time>
      </trkpt>
      <trkpt lat="43.8841" lon="7.35651">
        <ele>713</ele>
        <time>2018-04-24T08:59:00.000Z</time>
      </trkpt>
      <trkpt lat="43.88421" lon="7.35645">
        <ele>723</ele>
        <time>2018-04-24T08:59:05.000Z</time>
      </trkpt>
      <trkpt lat="43.88431" lon="7.35642">
        <ele>722</ele>
        <time>2018-04-24T08:59:09.000Z</time>
      </trkpt>
      <trkpt lat="43.88436" lon="7.35642">
        <ele>722</ele>
        <time>2018-04-24T08:59:11.000Z</time>
      </trkpt>
      <trkpt lat="43.88447" lon="7.35639">
        <ele>723</ele>
        <time>2018-04-24T08:59:16.000Z</time>
      </trkpt>
      <trkpt lat="43.8845" lon="7.35638">
        <ele>723</ele>
        <time>2018-04-24T08:59:17.000Z</time>
      </trkpt>
      <trkpt lat="43.88463" lon="7.35636">
        <ele>724</ele>
        <time>2018-04-24T08:59:22.000Z</time>
      </trkpt>
      <trkpt lat="43.88473" lon="7.35635">
        <ele>725</ele>
        <time>2018-04-24T08:59:26.000Z</time>
      </trkpt>
      <trkpt lat="43.88478" lon="7.35635">
        <ele>726</ele>
        <time>2018-04-24T08:59:28.000Z</time>
      </trkpt>
      <trkpt lat="43.88493" lon="7.35634">
        <ele>727</ele>
        <time>2018-04-24T08:59:34.000Z</time>
      </trkpt>
      <trkpt lat="43.88496" lon="7.35634">
        <ele>727</ele>
        <time>2018-04-24T08:59:35.000Z</time>
      </trkpt>
      <trkpt lat="43.88509" lon="7.35634">
        <ele>737</ele>
        <time>2018-04-24T08:59:40.000Z</time>
      </trkpt>
      <trkpt lat="43.88524" lon="7.35634">
        <ele>738</ele>
        <time>2018-04-24T08:59:46.000Z</time>
      </trkpt>
      <trkpt lat="43.88527" lon="7.35634">
        <ele>738</ele>
        <time>2018-04-24T08:59:47.000Z</time>
      </trkpt>
      <trkpt lat="43.88538" lon="7.35632">
        <ele>738</ele>
        <time>2018-04-24T08:59:51.000Z</time>
      </trkpt>
      <trkpt lat="43.88548" lon="7.35629">
        <ele>738</ele>
        <time>2018-04-24T08:59:55.000Z</time>
      </trkpt>
      <trkpt lat="43.88556" lon="7.35627">
        <ele>739</ele>
        <time>2018-04-24T08:59:58.000Z</time>
      </trkpt>
      <trkpt lat="43.88576" lon="7.35619">
        <ele>738</ele>
        <time>2018-04-24T09:00:05.000Z</time>
      </trkpt>
      <trkpt lat="43.88578" lon="7.35618">
        <ele>738</ele>
        <time>2018-04-24T09:00:06.000Z</time>
      </trkpt>
      <trkpt lat="43.88597" lon="7.35611">
        <ele>745</ele>
        <time>2018-04-24T09:00:13.000Z</time>
      </trkpt>
      <trkpt lat="43.88605" lon="7.35606">
        <ele>745</ele>
        <time>2018-04-24T09:00:16.000Z</time>
      </trkpt>
      <trkpt lat="43.88618" lon="7.35597">
        <ele>746</ele>
        <time>2018-04-24T09:00:21.000Z</time>
      </trkpt>
      <trkpt lat="43.88636" lon="7.35585">
        <ele>749</ele>
        <time>2018-04-24T09:00:28.000Z</time>
      </trkpt>
      <trkpt lat="43.88641" lon="7.35582">
        <ele>737</ele>
        <time>2018-04-24T09:00:30.000Z</time>
      </trkpt>
      <trkpt lat="43.88659" lon="7.3557">
        <ele>741</ele>
        <time>2018-04-24T09:00:37.000Z</time>
      </trkpt>
      <trkpt lat="43.88667" lon="7.35566">
        <ele>749</ele>
        <time>2018-04-24T09:00:40.000Z</time>
      </trkpt>
      <trkpt lat="43.88677" lon="7.35563">
        <ele>748</ele>
        <time>2018-04-24T09:00:44.000Z</time>
      </trkpt>
      <trkpt lat="43.88688" lon="7.3556">
        <ele>748</ele>
        <time>2018-04-24T09:00:48.000Z</time>
      </trkpt>
      <trkpt lat="43.88691" lon="7.35559">
        <ele>748</ele>
        <time>2018-04-24T09:00:49.000Z</time>
      </trkpt>
      <trkpt lat="43.88703" lon="7.35555">
        <ele>748</ele>
        <time>2018-04-24T09:00:54.000Z</time>
      </trkpt>
      <trkpt lat="43.88705" lon="7.35554">
        <ele>749</ele>
        <time>2018-04-24T09:00:55.000Z</time>
      </trkpt>
      <trkpt lat="43.88714" lon="7.35551">
        <ele>749</ele>
        <time>2018-04-24T09:00:59.000Z</time>
      </trkpt>
      <trkpt lat="43.88727" lon="7.35546">
        <ele>750</ele>
        <time>2018-04-24T09:01:05.000Z</time>
      </trkpt>
      <trkpt lat="43.8873" lon="7.35545">
        <ele>750</ele>
        <time>2018-04-24T09:01:06.000Z</time>
      </trkpt>
      <trkpt lat="43.88747" lon="7.35539">
        <ele>750</ele>
        <time>2018-04-24T09:01:13.000Z</time>
      </trkpt>
      <trkpt lat="43.88752" lon="7.35537">
        <ele>754</ele>
        <time>2018-04-24T09:01:15.000Z</time>
      </trkpt>
      <trkpt lat="43.88762" lon="7.35533">
        <ele>753</ele>
        <time>2018-04-24T09:01:19.000Z</time>
      </trkpt>
      <trkpt lat="43.8877" lon="7.35527">
        <ele>753</ele>
        <time>2018-04-24T09:01:23.000Z</time>
      </trkpt>
      <trkpt lat="43.88774" lon="7.35524">
        <ele>753</ele>
        <time>2018-04-24T09:01:25.000Z</time>
      </trkpt>
      <trkpt lat="43.88787" lon="7.35514">
        <ele>753</ele>
        <time>2018-04-24T09:01:31.000Z</time>
      </trkpt>
      <trkpt lat="43.8879" lon="7.35511">
        <ele>753</ele>
        <time>2018-04-24T09:01:33.000Z</time>
      </trkpt>
      <trkpt lat="43.88799" lon="7.35501">
        <ele>753</ele>
        <time>2018-04-24T09:01:38.000Z</time>
      </trkpt>
      <trkpt lat="43.88806" lon="7.35488">
        <ele>754</ele>
        <time>2018-04-24T09:01:43.000Z</time>
      </trkpt>
      <trkpt lat="43.88807" lon="7.35485">
        <ele>754</ele>
        <time>2018-04-24T09:01:44.000Z</time>
      </trkpt>
      <trkpt lat="43.88817" lon="7.35466">
        <ele>755</ele>
        <time>2018-04-24T09:01:51.000Z</time>
      </trkpt>
      <trkpt lat="43.88818" lon="7.35463">
        <ele>755</ele>
        <time>2018-04-24T09:01:52.000Z</time>
      </trkpt>
      <trkpt lat="43.8883" lon="7.35451">
        <ele>756</ele>
        <time>2018-04-24T09:01:59.000Z</time>
      </trkpt>
      <trkpt lat="43.8884" lon="7.35443">
        <ele>762</ele>
        <time>2018-04-24T09:02:05.000Z</time>
      </trkpt>
      <trkpt lat="43.88842" lon="7.3544">
        <ele>762</ele>
        <time>2018-04-24T09:02:07.000Z</time>
      </trkpt>
      <trkpt lat="43.88849" lon="7.35434">
        <ele>762</ele>
        <time>2018-04-24T09:02:11.000Z</time>
      </trkpt>
      <trkpt lat="43.88852" lon="7.35432">
        <ele>762</ele>
        <time>2018-04-24T09:02:13.000Z</time>
      </trkpt>
      <trkpt lat="43.8886" lon="7.35424">
        <ele>763</ele>
        <time>2018-04-24T09:02:19.000Z</time>
      </trkpt>
      <trkpt lat="43.88873" lon="7.35419">
        <ele>763</ele>
        <time>2018-04-24T09:02:26.000Z</time>
      </trkpt>
      <trkpt lat="43.88889" lon="7.3542">
        <ele>763</ele>
        <time>2018-04-24T09:02:33.000Z</time>
      </trkpt>
      <trkpt lat="43.88899" lon="7.35422">
        <ele>764</ele>
        <time>2018-04-24T09:02:37.000Z</time>
      </trkpt>
      <trkpt lat="43.88905" lon="7.35422">
        <ele>765</ele>
        <time>2018-04-24T09:02:40.000Z</time>
      </trkpt>
      <trkpt lat="43.88917" lon="7.3542">
        <ele>768</ele>
        <time>2018-04-24T09:02:45.000Z</time>
      </trkpt>
      <trkpt lat="43.88923" lon="7.35416">
        <ele>770</ele>
        <time>2018-04-24T09:02:48.000Z</time>
      </trkpt>
      <trkpt lat="43.88933" lon="7.35412">
        <ele>772</ele>
        <time>2018-04-24T09:02:52.000Z</time>
      </trkpt>
      <trkpt lat="43.88943" lon="7.35404">
        <ele>774</ele>
        <time>2018-04-24T09:02:57.000Z</time>
      </trkpt>
      <trkpt lat="43.88945" lon="7.35399">
        <ele>775</ele>
        <time>2018-04-24T09:02:59.000Z</time>
      </trkpt>
      <trkpt lat="43.88942" lon="7.35392">
        <ele>775</ele>
        <time>2018-04-24T09:03:02.000Z</time>
      </trkpt>
      <trkpt lat="43.88933" lon="7.35394">
        <ele>775</ele>
        <time>2018-04-24T09:03:06.000Z</time>
      </trkpt>
      <trkpt lat="43.8893" lon="7.35395">
        <ele>774</ele>
        <time>2018-04-24T09:03:07.000Z</time>
      </trkpt>
      <trkpt lat="43.88918" lon="7.35397">
        <ele>773</ele>
        <time>2018-04-24T09:03:13.000Z</time>
      </trkpt>
      <trkpt lat="43.88911" lon="7.35394">
        <ele>773</ele>
        <time>2018-04-24T09:03:17.000Z</time>
      </trkpt>
      <trkpt lat="43.8891" lon="7.35393">
        <ele>773</ele>
        <time>2018-04-24T09:03:18.000Z</time>
      </trkpt>
      <trkpt lat="43.88903" lon="7.35388">
        <ele>774</ele>
        <time>2018-04-24T09:03:22.000Z</time>
      </trkpt>
      <trkpt lat="43.889" lon="7.35385">
        <ele>774</ele>
        <time>2018-04-24T09:03:24.000Z</time>
      </trkpt>
      <trkpt lat="43.88889" lon="7.35379">
        <ele>775</ele>
        <time>2018-04-24T09:03:30.000Z</time>
      </trkpt>
      <trkpt lat="43.88884" lon="7.35377">
        <ele>775</ele>
        <time>2018-04-24T09:03:32.000Z</time>
      </trkpt>
      <trkpt lat="43.88875" lon="7.35377">
        <ele>774</ele>
        <time>2018-04-24T09:03:36.000Z</time>
      </trkpt>
      <trkpt lat="43.88871" lon="7.35377">
        <ele>774</ele>
        <time>2018-04-24T09:03:38.000Z</time>
      </trkpt>
      <trkpt lat="43.88861" lon="7.35375">
        <ele>774</ele>
        <time>2018-04-24T09:03:43.000Z</time>
      </trkpt>
      <trkpt lat="43.88857" lon="7.35374">
        <ele>774</ele>
        <time>2018-04-24T09:03:45.000Z</time>
      </trkpt>
      <trkpt lat="43.88846" lon="7.35369">
        <ele>774</ele>
        <time>2018-04-24T09:03:50.000Z</time>
      </trkpt>
      <trkpt lat="43.88842" lon="7.35362">
        <ele>775</ele>
        <time>2018-04-24T09:03:53.000Z</time>
      </trkpt>
      <trkpt lat="43.88842" lon="7.35359">
        <ele>775</ele>
        <time>2018-04-24T09:03:54.000Z</time>
      </trkpt>
      <trkpt lat="43.88846" lon="7.35354">
        <ele>775</ele>
        <time>2018-04-24T09:03:57.000Z</time>
      </trkpt>
      <trkpt lat="43.88849" lon="7.35355">
        <ele>775</ele>
        <time>2018-04-24T09:03:59.000Z</time>
      </trkpt>
      <trkpt lat="43.88858" lon="7.35357">
        <ele>775</ele>
        <time>2018-04-24T09:04:04.000Z</time>
      </trkpt>
      <trkpt lat="43.88869" lon="7.35358">
        <ele>776</ele>
        <time>2018-04-24T09:04:10.000Z</time>
      </trkpt>
      <trkpt lat="43.88873" lon="7.35359">
        <ele>776</ele>
        <time>2018-04-24T09:04:12.000Z</time>
      </trkpt>
      <trkpt lat="43.88884" lon="7.35358">
        <ele>777</ele>
        <time>2018-04-24T09:04:17.000Z</time>
      </trkpt>
      <trkpt lat="43.88901" lon="7.3536">
        <ele>778</ele>
        <time>2018-04-24T09:04:25.000Z</time>
      </trkpt>
      <trkpt lat="43.88903" lon="7.3536">
        <ele>778</ele>
        <time>2018-04-24T09:04:26.000Z</time>
      </trkpt>
      <trkpt lat="43.88917" lon="7.3536">
        <ele>780</ele>
        <time>2018-04-24T09:04:33.000Z</time>
      </trkpt>
      <trkpt lat="43.88919" lon="7.35361">
        <ele>780</ele>
        <time>2018-04-24T09:04:34.000Z</time>
      </trkpt>
      <trkpt lat="43.88929" lon="7.35358">
        <ele>780</ele>
        <time>2018-04-24T09:04:39.000Z</time>
      </trkpt>
      <trkpt lat="43.88933" lon="7.35356">
        <ele>780</ele>
        <time>2018-04-24T09:04:41.000Z</time>
      </trkpt>
      <trkpt lat="43.88942" lon="7.35346">
        <ele>781</ele>
        <time>2018-04-24T09:04:46.000Z</time>
      </trkpt>
      <trkpt lat="43.88944" lon="7.35343">
        <ele>781</ele>
        <time>2018-04-24T09:04:47.000Z</time>
      </trkpt>
      <trkpt lat="43.88952" lon="7.3533">
        <ele>790</ele>
        <time>2018-04-24T09:04:52.000Z</time>
      </trkpt>
      <trkpt lat="43.88963" lon="7.35311">
        <ele>791</ele>
        <time>2018-04-24T09:04:59.000Z</time>
      </trkpt>
      <trkpt lat="43.88966" lon="7.35305">
        <ele>791</ele>
        <time>2018-04-24T09:05:01.000Z</time>
      </trkpt>
      <trkpt lat="43.8897" lon="7.35293">
        <ele>792</ele>
        <time>2018-04-24T09:05:05.000Z</time>
      </trkpt>
      <trkpt lat="43.88968" lon="7.3529">
        <ele>792</ele>
        <time>2018-04-24T09:05:06.000Z</time>
      </trkpt>
      <trkpt lat="43.88966" lon="7.3529">
        <ele>792</ele>
        <time>2018-04-24T09:05:08.000Z</time>
      </trkpt>
      <trkpt lat="43.88963" lon="7.35294">
        <ele>792</ele>
        <time>2018-04-24T09:05:10.000Z</time>
      </trkpt>
      <trkpt lat="43.88961" lon="7.35296">
        <ele>792</ele>
        <time>2018-04-24T09:05:11.000Z</time>
      </trkpt>
      <trkpt lat="43.88957" lon="7.35304">
        <ele>791</ele>
        <time>2018-04-24T09:05:14.000Z</time>
      </trkpt>
      <trkpt lat="43.88955" lon="7.35307">
        <ele>791</ele>
        <time>2018-04-24T09:05:15.000Z</time>
      </trkpt>
      <trkpt lat="43.88946" lon="7.35319">
        <ele>791</ele>
        <time>2018-04-24T09:05:21.000Z</time>
      </trkpt>
      <trkpt lat="43.88938" lon="7.35323">
        <ele>790</ele>
        <time>2018-04-24T09:05:25.000Z</time>
      </trkpt>
      <trkpt lat="43.88935" lon="7.35322">
        <ele>790</ele>
        <time>2018-04-24T09:05:27.000Z</time>
      </trkpt>
      <trkpt lat="43.8893" lon="7.35319">
        <ele>790</ele>
        <time>2018-04-24T09:05:30.000Z</time>
      </trkpt>
      <trkpt lat="43.88926" lon="7.35315">
        <ele>791</ele>
        <time>2018-04-24T09:05:33.000Z</time>
      </trkpt>
      <trkpt lat="43.88916" lon="7.35303">
        <ele>790</ele>
        <time>2018-04-24T09:05:39.000Z</time>
      </trkpt>
      <trkpt lat="43.88914" lon="7.35301">
        <ele>790</ele>
        <time>2018-04-24T09:05:40.000Z</time>
      </trkpt>
      <trkpt lat="43.88904" lon="7.35287">
        <ele>792</ele>
        <time>2018-04-24T09:05:47.000Z</time>
      </trkpt>
      <trkpt lat="43.88901" lon="7.35282">
        <ele>792</ele>
        <time>2018-04-24T09:05:49.000Z</time>
      </trkpt>
      <trkpt lat="43.88893" lon="7.35272">
        <ele>793</ele>
        <time>2018-04-24T09:05:54.000Z</time>
      </trkpt>
      <trkpt lat="43.8889" lon="7.3527">
        <ele>793</ele>
        <time>2018-04-24T09:05:56.000Z</time>
      </trkpt>
      <trkpt lat="43.88884" lon="7.35265">
        <ele>792</ele>
        <time>2018-04-24T09:05:59.000Z</time>
      </trkpt>
      <trkpt lat="43.88874" lon="7.35257">
        <ele>792</ele>
        <time>2018-04-24T09:06:04.000Z</time>
      </trkpt>
      <trkpt lat="43.88872" lon="7.35256">
        <ele>792</ele>
        <time>2018-04-24T09:06:05.000Z</time>
      </trkpt>
      <trkpt lat="43.88868" lon="7.35253">
        <ele>792</ele>
        <time>2018-04-24T09:06:07.000Z</time>
      </trkpt>
      <trkpt lat="43.88855" lon="7.35245">
        <ele>799</ele>
        <time>2018-04-24T09:06:13.000Z</time>
      </trkpt>
      <trkpt lat="43.88838" lon="7.35235">
        <ele>798</ele>
        <time>2018-04-24T09:06:20.000Z</time>
      </trkpt>
      <trkpt lat="43.88823" lon="7.35223">
        <ele>789</ele>
        <time>2018-04-24T09:06:27.000Z</time>
      </trkpt>
      <trkpt lat="43.88819" lon="7.35218">
        <ele>789</ele>
        <time>2018-04-24T09:06:29.000Z</time>
      </trkpt>
      <trkpt lat="43.8881" lon="7.35206">
        <ele>789</ele>
        <time>2018-04-24T09:06:34.000Z</time>
      </trkpt>
      <trkpt lat="43.88808" lon="7.35203">
        <ele>790</ele>
        <time>2018-04-24T09:06:35.000Z</time>
      </trkpt>
      <trkpt lat="43.88803" lon="7.35191">
        <ele>790</ele>
        <time>2018-04-24T09:06:39.000Z</time>
      </trkpt>
      <trkpt lat="43.88799" lon="7.35183">
        <ele>791</ele>
        <time>2018-04-24T09:06:42.000Z</time>
      </trkpt>
      <trkpt lat="43.88794" lon="7.35169">
        <ele>790</ele>
        <time>2018-04-24T09:06:46.000Z</time>
      </trkpt>
      <trkpt lat="43.88791" lon="7.35157">
        <ele>804</ele>
        <time>2018-04-24T09:06:49.000Z</time>
      </trkpt>
      <trkpt lat="43.8879" lon="7.35151">
        <ele>804</ele>
        <time>2018-04-24T09:06:51.000Z</time>
      </trkpt>
      <trkpt lat="43.88786" lon="7.35139">
        <ele>805</ele>
        <time>2018-04-24T09:06:55.000Z</time>
      </trkpt>
      <trkpt lat="43.88785" lon="7.35136">
        <ele>805</ele>
        <time>2018-04-24T09:06:56.000Z</time>
      </trkpt>
      <trkpt lat="43.88778" lon="7.35117">
        <ele>807</ele>
        <time>2018-04-24T09:07:03.000Z</time>
      </trkpt>
      <trkpt lat="43.88765" lon="7.35102">
        <ele>809</ele>
        <time>2018-04-24T09:07:10.000Z</time>
      </trkpt>
      <trkpt lat="43.88764" lon="7.351">
        <ele>809</ele>
        <time>2018-04-24T09:07:11.000Z</time>
      </trkpt>
      <trkpt lat="43.88749" lon="7.35089">
        <ele>807</ele>
        <time>2018-04-24T09:07:18.000Z</time>
      </trkpt>
      <trkpt lat="43.88747" lon="7.35087">
        <ele>808</ele>
        <time>2018-04-24T09:07:19.000Z</time>
      </trkpt>
      <trkpt lat="43.88736" lon="7.3508">
        <ele>814</ele>
        <time>2018-04-24T09:07:24.000Z</time>
      </trkpt>
      <trkpt lat="43.88727" lon="7.35075">
        <ele>814</ele>
        <time>2018-04-24T09:07:28.000Z</time>
      </trkpt>
      <trkpt lat="43.88722" lon="7.35071">
        <ele>814</ele>
        <time>2018-04-24T09:07:30.000Z</time>
      </trkpt>
      <trkpt lat="43.88707" lon="7.3506">
        <ele>814</ele>
        <time>2018-04-24T09:07:37.000Z</time>
      </trkpt>
      <trkpt lat="43.88704" lon="7.35056">
        <ele>814</ele>
        <time>2018-04-24T09:07:39.000Z</time>
      </trkpt>
      <trkpt lat="43.88693" lon="7.35044">
        <ele>815</ele>
        <time>2018-04-24T09:07:45.000Z</time>
      </trkpt>
      <trkpt lat="43.88692" lon="7.35043">
        <ele>815</ele>
        <time>2018-04-24T09:07:46.000Z</time>
      </trkpt>
      <trkpt lat="43.88681" lon="7.3503">
        <ele>816</ele>
        <time>2018-04-24T09:07:52.000Z</time>
      </trkpt>
      <trkpt lat="43.88677" lon="7.35024">
        <ele>817</ele>
        <time>2018-04-24T09:07:54.000Z</time>
      </trkpt>
      <trkpt lat="43.8867" lon="7.3501">
        <ele>818</ele>
        <time>2018-04-24T09:07:59.000Z</time>
      </trkpt>
      <trkpt lat="43.88667" lon="7.35005">
        <ele>819</ele>
        <time>2018-04-24T09:08:01.000Z</time>
      </trkpt>
      <trkpt lat="43.88663" lon="7.34993">
        <ele>817</ele>
        <time>2018-04-24T09:08:05.000Z</time>
      </trkpt>
      <trkpt lat="43.88658" lon="7.34979">
        <ele>816</ele>
        <time>2018-04-24T09:08:10.000Z</time>
      </trkpt>
      <trkpt lat="43.88657" lon="7.34976">
        <ele>816</ele>
        <time>2018-04-24T09:08:11.000Z</time>
      </trkpt>
      <trkpt lat="43.8865" lon="7.34958">
        <ele>817</ele>
        <time>2018-04-24T09:08:17.000Z</time>
      </trkpt>
      <trkpt lat="43.88642" lon="7.34935">
        <ele>820</ele>
        <time>2018-04-24T09:08:25.000Z</time>
      </trkpt>
      <trkpt lat="43.88641" lon="7.34932">
        <ele>821</ele>
        <time>2018-04-24T09:08:26.000Z</time>
      </trkpt>
      <trkpt lat="43.88636" lon="7.34918">
        <ele>820</ele>
        <time>2018-04-24T09:08:31.000Z</time>
      </trkpt>
      <trkpt lat="43.88632" lon="7.34907">
        <ele>827</ele>
        <time>2018-04-24T09:08:35.000Z</time>
      </trkpt>
      <trkpt lat="43.88627" lon="7.34894">
        <ele>825</ele>
        <time>2018-04-24T09:08:40.000Z</time>
      </trkpt>
      <trkpt lat="43.88625" lon="7.34886">
        <ele>825</ele>
        <time>2018-04-24T09:08:43.000Z</time>
      </trkpt>
      <trkpt lat="43.88623" lon="7.3488">
        <ele>824</ele>
        <time>2018-04-24T09:08:45.000Z</time>
      </trkpt>
      <trkpt lat="43.88623" lon="7.34864">
        <ele>825</ele>
        <time>2018-04-24T09:08:50.000Z</time>
      </trkpt>
      <trkpt lat="43.88624" lon="7.34858">
        <ele>825</ele>
        <time>2018-04-24T09:08:52.000Z</time>
      </trkpt>
      <trkpt lat="43.88625" lon="7.34845">
        <ele>826</ele>
        <time>2018-04-24T09:08:56.000Z</time>
      </trkpt>
      <trkpt lat="43.88626" lon="7.3484">
        <ele>826</ele>
        <time>2018-04-24T09:08:58.000Z</time>
      </trkpt>
      <trkpt lat="43.88627" lon="7.34828">
        <ele>825</ele>
        <time>2018-04-24T09:09:02.000Z</time>
      </trkpt>
      <trkpt lat="43.88628" lon="7.34819">
        <ele>825</ele>
        <time>2018-04-24T09:09:05.000Z</time>
      </trkpt>
      <trkpt lat="43.8863" lon="7.34805">
        <ele>825</ele>
        <time>2018-04-24T09:09:10.000Z</time>
      </trkpt>
      <trkpt lat="43.88631" lon="7.348">
        <ele>825</ele>
        <time>2018-04-24T09:09:12.000Z</time>
      </trkpt>
      <trkpt lat="43.88635" lon="7.34782">
        <ele>825</ele>
        <time>2018-04-24T09:09:19.000Z</time>
      </trkpt>
      <trkpt lat="43.88636" lon="7.34779">
        <ele>825</ele>
        <time>2018-04-24T09:09:20.000Z</time>
      </trkpt>
      <trkpt lat="43.88643" lon="7.34762">
        <ele>827</ele>
        <time>2018-04-24T09:09:27.000Z</time>
      </trkpt>
      <trkpt lat="43.88652" lon="7.34742">
        <ele>824</ele>
        <time>2018-04-24T09:09:34.000Z</time>
      </trkpt>
      <trkpt lat="43.88653" lon="7.3474">
        <ele>824</ele>
        <time>2018-04-24T09:09:35.000Z</time>
      </trkpt>
      <trkpt lat="43.88658" lon="7.34728">
        <ele>821</ele>
        <time>2018-04-24T09:09:40.000Z</time>
      </trkpt>
      <trkpt lat="43.88664" lon="7.34716">
        <ele>819</ele>
        <time>2018-04-24T09:09:45.000Z</time>
      </trkpt>
      <trkpt lat="43.8867" lon="7.34707">
        <ele>842</ele>
        <time>2018-04-24T09:09:49.000Z</time>
      </trkpt>
      <trkpt lat="43.88677" lon="7.34692">
        <ele>839</ele>
        <time>2018-04-24T09:09:55.000Z</time>
      </trkpt>
      <trkpt lat="43.88679" lon="7.3469">
        <ele>838</ele>
        <time>2018-04-24T09:09:56.000Z</time>
      </trkpt>
      <trkpt lat="43.88692" lon="7.34672">
        <ele>839</ele>
        <time>2018-04-24T09:10:04.000Z</time>
      </trkpt>
      <trkpt lat="43.88693" lon="7.34669">
        <ele>840</ele>
        <time>2018-04-24T09:10:05.000Z</time>
      </trkpt>
      <trkpt lat="43.88704" lon="7.34656">
        <ele>833</ele>
        <time>2018-04-24T09:10:11.000Z</time>
      </trkpt>
      <trkpt lat="43.88711" lon="7.34649">
        <ele>835</ele>
        <time>2018-04-24T09:10:15.000Z</time>
      </trkpt>
      <trkpt lat="43.88717" lon="7.34644">
        <ele>836</ele>
        <time>2018-04-24T09:10:18.000Z</time>
      </trkpt>
      <trkpt lat="43.8873" lon="7.34633">
        <ele>837</ele>
        <time>2018-04-24T09:10:25.000Z</time>
      </trkpt>
      <trkpt lat="43.88739" lon="7.34624">
        <ele>837</ele>
        <time>2018-04-24T09:10:30.000Z</time>
      </trkpt>
      <trkpt lat="43.88746" lon="7.34617">
        <ele>837</ele>
        <time>2018-04-24T09:10:34.000Z</time>
      </trkpt>
      <trkpt lat="43.88748" lon="7.34611">
        <ele>837</ele>
        <time>2018-04-24T09:10:36.000Z</time>
      </trkpt>
      <trkpt lat="43.88754" lon="7.34596">
        <ele>852</ele>
        <time>2018-04-24T09:10:41.000Z</time>
      </trkpt>
      <trkpt lat="43.88756" lon="7.34587">
        <ele>848</ele>
        <time>2018-04-24T09:10:44.000Z</time>
      </trkpt>
      <trkpt lat="43.88763" lon="7.34567">
        <ele>848</ele>
        <time>2018-04-24T09:10:51.000Z</time>
      </trkpt>
      <trkpt lat="43.88768" lon="7.3455">
        <ele>850</ele>
        <time>2018-04-24T09:10:57.000Z</time>
      </trkpt>
      <trkpt lat="43.88769" lon="7.34548">
        <ele>850</ele>
        <time>2018-04-24T09:10:58.000Z</time>
      </trkpt>
      <trkpt lat="43.88775" lon="7.3453">
        <ele>850</ele>
        <time>2018-04-24T09:11:04.000Z</time>
      </trkpt>
      <trkpt lat="43.88778" lon="7.34524">
        <ele>850</ele>
        <time>2018-04-24T09:11:06.000Z</time>
      </trkpt>
      <trkpt lat="43.88785" lon="7.34514">
        <ele>850</ele>
        <time>2018-04-24T09:11:10.000Z</time>
      </trkpt>
      <trkpt lat="43.88787" lon="7.34512">
        <ele>851</ele>
        <time>2018-04-24T09:11:11.000Z</time>
      </trkpt>
      <trkpt lat="43.88795" lon="7.34502">
        <ele>852</ele>
        <time>2018-04-24T09:11:15.000Z</time>
      </trkpt>
      <trkpt lat="43.88805" lon="7.34488">
        <ele>849</ele>
        <time>2018-04-24T09:11:21.000Z</time>
      </trkpt>
      <trkpt lat="43.88806" lon="7.34485">
        <ele>849</ele>
        <time>2018-04-24T09:11:22.000Z</time>
      </trkpt>
      <trkpt lat="43.88813" lon="7.34473">
        <ele>849</ele>
        <time>2018-04-24T09:11:27.000Z</time>
      </trkpt>
      <trkpt lat="43.88815" lon="7.34467">
        <ele>849</ele>
        <time>2018-04-24T09:11:29.000Z</time>
      </trkpt>
      <trkpt lat="43.88816" lon="7.34451">
        <ele>849</ele>
        <time>2018-04-24T09:11:34.000Z</time>
      </trkpt>
      <trkpt lat="43.88816" lon="7.34445">
        <ele>849</ele>
        <time>2018-04-24T09:11:36.000Z</time>
      </trkpt>
      <trkpt lat="43.88815" lon="7.34432">
        <ele>849</ele>
        <time>2018-04-24T09:11:40.000Z</time>
      </trkpt>
      <trkpt lat="43.88816" lon="7.3443">
        <ele>850</ele>
        <time>2018-04-24T09:11:41.000Z</time>
      </trkpt>
      <trkpt lat="43.88819" lon="7.3443">
        <ele>850</ele>
        <time>2018-04-24T09:11:42.000Z</time>
      </trkpt>
      <trkpt lat="43.88821" lon="7.34435">
        <ele>850</ele>
        <time>2018-04-24T09:11:45.000Z</time>
      </trkpt>
      <trkpt lat="43.88821" lon="7.34437">
        <ele>850</ele>
        <time>2018-04-24T09:11:46.000Z</time>
      </trkpt>
      <trkpt lat="43.88821" lon="7.34442">
        <ele>849</ele>
        <time>2018-04-24T09:11:48.000Z</time>
      </trkpt>
      <trkpt lat="43.88822" lon="7.3445">
        <ele>849</ele>
        <time>2018-04-24T09:11:51.000Z</time>
      </trkpt>
      <trkpt lat="43.88823" lon="7.34455">
        <ele>849</ele>
        <time>2018-04-24T09:11:53.000Z</time>
      </trkpt>
      <trkpt lat="43.88824" lon="7.34466">
        <ele>850</ele>
        <time>2018-04-24T09:11:57.000Z</time>
      </trkpt>
      <trkpt lat="43.88824" lon="7.34468">
        <ele>850</ele>
        <time>2018-04-24T09:11:58.000Z</time>
      </trkpt>
      <trkpt lat="43.88823" lon="7.34473">
        <ele>851</ele>
        <time>2018-04-24T09:12:00.000Z</time>
      </trkpt>
      <trkpt lat="43.88822" lon="7.34476">
        <ele>851</ele>
        <time>2018-04-24T09:12:01.000Z</time>
      </trkpt>
      <trkpt lat="43.88819" lon="7.34484">
        <ele>852</ele>
        <time>2018-04-24T09:12:04.000Z</time>
      </trkpt>
      <trkpt lat="43.88814" lon="7.34495">
        <ele>853</ele>
        <time>2018-04-24T09:12:08.000Z</time>
      </trkpt>
      <trkpt lat="43.88813" lon="7.34498">
        <ele>852</ele>
        <time>2018-04-24T09:12:09.000Z</time>
      </trkpt>
      <trkpt lat="43.88808" lon="7.34514">
        <ele>855</ele>
        <time>2018-04-24T09:12:15.000Z</time>
      </trkpt>
      <trkpt lat="43.88805" lon="7.34529">
        <ele>855</ele>
        <time>2018-04-24T09:12:20.000Z</time>
      </trkpt>
      <trkpt lat="43.88804" lon="7.34533">
        <ele>855</ele>
        <time>2018-04-24T09:12:21.000Z</time>
      </trkpt>
      <trkpt lat="43.88803" lon="7.34543">
        <ele>856</ele>
        <time>2018-04-24T09:12:24.000Z</time>
      </trkpt>
      <trkpt lat="43.88802" lon="7.34548">
        <ele>856</ele>
        <time>2018-04-24T09:12:26.000Z</time>
      </trkpt>
      <trkpt lat="43.88799" lon="7.34567">
        <ele>857</ele>
        <time>2018-04-24T09:12:32.000Z</time>
      </trkpt>
      <trkpt lat="43.88798" lon="7.3457">
        <ele>857</ele>
        <time>2018-04-24T09:12:33.000Z</time>
      </trkpt>
      <trkpt lat="43.88792" lon="7.34597">
        <ele>866</ele>
        <time>2018-04-24T09:12:41.000Z</time>
      </trkpt>
      <trkpt lat="43.88791" lon="7.346">
        <ele>866</ele>
        <time>2018-04-24T09:12:42.000Z</time>
      </trkpt>
      <trkpt lat="43.88781" lon="7.34621">
        <ele>866</ele>
        <time>2018-04-24T09:12:49.000Z</time>
      </trkpt>
      <trkpt lat="43.88777" lon="7.34627">
        <ele>866</ele>
        <time>2018-04-24T09:12:51.000Z</time>
      </trkpt>
      <trkpt lat="43.88769" lon="7.3464">
        <ele>866</ele>
        <time>2018-04-24T09:12:56.000Z</time>
      </trkpt>
      <trkpt lat="43.88759" lon="7.34656">
        <ele>863</ele>
        <time>2018-04-24T09:13:02.000Z</time>
      </trkpt>
      <trkpt lat="43.88755" lon="7.34661">
        <ele>862</ele>
        <time>2018-04-24T09:13:04.000Z</time>
      </trkpt>
      <trkpt lat="43.88743" lon="7.34681">
        <ele>855</ele>
        <time>2018-04-24T09:13:11.000Z</time>
      </trkpt>
      <trkpt lat="43.88741" lon="7.34684">
        <ele>855</ele>
        <time>2018-04-24T09:13:12.000Z</time>
      </trkpt>
      <trkpt lat="43.88729" lon="7.34708">
        <ele>855</ele>
        <time>2018-04-24T09:13:20.000Z</time>
      </trkpt>
      <trkpt lat="43.88731" lon="7.34713">
        <ele>856</ele>
        <time>2018-04-24T09:13:22.000Z</time>
      </trkpt>
      <trkpt lat="43.88733" lon="7.34714">
        <ele>857</ele>
        <time>2018-04-24T09:13:23.000Z</time>
      </trkpt>
      <trkpt lat="43.88735" lon="7.34714">
        <ele>857</ele>
        <time>2018-04-24T09:13:24.000Z</time>
      </trkpt>
      <trkpt lat="43.88741" lon="7.34706">
        <ele>857</ele>
        <time>2018-04-24T09:13:27.000Z</time>
      </trkpt>
      <trkpt lat="43.88742" lon="7.34703">
        <ele>856</ele>
        <time>2018-04-24T09:13:28.000Z</time>
      </trkpt>
      <trkpt lat="43.88754" lon="7.34687">
        <ele>878</ele>
        <time>2018-04-24T09:13:34.000Z</time>
      </trkpt>
      <trkpt lat="43.88758" lon="7.34682">
        <ele>876</ele>
        <time>2018-04-24T09:13:36.000Z</time>
      </trkpt>
      <trkpt lat="43.88767" lon="7.34671">
        <ele>876</ele>
        <time>2018-04-24T09:13:41.000Z</time>
      </trkpt>
      <trkpt lat="43.88776" lon="7.34661">
        <ele>868</ele>
        <time>2018-04-24T09:13:46.000Z</time>
      </trkpt>
      <trkpt lat="43.88782" lon="7.34654">
        <ele>869</ele>
        <time>2018-04-24T09:13:49.000Z</time>
      </trkpt>
      <trkpt lat="43.88795" lon="7.34639">
        <ele>872</ele>
        <time>2018-04-24T09:13:56.000Z</time>
      </trkpt>
      <trkpt lat="43.88809" lon="7.34623">
        <ele>873</ele>
        <time>2018-04-24T09:14:03.000Z</time>
      </trkpt>
      <trkpt lat="43.88811" lon="7.3462">
        <ele>873</ele>
        <time>2018-04-24T09:14:04.000Z</time>
      </trkpt>
      <trkpt lat="43.88824" lon="7.34605">
        <ele>873</ele>
        <time>2018-04-24T09:14:10.000Z</time>
      </trkpt>
      <trkpt lat="43.88826" lon="7.34603">
        <ele>873</ele>
        <time>2018-04-24T09:14:11.000Z</time>
      </trkpt>
      <trkpt lat="43.88833" lon="7.34593">
        <ele>874</ele>
        <time>2018-04-24T09:14:15.000Z</time>
      </trkpt>
      <trkpt lat="43.88839" lon="7.34581">
        <ele>880</ele>
        <time>2018-04-24T09:14:19.000Z</time>
      </trkpt>
      <trkpt lat="43.88844" lon="7.34568">
        <ele>884</ele>
        <time>2018-04-24T09:14:23.000Z</time>
      </trkpt>
      <trkpt lat="43.88852" lon="7.34551">
        <ele>886</ele>
        <time>2018-04-24T09:14:29.000Z</time>
      </trkpt>
      <trkpt lat="43.88853" lon="7.34548">
        <ele>887</ele>
        <time>2018-04-24T09:14:30.000Z</time>
      </trkpt>
      <trkpt lat="43.88863" lon="7.34529">
        <ele>887</ele>
        <time>2018-04-24T09:14:37.000Z</time>
      </trkpt>
      <trkpt lat="43.88866" lon="7.34524">
        <ele>887</ele>
        <time>2018-04-24T09:14:39.000Z</time>
      </trkpt>
      <trkpt lat="43.88874" lon="7.34507">
        <ele>888</ele>
        <time>2018-04-24T09:14:45.000Z</time>
      </trkpt>
      <trkpt lat="43.88877" lon="7.34498">
        <ele>882</ele>
        <time>2018-04-24T09:14:48.000Z</time>
      </trkpt>
      <trkpt lat="43.88882" lon="7.34486">
        <ele>884</ele>
        <time>2018-04-24T09:14:52.000Z</time>
      </trkpt>
      <trkpt lat="43.88891" lon="7.34468">
        <ele>885</ele>
        <time>2018-04-24T09:14:58.000Z</time>
      </trkpt>
      <trkpt lat="43.88895" lon="7.34447">
        <ele>885</ele>
        <time>2018-04-24T09:15:04.000Z</time>
      </trkpt>
      <trkpt lat="43.88895" lon="7.34443">
        <ele>885</ele>
        <time>2018-04-24T09:15:05.000Z</time>
      </trkpt>
      <trkpt lat="43.88896" lon="7.34426">
        <ele>887</ele>
        <time>2018-04-24T09:15:10.000Z</time>
      </trkpt>
      <trkpt lat="43.88896" lon="7.34415">
        <ele>884</ele>
        <time>2018-04-24T09:15:13.000Z</time>
      </trkpt>
      <trkpt lat="43.88898" lon="7.34394">
        <ele>881</ele>
        <time>2018-04-24T09:15:19.000Z</time>
      </trkpt>
      <trkpt lat="43.88906" lon="7.34367">
        <ele>879</ele>
        <time>2018-04-24T09:15:28.000Z</time>
      </trkpt>
      <trkpt lat="43.88907" lon="7.34363">
        <ele>879</ele>
        <time>2018-04-24T09:15:29.000Z</time>
      </trkpt>
      <trkpt lat="43.88911" lon="7.34348">
        <ele>881</ele>
        <time>2018-04-24T09:15:34.000Z</time>
      </trkpt>
      <trkpt lat="43.88917" lon="7.34329">
        <ele>884</ele>
        <time>2018-04-24T09:15:40.000Z</time>
      </trkpt>
      <trkpt lat="43.88918" lon="7.34326">
        <ele>889</ele>
        <time>2018-04-24T09:15:41.000Z</time>
      </trkpt>
      <trkpt lat="43.88926" lon="7.34307">
        <ele>891</ele>
        <time>2018-04-24T09:15:47.000Z</time>
      </trkpt>
      <trkpt lat="43.88929" lon="7.34302">
        <ele>891</ele>
        <time>2018-04-24T09:15:49.000Z</time>
      </trkpt>
      <trkpt lat="43.88938" lon="7.34291">
        <ele>891</ele>
        <time>2018-04-24T09:15:54.000Z</time>
      </trkpt>
      <trkpt lat="43.8894" lon="7.34289">
        <ele>891</ele>
        <time>2018-04-24T09:15:55.000Z</time>
      </trkpt>
      <trkpt lat="43.88952" lon="7.34276">
        <ele>892</ele>
        <time>2018-04-24T09:16:02.000Z</time>
      </trkpt>
      <trkpt lat="43.88966" lon="7.34264">
        <ele>893</ele>
        <time>2018-04-24T09:16:09.000Z</time>
      </trkpt>
      <trkpt lat="43.88969" lon="7.34262">
        <ele>894</ele>
        <time>2018-04-24T09:16:11.000Z</time>
      </trkpt>
      <trkpt lat="43.88976" lon="7.34255">
        <ele>894</ele>
        <time>2018-04-24T09:16:15.000Z</time>
      </trkpt>
      <trkpt lat="43.88977" lon="7.34253">
        <ele>895</ele>
        <time>2018-04-24T09:16:16.000Z</time>
      </trkpt>
      <trkpt lat="43.88986" lon="7.34244">
        <ele>886</ele>
        <time>2018-04-24T09:16:21.000Z</time>
      </trkpt>
      <trkpt lat="43.8899" lon="7.34241">
        <ele>887</ele>
        <time>2018-04-24T09:16:23.000Z</time>
      </trkpt>
      <trkpt lat="43.88997" lon="7.34235">
        <ele>886</ele>
        <time>2018-04-24T09:16:27.000Z</time>
      </trkpt>
      <trkpt lat="43.89004" lon="7.34227">
        <ele>899</ele>
        <time>2018-04-24T09:16:31.000Z</time>
      </trkpt>
      <trkpt lat="43.89012" lon="7.3422">
        <ele>899</ele>
        <time>2018-04-24T09:16:35.000Z</time>
      </trkpt>
      <trkpt lat="43.89016" lon="7.34213">
        <ele>898</ele>
        <time>2018-04-24T09:16:38.000Z</time>
      </trkpt>
      <trkpt lat="43.89023" lon="7.34199">
        <ele>897</ele>
        <time>2018-04-24T09:16:43.000Z</time>
      </trkpt>
      <trkpt lat="43.89027" lon="7.34197">
        <ele>897</ele>
        <time>2018-04-24T09:16:45.000Z</time>
      </trkpt>
      <trkpt lat="43.8903" lon="7.342">
        <ele>899</ele>
        <time>2018-04-24T09:16:47.000Z</time>
      </trkpt>
      <trkpt lat="43.89027" lon="7.34209">
        <ele>900</ele>
        <time>2018-04-24T09:16:51.000Z</time>
      </trkpt>
      <trkpt lat="43.89026" lon="7.34211">
        <ele>900</ele>
        <time>2018-04-24T09:16:52.000Z</time>
      </trkpt>
      <trkpt lat="43.89019" lon="7.34222">
        <ele>900</ele>
        <time>2018-04-24T09:16:57.000Z</time>
      </trkpt>
      <trkpt lat="43.89018" lon="7.34224">
        <ele>900</ele>
        <time>2018-04-24T09:16:58.000Z</time>
      </trkpt>
      <trkpt lat="43.89005" lon="7.34243">
        <ele>898</ele>
        <time>2018-04-24T09:17:06.000Z</time>
      </trkpt>
      <trkpt lat="43.89004" lon="7.34245">
        <ele>898</ele>
        <time>2018-04-24T09:17:07.000Z</time>
      </trkpt>
      <trkpt lat="43.88994" lon="7.34261">
        <ele>897</ele>
        <time>2018-04-24T09:17:14.000Z</time>
      </trkpt>
      <trkpt lat="43.88991" lon="7.34265">
        <ele>896</ele>
        <time>2018-04-24T09:17:16.000Z</time>
      </trkpt>
      <trkpt lat="43.88984" lon="7.34274">
        <ele>896</ele>
        <time>2018-04-24T09:17:21.000Z</time>
      </trkpt>
      <trkpt lat="43.88978" lon="7.34282">
        <ele>897</ele>
        <time>2018-04-24T09:17:25.000Z</time>
      </trkpt>
      <trkpt lat="43.88975" lon="7.34286">
        <ele>897</ele>
        <time>2018-04-24T09:17:27.000Z</time>
      </trkpt>
      <trkpt lat="43.88966" lon="7.34302">
        <ele>898</ele>
        <time>2018-04-24T09:17:34.000Z</time>
      </trkpt>
      <trkpt lat="43.88958" lon="7.34317">
        <ele>897</ele>
        <time>2018-04-24T09:17:41.000Z</time>
      </trkpt>
      <trkpt lat="43.88955" lon="7.34321">
        <ele>897</ele>
        <time>2018-04-24T09:17:43.000Z</time>
      </trkpt>
      <trkpt lat="43.88948" lon="7.34329">
        <ele>895</ele>
        <time>2018-04-24T09:17:47.000Z</time>
      </trkpt>
      <trkpt lat="43.88942" lon="7.3434">
        <ele>904</ele>
        <time>2018-04-24T09:17:52.000Z</time>
      </trkpt>
      <trkpt lat="43.88944" lon="7.34349">
        <ele>905</ele>
        <time>2018-04-24T09:17:56.000Z</time>
      </trkpt>
      <trkpt lat="43.88949" lon="7.34348">
        <ele>907</ele>
        <time>2018-04-24T09:17:58.000Z</time>
      </trkpt>
      <trkpt lat="43.8895" lon="7.34345">
        <ele>907</ele>
        <time>2018-04-24T09:17:59.000Z</time>
      </trkpt>
      <trkpt lat="43.88952" lon="7.34343">
        <ele>907</ele>
        <time>2018-04-24T09:18:00.000Z</time>
      </trkpt>
      <trkpt lat="43.88962" lon="7.34323">
        <ele>899</ele>
        <time>2018-04-24T09:18:07.000Z</time>
      </trkpt>
      <trkpt lat="43.88963" lon="7.34321">
        <ele>899</ele>
        <time>2018-04-24T09:18:08.000Z</time>
      </trkpt>
      <trkpt lat="43.88974" lon="7.34306">
        <ele>900</ele>
        <time>2018-04-24T09:18:15.000Z</time>
      </trkpt>
      <trkpt lat="43.88976" lon="7.34304">
        <ele>900</ele>
        <time>2018-04-24T09:18:16.000Z</time>
      </trkpt>
      <trkpt lat="43.88986" lon="7.34297">
        <ele>900</ele>
        <time>2018-04-24T09:18:21.000Z</time>
      </trkpt>
      <trkpt lat="43.88993" lon="7.34291">
        <ele>900</ele>
        <time>2018-04-24T09:18:25.000Z</time>
      </trkpt>
      <trkpt lat="43.89002" lon="7.34282">
        <ele>917</ele>
        <time>2018-04-24T09:18:29.000Z</time>
      </trkpt>
      <trkpt lat="43.89004" lon="7.3428">
        <ele>917</ele>
        <time>2018-04-24T09:18:30.000Z</time>
      </trkpt>
      <trkpt lat="43.89012" lon="7.34269">
        <ele>914</ele>
        <time>2018-04-24T09:18:35.000Z</time>
      </trkpt>
      <trkpt lat="43.89016" lon="7.34265">
        <ele>914</ele>
        <time>2018-04-24T09:18:37.000Z</time>
      </trkpt>
      <trkpt lat="43.89027" lon="7.34254">
        <ele>916</ele>
        <time>2018-04-24T09:18:43.000Z</time>
      </trkpt>
      <trkpt lat="43.8903" lon="7.34253">
        <ele>917</ele>
        <time>2018-04-24T09:18:44.000Z</time>
      </trkpt>
      <trkpt lat="43.89043" lon="7.34245">
        <ele>907</ele>
        <time>2018-04-24T09:18:50.000Z</time>
      </trkpt>
      <trkpt lat="43.89045" lon="7.34244">
        <ele>907</ele>
        <time>2018-04-24T09:18:51.000Z</time>
      </trkpt>
      <trkpt lat="43.89057" lon="7.3423">
        <ele>909</ele>
        <time>2018-04-24T09:18:58.000Z</time>
      </trkpt>
      <trkpt lat="43.89066" lon="7.34209">
        <ele>907</ele>
        <time>2018-04-24T09:19:05.000Z</time>
      </trkpt>
      <trkpt lat="43.89076" lon="7.34181">
        <ele>906</ele>
        <time>2018-04-24T09:19:14.000Z</time>
      </trkpt>
      <trkpt lat="43.89087" lon="7.34162">
        <ele>909</ele>
        <time>2018-04-24T09:19:21.000Z</time>
      </trkpt>
      <trkpt lat="43.89089" lon="7.3416">
        <ele>909</ele>
        <time>2018-04-24T09:19:22.000Z</time>
      </trkpt>
      <trkpt lat="43.89098" lon="7.34151">
        <ele>909</ele>
        <time>2018-04-24T09:19:27.000Z</time>
      </trkpt>
      <trkpt lat="43.89099" lon="7.34149">
        <ele>909</ele>
        <time>2018-04-24T09:19:28.000Z</time>
      </trkpt>
      <trkpt lat="43.89109" lon="7.34139">
        <ele>909</ele>
        <time>2018-04-24T09:19:33.000Z</time>
      </trkpt>
      <trkpt lat="43.89111" lon="7.34137">
        <ele>910</ele>
        <time>2018-04-24T09:19:34.000Z</time>
      </trkpt>
      <trkpt lat="43.89134" lon="7.34127">
        <ele>913</ele>
        <time>2018-04-24T09:19:42.000Z</time>
      </trkpt>
      <trkpt lat="43.89136" lon="7.34126">
        <ele>913</ele>
        <time>2018-04-24T09:19:43.000Z</time>
      </trkpt>
      <trkpt lat="43.89154" lon="7.34116">
        <ele>913</ele>
        <time>2018-04-24T09:19:50.000Z</time>
      </trkpt>
      <trkpt lat="43.89168" lon="7.34106">
        <ele>929</ele>
        <time>2018-04-24T09:19:56.000Z</time>
      </trkpt>
      <trkpt lat="43.89171" lon="7.34105">
        <ele>928</ele>
        <time>2018-04-24T09:19:57.000Z</time>
      </trkpt>
      <trkpt lat="43.89189" lon="7.3409">
        <ele>928</ele>
        <time>2018-04-24T09:20:05.000Z</time>
      </trkpt>
      <trkpt lat="43.89194" lon="7.34087">
        <ele>930</ele>
        <time>2018-04-24T09:20:07.000Z</time>
      </trkpt>
      <trkpt lat="43.8921" lon="7.34086">
        <ele>935</ele>
        <time>2018-04-24T09:20:13.000Z</time>
      </trkpt>
      <trkpt lat="43.89225" lon="7.34089">
        <ele>938</ele>
        <time>2018-04-24T09:20:18.000Z</time>
      </trkpt>
      <trkpt lat="43.89227" lon="7.34088">
        <ele>938</ele>
        <time>2018-04-24T09:20:19.000Z</time>
      </trkpt>
      <trkpt lat="43.89239" lon="7.34086">
        <ele>938</ele>
        <time>2018-04-24T09:20:24.000Z</time>
      </trkpt>
      <trkpt lat="43.89243" lon="7.34084">
        <ele>937</ele>
        <time>2018-04-24T09:20:26.000Z</time>
      </trkpt>
      <trkpt lat="43.89251" lon="7.3408">
        <ele>936</ele>
        <time>2018-04-24T09:20:30.000Z</time>
      </trkpt>
      <trkpt lat="43.89259" lon="7.34073">
        <ele>936</ele>
        <time>2018-04-24T09:20:34.000Z</time>
      </trkpt>
      <trkpt lat="43.89263" lon="7.34064">
        <ele>936</ele>
        <time>2018-04-24T09:20:37.000Z</time>
      </trkpt>
      <trkpt lat="43.89268" lon="7.34049">
        <ele>934</ele>
        <time>2018-04-24T09:20:42.000Z</time>
      </trkpt>
      <trkpt lat="43.89271" lon="7.3404">
        <ele>932</ele>
        <time>2018-04-24T09:20:45.000Z</time>
      </trkpt>
      <trkpt lat="43.8928" lon="7.34021">
        <ele>930</ele>
        <time>2018-04-24T09:20:52.000Z</time>
      </trkpt>
      <trkpt lat="43.89282" lon="7.34018">
        <ele>930</ele>
        <time>2018-04-24T09:20:53.000Z</time>
      </trkpt>
      <trkpt lat="43.89294" lon="7.34004">
        <ele>932</ele>
        <time>2018-04-24T09:21:00.000Z</time>
      </trkpt>
      <trkpt lat="43.89296" lon="7.34002">
        <ele>932</ele>
        <time>2018-04-24T09:21:01.000Z</time>
      </trkpt>
      <trkpt lat="43.89304" lon="7.34">
        <ele>934</ele>
        <time>2018-04-24T09:21:05.000Z</time>
      </trkpt>
      <trkpt lat="43.89305" lon="7.34003">
        <ele>934</ele>
        <time>2018-04-24T09:21:06.000Z</time>
      </trkpt>
      <trkpt lat="43.89304" lon="7.34007">
        <ele>934</ele>
        <time>2018-04-24T09:21:08.000Z</time>
      </trkpt>
      <trkpt lat="43.89301" lon="7.3401">
        <ele>934</ele>
        <time>2018-04-24T09:21:10.000Z</time>
      </trkpt>
      <trkpt lat="43.8929" lon="7.34025">
        <ele>933</ele>
        <time>2018-04-24T09:21:16.000Z</time>
      </trkpt>
      <trkpt lat="43.89288" lon="7.34028">
        <ele>933</ele>
        <time>2018-04-24T09:21:17.000Z</time>
      </trkpt>
      <trkpt lat="43.89278" lon="7.34056">
        <ele>937</ele>
        <time>2018-04-24T09:21:25.000Z</time>
      </trkpt>
      <trkpt lat="43.89277" lon="7.3406">
        <ele>937</ele>
        <time>2018-04-24T09:21:26.000Z</time>
      </trkpt>
      <trkpt lat="43.89267" lon="7.34081">
        <ele>937</ele>
        <time>2018-04-24T09:21:32.000Z</time>
      </trkpt>
      <trkpt lat="43.8926" lon="7.34093">
        <ele>951</ele>
        <time>2018-04-24T09:21:36.000Z</time>
      </trkpt>
      <trkpt lat="43.8926" lon="7.34096">
        <ele>953</ele>
        <time>2018-04-24T09:21:37.000Z</time>
      </trkpt>
      <trkpt lat="43.89268" lon="7.34101">
        <ele>959</ele>
        <time>2018-04-24T09:21:41.000Z</time>
      </trkpt>
      <trkpt lat="43.89273" lon="7.34097">
        <ele>959</ele>
        <time>2018-04-24T09:21:43.000Z</time>
      </trkpt>
      <trkpt lat="43.89279" lon="7.34088">
        <ele>959</ele>
        <time>2018-04-24T09:21:46.000Z</time>
      </trkpt>
      <trkpt lat="43.8928" lon="7.34084">
        <ele>960</ele>
        <time>2018-04-24T09:21:47.000Z</time>
      </trkpt>
      <trkpt lat="43.89291" lon="7.34058">
        <ele>939</ele>
        <time>2018-04-24T09:21:55.000Z</time>
      </trkpt>
      <trkpt lat="43.89301" lon="7.34039">
        <ele>938</ele>
        <time>2018-04-24T09:22:02.000Z</time>
      </trkpt>
      <trkpt lat="43.89303" lon="7.34037">
        <ele>938</ele>
        <time>2018-04-24T09:22:03.000Z</time>
      </trkpt>
      <trkpt lat="43.89314" lon="7.3403">
        <ele>938</ele>
        <time>2018-04-24T09:22:08.000Z</time>
      </trkpt>
      <trkpt lat="43.89317" lon="7.34029">
        <ele>938</ele>
        <time>2018-04-24T09:22:09.000Z</time>
      </trkpt>
      <trkpt lat="43.89334" lon="7.34026">
        <ele>954</ele>
        <time>2018-04-24T09:22:16.000Z</time>
      </trkpt>
      <trkpt lat="43.89336" lon="7.34025">
        <ele>954</ele>
        <time>2018-04-24T09:22:17.000Z</time>
      </trkpt>
      <trkpt lat="43.89347" lon="7.34022">
        <ele>955</ele>
        <time>2018-04-24T09:22:22.000Z</time>
      </trkpt>
      <trkpt lat="43.89355" lon="7.34018">
        <ele>956</ele>
        <time>2018-04-24T09:22:26.000Z</time>
      </trkpt>
      <trkpt lat="43.89361" lon="7.34013">
        <ele>957</ele>
        <time>2018-04-24T09:22:29.000Z</time>
      </trkpt>
      <trkpt lat="43.89366" lon="7.34007">
        <ele>957</ele>
        <time>2018-04-24T09:22:32.000Z</time>
      </trkpt>
      <trkpt lat="43.89374" lon="7.34001">
        <ele>959</ele>
        <time>2018-04-24T09:22:36.000Z</time>
      </trkpt>
      <trkpt lat="43.89376" lon="7.34">
        <ele>959</ele>
        <time>2018-04-24T09:22:37.000Z</time>
      </trkpt>
      <trkpt lat="43.89378" lon="7.34001">
        <ele>960</ele>
        <time>2018-04-24T09:22:38.000Z</time>
      </trkpt>
      <trkpt lat="43.89382" lon="7.34007">
        <ele>961</ele>
        <time>2018-04-24T09:22:41.000Z</time>
      </trkpt>
      <trkpt lat="43.8938" lon="7.34011">
        <ele>961</ele>
        <time>2018-04-24T09:22:43.000Z</time>
      </trkpt>
      <trkpt lat="43.89376" lon="7.34015">
        <ele>961</ele>
        <time>2018-04-24T09:22:45.000Z</time>
      </trkpt>
      <trkpt lat="43.89364" lon="7.34026">
        <ele>960</ele>
        <time>2018-04-24T09:22:51.000Z</time>
      </trkpt>
      <trkpt lat="43.89351" lon="7.34033">
        <ele>959</ele>
        <time>2018-04-24T09:22:57.000Z</time>
      </trkpt>
      <trkpt lat="43.89344" lon="7.34036">
        <ele>959</ele>
        <time>2018-04-24T09:23:00.000Z</time>
      </trkpt>
      <trkpt lat="43.89327" lon="7.34045">
        <ele>943</ele>
        <time>2018-04-24T09:23:08.000Z</time>
      </trkpt>
      <trkpt lat="43.89323" lon="7.34047">
        <ele>943</ele>
        <time>2018-04-24T09:23:10.000Z</time>
      </trkpt>
      <trkpt lat="43.89317" lon="7.34054">
        <ele>944</ele>
        <time>2018-04-24T09:23:14.000Z</time>
      </trkpt>
      <trkpt lat="43.89317" lon="7.34057">
        <ele>945</ele>
        <time>2018-04-24T09:23:15.000Z</time>
      </trkpt>
      <trkpt lat="43.89325" lon="7.34061">
        <ele>948</ele>
        <time>2018-04-24T09:23:19.000Z</time>
      </trkpt>
      <trkpt lat="43.89332" lon="7.34057">
        <ele>948</ele>
        <time>2018-04-24T09:23:22.000Z</time>
      </trkpt>
      <trkpt lat="43.89337" lon="7.34054">
        <ele>963</ele>
        <time>2018-04-24T09:23:24.000Z</time>
      </trkpt>
      <trkpt lat="43.89344" lon="7.3405">
        <ele>963</ele>
        <time>2018-04-24T09:23:27.000Z</time>
      </trkpt>
      <trkpt lat="43.89353" lon="7.34046">
        <ele>963</ele>
        <time>2018-04-24T09:23:31.000Z</time>
      </trkpt>
      <trkpt lat="43.89362" lon="7.34043">
        <ele>963</ele>
        <time>2018-04-24T09:23:34.000Z</time>
      </trkpt>
      <trkpt lat="43.89373" lon="7.34038">
        <ele>964</ele>
        <time>2018-04-24T09:23:38.000Z</time>
      </trkpt>
      <trkpt lat="43.89378" lon="7.34036">
        <ele>964</ele>
        <time>2018-04-24T09:23:40.000Z</time>
      </trkpt>
      <trkpt lat="43.89387" lon="7.34031">
        <ele>965</ele>
        <time>2018-04-24T09:23:44.000Z</time>
      </trkpt>
      <trkpt lat="43.89393" lon="7.34027">
        <ele>965</ele>
        <time>2018-04-24T09:23:47.000Z</time>
      </trkpt>
      <trkpt lat="43.89397" lon="7.34023">
        <ele>965</ele>
        <time>2018-04-24T09:23:49.000Z</time>
      </trkpt>
      <trkpt lat="43.89408" lon="7.34012">
        <ele>964</ele>
        <time>2018-04-24T09:23:55.000Z</time>
      </trkpt>
      <trkpt lat="43.8941" lon="7.3401">
        <ele>964</ele>
        <time>2018-04-24T09:23:56.000Z</time>
      </trkpt>
      <trkpt lat="43.89424" lon="7.34001">
        <ele>969</ele>
        <time>2018-04-24T09:24:03.000Z</time>
      </trkpt>
      <trkpt lat="43.89431" lon="7.33999">
        <ele>963</ele>
        <time>2018-04-24T09:24:06.000Z</time>
      </trkpt>
      <trkpt lat="43.8944" lon="7.33996">
        <ele>964</ele>
        <time>2018-04-24T09:24:10.000Z</time>
      </trkpt>
      <trkpt lat="43.89445" lon="7.33993">
        <ele>964</ele>
        <time>2018-04-24T09:24:12.000Z</time>
      </trkpt>
      <trkpt lat="43.89457" lon="7.33989">
        <ele>966</ele>
        <time>2018-04-24T09:24:16.000Z</time>
      </trkpt>
      <trkpt lat="43.89465" lon="7.33987">
        <ele>967</ele>
        <time>2018-04-24T09:24:19.000Z</time>
      </trkpt>
      <trkpt lat="43.89474" lon="7.33985">
        <ele>968</ele>
        <time>2018-04-24T09:24:23.000Z</time>
      </trkpt>
      <trkpt lat="43.89477" lon="7.33985">
        <ele>969</ele>
        <time>2018-04-24T09:24:24.000Z</time>
      </trkpt>
      <trkpt lat="43.8949" lon="7.33984">
        <ele>972</ele>
        <time>2018-04-24T09:24:30.000Z</time>
      </trkpt>
      <trkpt lat="43.89491" lon="7.33983">
        <ele>972</ele>
        <time>2018-04-24T09:24:31.000Z</time>
      </trkpt>
      <trkpt lat="43.89498" lon="7.3398">
        <ele>972</ele>
        <time>2018-04-24T09:24:35.000Z</time>
      </trkpt>
      <trkpt lat="43.89504" lon="7.33976">
        <ele>982</ele>
        <time>2018-04-24T09:24:38.000Z</time>
      </trkpt>
      <trkpt lat="43.89511" lon="7.33966">
        <ele>981</ele>
        <time>2018-04-24T09:24:42.000Z</time>
      </trkpt>
      <trkpt lat="43.89515" lon="7.33958">
        <ele>981</ele>
        <time>2018-04-24T09:24:45.000Z</time>
      </trkpt>
      <trkpt lat="43.8952" lon="7.33938">
        <ele>979</ele>
        <time>2018-04-24T09:24:51.000Z</time>
      </trkpt>
      <trkpt lat="43.89522" lon="7.33928">
        <ele>977</ele>
        <time>2018-04-24T09:24:54.000Z</time>
      </trkpt>
      <trkpt lat="43.89526" lon="7.33911">
        <ele>975</ele>
        <time>2018-04-24T09:24:59.000Z</time>
      </trkpt>
      <trkpt lat="43.89538" lon="7.33895">
        <ele>978</ele>
        <time>2018-04-24T09:25:06.000Z</time>
      </trkpt>
      <trkpt lat="43.8954" lon="7.33893">
        <ele>978</ele>
        <time>2018-04-24T09:25:07.000Z</time>
      </trkpt>
      <trkpt lat="43.89547" lon="7.33884">
        <ele>980</ele>
        <time>2018-04-24T09:25:11.000Z</time>
      </trkpt>
      <trkpt lat="43.89549" lon="7.33878">
        <ele>980</ele>
        <time>2018-04-24T09:25:13.000Z</time>
      </trkpt>
      <trkpt lat="43.89548" lon="7.33871">
        <ele>980</ele>
        <time>2018-04-24T09:25:15.000Z</time>
      </trkpt>
      <trkpt lat="43.89544" lon="7.33864">
        <ele>980</ele>
        <time>2018-04-24T09:25:17.000Z</time>
      </trkpt>
      <trkpt lat="43.89542" lon="7.33862">
        <ele>980</ele>
        <time>2018-04-24T09:25:18.000Z</time>
      </trkpt>
      <trkpt lat="43.89534" lon="7.33856">
        <ele>979</ele>
        <time>2018-04-24T09:25:21.000Z</time>
      </trkpt>
      <trkpt lat="43.89528" lon="7.33852">
        <ele>978</ele>
        <time>2018-04-24T09:25:23.000Z</time>
      </trkpt>
      <trkpt lat="43.89513" lon="7.33844">
        <ele>977</ele>
        <time>2018-04-24T09:25:28.000Z</time>
      </trkpt>
      <trkpt lat="43.89501" lon="7.33837">
        <ele>976</ele>
        <time>2018-04-24T09:25:32.000Z</time>
      </trkpt>
      <trkpt lat="43.89493" lon="7.33832">
        <ele>974</ele>
        <time>2018-04-24T09:25:35.000Z</time>
      </trkpt>
      <trkpt lat="43.89484" lon="7.33822">
        <ele>974</ele>
        <time>2018-04-24T09:25:39.000Z</time>
      </trkpt>
      <trkpt lat="43.89476" lon="7.33804">
        <ele>974</ele>
        <time>2018-04-24T09:25:45.000Z</time>
      </trkpt>
      <trkpt lat="43.89469" lon="7.33787">
        <ele>975</ele>
        <time>2018-04-24T09:25:51.000Z</time>
      </trkpt>
      <trkpt lat="43.8947" lon="7.33784">
        <ele>976</ele>
        <time>2018-04-24T09:25:52.000Z</time>
      </trkpt>
      <trkpt lat="43.89473" lon="7.33781">
        <ele>977</ele>
        <time>2018-04-24T09:25:54.000Z</time>
      </trkpt>
      <trkpt lat="43.89478" lon="7.33783">
        <ele>977</ele>
        <time>2018-04-24T09:25:56.000Z</time>
      </trkpt>
      <trkpt lat="43.89485" lon="7.33791">
        <ele>977</ele>
        <time>2018-04-24T09:25:59.000Z</time>
      </trkpt>
      <trkpt lat="43.89489" lon="7.33797">
        <ele>976</ele>
        <time>2018-04-24T09:26:01.000Z</time>
      </trkpt>
      <trkpt lat="43.89493" lon="7.33805">
        <ele>975</ele>
        <time>2018-04-24T09:26:04.000Z</time>
      </trkpt>
      <trkpt lat="43.89496" lon="7.33812">
        <ele>975</ele>
        <time>2018-04-24T09:26:07.000Z</time>
      </trkpt>
      <trkpt lat="43.89498" lon="7.33816">
        <ele>975</ele>
        <time>2018-04-24T09:26:09.000Z</time>
      </trkpt>
      <trkpt lat="43.89508" lon="7.33823">
        <ele>981</ele>
        <time>2018-04-24T09:26:14.000Z</time>
      </trkpt>
      <trkpt lat="43.8951" lon="7.33824">
        <ele>982</ele>
        <time>2018-04-24T09:26:15.000Z</time>
      </trkpt>
      <trkpt lat="43.89525" lon="7.33827">
        <ele>985</ele>
        <time>2018-04-24T09:26:22.000Z</time>
      </trkpt>
      <trkpt lat="43.89541" lon="7.33827">
        <ele>988</ele>
        <time>2018-04-24T09:26:29.000Z</time>
      </trkpt>
      <trkpt lat="43.89543" lon="7.33827">
        <ele>988</ele>
        <time>2018-04-24T09:26:30.000Z</time>
      </trkpt>
      <trkpt lat="43.89561" lon="7.33827">
        <ele>989</ele>
        <time>2018-04-24T09:26:38.000Z</time>
      </trkpt>
      <trkpt lat="43.89563" lon="7.33827">
        <ele>989</ele>
        <time>2018-04-24T09:26:39.000Z</time>
      </trkpt>
      <trkpt lat="43.89577" lon="7.33827">
        <ele>989</ele>
        <time>2018-04-24T09:26:46.000Z</time>
      </trkpt>
      <trkpt lat="43.89579" lon="7.33828">
        <ele>989</ele>
        <time>2018-04-24T09:26:47.000Z</time>
      </trkpt>
      <trkpt lat="43.89587" lon="7.33834">
        <ele>989</ele>
        <time>2018-04-24T09:26:52.000Z</time>
      </trkpt>
      <trkpt lat="43.8959" lon="7.33837">
        <ele>988</ele>
        <time>2018-04-24T09:26:54.000Z</time>
      </trkpt>
      <trkpt lat="43.89596" lon="7.33848">
        <ele>987</ele>
        <time>2018-04-24T09:26:59.000Z</time>
      </trkpt>
      <trkpt lat="43.89601" lon="7.33855">
        <ele>987</ele>
        <time>2018-04-24T09:27:03.000Z</time>
      </trkpt>
      <trkpt lat="43.89603" lon="7.33858">
        <ele>987</ele>
        <time>2018-04-24T09:27:06.000Z</time>
      </trkpt>
      <trkpt lat="43.89603" lon="7.33858">
        <ele>987</ele>
        <time>2018-04-24T09:27:08.000Z</time>
      </trkpt>
      <trkpt lat="43.89604" lon="7.33858">
        <ele>987</ele>
        <time>2018-04-24T09:27:17.000Z</time>
      </trkpt>
      <trkpt lat="43.89604" lon="7.33859">
        <ele>987</ele>
        <time>2018-04-24T09:27:33.000Z</time>
      </trkpt>
      <trkpt lat="43.89604" lon="7.33858">
        <ele>987</ele>
        <time>2018-04-24T09:27:42.000Z</time>
      </trkpt>
      <trkpt lat="43.89604" lon="7.33858">
        <ele>987</ele>
        <time>2018-04-24T09:27:51.000Z</time>
      </trkpt>
      <trkpt lat="43.89605" lon="7.33859">
        <ele>987</ele>
        <time>2018-04-24T09:28:06.000Z</time>
      </trkpt>
      <trkpt lat="43.89605" lon="7.33859">
        <ele>987</ele>
        <time>2018-04-24T09:28:31.000Z</time>
      </trkpt>
      <trkpt lat="43.89607" lon="7.33861">
        <ele>987</ele>
        <time>2018-04-24T09:28:40.000Z</time>
      </trkpt>
      <trkpt lat="43.89612" lon="7.33865">
        <ele>987</ele>
        <time>2018-04-24T09:28:47.000Z</time>
      </trkpt>
      <trkpt lat="43.89612" lon="7.33864">
        <ele>987</ele>
        <time>2018-04-24T09:28:52.000Z</time>
      </trkpt>
      <trkpt lat="43.89612" lon="7.33864">
        <ele>987</ele>
        <time>2018-04-24T09:29:02.000Z</time>
      </trkpt>
      <trkpt lat="43.89611" lon="7.33864">
        <ele>987</ele>
        <time>2018-04-24T09:29:19.000Z</time>
      </trkpt>
      <trkpt lat="43.89611" lon="7.33864">
        <ele>987</ele>
        <time>2018-04-24T09:29:34.000Z</time>
      </trkpt>
      <trkpt lat="43.89611" lon="7.33864">
        <ele>987</ele>
        <time>2018-04-24T09:29:47.000Z</time>
      </trkpt>
      <trkpt lat="43.89611" lon="7.33864">
        <ele>987</ele>
        <time>2018-04-24T09:29:56.000Z</time>
      </trkpt>
      <trkpt lat="43.89611" lon="7.33864">
        <ele>987</ele>
        <time>2018-04-24T09:30:09.000Z</time>
      </trkpt>
      <trkpt lat="43.89611" lon="7.33865">
        <ele>987</ele>
        <time>2018-04-24T09:30:21.000Z</time>
      </trkpt>
      <trkpt lat="43.89611" lon="7.33865">
        <ele>987</ele>
        <time>2018-04-24T09:30:28.000Z</time>
      </trkpt>
      <trkpt lat="43.89611" lon="7.33865">
        <ele>987</ele>
        <time>2018-04-24T09:30:36.000Z</time>
      </trkpt>
      <trkpt lat="43.89612" lon="7.33864">
        <ele>987</ele>
        <time>2018-04-24T09:30:53.000Z</time>
      </trkpt>
      <trkpt lat="43.89612" lon="7.33864">
        <ele>987</ele>
        <time>2018-04-24T09:31:01.000Z</time>
      </trkpt>
      <trkpt lat="43.89612" lon="7.33864">
        <ele>987</ele>
        <time>2018-04-24T09:31:08.000Z</time>
      </trkpt>
      <trkpt lat="43.89612" lon="7.33864">
        <ele>987</ele>
        <time>2018-04-24T09:31:15.000Z</time>
      </trkpt>
      <trkpt lat="43.89612" lon="7.33864">
        <ele>987</ele>
        <time>2018-04-24T09:31:22.000Z</time>
      </trkpt>
      <trkpt lat="43.89612" lon="7.33864">
        <ele>987</ele>
        <time>2018-04-24T09:31:32.000Z</time>
      </trkpt>
      <trkpt lat="43.89612" lon="7.33864">
        <ele>987</ele>
        <time>2018-04-24T09:31:38.000Z</time>
      </trkpt>
      <trkpt lat="43.89613" lon="7.33862">
        <ele>987</ele>
        <time>2018-04-24T09:31:40.000Z</time>
      </trkpt>
      <trkpt lat="43.89616" lon="7.33862">
        <ele>986</ele>
        <time>2018-04-24T09:31:46.000Z</time>
      </trkpt>
      <trkpt lat="43.89618" lon="7.33864">
        <ele>986</ele>
        <time>2018-04-24T09:31:53.000Z</time>
      </trkpt>
      <trkpt lat="43.89619" lon="7.33865">
        <ele>986</ele>
        <time>2018-04-24T09:32:16.000Z</time>
      </trkpt>
      <trkpt lat="43.89617" lon="7.33865">
        <ele>986</ele>
        <time>2018-04-24T09:32:26.000Z</time>
      </trkpt>
      <trkpt lat="43.89616" lon="7.33865">
        <ele>986</ele>
        <time>2018-04-24T09:32:27.000Z</time>
      </trkpt>
      <trkpt lat="43.89612" lon="7.33864">
        <ele>987</ele>
        <time>2018-04-24T09:32:33.000Z</time>
      </trkpt>
      <trkpt lat="43.89612" lon="7.33865">
        <ele>987</ele>
        <time>2018-04-24T09:32:39.000Z</time>
      </trkpt>
      <trkpt lat="43.89609" lon="7.33867">
        <ele>987</ele>
        <time>2018-04-24T09:32:45.000Z</time>
      </trkpt>
      <trkpt lat="43.89607" lon="7.33868">
        <ele>987</ele>
        <time>2018-04-24T09:32:47.000Z</time>
      </trkpt>
      <trkpt lat="43.89604" lon="7.33874">
        <ele>987</ele>
        <time>2018-04-24T09:32:50.000Z</time>
      </trkpt>
      <trkpt lat="43.896" lon="7.33891">
        <ele>987</ele>
        <time>2018-04-24T09:32:56.000Z</time>
      </trkpt>
      <trkpt lat="43.896" lon="7.33897">
        <ele>987</ele>
        <time>2018-04-24T09:32:58.000Z</time>
      </trkpt>
      <trkpt lat="43.896" lon="7.33902">
        <ele>987</ele>
        <time>2018-04-24T09:33:00.000Z</time>
      </trkpt>
      <trkpt lat="43.896" lon="7.33912">
        <ele>987</ele>
        <time>2018-04-24T09:33:03.000Z</time>
      </trkpt>
      <trkpt lat="43.89601" lon="7.33927">
        <ele>992</ele>
        <time>2018-04-24T09:33:07.000Z</time>
      </trkpt>
      <trkpt lat="43.89603" lon="7.33936">
        <ele>993</ele>
        <time>2018-04-24T09:33:10.000Z</time>
      </trkpt>
      <trkpt lat="43.89606" lon="7.33949">
        <ele>995</ele>
        <time>2018-04-24T09:33:14.000Z</time>
      </trkpt>
      <trkpt lat="43.89611" lon="7.33963">
        <ele>997</ele>
        <time>2018-04-24T09:33:18.000Z</time>
      </trkpt>
      <trkpt lat="43.89619" lon="7.33986">
        <ele>999</ele>
        <time>2018-04-24T09:33:24.000Z</time>
      </trkpt>
      <trkpt lat="43.89624" lon="7.33992">
        <ele>1000</ele>
        <time>2018-04-24T09:33:26.000Z</time>
      </trkpt>
      <trkpt lat="43.89638" lon="7.33994">
        <ele>1001</ele>
        <time>2018-04-24T09:33:30.000Z</time>
      </trkpt>
      <trkpt lat="43.89667" lon="7.33984">
        <ele>1003</ele>
        <time>2018-04-24T09:33:38.000Z</time>
      </trkpt>
      <trkpt lat="43.8968" lon="7.33965">
        <ele>997</ele>
        <time>2018-04-24T09:33:43.000Z</time>
      </trkpt>
      <trkpt lat="43.89691" lon="7.33948">
        <ele>994</ele>
        <time>2018-04-24T09:33:47.000Z</time>
      </trkpt>
      <trkpt lat="43.89698" lon="7.33942">
        <ele>993</ele>
        <time>2018-04-24T09:33:49.000Z</time>
      </trkpt>
      <trkpt lat="43.89709" lon="7.33934">
        <ele>992</ele>
        <time>2018-04-24T09:33:52.000Z</time>
      </trkpt>
      <trkpt lat="43.89724" lon="7.33935">
        <ele>992</ele>
        <time>2018-04-24T09:33:55.000Z</time>
      </trkpt>
      <trkpt lat="43.89733" lon="7.33948">
        <ele>993</ele>
        <time>2018-04-24T09:33:58.000Z</time>
      </trkpt>
      <trkpt lat="43.89732" lon="7.33969">
        <ele>995</ele>
        <time>2018-04-24T09:34:01.000Z</time>
      </trkpt>
      <trkpt lat="43.89729" lon="7.33982">
        <ele>996</ele>
        <time>2018-04-24T09:34:03.000Z</time>
      </trkpt>
      <trkpt lat="43.89727" lon="7.33989">
        <ele>996</ele>
        <time>2018-04-24T09:34:04.000Z</time>
      </trkpt>
      <trkpt lat="43.89728" lon="7.34003">
        <ele>1007</ele>
        <time>2018-04-24T09:34:06.000Z</time>
      </trkpt>
      <trkpt lat="43.89738" lon="7.34027">
        <ele>1009</ele>
        <time>2018-04-24T09:34:10.000Z</time>
      </trkpt>
      <trkpt lat="43.89741" lon="7.34034">
        <ele>1010</ele>
        <time>2018-04-24T09:34:11.000Z</time>
      </trkpt>
      <trkpt lat="43.89754" lon="7.34057">
        <ele>1007</ele>
        <time>2018-04-24T09:34:15.000Z</time>
      </trkpt>
      <trkpt lat="43.89769" lon="7.3406">
        <ele>1007</ele>
        <time>2018-04-24T09:34:18.000Z</time>
      </trkpt>
      <trkpt lat="43.89782" lon="7.34049">
        <ele>1005</ele>
        <time>2018-04-24T09:34:21.000Z</time>
      </trkpt>
      <trkpt lat="43.8979" lon="7.3404">
        <ele>1004</ele>
        <time>2018-04-24T09:34:23.000Z</time>
      </trkpt>
      <trkpt lat="43.89798" lon="7.34033">
        <ele>1002</ele>
        <time>2018-04-24T09:34:25.000Z</time>
      </trkpt>
      <trkpt lat="43.89803" lon="7.3403">
        <ele>1002</ele>
        <time>2018-04-24T09:34:26.000Z</time>
      </trkpt>
      <trkpt lat="43.89818" lon="7.34032">
        <ele>1002</ele>
        <time>2018-04-24T09:34:29.000Z</time>
      </trkpt>
      <trkpt lat="43.89827" lon="7.3404">
        <ele>1003</ele>
        <time>2018-04-24T09:34:31.000Z</time>
      </trkpt>
      <trkpt lat="43.89839" lon="7.34054">
        <ele>1000</ele>
        <time>2018-04-24T09:34:34.000Z</time>
      </trkpt>
      <trkpt lat="43.89867" lon="7.34071">
        <ele>1000</ele>
        <time>2018-04-24T09:34:39.000Z</time>
      </trkpt>
      <trkpt lat="43.899" lon="7.34091">
        <ele>1013</ele>
        <time>2018-04-24T09:34:45.000Z</time>
      </trkpt>
      <trkpt lat="43.89934" lon="7.3411">
        <ele>1014</ele>
        <time>2018-04-24T09:34:52.000Z</time>
      </trkpt>
      <trkpt lat="43.89946" lon="7.34115">
        <ele>1015</ele>
        <time>2018-04-24T09:34:55.000Z</time>
      </trkpt>
      <trkpt lat="43.89953" lon="7.34118">
        <ele>1016</ele>
        <time>2018-04-24T09:34:57.000Z</time>
      </trkpt>
      <trkpt lat="43.89956" lon="7.34119">
        <ele>1016</ele>
        <time>2018-04-24T09:34:58.000Z</time>
      </trkpt>
      <trkpt lat="43.89965" lon="7.34125">
        <ele>1016</ele>
        <time>2018-04-24T09:35:01.000Z</time>
      </trkpt>
      <trkpt lat="43.89975" lon="7.34129">
        <ele>1017</ele>
        <time>2018-04-24T09:35:04.000Z</time>
      </trkpt>
      <trkpt lat="43.89978" lon="7.34131">
        <ele>1017</ele>
        <time>2018-04-24T09:35:05.000Z</time>
      </trkpt>
      <trkpt lat="43.89985" lon="7.34134">
        <ele>1018</ele>
        <time>2018-04-24T09:35:07.000Z</time>
      </trkpt>
      <trkpt lat="43.89997" lon="7.34142">
        <ele>1019</ele>
        <time>2018-04-24T09:35:11.000Z</time>
      </trkpt>
      <trkpt lat="43.9" lon="7.34144">
        <ele>1020</ele>
        <time>2018-04-24T09:35:12.000Z</time>
      </trkpt>
      <trkpt lat="43.90006" lon="7.34149">
        <ele>1022</ele>
        <time>2018-04-24T09:35:14.000Z</time>
      </trkpt>
      <trkpt lat="43.90013" lon="7.34153">
        <ele>1023</ele>
        <time>2018-04-24T09:35:17.000Z</time>
      </trkpt>
      <trkpt lat="43.90026" lon="7.34162">
        <ele>1023</ele>
        <time>2018-04-24T09:35:22.000Z</time>
      </trkpt>
      <trkpt lat="43.90029" lon="7.34165">
        <ele>1023</ele>
        <time>2018-04-24T09:35:23.000Z</time>
      </trkpt>
      <trkpt lat="43.90041" lon="7.34174">
        <ele>1042</ele>
        <time>2018-04-24T09:35:28.000Z</time>
      </trkpt>
      <trkpt lat="43.9005" lon="7.34181">
        <ele>1043</ele>
        <time>2018-04-24T09:35:32.000Z</time>
      </trkpt>
      <trkpt lat="43.90056" lon="7.34183">
        <ele>1043</ele>
        <time>2018-04-24T09:35:34.000Z</time>
      </trkpt>
      <trkpt lat="43.90065" lon="7.34182">
        <ele>1042</ele>
        <time>2018-04-24T09:35:38.000Z</time>
      </trkpt>
      <trkpt lat="43.90073" lon="7.34177">
        <ele>1039</ele>
        <time>2018-04-24T09:35:41.000Z</time>
      </trkpt>
      <trkpt lat="43.9008" lon="7.34168">
        <ele>1034</ele>
        <time>2018-04-24T09:35:44.000Z</time>
      </trkpt>
      <trkpt lat="43.90087" lon="7.34151">
        <ele>1042</ele>
        <time>2018-04-24T09:35:48.000Z</time>
      </trkpt>
      <trkpt lat="43.90088" lon="7.34146">
        <ele>1043</ele>
        <time>2018-04-24T09:35:49.000Z</time>
      </trkpt>
      <trkpt lat="43.9009" lon="7.34133">
        <ele>1046</ele>
        <time>2018-04-24T09:35:52.000Z</time>
      </trkpt>
      <trkpt lat="43.9009" lon="7.34124">
        <ele>1046</ele>
        <time>2018-04-24T09:35:54.000Z</time>
      </trkpt>
      <trkpt lat="43.9009" lon="7.34111">
        <ele>1044</ele>
        <time>2018-04-24T09:35:57.000Z</time>
      </trkpt>
      <trkpt lat="43.90088" lon="7.34081">
        <ele>1031</ele>
        <time>2018-04-24T09:36:04.000Z</time>
      </trkpt>
      <trkpt lat="43.90088" lon="7.34057">
        <ele>1041</ele>
        <time>2018-04-24T09:36:10.000Z</time>
      </trkpt>
      <trkpt lat="43.90087" lon="7.34045">
        <ele>1042</ele>
        <time>2018-04-24T09:36:13.000Z</time>
      </trkpt>
      <trkpt lat="43.90086" lon="7.34034">
        <ele>1041</ele>
        <time>2018-04-24T09:36:16.000Z</time>
      </trkpt>
      <trkpt lat="43.90085" lon="7.34011">
        <ele>1034</ele>
        <time>2018-04-24T09:36:22.000Z</time>
      </trkpt>
      <trkpt lat="43.90084" lon="7.34004">
        <ele>1029</ele>
        <time>2018-04-24T09:36:24.000Z</time>
      </trkpt>
      <trkpt lat="43.90083" lon="7.33988">
        <ele>1017</ele>
        <time>2018-04-24T09:36:28.000Z</time>
      </trkpt>
      <trkpt lat="43.90079" lon="7.33966">
        <ele>1010</ele>
        <time>2018-04-24T09:36:34.000Z</time>
      </trkpt>
      <trkpt lat="43.90078" lon="7.33958">
        <ele>1009</ele>
        <time>2018-04-24T09:36:36.000Z</time>
      </trkpt>
      <trkpt lat="43.9008" lon="7.33943">
        <ele>1009</ele>
        <time>2018-04-24T09:36:40.000Z</time>
      </trkpt>
      <trkpt lat="43.90092" lon="7.33927">
        <ele>1027</ele>
        <time>2018-04-24T09:36:46.000Z</time>
      </trkpt>
      <trkpt lat="43.90096" lon="7.33922">
        <ele>1028</ele>
        <time>2018-04-24T09:36:48.000Z</time>
      </trkpt>
      <trkpt lat="43.90105" lon="7.33902">
        <ele>1024</ele>
        <time>2018-04-24T09:36:54.000Z</time>
      </trkpt>
      <trkpt lat="43.90107" lon="7.3389">
        <ele>1024</ele>
        <time>2018-04-24T09:36:57.000Z</time>
      </trkpt>
      <trkpt lat="43.9011" lon="7.33868">
        <ele>1023</ele>
        <time>2018-04-24T09:37:03.000Z</time>
      </trkpt>
      <trkpt lat="43.90114" lon="7.33851">
        <ele>1021</ele>
        <time>2018-04-24T09:37:08.000Z</time>
      </trkpt>
      <trkpt lat="43.90118" lon="7.33842">
        <ele>1021</ele>
        <time>2018-04-24T09:37:11.000Z</time>
      </trkpt>
      <trkpt lat="43.90122" lon="7.33837">
        <ele>1022</ele>
        <time>2018-04-24T09:37:13.000Z</time>
      </trkpt>
      <trkpt lat="43.90131" lon="7.33828">
        <ele>1015</ele>
        <time>2018-04-24T09:37:17.000Z</time>
      </trkpt>
      <trkpt lat="43.90142" lon="7.33823">
        <ele>1018</ele>
        <time>2018-04-24T09:37:21.000Z</time>
      </trkpt>
      <trkpt lat="43.90157" lon="7.33818">
        <ele>1021</ele>
        <time>2018-04-24T09:37:26.000Z</time>
      </trkpt>
      <trkpt lat="43.9016" lon="7.33816">
        <ele>1021</ele>
        <time>2018-04-24T09:37:27.000Z</time>
      </trkpt>
      <trkpt lat="43.90177" lon="7.3381">
        <ele>1028</ele>
        <time>2018-04-24T09:37:33.000Z</time>
      </trkpt>
      <trkpt lat="43.90183" lon="7.33808">
        <ele>1028</ele>
        <time>2018-04-24T09:37:35.000Z</time>
      </trkpt>
      <trkpt lat="43.90204" lon="7.33806">
        <ele>1027</ele>
        <time>2018-04-24T09:37:42.000Z</time>
      </trkpt>
      <trkpt lat="43.90211" lon="7.33806">
        <ele>1028</ele>
        <time>2018-04-24T09:37:44.000Z</time>
      </trkpt>
      <trkpt lat="43.90238" lon="7.33809">
        <ele>1030</ele>
        <time>2018-04-24T09:37:52.000Z</time>
      </trkpt>
      <trkpt lat="43.90246" lon="7.3381">
        <ele>1030</ele>
        <time>2018-04-24T09:37:54.000Z</time>
      </trkpt>
      <trkpt lat="43.90273" lon="7.3381">
        <ele>1029</ele>
        <time>2018-04-24T09:38:01.000Z</time>
      </trkpt>
      <trkpt lat="43.90295" lon="7.33815">
        <ele>1027</ele>
        <time>2018-04-24T09:38:07.000Z</time>
      </trkpt>
      <trkpt lat="43.90304" lon="7.33829">
        <ele>1027</ele>
        <time>2018-04-24T09:38:11.000Z</time>
      </trkpt>
      <trkpt lat="43.90305" lon="7.33844">
        <ele>1039</ele>
        <time>2018-04-24T09:38:14.000Z</time>
      </trkpt>
      <trkpt lat="43.90305" lon="7.33849">
        <ele>1039</ele>
        <time>2018-04-24T09:38:15.000Z</time>
      </trkpt>
      <trkpt lat="43.90308" lon="7.33883">
        <ele>1044</ele>
        <time>2018-04-24T09:38:22.000Z</time>
      </trkpt>
      <trkpt lat="43.9031" lon="7.33894">
        <ele>1045</ele>
        <time>2018-04-24T09:38:24.000Z</time>
      </trkpt>
      <trkpt lat="43.90316" lon="7.33917">
        <ele>1059</ele>
        <time>2018-04-24T09:38:28.000Z</time>
      </trkpt>
      <trkpt lat="43.90319" lon="7.33929">
        <ele>1061</ele>
        <time>2018-04-24T09:38:30.000Z</time>
      </trkpt>
      <trkpt lat="43.90328" lon="7.33943">
        <ele>1065</ele>
        <time>2018-04-24T09:38:33.000Z</time>
      </trkpt>
      <trkpt lat="43.90341" lon="7.33945">
        <ele>1060</ele>
        <time>2018-04-24T09:38:36.000Z</time>
      </trkpt>
      <trkpt lat="43.90353" lon="7.33935">
        <ele>1058</ele>
        <time>2018-04-24T09:38:39.000Z</time>
      </trkpt>
      <trkpt lat="43.90357" lon="7.33931">
        <ele>1058</ele>
        <time>2018-04-24T09:38:40.000Z</time>
      </trkpt>
      <trkpt lat="43.90371" lon="7.33914">
        <ele>1038</ele>
        <time>2018-04-24T09:38:44.000Z</time>
      </trkpt>
      <trkpt lat="43.9038" lon="7.33907">
        <ele>1038</ele>
        <time>2018-04-24T09:38:46.000Z</time>
      </trkpt>
      <trkpt lat="43.90389" lon="7.33902">
        <ele>1038</ele>
        <time>2018-04-24T09:38:48.000Z</time>
      </trkpt>
      <trkpt lat="43.90405" lon="7.33898">
        <ele>1039</ele>
        <time>2018-04-24T09:38:51.000Z</time>
      </trkpt>
      <trkpt lat="43.90416" lon="7.33899">
        <ele>1040</ele>
        <time>2018-04-24T09:38:53.000Z</time>
      </trkpt>
      <trkpt lat="43.90426" lon="7.33898">
        <ele>1035</ele>
        <time>2018-04-24T09:38:55.000Z</time>
      </trkpt>
      <trkpt lat="43.90437" lon="7.33898">
        <ele>1033</ele>
        <time>2018-04-24T09:38:57.000Z</time>
      </trkpt>
      <trkpt lat="43.90447" lon="7.33903">
        <ele>1032</ele>
        <time>2018-04-24T09:38:59.000Z</time>
      </trkpt>
      <trkpt lat="43.90451" lon="7.33909">
        <ele>1032</ele>
        <time>2018-04-24T09:39:00.000Z</time>
      </trkpt>
      <trkpt lat="43.90462" lon="7.33929">
        <ele>1050</ele>
        <time>2018-04-24T09:39:03.000Z</time>
      </trkpt>
      <trkpt lat="43.90469" lon="7.33944">
        <ele>1051</ele>
        <time>2018-04-24T09:39:05.000Z</time>
      </trkpt>
      <trkpt lat="43.90473" lon="7.33951">
        <ele>1052</ele>
        <time>2018-04-24T09:39:06.000Z</time>
      </trkpt>
      <trkpt lat="43.9048" lon="7.33974">
        <ele>1054</ele>
        <time>2018-04-24T09:39:09.000Z</time>
      </trkpt>
      <trkpt lat="43.90483" lon="7.3398">
        <ele>1055</ele>
        <time>2018-04-24T09:39:10.000Z</time>
      </trkpt>
      <trkpt lat="43.90495" lon="7.33989">
        <ele>1055</ele>
        <time>2018-04-24T09:39:12.000Z</time>
      </trkpt>
      <trkpt lat="43.90507" lon="7.33989">
        <ele>1052</ele>
        <time>2018-04-24T09:39:14.000Z</time>
      </trkpt>
      <trkpt lat="43.90513" lon="7.33988">
        <ele>1052</ele>
        <time>2018-04-24T09:39:15.000Z</time>
      </trkpt>
      <trkpt lat="43.90518" lon="7.33986">
        <ele>1051</ele>
        <time>2018-04-24T09:39:16.000Z</time>
      </trkpt>
      <trkpt lat="43.90533" lon="7.33978">
        <ele>1051</ele>
        <time>2018-04-24T09:39:19.000Z</time>
      </trkpt>
      <trkpt lat="43.90542" lon="7.33972">
        <ele>1050</ele>
        <time>2018-04-24T09:39:21.000Z</time>
      </trkpt>
      <trkpt lat="43.9055" lon="7.33965">
        <ele>1050</ele>
        <time>2018-04-24T09:39:23.000Z</time>
      </trkpt>
      <trkpt lat="43.90555" lon="7.33961">
        <ele>1050</ele>
        <time>2018-04-24T09:39:24.000Z</time>
      </trkpt>
      <trkpt lat="43.90561" lon="7.3395">
        <ele>1049</ele>
        <time>2018-04-24T09:39:26.000Z</time>
      </trkpt>
      <trkpt lat="43.90565" lon="7.33926">
        <ele>1047</ele>
        <time>2018-04-24T09:39:30.000Z</time>
      </trkpt>
      <trkpt lat="43.90567" lon="7.33911">
        <ele>1037</ele>
        <time>2018-04-24T09:39:33.000Z</time>
      </trkpt>
      <trkpt lat="43.90572" lon="7.33899">
        <ele>1036</ele>
        <time>2018-04-24T09:39:36.000Z</time>
      </trkpt>
      <trkpt lat="43.90586" lon="7.33885">
        <ele>1048</ele>
        <time>2018-04-24T09:39:41.000Z</time>
      </trkpt>
      <trkpt lat="43.90589" lon="7.33883">
        <ele>1049</ele>
        <time>2018-04-24T09:39:42.000Z</time>
      </trkpt>
      <trkpt lat="43.90603" lon="7.3388">
        <ele>1050</ele>
        <time>2018-04-24T09:39:46.000Z</time>
      </trkpt>
      <trkpt lat="43.90621" lon="7.33877">
        <ele>1053</ele>
        <time>2018-04-24T09:39:51.000Z</time>
      </trkpt>
      <trkpt lat="43.90626" lon="7.33873">
        <ele>1054</ele>
        <time>2018-04-24T09:39:53.000Z</time>
      </trkpt>
      <trkpt lat="43.90634" lon="7.33865">
        <ele>1055</ele>
        <time>2018-04-24T09:39:56.000Z</time>
      </trkpt>
      <trkpt lat="43.9064" lon="7.33859">
        <ele>1056</ele>
        <time>2018-04-24T09:39:59.000Z</time>
      </trkpt>
      <trkpt lat="43.90643" lon="7.33852">
        <ele>1057</ele>
        <time>2018-04-24T09:40:01.000Z</time>
      </trkpt>
      <trkpt lat="43.90647" lon="7.33836">
        <ele>1059</ele>
        <time>2018-04-24T09:40:05.000Z</time>
      </trkpt>
      <trkpt lat="43.90648" lon="7.33827">
        <ele>1054</ele>
        <time>2018-04-24T09:40:07.000Z</time>
      </trkpt>
      <trkpt lat="43.90649" lon="7.33816">
        <ele>1052</ele>
        <time>2018-04-24T09:40:10.000Z</time>
      </trkpt>
      <trkpt lat="43.90649" lon="7.33808">
        <ele>1051</ele>
        <time>2018-04-24T09:40:12.000Z</time>
      </trkpt>
      <trkpt lat="43.90648" lon="7.33791">
        <ele>1049</ele>
        <time>2018-04-24T09:40:17.000Z</time>
      </trkpt>
      <trkpt lat="43.90646" lon="7.3378">
        <ele>1049</ele>
        <time>2018-04-24T09:40:20.000Z</time>
      </trkpt>
      <trkpt lat="43.90645" lon="7.3377">
        <ele>1049</ele>
        <time>2018-04-24T09:40:23.000Z</time>
      </trkpt>
      <trkpt lat="43.90645" lon="7.33763">
        <ele>1050</ele>
        <time>2018-04-24T09:40:25.000Z</time>
      </trkpt>
      <trkpt lat="43.90646" lon="7.33741">
        <ele>1047</ele>
        <time>2018-04-24T09:40:31.000Z</time>
      </trkpt>
      <trkpt lat="43.90646" lon="7.33733">
        <ele>1046</ele>
        <time>2018-04-24T09:40:33.000Z</time>
      </trkpt>
      <trkpt lat="43.90652" lon="7.33716">
        <ele>1044</ele>
        <time>2018-04-24T09:40:38.000Z</time>
      </trkpt>
      <trkpt lat="43.90654" lon="7.33709">
        <ele>1044</ele>
        <time>2018-04-24T09:40:40.000Z</time>
      </trkpt>
      <trkpt lat="43.90661" lon="7.33693">
        <ele>1046</ele>
        <time>2018-04-24T09:40:45.000Z</time>
      </trkpt>
      <trkpt lat="43.90663" lon="7.3369">
        <ele>1046</ele>
        <time>2018-04-24T09:40:46.000Z</time>
      </trkpt>
      <trkpt lat="43.90668" lon="7.33676">
        <ele>1065</ele>
        <time>2018-04-24T09:40:50.000Z</time>
      </trkpt>
      <trkpt lat="43.90671" lon="7.33667">
        <ele>1060</ele>
        <time>2018-04-24T09:40:53.000Z</time>
      </trkpt>
      <trkpt lat="43.90674" lon="7.33658">
        <ele>1062</ele>
        <time>2018-04-24T09:40:56.000Z</time>
      </trkpt>
      <trkpt lat="43.90675" lon="7.33642">
        <ele>1067</ele>
        <time>2018-04-24T09:41:01.000Z</time>
      </trkpt>
      <trkpt lat="43.90675" lon="7.33638">
        <ele>1067</ele>
        <time>2018-04-24T09:41:02.000Z</time>
      </trkpt>
      <trkpt lat="43.90675" lon="7.33618">
        <ele>1067</ele>
        <time>2018-04-24T09:41:08.000Z</time>
      </trkpt>
      <trkpt lat="43.90675" lon="7.33614">
        <ele>1066</ele>
        <time>2018-04-24T09:41:09.000Z</time>
      </trkpt>
      <trkpt lat="43.90676" lon="7.33607">
        <ele>1065</ele>
        <time>2018-04-24T09:41:11.000Z</time>
      </trkpt>
      <trkpt lat="43.90679" lon="7.33602">
        <ele>1064</ele>
        <time>2018-04-24T09:41:13.000Z</time>
      </trkpt>
      <trkpt lat="43.90681" lon="7.33599">
        <ele>1064</ele>
        <time>2018-04-24T09:41:14.000Z</time>
      </trkpt>
      <trkpt lat="43.90683" lon="7.33596">
        <ele>1064</ele>
        <time>2018-04-24T09:41:15.000Z</time>
      </trkpt>
      <trkpt lat="43.90689" lon="7.3358">
        <ele>1063</ele>
        <time>2018-04-24T09:41:19.000Z</time>
      </trkpt>
      <trkpt lat="43.90688" lon="7.33566">
        <ele>1064</ele>
        <time>2018-04-24T09:41:22.000Z</time>
      </trkpt>
      <trkpt lat="43.90687" lon="7.33562">
        <ele>1065</ele>
        <time>2018-04-24T09:41:23.000Z</time>
      </trkpt>
      <trkpt lat="43.90682" lon="7.33547">
        <ele>1065</ele>
        <time>2018-04-24T09:41:27.000Z</time>
      </trkpt>
      <trkpt lat="43.90677" lon="7.33535">
        <ele>1065</ele>
        <time>2018-04-24T09:41:30.000Z</time>
      </trkpt>
      <trkpt lat="43.90677" lon="7.33517">
        <ele>1063</ele>
        <time>2018-04-24T09:41:34.000Z</time>
      </trkpt>
      <trkpt lat="43.90677" lon="7.33483">
        <ele>1061</ele>
        <time>2018-04-24T09:41:41.000Z</time>
      </trkpt>
      <trkpt lat="43.90676" lon="7.33478">
        <ele>1061</ele>
        <time>2018-04-24T09:41:42.000Z</time>
      </trkpt>
      <trkpt lat="43.90673" lon="7.33462">
        <ele>1061</ele>
        <time>2018-04-24T09:41:45.000Z</time>
      </trkpt>
      <trkpt lat="43.90673" lon="7.3345">
        <ele>1061</ele>
        <time>2018-04-24T09:41:47.000Z</time>
      </trkpt>
      <trkpt lat="43.90675" lon="7.33438">
        <ele>1060</ele>
        <time>2018-04-24T09:41:49.000Z</time>
      </trkpt>
      <trkpt lat="43.90682" lon="7.33406">
        <ele>1056</ele>
        <time>2018-04-24T09:41:54.000Z</time>
      </trkpt>
      <trkpt lat="43.90684" lon="7.334">
        <ele>1056</ele>
        <time>2018-04-24T09:41:55.000Z</time>
      </trkpt>
      <trkpt lat="43.90695" lon="7.33388">
        <ele>1057</ele>
        <time>2018-04-24T09:41:58.000Z</time>
      </trkpt>
      <trkpt lat="43.90716" lon="7.33388">
        <ele>1058</ele>
        <time>2018-04-24T09:42:02.000Z</time>
      </trkpt>
      <trkpt lat="43.90726" lon="7.33393">
        <ele>1060</ele>
        <time>2018-04-24T09:42:04.000Z</time>
      </trkpt>
      <trkpt lat="43.90737" lon="7.33397">
        <ele>1061</ele>
        <time>2018-04-24T09:42:06.000Z</time>
      </trkpt>
      <trkpt lat="43.90743" lon="7.33397">
        <ele>1062</ele>
        <time>2018-04-24T09:42:07.000Z</time>
      </trkpt>
      <trkpt lat="43.90758" lon="7.33388">
        <ele>1063</ele>
        <time>2018-04-24T09:42:10.000Z</time>
      </trkpt>
      <trkpt lat="43.90764" lon="7.33373">
        <ele>1061</ele>
        <time>2018-04-24T09:42:12.000Z</time>
      </trkpt>
      <trkpt lat="43.90765" lon="7.33365">
        <ele>1061</ele>
        <time>2018-04-24T09:42:13.000Z</time>
      </trkpt>
      <trkpt lat="43.90773" lon="7.33341">
        <ele>1059</ele>
        <time>2018-04-24T09:42:17.000Z</time>
      </trkpt>
      <trkpt lat="43.90776" lon="7.33337">
        <ele>1059</ele>
        <time>2018-04-24T09:42:20.000Z</time>
      </trkpt>
      <trkpt lat="43.90776" lon="7.33335">
        <ele>1059</ele>
        <time>2018-04-24T09:42:29.000Z</time>
      </trkpt>
      <trkpt lat="43.90776" lon="7.33335">
        <ele>1059</ele>
        <time>2018-04-24T09:42:41.000Z</time>
      </trkpt>
      <trkpt lat="43.90775" lon="7.33333">
        <ele>1059</ele>
        <time>2018-04-24T09:42:47.000Z</time>
      </trkpt>
      <trkpt lat="43.90774" lon="7.33333">
        <ele>1059</ele>
        <time>2018-04-24T09:42:54.000Z</time>
      </trkpt>
      <trkpt lat="43.90775" lon="7.33334">
        <ele>1059</ele>
        <time>2018-04-24T09:43:00.000Z</time>
      </trkpt>
      <trkpt lat="43.90775" lon="7.33334">
        <ele>1059</ele>
        <time>2018-04-24T09:43:07.000Z</time>
      </trkpt>
      <trkpt lat="43.90774" lon="7.33333">
        <ele>1059</ele>
        <time>2018-04-24T09:43:20.000Z</time>
      </trkpt>
      <trkpt lat="43.90777" lon="7.33333">
        <ele>1059</ele>
        <time>2018-04-24T09:43:22.000Z</time>
      </trkpt>
      <trkpt lat="43.90787" lon="7.33338">
        <ele>1059</ele>
        <time>2018-04-24T09:43:27.000Z</time>
      </trkpt>
      <trkpt lat="43.90804" lon="7.33351">
        <ele>1059</ele>
        <time>2018-04-24T09:43:32.000Z</time>
      </trkpt>
      <trkpt lat="43.90811" lon="7.33356">
        <ele>1059</ele>
        <time>2018-04-24T09:43:34.000Z</time>
      </trkpt>
      <trkpt lat="43.90821" lon="7.33366">
        <ele>1060</ele>
        <time>2018-04-24T09:43:37.000Z</time>
      </trkpt>
      <trkpt lat="43.90826" lon="7.33381">
        <ele>1062</ele>
        <time>2018-04-24T09:43:40.000Z</time>
      </trkpt>
      <trkpt lat="43.90828" lon="7.33387">
        <ele>1062</ele>
        <time>2018-04-24T09:43:41.000Z</time>
      </trkpt>
      <trkpt lat="43.90831" lon="7.33392">
        <ele>1063</ele>
        <time>2018-04-24T09:43:42.000Z</time>
      </trkpt>
      <trkpt lat="43.90842" lon="7.33398">
        <ele>1061</ele>
        <time>2018-04-24T09:43:44.000Z</time>
      </trkpt>
      <trkpt lat="43.90847" lon="7.33398">
        <ele>1060</ele>
        <time>2018-04-24T09:43:45.000Z</time>
      </trkpt>
      <trkpt lat="43.90858" lon="7.33394">
        <ele>1059</ele>
        <time>2018-04-24T09:43:47.000Z</time>
      </trkpt>
      <trkpt lat="43.90868" lon="7.33394">
        <ele>1058</ele>
        <time>2018-04-24T09:43:49.000Z</time>
      </trkpt>
      <trkpt lat="43.90878" lon="7.334">
        <ele>1058</ele>
        <time>2018-04-24T09:43:51.000Z</time>
      </trkpt>
      <trkpt lat="43.90884" lon="7.33401">
        <ele>1058</ele>
        <time>2018-04-24T09:43:52.000Z</time>
      </trkpt>
      <trkpt lat="43.90905" lon="7.33391">
        <ele>1056</ele>
        <time>2018-04-24T09:43:55.000Z</time>
      </trkpt>
      <trkpt lat="43.90911" lon="7.33386">
        <ele>1056</ele>
        <time>2018-04-24T09:43:56.000Z</time>
      </trkpt>
      <trkpt lat="43.90918" lon="7.33382">
        <ele>1051</ele>
        <time>2018-04-24T09:43:57.000Z</time>
      </trkpt>
      <trkpt lat="43.90925" lon="7.3338">
        <ele>1051</ele>
        <time>2018-04-24T09:43:58.000Z</time>
      </trkpt>
      <trkpt lat="43.90934" lon="7.3338">
        <ele>1051</ele>
        <time>2018-04-24T09:43:59.000Z</time>
      </trkpt>
      <trkpt lat="43.90943" lon="7.33379">
        <ele>1051</ele>
        <time>2018-04-24T09:44:00.000Z</time>
      </trkpt>
      <trkpt lat="43.90962" lon="7.33378">
        <ele>1050</ele>
        <time>2018-04-24T09:44:02.000Z</time>
      </trkpt>
      <trkpt lat="43.9098" lon="7.33379">
        <ele>1050</ele>
        <time>2018-04-24T09:44:04.000Z</time>
      </trkpt>
      <trkpt lat="43.90998" lon="7.33379">
        <ele>1050</ele>
        <time>2018-04-24T09:44:06.000Z</time>
      </trkpt>
      <trkpt lat="43.91006" lon="7.33377">
        <ele>1046</ele>
        <time>2018-04-24T09:44:07.000Z</time>
      </trkpt>
      <trkpt lat="43.91012" lon="7.33373">
        <ele>1045</ele>
        <time>2018-04-24T09:44:08.000Z</time>
      </trkpt>
      <trkpt lat="43.91022" lon="7.33356">
        <ele>1042</ele>
        <time>2018-04-24T09:44:10.000Z</time>
      </trkpt>
      <trkpt lat="43.91023" lon="7.33345">
        <ele>1041</ele>
        <time>2018-04-24T09:44:11.000Z</time>
      </trkpt>
      <trkpt lat="43.91025" lon="7.33335">
        <ele>1041</ele>
        <time>2018-04-24T09:44:12.000Z</time>
      </trkpt>
      <trkpt lat="43.91026" lon="7.33324">
        <ele>1032</ele>
        <time>2018-04-24T09:44:13.000Z</time>
      </trkpt>
      <trkpt lat="43.91029" lon="7.33313">
        <ele>1031</ele>
        <time>2018-04-24T09:44:14.000Z</time>
      </trkpt>
      <trkpt lat="43.91034" lon="7.33305">
        <ele>1030</ele>
        <time>2018-04-24T09:44:15.000Z</time>
      </trkpt>
      <trkpt lat="43.91041" lon="7.33297">
        <ele>1030</ele>
        <time>2018-04-24T09:44:16.000Z</time>
      </trkpt>
      <trkpt lat="43.91048" lon="7.33291">
        <ele>1029</ele>
        <time>2018-04-24T09:44:17.000Z</time>
      </trkpt>
      <trkpt lat="43.91064" lon="7.3328">
        <ele>1028</ele>
        <time>2018-04-24T09:44:19.000Z</time>
      </trkpt>
      <trkpt lat="43.91072" lon="7.33278">
        <ele>1027</ele>
        <time>2018-04-24T09:44:20.000Z</time>
      </trkpt>
      <trkpt lat="43.91082" lon="7.33278">
        <ele>1027</ele>
        <time>2018-04-24T09:44:21.000Z</time>
      </trkpt>
      <trkpt lat="43.91098" lon="7.3328">
        <ele>1019</ele>
        <time>2018-04-24T09:44:23.000Z</time>
      </trkpt>
      <trkpt lat="43.91106" lon="7.33284">
        <ele>1019</ele>
        <time>2018-04-24T09:44:24.000Z</time>
      </trkpt>
      <trkpt lat="43.91113" lon="7.33289">
        <ele>1019</ele>
        <time>2018-04-24T09:44:25.000Z</time>
      </trkpt>
      <trkpt lat="43.91118" lon="7.33297">
        <ele>1018</ele>
        <time>2018-04-24T09:44:26.000Z</time>
      </trkpt>
      <trkpt lat="43.91121" lon="7.33306">
        <ele>1019</ele>
        <time>2018-04-24T09:44:27.000Z</time>
      </trkpt>
      <trkpt lat="43.91122" lon="7.33315">
        <ele>1019</ele>
        <time>2018-04-24T09:44:28.000Z</time>
      </trkpt>
      <trkpt lat="43.91123" lon="7.33337">
        <ele>1025</ele>
        <time>2018-04-24T09:44:30.000Z</time>
      </trkpt>
      <trkpt lat="43.91121" lon="7.33358">
        <ele>1025</ele>
        <time>2018-04-24T09:44:32.000Z</time>
      </trkpt>
      <trkpt lat="43.91119" lon="7.33368">
        <ele>1026</ele>
        <time>2018-04-24T09:44:33.000Z</time>
      </trkpt>
      <trkpt lat="43.91116" lon="7.33379">
        <ele>1026</ele>
        <time>2018-04-24T09:44:34.000Z</time>
      </trkpt>
      <trkpt lat="43.91109" lon="7.33402">
        <ele>1029</ele>
        <time>2018-04-24T09:44:36.000Z</time>
      </trkpt>
      <trkpt lat="43.91108" lon="7.33414">
        <ele>1030</ele>
        <time>2018-04-24T09:44:37.000Z</time>
      </trkpt>
      <trkpt lat="43.91108" lon="7.33424">
        <ele>1037</ele>
        <time>2018-04-24T09:44:38.000Z</time>
      </trkpt>
      <trkpt lat="43.91115" lon="7.3344">
        <ele>1037</ele>
        <time>2018-04-24T09:44:40.000Z</time>
      </trkpt>
      <trkpt lat="43.91129" lon="7.33445">
        <ele>1036</ele>
        <time>2018-04-24T09:44:42.000Z</time>
      </trkpt>
      <trkpt lat="43.91137" lon="7.33444">
        <ele>1034</ele>
        <time>2018-04-24T09:44:43.000Z</time>
      </trkpt>
      <trkpt lat="43.91147" lon="7.33442">
        <ele>1032</ele>
        <time>2018-04-24T09:44:44.000Z</time>
      </trkpt>
      <trkpt lat="43.91157" lon="7.33441">
        <ele>1030</ele>
        <time>2018-04-24T09:44:45.000Z</time>
      </trkpt>
      <trkpt lat="43.91167" lon="7.3344">
        <ele>1020</ele>
        <time>2018-04-24T09:44:46.000Z</time>
      </trkpt>
      <trkpt lat="43.91179" lon="7.33441">
        <ele>1019</ele>
        <time>2018-04-24T09:44:47.000Z</time>
      </trkpt>
      <trkpt lat="43.91189" lon="7.33442">
        <ele>1019</ele>
        <time>2018-04-24T09:44:48.000Z</time>
      </trkpt>
      <trkpt lat="43.912" lon="7.33443">
        <ele>1018</ele>
        <time>2018-04-24T09:44:49.000Z</time>
      </trkpt>
      <trkpt lat="43.91211" lon="7.33442">
        <ele>1017</ele>
        <time>2018-04-24T09:44:50.000Z</time>
      </trkpt>
      <trkpt lat="43.9122" lon="7.33438">
        <ele>1015</ele>
        <time>2018-04-24T09:44:51.000Z</time>
      </trkpt>
      <trkpt lat="43.91229" lon="7.33431">
        <ele>1012</ele>
        <time>2018-04-24T09:44:52.000Z</time>
      </trkpt>
      <trkpt lat="43.91245" lon="7.33415">
        <ele>999</ele>
        <time>2018-04-24T09:44:54.000Z</time>
      </trkpt>
      <trkpt lat="43.91257" lon="7.33403">
        <ele>990</ele>
        <time>2018-04-24T09:44:56.000Z</time>
      </trkpt>
      <trkpt lat="43.91263" lon="7.334">
        <ele>988</ele>
        <time>2018-04-24T09:44:57.000Z</time>
      </trkpt>
      <trkpt lat="43.91269" lon="7.33401">
        <ele>987</ele>
        <time>2018-04-24T09:44:58.000Z</time>
      </trkpt>
      <trkpt lat="43.91275" lon="7.33403">
        <ele>986</ele>
        <time>2018-04-24T09:44:59.000Z</time>
      </trkpt>
      <trkpt lat="43.91278" lon="7.33419">
        <ele>995</ele>
        <time>2018-04-24T09:45:00.000Z</time>
      </trkpt>
      <trkpt lat="43.91277" lon="7.33431">
        <ele>995</ele>
        <time>2018-04-24T09:45:01.000Z</time>
      </trkpt>
      <trkpt lat="43.91273" lon="7.33455">
        <ele>998</ele>
        <time>2018-04-24T09:45:03.000Z</time>
      </trkpt>
      <trkpt lat="43.91272" lon="7.33467">
        <ele>1000</ele>
        <time>2018-04-24T09:45:04.000Z</time>
      </trkpt>
      <trkpt lat="43.91275" lon="7.33478">
        <ele>1001</ele>
        <time>2018-04-24T09:45:05.000Z</time>
      </trkpt>
      <trkpt lat="43.9128" lon="7.33487">
        <ele>1001</ele>
        <time>2018-04-24T09:45:06.000Z</time>
      </trkpt>
      <trkpt lat="43.91288" lon="7.33491">
        <ele>1000</ele>
        <time>2018-04-24T09:45:07.000Z</time>
      </trkpt>
      <trkpt lat="43.91296" lon="7.3349">
        <ele>998</ele>
        <time>2018-04-24T09:45:08.000Z</time>
      </trkpt>
      <trkpt lat="43.91315" lon="7.33485">
        <ele>994</ele>
        <time>2018-04-24T09:45:10.000Z</time>
      </trkpt>
      <trkpt lat="43.91331" lon="7.33494">
        <ele>992</ele>
        <time>2018-04-24T09:45:12.000Z</time>
      </trkpt>
      <trkpt lat="43.91338" lon="7.33503">
        <ele>991</ele>
        <time>2018-04-24T09:45:13.000Z</time>
      </trkpt>
      <trkpt lat="43.91346" lon="7.33512">
        <ele>990</ele>
        <time>2018-04-24T09:45:14.000Z</time>
      </trkpt>
      <trkpt lat="43.91356" lon="7.33519">
        <ele>990</ele>
        <time>2018-04-24T09:45:15.000Z</time>
      </trkpt>
      <trkpt lat="43.91365" lon="7.33526">
        <ele>989</ele>
        <time>2018-04-24T09:45:16.000Z</time>
      </trkpt>
      <trkpt lat="43.91374" lon="7.33535">
        <ele>989</ele>
        <time>2018-04-24T09:45:17.000Z</time>
      </trkpt>
      <trkpt lat="43.91389" lon="7.33557">
        <ele>988</ele>
        <time>2018-04-24T09:45:19.000Z</time>
      </trkpt>
      <trkpt lat="43.91393" lon="7.33568">
        <ele>987</ele>
        <time>2018-04-24T09:45:20.000Z</time>
      </trkpt>
      <trkpt lat="43.914" lon="7.33585">
        <ele>991</ele>
        <time>2018-04-24T09:45:22.000Z</time>
      </trkpt>
      <trkpt lat="43.91412" lon="7.3359">
        <ele>986</ele>
        <time>2018-04-24T09:45:24.000Z</time>
      </trkpt>
      <trkpt lat="43.91415" lon="7.33576">
        <ele>982</ele>
        <time>2018-04-24T09:45:26.000Z</time>
      </trkpt>
      <trkpt lat="43.91404" lon="7.33554">
        <ele>985</ele>
        <time>2018-04-24T09:45:29.000Z</time>
      </trkpt>
      <trkpt lat="43.914" lon="7.33545">
        <ele>985</ele>
        <time>2018-04-24T09:45:30.000Z</time>
      </trkpt>
      <trkpt lat="43.91391" lon="7.33529">
        <ele>985</ele>
        <time>2018-04-24T09:45:32.000Z</time>
      </trkpt>
      <trkpt lat="43.91386" lon="7.33523">
        <ele>985</ele>
        <time>2018-04-24T09:45:33.000Z</time>
      </trkpt>
      <trkpt lat="43.91375" lon="7.33511">
        <ele>987</ele>
        <time>2018-04-24T09:45:35.000Z</time>
      </trkpt>
      <trkpt lat="43.9137" lon="7.33504">
        <ele>987</ele>
        <time>2018-04-24T09:45:36.000Z</time>
      </trkpt>
      <trkpt lat="43.91372" lon="7.33486">
        <ele>976</ele>
        <time>2018-04-24T09:45:38.000Z</time>
      </trkpt>
      <trkpt lat="43.91386" lon="7.33484">
        <ele>974</ele>
        <time>2018-04-24T09:45:40.000Z</time>
      </trkpt>
      <trkpt lat="43.91398" lon="7.335">
        <ele>980</ele>
        <time>2018-04-24T09:45:42.000Z</time>
      </trkpt>
      <trkpt lat="43.91403" lon="7.3351">
        <ele>979</ele>
        <time>2018-04-24T09:45:43.000Z</time>
      </trkpt>
      <trkpt lat="43.91409" lon="7.3352">
        <ele>981</ele>
        <time>2018-04-24T09:45:44.000Z</time>
      </trkpt>
      <trkpt lat="43.91422" lon="7.33541">
        <ele>968</ele>
        <time>2018-04-24T09:45:46.000Z</time>
      </trkpt>
      <trkpt lat="43.91435" lon="7.33566">
        <ele>970</ele>
        <time>2018-04-24T09:45:48.000Z</time>
      </trkpt>
      <trkpt lat="43.91441" lon="7.33581">
        <ele>970</ele>
        <time>2018-04-24T09:45:49.000Z</time>
      </trkpt>
      <trkpt lat="43.91446" lon="7.33596">
        <ele>972</ele>
        <time>2018-04-24T09:45:50.000Z</time>
      </trkpt>
      <trkpt lat="43.91452" lon="7.33609">
        <ele>971</ele>
        <time>2018-04-24T09:45:51.000Z</time>
      </trkpt>
      <trkpt lat="43.91458" lon="7.33624">
        <ele>971</ele>
        <time>2018-04-24T09:45:52.000Z</time>
      </trkpt>
      <trkpt lat="43.91472" lon="7.3365">
        <ele>968</ele>
        <time>2018-04-24T09:45:54.000Z</time>
      </trkpt>
      <trkpt lat="43.91481" lon="7.33663">
        <ele>965</ele>
        <time>2018-04-24T09:45:55.000Z</time>
      </trkpt>
      <trkpt lat="43.91489" lon="7.33674">
        <ele>968</ele>
        <time>2018-04-24T09:45:56.000Z</time>
      </trkpt>
      <trkpt lat="43.91505" lon="7.33696">
        <ele>952</ele>
        <time>2018-04-24T09:45:58.000Z</time>
      </trkpt>
      <trkpt lat="43.91514" lon="7.33707">
        <ele>951</ele>
        <time>2018-04-24T09:45:59.000Z</time>
      </trkpt>
      <trkpt lat="43.91522" lon="7.33717">
        <ele>951</ele>
        <time>2018-04-24T09:46:00.000Z</time>
      </trkpt>
      <trkpt lat="43.91528" lon="7.33726">
        <ele>951</ele>
        <time>2018-04-24T09:46:01.000Z</time>
      </trkpt>
      <trkpt lat="43.91534" lon="7.33738">
        <ele>950</ele>
        <time>2018-04-24T09:46:02.000Z</time>
      </trkpt>
      <trkpt lat="43.9154" lon="7.33749">
        <ele>948</ele>
        <time>2018-04-24T09:46:03.000Z</time>
      </trkpt>
      <trkpt lat="43.91546" lon="7.33762">
        <ele>951</ele>
        <time>2018-04-24T09:46:04.000Z</time>
      </trkpt>
      <trkpt lat="43.91553" lon="7.33774">
        <ele>950</ele>
        <time>2018-04-24T09:46:05.000Z</time>
      </trkpt>
      <trkpt lat="43.91558" lon="7.33785">
        <ele>949</ele>
        <time>2018-04-24T09:46:06.000Z</time>
      </trkpt>
      <trkpt lat="43.91563" lon="7.33811">
        <ele>947</ele>
        <time>2018-04-24T09:46:08.000Z</time>
      </trkpt>
      <trkpt lat="43.91562" lon="7.33826">
        <ele>946</ele>
        <time>2018-04-24T09:46:09.000Z</time>
      </trkpt>
      <trkpt lat="43.9156" lon="7.33839">
        <ele>949</ele>
        <time>2018-04-24T09:46:10.000Z</time>
      </trkpt>
      <trkpt lat="43.91558" lon="7.33853">
        <ele>952</ele>
        <time>2018-04-24T09:46:11.000Z</time>
      </trkpt>
      <trkpt lat="43.91552" lon="7.33883">
        <ele>956</ele>
        <time>2018-04-24T09:46:13.000Z</time>
      </trkpt>
      <trkpt lat="43.91548" lon="7.33899">
        <ele>956</ele>
        <time>2018-04-24T09:46:14.000Z</time>
      </trkpt>
      <trkpt lat="43.91545" lon="7.33915">
        <ele>957</ele>
        <time>2018-04-24T09:46:15.000Z</time>
      </trkpt>
      <trkpt lat="43.91541" lon="7.33943">
        <ele>962</ele>
        <time>2018-04-24T09:46:17.000Z</time>
      </trkpt>
      <trkpt lat="43.9154" lon="7.33955">
        <ele>963</ele>
        <time>2018-04-24T09:46:18.000Z</time>
      </trkpt>
      <trkpt lat="43.91542" lon="7.33966">
        <ele>963</ele>
        <time>2018-04-24T09:46:19.000Z</time>
      </trkpt>
      <trkpt lat="43.9155" lon="7.33974">
        <ele>962</ele>
        <time>2018-04-24T09:46:20.000Z</time>
      </trkpt>
      <trkpt lat="43.91558" lon="7.33982">
        <ele>962</ele>
        <time>2018-04-24T09:46:21.000Z</time>
      </trkpt>
      <trkpt lat="43.91573" lon="7.33989">
        <ele>961</ele>
        <time>2018-04-24T09:46:23.000Z</time>
      </trkpt>
      <trkpt lat="43.91581" lon="7.33987">
        <ele>960</ele>
        <time>2018-04-24T09:46:24.000Z</time>
      </trkpt>
      <trkpt lat="43.91592" lon="7.33972">
        <ele>952</ele>
        <time>2018-04-24T09:46:26.000Z</time>
      </trkpt>
      <trkpt lat="43.91597" lon="7.33963">
        <ele>950</ele>
        <time>2018-04-24T09:46:27.000Z</time>
      </trkpt>
      <trkpt lat="43.9161" lon="7.33947">
        <ele>948</ele>
        <time>2018-04-24T09:46:29.000Z</time>
      </trkpt>
      <trkpt lat="43.91618" lon="7.33943">
        <ele>947</ele>
        <time>2018-04-24T09:46:30.000Z</time>
      </trkpt>
      <trkpt lat="43.91626" lon="7.33942">
        <ele>947</ele>
        <time>2018-04-24T09:46:31.000Z</time>
      </trkpt>
      <trkpt lat="43.91645" lon="7.33942">
        <ele>946</ele>
        <time>2018-04-24T09:46:33.000Z</time>
      </trkpt>
      <trkpt lat="43.91655" lon="7.33938">
        <ele>944</ele>
        <time>2018-04-24T09:46:34.000Z</time>
      </trkpt>
      <trkpt lat="43.91674" lon="7.33923">
        <ele>942</ele>
        <time>2018-04-24T09:46:36.000Z</time>
      </trkpt>
      <trkpt lat="43.9169" lon="7.33902">
        <ele>931</ele>
        <time>2018-04-24T09:46:38.000Z</time>
      </trkpt>
      <trkpt lat="43.91698" lon="7.33889">
        <ele>930</ele>
        <time>2018-04-24T09:46:39.000Z</time>
      </trkpt>
      <trkpt lat="43.91706" lon="7.33878">
        <ele>929</ele>
        <time>2018-04-24T09:46:40.000Z</time>
      </trkpt>
      <trkpt lat="43.91725" lon="7.33856">
        <ele>927</ele>
        <time>2018-04-24T09:46:42.000Z</time>
      </trkpt>
      <trkpt lat="43.91734" lon="7.33847">
        <ele>925</ele>
        <time>2018-04-24T09:46:43.000Z</time>
      </trkpt>
      <trkpt lat="43.91743" lon="7.33838">
        <ele>922</ele>
        <time>2018-04-24T09:46:44.000Z</time>
      </trkpt>
      <trkpt lat="43.91752" lon="7.33829">
        <ele>918</ele>
        <time>2018-04-24T09:46:45.000Z</time>
      </trkpt>
      <trkpt lat="43.9176" lon="7.33822">
        <ele>917</ele>
        <time>2018-04-24T09:46:46.000Z</time>
      </trkpt>
      <trkpt lat="43.91768" lon="7.33817">
        <ele>916</ele>
        <time>2018-04-24T09:46:47.000Z</time>
      </trkpt>
      <trkpt lat="43.91784" lon="7.3381">
        <ele>915</ele>
        <time>2018-04-24T09:46:49.000Z</time>
      </trkpt>
      <trkpt lat="43.91794" lon="7.33808">
        <ele>915</ele>
        <time>2018-04-24T09:46:50.000Z</time>
      </trkpt>
      <trkpt lat="43.91804" lon="7.33807">
        <ele>916</ele>
        <time>2018-04-24T09:46:51.000Z</time>
      </trkpt>
      <trkpt lat="43.91814" lon="7.33805">
        <ele>916</ele>
        <time>2018-04-24T09:46:52.000Z</time>
      </trkpt>
      <trkpt lat="43.91824" lon="7.338">
        <ele>916</ele>
        <time>2018-04-24T09:46:53.000Z</time>
      </trkpt>
      <trkpt lat="43.91834" lon="7.33795">
        <ele>916</ele>
        <time>2018-04-24T09:46:54.000Z</time>
      </trkpt>
      <trkpt lat="43.91845" lon="7.33788">
        <ele>915</ele>
        <time>2018-04-24T09:46:55.000Z</time>
      </trkpt>
      <trkpt lat="43.91864" lon="7.33779">
        <ele>913</ele>
        <time>2018-04-24T09:46:57.000Z</time>
      </trkpt>
      <trkpt lat="43.91872" lon="7.33776">
        <ele>913</ele>
        <time>2018-04-24T09:46:58.000Z</time>
      </trkpt>
      <trkpt lat="43.91881" lon="7.33772">
        <ele>913</ele>
        <time>2018-04-24T09:46:59.000Z</time>
      </trkpt>
      <trkpt lat="43.91887" lon="7.33766">
        <ele>913</ele>
        <time>2018-04-24T09:47:00.000Z</time>
      </trkpt>
      <trkpt lat="43.91893" lon="7.33758">
        <ele>912</ele>
        <time>2018-04-24T09:47:01.000Z</time>
      </trkpt>
      <trkpt lat="43.91898" lon="7.33747">
        <ele>903</ele>
        <time>2018-04-24T09:47:02.000Z</time>
      </trkpt>
      <trkpt lat="43.91907" lon="7.33724">
        <ele>901</ele>
        <time>2018-04-24T09:47:04.000Z</time>
      </trkpt>
      <trkpt lat="43.91912" lon="7.33711">
        <ele>900</ele>
        <time>2018-04-24T09:47:05.000Z</time>
      </trkpt>
      <trkpt lat="43.91916" lon="7.33699">
        <ele>899</ele>
        <time>2018-04-24T09:47:06.000Z</time>
      </trkpt>
      <trkpt lat="43.91919" lon="7.33687">
        <ele>894</ele>
        <time>2018-04-24T09:47:07.000Z</time>
      </trkpt>
      <trkpt lat="43.9192" lon="7.33675">
        <ele>894</ele>
        <time>2018-04-24T09:47:08.000Z</time>
      </trkpt>
      <trkpt lat="43.91916" lon="7.3365">
        <ele>890</ele>
        <time>2018-04-24T09:47:10.000Z</time>
      </trkpt>
      <trkpt lat="43.91912" lon="7.33638">
        <ele>888</ele>
        <time>2018-04-24T09:47:11.000Z</time>
      </trkpt>
      <trkpt lat="43.91908" lon="7.33625">
        <ele>887</ele>
        <time>2018-04-24T09:47:12.000Z</time>
      </trkpt>
      <trkpt lat="43.91905" lon="7.33614">
        <ele>886</ele>
        <time>2018-04-24T09:47:13.000Z</time>
      </trkpt>
      <trkpt lat="43.91903" lon="7.336">
        <ele>885</ele>
        <time>2018-04-24T09:47:14.000Z</time>
      </trkpt>
      <trkpt lat="43.91904" lon="7.33587">
        <ele>885</ele>
        <time>2018-04-24T09:47:15.000Z</time>
      </trkpt>
      <trkpt lat="43.91907" lon="7.33576">
        <ele>879</ele>
        <time>2018-04-24T09:47:16.000Z</time>
      </trkpt>
      <trkpt lat="43.91916" lon="7.33554">
        <ele>875</ele>
        <time>2018-04-24T09:47:18.000Z</time>
      </trkpt>
      <trkpt lat="43.91924" lon="7.33545">
        <ele>876</ele>
        <time>2018-04-24T09:47:19.000Z</time>
      </trkpt>
      <trkpt lat="43.91942" lon="7.33535">
        <ele>875</ele>
        <time>2018-04-24T09:47:21.000Z</time>
      </trkpt>
      <trkpt lat="43.91962" lon="7.33532">
        <ele>875</ele>
        <time>2018-04-24T09:47:23.000Z</time>
      </trkpt>
      <trkpt lat="43.91972" lon="7.33528">
        <ele>875</ele>
        <time>2018-04-24T09:47:24.000Z</time>
      </trkpt>
      <trkpt lat="43.91981" lon="7.33522">
        <ele>874</ele>
        <time>2018-04-24T09:47:25.000Z</time>
      </trkpt>
      <trkpt lat="43.91997" lon="7.33509">
        <ele>873</ele>
        <time>2018-04-24T09:47:27.000Z</time>
      </trkpt>
      <trkpt lat="43.92004" lon="7.33505">
        <ele>869</ele>
        <time>2018-04-24T09:47:28.000Z</time>
      </trkpt>
      <trkpt lat="43.92018" lon="7.33507">
        <ele>865</ele>
        <time>2018-04-24T09:47:30.000Z</time>
      </trkpt>
      <trkpt lat="43.92022" lon="7.33522">
        <ele>863</ele>
        <time>2018-04-24T09:47:32.000Z</time>
      </trkpt>
      <trkpt lat="43.92018" lon="7.33541">
        <ele>864</ele>
        <time>2018-04-24T09:47:34.000Z</time>
      </trkpt>
      <trkpt lat="43.92015" lon="7.33552">
        <ele>865</ele>
        <time>2018-04-24T09:47:35.000Z</time>
      </trkpt>
      <trkpt lat="43.92013" lon="7.33564">
        <ele>867</ele>
        <time>2018-04-24T09:47:36.000Z</time>
      </trkpt>
      <trkpt lat="43.92011" lon="7.33576">
        <ele>871</ele>
        <time>2018-04-24T09:47:37.000Z</time>
      </trkpt>
      <trkpt lat="43.92008" lon="7.33615">
        <ele>870</ele>
        <time>2018-04-24T09:47:40.000Z</time>
      </trkpt>
      <trkpt lat="43.92005" lon="7.33646">
        <ele>872</ele>
        <time>2018-04-24T09:47:42.000Z</time>
      </trkpt>
      <trkpt lat="43.92003" lon="7.3366">
        <ele>877</ele>
        <time>2018-04-24T09:47:43.000Z</time>
      </trkpt>
      <trkpt lat="43.92001" lon="7.33674">
        <ele>878</ele>
        <time>2018-04-24T09:47:44.000Z</time>
      </trkpt>
      <trkpt lat="43.91999" lon="7.33687">
        <ele>886</ele>
        <time>2018-04-24T09:47:45.000Z</time>
      </trkpt>
      <trkpt lat="43.91998" lon="7.33699">
        <ele>887</ele>
        <time>2018-04-24T09:47:46.000Z</time>
      </trkpt>
      <trkpt lat="43.91998" lon="7.3371">
        <ele>887</ele>
        <time>2018-04-24T09:47:47.000Z</time>
      </trkpt>
      <trkpt lat="43.92003" lon="7.3372">
        <ele>873</ele>
        <time>2018-04-24T09:47:48.000Z</time>
      </trkpt>
      <trkpt lat="43.9201" lon="7.33744">
        <ele>876</ele>
        <time>2018-04-24T09:47:50.000Z</time>
      </trkpt>
      <trkpt lat="43.92012" lon="7.33758">
        <ele>876</ele>
        <time>2018-04-24T09:47:51.000Z</time>
      </trkpt>
      <trkpt lat="43.92013" lon="7.33772">
        <ele>874</ele>
        <time>2018-04-24T09:47:52.000Z</time>
      </trkpt>
      <trkpt lat="43.92015" lon="7.33786">
        <ele>873</ele>
        <time>2018-04-24T09:47:53.000Z</time>
      </trkpt>
      <trkpt lat="43.92017" lon="7.33819">
        <ele>874</ele>
        <time>2018-04-24T09:47:55.000Z</time>
      </trkpt>
      <trkpt lat="43.92021" lon="7.33848">
        <ele>877</ele>
        <time>2018-04-24T09:47:57.000Z</time>
      </trkpt>
      <trkpt lat="43.92024" lon="7.3386">
        <ele>877</ele>
        <time>2018-04-24T09:47:58.000Z</time>
      </trkpt>
      <trkpt lat="43.92029" lon="7.3387">
        <ele>878</ele>
        <time>2018-04-24T09:47:59.000Z</time>
      </trkpt>
      <trkpt lat="43.92034" lon="7.33875">
        <ele>878</ele>
        <time>2018-04-24T09:48:00.000Z</time>
      </trkpt>
      <trkpt lat="43.9205" lon="7.3388">
        <ele>877</ele>
        <time>2018-04-24T09:48:02.000Z</time>
      </trkpt>
      <trkpt lat="43.92063" lon="7.3387">
        <ele>876</ele>
        <time>2018-04-24T09:48:04.000Z</time>
      </trkpt>
      <trkpt lat="43.92068" lon="7.3386">
        <ele>874</ele>
        <time>2018-04-24T09:48:05.000Z</time>
      </trkpt>
      <trkpt lat="43.92074" lon="7.33839">
        <ele>870</ele>
        <time>2018-04-24T09:48:07.000Z</time>
      </trkpt>
      <trkpt lat="43.9208" lon="7.33814">
        <ele>868</ele>
        <time>2018-04-24T09:48:09.000Z</time>
      </trkpt>
      <trkpt lat="43.92083" lon="7.33802">
        <ele>868</ele>
        <time>2018-04-24T09:48:10.000Z</time>
      </trkpt>
      <trkpt lat="43.92085" lon="7.33787">
        <ele>867</ele>
        <time>2018-04-24T09:48:11.000Z</time>
      </trkpt>
      <trkpt lat="43.92086" lon="7.33773">
        <ele>865</ele>
        <time>2018-04-24T09:48:12.000Z</time>
      </trkpt>
      <trkpt lat="43.92088" lon="7.33743">
        <ele>859</ele>
        <time>2018-04-24T09:48:14.000Z</time>
      </trkpt>
      <trkpt lat="43.92091" lon="7.33728">
        <ele>860</ele>
        <time>2018-04-24T09:48:15.000Z</time>
      </trkpt>
      <trkpt lat="43.92093" lon="7.33714">
        <ele>860</ele>
        <time>2018-04-24T09:48:16.000Z</time>
      </trkpt>
      <trkpt lat="43.921" lon="7.33684">
        <ele>858</ele>
        <time>2018-04-24T09:48:18.000Z</time>
      </trkpt>
      <trkpt lat="43.92107" lon="7.33653">
        <ele>853</ele>
        <time>2018-04-24T09:48:20.000Z</time>
      </trkpt>
      <trkpt lat="43.92111" lon="7.33638">
        <ele>853</ele>
        <time>2018-04-24T09:48:21.000Z</time>
      </trkpt>
      <trkpt lat="43.92122" lon="7.33608">
        <ele>852</ele>
        <time>2018-04-24T09:48:23.000Z</time>
      </trkpt>
      <trkpt lat="43.92128" lon="7.33593">
        <ele>852</ele>
        <time>2018-04-24T09:48:24.000Z</time>
      </trkpt>
      <trkpt lat="43.92135" lon="7.33577">
        <ele>846</ele>
        <time>2018-04-24T09:48:25.000Z</time>
      </trkpt>
      <trkpt lat="43.92141" lon="7.33562">
        <ele>846</ele>
        <time>2018-04-24T09:48:26.000Z</time>
      </trkpt>
      <trkpt lat="43.92147" lon="7.33548">
        <ele>844</ele>
        <time>2018-04-24T09:48:27.000Z</time>
      </trkpt>
      <trkpt lat="43.92153" lon="7.33535">
        <ele>843</ele>
        <time>2018-04-24T09:48:28.000Z</time>
      </trkpt>
      <trkpt lat="43.9216" lon="7.33523">
        <ele>840</ele>
        <time>2018-04-24T09:48:29.000Z</time>
      </trkpt>
      <trkpt lat="43.92166" lon="7.33511">
        <ele>837</ele>
        <time>2018-04-24T09:48:30.000Z</time>
      </trkpt>
      <trkpt lat="43.92172" lon="7.33499">
        <ele>837</ele>
        <time>2018-04-24T09:48:31.000Z</time>
      </trkpt>
      <trkpt lat="43.92176" lon="7.33486">
        <ele>840</ele>
        <time>2018-04-24T09:48:32.000Z</time>
      </trkpt>
      <trkpt lat="43.92179" lon="7.33473">
        <ele>842</ele>
        <time>2018-04-24T09:48:33.000Z</time>
      </trkpt>
      <trkpt lat="43.92183" lon="7.33443">
        <ele>840</ele>
        <time>2018-04-24T09:48:35.000Z</time>
      </trkpt>
      <trkpt lat="43.92186" lon="7.33427">
        <ele>837</ele>
        <time>2018-04-24T09:48:36.000Z</time>
      </trkpt>
      <trkpt lat="43.9219" lon="7.33413">
        <ele>830</ele>
        <time>2018-04-24T09:48:37.000Z</time>
      </trkpt>
      <trkpt lat="43.92195" lon="7.33399">
        <ele>831</ele>
        <time>2018-04-24T09:48:38.000Z</time>
      </trkpt>
      <trkpt lat="43.92202" lon="7.33385">
        <ele>832</ele>
        <time>2018-04-24T09:48:39.000Z</time>
      </trkpt>
      <trkpt lat="43.92208" lon="7.33374">
        <ele>832</ele>
        <time>2018-04-24T09:48:40.000Z</time>
      </trkpt>
      <trkpt lat="43.92215" lon="7.33362">
        <ele>832</ele>
        <time>2018-04-24T09:48:41.000Z</time>
      </trkpt>
      <trkpt lat="43.92223" lon="7.33337">
        <ele>833</ele>
        <time>2018-04-24T09:48:43.000Z</time>
      </trkpt>
      <trkpt lat="43.92225" lon="7.33323">
        <ele>822</ele>
        <time>2018-04-24T09:48:44.000Z</time>
      </trkpt>
      <trkpt lat="43.92226" lon="7.33309">
        <ele>820</ele>
        <time>2018-04-24T09:48:45.000Z</time>
      </trkpt>
      <trkpt lat="43.92228" lon="7.33297">
        <ele>818</ele>
        <time>2018-04-24T09:48:46.000Z</time>
      </trkpt>
      <trkpt lat="43.92231" lon="7.33283">
        <ele>816</ele>
        <time>2018-04-24T09:48:47.000Z</time>
      </trkpt>
      <trkpt lat="43.92245" lon="7.33262">
        <ele>814</ele>
        <time>2018-04-24T09:48:49.000Z</time>
      </trkpt>
      <trkpt lat="43.92262" lon="7.33245">
        <ele>813</ele>
        <time>2018-04-24T09:48:51.000Z</time>
      </trkpt>
      <trkpt lat="43.92279" lon="7.33227">
        <ele>812</ele>
        <time>2018-04-24T09:48:53.000Z</time>
      </trkpt>
      <trkpt lat="43.92289" lon="7.33218">
        <ele>812</ele>
        <time>2018-04-24T09:48:54.000Z</time>
      </trkpt>
      <trkpt lat="43.923" lon="7.33208">
        <ele>812</ele>
        <time>2018-04-24T09:48:55.000Z</time>
      </trkpt>
      <trkpt lat="43.92321" lon="7.3319">
        <ele>809</ele>
        <time>2018-04-24T09:48:57.000Z</time>
      </trkpt>
      <trkpt lat="43.92343" lon="7.33172">
        <ele>813</ele>
        <time>2018-04-24T09:48:59.000Z</time>
      </trkpt>
      <trkpt lat="43.92356" lon="7.33164">
        <ele>800</ele>
        <time>2018-04-24T09:49:00.000Z</time>
      </trkpt>
      <trkpt lat="43.92368" lon="7.33156">
        <ele>800</ele>
        <time>2018-04-24T09:49:01.000Z</time>
      </trkpt>
      <trkpt lat="43.9238" lon="7.33149">
        <ele>801</ele>
        <time>2018-04-24T09:49:02.000Z</time>
      </trkpt>
      <trkpt lat="43.92392" lon="7.33143">
        <ele>802</ele>
        <time>2018-04-24T09:49:03.000Z</time>
      </trkpt>
      <trkpt lat="43.92404" lon="7.33136">
        <ele>802</ele>
        <time>2018-04-24T09:49:04.000Z</time>
      </trkpt>
      <trkpt lat="43.92415" lon="7.33127">
        <ele>800</ele>
        <time>2018-04-24T09:49:05.000Z</time>
      </trkpt>
      <trkpt lat="43.92424" lon="7.33119">
        <ele>808</ele>
        <time>2018-04-24T09:49:06.000Z</time>
      </trkpt>
      <trkpt lat="43.92432" lon="7.33111">
        <ele>806</ele>
        <time>2018-04-24T09:49:07.000Z</time>
      </trkpt>
      <trkpt lat="43.9244" lon="7.33105">
        <ele>806</ele>
        <time>2018-04-24T09:49:08.000Z</time>
      </trkpt>
      <trkpt lat="43.92447" lon="7.33098">
        <ele>806</ele>
        <time>2018-04-24T09:49:09.000Z</time>
      </trkpt>
      <trkpt lat="43.92453" lon="7.3309">
        <ele>806</ele>
        <time>2018-04-24T09:49:10.000Z</time>
      </trkpt>
      <trkpt lat="43.92456" lon="7.3308">
        <ele>789</ele>
        <time>2018-04-24T09:49:11.000Z</time>
      </trkpt>
      <trkpt lat="43.92458" lon="7.33067">
        <ele>788</ele>
        <time>2018-04-24T09:49:12.000Z</time>
      </trkpt>
      <trkpt lat="43.9246" lon="7.33055">
        <ele>787</ele>
        <time>2018-04-24T09:49:13.000Z</time>
      </trkpt>
      <trkpt lat="43.92469" lon="7.33028">
        <ele>784</ele>
        <time>2018-04-24T09:49:15.000Z</time>
      </trkpt>
      <trkpt lat="43.92483" lon="7.33002">
        <ele>783</ele>
        <time>2018-04-24T09:49:17.000Z</time>
      </trkpt>
      <trkpt lat="43.9249" lon="7.3299">
        <ele>773</ele>
        <time>2018-04-24T09:49:18.000Z</time>
      </trkpt>
      <trkpt lat="43.92505" lon="7.32972">
        <ele>767</ele>
        <time>2018-04-24T09:49:20.000Z</time>
      </trkpt>
      <trkpt lat="43.92512" lon="7.32967">
        <ele>765</ele>
        <time>2018-04-24T09:49:21.000Z</time>
      </trkpt>
      <trkpt lat="43.92518" lon="7.32965">
        <ele>764</ele>
        <time>2018-04-24T09:49:22.000Z</time>
      </trkpt>
      <trkpt lat="43.92525" lon="7.32969">
        <ele>764</ele>
        <time>2018-04-24T09:49:23.000Z</time>
      </trkpt>
      <trkpt lat="43.92531" lon="7.32977">
        <ele>765</ele>
        <time>2018-04-24T09:49:24.000Z</time>
      </trkpt>
      <trkpt lat="43.92535" lon="7.32986">
        <ele>766</ele>
        <time>2018-04-24T09:49:25.000Z</time>
      </trkpt>
      <trkpt lat="43.9254" lon="7.32995">
        <ele>766</ele>
        <time>2018-04-24T09:49:26.000Z</time>
      </trkpt>
      <trkpt lat="43.92544" lon="7.33005">
        <ele>780</ele>
        <time>2018-04-24T09:49:27.000Z</time>
      </trkpt>
      <trkpt lat="43.92557" lon="7.33038">
        <ele>782</ele>
        <time>2018-04-24T09:49:30.000Z</time>
      </trkpt>
      <trkpt lat="43.92566" lon="7.3306">
        <ele>784</ele>
        <time>2018-04-24T09:49:32.000Z</time>
      </trkpt>
      <trkpt lat="43.92579" lon="7.33078">
        <ele>784</ele>
        <time>2018-04-24T09:49:34.000Z</time>
      </trkpt>
      <trkpt lat="43.92586" lon="7.33086">
        <ele>784</ele>
        <time>2018-04-24T09:49:35.000Z</time>
      </trkpt>
      <trkpt lat="43.92594" lon="7.33094">
        <ele>784</ele>
        <time>2018-04-24T09:49:36.000Z</time>
      </trkpt>
      <trkpt lat="43.92603" lon="7.33102">
        <ele>784</ele>
        <time>2018-04-24T09:49:37.000Z</time>
      </trkpt>
      <trkpt lat="43.9262" lon="7.33117">
        <ele>783</ele>
        <time>2018-04-24T09:49:39.000Z</time>
      </trkpt>
      <trkpt lat="43.92629" lon="7.33124">
        <ele>783</ele>
        <time>2018-04-24T09:49:40.000Z</time>
      </trkpt>
      <trkpt lat="43.92639" lon="7.33132">
        <ele>782</ele>
        <time>2018-04-24T09:49:41.000Z</time>
      </trkpt>
      <trkpt lat="43.92658" lon="7.33145">
        <ele>781</ele>
        <time>2018-04-24T09:49:43.000Z</time>
      </trkpt>
      <trkpt lat="43.92675" lon="7.33159">
        <ele>775</ele>
        <time>2018-04-24T09:49:45.000Z</time>
      </trkpt>
      <trkpt lat="43.92683" lon="7.33162">
        <ele>774</ele>
        <time>2018-04-24T09:49:46.000Z</time>
      </trkpt>
      <trkpt lat="43.9269" lon="7.33161">
        <ele>773</ele>
        <time>2018-04-24T09:49:47.000Z</time>
      </trkpt>
      <trkpt lat="43.92697" lon="7.33157">
        <ele>772</ele>
        <time>2018-04-24T09:49:48.000Z</time>
      </trkpt>
      <trkpt lat="43.92702" lon="7.3314">
        <ele>771</ele>
        <time>2018-04-24T09:49:50.000Z</time>
      </trkpt>
      <trkpt lat="43.92696" lon="7.3312">
        <ele>769</ele>
        <time>2018-04-24T09:49:52.000Z</time>
      </trkpt>
      <trkpt lat="43.92691" lon="7.33109">
        <ele>768</ele>
        <time>2018-04-24T09:49:53.000Z</time>
      </trkpt>
      <trkpt lat="43.92686" lon="7.33098">
        <ele>767</ele>
        <time>2018-04-24T09:49:54.000Z</time>
      </trkpt>
      <trkpt lat="43.92674" lon="7.33075">
        <ele>762</ele>
        <time>2018-04-24T09:49:56.000Z</time>
      </trkpt>
      <trkpt lat="43.92668" lon="7.33063">
        <ele>762</ele>
        <time>2018-04-24T09:49:57.000Z</time>
      </trkpt>
      <trkpt lat="43.92662" lon="7.33052">
        <ele>763</ele>
        <time>2018-04-24T09:49:58.000Z</time>
      </trkpt>
      <trkpt lat="43.92646" lon="7.33026">
        <ele>762</ele>
        <time>2018-04-24T09:50:00.000Z</time>
      </trkpt>
      <trkpt lat="43.92639" lon="7.33014">
        <ele>761</ele>
        <time>2018-04-24T09:50:01.000Z</time>
      </trkpt>
      <trkpt lat="43.92631" lon="7.33002">
        <ele>762</ele>
        <time>2018-04-24T09:50:02.000Z</time>
      </trkpt>
      <trkpt lat="43.92624" lon="7.32992">
        <ele>754</ele>
        <time>2018-04-24T09:50:03.000Z</time>
      </trkpt>
      <trkpt lat="43.92617" lon="7.32984">
        <ele>754</ele>
        <time>2018-04-24T09:50:04.000Z</time>
      </trkpt>
      <trkpt lat="43.92608" lon="7.32977">
        <ele>755</ele>
        <time>2018-04-24T09:50:05.000Z</time>
      </trkpt>
      <trkpt lat="43.92589" lon="7.32968">
        <ele>755</ele>
        <time>2018-04-24T09:50:07.000Z</time>
      </trkpt>
      <trkpt lat="43.92581" lon="7.32962">
        <ele>760</ele>
        <time>2018-04-24T09:50:08.000Z</time>
      </trkpt>
      <trkpt lat="43.92569" lon="7.32942">
        <ele>756</ele>
        <time>2018-04-24T09:50:10.000Z</time>
      </trkpt>
      <trkpt lat="43.92562" lon="7.32917">
        <ele>744</ele>
        <time>2018-04-24T09:50:12.000Z</time>
      </trkpt>
      <trkpt lat="43.92559" lon="7.32903">
        <ele>743</ele>
        <time>2018-04-24T09:50:13.000Z</time>
      </trkpt>
      <trkpt lat="43.92556" lon="7.3289">
        <ele>743</ele>
        <time>2018-04-24T09:50:14.000Z</time>
      </trkpt>
      <trkpt lat="43.92553" lon="7.32877">
        <ele>742</ele>
        <time>2018-04-24T09:50:15.000Z</time>
      </trkpt>
      <trkpt lat="43.92551" lon="7.32866">
        <ele>741</ele>
        <time>2018-04-24T09:50:16.000Z</time>
      </trkpt>
      <trkpt lat="43.9255" lon="7.32855">
        <ele>740</ele>
        <time>2018-04-24T09:50:17.000Z</time>
      </trkpt>
      <trkpt lat="43.92549" lon="7.32846">
        <ele>739</ele>
        <time>2018-04-24T09:50:18.000Z</time>
      </trkpt>
      <trkpt lat="43.92551" lon="7.32837">
        <ele>739</ele>
        <time>2018-04-24T09:50:19.000Z</time>
      </trkpt>
      <trkpt lat="43.92555" lon="7.32831">
        <ele>732</ele>
        <time>2018-04-24T09:50:20.000Z</time>
      </trkpt>
      <trkpt lat="43.92561" lon="7.3283">
        <ele>732</ele>
        <time>2018-04-24T09:50:21.000Z</time>
      </trkpt>
      <trkpt lat="43.92566" lon="7.32834">
        <ele>738</ele>
        <time>2018-04-24T09:50:22.000Z</time>
      </trkpt>
      <trkpt lat="43.9257" lon="7.32842">
        <ele>738</ele>
        <time>2018-04-24T09:50:23.000Z</time>
      </trkpt>
      <trkpt lat="43.92572" lon="7.32852">
        <ele>739</ele>
        <time>2018-04-24T09:50:24.000Z</time>
      </trkpt>
      <trkpt lat="43.92573" lon="7.32862">
        <ele>740</ele>
        <time>2018-04-24T09:50:25.000Z</time>
      </trkpt>
      <trkpt lat="43.92574" lon="7.32872">
        <ele>741</ele>
        <time>2018-04-24T09:50:26.000Z</time>
      </trkpt>
      <trkpt lat="43.92578" lon="7.32893">
        <ele>743</ele>
        <time>2018-04-24T09:50:28.000Z</time>
      </trkpt>
      <trkpt lat="43.92582" lon="7.32905">
        <ele>744</ele>
        <time>2018-04-24T09:50:29.000Z</time>
      </trkpt>
      <trkpt lat="43.92586" lon="7.32914">
        <ele>745</ele>
        <time>2018-04-24T09:50:30.000Z</time>
      </trkpt>
      <trkpt lat="43.92598" lon="7.32927">
        <ele>749</ele>
        <time>2018-04-24T09:50:32.000Z</time>
      </trkpt>
      <trkpt lat="43.92614" lon="7.32934">
        <ele>750</ele>
        <time>2018-04-24T09:50:34.000Z</time>
      </trkpt>
      <trkpt lat="43.92623" lon="7.32935">
        <ele>750</ele>
        <time>2018-04-24T09:50:35.000Z</time>
      </trkpt>
      <trkpt lat="43.92631" lon="7.32935">
        <ele>750</ele>
        <time>2018-04-24T09:50:36.000Z</time>
      </trkpt>
      <trkpt lat="43.92645" lon="7.32928">
        <ele>749</ele>
        <time>2018-04-24T09:50:38.000Z</time>
      </trkpt>
      <trkpt lat="43.92651" lon="7.32921">
        <ele>748</ele>
        <time>2018-04-24T09:50:39.000Z</time>
      </trkpt>
      <trkpt lat="43.92653" lon="7.32913">
        <ele>744</ele>
        <time>2018-04-24T09:50:40.000Z</time>
      </trkpt>
      <trkpt lat="43.92649" lon="7.32896">
        <ele>743</ele>
        <time>2018-04-24T09:50:42.000Z</time>
      </trkpt>
      <trkpt lat="43.92642" lon="7.32879">
        <ele>742</ele>
        <time>2018-04-24T09:50:44.000Z</time>
      </trkpt>
      <trkpt lat="43.92638" lon="7.32869">
        <ele>742</ele>
        <time>2018-04-24T09:50:45.000Z</time>
      </trkpt>
      <trkpt lat="43.92636" lon="7.32859">
        <ele>742</ele>
        <time>2018-04-24T09:50:46.000Z</time>
      </trkpt>
      <trkpt lat="43.92634" lon="7.32847">
        <ele>741</ele>
        <time>2018-04-24T09:50:47.000Z</time>
      </trkpt>
      <trkpt lat="43.92637" lon="7.32822">
        <ele>738</ele>
        <time>2018-04-24T09:50:49.000Z</time>
      </trkpt>
      <trkpt lat="43.9264" lon="7.32796">
        <ele>737</ele>
        <time>2018-04-24T09:50:51.000Z</time>
      </trkpt>
      <trkpt lat="43.92638" lon="7.32783">
        <ele>737</ele>
        <time>2018-04-24T09:50:52.000Z</time>
      </trkpt>
      <trkpt lat="43.92636" lon="7.3277">
        <ele>737</ele>
        <time>2018-04-24T09:50:53.000Z</time>
      </trkpt>
      <trkpt lat="43.92633" lon="7.32755">
        <ele>737</ele>
        <time>2018-04-24T09:50:54.000Z</time>
      </trkpt>
      <trkpt lat="43.9263" lon="7.32741">
        <ele>731</ele>
        <time>2018-04-24T09:50:55.000Z</time>
      </trkpt>
      <trkpt lat="43.92627" lon="7.32726">
        <ele>730</ele>
        <time>2018-04-24T09:50:56.000Z</time>
      </trkpt>
      <trkpt lat="43.92625" lon="7.32712">
        <ele>729</ele>
        <time>2018-04-24T09:50:57.000Z</time>
      </trkpt>
      <trkpt lat="43.92621" lon="7.32683">
        <ele>727</ele>
        <time>2018-04-24T09:50:59.000Z</time>
      </trkpt>
      <trkpt lat="43.92615" lon="7.32657">
        <ele>720</ele>
        <time>2018-04-24T09:51:01.000Z</time>
      </trkpt>
      <trkpt lat="43.92608" lon="7.32638">
        <ele>719</ele>
        <time>2018-04-24T09:51:03.000Z</time>
      </trkpt>
      <trkpt lat="43.92605" lon="7.32629">
        <ele>718</ele>
        <time>2018-04-24T09:51:04.000Z</time>
      </trkpt>
      <trkpt lat="43.92608" lon="7.32611">
        <ele>718</ele>
        <time>2018-04-24T09:51:06.000Z</time>
      </trkpt>
      <trkpt lat="43.92613" lon="7.32604">
        <ele>718</ele>
        <time>2018-04-24T09:51:07.000Z</time>
      </trkpt>
      <trkpt lat="43.92627" lon="7.32589">
        <ele>720</ele>
        <time>2018-04-24T09:51:09.000Z</time>
      </trkpt>
      <trkpt lat="43.92633" lon="7.3258">
        <ele>714</ele>
        <time>2018-04-24T09:51:10.000Z</time>
      </trkpt>
      <trkpt lat="43.92637" lon="7.32569">
        <ele>714</ele>
        <time>2018-04-24T09:51:11.000Z</time>
      </trkpt>
      <trkpt lat="43.92641" lon="7.32556">
        <ele>714</ele>
        <time>2018-04-24T09:51:12.000Z</time>
      </trkpt>
      <trkpt lat="43.92644" lon="7.32544">
        <ele>712</ele>
        <time>2018-04-24T09:51:13.000Z</time>
      </trkpt>
      <trkpt lat="43.92651" lon="7.32518">
        <ele>710</ele>
        <time>2018-04-24T09:51:15.000Z</time>
      </trkpt>
      <trkpt lat="43.92658" lon="7.32489">
        <ele>704</ele>
        <time>2018-04-24T09:51:17.000Z</time>
      </trkpt>
      <trkpt lat="43.92667" lon="7.3246">
        <ele>709</ele>
        <time>2018-04-24T09:51:19.000Z</time>
      </trkpt>
      <trkpt lat="43.92676" lon="7.3243">
        <ele>703</ele>
        <time>2018-04-24T09:51:21.000Z</time>
      </trkpt>
      <trkpt lat="43.92679" lon="7.32415">
        <ele>696</ele>
        <time>2018-04-24T09:51:22.000Z</time>
      </trkpt>
      <trkpt lat="43.92681" lon="7.32399">
        <ele>696</ele>
        <time>2018-04-24T09:51:23.000Z</time>
      </trkpt>
      <trkpt lat="43.92682" lon="7.32381">
        <ele>696</ele>
        <time>2018-04-24T09:51:24.000Z</time>
      </trkpt>
      <trkpt lat="43.92683" lon="7.32366">
        <ele>694</ele>
        <time>2018-04-24T09:51:25.000Z</time>
      </trkpt>
      <trkpt lat="43.92685" lon="7.32352">
        <ele>692</ele>
        <time>2018-04-24T09:51:26.000Z</time>
      </trkpt>
      <trkpt lat="43.92689" lon="7.32339">
        <ele>691</ele>
        <time>2018-04-24T09:51:27.000Z</time>
      </trkpt>
      <trkpt lat="43.92693" lon="7.32326">
        <ele>685</ele>
        <time>2018-04-24T09:51:28.000Z</time>
      </trkpt>
      <trkpt lat="43.92702" lon="7.32299">
        <ele>685</ele>
        <time>2018-04-24T09:51:30.000Z</time>
      </trkpt>
      <trkpt lat="43.92707" lon="7.32288">
        <ele>685</ele>
        <time>2018-04-24T09:51:31.000Z</time>
      </trkpt>
      <trkpt lat="43.92713" lon="7.3228">
        <ele>685</ele>
        <time>2018-04-24T09:51:32.000Z</time>
      </trkpt>
      <trkpt lat="43.92719" lon="7.32276">
        <ele>686</ele>
        <time>2018-04-24T09:51:33.000Z</time>
      </trkpt>
      <trkpt lat="43.92727" lon="7.32274">
        <ele>687</ele>
        <time>2018-04-24T09:51:34.000Z</time>
      </trkpt>
      <trkpt lat="43.92735" lon="7.32272">
        <ele>687</ele>
        <time>2018-04-24T09:51:35.000Z</time>
      </trkpt>
      <trkpt lat="43.92754" lon="7.32259">
        <ele>697</ele>
        <time>2018-04-24T09:51:38.000Z</time>
      </trkpt>
      <trkpt lat="43.92762" lon="7.32227">
        <ele>695</ele>
        <time>2018-04-24T09:51:41.000Z</time>
      </trkpt>
      <trkpt lat="43.92767" lon="7.32205">
        <ele>694</ele>
        <time>2018-04-24T09:51:43.000Z</time>
      </trkpt>
      <trkpt lat="43.92774" lon="7.32179">
        <ele>691</ele>
        <time>2018-04-24T09:51:45.000Z</time>
      </trkpt>
      <trkpt lat="43.92779" lon="7.32168">
        <ele>691</ele>
        <time>2018-04-24T09:51:46.000Z</time>
      </trkpt>
      <trkpt lat="43.92785" lon="7.32156">
        <ele>679</ele>
        <time>2018-04-24T09:51:47.000Z</time>
      </trkpt>
      <trkpt lat="43.92792" lon="7.32145">
        <ele>679</ele>
        <time>2018-04-24T09:51:48.000Z</time>
      </trkpt>
      <trkpt lat="43.928" lon="7.32135">
        <ele>679</ele>
        <time>2018-04-24T09:51:49.000Z</time>
      </trkpt>
      <trkpt lat="43.92808" lon="7.32126">
        <ele>678</ele>
        <time>2018-04-24T09:51:50.000Z</time>
      </trkpt>
      <trkpt lat="43.92817" lon="7.32116">
        <ele>677</ele>
        <time>2018-04-24T09:51:51.000Z</time>
      </trkpt>
      <trkpt lat="43.92825" lon="7.32105">
        <ele>676</ele>
        <time>2018-04-24T09:51:52.000Z</time>
      </trkpt>
      <trkpt lat="43.92833" lon="7.32096">
        <ele>674</ele>
        <time>2018-04-24T09:51:53.000Z</time>
      </trkpt>
      <trkpt lat="43.92842" lon="7.32087">
        <ele>680</ele>
        <time>2018-04-24T09:51:54.000Z</time>
      </trkpt>
      <trkpt lat="43.92852" lon="7.3208">
        <ele>674</ele>
        <time>2018-04-24T09:51:55.000Z</time>
      </trkpt>
      <trkpt lat="43.92861" lon="7.32075">
        <ele>675</ele>
        <time>2018-04-24T09:51:56.000Z</time>
      </trkpt>
      <trkpt lat="43.92868" lon="7.32069">
        <ele>676</ele>
        <time>2018-04-24T09:51:57.000Z</time>
      </trkpt>
      <trkpt lat="43.92877" lon="7.32051">
        <ele>676</ele>
        <time>2018-04-24T09:51:59.000Z</time>
      </trkpt>
      <trkpt lat="43.92881" lon="7.3203">
        <ele>674</ele>
        <time>2018-04-24T09:52:01.000Z</time>
      </trkpt>
      <trkpt lat="43.92885" lon="7.32019">
        <ele>673</ele>
        <time>2018-04-24T09:52:02.000Z</time>
      </trkpt>
      <trkpt lat="43.92891" lon="7.32011">
        <ele>673</ele>
        <time>2018-04-24T09:52:03.000Z</time>
      </trkpt>
      <trkpt lat="43.92905" lon="7.31996">
        <ele>667</ele>
        <time>2018-04-24T09:52:05.000Z</time>
      </trkpt>
      <trkpt lat="43.92913" lon="7.31987">
        <ele>667</ele>
        <time>2018-04-24T09:52:06.000Z</time>
      </trkpt>
      <trkpt lat="43.9292" lon="7.31978">
        <ele>679</ele>
        <time>2018-04-24T09:52:07.000Z</time>
      </trkpt>
      <trkpt lat="43.92926" lon="7.31968">
        <ele>678</ele>
        <time>2018-04-24T09:52:08.000Z</time>
      </trkpt>
      <trkpt lat="43.92932" lon="7.31957">
        <ele>677</ele>
        <time>2018-04-24T09:52:09.000Z</time>
      </trkpt>
      <trkpt lat="43.92938" lon="7.31944">
        <ele>675</ele>
        <time>2018-04-24T09:52:10.000Z</time>
      </trkpt>
      <trkpt lat="43.92944" lon="7.31931">
        <ele>673</ele>
        <time>2018-04-24T09:52:11.000Z</time>
      </trkpt>
      <trkpt lat="43.9295" lon="7.31919">
        <ele>674</ele>
        <time>2018-04-24T09:52:12.000Z</time>
      </trkpt>
      <trkpt lat="43.92956" lon="7.31908">
        <ele>661</ele>
        <time>2018-04-24T09:52:13.000Z</time>
      </trkpt>
      <trkpt lat="43.92964" lon="7.31894">
        <ele>661</ele>
        <time>2018-04-24T09:52:14.000Z</time>
      </trkpt>
      <trkpt lat="43.9298" lon="7.3187">
        <ele>659</ele>
        <time>2018-04-24T09:52:16.000Z</time>
      </trkpt>
      <trkpt lat="43.92998" lon="7.31848">
        <ele>655</ele>
        <time>2018-04-24T09:52:18.000Z</time>
      </trkpt>
      <trkpt lat="43.93008" lon="7.31838">
        <ele>659</ele>
        <time>2018-04-24T09:52:19.000Z</time>
      </trkpt>
      <trkpt lat="43.93019" lon="7.31829">
        <ele>649</ele>
        <time>2018-04-24T09:52:20.000Z</time>
      </trkpt>
      <trkpt lat="43.9303" lon="7.3182">
        <ele>649</ele>
        <time>2018-04-24T09:52:21.000Z</time>
      </trkpt>
      <trkpt lat="43.93039" lon="7.31814">
        <ele>649</ele>
        <time>2018-04-24T09:52:22.000Z</time>
      </trkpt>
      <trkpt lat="43.93061" lon="7.31806">
        <ele>650</ele>
        <time>2018-04-24T09:52:24.000Z</time>
      </trkpt>
      <trkpt lat="43.93071" lon="7.31805">
        <ele>651</ele>
        <time>2018-04-24T09:52:25.000Z</time>
      </trkpt>
      <trkpt lat="43.93081" lon="7.31807">
        <ele>652</ele>
        <time>2018-04-24T09:52:26.000Z</time>
      </trkpt>
      <trkpt lat="43.931" lon="7.31814">
        <ele>655</ele>
        <time>2018-04-24T09:52:28.000Z</time>
      </trkpt>
      <trkpt lat="43.93111" lon="7.31816">
        <ele>654</ele>
        <time>2018-04-24T09:52:29.000Z</time>
      </trkpt>
      <trkpt lat="43.9312" lon="7.31814">
        <ele>653</ele>
        <time>2018-04-24T09:52:30.000Z</time>
      </trkpt>
      <trkpt lat="43.9313" lon="7.31811">
        <ele>652</ele>
        <time>2018-04-24T09:52:31.000Z</time>
      </trkpt>
      <trkpt lat="43.93141" lon="7.31806">
        <ele>652</ele>
        <time>2018-04-24T09:52:32.000Z</time>
      </trkpt>
      <trkpt lat="43.93161" lon="7.31798">
        <ele>650</ele>
        <time>2018-04-24T09:52:34.000Z</time>
      </trkpt>
      <trkpt lat="43.93181" lon="7.31794">
        <ele>643</ele>
        <time>2018-04-24T09:52:36.000Z</time>
      </trkpt>
      <trkpt lat="43.932" lon="7.31797">
        <ele>642</ele>
        <time>2018-04-24T09:52:38.000Z</time>
      </trkpt>
      <trkpt lat="43.9321" lon="7.318">
        <ele>642</ele>
        <time>2018-04-24T09:52:39.000Z</time>
      </trkpt>
      <trkpt lat="43.9322" lon="7.31803">
        <ele>641</ele>
        <time>2018-04-24T09:52:40.000Z</time>
      </trkpt>
      <trkpt lat="43.93239" lon="7.3181">
        <ele>643</ele>
        <time>2018-04-24T09:52:42.000Z</time>
      </trkpt>
      <trkpt lat="43.93258" lon="7.31821">
        <ele>640</ele>
        <time>2018-04-24T09:52:44.000Z</time>
      </trkpt>
      <trkpt lat="43.93277" lon="7.31832">
        <ele>636</ele>
        <time>2018-04-24T09:52:46.000Z</time>
      </trkpt>
      <trkpt lat="43.93285" lon="7.31838">
        <ele>649</ele>
        <time>2018-04-24T09:52:47.000Z</time>
      </trkpt>
      <trkpt lat="43.93291" lon="7.31845">
        <ele>648</ele>
        <time>2018-04-24T09:52:48.000Z</time>
      </trkpt>
      <trkpt lat="43.93296" lon="7.31862">
        <ele>650</ele>
        <time>2018-04-24T09:52:50.000Z</time>
      </trkpt>
      <trkpt lat="43.93297" lon="7.31871">
        <ele>652</ele>
        <time>2018-04-24T09:52:51.000Z</time>
      </trkpt>
      <trkpt lat="43.93298" lon="7.3188">
        <ele>653</ele>
        <time>2018-04-24T09:52:52.000Z</time>
      </trkpt>
      <trkpt lat="43.93307" lon="7.31893">
        <ele>654</ele>
        <time>2018-04-24T09:52:54.000Z</time>
      </trkpt>
      <trkpt lat="43.9332" lon="7.31894">
        <ele>653</ele>
        <time>2018-04-24T09:52:56.000Z</time>
      </trkpt>
      <trkpt lat="43.9333" lon="7.31883">
        <ele>650</ele>
        <time>2018-04-24T09:52:58.000Z</time>
      </trkpt>
      <trkpt lat="43.93336" lon="7.31878">
        <ele>640</ele>
        <time>2018-04-24T09:52:59.000Z</time>
      </trkpt>
      <trkpt lat="43.93355" lon="7.31874">
        <ele>639</ele>
        <time>2018-04-24T09:53:02.000Z</time>
      </trkpt>
      <trkpt lat="43.93387" lon="7.31878">
        <ele>641</ele>
        <time>2018-04-24T09:53:07.000Z</time>
      </trkpt>
      <trkpt lat="43.93409" lon="7.31875">
        <ele>640</ele>
        <time>2018-04-24T09:53:10.000Z</time>
      </trkpt>
      <trkpt lat="43.93425" lon="7.31871">
        <ele>640</ele>
        <time>2018-04-24T09:53:12.000Z</time>
      </trkpt>
      <trkpt lat="43.93441" lon="7.31868">
        <ele>640</ele>
        <time>2018-04-24T09:53:14.000Z</time>
      </trkpt>
      <trkpt lat="43.93466" lon="7.31864">
        <ele>640</ele>
        <time>2018-04-24T09:53:17.000Z</time>
      </trkpt>
      <trkpt lat="43.93484" lon="7.3186">
        <ele>638</ele>
        <time>2018-04-24T09:53:19.000Z</time>
      </trkpt>
      <trkpt lat="43.93492" lon="7.31855">
        <ele>635</ele>
        <time>2018-04-24T09:53:20.000Z</time>
      </trkpt>
      <trkpt lat="43.93508" lon="7.31842">
        <ele>632</ele>
        <time>2018-04-24T09:53:22.000Z</time>
      </trkpt>
      <trkpt lat="43.93516" lon="7.31835">
        <ele>635</ele>
        <time>2018-04-24T09:53:23.000Z</time>
      </trkpt>
      <trkpt lat="43.93533" lon="7.3182">
        <ele>617</ele>
        <time>2018-04-24T09:53:25.000Z</time>
      </trkpt>
      <trkpt lat="43.93552" lon="7.31809">
        <ele>617</ele>
        <time>2018-04-24T09:53:27.000Z</time>
      </trkpt>
      <trkpt lat="43.93573" lon="7.31801">
        <ele>617</ele>
        <time>2018-04-24T09:53:29.000Z</time>
      </trkpt>
      <trkpt lat="43.93592" lon="7.31794">
        <ele>619</ele>
        <time>2018-04-24T09:53:31.000Z</time>
      </trkpt>
      <trkpt lat="43.93602" lon="7.31793">
        <ele>619</ele>
        <time>2018-04-24T09:53:32.000Z</time>
      </trkpt>
      <trkpt lat="43.93621" lon="7.31793">
        <ele>620</ele>
        <time>2018-04-24T09:53:34.000Z</time>
      </trkpt>
      <trkpt lat="43.93642" lon="7.31794">
        <ele>621</ele>
        <time>2018-04-24T09:53:36.000Z</time>
      </trkpt>
      <trkpt lat="43.93653" lon="7.31794">
        <ele>621</ele>
        <time>2018-04-24T09:53:37.000Z</time>
      </trkpt>
      <trkpt lat="43.93662" lon="7.31792">
        <ele>621</ele>
        <time>2018-04-24T09:53:38.000Z</time>
      </trkpt>
      <trkpt lat="43.9368" lon="7.31779">
        <ele>630</ele>
        <time>2018-04-24T09:53:40.000Z</time>
      </trkpt>
      <trkpt lat="43.93695" lon="7.3176">
        <ele>628</ele>
        <time>2018-04-24T09:53:42.000Z</time>
      </trkpt>
      <trkpt lat="43.93712" lon="7.31744">
        <ele>612</ele>
        <time>2018-04-24T09:53:44.000Z</time>
      </trkpt>
      <trkpt lat="43.93721" lon="7.31735">
        <ele>614</ele>
        <time>2018-04-24T09:53:45.000Z</time>
      </trkpt>
      <trkpt lat="43.93737" lon="7.31715">
        <ele>612</ele>
        <time>2018-04-24T09:53:47.000Z</time>
      </trkpt>
      <trkpt lat="43.93743" lon="7.31703">
        <ele>609</ele>
        <time>2018-04-24T09:53:48.000Z</time>
      </trkpt>
      <trkpt lat="43.93749" lon="7.31688">
        <ele>605</ele>
        <time>2018-04-24T09:53:49.000Z</time>
      </trkpt>
      <trkpt lat="43.93759" lon="7.3166">
        <ele>605</ele>
        <time>2018-04-24T09:53:51.000Z</time>
      </trkpt>
      <trkpt lat="43.93771" lon="7.31633">
        <ele>610</ele>
        <time>2018-04-24T09:53:53.000Z</time>
      </trkpt>
      <trkpt lat="43.93785" lon="7.31605">
        <ele>610</ele>
        <time>2018-04-24T09:53:55.000Z</time>
      </trkpt>
      <trkpt lat="43.93792" lon="7.3159">
        <ele>611</ele>
        <time>2018-04-24T09:53:56.000Z</time>
      </trkpt>
      <trkpt lat="43.938" lon="7.31575">
        <ele>600</ele>
        <time>2018-04-24T09:53:57.000Z</time>
      </trkpt>
      <trkpt lat="43.93806" lon="7.31562">
        <ele>600</ele>
        <time>2018-04-24T09:53:58.000Z</time>
      </trkpt>
      <trkpt lat="43.93815" lon="7.31546">
        <ele>598</ele>
        <time>2018-04-24T09:53:59.000Z</time>
      </trkpt>
      <trkpt lat="43.93822" lon="7.3153">
        <ele>595</ele>
        <time>2018-04-24T09:54:00.000Z</time>
      </trkpt>
      <trkpt lat="43.93838" lon="7.31501">
        <ele>591</ele>
        <time>2018-04-24T09:54:02.000Z</time>
      </trkpt>
      <trkpt lat="43.93844" lon="7.31489">
        <ele>588</ele>
        <time>2018-04-24T09:54:03.000Z</time>
      </trkpt>
      <trkpt lat="43.93852" lon="7.31476">
        <ele>588</ele>
        <time>2018-04-24T09:54:04.000Z</time>
      </trkpt>
      <trkpt lat="43.9386" lon="7.31463">
        <ele>588</ele>
        <time>2018-04-24T09:54:05.000Z</time>
      </trkpt>
      <trkpt lat="43.9387" lon="7.31452">
        <ele>588</ele>
        <time>2018-04-24T09:54:06.000Z</time>
      </trkpt>
      <trkpt lat="43.9388" lon="7.31441">
        <ele>587</ele>
        <time>2018-04-24T09:54:07.000Z</time>
      </trkpt>
      <trkpt lat="43.93889" lon="7.31431">
        <ele>587</ele>
        <time>2018-04-24T09:54:08.000Z</time>
      </trkpt>
      <trkpt lat="43.93899" lon="7.3142">
        <ele>586</ele>
        <time>2018-04-24T09:54:09.000Z</time>
      </trkpt>
      <trkpt lat="43.93909" lon="7.31409">
        <ele>580</ele>
        <time>2018-04-24T09:54:10.000Z</time>
      </trkpt>
      <trkpt lat="43.93919" lon="7.31398">
        <ele>576</ele>
        <time>2018-04-24T09:54:11.000Z</time>
      </trkpt>
      <trkpt lat="43.93928" lon="7.31386">
        <ele>572</ele>
        <time>2018-04-24T09:54:12.000Z</time>
      </trkpt>
      <trkpt lat="43.93947" lon="7.31366">
        <ele>568</ele>
        <time>2018-04-24T09:54:14.000Z</time>
      </trkpt>
      <trkpt lat="43.93954" lon="7.31359">
        <ele>567</ele>
        <time>2018-04-24T09:54:15.000Z</time>
      </trkpt>
      <trkpt lat="43.93961" lon="7.31356">
        <ele>566</ele>
        <time>2018-04-24T09:54:16.000Z</time>
      </trkpt>
      <trkpt lat="43.93972" lon="7.31361">
        <ele>566</ele>
        <time>2018-04-24T09:54:18.000Z</time>
      </trkpt>
      <trkpt lat="43.93977" lon="7.31377">
        <ele>568</ele>
        <time>2018-04-24T09:54:20.000Z</time>
      </trkpt>
      <trkpt lat="43.93987" lon="7.31399">
        <ele>571</ele>
        <time>2018-04-24T09:54:22.000Z</time>
      </trkpt>
      <trkpt lat="43.93993" lon="7.31409">
        <ele>573</ele>
        <time>2018-04-24T09:54:23.000Z</time>
      </trkpt>
      <trkpt lat="43.94" lon="7.31419">
        <ele>576</ele>
        <time>2018-04-24T09:54:24.000Z</time>
      </trkpt>
      <trkpt lat="43.94008" lon="7.31427">
        <ele>579</ele>
        <time>2018-04-24T09:54:25.000Z</time>
      </trkpt>
      <trkpt lat="43.94018" lon="7.31432">
        <ele>582</ele>
        <time>2018-04-24T09:54:26.000Z</time>
      </trkpt>
      <trkpt lat="43.94027" lon="7.31435">
        <ele>583</ele>
        <time>2018-04-24T09:54:27.000Z</time>
      </trkpt>
      <trkpt lat="43.94046" lon="7.31437">
        <ele>586</ele>
        <time>2018-04-24T09:54:29.000Z</time>
      </trkpt>
      <trkpt lat="43.94054" lon="7.31437">
        <ele>587</ele>
        <time>2018-04-24T09:54:30.000Z</time>
      </trkpt>
      <trkpt lat="43.94066" lon="7.31426">
        <ele>588</ele>
        <time>2018-04-24T09:54:32.000Z</time>
      </trkpt>
      <trkpt lat="43.94068" lon="7.31408">
        <ele>583</ele>
        <time>2018-04-24T09:54:34.000Z</time>
      </trkpt>
      <trkpt lat="43.94062" lon="7.3139">
        <ele>579</ele>
        <time>2018-04-24T09:54:36.000Z</time>
      </trkpt>
      <trkpt lat="43.94059" lon="7.31381">
        <ele>578</ele>
        <time>2018-04-24T09:54:37.000Z</time>
      </trkpt>
      <trkpt lat="43.94056" lon="7.31373">
        <ele>577</ele>
        <time>2018-04-24T09:54:38.000Z</time>
      </trkpt>
      <trkpt lat="43.94056" lon="7.31356">
        <ele>576</ele>
        <time>2018-04-24T09:54:40.000Z</time>
      </trkpt>
      <trkpt lat="43.94058" lon="7.31337">
        <ele>576</ele>
        <time>2018-04-24T09:54:43.000Z</time>
      </trkpt>
      <trkpt lat="43.9406" lon="7.31331">
        <ele>568</ele>
        <time>2018-04-24T09:54:44.000Z</time>
      </trkpt>
      <trkpt lat="43.94068" lon="7.31314">
        <ele>568</ele>
        <time>2018-04-24T09:54:49.000Z</time>
      </trkpt>
      <trkpt lat="43.94071" lon="7.31308">
        <ele>567</ele>
        <time>2018-04-24T09:54:51.000Z</time>
      </trkpt>
      <trkpt lat="43.94079" lon="7.31294">
        <ele>564</ele>
        <time>2018-04-24T09:54:56.000Z</time>
      </trkpt>
      <trkpt lat="43.94081" lon="7.31292">
        <ele>564</ele>
        <time>2018-04-24T09:54:57.000Z</time>
      </trkpt>
      <trkpt lat="43.94087" lon="7.31281">
        <ele>583</ele>
        <time>2018-04-24T09:55:01.000Z</time>
      </trkpt>
      <trkpt lat="43.94094" lon="7.31271">
        <ele>580</ele>
        <time>2018-04-24T09:55:05.000Z</time>
      </trkpt>
      <trkpt lat="43.94096" lon="7.31268">
        <ele>580</ele>
        <time>2018-04-24T09:55:06.000Z</time>
      </trkpt>
      <trkpt lat="43.94105" lon="7.31253">
        <ele>580</ele>
        <time>2018-04-24T09:55:12.000Z</time>
      </trkpt>
      <trkpt lat="43.94106" lon="7.31251">
        <ele>581</ele>
        <time>2018-04-24T09:55:13.000Z</time>
      </trkpt>
      <trkpt lat="43.94114" lon="7.31242">
        <ele>568</ele>
        <time>2018-04-24T09:55:17.000Z</time>
      </trkpt>
      <trkpt lat="43.94123" lon="7.31231">
        <ele>570</ele>
        <time>2018-04-24T09:55:22.000Z</time>
      </trkpt>
      <trkpt lat="43.94126" lon="7.31227">
        <ele>570</ele>
        <time>2018-04-24T09:55:24.000Z</time>
      </trkpt>
      <trkpt lat="43.94129" lon="7.31225">
        <ele>570</ele>
        <time>2018-04-24T09:55:28.000Z</time>
      </trkpt>
      <trkpt lat="43.94129" lon="7.31225">
        <ele>570</ele>
        <time>2018-04-24T09:55:36.000Z</time>
      </trkpt>
      <trkpt lat="43.94129" lon="7.31227">
        <ele>571</ele>
        <time>2018-04-24T09:55:45.000Z</time>
      </trkpt>
      <trkpt lat="43.94129" lon="7.31226">
        <ele>571</ele>
        <time>2018-04-24T09:55:53.000Z</time>
      </trkpt>
      <trkpt lat="43.94129" lon="7.31226">
        <ele>571</ele>
        <time>2018-04-24T09:56:05.000Z</time>
      </trkpt>
      <trkpt lat="43.94128" lon="7.31227">
        <ele>571</ele>
        <time>2018-04-24T09:56:15.000Z</time>
      </trkpt>
      <trkpt lat="43.94128" lon="7.31226">
        <ele>570</ele>
        <time>2018-04-24T09:56:26.000Z</time>
      </trkpt>
      <trkpt lat="43.94128" lon="7.31227">
        <ele>570</ele>
        <time>2018-04-24T09:56:31.000Z</time>
      </trkpt>
      <trkpt lat="43.94128" lon="7.31226">
        <ele>570</ele>
        <time>2018-04-24T09:56:37.000Z</time>
      </trkpt>
      <trkpt lat="43.94128" lon="7.31225">
        <ele>570</ele>
        <time>2018-04-24T09:56:45.000Z</time>
      </trkpt>
      <trkpt lat="43.94128" lon="7.31225">
        <ele>570</ele>
        <time>2018-04-24T09:56:56.000Z</time>
      </trkpt>
      <trkpt lat="43.94129" lon="7.31224">
        <ele>570</ele>
        <time>2018-04-24T09:57:02.000Z</time>
      </trkpt>
      <trkpt lat="43.94131" lon="7.31222">
        <ele>570</ele>
        <time>2018-04-24T09:57:04.000Z</time>
      </trkpt>
      <trkpt lat="43.94136" lon="7.31218">
        <ele>571</ele>
        <time>2018-04-24T09:57:07.000Z</time>
      </trkpt>
      <trkpt lat="43.94143" lon="7.31213">
        <ele>571</ele>
        <time>2018-04-24T09:57:11.000Z</time>
      </trkpt>
      <trkpt lat="43.9416" lon="7.31204">
        <ele>570</ele>
        <time>2018-04-24T09:57:18.000Z</time>
      </trkpt>
      <trkpt lat="43.94167" lon="7.31199">
        <ele>569</ele>
        <time>2018-04-24T09:57:20.000Z</time>
      </trkpt>
      <trkpt lat="43.94181" lon="7.31187">
        <ele>583</ele>
        <time>2018-04-24T09:57:25.000Z</time>
      </trkpt>
      <trkpt lat="43.94202" lon="7.31178">
        <ele>589</ele>
        <time>2018-04-24T09:57:31.000Z</time>
      </trkpt>
      <trkpt lat="43.94213" lon="7.31178">
        <ele>592</ele>
        <time>2018-04-24T09:57:34.000Z</time>
      </trkpt>
      <trkpt lat="43.94228" lon="7.31177">
        <ele>594</ele>
        <time>2018-04-24T09:57:38.000Z</time>
      </trkpt>
      <trkpt lat="43.94231" lon="7.31175">
        <ele>594</ele>
        <time>2018-04-24T09:57:39.000Z</time>
      </trkpt>
      <trkpt lat="43.94241" lon="7.31167">
        <ele>593</ele>
        <time>2018-04-24T09:57:43.000Z</time>
      </trkpt>
      <trkpt lat="43.94261" lon="7.31147">
        <ele>584</ele>
        <time>2018-04-24T09:57:51.000Z</time>
      </trkpt>
      <trkpt lat="43.94263" lon="7.31144">
        <ele>583</ele>
        <time>2018-04-24T09:57:52.000Z</time>
      </trkpt>
      <trkpt lat="43.94278" lon="7.3113">
        <ele>580</ele>
        <time>2018-04-24T09:57:58.000Z</time>
      </trkpt>
      <trkpt lat="43.94288" lon="7.31121">
        <ele>579</ele>
        <time>2018-04-24T09:58:02.000Z</time>
      </trkpt>
      <trkpt lat="43.94299" lon="7.31112">
        <ele>579</ele>
        <time>2018-04-24T09:58:06.000Z</time>
      </trkpt>
      <trkpt lat="43.94308" lon="7.31107">
        <ele>579</ele>
        <time>2018-04-24T09:58:09.000Z</time>
      </trkpt>
      <trkpt lat="43.94323" lon="7.311">
        <ele>578</ele>
        <time>2018-04-24T09:58:14.000Z</time>
      </trkpt>
      <trkpt lat="43.94335" lon="7.31104">
        <ele>594</ele>
        <time>2018-04-24T09:58:18.000Z</time>
      </trkpt>
      <trkpt lat="43.94338" lon="7.31106">
        <ele>596</ele>
        <time>2018-04-24T09:58:19.000Z</time>
      </trkpt>
      <trkpt lat="43.94352" lon="7.31108">
        <ele>600</ele>
        <time>2018-04-24T09:58:24.000Z</time>
      </trkpt>
      <trkpt lat="43.94367" lon="7.31094">
        <ele>601</ele>
        <time>2018-04-24T09:58:30.000Z</time>
      </trkpt>
      <trkpt lat="43.94378" lon="7.31081">
        <ele>577</ele>
        <time>2018-04-24T09:58:35.000Z</time>
      </trkpt>
      <trkpt lat="43.9438" lon="7.3108">
        <ele>578</ele>
        <time>2018-04-24T09:58:36.000Z</time>
      </trkpt>
      <trkpt lat="43.9439" lon="7.31075">
        <ele>581</ele>
        <time>2018-04-24T09:58:40.000Z</time>
      </trkpt>
      <trkpt lat="43.94397" lon="7.31073">
        <ele>583</ele>
        <time>2018-04-24T09:58:43.000Z</time>
      </trkpt>
      <trkpt lat="43.94402" lon="7.31071">
        <ele>585</ele>
        <time>2018-04-24T09:58:45.000Z</time>
      </trkpt>
      <trkpt lat="43.94413" lon="7.31064">
        <ele>585</ele>
        <time>2018-04-24T09:58:50.000Z</time>
      </trkpt>
      <trkpt lat="43.94415" lon="7.31062">
        <ele>584</ele>
        <time>2018-04-24T09:58:51.000Z</time>
      </trkpt>
      <trkpt lat="43.94421" lon="7.31057">
        <ele>608</ele>
        <time>2018-04-24T09:58:54.000Z</time>
      </trkpt>
      <trkpt lat="43.94427" lon="7.31051">
        <ele>608</ele>
        <time>2018-04-24T09:58:57.000Z</time>
      </trkpt>
      <trkpt lat="43.94433" lon="7.31037">
        <ele>607</ele>
        <time>2018-04-24T09:59:02.000Z</time>
      </trkpt>
      <trkpt lat="43.94436" lon="7.31032">
        <ele>606</ele>
        <time>2018-04-24T09:59:04.000Z</time>
      </trkpt>
      <trkpt lat="43.94439" lon="7.31016">
        <ele>602</ele>
        <time>2018-04-24T09:59:09.000Z</time>
      </trkpt>
      <trkpt lat="43.94439" lon="7.31013">
        <ele>602</ele>
        <time>2018-04-24T09:59:10.000Z</time>
      </trkpt>
      <trkpt lat="43.94442" lon="7.31001">
        <ele>601</ele>
        <time>2018-04-24T09:59:14.000Z</time>
      </trkpt>
      <trkpt lat="43.94446" lon="7.30989">
        <ele>591</ele>
        <time>2018-04-24T09:59:18.000Z</time>
      </trkpt>
      <trkpt lat="43.94447" lon="7.30987">
        <ele>592</ele>
        <time>2018-04-24T09:59:19.000Z</time>
      </trkpt>
      <trkpt lat="43.94454" lon="7.30975">
        <ele>595</ele>
        <time>2018-04-24T09:59:24.000Z</time>
      </trkpt>
      <trkpt lat="43.94457" lon="7.3097">
        <ele>595</ele>
        <time>2018-04-24T09:59:26.000Z</time>
      </trkpt>
      <trkpt lat="43.9446" lon="7.30962">
        <ele>596</ele>
        <time>2018-04-24T09:59:29.000Z</time>
      </trkpt>
      <trkpt lat="43.94463" lon="7.30953">
        <ele>595</ele>
        <time>2018-04-24T09:59:32.000Z</time>
      </trkpt>
      <trkpt lat="43.94466" lon="7.30942">
        <ele>596</ele>
        <time>2018-04-24T09:59:36.000Z</time>
      </trkpt>
      <trkpt lat="43.94469" lon="7.30931">
        <ele>597</ele>
        <time>2018-04-24T09:59:40.000Z</time>
      </trkpt>
      <trkpt lat="43.9447" lon="7.30927">
        <ele>597</ele>
        <time>2018-04-24T09:59:41.000Z</time>
      </trkpt>
      <trkpt lat="43.94472" lon="7.30903">
        <ele>585</ele>
        <time>2018-04-24T09:59:49.000Z</time>
      </trkpt>
      <trkpt lat="43.94476" lon="7.30886">
        <ele>583</ele>
        <time>2018-04-24T09:59:55.000Z</time>
      </trkpt>
      <trkpt lat="43.94478" lon="7.3088">
        <ele>582</ele>
        <time>2018-04-24T09:59:57.000Z</time>
      </trkpt>
      <trkpt lat="43.94483" lon="7.30866">
        <ele>581</ele>
        <time>2018-04-24T10:00:02.000Z</time>
      </trkpt>
      <trkpt lat="43.94486" lon="7.30861">
        <ele>582</ele>
        <time>2018-04-24T10:00:04.000Z</time>
      </trkpt>
      <trkpt lat="43.94496" lon="7.30847">
        <ele>584</ele>
        <time>2018-04-24T10:00:10.000Z</time>
      </trkpt>
      <trkpt lat="43.94499" lon="7.30842">
        <ele>586</ele>
        <time>2018-04-24T10:00:12.000Z</time>
      </trkpt>
      <trkpt lat="43.94508" lon="7.30837">
        <ele>599</ele>
        <time>2018-04-24T10:00:17.000Z</time>
      </trkpt>
      <trkpt lat="43.9451" lon="7.30837">
        <ele>601</ele>
        <time>2018-04-24T10:00:18.000Z</time>
      </trkpt>
      <trkpt lat="43.94521" lon="7.30835">
        <ele>607</ele>
        <time>2018-04-24T10:00:23.000Z</time>
      </trkpt>
      <trkpt lat="43.94527" lon="7.30836">
        <ele>610</ele>
        <time>2018-04-24T10:00:26.000Z</time>
      </trkpt>
      <trkpt lat="43.94536" lon="7.30838">
        <ele>614</ele>
        <time>2018-04-24T10:00:30.000Z</time>
      </trkpt>
      <trkpt lat="43.94542" lon="7.3084">
        <ele>616</ele>
        <time>2018-04-24T10:00:33.000Z</time>
      </trkpt>
      <trkpt lat="43.94556" lon="7.30841">
        <ele>619</ele>
        <time>2018-04-24T10:00:39.000Z</time>
      </trkpt>
      <trkpt lat="43.94565" lon="7.30839">
        <ele>620</ele>
        <time>2018-04-24T10:00:43.000Z</time>
      </trkpt>
      <trkpt lat="43.94572" lon="7.30836">
        <ele>620</ele>
        <time>2018-04-24T10:00:46.000Z</time>
      </trkpt>
      <trkpt lat="43.94585" lon="7.30829">
        <ele>623</ele>
        <time>2018-04-24T10:00:52.000Z</time>
      </trkpt>
      <trkpt lat="43.94588" lon="7.30828">
        <ele>625</ele>
        <time>2018-04-24T10:00:53.000Z</time>
      </trkpt>
      <trkpt lat="43.94596" lon="7.30814">
        <ele>631</ele>
        <time>2018-04-24T10:00:58.000Z</time>
      </trkpt>
      <trkpt lat="43.94594" lon="7.30798">
        <ele>633</ele>
        <time>2018-04-24T10:01:02.000Z</time>
      </trkpt>
      <trkpt lat="43.94577" lon="7.30775">
        <ele>606</ele>
        <time>2018-04-24T10:01:10.000Z</time>
      </trkpt>
      <trkpt lat="43.94571" lon="7.30767">
        <ele>606</ele>
        <time>2018-04-24T10:01:13.000Z</time>
      </trkpt>
      <trkpt lat="43.94565" lon="7.30753">
        <ele>606</ele>
        <time>2018-04-24T10:01:17.000Z</time>
      </trkpt>
      <trkpt lat="43.94564" lon="7.30746">
        <ele>601</ele>
        <time>2018-04-24T10:01:19.000Z</time>
      </trkpt>
      <trkpt lat="43.94565" lon="7.30743">
        <ele>601</ele>
        <time>2018-04-24T10:01:20.000Z</time>
      </trkpt>
      <trkpt lat="43.94568" lon="7.30737">
        <ele>601</ele>
        <time>2018-04-24T10:01:22.000Z</time>
      </trkpt>
      <trkpt lat="43.94575" lon="7.30729">
        <ele>601</ele>
        <time>2018-04-24T10:01:25.000Z</time>
      </trkpt>
      <trkpt lat="43.94582" lon="7.30723">
        <ele>600</ele>
        <time>2018-04-24T10:01:28.000Z</time>
      </trkpt>
      <trkpt lat="43.94592" lon="7.30714">
        <ele>630</ele>
        <time>2018-04-24T10:01:32.000Z</time>
      </trkpt>
      <trkpt lat="43.946" lon="7.30704">
        <ele>631</ele>
        <time>2018-04-24T10:01:36.000Z</time>
      </trkpt>
      <trkpt lat="43.94606" lon="7.30692">
        <ele>632</ele>
        <time>2018-04-24T10:01:40.000Z</time>
      </trkpt>
      <trkpt lat="43.94607" lon="7.30684">
        <ele>631</ele>
        <time>2018-04-24T10:01:42.000Z</time>
      </trkpt>
      <trkpt lat="43.94606" lon="7.30665">
        <ele>628</ele>
        <time>2018-04-24T10:01:47.000Z</time>
      </trkpt>
      <trkpt lat="43.94605" lon="7.30658">
        <ele>628</ele>
        <time>2018-04-24T10:01:49.000Z</time>
      </trkpt>
      <trkpt lat="43.94603" lon="7.30644">
        <ele>629</ele>
        <time>2018-04-24T10:01:53.000Z</time>
      </trkpt>
      <trkpt lat="43.94602" lon="7.30634">
        <ele>630</ele>
        <time>2018-04-24T10:01:56.000Z</time>
      </trkpt>
      <trkpt lat="43.946" lon="7.30623">
        <ele>630</ele>
        <time>2018-04-24T10:01:59.000Z</time>
      </trkpt>
      <trkpt lat="43.94597" lon="7.306">
        <ele>625</ele>
        <time>2018-04-24T10:02:06.000Z</time>
      </trkpt>
      <trkpt lat="43.94597" lon="7.30597">
        <ele>624</ele>
        <time>2018-04-24T10:02:07.000Z</time>
      </trkpt>
      <trkpt lat="43.94599" lon="7.30579">
        <ele>623</ele>
        <time>2018-04-24T10:02:13.000Z</time>
      </trkpt>
      <trkpt lat="43.94603" lon="7.3057">
        <ele>627</ele>
        <time>2018-04-24T10:02:16.000Z</time>
      </trkpt>
      <trkpt lat="43.94609" lon="7.3055">
        <ele>632</ele>
        <time>2018-04-24T10:02:22.000Z</time>
      </trkpt>
      <trkpt lat="43.94614" lon="7.30524">
        <ele>634</ele>
        <time>2018-04-24T10:02:29.000Z</time>
      </trkpt>
      <trkpt lat="43.94614" lon="7.3052">
        <ele>634</ele>
        <time>2018-04-24T10:02:30.000Z</time>
      </trkpt>
      <trkpt lat="43.94608" lon="7.30499">
        <ele>631</ele>
        <time>2018-04-24T10:02:35.000Z</time>
      </trkpt>
      <trkpt lat="43.94589" lon="7.30468">
        <ele>630</ele>
        <time>2018-04-24T10:02:44.000Z</time>
      </trkpt>
      <trkpt lat="43.94587" lon="7.3046">
        <ele>630</ele>
        <time>2018-04-24T10:02:46.000Z</time>
      </trkpt>
      <trkpt lat="43.94587" lon="7.30452">
        <ele>631</ele>
        <time>2018-04-24T10:02:48.000Z</time>
      </trkpt>
      <trkpt lat="43.94595" lon="7.30425">
        <ele>627</ele>
        <time>2018-04-24T10:02:55.000Z</time>
      </trkpt>
      <trkpt lat="43.94596" lon="7.30422">
        <ele>627</ele>
        <time>2018-04-24T10:02:56.000Z</time>
      </trkpt>
      <trkpt lat="43.94604" lon="7.30401">
        <ele>635</ele>
        <time>2018-04-24T10:03:02.000Z</time>
      </trkpt>
      <trkpt lat="43.94608" lon="7.30394">
        <ele>637</ele>
        <time>2018-04-24T10:03:04.000Z</time>
      </trkpt>
      <trkpt lat="43.94624" lon="7.3037">
        <ele>643</ele>
        <time>2018-04-24T10:03:11.000Z</time>
      </trkpt>
      <trkpt lat="43.9463" lon="7.30359">
        <ele>644</ele>
        <time>2018-04-24T10:03:14.000Z</time>
      </trkpt>
      <trkpt lat="43.94633" lon="7.30346">
        <ele>645</ele>
        <time>2018-04-24T10:03:17.000Z</time>
      </trkpt>
      <trkpt lat="43.94626" lon="7.3033">
        <ele>656</ele>
        <time>2018-04-24T10:03:21.000Z</time>
      </trkpt>
      <trkpt lat="43.94615" lon="7.3032">
        <ele>654</ele>
        <time>2018-04-24T10:03:25.000Z</time>
      </trkpt>
      <trkpt lat="43.94606" lon="7.30314">
        <ele>652</ele>
        <time>2018-04-24T10:03:28.000Z</time>
      </trkpt>
      <trkpt lat="43.94597" lon="7.30309">
        <ele>652</ele>
        <time>2018-04-24T10:03:31.000Z</time>
      </trkpt>
      <trkpt lat="43.94588" lon="7.30307">
        <ele>651</ele>
        <time>2018-04-24T10:03:34.000Z</time>
      </trkpt>
      <trkpt lat="43.94564" lon="7.30302">
        <ele>633</ele>
        <time>2018-04-24T10:03:41.000Z</time>
      </trkpt>
      <trkpt lat="43.94557" lon="7.303">
        <ele>632</ele>
        <time>2018-04-24T10:03:43.000Z</time>
      </trkpt>
      <trkpt lat="43.94536" lon="7.30283">
        <ele>632</ele>
        <time>2018-04-24T10:03:49.000Z</time>
      </trkpt>
      <trkpt lat="43.94505" lon="7.30247">
        <ele>639</ele>
        <time>2018-04-24T10:03:58.000Z</time>
      </trkpt>
      <trkpt lat="43.94475" lon="7.30204">
        <ele>634</ele>
        <time>2018-04-24T10:04:07.000Z</time>
      </trkpt>
      <trkpt lat="43.94444" lon="7.30167">
        <ele>632</ele>
        <time>2018-04-24T10:04:15.000Z</time>
      </trkpt>
      <trkpt lat="43.94412" lon="7.30135">
        <ele>633</ele>
        <time>2018-04-24T10:04:23.000Z</time>
      </trkpt>
      <trkpt lat="43.94408" lon="7.30131">
        <ele>634</ele>
        <time>2018-04-24T10:04:24.000Z</time>
      </trkpt>
      <trkpt lat="43.9439" lon="7.30116">
        <ele>636</ele>
        <time>2018-04-24T10:04:29.000Z</time>
      </trkpt>
      <trkpt lat="43.94374" lon="7.30102">
        <ele>635</ele>
        <time>2018-04-24T10:04:34.000Z</time>
      </trkpt>
      <trkpt lat="43.94365" lon="7.30095">
        <ele>634</ele>
        <time>2018-04-24T10:04:37.000Z</time>
      </trkpt>
      <trkpt lat="43.94362" lon="7.30093">
        <ele>633</ele>
        <time>2018-04-24T10:04:38.000Z</time>
      </trkpt>
      <trkpt lat="43.94351" lon="7.30082">
        <ele>644</ele>
        <time>2018-04-24T10:04:42.000Z</time>
      </trkpt>
      <trkpt lat="43.94343" lon="7.30075">
        <ele>642</ele>
        <time>2018-04-24T10:04:45.000Z</time>
      </trkpt>
      <trkpt lat="43.94334" lon="7.30067">
        <ele>643</ele>
        <time>2018-04-24T10:04:48.000Z</time>
      </trkpt>
      <trkpt lat="43.94323" lon="7.30057">
        <ele>626</ele>
        <time>2018-04-24T10:04:52.000Z</time>
      </trkpt>
      <trkpt lat="43.94318" lon="7.30048">
        <ele>625</ele>
        <time>2018-04-24T10:04:54.000Z</time>
      </trkpt>
      <trkpt lat="43.94316" lon="7.30038">
        <ele>626</ele>
        <time>2018-04-24T10:04:56.000Z</time>
      </trkpt>
      <trkpt lat="43.94318" lon="7.30017">
        <ele>630</ele>
        <time>2018-04-24T10:05:00.000Z</time>
      </trkpt>
      <trkpt lat="43.94319" lon="7.30012">
        <ele>632</ele>
        <time>2018-04-24T10:05:01.000Z</time>
      </trkpt>
      <trkpt lat="43.94331" lon="7.29977">
        <ele>627</ele>
        <time>2018-04-24T10:05:09.000Z</time>
      </trkpt>
      <trkpt lat="43.94332" lon="7.29974">
        <ele>627</ele>
        <time>2018-04-24T10:05:10.000Z</time>
      </trkpt>
      <trkpt lat="43.94341" lon="7.29957">
        <ele>650</ele>
        <time>2018-04-24T10:05:15.000Z</time>
      </trkpt>
      <trkpt lat="43.94351" lon="7.29936">
        <ele>648</ele>
        <time>2018-04-24T10:05:21.000Z</time>
      </trkpt>
      <trkpt lat="43.94361" lon="7.29917">
        <ele>638</ele>
        <time>2018-04-24T10:05:27.000Z</time>
      </trkpt>
      <trkpt lat="43.94363" lon="7.29914">
        <ele>639</ele>
        <time>2018-04-24T10:05:28.000Z</time>
      </trkpt>
      <trkpt lat="43.94371" lon="7.29897">
        <ele>640</ele>
        <time>2018-04-24T10:05:33.000Z</time>
      </trkpt>
      <trkpt lat="43.94375" lon="7.29891">
        <ele>640</ele>
        <time>2018-04-24T10:05:35.000Z</time>
      </trkpt>
      <trkpt lat="43.94382" lon="7.29879">
        <ele>640</ele>
        <time>2018-04-24T10:05:39.000Z</time>
      </trkpt>
      <trkpt lat="43.94395" lon="7.29862">
        <ele>639</ele>
        <time>2018-04-24T10:05:45.000Z</time>
      </trkpt>
      <trkpt lat="43.94397" lon="7.29861">
        <ele>639</ele>
        <time>2018-04-24T10:05:46.000Z</time>
      </trkpt>
      <trkpt lat="43.9441" lon="7.29855">
        <ele>640</ele>
        <time>2018-04-24T10:05:50.000Z</time>
      </trkpt>
      <trkpt lat="43.9444" lon="7.29843">
        <ele>656</ele>
        <time>2018-04-24T10:05:57.000Z</time>
      </trkpt>
      <trkpt lat="43.94459" lon="7.29835">
        <ele>660</ele>
        <time>2018-04-24T10:06:01.000Z</time>
      </trkpt>
      <trkpt lat="43.94475" lon="7.29828">
        <ele>641</ele>
        <time>2018-04-24T10:06:04.000Z</time>
      </trkpt>
      <trkpt lat="43.94489" lon="7.29819">
        <ele>644</ele>
        <time>2018-04-24T10:06:07.000Z</time>
      </trkpt>
      <trkpt lat="43.94512" lon="7.29805">
        <ele>649</ele>
        <time>2018-04-24T10:06:12.000Z</time>
      </trkpt>
      <trkpt lat="43.94548" lon="7.29797">
        <ele>648</ele>
        <time>2018-04-24T10:06:19.000Z</time>
      </trkpt>
      <trkpt lat="43.94572" lon="7.29787">
        <ele>649</ele>
        <time>2018-04-24T10:06:25.000Z</time>
      </trkpt>
      <trkpt lat="43.94583" lon="7.29782">
        <ele>648</ele>
        <time>2018-04-24T10:06:31.000Z</time>
      </trkpt>
      <trkpt lat="43.94586" lon="7.29782">
        <ele>646</ele>
        <time>2018-04-24T10:06:33.000Z</time>
      </trkpt>
      <trkpt lat="43.9459" lon="7.29785">
        <ele>646</ele>
        <time>2018-04-24T10:06:36.000Z</time>
      </trkpt>
      <trkpt lat="43.946" lon="7.29795">
        <ele>646</ele>
        <time>2018-04-24T10:06:41.000Z</time>
      </trkpt>
      <trkpt lat="43.94608" lon="7.29805">
        <ele>647</ele>
        <time>2018-04-24T10:06:44.000Z</time>
      </trkpt>
      <trkpt lat="43.94615" lon="7.29812">
        <ele>647</ele>
        <time>2018-04-24T10:06:46.000Z</time>
      </trkpt>
      <trkpt lat="43.94629" lon="7.29825">
        <ele>645</ele>
        <time>2018-04-24T10:06:49.000Z</time>
      </trkpt>
      <trkpt lat="43.94636" lon="7.2983">
        <ele>645</ele>
        <time>2018-04-24T10:06:51.000Z</time>
      </trkpt>
      <trkpt lat="43.94641" lon="7.29834">
        <ele>660</ele>
        <time>2018-04-24T10:06:53.000Z</time>
      </trkpt>
      <trkpt lat="43.94655" lon="7.29842">
        <ele>654</ele>
        <time>2018-04-24T10:06:57.000Z</time>
      </trkpt>
      <trkpt lat="43.94673" lon="7.29849">
        <ele>646</ele>
        <time>2018-04-24T10:07:01.000Z</time>
      </trkpt>
      <trkpt lat="43.94683" lon="7.29851">
        <ele>647</ele>
        <time>2018-04-24T10:07:03.000Z</time>
      </trkpt>
      <trkpt lat="43.94694" lon="7.29854">
        <ele>648</ele>
        <time>2018-04-24T10:07:05.000Z</time>
      </trkpt>
      <trkpt lat="43.94714" lon="7.2986">
        <ele>647</ele>
        <time>2018-04-24T10:07:08.000Z</time>
      </trkpt>
      <trkpt lat="43.94725" lon="7.29864">
        <ele>646</ele>
        <time>2018-04-24T10:07:10.000Z</time>
      </trkpt>
      <trkpt lat="43.94736" lon="7.29868">
        <ele>645</ele>
        <time>2018-04-24T10:07:12.000Z</time>
      </trkpt>
      <trkpt lat="43.94742" lon="7.2987">
        <ele>645</ele>
        <time>2018-04-24T10:07:13.000Z</time>
      </trkpt>
      <trkpt lat="43.94754" lon="7.29876">
        <ele>635</ele>
        <time>2018-04-24T10:07:15.000Z</time>
      </trkpt>
      <trkpt lat="43.94766" lon="7.29884">
        <ele>636</ele>
        <time>2018-04-24T10:07:17.000Z</time>
      </trkpt>
      <trkpt lat="43.94788" lon="7.29896">
        <ele>635</ele>
        <time>2018-04-24T10:07:20.000Z</time>
      </trkpt>
      <trkpt lat="43.94802" lon="7.29904">
        <ele>634</ele>
        <time>2018-04-24T10:07:22.000Z</time>
      </trkpt>
      <trkpt lat="43.94811" lon="7.29908">
        <ele>633</ele>
        <time>2018-04-24T10:07:23.000Z</time>
      </trkpt>
      <trkpt lat="43.94819" lon="7.29912">
        <ele>633</ele>
        <time>2018-04-24T10:07:24.000Z</time>
      </trkpt>
      <trkpt lat="43.94837" lon="7.29918">
        <ele>638</ele>
        <time>2018-04-24T10:07:26.000Z</time>
      </trkpt>
      <trkpt lat="43.94854" lon="7.29921">
        <ele>645</ele>
        <time>2018-04-24T10:07:28.000Z</time>
      </trkpt>
      <trkpt lat="43.94865" lon="7.29921">
        <ele>647</ele>
        <time>2018-04-24T10:07:29.000Z</time>
      </trkpt>
      <trkpt lat="43.94875" lon="7.2992">
        <ele>647</ele>
        <time>2018-04-24T10:07:30.000Z</time>
      </trkpt>
      <trkpt lat="43.94896" lon="7.29916">
        <ele>626</ele>
        <time>2018-04-24T10:07:32.000Z</time>
      </trkpt>
      <trkpt lat="43.94916" lon="7.29912">
        <ele>630</ele>
        <time>2018-04-24T10:07:34.000Z</time>
      </trkpt>
      <trkpt lat="43.94938" lon="7.29904">
        <ele>628</ele>
        <time>2018-04-24T10:07:36.000Z</time>
      </trkpt>
      <trkpt lat="43.94947" lon="7.29897">
        <ele>627</ele>
        <time>2018-04-24T10:07:37.000Z</time>
      </trkpt>
      <trkpt lat="43.94956" lon="7.29889">
        <ele>627</ele>
        <time>2018-04-24T10:07:38.000Z</time>
      </trkpt>
      <trkpt lat="43.94973" lon="7.29872">
        <ele>624</ele>
        <time>2018-04-24T10:07:40.000Z</time>
      </trkpt>
      <trkpt lat="43.94981" lon="7.29866">
        <ele>623</ele>
        <time>2018-04-24T10:07:41.000Z</time>
      </trkpt>
      <trkpt lat="43.94989" lon="7.2986">
        <ele>622</ele>
        <time>2018-04-24T10:07:42.000Z</time>
      </trkpt>
      <trkpt lat="43.94995" lon="7.29857">
        <ele>621</ele>
        <time>2018-04-24T10:07:43.000Z</time>
      </trkpt>
      <trkpt lat="43.95001" lon="7.29854">
        <ele>621</ele>
        <time>2018-04-24T10:07:44.000Z</time>
      </trkpt>
      <trkpt lat="43.95006" lon="7.29851">
        <ele>619</ele>
        <time>2018-04-24T10:07:45.000Z</time>
      </trkpt>
      <trkpt lat="43.95007" lon="7.29845">
        <ele>618</ele>
        <time>2018-04-24T10:07:46.000Z</time>
      </trkpt>
      <trkpt lat="43.94999" lon="7.29836">
        <ele>614</ele>
        <time>2018-04-24T10:07:48.000Z</time>
      </trkpt>
      <trkpt lat="43.94994" lon="7.29845">
        <ele>617</ele>
        <time>2018-04-24T10:07:49.000Z</time>
      </trkpt>
      <trkpt lat="43.94988" lon="7.2985">
        <ele>619</ele>
        <time>2018-04-24T10:07:50.000Z</time>
      </trkpt>
      <trkpt lat="43.94976" lon="7.29858">
        <ele>621</ele>
        <time>2018-04-24T10:07:52.000Z</time>
      </trkpt>
      <trkpt lat="43.9496" lon="7.29867">
        <ele>623</ele>
        <time>2018-04-24T10:07:54.000Z</time>
      </trkpt>
      <trkpt lat="43.94941" lon="7.29874">
        <ele>623</ele>
        <time>2018-04-24T10:07:56.000Z</time>
      </trkpt>
      <trkpt lat="43.94922" lon="7.29878">
        <ele>623</ele>
        <time>2018-04-24T10:07:58.000Z</time>
      </trkpt>
      <trkpt lat="43.94899" lon="7.29879">
        <ele>619</ele>
        <time>2018-04-24T10:08:00.000Z</time>
      </trkpt>
      <trkpt lat="43.94888" lon="7.29879">
        <ele>619</ele>
        <time>2018-04-24T10:08:01.000Z</time>
      </trkpt>
      <trkpt lat="43.94866" lon="7.29877">
        <ele>619</ele>
        <time>2018-04-24T10:08:03.000Z</time>
      </trkpt>
      <trkpt lat="43.94854" lon="7.29874">
        <ele>619</ele>
        <time>2018-04-24T10:08:04.000Z</time>
      </trkpt>
      <trkpt lat="43.94842" lon="7.29869">
        <ele>617</ele>
        <time>2018-04-24T10:08:05.000Z</time>
      </trkpt>
      <trkpt lat="43.94831" lon="7.29863">
        <ele>622</ele>
        <time>2018-04-24T10:08:06.000Z</time>
      </trkpt>
      <trkpt lat="43.9482" lon="7.29856">
        <ele>621</ele>
        <time>2018-04-24T10:08:07.000Z</time>
      </trkpt>
      <trkpt lat="43.94811" lon="7.29847">
        <ele>621</ele>
        <time>2018-04-24T10:08:08.000Z</time>
      </trkpt>
      <trkpt lat="43.94803" lon="7.29834">
        <ele>621</ele>
        <time>2018-04-24T10:08:09.000Z</time>
      </trkpt>
      <trkpt lat="43.94795" lon="7.29823">
        <ele>606</ele>
        <time>2018-04-24T10:08:10.000Z</time>
      </trkpt>
      <trkpt lat="43.94794" lon="7.29805">
        <ele>605</ele>
        <time>2018-04-24T10:08:11.000Z</time>
      </trkpt>
      <trkpt lat="43.94791" lon="7.2979">
        <ele>604</ele>
        <time>2018-04-24T10:08:12.000Z</time>
      </trkpt>
      <trkpt lat="43.94793" lon="7.29774">
        <ele>601</ele>
        <time>2018-04-24T10:08:13.000Z</time>
      </trkpt>
      <trkpt lat="43.94793" lon="7.29758">
        <ele>600</ele>
        <time>2018-04-24T10:08:14.000Z</time>
      </trkpt>
      <trkpt lat="43.94794" lon="7.29745">
        <ele>587</ele>
        <time>2018-04-24T10:08:15.000Z</time>
      </trkpt>
      <trkpt lat="43.94789" lon="7.29734">
        <ele>587</ele>
        <time>2018-04-24T10:08:16.000Z</time>
      </trkpt>
      <trkpt lat="43.94782" lon="7.29723">
        <ele>587</ele>
        <time>2018-04-24T10:08:17.000Z</time>
      </trkpt>
      <trkpt lat="43.94765" lon="7.29707">
        <ele>587</ele>
        <time>2018-04-24T10:08:19.000Z</time>
      </trkpt>
      <trkpt lat="43.94757" lon="7.29698">
        <ele>586</ele>
        <time>2018-04-24T10:08:20.000Z</time>
      </trkpt>
      <trkpt lat="43.9475" lon="7.29691">
        <ele>598</ele>
        <time>2018-04-24T10:08:21.000Z</time>
      </trkpt>
      <trkpt lat="43.94745" lon="7.29683">
        <ele>596</ele>
        <time>2018-04-24T10:08:22.000Z</time>
      </trkpt>
      <trkpt lat="43.94742" lon="7.29675">
        <ele>593</ele>
        <time>2018-04-24T10:08:23.000Z</time>
      </trkpt>
      <trkpt lat="43.94745" lon="7.29668">
        <ele>589</ele>
        <time>2018-04-24T10:08:24.000Z</time>
      </trkpt>
      <trkpt lat="43.9475" lon="7.29666">
        <ele>585</ele>
        <time>2018-04-24T10:08:25.000Z</time>
      </trkpt>
      <trkpt lat="43.94756" lon="7.29668">
        <ele>585</ele>
        <time>2018-04-24T10:08:26.000Z</time>
      </trkpt>
      <trkpt lat="43.94761" lon="7.29672">
        <ele>584</ele>
        <time>2018-04-24T10:08:27.000Z</time>
      </trkpt>
      <trkpt lat="43.94772" lon="7.29682">
        <ele>584</ele>
        <time>2018-04-24T10:08:29.000Z</time>
      </trkpt>
      <trkpt lat="43.94778" lon="7.29687">
        <ele>583</ele>
        <time>2018-04-24T10:08:30.000Z</time>
      </trkpt>
      <trkpt lat="43.94791" lon="7.297">
        <ele>583</ele>
        <time>2018-04-24T10:08:32.000Z</time>
      </trkpt>
      <trkpt lat="43.94797" lon="7.29707">
        <ele>583</ele>
        <time>2018-04-24T10:08:33.000Z</time>
      </trkpt>
      <trkpt lat="43.94817" lon="7.29733">
        <ele>583</ele>
        <time>2018-04-24T10:08:36.000Z</time>
      </trkpt>
      <trkpt lat="43.9484" lon="7.29759">
        <ele>585</ele>
        <time>2018-04-24T10:08:39.000Z</time>
      </trkpt>
      <trkpt lat="43.94849" lon="7.29764">
        <ele>586</ele>
        <time>2018-04-24T10:08:40.000Z</time>
      </trkpt>
      <trkpt lat="43.9486" lon="7.29766">
        <ele>587</ele>
        <time>2018-04-24T10:08:41.000Z</time>
      </trkpt>
      <trkpt lat="43.9487" lon="7.29766">
        <ele>587</ele>
        <time>2018-04-24T10:08:42.000Z</time>
      </trkpt>
      <trkpt lat="43.9488" lon="7.29764">
        <ele>586</ele>
        <time>2018-04-24T10:08:43.000Z</time>
      </trkpt>
      <trkpt lat="43.94892" lon="7.29762">
        <ele>584</ele>
        <time>2018-04-24T10:08:44.000Z</time>
      </trkpt>
      <trkpt lat="43.94914" lon="7.29757">
        <ele>577</ele>
        <time>2018-04-24T10:08:46.000Z</time>
      </trkpt>
      <trkpt lat="43.94937" lon="7.29749">
        <ele>564</ele>
        <time>2018-04-24T10:08:48.000Z</time>
      </trkpt>
      <trkpt lat="43.94982" lon="7.29726">
        <ele>562</ele>
        <time>2018-04-24T10:08:52.000Z</time>
      </trkpt>
      <trkpt lat="43.95005" lon="7.29719">
        <ele>551</ele>
        <time>2018-04-24T10:08:54.000Z</time>
      </trkpt>
      <trkpt lat="43.95028" lon="7.29724">
        <ele>549</ele>
        <time>2018-04-24T10:08:56.000Z</time>
      </trkpt>
      <trkpt lat="43.95038" lon="7.29731">
        <ele>547</ele>
        <time>2018-04-24T10:08:57.000Z</time>
      </trkpt>
      <trkpt lat="43.95058" lon="7.29749">
        <ele>546</ele>
        <time>2018-04-24T10:08:59.000Z</time>
      </trkpt>
      <trkpt lat="43.95067" lon="7.2976">
        <ele>565</ele>
        <time>2018-04-24T10:09:00.000Z</time>
      </trkpt>
      <trkpt lat="43.95077" lon="7.29771">
        <ele>567</ele>
        <time>2018-04-24T10:09:01.000Z</time>
      </trkpt>
      <trkpt lat="43.95087" lon="7.29781">
        <ele>551</ele>
        <time>2018-04-24T10:09:02.000Z</time>
      </trkpt>
      <trkpt lat="43.95107" lon="7.298">
        <ele>555</ele>
        <time>2018-04-24T10:09:04.000Z</time>
      </trkpt>
      <trkpt lat="43.95129" lon="7.29818">
        <ele>556</ele>
        <time>2018-04-24T10:09:06.000Z</time>
      </trkpt>
      <trkpt lat="43.95141" lon="7.29824">
        <ele>557</ele>
        <time>2018-04-24T10:09:07.000Z</time>
      </trkpt>
      <trkpt lat="43.95153" lon="7.29829">
        <ele>561</ele>
        <time>2018-04-24T10:09:08.000Z</time>
      </trkpt>
      <trkpt lat="43.95166" lon="7.29835">
        <ele>573</ele>
        <time>2018-04-24T10:09:09.000Z</time>
      </trkpt>
      <trkpt lat="43.95178" lon="7.2984">
        <ele>570</ele>
        <time>2018-04-24T10:09:10.000Z</time>
      </trkpt>
      <trkpt lat="43.95203" lon="7.29851">
        <ele>565</ele>
        <time>2018-04-24T10:09:12.000Z</time>
      </trkpt>
      <trkpt lat="43.95224" lon="7.29865">
        <ele>562</ele>
        <time>2018-04-24T10:09:14.000Z</time>
      </trkpt>
      <trkpt lat="43.95239" lon="7.29883">
        <ele>570</ele>
        <time>2018-04-24T10:09:16.000Z</time>
      </trkpt>
      <trkpt lat="43.95246" lon="7.29889">
        <ele>574</ele>
        <time>2018-04-24T10:09:17.000Z</time>
      </trkpt>
      <trkpt lat="43.95252" lon="7.29893">
        <ele>548</ele>
        <time>2018-04-24T10:09:18.000Z</time>
      </trkpt>
      <trkpt lat="43.95265" lon="7.29893">
        <ele>543</ele>
        <time>2018-04-24T10:09:20.000Z</time>
      </trkpt>
      <trkpt lat="43.95272" lon="7.2989">
        <ele>538</ele>
        <time>2018-04-24T10:09:21.000Z</time>
      </trkpt>
      <trkpt lat="43.95287" lon="7.29893">
        <ele>532</ele>
        <time>2018-04-24T10:09:23.000Z</time>
      </trkpt>
      <trkpt lat="43.95295" lon="7.29897">
        <ele>530</ele>
        <time>2018-04-24T10:09:24.000Z</time>
      </trkpt>
      <trkpt lat="43.95311" lon="7.29909">
        <ele>528</ele>
        <time>2018-04-24T10:09:26.000Z</time>
      </trkpt>
      <trkpt lat="43.95319" lon="7.29913">
        <ele>527</ele>
        <time>2018-04-24T10:09:27.000Z</time>
      </trkpt>
      <trkpt lat="43.95338" lon="7.29916">
        <ele>519</ele>
        <time>2018-04-24T10:09:29.000Z</time>
      </trkpt>
      <trkpt lat="43.95346" lon="7.2992">
        <ele>527</ele>
        <time>2018-04-24T10:09:30.000Z</time>
      </trkpt>
      <trkpt lat="43.95356" lon="7.29938">
        <ele>529</ele>
        <time>2018-04-24T10:09:32.000Z</time>
      </trkpt>
      <trkpt lat="43.95363" lon="7.29974">
        <ele>538</ele>
        <time>2018-04-24T10:09:35.000Z</time>
      </trkpt>
      <trkpt lat="43.95369" lon="7.29991">
        <ele>540</ele>
        <time>2018-04-24T10:09:37.000Z</time>
      </trkpt>
      <trkpt lat="43.95375" lon="7.29995">
        <ele>539</ele>
        <time>2018-04-24T10:09:38.000Z</time>
      </trkpt>
      <trkpt lat="43.95384" lon="7.29997">
        <ele>536</ele>
        <time>2018-04-24T10:09:39.000Z</time>
      </trkpt>
      <trkpt lat="43.95394" lon="7.29994">
        <ele>534</ele>
        <time>2018-04-24T10:09:40.000Z</time>
      </trkpt>
      <trkpt lat="43.95404" lon="7.29992">
        <ele>533</ele>
        <time>2018-04-24T10:09:41.000Z</time>
      </trkpt>
      <trkpt lat="43.95414" lon="7.29992">
        <ele>533</ele>
        <time>2018-04-24T10:09:42.000Z</time>
      </trkpt>
      <trkpt lat="43.95423" lon="7.29994">
        <ele>522</ele>
        <time>2018-04-24T10:09:43.000Z</time>
      </trkpt>
      <trkpt lat="43.95434" lon="7.29996">
        <ele>514</ele>
        <time>2018-04-24T10:09:44.000Z</time>
      </trkpt>
      <trkpt lat="43.95444" lon="7.3">
        <ele>536</ele>
        <time>2018-04-24T10:09:45.000Z</time>
      </trkpt>
      <trkpt lat="43.95465" lon="7.30013">
        <ele>533</ele>
        <time>2018-04-24T10:09:47.000Z</time>
      </trkpt>
      <trkpt lat="43.95475" lon="7.30021">
        <ele>531</ele>
        <time>2018-04-24T10:09:48.000Z</time>
      </trkpt>
      <trkpt lat="43.95487" lon="7.3003">
        <ele>531</ele>
        <time>2018-04-24T10:09:49.000Z</time>
      </trkpt>
      <trkpt lat="43.95507" lon="7.30051">
        <ele>510</ele>
        <time>2018-04-24T10:09:51.000Z</time>
      </trkpt>
      <trkpt lat="43.95516" lon="7.30063">
        <ele>513</ele>
        <time>2018-04-24T10:09:52.000Z</time>
      </trkpt>
      <trkpt lat="43.95524" lon="7.30075">
        <ele>513</ele>
        <time>2018-04-24T10:09:53.000Z</time>
      </trkpt>
      <trkpt lat="43.95533" lon="7.30087">
        <ele>533</ele>
        <time>2018-04-24T10:09:54.000Z</time>
      </trkpt>
      <trkpt lat="43.95542" lon="7.30098">
        <ele>530</ele>
        <time>2018-04-24T10:09:55.000Z</time>
      </trkpt>
      <trkpt lat="43.95551" lon="7.30108">
        <ele>529</ele>
        <time>2018-04-24T10:09:56.000Z</time>
      </trkpt>
      <trkpt lat="43.95568" lon="7.30124">
        <ele>528</ele>
        <time>2018-04-24T10:09:58.000Z</time>
      </trkpt>
      <trkpt lat="43.95585" lon="7.30144">
        <ele>502</ele>
        <time>2018-04-24T10:10:00.000Z</time>
      </trkpt>
      <trkpt lat="43.95599" lon="7.30166">
        <ele>507</ele>
        <time>2018-04-24T10:10:02.000Z</time>
      </trkpt>
      <trkpt lat="43.95609" lon="7.30191">
        <ele>513</ele>
        <time>2018-04-24T10:10:04.000Z</time>
      </trkpt>
      <trkpt lat="43.95612" lon="7.30207">
        <ele>513</ele>
        <time>2018-04-24T10:10:05.000Z</time>
      </trkpt>
      <trkpt lat="43.95615" lon="7.30234">
        <ele>517</ele>
        <time>2018-04-24T10:10:07.000Z</time>
      </trkpt>
      <trkpt lat="43.95619" lon="7.30246">
        <ele>516</ele>
        <time>2018-04-24T10:10:08.000Z</time>
      </trkpt>
      <trkpt lat="43.95625" lon="7.30257">
        <ele>529</ele>
        <time>2018-04-24T10:10:09.000Z</time>
      </trkpt>
      <trkpt lat="43.95639" lon="7.30276">
        <ele>525</ele>
        <time>2018-04-24T10:10:11.000Z</time>
      </trkpt>
      <trkpt lat="43.95645" lon="7.30285">
        <ele>525</ele>
        <time>2018-04-24T10:10:12.000Z</time>
      </trkpt>
      <trkpt lat="43.9565" lon="7.30294">
        <ele>526</ele>
        <time>2018-04-24T10:10:13.000Z</time>
      </trkpt>
      <trkpt lat="43.9566" lon="7.30314">
        <ele>525</ele>
        <time>2018-04-24T10:10:15.000Z</time>
      </trkpt>
      <trkpt lat="43.95666" lon="7.30336">
        <ele>522</ele>
        <time>2018-04-24T10:10:17.000Z</time>
      </trkpt>
      <trkpt lat="43.9568" lon="7.30388">
        <ele>508</ele>
        <time>2018-04-24T10:10:22.000Z</time>
      </trkpt>
      <trkpt lat="43.95683" lon="7.30399">
        <ele>511</ele>
        <time>2018-04-24T10:10:23.000Z</time>
      </trkpt>
      <trkpt lat="43.95687" lon="7.30421">
        <ele>531</ele>
        <time>2018-04-24T10:10:25.000Z</time>
      </trkpt>
      <trkpt lat="43.95688" lon="7.30441">
        <ele>532</ele>
        <time>2018-04-24T10:10:27.000Z</time>
      </trkpt>
      <trkpt lat="43.95689" lon="7.30448">
        <ele>533</ele>
        <time>2018-04-24T10:10:28.000Z</time>
      </trkpt>
      <trkpt lat="43.95691" lon="7.30461">
        <ele>535</ele>
        <time>2018-04-24T10:10:30.000Z</time>
      </trkpt>
      <trkpt lat="43.95703" lon="7.3047">
        <ele>533</ele>
        <time>2018-04-24T10:10:32.000Z</time>
      </trkpt>
      <trkpt lat="43.95716" lon="7.30479">
        <ele>528</ele>
        <time>2018-04-24T10:10:34.000Z</time>
      </trkpt>
      <trkpt lat="43.95744" lon="7.30496">
        <ele>515</ele>
        <time>2018-04-24T10:10:38.000Z</time>
      </trkpt>
      <trkpt lat="43.95798" lon="7.30533">
        <ele>514</ele>
        <time>2018-04-24T10:10:46.000Z</time>
      </trkpt>
      <trkpt lat="43.95829" lon="7.30554">
        <ele>514</ele>
        <time>2018-04-24T10:10:50.000Z</time>
      </trkpt>
      <trkpt lat="43.95852" lon="7.30565">
        <ele>505</ele>
        <time>2018-04-24T10:10:53.000Z</time>
      </trkpt>
      <trkpt lat="43.95861" lon="7.30565">
        <ele>504</ele>
        <time>2018-04-24T10:10:54.000Z</time>
      </trkpt>
      <trkpt lat="43.95878" lon="7.3056">
        <ele>502</ele>
        <time>2018-04-24T10:10:56.000Z</time>
      </trkpt>
      <trkpt lat="43.95887" lon="7.30557">
        <ele>502</ele>
        <time>2018-04-24T10:10:57.000Z</time>
      </trkpt>
      <trkpt lat="43.95894" lon="7.30555">
        <ele>502</ele>
        <time>2018-04-24T10:10:58.000Z</time>
      </trkpt>
      <trkpt lat="43.95904" lon="7.30556">
        <ele>503</ele>
        <time>2018-04-24T10:10:59.000Z</time>
      </trkpt>
      <trkpt lat="43.95912" lon="7.30561">
        <ele>506</ele>
        <time>2018-04-24T10:11:00.000Z</time>
      </trkpt>
      <trkpt lat="43.9592" lon="7.30568">
        <ele>508</ele>
        <time>2018-04-24T10:11:01.000Z</time>
      </trkpt>
      <trkpt lat="43.95937" lon="7.30572">
        <ele>506</ele>
        <time>2018-04-24T10:11:03.000Z</time>
      </trkpt>
      <trkpt lat="43.95946" lon="7.30572">
        <ele>504</ele>
        <time>2018-04-24T10:11:04.000Z</time>
      </trkpt>
      <trkpt lat="43.95963" lon="7.30567">
        <ele>502</ele>
        <time>2018-04-24T10:11:06.000Z</time>
      </trkpt>
      <trkpt lat="43.95971" lon="7.30565">
        <ele>501</ele>
        <time>2018-04-24T10:11:07.000Z</time>
      </trkpt>
      <trkpt lat="43.95978" lon="7.30565">
        <ele>502</ele>
        <time>2018-04-24T10:11:08.000Z</time>
      </trkpt>
      <trkpt lat="43.95993" lon="7.30572">
        <ele>506</ele>
        <time>2018-04-24T10:11:10.000Z</time>
      </trkpt>
      <trkpt lat="43.96004" lon="7.30587">
        <ele>516</ele>
        <time>2018-04-24T10:11:12.000Z</time>
      </trkpt>
      <trkpt lat="43.96009" lon="7.30594">
        <ele>521</ele>
        <time>2018-04-24T10:11:13.000Z</time>
      </trkpt>
      <trkpt lat="43.96023" lon="7.30605">
        <ele>528</ele>
        <time>2018-04-24T10:11:15.000Z</time>
      </trkpt>
      <trkpt lat="43.96037" lon="7.30608">
        <ele>530</ele>
        <time>2018-04-24T10:11:17.000Z</time>
      </trkpt>
      <trkpt lat="43.96055" lon="7.30594">
        <ele>528</ele>
        <time>2018-04-24T10:11:20.000Z</time>
      </trkpt>
      <trkpt lat="43.96066" lon="7.30569">
        <ele>509</ele>
        <time>2018-04-24T10:11:23.000Z</time>
      </trkpt>
      <trkpt lat="43.9607" lon="7.3056">
        <ele>508</ele>
        <time>2018-04-24T10:11:24.000Z</time>
      </trkpt>
      <trkpt lat="43.96097" lon="7.30518">
        <ele>511</ele>
        <time>2018-04-24T10:11:30.000Z</time>
      </trkpt>
      <trkpt lat="43.96112" lon="7.30498">
        <ele>494</ele>
        <time>2018-04-24T10:11:33.000Z</time>
      </trkpt>
      <trkpt lat="43.96125" lon="7.30491">
        <ele>495</ele>
        <time>2018-04-24T10:11:35.000Z</time>
      </trkpt>
      <trkpt lat="43.96146" lon="7.30495">
        <ele>503</ele>
        <time>2018-04-24T10:11:38.000Z</time>
      </trkpt>
      <trkpt lat="43.96169" lon="7.30486">
        <ele>513</ele>
        <time>2018-04-24T10:11:41.000Z</time>
      </trkpt>
      <trkpt lat="43.96188" lon="7.30467">
        <ele>506</ele>
        <time>2018-04-24T10:11:44.000Z</time>
      </trkpt>
      <trkpt lat="43.96195" lon="7.30462">
        <ele>504</ele>
        <time>2018-04-24T10:11:45.000Z</time>
      </trkpt>
      <trkpt lat="43.9622" lon="7.30455">
        <ele>503</ele>
        <time>2018-04-24T10:11:48.000Z</time>
      </trkpt>
      <trkpt lat="43.96229" lon="7.30453">
        <ele>503</ele>
        <time>2018-04-24T10:11:49.000Z</time>
      </trkpt>
      <trkpt lat="43.9628" lon="7.30442">
        <ele>480</ele>
        <time>2018-04-24T10:11:55.000Z</time>
      </trkpt>
      <trkpt lat="43.96288" lon="7.30442">
        <ele>477</ele>
        <time>2018-04-24T10:11:56.000Z</time>
      </trkpt>
      <trkpt lat="43.96301" lon="7.30452">
        <ele>476</ele>
        <time>2018-04-24T10:11:58.000Z</time>
      </trkpt>
      <trkpt lat="43.96318" lon="7.30483">
        <ele>479</ele>
        <time>2018-04-24T10:12:01.000Z</time>
      </trkpt>
      <trkpt lat="43.96323" lon="7.30494">
        <ele>479</ele>
        <time>2018-04-24T10:12:02.000Z</time>
      </trkpt>
      <trkpt lat="43.96329" lon="7.30504">
        <ele>492</ele>
        <time>2018-04-24T10:12:03.000Z</time>
      </trkpt>
      <trkpt lat="43.96334" lon="7.30516">
        <ele>478</ele>
        <time>2018-04-24T10:12:04.000Z</time>
      </trkpt>
      <trkpt lat="43.96339" lon="7.30528">
        <ele>481</ele>
        <time>2018-04-24T10:12:05.000Z</time>
      </trkpt>
      <trkpt lat="43.96345" lon="7.3054">
        <ele>486</ele>
        <time>2018-04-24T10:12:06.000Z</time>
      </trkpt>
      <trkpt lat="43.96351" lon="7.30551">
        <ele>491</ele>
        <time>2018-04-24T10:12:07.000Z</time>
      </trkpt>
      <trkpt lat="43.96362" lon="7.30573">
        <ele>496</ele>
        <time>2018-04-24T10:12:09.000Z</time>
      </trkpt>
      <trkpt lat="43.96373" lon="7.30598">
        <ele>521</ele>
        <time>2018-04-24T10:12:11.000Z</time>
      </trkpt>
      <trkpt lat="43.96378" lon="7.30611">
        <ele>519</ele>
        <time>2018-04-24T10:12:12.000Z</time>
      </trkpt>
      <trkpt lat="43.96384" lon="7.30624">
        <ele>518</ele>
        <time>2018-04-24T10:12:13.000Z</time>
      </trkpt>
      <trkpt lat="43.96402" lon="7.30642">
        <ele>508</ele>
        <time>2018-04-24T10:12:15.000Z</time>
      </trkpt>
      <trkpt lat="43.96411" lon="7.30651">
        <ele>499</ele>
        <time>2018-04-24T10:12:16.000Z</time>
      </trkpt>
      <trkpt lat="43.9642" lon="7.3066">
        <ele>466</ele>
        <time>2018-04-24T10:12:17.000Z</time>
      </trkpt>
      <trkpt lat="43.96428" lon="7.30668">
        <ele>483</ele>
        <time>2018-04-24T10:12:18.000Z</time>
      </trkpt>
      <trkpt lat="43.96437" lon="7.30677">
        <ele>486</ele>
        <time>2018-04-24T10:12:19.000Z</time>
      </trkpt>
      <trkpt lat="43.96453" lon="7.30697">
        <ele>490</ele>
        <time>2018-04-24T10:12:21.000Z</time>
      </trkpt>
      <trkpt lat="43.9646" lon="7.30707">
        <ele>491</ele>
        <time>2018-04-24T10:12:22.000Z</time>
      </trkpt>
      <trkpt lat="43.96467" lon="7.30719">
        <ele>492</ele>
        <time>2018-04-24T10:12:23.000Z</time>
      </trkpt>
      <trkpt lat="43.96479" lon="7.30739">
        <ele>486</ele>
        <time>2018-04-24T10:12:25.000Z</time>
      </trkpt>
      <trkpt lat="43.96487" lon="7.30746">
        <ele>478</ele>
        <time>2018-04-24T10:12:26.000Z</time>
      </trkpt>
      <trkpt lat="43.96494" lon="7.30756">
        <ele>485</ele>
        <time>2018-04-24T10:12:27.000Z</time>
      </trkpt>
      <trkpt lat="43.96503" lon="7.30761">
        <ele>463</ele>
        <time>2018-04-24T10:12:28.000Z</time>
      </trkpt>
      <trkpt lat="43.96512" lon="7.30771">
        <ele>463</ele>
        <time>2018-04-24T10:12:29.000Z</time>
      </trkpt>
      <trkpt lat="43.96529" lon="7.30788">
        <ele>464</ele>
        <time>2018-04-24T10:12:31.000Z</time>
      </trkpt>
      <trkpt lat="43.96535" lon="7.30801">
        <ele>465</ele>
        <time>2018-04-24T10:12:32.000Z</time>
      </trkpt>
      <trkpt lat="43.9654" lon="7.30813">
        <ele>465</ele>
        <time>2018-04-24T10:12:33.000Z</time>
      </trkpt>
      <trkpt lat="43.96547" lon="7.3084">
        <ele>472</ele>
        <time>2018-04-24T10:12:35.000Z</time>
      </trkpt>
      <trkpt lat="43.96548" lon="7.30852">
        <ele>472</ele>
        <time>2018-04-24T10:12:36.000Z</time>
      </trkpt>
      <trkpt lat="43.96547" lon="7.30862">
        <ele>473</ele>
        <time>2018-04-24T10:12:37.000Z</time>
      </trkpt>
      <trkpt lat="43.96537" lon="7.30879">
        <ele>475</ele>
        <time>2018-04-24T10:12:39.000Z</time>
      </trkpt>
      <trkpt lat="43.96525" lon="7.30894">
        <ele>478</ele>
        <time>2018-04-24T10:12:41.000Z</time>
      </trkpt>
      <trkpt lat="43.96514" lon="7.3091">
        <ele>481</ele>
        <time>2018-04-24T10:12:43.000Z</time>
      </trkpt>
      <trkpt lat="43.9651" lon="7.3092">
        <ele>485</ele>
        <time>2018-04-24T10:12:44.000Z</time>
      </trkpt>
      <trkpt lat="43.96507" lon="7.30928">
        <ele>485</ele>
        <time>2018-04-24T10:12:45.000Z</time>
      </trkpt>
      <trkpt lat="43.96506" lon="7.30935">
        <ele>484</ele>
        <time>2018-04-24T10:12:46.000Z</time>
      </trkpt>
      <trkpt lat="43.96512" lon="7.30942">
        <ele>484</ele>
        <time>2018-04-24T10:12:48.000Z</time>
      </trkpt>
      <trkpt lat="43.9654" lon="7.30944">
        <ele>482</ele>
        <time>2018-04-24T10:12:50.000Z</time>
      </trkpt>
      <trkpt lat="43.9655" lon="7.30941">
        <ele>481</ele>
        <time>2018-04-24T10:12:51.000Z</time>
      </trkpt>
      <trkpt lat="43.96567" lon="7.30935">
        <ele>476</ele>
        <time>2018-04-24T10:12:53.000Z</time>
      </trkpt>
      <trkpt lat="43.96577" lon="7.3093">
        <ele>473</ele>
        <time>2018-04-24T10:12:54.000Z</time>
      </trkpt>
      <trkpt lat="43.96601" lon="7.3091">
        <ele>461</ele>
        <time>2018-04-24T10:12:57.000Z</time>
      </trkpt>
      <trkpt lat="43.96607" lon="7.30903">
        <ele>460</ele>
        <time>2018-04-24T10:12:58.000Z</time>
      </trkpt>
      <trkpt lat="43.96614" lon="7.30894">
        <ele>460</ele>
        <time>2018-04-24T10:12:59.000Z</time>
      </trkpt>
      <trkpt lat="43.96622" lon="7.30886">
        <ele>459</ele>
        <time>2018-04-24T10:13:00.000Z</time>
      </trkpt>
      <trkpt lat="43.9663" lon="7.3088">
        <ele>459</ele>
        <time>2018-04-24T10:13:01.000Z</time>
      </trkpt>
      <trkpt lat="43.96639" lon="7.30876">
        <ele>459</ele>
        <time>2018-04-24T10:13:02.000Z</time>
      </trkpt>
      <trkpt lat="43.96648" lon="7.30875">
        <ele>459</ele>
        <time>2018-04-24T10:13:03.000Z</time>
      </trkpt>
      <trkpt lat="43.96666" lon="7.30869">
        <ele>457</ele>
        <time>2018-04-24T10:13:05.000Z</time>
      </trkpt>
      <trkpt lat="43.96673" lon="7.30861">
        <ele>454</ele>
        <time>2018-04-24T10:13:06.000Z</time>
      </trkpt>
      <trkpt lat="43.96679" lon="7.30841">
        <ele>449</ele>
        <time>2018-04-24T10:13:08.000Z</time>
      </trkpt>
      <trkpt lat="43.96686" lon="7.30811">
        <ele>433</ele>
        <time>2018-04-24T10:13:11.000Z</time>
      </trkpt>
      <trkpt lat="43.96697" lon="7.30811">
        <ele>432</ele>
        <time>2018-04-24T10:13:13.000Z</time>
      </trkpt>
      <trkpt lat="43.96715" lon="7.30829">
        <ele>433</ele>
        <time>2018-04-24T10:13:16.000Z</time>
      </trkpt>
      <trkpt lat="43.96749" lon="7.3086">
        <ele>452</ele>
        <time>2018-04-24T10:13:21.000Z</time>
      </trkpt>
      <trkpt lat="43.96756" lon="7.30867">
        <ele>445</ele>
        <time>2018-04-24T10:13:22.000Z</time>
      </trkpt>
      <trkpt lat="43.96771" lon="7.30882">
        <ele>447</ele>
        <time>2018-04-24T10:13:24.000Z</time>
      </trkpt>
      <trkpt lat="43.96795" lon="7.30902">
        <ele>446</ele>
        <time>2018-04-24T10:13:27.000Z</time>
      </trkpt>
      <trkpt lat="43.96812" lon="7.30914">
        <ele>444</ele>
        <time>2018-04-24T10:13:29.000Z</time>
      </trkpt>
      <trkpt lat="43.96836" lon="7.30932">
        <ele>446</ele>
        <time>2018-04-24T10:13:32.000Z</time>
      </trkpt>
      <trkpt lat="43.96844" lon="7.30938">
        <ele>447</ele>
        <time>2018-04-24T10:13:33.000Z</time>
      </trkpt>
      <trkpt lat="43.96869" lon="7.30961">
        <ele>450</ele>
        <time>2018-04-24T10:13:36.000Z</time>
      </trkpt>
      <trkpt lat="43.96895" lon="7.30982">
        <ele>449</ele>
        <time>2018-04-24T10:13:39.000Z</time>
      </trkpt>
      <trkpt lat="43.96913" lon="7.30994">
        <ele>449</ele>
        <time>2018-04-24T10:13:41.000Z</time>
      </trkpt>
      <trkpt lat="43.96931" lon="7.31005">
        <ele>456</ele>
        <time>2018-04-24T10:13:43.000Z</time>
      </trkpt>
      <trkpt lat="43.96949" lon="7.31014">
        <ele>460</ele>
        <time>2018-04-24T10:13:45.000Z</time>
      </trkpt>
      <trkpt lat="43.96956" lon="7.31017">
        <ele>460</ele>
        <time>2018-04-24T10:13:46.000Z</time>
      </trkpt>
      <trkpt lat="43.96962" lon="7.31015">
        <ele>460</ele>
        <time>2018-04-24T10:13:47.000Z</time>
      </trkpt>
      <trkpt lat="43.96971" lon="7.31">
        <ele>447</ele>
        <time>2018-04-24T10:13:50.000Z</time>
      </trkpt>
      <trkpt lat="43.96972" lon="7.30995">
        <ele>447</ele>
        <time>2018-04-24T10:13:51.000Z</time>
      </trkpt>
      <trkpt lat="43.96977" lon="7.30984">
        <ele>446</ele>
        <time>2018-04-24T10:13:54.000Z</time>
      </trkpt>
      <trkpt lat="43.96986" lon="7.3098">
        <ele>447</ele>
        <time>2018-04-24T10:13:58.000Z</time>
      </trkpt>
      <trkpt lat="43.9699" lon="7.30986">
        <ele>447</ele>
        <time>2018-04-24T10:14:02.000Z</time>
      </trkpt>
      <trkpt lat="43.96994" lon="7.3099">
        <ele>448</ele>
        <time>2018-04-24T10:14:07.000Z</time>
      </trkpt>
      <trkpt lat="43.96995" lon="7.30995">
        <ele>448</ele>
        <time>2018-04-24T10:14:12.000Z</time>
      </trkpt>
      <trkpt lat="43.96997" lon="7.30998">
        <ele>449</ele>
        <time>2018-04-24T10:14:15.000Z</time>
      </trkpt>
      <trkpt lat="43.97003" lon="7.31003">
        <ele>452</ele>
        <time>2018-04-24T10:14:20.000Z</time>
      </trkpt>
      <trkpt lat="43.9701" lon="7.31019">
        <ele>459</ele>
        <time>2018-04-24T10:14:26.000Z</time>
      </trkpt>
      <trkpt lat="43.97018" lon="7.31035">
        <ele>462</ele>
        <time>2018-04-24T10:14:31.000Z</time>
      </trkpt>
      <trkpt lat="43.97022" lon="7.31039">
        <ele>463</ele>
        <time>2018-04-24T10:14:33.000Z</time>
      </trkpt>
      <trkpt lat="43.97029" lon="7.31048">
        <ele>464</ele>
        <time>2018-04-24T10:14:36.000Z</time>
      </trkpt>
      <trkpt lat="43.97034" lon="7.31053">
        <ele>464</ele>
        <time>2018-04-24T10:14:38.000Z</time>
      </trkpt>
      <trkpt lat="43.97044" lon="7.31059">
        <ele>465</ele>
        <time>2018-04-24T10:14:42.000Z</time>
      </trkpt>
      <trkpt lat="43.97046" lon="7.31061">
        <ele>465</ele>
        <time>2018-04-24T10:14:43.000Z</time>
      </trkpt>
      <trkpt lat="43.97061" lon="7.31074">
        <ele>465</ele>
        <time>2018-04-24T10:14:49.000Z</time>
      </trkpt>
      <trkpt lat="43.97075" lon="7.3109">
        <ele>465</ele>
        <time>2018-04-24T10:14:56.000Z</time>
      </trkpt>
      <trkpt lat="43.97077" lon="7.31094">
        <ele>465</ele>
        <time>2018-04-24T10:14:58.000Z</time>
      </trkpt>
      <trkpt lat="43.97083" lon="7.31102">
        <ele>466</ele>
        <time>2018-04-24T10:15:01.000Z</time>
      </trkpt>
      <trkpt lat="43.9709" lon="7.31112">
        <ele>469</ele>
        <time>2018-04-24T10:15:05.000Z</time>
      </trkpt>
      <trkpt lat="43.97093" lon="7.31118">
        <ele>469</ele>
        <time>2018-04-24T10:15:07.000Z</time>
      </trkpt>
      <trkpt lat="43.97103" lon="7.31133">
        <ele>469</ele>
        <time>2018-04-24T10:15:13.000Z</time>
      </trkpt>
      <trkpt lat="43.97112" lon="7.31148">
        <ele>469</ele>
        <time>2018-04-24T10:15:19.000Z</time>
      </trkpt>
      <trkpt lat="43.97114" lon="7.31151">
        <ele>469</ele>
        <time>2018-04-24T10:15:20.000Z</time>
      </trkpt>
      <trkpt lat="43.97121" lon="7.31167">
        <ele>467</ele>
        <time>2018-04-24T10:15:26.000Z</time>
      </trkpt>
      <trkpt lat="43.97124" lon="7.31172">
        <ele>467</ele>
        <time>2018-04-24T10:15:28.000Z</time>
      </trkpt>
      <trkpt lat="43.97133" lon="7.31179">
        <ele>468</ele>
        <time>2018-04-24T10:15:32.000Z</time>
      </trkpt>
      <trkpt lat="43.97138" lon="7.31184">
        <ele>468</ele>
        <time>2018-04-24T10:15:35.000Z</time>
      </trkpt>
      <trkpt lat="43.97146" lon="7.31191">
        <ele>469</ele>
        <time>2018-04-24T10:15:39.000Z</time>
      </trkpt>
      <trkpt lat="43.97152" lon="7.31194">
        <ele>469</ele>
        <time>2018-04-24T10:15:42.000Z</time>
      </trkpt>
      <trkpt lat="43.97159" lon="7.31196">
        <ele>469</ele>
        <time>2018-04-24T10:15:45.000Z</time>
      </trkpt>
      <trkpt lat="43.97166" lon="7.31196">
        <ele>469</ele>
        <time>2018-04-24T10:15:48.000Z</time>
      </trkpt>
      <trkpt lat="43.97173" lon="7.31198">
        <ele>474</ele>
        <time>2018-04-24T10:15:51.000Z</time>
      </trkpt>
      <trkpt lat="43.97184" lon="7.31202">
        <ele>474</ele>
        <time>2018-04-24T10:15:56.000Z</time>
      </trkpt>
      <trkpt lat="43.97189" lon="7.31205">
        <ele>475</ele>
        <time>2018-04-24T10:15:58.000Z</time>
      </trkpt>
      <trkpt lat="43.97203" lon="7.31208">
        <ele>476</ele>
        <time>2018-04-24T10:16:04.000Z</time>
      </trkpt>
      <trkpt lat="43.97206" lon="7.31208">
        <ele>476</ele>
        <time>2018-04-24T10:16:05.000Z</time>
      </trkpt>
      <trkpt lat="43.97217" lon="7.31208">
        <ele>478</ele>
        <time>2018-04-24T10:16:10.000Z</time>
      </trkpt>
      <trkpt lat="43.97227" lon="7.31208">
        <ele>479</ele>
        <time>2018-04-24T10:16:14.000Z</time>
      </trkpt>
      <trkpt lat="43.97235" lon="7.31208">
        <ele>479</ele>
        <time>2018-04-24T10:16:17.000Z</time>
      </trkpt>
      <trkpt lat="43.97249" lon="7.31209">
        <ele>480</ele>
        <time>2018-04-24T10:16:23.000Z</time>
      </trkpt>
      <trkpt lat="43.97255" lon="7.31209">
        <ele>488</ele>
        <time>2018-04-24T10:16:25.000Z</time>
      </trkpt>
      <trkpt lat="43.97269" lon="7.31206">
        <ele>488</ele>
        <time>2018-04-24T10:16:31.000Z</time>
      </trkpt>
      <trkpt lat="43.97271" lon="7.31205">
        <ele>488</ele>
        <time>2018-04-24T10:16:32.000Z</time>
      </trkpt>
      <trkpt lat="43.97282" lon="7.31199">
        <ele>488</ele>
        <time>2018-04-24T10:16:37.000Z</time>
      </trkpt>
      <trkpt lat="43.97289" lon="7.31196">
        <ele>488</ele>
        <time>2018-04-24T10:16:40.000Z</time>
      </trkpt>
      <trkpt lat="43.973" lon="7.31193">
        <ele>489</ele>
        <time>2018-04-24T10:16:45.000Z</time>
      </trkpt>
      <trkpt lat="43.97307" lon="7.31194">
        <ele>489</ele>
        <time>2018-04-24T10:16:48.000Z</time>
      </trkpt>
      <trkpt lat="43.97317" lon="7.31201">
        <ele>489</ele>
        <time>2018-04-24T10:16:53.000Z</time>
      </trkpt>
      <trkpt lat="43.97321" lon="7.31205">
        <ele>489</ele>
        <time>2018-04-24T10:16:55.000Z</time>
      </trkpt>
      <trkpt lat="43.97323" lon="7.31209">
        <ele>489</ele>
        <time>2018-04-24T10:16:57.000Z</time>
      </trkpt>
      <trkpt lat="43.97326" lon="7.31211">
        <ele>489</ele>
        <time>2018-04-24T10:16:59.000Z</time>
      </trkpt>
      <trkpt lat="43.97334" lon="7.31215">
        <ele>488</ele>
        <time>2018-04-24T10:17:03.000Z</time>
      </trkpt>
      <trkpt lat="43.97336" lon="7.31215">
        <ele>488</ele>
        <time>2018-04-24T10:17:04.000Z</time>
      </trkpt>
      <trkpt lat="43.9735" lon="7.31212">
        <ele>487</ele>
        <time>2018-04-24T10:17:10.000Z</time>
      </trkpt>
      <trkpt lat="43.97352" lon="7.3121">
        <ele>486</ele>
        <time>2018-04-24T10:17:11.000Z</time>
      </trkpt>
      <trkpt lat="43.9736" lon="7.31203">
        <ele>486</ele>
        <time>2018-04-24T10:17:15.000Z</time>
      </trkpt>
      <trkpt lat="43.97361" lon="7.31201">
        <ele>486</ele>
        <time>2018-04-24T10:17:16.000Z</time>
      </trkpt>
      <trkpt lat="43.97368" lon="7.31187">
        <ele>485</ele>
        <time>2018-04-24T10:17:21.000Z</time>
      </trkpt>
      <trkpt lat="43.9737" lon="7.31181">
        <ele>484</ele>
        <time>2018-04-24T10:17:23.000Z</time>
      </trkpt>
      <trkpt lat="43.97375" lon="7.31168">
        <ele>484</ele>
        <time>2018-04-24T10:17:28.000Z</time>
      </trkpt>
      <trkpt lat="43.97377" lon="7.31159">
        <ele>487</ele>
        <time>2018-04-24T10:17:31.000Z</time>
      </trkpt>
      <trkpt lat="43.97379" lon="7.31153">
        <ele>487</ele>
        <time>2018-04-24T10:17:33.000Z</time>
      </trkpt>
      <trkpt lat="43.97385" lon="7.31142">
        <ele>487</ele>
        <time>2018-04-24T10:17:38.000Z</time>
      </trkpt>
      <trkpt lat="43.97387" lon="7.31139">
        <ele>487</ele>
        <time>2018-04-24T10:17:39.000Z</time>
      </trkpt>
      <trkpt lat="43.97391" lon="7.31129">
        <ele>487</ele>
        <time>2018-04-24T10:17:43.000Z</time>
      </trkpt>
      <trkpt lat="43.97394" lon="7.31121">
        <ele>487</ele>
        <time>2018-04-24T10:17:46.000Z</time>
      </trkpt>
      <trkpt lat="43.97398" lon="7.31113">
        <ele>487</ele>
        <time>2018-04-24T10:17:49.000Z</time>
      </trkpt>
      <trkpt lat="43.97402" lon="7.31102">
        <ele>486</ele>
        <time>2018-04-24T10:17:53.000Z</time>
      </trkpt>
      <trkpt lat="43.97406" lon="7.31092">
        <ele>485</ele>
        <time>2018-04-24T10:17:56.000Z</time>
      </trkpt>
      <trkpt lat="43.97416" lon="7.31083">
        <ele>481</ele>
        <time>2018-04-24T10:18:01.000Z</time>
      </trkpt>
      <trkpt lat="43.97428" lon="7.3109">
        <ele>481</ele>
        <time>2018-04-24T10:18:06.000Z</time>
      </trkpt>
      <trkpt lat="43.97437" lon="7.31112">
        <ele>481</ele>
        <time>2018-04-24T10:18:12.000Z</time>
      </trkpt>
      <trkpt lat="43.97446" lon="7.3114">
        <ele>481</ele>
        <time>2018-04-24T10:18:19.000Z</time>
      </trkpt>
      <trkpt lat="43.97449" lon="7.31149">
        <ele>481</ele>
        <time>2018-04-24T10:18:21.000Z</time>
      </trkpt>
      <trkpt lat="43.97461" lon="7.31185">
        <ele>479</ele>
        <time>2018-04-24T10:18:29.000Z</time>
      </trkpt>
      <trkpt lat="43.97464" lon="7.31198">
        <ele>478</ele>
        <time>2018-04-24T10:18:32.000Z</time>
      </trkpt>
      <trkpt lat="43.97464" lon="7.31201">
        <ele>478</ele>
        <time>2018-04-24T10:18:33.000Z</time>
      </trkpt>
      <trkpt lat="43.97463" lon="7.31206">
        <ele>478</ele>
        <time>2018-04-24T10:18:37.000Z</time>
      </trkpt>
      <trkpt lat="43.97462" lon="7.31207">
        <ele>478</ele>
        <time>2018-04-24T10:18:40.000Z</time>
      </trkpt>
      <trkpt lat="43.9746" lon="7.31208">
        <ele>478</ele>
        <time>2018-04-24T10:18:43.000Z</time>
      </trkpt>
      <trkpt lat="43.97457" lon="7.31213">
        <ele>478</ele>
        <time>2018-04-24T10:18:49.000Z</time>
      </trkpt>
      <trkpt lat="43.97458" lon="7.31213">
        <ele>478</ele>
        <time>2018-04-24T10:18:55.000Z</time>
      </trkpt>
      <trkpt lat="43.97459" lon="7.31212">
        <ele>478</ele>
        <time>2018-04-24T10:19:02.000Z</time>
      </trkpt>
      <trkpt lat="43.97464" lon="7.31212">
        <ele>478</ele>
        <time>2018-04-24T10:19:09.000Z</time>
      </trkpt>
      <trkpt lat="43.97465" lon="7.31211">
        <ele>478</ele>
        <time>2018-04-24T10:19:11.000Z</time>
      </trkpt>
      <trkpt lat="43.97468" lon="7.31209">
        <ele>478</ele>
        <time>2018-04-24T10:19:14.000Z</time>
      </trkpt>
      <trkpt lat="43.97458" lon="7.31199">
        <ele>478</ele>
        <time>2018-04-24T10:19:35.000Z</time>
      </trkpt>
      <trkpt lat="43.97452" lon="7.31194">
        <ele>478</ele>
        <time>2018-04-24T10:19:40.000Z</time>
      </trkpt>
      <trkpt lat="43.9745" lon="7.31194">
        <ele>478</ele>
        <time>2018-04-24T10:19:45.000Z</time>
      </trkpt>
      <trkpt lat="43.97456" lon="7.31195">
        <ele>478</ele>
        <time>2018-04-24T10:19:51.000Z</time>
      </trkpt>
      <trkpt lat="43.97464" lon="7.31196">
        <ele>478</ele>
        <time>2018-04-24T10:19:56.000Z</time>
      </trkpt>
      <trkpt lat="43.97466" lon="7.31196">
        <ele>479</ele>
        <time>2018-04-24T10:19:57.000Z</time>
      </trkpt>
      <trkpt lat="43.97466" lon="7.31195">
        <ele>479</ele>
        <time>2018-04-24T10:20:02.000Z</time>
      </trkpt>
      <trkpt lat="43.97462" lon="7.31193">
        <ele>479</ele>
        <time>2018-04-24T10:20:09.000Z</time>
      </trkpt>
      <trkpt lat="43.97459" lon="7.31189">
        <ele>479</ele>
        <time>2018-04-24T10:20:16.000Z</time>
      </trkpt>
      <trkpt lat="43.97467" lon="7.31192">
        <ele>479</ele>
        <time>2018-04-24T10:20:21.000Z</time>
      </trkpt>
      <trkpt lat="43.97471" lon="7.31194">
        <ele>479</ele>
        <time>2018-04-24T10:20:28.000Z</time>
      </trkpt>
      <trkpt lat="43.97473" lon="7.31194">
        <ele>479</ele>
        <time>2018-04-24T10:20:35.000Z</time>
      </trkpt>
      <trkpt lat="43.97475" lon="7.31195">
        <ele>479</ele>
        <time>2018-04-24T10:20:40.000Z</time>
      </trkpt>
      <trkpt lat="43.97477" lon="7.31194">
        <ele>479</ele>
        <time>2018-04-24T10:20:47.000Z</time>
      </trkpt>
      <trkpt lat="43.97477" lon="7.31194">
        <ele>479</ele>
        <time>2018-04-24T10:20:51.000Z</time>
      </trkpt>
      <trkpt lat="43.97476" lon="7.31194">
        <ele>479</ele>
        <time>2018-04-24T10:20:58.000Z</time>
      </trkpt>
      <trkpt lat="43.97473" lon="7.31196">
        <ele>479</ele>
        <time>2018-04-24T10:21:03.000Z</time>
      </trkpt>
      <trkpt lat="43.97474" lon="7.31198">
        <ele>479</ele>
        <time>2018-04-24T10:21:07.000Z</time>
      </trkpt>
      <trkpt lat="43.97476" lon="7.31199">
        <ele>478</ele>
        <time>2018-04-24T10:21:08.000Z</time>
      </trkpt>
      <trkpt lat="43.97483" lon="7.31201">
        <ele>478</ele>
        <time>2018-04-24T10:21:14.000Z</time>
      </trkpt>
      <trkpt lat="43.97487" lon="7.31202">
        <ele>478</ele>
        <time>2018-04-24T10:21:20.000Z</time>
      </trkpt>
      <trkpt lat="43.97486" lon="7.31202">
        <ele>478</ele>
        <time>2018-04-24T10:21:26.000Z</time>
      </trkpt>
      <trkpt lat="43.97487" lon="7.31201">
        <ele>478</ele>
        <time>2018-04-24T10:21:33.000Z</time>
      </trkpt>
      <trkpt lat="43.97489" lon="7.31203">
        <ele>478</ele>
        <time>2018-04-24T10:21:39.000Z</time>
      </trkpt>
      <trkpt lat="43.97483" lon="7.31202">
        <ele>478</ele>
        <time>2018-04-24T10:21:45.000Z</time>
      </trkpt>
      <trkpt lat="43.97484" lon="7.31201">
        <ele>478</ele>
        <time>2018-04-24T10:21:46.000Z</time>
      </trkpt>
      <trkpt lat="43.97494" lon="7.31199">
        <ele>479</ele>
        <time>2018-04-24T10:21:53.000Z</time>
      </trkpt>
      <trkpt lat="43.97507" lon="7.31201">
        <ele>480</ele>
        <time>2018-04-24T10:22:13.000Z</time>
      </trkpt>
      <trkpt lat="43.97485" lon="7.31199">
        <ele>479</ele>
        <time>2018-04-24T10:22:18.000Z</time>
      </trkpt>
      <trkpt lat="43.97483" lon="7.31201">
        <ele>478</ele>
        <time>2018-04-24T10:22:24.000Z</time>
      </trkpt>
      <trkpt lat="43.9748" lon="7.31201">
        <ele>478</ele>
        <time>2018-04-24T10:22:26.000Z</time>
      </trkpt>
      <trkpt lat="43.97479" lon="7.31199">
        <ele>478</ele>
        <time>2018-04-24T10:22:29.000Z</time>
      </trkpt>
      <trkpt lat="43.97478" lon="7.31198">
        <ele>479</ele>
        <time>2018-04-24T10:22:35.000Z</time>
      </trkpt>
      <trkpt lat="43.97475" lon="7.31196">
        <ele>479</ele>
        <time>2018-04-24T10:22:39.000Z</time>
      </trkpt>
      <trkpt lat="43.97479" lon="7.31197">
        <ele>479</ele>
        <time>2018-04-24T10:22:44.000Z</time>
      </trkpt>
      <trkpt lat="43.97481" lon="7.31198">
        <ele>479</ele>
        <time>2018-04-24T10:22:46.000Z</time>
      </trkpt>
      <trkpt lat="43.9748" lon="7.31198">
        <ele>479</ele>
        <time>2018-04-24T10:22:49.000Z</time>
      </trkpt>
      <trkpt lat="43.97477" lon="7.31198">
        <ele>479</ele>
        <time>2018-04-24T10:22:52.000Z</time>
      </trkpt>
      <trkpt lat="43.97478" lon="7.31197">
        <ele>479</ele>
        <time>2018-04-24T10:22:54.000Z</time>
      </trkpt>
      <trkpt lat="43.97478" lon="7.31197">
        <ele>479</ele>
        <time>2018-04-24T10:23:01.000Z</time>
      </trkpt>
      <trkpt lat="43.97478" lon="7.31198">
        <ele>479</ele>
        <time>2018-04-24T10:23:09.000Z</time>
      </trkpt>
      <trkpt lat="43.97477" lon="7.31198">
        <ele>479</ele>
        <time>2018-04-24T10:23:15.000Z</time>
      </trkpt>
      <trkpt lat="43.97474" lon="7.312">
        <ele>478</ele>
        <time>2018-04-24T10:23:23.000Z</time>
      </trkpt>
      <trkpt lat="43.97471" lon="7.31201">
        <ele>478</ele>
        <time>2018-04-24T10:23:28.000Z</time>
      </trkpt>
      <trkpt lat="43.97468" lon="7.31201">
        <ele>478</ele>
        <time>2018-04-24T10:23:36.000Z</time>
      </trkpt>
      <trkpt lat="43.97468" lon="7.31206">
        <ele>478</ele>
        <time>2018-04-24T10:23:56.000Z</time>
      </trkpt>
      <trkpt lat="43.97467" lon="7.31206">
        <ele>478</ele>
        <time>2018-04-24T10:24:11.000Z</time>
      </trkpt>
      <trkpt lat="43.97466" lon="7.31205">
        <ele>478</ele>
        <time>2018-04-24T10:24:27.000Z</time>
      </trkpt>
      <trkpt lat="43.97465" lon="7.31205">
        <ele>478</ele>
        <time>2018-04-24T10:24:48.000Z</time>
      </trkpt>
      <trkpt lat="43.97465" lon="7.31206">
        <ele>478</ele>
        <time>2018-04-24T10:25:15.000Z</time>
      </trkpt>
      <trkpt lat="43.97465" lon="7.31206">
        <ele>478</ele>
        <time>2018-04-24T10:25:34.000Z</time>
      </trkpt>
      <trkpt lat="43.97465" lon="7.31206">
        <ele>478</ele>
        <time>2018-04-24T10:25:59.000Z</time>
      </trkpt>
      <trkpt lat="43.97465" lon="7.31206">
        <ele>478</ele>
        <time>2018-04-24T10:26:14.000Z</time>
      </trkpt>
      <trkpt lat="43.97465" lon="7.31207">
        <ele>478</ele>
        <time>2018-04-24T10:26:32.000Z</time>
      </trkpt>
      <trkpt lat="43.97465" lon="7.31207">
        <ele>478</ele>
        <time>2018-04-24T10:26:51.000Z</time>
      </trkpt>
      <trkpt lat="43.97465" lon="7.31207">
        <ele>478</ele>
        <time>2018-04-24T10:27:05.000Z</time>
      </trkpt>
      <trkpt lat="43.97465" lon="7.31207">
        <ele>478</ele>
        <time>2018-04-24T10:27:11.000Z</time>
      </trkpt>
      <trkpt lat="43.97464" lon="7.31208">
        <ele>478</ele>
        <time>2018-04-24T10:27:27.000Z</time>
      </trkpt>
      <trkpt lat="43.97464" lon="7.31208">
        <ele>478</ele>
        <time>2018-04-24T10:27:48.000Z</time>
      </trkpt>
      <trkpt lat="43.97464" lon="7.31208">
        <ele>478</ele>
        <time>2018-04-24T10:28:03.000Z</time>
      </trkpt>
      <trkpt lat="43.97463" lon="7.31208">
        <ele>478</ele>
        <time>2018-04-24T10:28:18.000Z</time>
      </trkpt>
      <trkpt lat="43.97464" lon="7.31209">
        <ele>478</ele>
        <time>2018-04-24T10:28:19.000Z</time>
      </trkpt>
      <trkpt lat="43.97464" lon="7.3121">
        <ele>478</ele>
        <time>2018-04-24T10:28:23.000Z</time>
      </trkpt>
      <trkpt lat="43.97464" lon="7.3121">
        <ele>478</ele>
        <time>2018-04-24T10:28:37.000Z</time>
      </trkpt>
      <trkpt lat="43.97464" lon="7.31209">
        <ele>478</ele>
        <time>2018-04-24T10:28:56.000Z</time>
      </trkpt>
      <trkpt lat="43.97463" lon="7.31208">
        <ele>478</ele>
        <time>2018-04-24T10:29:22.000Z</time>
      </trkpt>
      <trkpt lat="43.97463" lon="7.31208">
        <ele>478</ele>
        <time>2018-04-24T10:29:49.000Z</time>
      </trkpt>
      <trkpt lat="43.97463" lon="7.31208">
        <ele>478</ele>
        <time>2018-04-24T10:30:16.000Z</time>
      </trkpt>
      <trkpt lat="43.97463" lon="7.31208">
        <ele>478</ele>
        <time>2018-04-24T10:30:47.000Z</time>
      </trkpt>
      <trkpt lat="43.97463" lon="7.31208">
        <ele>478</ele>
        <time>2018-04-24T10:30:58.000Z</time>
      </trkpt>
      <trkpt lat="43.97464" lon="7.31208">
        <ele>478</ele>
        <time>2018-04-24T10:31:12.000Z</time>
      </trkpt>
      <trkpt lat="43.97465" lon="7.31207">
        <ele>478</ele>
        <time>2018-04-24T10:31:29.000Z</time>
      </trkpt>
      <trkpt lat="43.97464" lon="7.31209">
        <ele>478</ele>
        <time>2018-04-24T10:31:43.000Z</time>
      </trkpt>
      <trkpt lat="43.97463" lon="7.31209">
        <ele>478</ele>
        <time>2018-04-24T10:31:55.000Z</time>
      </trkpt>
      <trkpt lat="43.97462" lon="7.31208">
        <ele>478</ele>
        <time>2018-04-24T10:32:11.000Z</time>
      </trkpt>
      <trkpt lat="43.97462" lon="7.31208">
        <ele>478</ele>
        <time>2018-04-24T10:32:21.000Z</time>
      </trkpt>
      <trkpt lat="43.97463" lon="7.31208">
        <ele>478</ele>
        <time>2018-04-24T10:32:32.000Z</time>
      </trkpt>
      <trkpt lat="43.97463" lon="7.31207">
        <ele>478</ele>
        <time>2018-04-24T10:32:50.000Z</time>
      </trkpt>
      <trkpt lat="43.97462" lon="7.31207">
        <ele>478</ele>
        <time>2018-04-24T10:33:04.000Z</time>
      </trkpt>
      <trkpt lat="43.97461" lon="7.31206">
        <ele>478</ele>
        <time>2018-04-24T10:33:18.000Z</time>
      </trkpt>
      <trkpt lat="43.97461" lon="7.31206">
        <ele>478</ele>
        <time>2018-04-24T10:33:32.000Z</time>
      </trkpt>
      <trkpt lat="43.97461" lon="7.31206">
        <ele>478</ele>
        <time>2018-04-24T10:33:43.000Z</time>
      </trkpt>
      <trkpt lat="43.97461" lon="7.31206">
        <ele>478</ele>
        <time>2018-04-24T10:33:49.000Z</time>
      </trkpt>
      <trkpt lat="43.97462" lon="7.31207">
        <ele>478</ele>
        <time>2018-04-24T10:33:58.000Z</time>
      </trkpt>
      <trkpt lat="43.97462" lon="7.31207">
        <ele>478</ele>
        <time>2018-04-24T10:34:09.000Z</time>
      </trkpt>
      <trkpt lat="43.97462" lon="7.31207">
        <ele>478</ele>
        <time>2018-04-24T10:34:20.000Z</time>
      </trkpt>
      <trkpt lat="43.97464" lon="7.31207">
        <ele>478</ele>
        <time>2018-04-24T10:34:30.000Z</time>
      </trkpt>
      <trkpt lat="43.97466" lon="7.31207">
        <ele>478</ele>
        <time>2018-04-24T10:34:41.000Z</time>
      </trkpt>
      <trkpt lat="43.97467" lon="7.31206">
        <ele>478</ele>
        <time>2018-04-24T10:34:50.000Z</time>
      </trkpt>
      <trkpt lat="43.97467" lon="7.31206">
        <ele>478</ele>
        <time>2018-04-24T10:35:02.000Z</time>
      </trkpt>
      <trkpt lat="43.97467" lon="7.31206">
        <ele>478</ele>
        <time>2018-04-24T10:35:15.000Z</time>
      </trkpt>
      <trkpt lat="43.97468" lon="7.31205">
        <ele>478</ele>
        <time>2018-04-24T10:35:26.000Z</time>
      </trkpt>
      <trkpt lat="43.97469" lon="7.31205">
        <ele>478</ele>
        <time>2018-04-24T10:35:34.000Z</time>
      </trkpt>
      <trkpt lat="43.9747" lon="7.31205">
        <ele>478</ele>
        <time>2018-04-24T10:35:37.000Z</time>
      </trkpt>
      <trkpt lat="43.9747" lon="7.31205">
        <ele>478</ele>
        <time>2018-04-24T10:35:49.000Z</time>
      </trkpt>
      <trkpt lat="43.97469" lon="7.31206">
        <ele>478</ele>
        <time>2018-04-24T10:36:01.000Z</time>
      </trkpt>
      <trkpt lat="43.97467" lon="7.31205">
        <ele>478</ele>
        <time>2018-04-24T10:36:13.000Z</time>
      </trkpt>
      <trkpt lat="43.97465" lon="7.31204">
        <ele>478</ele>
        <time>2018-04-24T10:36:16.000Z</time>
      </trkpt>
      <trkpt lat="43.97466" lon="7.31203">
        <ele>478</ele>
        <time>2018-04-24T10:36:18.000Z</time>
      </trkpt>
      <trkpt lat="43.97466" lon="7.31202">
        <ele>478</ele>
        <time>2018-04-24T10:36:22.000Z</time>
      </trkpt>
      <trkpt lat="43.97462" lon="7.31211">
        <ele>478</ele>
        <time>2018-04-24T10:37:00.000Z</time>
      </trkpt>
      <trkpt lat="43.97471" lon="7.3121">
        <ele>478</ele>
        <time>2018-04-24T10:37:07.000Z</time>
      </trkpt>
      <trkpt lat="43.97475" lon="7.31207">
        <ele>478</ele>
        <time>2018-04-24T10:37:17.000Z</time>
      </trkpt>
      <trkpt lat="43.97476" lon="7.31203">
        <ele>478</ele>
        <time>2018-04-24T10:37:24.000Z</time>
      </trkpt>
      <trkpt lat="43.97475" lon="7.31201">
        <ele>478</ele>
        <time>2018-04-24T10:37:29.000Z</time>
      </trkpt>
      <trkpt lat="43.97477" lon="7.31198">
        <ele>479</ele>
        <time>2018-04-24T10:37:31.000Z</time>
      </trkpt>
      <trkpt lat="43.97479" lon="7.31195">
        <ele>479</ele>
        <time>2018-04-24T10:37:33.000Z</time>
      </trkpt>
      <trkpt lat="43.97481" lon="7.31191">
        <ele>479</ele>
        <time>2018-04-24T10:37:36.000Z</time>
      </trkpt>
      <trkpt lat="43.97481" lon="7.31189">
        <ele>480</ele>
        <time>2018-04-24T10:37:37.000Z</time>
      </trkpt>
      <trkpt lat="43.97481" lon="7.31186">
        <ele>480</ele>
        <time>2018-04-24T10:37:38.000Z</time>
      </trkpt>
      <trkpt lat="43.97479" lon="7.31178">
        <ele>480</ele>
        <time>2018-04-24T10:37:44.000Z</time>
      </trkpt>
      <trkpt lat="43.97479" lon="7.31179">
        <ele>480</ele>
        <time>2018-04-24T10:37:47.000Z</time>
      </trkpt>
      <trkpt lat="43.97479" lon="7.31178">
        <ele>480</ele>
        <time>2018-04-24T10:37:48.000Z</time>
      </trkpt>
      <trkpt lat="43.97475" lon="7.31181">
        <ele>480</ele>
        <time>2018-04-24T10:37:56.000Z</time>
      </trkpt>
      <trkpt lat="43.97473" lon="7.31183">
        <ele>480</ele>
        <time>2018-04-24T10:38:03.000Z</time>
      </trkpt>
      <trkpt lat="43.97472" lon="7.31185">
        <ele>479</ele>
        <time>2018-04-24T10:38:09.000Z</time>
      </trkpt>
      <trkpt lat="43.9747" lon="7.31184">
        <ele>479</ele>
        <time>2018-04-24T10:38:20.000Z</time>
      </trkpt>
      <trkpt lat="43.97469" lon="7.31184">
        <ele>479</ele>
        <time>2018-04-24T10:38:26.000Z</time>
      </trkpt>
      <trkpt lat="43.97468" lon="7.31182">
        <ele>479</ele>
        <time>2018-04-24T10:38:31.000Z</time>
      </trkpt>
      <trkpt lat="43.97466" lon="7.31184">
        <ele>479</ele>
        <time>2018-04-24T10:38:38.000Z</time>
      </trkpt>
      <trkpt lat="43.97464" lon="7.31186">
        <ele>479</ele>
        <time>2018-04-24T10:38:50.000Z</time>
      </trkpt>
      <trkpt lat="43.97463" lon="7.31188">
        <ele>479</ele>
        <time>2018-04-24T10:39:03.000Z</time>
      </trkpt>
      <trkpt lat="43.97459" lon="7.31189">
        <ele>479</ele>
        <time>2018-04-24T10:39:09.000Z</time>
      </trkpt>
      <trkpt lat="43.97457" lon="7.31187">
        <ele>479</ele>
        <time>2018-04-24T10:39:11.000Z</time>
      </trkpt>
      <trkpt lat="43.97453" lon="7.31181">
        <ele>479</ele>
        <time>2018-04-24T10:39:14.000Z</time>
      </trkpt>
      <trkpt lat="43.97448" lon="7.31168">
        <ele>479</ele>
        <time>2018-04-24T10:39:19.000Z</time>
      </trkpt>
      <trkpt lat="43.97443" lon="7.31157">
        <ele>480</ele>
        <time>2018-04-24T10:39:22.000Z</time>
      </trkpt>
      <trkpt lat="43.9744" lon="7.31147">
        <ele>481</ele>
        <time>2018-04-24T10:39:24.000Z</time>
      </trkpt>
      <trkpt lat="43.9743" lon="7.31104">
        <ele>481</ele>
        <time>2018-04-24T10:39:32.000Z</time>
      </trkpt>
      <trkpt lat="43.97427" lon="7.31093">
        <ele>481</ele>
        <time>2018-04-24T10:39:34.000Z</time>
      </trkpt>
      <trkpt lat="43.97419" lon="7.31083">
        <ele>481</ele>
        <time>2018-04-24T10:39:37.000Z</time>
      </trkpt>
      <trkpt lat="43.97404" lon="7.3108">
        <ele>492</ele>
        <time>2018-04-24T10:39:41.000Z</time>
      </trkpt>
      <trkpt lat="43.974" lon="7.31082">
        <ele>494</ele>
        <time>2018-04-24T10:39:42.000Z</time>
      </trkpt>
      <trkpt lat="43.97386" lon="7.31097">
        <ele>489</ele>
        <time>2018-04-24T10:39:46.000Z</time>
      </trkpt>
      <trkpt lat="43.97384" lon="7.31101">
        <ele>490</ele>
        <time>2018-04-24T10:39:47.000Z</time>
      </trkpt>
      <trkpt lat="43.97381" lon="7.31107">
        <ele>490</ele>
        <time>2018-04-24T10:39:48.000Z</time>
      </trkpt>
      <trkpt lat="43.97373" lon="7.31127">
        <ele>490</ele>
        <time>2018-04-24T10:39:52.000Z</time>
      </trkpt>
      <trkpt lat="43.97363" lon="7.31159">
        <ele>488</ele>
        <time>2018-04-24T10:39:58.000Z</time>
      </trkpt>
      <trkpt lat="43.9736" lon="7.3117">
        <ele>485</ele>
        <time>2018-04-24T10:40:00.000Z</time>
      </trkpt>
      <trkpt lat="43.97358" lon="7.31175">
        <ele>485</ele>
        <time>2018-04-24T10:40:01.000Z</time>
      </trkpt>
      <trkpt lat="43.97349" lon="7.31188">
        <ele>486</ele>
        <time>2018-04-24T10:40:04.000Z</time>
      </trkpt>
      <trkpt lat="43.97333" lon="7.31199">
        <ele>489</ele>
        <time>2018-04-24T10:40:08.000Z</time>
      </trkpt>
      <trkpt lat="43.97319" lon="7.31199">
        <ele>489</ele>
        <time>2018-04-24T10:40:11.000Z</time>
      </trkpt>
      <trkpt lat="43.97315" lon="7.31198">
        <ele>489</ele>
        <time>2018-04-24T10:40:12.000Z</time>
      </trkpt>
      <trkpt lat="43.973" lon="7.31193">
        <ele>489</ele>
        <time>2018-04-24T10:40:16.000Z</time>
      </trkpt>
      <trkpt lat="43.97285" lon="7.31193">
        <ele>488</ele>
        <time>2018-04-24T10:40:18.000Z</time>
      </trkpt>
      <trkpt lat="43.97279" lon="7.31195">
        <ele>488</ele>
        <time>2018-04-24T10:40:19.000Z</time>
      </trkpt>
      <trkpt lat="43.97273" lon="7.31198">
        <ele>488</ele>
        <time>2018-04-24T10:40:20.000Z</time>
      </trkpt>
      <trkpt lat="43.97266" lon="7.31201">
        <ele>488</ele>
        <time>2018-04-24T10:40:21.000Z</time>
      </trkpt>
      <trkpt lat="43.9726" lon="7.31203">
        <ele>488</ele>
        <time>2018-04-24T10:40:22.000Z</time>
      </trkpt>
      <trkpt lat="43.97252" lon="7.31205">
        <ele>488</ele>
        <time>2018-04-24T10:40:23.000Z</time>
      </trkpt>
      <trkpt lat="43.97228" lon="7.31208">
        <ele>479</ele>
        <time>2018-04-24T10:40:26.000Z</time>
      </trkpt>
      <trkpt lat="43.97221" lon="7.31208">
        <ele>478</ele>
        <time>2018-04-24T10:40:27.000Z</time>
      </trkpt>
      <trkpt lat="43.97205" lon="7.31207">
        <ele>476</ele>
        <time>2018-04-24T10:40:29.000Z</time>
      </trkpt>
      <trkpt lat="43.97189" lon="7.31204">
        <ele>475</ele>
        <time>2018-04-24T10:40:31.000Z</time>
      </trkpt>
      <trkpt lat="43.97174" lon="7.31199">
        <ele>474</ele>
        <time>2018-04-24T10:40:33.000Z</time>
      </trkpt>
      <trkpt lat="43.97166" lon="7.31196">
        <ele>469</ele>
        <time>2018-04-24T10:40:34.000Z</time>
      </trkpt>
      <trkpt lat="43.97159" lon="7.31193">
        <ele>469</ele>
        <time>2018-04-24T10:40:35.000Z</time>
      </trkpt>
      <trkpt lat="43.97152" lon="7.31188">
        <ele>469</ele>
        <time>2018-04-24T10:40:36.000Z</time>
      </trkpt>
      <trkpt lat="43.97146" lon="7.31182">
        <ele>469</ele>
        <time>2018-04-24T10:40:37.000Z</time>
      </trkpt>
      <trkpt lat="43.97132" lon="7.31168">
        <ele>468</ele>
        <time>2018-04-24T10:40:39.000Z</time>
      </trkpt>
      <trkpt lat="43.97107" lon="7.31138">
        <ele>469</ele>
        <time>2018-04-24T10:40:43.000Z</time>
      </trkpt>
      <trkpt lat="43.97094" lon="7.31123">
        <ele>469</ele>
        <time>2018-04-24T10:40:45.000Z</time>
      </trkpt>
      <trkpt lat="43.97056" lon="7.31075">
        <ele>465</ele>
        <time>2018-04-24T10:40:51.000Z</time>
      </trkpt>
      <trkpt lat="43.97043" lon="7.31059">
        <ele>465</ele>
        <time>2018-04-24T10:40:53.000Z</time>
      </trkpt>
      <trkpt lat="43.97036" lon="7.31051">
        <ele>465</ele>
        <time>2018-04-24T10:40:54.000Z</time>
      </trkpt>
      <trkpt lat="43.97019" lon="7.31022">
        <ele>461</ele>
        <time>2018-04-24T10:40:57.000Z</time>
      </trkpt>
      <trkpt lat="43.97014" lon="7.31012">
        <ele>458</ele>
        <time>2018-04-24T10:40:58.000Z</time>
      </trkpt>
      <trkpt lat="43.97007" lon="7.30989">
        <ele>457</ele>
        <time>2018-04-24T10:41:00.000Z</time>
      </trkpt>
      <trkpt lat="43.97003" lon="7.30964">
        <ele>461</ele>
        <time>2018-04-24T10:41:02.000Z</time>
      </trkpt>
      <trkpt lat="43.97001" lon="7.30939">
        <ele>459</ele>
        <time>2018-04-24T10:41:04.000Z</time>
      </trkpt>
      <trkpt lat="43.96999" lon="7.30913">
        <ele>448</ele>
        <time>2018-04-24T10:41:06.000Z</time>
      </trkpt>
      <trkpt lat="43.96998" lon="7.30887">
        <ele>444</ele>
        <time>2018-04-24T10:41:08.000Z</time>
      </trkpt>
      <trkpt lat="43.96996" lon="7.30874">
        <ele>443</ele>
        <time>2018-04-24T10:41:09.000Z</time>
      </trkpt>
      <trkpt lat="43.96994" lon="7.30848">
        <ele>445</ele>
        <time>2018-04-24T10:41:11.000Z</time>
      </trkpt>
      <trkpt lat="43.96992" lon="7.30821">
        <ele>446</ele>
        <time>2018-04-24T10:41:13.000Z</time>
      </trkpt>
      <trkpt lat="43.9699" lon="7.30808">
        <ele>444</ele>
        <time>2018-04-24T10:41:14.000Z</time>
      </trkpt>
      <trkpt lat="43.96985" lon="7.30782">
        <ele>444</ele>
        <time>2018-04-24T10:41:16.000Z</time>
      </trkpt>
      <trkpt lat="43.96977" lon="7.30757">
        <ele>445</ele>
        <time>2018-04-24T10:41:18.000Z</time>
      </trkpt>
      <trkpt lat="43.96971" lon="7.30746">
        <ele>447</ele>
        <time>2018-04-24T10:41:19.000Z</time>
      </trkpt>
      <trkpt lat="43.96958" lon="7.30724">
        <ele>445</ele>
        <time>2018-04-24T10:41:21.000Z</time>
      </trkpt>
      <trkpt lat="43.96952" lon="7.30714">
        <ele>445</ele>
        <time>2018-04-24T10:41:22.000Z</time>
      </trkpt>
      <trkpt lat="43.96938" lon="7.30691">
        <ele>443</ele>
        <time>2018-04-24T10:41:24.000Z</time>
      </trkpt>
      <trkpt lat="43.96925" lon="7.30669">
        <ele>439</ele>
        <time>2018-04-24T10:41:26.000Z</time>
      </trkpt>
      <trkpt lat="43.96912" lon="7.30647">
        <ele>435</ele>
        <time>2018-04-24T10:41:28.000Z</time>
      </trkpt>
      <trkpt lat="43.96906" lon="7.30637">
        <ele>435</ele>
        <time>2018-04-24T10:41:29.000Z</time>
      </trkpt>
      <trkpt lat="43.96892" lon="7.30616">
        <ele>436</ele>
        <time>2018-04-24T10:41:31.000Z</time>
      </trkpt>
      <trkpt lat="43.96873" lon="7.30582">
        <ele>444</ele>
        <time>2018-04-24T10:41:34.000Z</time>
      </trkpt>
      <trkpt lat="43.9686" lon="7.30561">
        <ele>443</ele>
        <time>2018-04-24T10:41:36.000Z</time>
      </trkpt>
      <trkpt lat="43.96835" lon="7.30542">
        <ele>443</ele>
        <time>2018-04-24T10:41:39.000Z</time>
      </trkpt>
      <trkpt lat="43.96816" lon="7.30537">
        <ele>430</ele>
        <time>2018-04-24T10:41:41.000Z</time>
      </trkpt>
      <trkpt lat="43.96806" lon="7.30535">
        <ele>429</ele>
        <time>2018-04-24T10:41:42.000Z</time>
      </trkpt>
      <trkpt lat="43.96796" lon="7.30532">
        <ele>429</ele>
        <time>2018-04-24T10:41:43.000Z</time>
      </trkpt>
      <trkpt lat="43.96776" lon="7.30524">
        <ele>428</ele>
        <time>2018-04-24T10:41:45.000Z</time>
      </trkpt>
      <trkpt lat="43.96759" lon="7.30512">
        <ele>428</ele>
        <time>2018-04-24T10:41:47.000Z</time>
      </trkpt>
      <trkpt lat="43.9674" lon="7.30496">
        <ele>428</ele>
        <time>2018-04-24T10:41:49.000Z</time>
      </trkpt>
      <trkpt lat="43.96724" lon="7.3048">
        <ele>428</ele>
        <time>2018-04-24T10:41:51.000Z</time>
      </trkpt>
      <trkpt lat="43.96716" lon="7.30472">
        <ele>429</ele>
        <time>2018-04-24T10:41:52.000Z</time>
      </trkpt>
      <trkpt lat="43.96707" lon="7.30465">
        <ele>428</ele>
        <time>2018-04-24T10:41:53.000Z</time>
      </trkpt>
      <trkpt lat="43.96688" lon="7.30458">
        <ele>427</ele>
        <time>2018-04-24T10:41:55.000Z</time>
      </trkpt>
      <trkpt lat="43.96658" lon="7.30452">
        <ele>421</ele>
        <time>2018-04-24T10:41:58.000Z</time>
      </trkpt>
      <trkpt lat="43.96649" lon="7.30448">
        <ele>421</ele>
        <time>2018-04-24T10:41:59.000Z</time>
      </trkpt>
      <trkpt lat="43.96632" lon="7.30437">
        <ele>421</ele>
        <time>2018-04-24T10:42:01.000Z</time>
      </trkpt>
      <trkpt lat="43.96617" lon="7.30424">
        <ele>420</ele>
        <time>2018-04-24T10:42:03.000Z</time>
      </trkpt>
      <trkpt lat="43.96571" lon="7.30389">
        <ele>420</ele>
        <time>2018-04-24T10:42:09.000Z</time>
      </trkpt>
      <trkpt lat="43.96564" lon="7.30383">
        <ele>421</ele>
        <time>2018-04-24T10:42:10.000Z</time>
      </trkpt>
      <trkpt lat="43.96558" lon="7.30377">
        <ele>421</ele>
        <time>2018-04-24T10:42:11.000Z</time>
      </trkpt>
      <trkpt lat="43.96543" lon="7.30351">
        <ele>421</ele>
        <time>2018-04-24T10:42:14.000Z</time>
      </trkpt>
      <trkpt lat="43.96539" lon="7.30341">
        <ele>421</ele>
        <time>2018-04-24T10:42:15.000Z</time>
      </trkpt>
      <trkpt lat="43.96535" lon="7.30333">
        <ele>430</ele>
        <time>2018-04-24T10:42:16.000Z</time>
      </trkpt>
      <trkpt lat="43.96524" lon="7.30317">
        <ele>429</ele>
        <time>2018-04-24T10:42:18.000Z</time>
      </trkpt>
      <trkpt lat="43.96482" lon="7.3027">
        <ele>423</ele>
        <time>2018-04-24T10:42:25.000Z</time>
      </trkpt>
      <trkpt lat="43.96475" lon="7.30265">
        <ele>423</ele>
        <time>2018-04-24T10:42:26.000Z</time>
      </trkpt>
      <trkpt lat="43.96439" lon="7.30244">
        <ele>431</ele>
        <time>2018-04-24T10:42:31.000Z</time>
      </trkpt>
      <trkpt lat="43.96432" lon="7.3024">
        <ele>429</ele>
        <time>2018-04-24T10:42:32.000Z</time>
      </trkpt>
      <trkpt lat="43.96395" lon="7.30224">
        <ele>427</ele>
        <time>2018-04-24T10:42:37.000Z</time>
      </trkpt>
      <trkpt lat="43.96386" lon="7.30224">
        <ele>428</ele>
        <time>2018-04-24T10:42:38.000Z</time>
      </trkpt>
      <trkpt lat="43.96355" lon="7.30232">
        <ele>427</ele>
        <time>2018-04-24T10:42:42.000Z</time>
      </trkpt>
      <trkpt lat="43.96318" lon="7.30253">
        <ele>425</ele>
        <time>2018-04-24T10:42:47.000Z</time>
      </trkpt>
      <trkpt lat="43.96303" lon="7.30265">
        <ele>427</ele>
        <time>2018-04-24T10:42:49.000Z</time>
      </trkpt>
      <trkpt lat="43.96291" lon="7.30277">
        <ele>429</ele>
        <time>2018-04-24T10:42:51.000Z</time>
      </trkpt>
      <trkpt lat="43.9628" lon="7.30288">
        <ele>429</ele>
        <time>2018-04-24T10:42:53.000Z</time>
      </trkpt>
      <trkpt lat="43.96258" lon="7.30312">
        <ele>431</ele>
        <time>2018-04-24T10:42:58.000Z</time>
      </trkpt>
      <trkpt lat="43.96245" lon="7.3032">
        <ele>441</ele>
        <time>2018-04-24T10:43:01.000Z</time>
      </trkpt>
      <trkpt lat="43.96236" lon="7.30322">
        <ele>442</ele>
        <time>2018-04-24T10:43:03.000Z</time>
      </trkpt>
      <trkpt lat="43.96227" lon="7.30323">
        <ele>443</ele>
        <time>2018-04-24T10:43:05.000Z</time>
      </trkpt>
      <trkpt lat="43.96211" lon="7.30324">
        <ele>445</ele>
        <time>2018-04-24T10:43:09.000Z</time>
      </trkpt>
      <trkpt lat="43.96206" lon="7.30325">
        <ele>446</ele>
        <time>2018-04-24T10:43:10.000Z</time>
      </trkpt>
      <trkpt lat="43.96183" lon="7.30327">
        <ele>447</ele>
        <time>2018-04-24T10:43:16.000Z</time>
      </trkpt>
      <trkpt lat="43.96167" lon="7.30325">
        <ele>446</ele>
        <time>2018-04-24T10:43:21.000Z</time>
      </trkpt>
      <trkpt lat="43.96159" lon="7.30327">
        <ele>447</ele>
        <time>2018-04-24T10:43:23.000Z</time>
      </trkpt>
      <trkpt lat="43.96147" lon="7.30326">
        <ele>447</ele>
        <time>2018-04-24T10:43:26.000Z</time>
      </trkpt>
      <trkpt lat="43.9612" lon="7.30319">
        <ele>447</ele>
        <time>2018-04-24T10:43:33.000Z</time>
      </trkpt>
      <trkpt lat="43.96112" lon="7.30315">
        <ele>446</ele>
        <time>2018-04-24T10:43:35.000Z</time>
      </trkpt>
      <trkpt lat="43.961" lon="7.30309">
        <ele>445</ele>
        <time>2018-04-24T10:43:38.000Z</time>
      </trkpt>
      <trkpt lat="43.96084" lon="7.30302">
        <ele>446</ele>
        <time>2018-04-24T10:43:42.000Z</time>
      </trkpt>
      <trkpt lat="43.96043" lon="7.30283">
        <ele>440</ele>
        <time>2018-04-24T10:43:51.000Z</time>
      </trkpt>
      <trkpt lat="43.96012" lon="7.30277">
        <ele>440</ele>
        <time>2018-04-24T10:43:58.000Z</time>
      </trkpt>
      <trkpt lat="43.95998" lon="7.30276">
        <ele>436</ele>
        <time>2018-04-24T10:44:01.000Z</time>
      </trkpt>
      <trkpt lat="43.95977" lon="7.30278">
        <ele>434</ele>
        <time>2018-04-24T10:44:06.000Z</time>
      </trkpt>
      <trkpt lat="43.95956" lon="7.30283">
        <ele>432</ele>
        <time>2018-04-24T10:44:11.000Z</time>
      </trkpt>
      <trkpt lat="43.95934" lon="7.30288">
        <ele>431</ele>
        <time>2018-04-24T10:44:16.000Z</time>
      </trkpt>
      <trkpt lat="43.95925" lon="7.30287">
        <ele>431</ele>
        <time>2018-04-24T10:44:18.000Z</time>
      </trkpt>
      <trkpt lat="43.95911" lon="7.30282">
        <ele>423</ele>
        <time>2018-04-24T10:44:21.000Z</time>
      </trkpt>
      <trkpt lat="43.95901" lon="7.3027">
        <ele>424</ele>
        <time>2018-04-24T10:44:24.000Z</time>
      </trkpt>
      <trkpt lat="43.95899" lon="7.30265">
        <ele>425</ele>
        <time>2018-04-24T10:44:25.000Z</time>
      </trkpt>
      <trkpt lat="43.95895" lon="7.30251">
        <ele>426</ele>
        <time>2018-04-24T10:44:28.000Z</time>
      </trkpt>
      <trkpt lat="43.95894" lon="7.30241">
        <ele>432</ele>
        <time>2018-04-24T10:44:30.000Z</time>
      </trkpt>
      <trkpt lat="43.95886" lon="7.302">
        <ele>431</ele>
        <time>2018-04-24T10:44:38.000Z</time>
      </trkpt>
      <trkpt lat="43.95879" lon="7.30153">
        <ele>436</ele>
        <time>2018-04-24T10:44:46.000Z</time>
      </trkpt>
      <trkpt lat="43.95875" lon="7.30129">
        <ele>436</ele>
        <time>2018-04-24T10:44:50.000Z</time>
      </trkpt>
      <trkpt lat="43.95862" lon="7.30077">
        <ele>440</ele>
        <time>2018-04-24T10:44:59.000Z</time>
      </trkpt>
      <trkpt lat="43.95858" lon="7.30065">
        <ele>440</ele>
        <time>2018-04-24T10:45:01.000Z</time>
      </trkpt>
      <trkpt lat="43.9584" lon="7.30018">
        <ele>443</ele>
        <time>2018-04-24T10:45:09.000Z</time>
      </trkpt>
      <trkpt lat="43.95823" lon="7.2997">
        <ele>436</ele>
        <time>2018-04-24T10:45:17.000Z</time>
      </trkpt>
      <trkpt lat="43.9582" lon="7.29964">
        <ele>436</ele>
        <time>2018-04-24T10:45:18.000Z</time>
      </trkpt>
      <trkpt lat="43.95816" lon="7.29959">
        <ele>437</ele>
        <time>2018-04-24T10:45:19.000Z</time>
      </trkpt>
      <trkpt lat="43.95804" lon="7.29946">
        <ele>437</ele>
        <time>2018-04-24T10:45:22.000Z</time>
      </trkpt>
      <trkpt lat="43.958" lon="7.29942">
        <ele>437</ele>
        <time>2018-04-24T10:45:23.000Z</time>
      </trkpt>
      <trkpt lat="43.95795" lon="7.29938">
        <ele>437</ele>
        <time>2018-04-24T10:45:24.000Z</time>
      </trkpt>
      <trkpt lat="43.9579" lon="7.29936">
        <ele>436</ele>
        <time>2018-04-24T10:45:25.000Z</time>
      </trkpt>
      <trkpt lat="43.95769" lon="7.29933">
        <ele>435</ele>
        <time>2018-04-24T10:45:29.000Z</time>
      </trkpt>
      <trkpt lat="43.95764" lon="7.29934">
        <ele>435</ele>
        <time>2018-04-24T10:45:30.000Z</time>
      </trkpt>
      <trkpt lat="43.95739" lon="7.29934">
        <ele>424</ele>
        <time>2018-04-24T10:45:35.000Z</time>
      </trkpt>
      <trkpt lat="43.95734" lon="7.29931">
        <ele>423</ele>
        <time>2018-04-24T10:45:36.000Z</time>
      </trkpt>
      <trkpt lat="43.95716" lon="7.29919">
        <ele>419</ele>
        <time>2018-04-24T10:45:40.000Z</time>
      </trkpt>
      <trkpt lat="43.95712" lon="7.29914">
        <ele>434</ele>
        <time>2018-04-24T10:45:41.000Z</time>
      </trkpt>
      <trkpt lat="43.95683" lon="7.29873">
        <ele>436</ele>
        <time>2018-04-24T10:45:49.000Z</time>
      </trkpt>
      <trkpt lat="43.95651" lon="7.2983">
        <ele>447</ele>
        <time>2018-04-24T10:45:56.000Z</time>
      </trkpt>
      <trkpt lat="43.95646" lon="7.29824">
        <ele>448</ele>
        <time>2018-04-24T10:45:57.000Z</time>
      </trkpt>
      <trkpt lat="43.95627" lon="7.29809">
        <ele>450</ele>
        <time>2018-04-24T10:46:00.000Z</time>
      </trkpt>
      <trkpt lat="43.95606" lon="7.29795">
        <ele>450</ele>
        <time>2018-04-24T10:46:03.000Z</time>
      </trkpt>
      <trkpt lat="43.95591" lon="7.29788">
        <ele>450</ele>
        <time>2018-04-24T10:46:05.000Z</time>
      </trkpt>
      <trkpt lat="43.95582" lon="7.29784">
        <ele>434</ele>
        <time>2018-04-24T10:46:06.000Z</time>
      </trkpt>
      <trkpt lat="43.95565" lon="7.29775">
        <ele>435</ele>
        <time>2018-04-24T10:46:08.000Z</time>
      </trkpt>
      <trkpt lat="43.95547" lon="7.2977">
        <ele>433</ele>
        <time>2018-04-24T10:46:10.000Z</time>
      </trkpt>
      <trkpt lat="43.95539" lon="7.29769">
        <ele>432</ele>
        <time>2018-04-24T10:46:11.000Z</time>
      </trkpt>
      <trkpt lat="43.9553" lon="7.2977">
        <ele>431</ele>
        <time>2018-04-24T10:46:12.000Z</time>
      </trkpt>
      <trkpt lat="43.95511" lon="7.29774">
        <ele>429</ele>
        <time>2018-04-24T10:46:14.000Z</time>
      </trkpt>
      <trkpt lat="43.95493" lon="7.29775">
        <ele>426</ele>
        <time>2018-04-24T10:46:16.000Z</time>
      </trkpt>
      <trkpt lat="43.95475" lon="7.29768">
        <ele>425</ele>
        <time>2018-04-24T10:46:18.000Z</time>
      </trkpt>
      <trkpt lat="43.95467" lon="7.29761">
        <ele>424</ele>
        <time>2018-04-24T10:46:19.000Z</time>
      </trkpt>
      <trkpt lat="43.95455" lon="7.29741">
        <ele>427</ele>
        <time>2018-04-24T10:46:21.000Z</time>
      </trkpt>
      <trkpt lat="43.95444" lon="7.29721">
        <ele>427</ele>
        <time>2018-04-24T10:46:23.000Z</time>
      </trkpt>
      <trkpt lat="43.95421" lon="7.29678">
        <ele>423</ele>
        <time>2018-04-24T10:46:27.000Z</time>
      </trkpt>
      <trkpt lat="43.95415" lon="7.29667">
        <ele>417</ele>
        <time>2018-04-24T10:46:28.000Z</time>
      </trkpt>
      <trkpt lat="43.95409" lon="7.29657">
        <ele>421</ele>
        <time>2018-04-24T10:46:29.000Z</time>
      </trkpt>
      <trkpt lat="43.95397" lon="7.29636">
        <ele>427</ele>
        <time>2018-04-24T10:46:31.000Z</time>
      </trkpt>
      <trkpt lat="43.9539" lon="7.29627">
        <ele>428</ele>
        <time>2018-04-24T10:46:32.000Z</time>
      </trkpt>
      <trkpt lat="43.95374" lon="7.29611">
        <ele>429</ele>
        <time>2018-04-24T10:46:34.000Z</time>
      </trkpt>
      <trkpt lat="43.95355" lon="7.29601">
        <ele>427</ele>
        <time>2018-04-24T10:46:36.000Z</time>
      </trkpt>
      <trkpt lat="43.95346" lon="7.29597">
        <ele>426</ele>
        <time>2018-04-24T10:46:37.000Z</time>
      </trkpt>
      <trkpt lat="43.95336" lon="7.29593">
        <ele>425</ele>
        <time>2018-04-24T10:46:38.000Z</time>
      </trkpt>
      <trkpt lat="43.95316" lon="7.29583">
        <ele>425</ele>
        <time>2018-04-24T10:46:40.000Z</time>
      </trkpt>
      <trkpt lat="43.95298" lon="7.2957">
        <ele>423</ele>
        <time>2018-04-24T10:46:42.000Z</time>
      </trkpt>
      <trkpt lat="43.95278" lon="7.29561">
        <ele>420</ele>
        <time>2018-04-24T10:46:44.000Z</time>
      </trkpt>
      <trkpt lat="43.95257" lon="7.29555">
        <ele>417</ele>
        <time>2018-04-24T10:46:46.000Z</time>
      </trkpt>
      <trkpt lat="43.95238" lon="7.29547">
        <ele>400</ele>
        <time>2018-04-24T10:46:48.000Z</time>
      </trkpt>
      <trkpt lat="43.95229" lon="7.2954">
        <ele>400</ele>
        <time>2018-04-24T10:46:49.000Z</time>
      </trkpt>
      <trkpt lat="43.9522" lon="7.29531">
        <ele>400</ele>
        <time>2018-04-24T10:46:50.000Z</time>
      </trkpt>
      <trkpt lat="43.95214" lon="7.2952">
        <ele>400</ele>
        <time>2018-04-24T10:46:51.000Z</time>
      </trkpt>
      <trkpt lat="43.95202" lon="7.29496">
        <ele>409</ele>
        <time>2018-04-24T10:46:53.000Z</time>
      </trkpt>
      <trkpt lat="43.95195" lon="7.29485">
        <ele>408</ele>
        <time>2018-04-24T10:46:54.000Z</time>
      </trkpt>
      <trkpt lat="43.95178" lon="7.29468">
        <ele>408</ele>
        <time>2018-04-24T10:46:56.000Z</time>
      </trkpt>
      <trkpt lat="43.9517" lon="7.29461">
        <ele>409</ele>
        <time>2018-04-24T10:46:57.000Z</time>
      </trkpt>
      <trkpt lat="43.95152" lon="7.29445">
        <ele>397</ele>
        <time>2018-04-24T10:46:59.000Z</time>
      </trkpt>
      <trkpt lat="43.95138" lon="7.29423">
        <ele>397</ele>
        <time>2018-04-24T10:47:01.000Z</time>
      </trkpt>
      <trkpt lat="43.95126" lon="7.29383">
        <ele>402</ele>
        <time>2018-04-24T10:47:04.000Z</time>
      </trkpt>
      <trkpt lat="43.95122" lon="7.2937">
        <ele>402</ele>
        <time>2018-04-24T10:47:05.000Z</time>
      </trkpt>
      <trkpt lat="43.95119" lon="7.29357">
        <ele>401</ele>
        <time>2018-04-24T10:47:06.000Z</time>
      </trkpt>
      <trkpt lat="43.95111" lon="7.2933">
        <ele>405</ele>
        <time>2018-04-24T10:47:08.000Z</time>
      </trkpt>
      <trkpt lat="43.95104" lon="7.29303">
        <ele>407</ele>
        <time>2018-04-24T10:47:10.000Z</time>
      </trkpt>
      <trkpt lat="43.95099" lon="7.2929">
        <ele>408</ele>
        <time>2018-04-24T10:47:11.000Z</time>
      </trkpt>
      <trkpt lat="43.95085" lon="7.2927">
        <ele>407</ele>
        <time>2018-04-24T10:47:13.000Z</time>
      </trkpt>
      <trkpt lat="43.95077" lon="7.29261">
        <ele>398</ele>
        <time>2018-04-24T10:47:14.000Z</time>
      </trkpt>
      <trkpt lat="43.95068" lon="7.29253">
        <ele>398</ele>
        <time>2018-04-24T10:47:15.000Z</time>
      </trkpt>
      <trkpt lat="43.9506" lon="7.29245">
        <ele>400</ele>
        <time>2018-04-24T10:47:16.000Z</time>
      </trkpt>
      <trkpt lat="43.95043" lon="7.29228">
        <ele>399</ele>
        <time>2018-04-24T10:47:18.000Z</time>
      </trkpt>
      <trkpt lat="43.95027" lon="7.2921">
        <ele>398</ele>
        <time>2018-04-24T10:47:20.000Z</time>
      </trkpt>
      <trkpt lat="43.94942" lon="7.2905">
        <ele>376</ele>
        <time>2018-04-24T10:47:34.000Z</time>
      </trkpt>
      <trkpt lat="43.94938" lon="7.29035">
        <ele>375</ele>
        <time>2018-04-24T10:47:35.000Z</time>
      </trkpt>
      <trkpt lat="43.94935" lon="7.29019">
        <ele>374</ele>
        <time>2018-04-24T10:47:36.000Z</time>
      </trkpt>
      <trkpt lat="43.9493" lon="7.28991">
        <ele>373</ele>
        <time>2018-04-24T10:47:38.000Z</time>
      </trkpt>
      <trkpt lat="43.94924" lon="7.28962">
        <ele>377</ele>
        <time>2018-04-24T10:47:40.000Z</time>
      </trkpt>
      <trkpt lat="43.94916" lon="7.2892">
        <ele>371</ele>
        <time>2018-04-24T10:47:43.000Z</time>
      </trkpt>
      <trkpt lat="43.9491" lon="7.28894">
        <ele>369</ele>
        <time>2018-04-24T10:47:45.000Z</time>
      </trkpt>
      <trkpt lat="43.94902" lon="7.28855">
        <ele>371</ele>
        <time>2018-04-24T10:47:48.000Z</time>
      </trkpt>
      <trkpt lat="43.94898" lon="7.28843">
        <ele>371</ele>
        <time>2018-04-24T10:47:49.000Z</time>
      </trkpt>
      <trkpt lat="43.94878" lon="7.28813">
        <ele>374</ele>
        <time>2018-04-24T10:47:52.000Z</time>
      </trkpt>
      <trkpt lat="43.94871" lon="7.28803">
        <ele>374</ele>
        <time>2018-04-24T10:47:53.000Z</time>
      </trkpt>
      <trkpt lat="43.94848" lon="7.28774">
        <ele>373</ele>
        <time>2018-04-24T10:47:56.000Z</time>
      </trkpt>
      <trkpt lat="43.94833" lon="7.28759">
        <ele>365</ele>
        <time>2018-04-24T10:47:58.000Z</time>
      </trkpt>
      <trkpt lat="43.94824" lon="7.28754">
        <ele>365</ele>
        <time>2018-04-24T10:47:59.000Z</time>
      </trkpt>
      <trkpt lat="43.94815" lon="7.28749">
        <ele>367</ele>
        <time>2018-04-24T10:48:00.000Z</time>
      </trkpt>
      <trkpt lat="43.948" lon="7.28739">
        <ele>366</ele>
        <time>2018-04-24T10:48:02.000Z</time>
      </trkpt>
      <trkpt lat="43.94784" lon="7.28724">
        <ele>365</ele>
        <time>2018-04-24T10:48:04.000Z</time>
      </trkpt>
      <trkpt lat="43.94767" lon="7.28696">
        <ele>365</ele>
        <time>2018-04-24T10:48:07.000Z</time>
      </trkpt>
      <trkpt lat="43.94762" lon="7.28685">
        <ele>365</ele>
        <time>2018-04-24T10:48:08.000Z</time>
      </trkpt>
      <trkpt lat="43.94758" lon="7.28674">
        <ele>364</ele>
        <time>2018-04-24T10:48:09.000Z</time>
      </trkpt>
      <trkpt lat="43.9475" lon="7.28652">
        <ele>360</ele>
        <time>2018-04-24T10:48:11.000Z</time>
      </trkpt>
      <trkpt lat="43.94746" lon="7.2864">
        <ele>359</ele>
        <time>2018-04-24T10:48:12.000Z</time>
      </trkpt>
      <trkpt lat="43.94738" lon="7.28618">
        <ele>359</ele>
        <time>2018-04-24T10:48:14.000Z</time>
      </trkpt>
      <trkpt lat="43.94731" lon="7.28595">
        <ele>361</ele>
        <time>2018-04-24T10:48:16.000Z</time>
      </trkpt>
      <trkpt lat="43.94727" lon="7.28584">
        <ele>360</ele>
        <time>2018-04-24T10:48:17.000Z</time>
      </trkpt>
      <trkpt lat="43.94723" lon="7.28572">
        <ele>362</ele>
        <time>2018-04-24T10:48:18.000Z</time>
      </trkpt>
      <trkpt lat="43.94716" lon="7.2855">
        <ele>362</ele>
        <time>2018-04-24T10:48:20.000Z</time>
      </trkpt>
      <trkpt lat="43.94712" lon="7.28538">
        <ele>361</ele>
        <time>2018-04-24T10:48:21.000Z</time>
      </trkpt>
      <trkpt lat="43.94702" lon="7.28517">
        <ele>360</ele>
        <time>2018-04-24T10:48:23.000Z</time>
      </trkpt>
      <trkpt lat="43.94696" lon="7.28505">
        <ele>359</ele>
        <time>2018-04-24T10:48:24.000Z</time>
      </trkpt>
      <trkpt lat="43.9469" lon="7.28496">
        <ele>363</ele>
        <time>2018-04-24T10:48:25.000Z</time>
      </trkpt>
      <trkpt lat="43.94659" lon="7.28463">
        <ele>353</ele>
        <time>2018-04-24T10:48:29.000Z</time>
      </trkpt>
      <trkpt lat="43.94642" lon="7.28452">
        <ele>353</ele>
        <time>2018-04-24T10:48:31.000Z</time>
      </trkpt>
      <trkpt lat="43.94624" lon="7.28443">
        <ele>352</ele>
        <time>2018-04-24T10:48:33.000Z</time>
      </trkpt>
      <trkpt lat="43.94607" lon="7.28434">
        <ele>351</ele>
        <time>2018-04-24T10:48:35.000Z</time>
      </trkpt>
      <trkpt lat="43.94557" lon="7.2841">
        <ele>351</ele>
        <time>2018-04-24T10:48:41.000Z</time>
      </trkpt>
      <trkpt lat="43.94499" lon="7.28384">
        <ele>347</ele>
        <time>2018-04-24T10:48:48.000Z</time>
      </trkpt>
      <trkpt lat="43.9445" lon="7.28363">
        <ele>346</ele>
        <time>2018-04-24T10:48:54.000Z</time>
      </trkpt>
      <trkpt lat="43.94427" lon="7.28352">
        <ele>345</ele>
        <time>2018-04-24T10:48:57.000Z</time>
      </trkpt>
      <trkpt lat="43.94374" lon="7.28321">
        <ele>347</ele>
        <time>2018-04-24T10:49:04.000Z</time>
      </trkpt>
      <trkpt lat="43.94359" lon="7.28313">
        <ele>347</ele>
        <time>2018-04-24T10:49:06.000Z</time>
      </trkpt>
      <trkpt lat="43.94306" lon="7.28287">
        <ele>344</ele>
        <time>2018-04-24T10:49:13.000Z</time>
      </trkpt>
      <trkpt lat="43.94282" lon="7.28281">
        <ele>344</ele>
        <time>2018-04-24T10:49:16.000Z</time>
      </trkpt>
      <trkpt lat="43.94259" lon="7.28279">
        <ele>344</ele>
        <time>2018-04-24T10:49:19.000Z</time>
      </trkpt>
      <trkpt lat="43.94252" lon="7.28281">
        <ele>344</ele>
        <time>2018-04-24T10:49:20.000Z</time>
      </trkpt>
      <trkpt lat="43.94239" lon="7.28284">
        <ele>342</ele>
        <time>2018-04-24T10:49:22.000Z</time>
      </trkpt>
      <trkpt lat="43.94232" lon="7.28287">
        <ele>341</ele>
        <time>2018-04-24T10:49:23.000Z</time>
      </trkpt>
      <trkpt lat="43.94205" lon="7.28307">
        <ele>341</ele>
        <time>2018-04-24T10:49:28.000Z</time>
      </trkpt>
      <trkpt lat="43.94174" lon="7.28331">
        <ele>339</ele>
        <time>2018-04-24T10:49:34.000Z</time>
      </trkpt>
      <trkpt lat="43.94158" lon="7.28344">
        <ele>343</ele>
        <time>2018-04-24T10:49:37.000Z</time>
      </trkpt>
      <trkpt lat="43.94143" lon="7.28356">
        <ele>346</ele>
        <time>2018-04-24T10:49:40.000Z</time>
      </trkpt>
      <trkpt lat="43.94125" lon="7.28362">
        <ele>346</ele>
        <time>2018-04-24T10:49:43.000Z</time>
      </trkpt>
      <trkpt lat="43.94085" lon="7.28373">
        <ele>347</ele>
        <time>2018-04-24T10:49:50.000Z</time>
      </trkpt>
      <trkpt lat="43.94073" lon="7.28376">
        <ele>349</ele>
        <time>2018-04-24T10:49:52.000Z</time>
      </trkpt>
      <trkpt lat="43.9404" lon="7.28384">
        <ele>350</ele>
        <time>2018-04-24T10:49:57.000Z</time>
      </trkpt>
      <trkpt lat="43.94026" lon="7.28384">
        <ele>351</ele>
        <time>2018-04-24T10:49:59.000Z</time>
      </trkpt>
      <trkpt lat="43.94012" lon="7.28383">
        <ele>351</ele>
        <time>2018-04-24T10:50:01.000Z</time>
      </trkpt>
      <trkpt lat="43.93999" lon="7.28379">
        <ele>357</ele>
        <time>2018-04-24T10:50:03.000Z</time>
      </trkpt>
      <trkpt lat="43.93959" lon="7.28361">
        <ele>357</ele>
        <time>2018-04-24T10:50:09.000Z</time>
      </trkpt>
      <trkpt lat="43.93953" lon="7.28357">
        <ele>358</ele>
        <time>2018-04-24T10:50:10.000Z</time>
      </trkpt>
      <trkpt lat="43.93941" lon="7.28347">
        <ele>358</ele>
        <time>2018-04-24T10:50:12.000Z</time>
      </trkpt>
      <trkpt lat="43.93931" lon="7.28333">
        <ele>350</ele>
        <time>2018-04-24T10:50:14.000Z</time>
      </trkpt>
      <trkpt lat="43.93897" lon="7.28273">
        <ele>351</ele>
        <time>2018-04-24T10:50:22.000Z</time>
      </trkpt>
      <trkpt lat="43.93861" lon="7.28211">
        <ele>345</ele>
        <time>2018-04-24T10:50:30.000Z</time>
      </trkpt>
      <trkpt lat="43.93853" lon="7.28197">
        <ele>345</ele>
        <time>2018-04-24T10:50:32.000Z</time>
      </trkpt>
      <trkpt lat="43.93823" lon="7.28144">
        <ele>357</ele>
        <time>2018-04-24T10:50:39.000Z</time>
      </trkpt>
      <trkpt lat="43.93818" lon="7.28127">
        <ele>359</ele>
        <time>2018-04-24T10:50:41.000Z</time>
      </trkpt>
      <trkpt lat="43.9381" lon="7.28079">
        <ele>356</ele>
        <time>2018-04-24T10:50:46.000Z</time>
      </trkpt>
      <trkpt lat="43.93811" lon="7.28033">
        <ele>359</ele>
        <time>2018-04-24T10:50:51.000Z</time>
      </trkpt>
      <trkpt lat="43.93806" lon="7.27995">
        <ele>359</ele>
        <time>2018-04-24T10:50:56.000Z</time>
      </trkpt>
      <trkpt lat="43.93805" lon="7.27979">
        <ele>361</ele>
        <time>2018-04-24T10:50:58.000Z</time>
      </trkpt>
      <trkpt lat="43.93802" lon="7.27962">
        <ele>363</ele>
        <time>2018-04-24T10:51:00.000Z</time>
      </trkpt>
      <trkpt lat="43.93799" lon="7.27946">
        <ele>364</ele>
        <time>2018-04-24T10:51:02.000Z</time>
      </trkpt>
      <trkpt lat="43.93797" lon="7.27928">
        <ele>364</ele>
        <time>2018-04-24T10:51:04.000Z</time>
      </trkpt>
      <trkpt lat="43.93793" lon="7.27893">
        <ele>362</ele>
        <time>2018-04-24T10:51:08.000Z</time>
      </trkpt>
      <trkpt lat="43.93794" lon="7.27871">
        <ele>361</ele>
        <time>2018-04-24T10:51:10.000Z</time>
      </trkpt>
      <trkpt lat="43.93791" lon="7.27851">
        <ele>360</ele>
        <time>2018-04-24T10:51:12.000Z</time>
      </trkpt>
      <trkpt lat="43.93783" lon="7.27809">
        <ele>354</ele>
        <time>2018-04-24T10:51:16.000Z</time>
      </trkpt>
      <trkpt lat="43.93778" lon="7.27789">
        <ele>353</ele>
        <time>2018-04-24T10:51:18.000Z</time>
      </trkpt>
      <trkpt lat="43.93776" lon="7.27781">
        <ele>353</ele>
        <time>2018-04-24T10:51:19.000Z</time>
      </trkpt>
      <trkpt lat="43.93766" lon="7.27743">
        <ele>349</ele>
        <time>2018-04-24T10:51:23.000Z</time>
      </trkpt>
      <trkpt lat="43.93763" lon="7.27733">
        <ele>347</ele>
        <time>2018-04-24T10:51:24.000Z</time>
      </trkpt>
      <trkpt lat="43.9376" lon="7.27713">
        <ele>343</ele>
        <time>2018-04-24T10:51:26.000Z</time>
      </trkpt>
      <trkpt lat="43.93757" lon="7.27704">
        <ele>342</ele>
        <time>2018-04-24T10:51:27.000Z</time>
      </trkpt>
      <trkpt lat="43.93747" lon="7.27668">
        <ele>346</ele>
        <time>2018-04-24T10:51:31.000Z</time>
      </trkpt>
      <trkpt lat="43.93742" lon="7.27651">
        <ele>348</ele>
        <time>2018-04-24T10:51:33.000Z</time>
      </trkpt>
      <trkpt lat="43.93725" lon="7.27586">
        <ele>345</ele>
        <time>2018-04-24T10:51:40.000Z</time>
      </trkpt>
      <trkpt lat="43.93722" lon="7.27578">
        <ele>338</ele>
        <time>2018-04-24T10:51:41.000Z</time>
      </trkpt>
      <trkpt lat="43.93698" lon="7.27528">
        <ele>341</ele>
        <time>2018-04-24T10:51:47.000Z</time>
      </trkpt>
      <trkpt lat="43.93665" lon="7.27472">
        <ele>352</ele>
        <time>2018-04-24T10:51:54.000Z</time>
      </trkpt>
      <trkpt lat="43.93654" lon="7.27457">
        <ele>352</ele>
        <time>2018-04-24T10:51:56.000Z</time>
      </trkpt>
      <trkpt lat="43.93645" lon="7.27441">
        <ele>351</ele>
        <time>2018-04-24T10:51:58.000Z</time>
      </trkpt>
      <trkpt lat="43.93637" lon="7.27423">
        <ele>351</ele>
        <time>2018-04-24T10:52:00.000Z</time>
      </trkpt>
      <trkpt lat="43.93628" lon="7.27395">
        <ele>345</ele>
        <time>2018-04-24T10:52:03.000Z</time>
      </trkpt>
      <trkpt lat="43.93626" lon="7.27385">
        <ele>345</ele>
        <time>2018-04-24T10:52:04.000Z</time>
      </trkpt>
      <trkpt lat="43.9362" lon="7.27366">
        <ele>345</ele>
        <time>2018-04-24T10:52:06.000Z</time>
      </trkpt>
      <trkpt lat="43.93613" lon="7.27338">
        <ele>346</ele>
        <time>2018-04-24T10:52:09.000Z</time>
      </trkpt>
      <trkpt lat="43.9361" lon="7.27328">
        <ele>341</ele>
        <time>2018-04-24T10:52:10.000Z</time>
      </trkpt>
      <trkpt lat="43.93603" lon="7.27297">
        <ele>340</ele>
        <time>2018-04-24T10:52:13.000Z</time>
      </trkpt>
      <trkpt lat="43.93602" lon="7.27287">
        <ele>340</ele>
        <time>2018-04-24T10:52:14.000Z</time>
      </trkpt>
      <trkpt lat="43.93601" lon="7.27245">
        <ele>342</ele>
        <time>2018-04-24T10:52:18.000Z</time>
      </trkpt>
      <trkpt lat="43.93599" lon="7.27236">
        <ele>342</ele>
        <time>2018-04-24T10:52:19.000Z</time>
      </trkpt>
      <trkpt lat="43.93598" lon="7.27227">
        <ele>341</ele>
        <time>2018-04-24T10:52:20.000Z</time>
      </trkpt>
      <trkpt lat="43.93597" lon="7.2721">
        <ele>340</ele>
        <time>2018-04-24T10:52:22.000Z</time>
      </trkpt>
      <trkpt lat="43.93589" lon="7.27196">
        <ele>341</ele>
        <time>2018-04-24T10:52:24.000Z</time>
      </trkpt>
      <trkpt lat="43.93586" lon="7.27189">
        <ele>342</ele>
        <time>2018-04-24T10:52:25.000Z</time>
      </trkpt>
      <trkpt lat="43.93573" lon="7.27152">
        <ele>368</ele>
        <time>2018-04-24T10:52:30.000Z</time>
      </trkpt>
      <trkpt lat="43.93574" lon="7.27134">
        <ele>373</ele>
        <time>2018-04-24T10:52:32.000Z</time>
      </trkpt>
      <trkpt lat="43.93575" lon="7.27116">
        <ele>372</ele>
        <time>2018-04-24T10:52:34.000Z</time>
      </trkpt>
      <trkpt lat="43.93579" lon="7.27105">
        <ele>366</ele>
        <time>2018-04-24T10:52:35.000Z</time>
      </trkpt>
      <trkpt lat="43.93584" lon="7.27083">
        <ele>341</ele>
        <time>2018-04-24T10:52:37.000Z</time>
      </trkpt>
      <trkpt lat="43.93586" lon="7.27065">
        <ele>351</ele>
        <time>2018-04-24T10:52:39.000Z</time>
      </trkpt>
      <trkpt lat="43.93585" lon="7.27049">
        <ele>356</ele>
        <time>2018-04-24T10:52:41.000Z</time>
      </trkpt>
      <trkpt lat="43.93584" lon="7.27041">
        <ele>357</ele>
        <time>2018-04-24T10:52:42.000Z</time>
      </trkpt>
      <trkpt lat="43.93581" lon="7.27035">
        <ele>371</ele>
        <time>2018-04-24T10:52:43.000Z</time>
      </trkpt>
      <trkpt lat="43.93576" lon="7.27022">
        <ele>370</ele>
        <time>2018-04-24T10:52:45.000Z</time>
      </trkpt>
      <trkpt lat="43.93574" lon="7.27008">
        <ele>367</ele>
        <time>2018-04-24T10:52:47.000Z</time>
      </trkpt>
      <trkpt lat="43.93573" lon="7.26982">
        <ele>370</ele>
        <time>2018-04-24T10:52:50.000Z</time>
      </trkpt>
      <trkpt lat="43.93571" lon="7.26954">
        <ele>374</ele>
        <time>2018-04-24T10:52:53.000Z</time>
      </trkpt>
      <trkpt lat="43.93562" lon="7.26879">
        <ele>377</ele>
        <time>2018-04-24T10:53:01.000Z</time>
      </trkpt>
      <trkpt lat="43.93558" lon="7.26867">
        <ele>378</ele>
        <time>2018-04-24T10:53:03.000Z</time>
      </trkpt>
      <trkpt lat="43.93554" lon="7.26856">
        <ele>378</ele>
        <time>2018-04-24T10:53:05.000Z</time>
      </trkpt>
      <trkpt lat="43.93545" lon="7.2684">
        <ele>378</ele>
        <time>2018-04-24T10:53:08.000Z</time>
      </trkpt>
      <trkpt lat="43.93542" lon="7.26835">
        <ele>379</ele>
        <time>2018-04-24T10:53:09.000Z</time>
      </trkpt>
      <trkpt lat="43.93541" lon="7.2683">
        <ele>381</ele>
        <time>2018-04-24T10:53:10.000Z</time>
      </trkpt>
      <trkpt lat="43.93537" lon="7.26814">
        <ele>381</ele>
        <time>2018-04-24T10:53:13.000Z</time>
      </trkpt>
      <trkpt lat="43.93535" lon="7.26807">
        <ele>381</ele>
        <time>2018-04-24T10:53:14.000Z</time>
      </trkpt>
      <trkpt lat="43.93533" lon="7.268">
        <ele>381</ele>
        <time>2018-04-24T10:53:15.000Z</time>
      </trkpt>
      <trkpt lat="43.93532" lon="7.2679">
        <ele>381</ele>
        <time>2018-04-24T10:53:16.000Z</time>
      </trkpt>
      <trkpt lat="43.93532" lon="7.2678">
        <ele>381</ele>
        <time>2018-04-24T10:53:17.000Z</time>
      </trkpt>
      <trkpt lat="43.93527" lon="7.2675">
        <ele>378</ele>
        <time>2018-04-24T10:53:20.000Z</time>
      </trkpt>
      <trkpt lat="43.93525" lon="7.26739">
        <ele>378</ele>
        <time>2018-04-24T10:53:21.000Z</time>
      </trkpt>
      <trkpt lat="43.93524" lon="7.26728">
        <ele>378</ele>
        <time>2018-04-24T10:53:22.000Z</time>
      </trkpt>
      <trkpt lat="43.93521" lon="7.26705">
        <ele>376</ele>
        <time>2018-04-24T10:53:24.000Z</time>
      </trkpt>
      <trkpt lat="43.93515" lon="7.26672">
        <ele>368</ele>
        <time>2018-04-24T10:53:27.000Z</time>
      </trkpt>
      <trkpt lat="43.93518" lon="7.26646">
        <ele>365</ele>
        <time>2018-04-24T10:53:29.000Z</time>
      </trkpt>
      <trkpt lat="43.93517" lon="7.26634">
        <ele>365</ele>
        <time>2018-04-24T10:53:30.000Z</time>
      </trkpt>
      <trkpt lat="43.93514" lon="7.26612">
        <ele>361</ele>
        <time>2018-04-24T10:53:32.000Z</time>
      </trkpt>
      <trkpt lat="43.93516" lon="7.26586">
        <ele>354</ele>
        <time>2018-04-24T10:53:34.000Z</time>
      </trkpt>
      <trkpt lat="43.93517" lon="7.26524">
        <ele>355</ele>
        <time>2018-04-24T10:53:39.000Z</time>
      </trkpt>
      <trkpt lat="43.93511" lon="7.26514">
        <ele>349</ele>
        <time>2018-04-24T10:53:40.000Z</time>
      </trkpt>
      <trkpt lat="43.93504" lon="7.26506">
        <ele>340</ele>
        <time>2018-04-24T10:53:41.000Z</time>
      </trkpt>
      <trkpt lat="43.93496" lon="7.26499">
        <ele>336</ele>
        <time>2018-04-24T10:53:42.000Z</time>
      </trkpt>
      <trkpt lat="43.93467" lon="7.26481">
        <ele>347</ele>
        <time>2018-04-24T10:53:45.000Z</time>
      </trkpt>
      <trkpt lat="43.93457" lon="7.26476">
        <ele>349</ele>
        <time>2018-04-24T10:53:46.000Z</time>
      </trkpt>
      <trkpt lat="43.93427" lon="7.26467">
        <ele>350</ele>
        <time>2018-04-24T10:53:49.000Z</time>
      </trkpt>
      <trkpt lat="43.93419" lon="7.26467">
        <ele>350</ele>
        <time>2018-04-24T10:53:50.000Z</time>
      </trkpt>
      <trkpt lat="43.9341" lon="7.26468">
        <ele>354</ele>
        <time>2018-04-24T10:53:51.000Z</time>
      </trkpt>
      <trkpt lat="43.93394" lon="7.2647">
        <ele>356</ele>
        <time>2018-04-24T10:53:53.000Z</time>
      </trkpt>
      <trkpt lat="43.93386" lon="7.26471">
        <ele>357</ele>
        <time>2018-04-24T10:53:54.000Z</time>
      </trkpt>
      <trkpt lat="43.93206" lon="7.26615">
        <ele>351</ele>
        <time>2018-04-24T10:54:23.000Z</time>
      </trkpt>
      <trkpt lat="43.93194" lon="7.26614">
        <ele>351</ele>
        <time>2018-04-24T10:54:25.000Z</time>
      </trkpt>
      <trkpt lat="43.93083" lon="7.26588">
        <ele>318</ele>
        <time>2018-04-24T10:54:49.000Z</time>
      </trkpt>
      <trkpt lat="43.93079" lon="7.26586">
        <ele>315</ele>
        <time>2018-04-24T10:54:50.000Z</time>
      </trkpt>
      <trkpt lat="43.93072" lon="7.26583">
        <ele>322</ele>
        <time>2018-04-24T10:54:52.000Z</time>
      </trkpt>
      <trkpt lat="43.93052" lon="7.26578">
        <ele>327</ele>
        <time>2018-04-24T10:54:57.000Z</time>
      </trkpt>
      <trkpt lat="43.93025" lon="7.26577">
        <ele>328</ele>
        <time>2018-04-24T10:55:04.000Z</time>
      </trkpt>
      <trkpt lat="43.93021" lon="7.26578">
        <ele>327</ele>
        <time>2018-04-24T10:55:05.000Z</time>
      </trkpt>
      <trkpt lat="43.92989" lon="7.26587">
        <ele>319</ele>
        <time>2018-04-24T10:55:13.000Z</time>
      </trkpt>
      <trkpt lat="43.92847" lon="7.2662">
        <ele>332</ele>
        <time>2018-04-24T10:55:49.000Z</time>
      </trkpt>
      <trkpt lat="43.92842" lon="7.2662">
        <ele>332</ele>
        <time>2018-04-24T10:55:50.000Z</time>
      </trkpt>
      <trkpt lat="43.92797" lon="7.26612">
        <ele>343</ele>
        <time>2018-04-24T10:55:59.000Z</time>
      </trkpt>
      <trkpt lat="43.92746" lon="7.26598">
        <ele>345</ele>
        <time>2018-04-24T10:56:08.000Z</time>
      </trkpt>
      <trkpt lat="43.92722" lon="7.26585">
        <ele>351</ele>
        <time>2018-04-24T10:56:12.000Z</time>
      </trkpt>
      <trkpt lat="43.92716" lon="7.26581">
        <ele>329</ele>
        <time>2018-04-24T10:56:13.000Z</time>
      </trkpt>
      <trkpt lat="43.92705" lon="7.26571">
        <ele>329</ele>
        <time>2018-04-24T10:56:15.000Z</time>
      </trkpt>
      <trkpt lat="43.92692" lon="7.26552">
        <ele>327</ele>
        <time>2018-04-24T10:56:18.000Z</time>
      </trkpt>
      <trkpt lat="43.92682" lon="7.2654">
        <ele>323</ele>
        <time>2018-04-24T10:56:20.000Z</time>
      </trkpt>
      <trkpt lat="43.92671" lon="7.2653">
        <ele>319</ele>
        <time>2018-04-24T10:56:22.000Z</time>
      </trkpt>
      <trkpt lat="43.92665" lon="7.26525">
        <ele>322</ele>
        <time>2018-04-24T10:56:23.000Z</time>
      </trkpt>
      <trkpt lat="43.92645" lon="7.26511">
        <ele>320</ele>
        <time>2018-04-24T10:56:26.000Z</time>
      </trkpt>
      <trkpt lat="43.92625" lon="7.26494">
        <ele>304</ele>
        <time>2018-04-24T10:56:29.000Z</time>
      </trkpt>
      <trkpt lat="43.92618" lon="7.26487">
        <ele>304</ele>
        <time>2018-04-24T10:56:30.000Z</time>
      </trkpt>
      <trkpt lat="43.92607" lon="7.26472">
        <ele>304</ele>
        <time>2018-04-24T10:56:32.000Z</time>
      </trkpt>
      <trkpt lat="43.92596" lon="7.26455">
        <ele>302</ele>
        <time>2018-04-24T10:56:34.000Z</time>
      </trkpt>
      <trkpt lat="43.92587" lon="7.26439">
        <ele>299</ele>
        <time>2018-04-24T10:56:36.000Z</time>
      </trkpt>
      <trkpt lat="43.92582" lon="7.26432">
        <ele>297</ele>
        <time>2018-04-24T10:56:37.000Z</time>
      </trkpt>
      <trkpt lat="43.92576" lon="7.26426">
        <ele>296</ele>
        <time>2018-04-24T10:56:38.000Z</time>
      </trkpt>
      <trkpt lat="43.92569" lon="7.26422">
        <ele>297</ele>
        <time>2018-04-24T10:56:39.000Z</time>
      </trkpt>
      <trkpt lat="43.92561" lon="7.26421">
        <ele>298</ele>
        <time>2018-04-24T10:56:40.000Z</time>
      </trkpt>
      <trkpt lat="43.92538" lon="7.26431">
        <ele>299</ele>
        <time>2018-04-24T10:56:43.000Z</time>
      </trkpt>
      <trkpt lat="43.9253" lon="7.26435">
        <ele>299</ele>
        <time>2018-04-24T10:56:44.000Z</time>
      </trkpt>
      <trkpt lat="43.92496" lon="7.26451">
        <ele>304</ele>
        <time>2018-04-24T10:56:48.000Z</time>
      </trkpt>
      <trkpt lat="43.92487" lon="7.26453">
        <ele>305</ele>
        <time>2018-04-24T10:56:49.000Z</time>
      </trkpt>
      <trkpt lat="43.92478" lon="7.26452">
        <ele>306</ele>
        <time>2018-04-24T10:56:50.000Z</time>
      </trkpt>
      <trkpt lat="43.92461" lon="7.26446">
        <ele>306</ele>
        <time>2018-04-24T10:56:52.000Z</time>
      </trkpt>
      <trkpt lat="43.92436" lon="7.26427">
        <ele>302</ele>
        <time>2018-04-24T10:56:55.000Z</time>
      </trkpt>
      <trkpt lat="43.92428" lon="7.26419">
        <ele>299</ele>
        <time>2018-04-24T10:56:56.000Z</time>
      </trkpt>
      <trkpt lat="43.92413" lon="7.26405">
        <ele>295</ele>
        <time>2018-04-24T10:56:58.000Z</time>
      </trkpt>
      <trkpt lat="43.92385" lon="7.26396">
        <ele>295</ele>
        <time>2018-04-24T10:57:01.000Z</time>
      </trkpt>
      <trkpt lat="43.92377" lon="7.26395">
        <ele>294</ele>
        <time>2018-04-24T10:57:02.000Z</time>
      </trkpt>
      <trkpt lat="43.92352" lon="7.2641">
        <ele>292</ele>
        <time>2018-04-24T10:57:05.000Z</time>
      </trkpt>
      <trkpt lat="43.92342" lon="7.26428">
        <ele>301</ele>
        <time>2018-04-24T10:57:07.000Z</time>
      </trkpt>
      <trkpt lat="43.92337" lon="7.26438">
        <ele>305</ele>
        <time>2018-04-24T10:57:08.000Z</time>
      </trkpt>
      <trkpt lat="43.92285" lon="7.26496">
        <ele>316</ele>
        <time>2018-04-24T10:57:18.000Z</time>
      </trkpt>
      <trkpt lat="43.92275" lon="7.26496">
        <ele>316</ele>
        <time>2018-04-24T10:57:21.000Z</time>
      </trkpt>
      <trkpt lat="43.92276" lon="7.26496">
        <ele>316</ele>
        <time>2018-04-24T10:57:22.000Z</time>
      </trkpt>
      <trkpt lat="43.92277" lon="7.26498">
        <ele>316</ele>
        <time>2018-04-24T10:57:23.000Z</time>
      </trkpt>
      <trkpt lat="43.92278" lon="7.265">
        <ele>316</ele>
        <time>2018-04-24T10:57:24.000Z</time>
      </trkpt>
      <trkpt lat="43.92289" lon="7.26497">
        <ele>317</ele>
        <time>2018-04-24T10:57:27.000Z</time>
      </trkpt>
      <trkpt lat="43.92309" lon="7.26488">
        <ele>320</ele>
        <time>2018-04-24T10:57:31.000Z</time>
      </trkpt>
      <trkpt lat="43.92313" lon="7.26483">
        <ele>320</ele>
        <time>2018-04-24T10:57:32.000Z</time>
      </trkpt>
      <trkpt lat="43.92326" lon="7.26463">
        <ele>314</ele>
        <time>2018-04-24T10:57:35.000Z</time>
      </trkpt>
      <trkpt lat="43.92329" lon="7.26456">
        <ele>311</ele>
        <time>2018-04-24T10:57:36.000Z</time>
      </trkpt>
      <trkpt lat="43.92335" lon="7.26436">
        <ele>304</ele>
        <time>2018-04-24T10:57:40.000Z</time>
      </trkpt>
      <trkpt lat="43.92334" lon="7.26435">
        <ele>303</ele>
        <time>2018-04-24T10:57:43.000Z</time>
      </trkpt>
      <trkpt lat="43.92333" lon="7.26437">
        <ele>302</ele>
        <time>2018-04-24T10:57:45.000Z</time>
      </trkpt>
      <trkpt lat="43.92331" lon="7.26442">
        <ele>304</ele>
        <time>2018-04-24T10:57:49.000Z</time>
      </trkpt>
      <trkpt lat="43.92327" lon="7.26453">
        <ele>309</ele>
        <time>2018-04-24T10:58:04.000Z</time>
      </trkpt>
      <trkpt lat="43.92326" lon="7.26456">
        <ele>311</ele>
        <time>2018-04-24T10:58:10.000Z</time>
      </trkpt>
      <trkpt lat="43.92326" lon="7.26462">
        <ele>313</ele>
        <time>2018-04-24T10:58:17.000Z</time>
      </trkpt>
      <trkpt lat="43.92326" lon="7.26468">
        <ele>316</ele>
        <time>2018-04-24T10:58:31.000Z</time>
      </trkpt>
      <trkpt lat="43.92325" lon="7.26466">
        <ele>315</ele>
        <time>2018-04-24T10:58:43.000Z</time>
      </trkpt>
      <trkpt lat="43.92323" lon="7.26465">
        <ele>314</ele>
        <time>2018-04-24T10:58:52.000Z</time>
      </trkpt>
      <trkpt lat="43.92322" lon="7.26462">
        <ele>313</ele>
        <time>2018-04-24T10:58:59.000Z</time>
      </trkpt>
      <trkpt lat="43.92322" lon="7.26463">
        <ele>313</ele>
        <time>2018-04-24T10:59:00.000Z</time>
      </trkpt>
      <trkpt lat="43.92319" lon="7.26469">
        <ele>316</ele>
        <time>2018-04-24T10:59:03.000Z</time>
      </trkpt>
      <trkpt lat="43.92312" lon="7.26483">
        <ele>319</ele>
        <time>2018-04-24T10:59:08.000Z</time>
      </trkpt>
      <trkpt lat="43.92301" lon="7.26496">
        <ele>319</ele>
        <time>2018-04-24T10:59:13.000Z</time>
      </trkpt>
      <trkpt lat="43.92299" lon="7.26498">
        <ele>319</ele>
        <time>2018-04-24T10:59:14.000Z</time>
      </trkpt>
      <trkpt lat="43.92282" lon="7.26503">
        <ele>342</ele>
        <time>2018-04-24T10:59:19.000Z</time>
      </trkpt>
      <trkpt lat="43.92278" lon="7.26503">
        <ele>341</ele>
        <time>2018-04-24T10:59:20.000Z</time>
      </trkpt>
      <trkpt lat="43.92266" lon="7.26501">
        <ele>334</ele>
        <time>2018-04-24T10:59:23.000Z</time>
      </trkpt>
      <trkpt lat="43.92257" lon="7.26498">
        <ele>317</ele>
        <time>2018-04-24T10:59:25.000Z</time>
      </trkpt>
      <trkpt lat="43.92239" lon="7.26494">
        <ele>313</ele>
        <time>2018-04-24T10:59:29.000Z</time>
      </trkpt>
      <trkpt lat="43.92219" lon="7.2649">
        <ele>308</ele>
        <time>2018-04-24T10:59:33.000Z</time>
      </trkpt>
      <trkpt lat="43.92191" lon="7.26486">
        <ele>305</ele>
        <time>2018-04-24T10:59:39.000Z</time>
      </trkpt>
      <trkpt lat="43.92187" lon="7.26486">
        <ele>305</ele>
        <time>2018-04-24T10:59:40.000Z</time>
      </trkpt>
      <trkpt lat="43.92144" lon="7.26498">
        <ele>301</ele>
        <time>2018-04-24T10:59:54.000Z</time>
      </trkpt>
      <trkpt lat="43.92138" lon="7.26499">
        <ele>301</ele>
        <time>2018-04-24T10:59:56.000Z</time>
      </trkpt>
      <trkpt lat="43.92123" lon="7.26501">
        <ele>317</ele>
        <time>2018-04-24T11:00:01.000Z</time>
      </trkpt>
      <trkpt lat="43.92108" lon="7.265">
        <ele>314</ele>
        <time>2018-04-24T11:00:06.000Z</time>
      </trkpt>
      <trkpt lat="43.92105" lon="7.26501">
        <ele>313</ele>
        <time>2018-04-24T11:00:07.000Z</time>
      </trkpt>
      <trkpt lat="43.9208" lon="7.26502">
        <ele>303</ele>
        <time>2018-04-24T11:00:13.000Z</time>
      </trkpt>
      <trkpt lat="43.92075" lon="7.26501">
        <ele>305</ele>
        <time>2018-04-24T11:00:14.000Z</time>
      </trkpt>
      <trkpt lat="43.92067" lon="7.265">
        <ele>307</ele>
        <time>2018-04-24T11:00:16.000Z</time>
      </trkpt>
      <trkpt lat="43.92059" lon="7.26498">
        <ele>297</ele>
        <time>2018-04-24T11:00:18.000Z</time>
      </trkpt>
      <trkpt lat="43.92055" lon="7.26497">
        <ele>297</ele>
        <time>2018-04-24T11:00:19.000Z</time>
      </trkpt>
      <trkpt lat="43.92041" lon="7.26494">
        <ele>296</ele>
        <time>2018-04-24T11:00:23.000Z</time>
      </trkpt>
      <trkpt lat="43.9203" lon="7.26493">
        <ele>296</ele>
        <time>2018-04-24T11:00:26.000Z</time>
      </trkpt>
      <trkpt lat="43.92007" lon="7.2649">
        <ele>298</ele>
        <time>2018-04-24T11:00:32.000Z</time>
      </trkpt>
      <trkpt lat="43.92004" lon="7.26488">
        <ele>297</ele>
        <time>2018-04-24T11:00:33.000Z</time>
      </trkpt>
      <trkpt lat="43.91988" lon="7.26477">
        <ele>292</ele>
        <time>2018-04-24T11:00:38.000Z</time>
      </trkpt>
      <trkpt lat="43.9198" lon="7.26478">
        <ele>291</ele>
        <time>2018-04-24T11:00:41.000Z</time>
      </trkpt>
      <trkpt lat="43.91968" lon="7.26495">
        <ele>291</ele>
        <time>2018-04-24T11:00:45.000Z</time>
      </trkpt>
      <trkpt lat="43.91945" lon="7.26539">
        <ele>301</ele>
        <time>2018-04-24T11:00:53.000Z</time>
      </trkpt>
      <trkpt lat="43.91925" lon="7.26557">
        <ele>304</ele>
        <time>2018-04-24T11:00:57.000Z</time>
      </trkpt>
      <trkpt lat="43.91913" lon="7.26563">
        <ele>300</ele>
        <time>2018-04-24T11:00:59.000Z</time>
      </trkpt>
      <trkpt lat="43.91907" lon="7.26566">
        <ele>300</ele>
        <time>2018-04-24T11:01:00.000Z</time>
      </trkpt>
      <trkpt lat="43.91895" lon="7.26573">
        <ele>300</ele>
        <time>2018-04-24T11:01:02.000Z</time>
      </trkpt>
      <trkpt lat="43.91888" lon="7.26576">
        <ele>299</ele>
        <time>2018-04-24T11:01:03.000Z</time>
      </trkpt>
      <trkpt lat="43.91867" lon="7.26579">
        <ele>298</ele>
        <time>2018-04-24T11:01:06.000Z</time>
      </trkpt>
      <trkpt lat="43.91847" lon="7.26582">
        <ele>300</ele>
        <time>2018-04-24T11:01:09.000Z</time>
      </trkpt>
      <trkpt lat="43.91819" lon="7.26581">
        <ele>301</ele>
        <time>2018-04-24T11:01:13.000Z</time>
      </trkpt>
      <trkpt lat="43.91784" lon="7.2657">
        <ele>302</ele>
        <time>2018-04-24T11:01:19.000Z</time>
      </trkpt>
      <trkpt lat="43.91744" lon="7.26561">
        <ele>314</ele>
        <time>2018-04-24T11:01:26.000Z</time>
      </trkpt>
      <trkpt lat="43.91711" lon="7.26539">
        <ele>311</ele>
        <time>2018-04-24T11:01:32.000Z</time>
      </trkpt>
      <trkpt lat="43.91666" lon="7.26512">
        <ele>317</ele>
        <time>2018-04-24T11:01:40.000Z</time>
      </trkpt>
      <trkpt lat="43.91632" lon="7.26497">
        <ele>309</ele>
        <time>2018-04-24T11:01:46.000Z</time>
      </trkpt>
      <trkpt lat="43.91617" lon="7.2649">
        <ele>313</ele>
        <time>2018-04-24T11:01:49.000Z</time>
      </trkpt>
      <trkpt lat="43.91611" lon="7.26484">
        <ele>314</ele>
        <time>2018-04-24T11:01:51.000Z</time>
      </trkpt>
      <trkpt lat="43.91605" lon="7.26473">
        <ele>312</ele>
        <time>2018-04-24T11:01:55.000Z</time>
      </trkpt>
      <trkpt lat="43.91603" lon="7.26471">
        <ele>312</ele>
        <time>2018-04-24T11:01:56.000Z</time>
      </trkpt>
      <trkpt lat="43.916" lon="7.2646">
        <ele>309</ele>
        <time>2018-04-24T11:02:00.000Z</time>
      </trkpt>
      <trkpt lat="43.91602" lon="7.26456">
        <ele>308</ele>
        <time>2018-04-24T11:02:01.000Z</time>
      </trkpt>
      <trkpt lat="43.91602" lon="7.26446">
        <ele>305</ele>
        <time>2018-04-24T11:02:04.000Z</time>
      </trkpt>
      <trkpt lat="43.91599" lon="7.26435">
        <ele>302</ele>
        <time>2018-04-24T11:02:08.000Z</time>
      </trkpt>
      <trkpt lat="43.91587" lon="7.26432">
        <ele>302</ele>
        <time>2018-04-24T11:02:11.000Z</time>
      </trkpt>
      <trkpt lat="43.91574" lon="7.26426">
        <ele>319</ele>
        <time>2018-04-24T11:02:15.000Z</time>
      </trkpt>
      <trkpt lat="43.91571" lon="7.26425">
        <ele>321</ele>
        <time>2018-04-24T11:02:16.000Z</time>
      </trkpt>
      <trkpt lat="43.91556" lon="7.26414">
        <ele>305</ele>
        <time>2018-04-24T11:02:21.000Z</time>
      </trkpt>
      <trkpt lat="43.91547" lon="7.26408">
        <ele>307</ele>
        <time>2018-04-24T11:02:24.000Z</time>
      </trkpt>
      <trkpt lat="43.91544" lon="7.26406">
        <ele>308</ele>
        <time>2018-04-24T11:02:25.000Z</time>
      </trkpt>
      <trkpt lat="43.91536" lon="7.26399">
        <ele>310</ele>
        <time>2018-04-24T11:02:28.000Z</time>
      </trkpt>
      <trkpt lat="43.91527" lon="7.26392">
        <ele>311</ele>
        <time>2018-04-24T11:02:31.000Z</time>
      </trkpt>
      <trkpt lat="43.91519" lon="7.26386">
        <ele>311</ele>
        <time>2018-04-24T11:02:34.000Z</time>
      </trkpt>
      <trkpt lat="43.91505" lon="7.26374">
        <ele>308</ele>
        <time>2018-04-24T11:02:39.000Z</time>
      </trkpt>
      <trkpt lat="43.915" lon="7.2637">
        <ele>323</ele>
        <time>2018-04-24T11:02:41.000Z</time>
      </trkpt>
      <trkpt lat="43.91487" lon="7.26359">
        <ele>319</ele>
        <time>2018-04-24T11:02:46.000Z</time>
      </trkpt>
      <trkpt lat="43.91482" lon="7.26354">
        <ele>318</ele>
        <time>2018-04-24T11:02:48.000Z</time>
      </trkpt>
      <trkpt lat="43.91474" lon="7.26349">
        <ele>318</ele>
        <time>2018-04-24T11:02:51.000Z</time>
      </trkpt>
      <trkpt lat="43.9146" lon="7.26341">
        <ele>321</ele>
        <time>2018-04-24T11:02:56.000Z</time>
      </trkpt>
      <trkpt lat="43.91457" lon="7.26339">
        <ele>322</ele>
        <time>2018-04-24T11:02:57.000Z</time>
      </trkpt>
      <trkpt lat="43.9144" lon="7.26332">
        <ele>304</ele>
        <time>2018-04-24T11:03:03.000Z</time>
      </trkpt>
      <trkpt lat="43.91435" lon="7.26331">
        <ele>307</ele>
        <time>2018-04-24T11:03:05.000Z</time>
      </trkpt>
      <trkpt lat="43.91426" lon="7.26328">
        <ele>312</ele>
        <time>2018-04-24T11:03:08.000Z</time>
      </trkpt>
      <trkpt lat="43.91416" lon="7.26323">
        <ele>318</ele>
        <time>2018-04-24T11:03:12.000Z</time>
      </trkpt>
      <trkpt lat="43.91414" lon="7.26322">
        <ele>318</ele>
        <time>2018-04-24T11:03:13.000Z</time>
      </trkpt>
      <trkpt lat="43.91392" lon="7.26314">
        <ele>313</ele>
        <time>2018-04-24T11:03:21.000Z</time>
      </trkpt>
      <trkpt lat="43.91389" lon="7.26313">
        <ele>313</ele>
        <time>2018-04-24T11:03:22.000Z</time>
      </trkpt>
      <trkpt lat="43.91375" lon="7.26306">
        <ele>312</ele>
        <time>2018-04-24T11:03:28.000Z</time>
      </trkpt>
      <trkpt lat="43.91371" lon="7.26304">
        <ele>312</ele>
        <time>2018-04-24T11:03:30.000Z</time>
      </trkpt>
      <trkpt lat="43.91366" lon="7.26301">
        <ele>311</ele>
        <time>2018-04-24T11:03:32.000Z</time>
      </trkpt>
      <trkpt lat="43.91355" lon="7.26295">
        <ele>311</ele>
        <time>2018-04-24T11:03:37.000Z</time>
      </trkpt>
      <trkpt lat="43.9135" lon="7.26292">
        <ele>310</ele>
        <time>2018-04-24T11:03:39.000Z</time>
      </trkpt>
      <trkpt lat="43.91333" lon="7.26285">
        <ele>306</ele>
        <time>2018-04-24T11:03:47.000Z</time>
      </trkpt>
      <trkpt lat="43.91321" lon="7.2629">
        <ele>306</ele>
        <time>2018-04-24T11:03:53.000Z</time>
      </trkpt>
      <trkpt lat="43.91319" lon="7.26292">
        <ele>307</ele>
        <time>2018-04-24T11:03:54.000Z</time>
      </trkpt>
      <trkpt lat="43.91311" lon="7.26307">
        <ele>310</ele>
        <time>2018-04-24T11:04:00.000Z</time>
      </trkpt>
      <trkpt lat="43.91303" lon="7.26329">
        <ele>312</ele>
        <time>2018-04-24T11:04:08.000Z</time>
      </trkpt>
      <trkpt lat="43.91296" lon="7.26349">
        <ele>324</ele>
        <time>2018-04-24T11:04:15.000Z</time>
      </trkpt>
      <trkpt lat="43.91295" lon="7.26352">
        <ele>325</ele>
        <time>2018-04-24T11:04:16.000Z</time>
      </trkpt>
      <trkpt lat="43.91293" lon="7.26369">
        <ele>326</ele>
        <time>2018-04-24T11:04:21.000Z</time>
      </trkpt>
      <trkpt lat="43.91294" lon="7.26376">
        <ele>326</ele>
        <time>2018-04-24T11:04:23.000Z</time>
      </trkpt>
      <trkpt lat="43.91293" lon="7.26396">
        <ele>328</ele>
        <time>2018-04-24T11:04:28.000Z</time>
      </trkpt>
      <trkpt lat="43.91293" lon="7.26415">
        <ele>329</ele>
        <time>2018-04-24T11:04:33.000Z</time>
      </trkpt>
      <trkpt lat="43.91295" lon="7.26424">
        <ele>341</ele>
        <time>2018-04-24T11:04:36.000Z</time>
      </trkpt>
      <trkpt lat="43.91295" lon="7.26431">
        <ele>342</ele>
        <time>2018-04-24T11:04:38.000Z</time>
      </trkpt>
      <trkpt lat="43.91297" lon="7.26443">
        <ele>343</ele>
        <time>2018-04-24T11:04:42.000Z</time>
      </trkpt>
      <trkpt lat="43.91297" lon="7.26449">
        <ele>344</ele>
        <time>2018-04-24T11:04:44.000Z</time>
      </trkpt>
      <trkpt lat="43.91297" lon="7.26468">
        <ele>346</ele>
        <time>2018-04-24T11:04:50.000Z</time>
      </trkpt>
      <trkpt lat="43.91296" lon="7.26476">
        <ele>348</ele>
        <time>2018-04-24T11:04:53.000Z</time>
      </trkpt>
      <trkpt lat="43.91295" lon="7.26484">
        <ele>348</ele>
        <time>2018-04-24T11:04:56.000Z</time>
      </trkpt>
      <trkpt lat="43.91291" lon="7.26498">
        <ele>347</ele>
        <time>2018-04-24T11:05:01.000Z</time>
      </trkpt>
      <trkpt lat="43.91289" lon="7.26503">
        <ele>363</ele>
        <time>2018-04-24T11:05:03.000Z</time>
      </trkpt>
      <trkpt lat="43.91282" lon="7.26519">
        <ele>363</ele>
        <time>2018-04-24T11:05:09.000Z</time>
      </trkpt>
      <trkpt lat="43.91281" lon="7.26522">
        <ele>363</ele>
        <time>2018-04-24T11:05:10.000Z</time>
      </trkpt>
      <trkpt lat="43.91274" lon="7.26541">
        <ele>365</ele>
        <time>2018-04-24T11:05:17.000Z</time>
      </trkpt>
      <trkpt lat="43.91273" lon="7.26544">
        <ele>365</ele>
        <time>2018-04-24T11:05:18.000Z</time>
      </trkpt>
      <trkpt lat="43.91263" lon="7.26556">
        <ele>364</ele>
        <time>2018-04-24T11:05:24.000Z</time>
      </trkpt>
      <trkpt lat="43.91261" lon="7.26558">
        <ele>364</ele>
        <time>2018-04-24T11:05:25.000Z</time>
      </trkpt>
      <trkpt lat="43.91252" lon="7.26569">
        <ele>361</ele>
        <time>2018-04-24T11:05:30.000Z</time>
      </trkpt>
      <trkpt lat="43.91247" lon="7.26576">
        <ele>352</ele>
        <time>2018-04-24T11:05:33.000Z</time>
      </trkpt>
      <trkpt lat="43.91243" lon="7.26585">
        <ele>357</ele>
        <time>2018-04-24T11:05:36.000Z</time>
      </trkpt>
      <trkpt lat="43.91235" lon="7.26599">
        <ele>360</ele>
        <time>2018-04-24T11:05:41.000Z</time>
      </trkpt>
      <trkpt lat="43.91233" lon="7.26605">
        <ele>361</ele>
        <time>2018-04-24T11:05:43.000Z</time>
      </trkpt>
      <trkpt lat="43.91228" lon="7.26617">
        <ele>364</ele>
        <time>2018-04-24T11:05:47.000Z</time>
      </trkpt>
      <trkpt lat="43.91228" lon="7.2662">
        <ele>364</ele>
        <time>2018-04-24T11:05:48.000Z</time>
      </trkpt>
      <trkpt lat="43.91225" lon="7.26637">
        <ele>367</ele>
        <time>2018-04-24T11:05:52.000Z</time>
      </trkpt>
      <trkpt lat="43.91224" lon="7.2665">
        <ele>369</ele>
        <time>2018-04-24T11:05:55.000Z</time>
      </trkpt>
      <trkpt lat="43.91225" lon="7.26661">
        <ele>371</ele>
        <time>2018-04-24T11:05:58.000Z</time>
      </trkpt>
      <trkpt lat="43.91223" lon="7.26673">
        <ele>386</ele>
        <time>2018-04-24T11:06:01.000Z</time>
      </trkpt>
      <trkpt lat="43.9122" lon="7.26681">
        <ele>387</ele>
        <time>2018-04-24T11:06:03.000Z</time>
      </trkpt>
      <trkpt lat="43.9122" lon="7.26689">
        <ele>388</ele>
        <time>2018-04-24T11:06:06.000Z</time>
      </trkpt>
      <trkpt lat="43.91219" lon="7.26692">
        <ele>388</ele>
        <time>2018-04-24T11:06:08.000Z</time>
      </trkpt>
      <trkpt lat="43.91218" lon="7.26692">
        <ele>388</ele>
        <time>2018-04-24T11:06:09.000Z</time>
      </trkpt>
      <trkpt lat="43.91212" lon="7.2669">
        <ele>386</ele>
        <time>2018-04-24T11:06:12.000Z</time>
      </trkpt>
      <trkpt lat="43.9121" lon="7.26687">
        <ele>385</ele>
        <time>2018-04-24T11:06:14.000Z</time>
      </trkpt>
      <trkpt lat="43.91207" lon="7.26684">
        <ele>384</ele>
        <time>2018-04-24T11:06:17.000Z</time>
      </trkpt>
      <trkpt lat="43.91205" lon="7.26679">
        <ele>383</ele>
        <time>2018-04-24T11:06:19.000Z</time>
      </trkpt>
      <trkpt lat="43.91205" lon="7.26677">
        <ele>383</ele>
        <time>2018-04-24T11:06:20.000Z</time>
      </trkpt>
      <trkpt lat="43.91204" lon="7.26675">
        <ele>383</ele>
        <time>2018-04-24T11:06:21.000Z</time>
      </trkpt>
      <trkpt lat="43.91196" lon="7.26659">
        <ele>365</ele>
        <time>2018-04-24T11:06:27.000Z</time>
      </trkpt>
      <trkpt lat="43.91182" lon="7.26642">
        <ele>363</ele>
        <time>2018-04-24T11:06:35.000Z</time>
      </trkpt>
      <trkpt lat="43.91176" lon="7.26631">
        <ele>362</ele>
        <time>2018-04-24T11:06:39.000Z</time>
      </trkpt>
      <trkpt lat="43.91172" lon="7.26621">
        <ele>361</ele>
        <time>2018-04-24T11:06:42.000Z</time>
      </trkpt>
      <trkpt lat="43.91171" lon="7.26618">
        <ele>361</ele>
        <time>2018-04-24T11:06:43.000Z</time>
      </trkpt>
      <trkpt lat="43.91169" lon="7.26609">
        <ele>360</ele>
        <time>2018-04-24T11:06:46.000Z</time>
      </trkpt>
      <trkpt lat="43.91165" lon="7.26593">
        <ele>366</ele>
        <time>2018-04-24T11:06:51.000Z</time>
      </trkpt>
      <trkpt lat="43.91164" lon="7.26574">
        <ele>365</ele>
        <time>2018-04-24T11:06:57.000Z</time>
      </trkpt>
      <trkpt lat="43.91164" lon="7.2657">
        <ele>367</ele>
        <time>2018-04-24T11:06:58.000Z</time>
      </trkpt>
      <trkpt lat="43.91169" lon="7.2655">
        <ele>351</ele>
        <time>2018-04-24T11:07:03.000Z</time>
      </trkpt>
      <trkpt lat="43.91176" lon="7.26525">
        <ele>351</ele>
        <time>2018-04-24T11:07:09.000Z</time>
      </trkpt>
      <trkpt lat="43.91177" lon="7.26521">
        <ele>351</ele>
        <time>2018-04-24T11:07:10.000Z</time>
      </trkpt>
      <trkpt lat="43.91181" lon="7.265">
        <ele>349</ele>
        <time>2018-04-24T11:07:16.000Z</time>
      </trkpt>
      <trkpt lat="43.91184" lon="7.26481">
        <ele>345</ele>
        <time>2018-04-24T11:07:22.000Z</time>
      </trkpt>
      <trkpt lat="43.91184" lon="7.26477">
        <ele>344</ele>
        <time>2018-04-24T11:07:23.000Z</time>
      </trkpt>
      <trkpt lat="43.91182" lon="7.26461">
        <ele>343</ele>
        <time>2018-04-24T11:07:28.000Z</time>
      </trkpt>
      <trkpt lat="43.91176" lon="7.26454">
        <ele>343</ele>
        <time>2018-04-24T11:07:31.000Z</time>
      </trkpt>
      <trkpt lat="43.91173" lon="7.26453">
        <ele>343</ele>
        <time>2018-04-24T11:07:32.000Z</time>
      </trkpt>
      <trkpt lat="43.91167" lon="7.26449">
        <ele>343</ele>
        <time>2018-04-24T11:07:34.000Z</time>
      </trkpt>
      <trkpt lat="43.91161" lon="7.26444">
        <ele>362</ele>
        <time>2018-04-24T11:07:37.000Z</time>
      </trkpt>
      <trkpt lat="43.91155" lon="7.26441">
        <ele>362</ele>
        <time>2018-04-24T11:07:39.000Z</time>
      </trkpt>
      <trkpt lat="43.91141" lon="7.26435">
        <ele>365</ele>
        <time>2018-04-24T11:07:45.000Z</time>
      </trkpt>
      <trkpt lat="43.91138" lon="7.26434">
        <ele>366</ele>
        <time>2018-04-24T11:07:46.000Z</time>
      </trkpt>
      <trkpt lat="43.91126" lon="7.26432">
        <ele>368</ele>
        <time>2018-04-24T11:07:51.000Z</time>
      </trkpt>
      <trkpt lat="43.91123" lon="7.26431">
        <ele>369</ele>
        <time>2018-04-24T11:07:52.000Z</time>
      </trkpt>
      <trkpt lat="43.91106" lon="7.26424">
        <ele>371</ele>
        <time>2018-04-24T11:07:59.000Z</time>
      </trkpt>
      <trkpt lat="43.91092" lon="7.2642">
        <ele>371</ele>
        <time>2018-04-24T11:08:04.000Z</time>
      </trkpt>
      <trkpt lat="43.91085" lon="7.26417">
        <ele>370</ele>
        <time>2018-04-24T11:08:07.000Z</time>
      </trkpt>
      <trkpt lat="43.91072" lon="7.26413">
        <ele>368</ele>
        <time>2018-04-24T11:08:12.000Z</time>
      </trkpt>
      <trkpt lat="43.91056" lon="7.26407">
        <ele>368</ele>
        <time>2018-04-24T11:08:18.000Z</time>
      </trkpt>
      <trkpt lat="43.91039" lon="7.264">
        <ele>370</ele>
        <time>2018-04-24T11:08:24.000Z</time>
      </trkpt>
      <trkpt lat="43.91034" lon="7.26398">
        <ele>371</ele>
        <time>2018-04-24T11:08:26.000Z</time>
      </trkpt>
      <trkpt lat="43.91011" lon="7.26389">
        <ele>373</ele>
        <time>2018-04-24T11:08:35.000Z</time>
      </trkpt>
      <trkpt lat="43.90997" lon="7.26383">
        <ele>392</ele>
        <time>2018-04-24T11:08:41.000Z</time>
      </trkpt>
      <trkpt lat="43.90992" lon="7.26381">
        <ele>392</ele>
        <time>2018-04-24T11:08:43.000Z</time>
      </trkpt>
      <trkpt lat="43.90983" lon="7.26378">
        <ele>392</ele>
        <time>2018-04-24T11:08:47.000Z</time>
      </trkpt>
      <trkpt lat="43.90977" lon="7.26376">
        <ele>392</ele>
        <time>2018-04-24T11:08:49.000Z</time>
      </trkpt>
      <trkpt lat="43.90967" lon="7.26371">
        <ele>393</ele>
        <time>2018-04-24T11:08:54.000Z</time>
      </trkpt>
      <trkpt lat="43.90958" lon="7.26367">
        <ele>394</ele>
        <time>2018-04-24T11:08:58.000Z</time>
      </trkpt>
      <trkpt lat="43.90953" lon="7.26365">
        <ele>395</ele>
        <time>2018-04-24T11:09:00.000Z</time>
      </trkpt>
      <trkpt lat="43.90944" lon="7.26358">
        <ele>395</ele>
        <time>2018-04-24T11:09:04.000Z</time>
      </trkpt>
      <trkpt lat="43.90943" lon="7.26356">
        <ele>395</ele>
        <time>2018-04-24T11:09:05.000Z</time>
      </trkpt>
      <trkpt lat="43.90936" lon="7.26342">
        <ele>394</ele>
        <time>2018-04-24T11:09:10.000Z</time>
      </trkpt>
      <trkpt lat="43.90935" lon="7.26339">
        <ele>393</ele>
        <time>2018-04-24T11:09:11.000Z</time>
      </trkpt>
      <trkpt lat="43.90933" lon="7.26324">
        <ele>376</ele>
        <time>2018-04-24T11:09:16.000Z</time>
      </trkpt>
      <trkpt lat="43.90933" lon="7.26321">
        <ele>375</ele>
        <time>2018-04-24T11:09:17.000Z</time>
      </trkpt>
      <trkpt lat="43.9093" lon="7.26308">
        <ele>371</ele>
        <time>2018-04-24T11:09:21.000Z</time>
      </trkpt>
      <trkpt lat="43.90925" lon="7.263">
        <ele>369</ele>
        <time>2018-04-24T11:09:24.000Z</time>
      </trkpt>
      <trkpt lat="43.90918" lon="7.2629">
        <ele>367</ele>
        <time>2018-04-24T11:09:28.000Z</time>
      </trkpt>
      <trkpt lat="43.90908" lon="7.26285">
        <ele>384</ele>
        <time>2018-04-24T11:09:32.000Z</time>
      </trkpt>
      <trkpt lat="43.90894" lon="7.26284">
        <ele>386</ele>
        <time>2018-04-24T11:09:38.000Z</time>
      </trkpt>
      <trkpt lat="43.90889" lon="7.26286">
        <ele>387</ele>
        <time>2018-04-24T11:09:40.000Z</time>
      </trkpt>
      <trkpt lat="43.90873" lon="7.26292">
        <ele>390</ele>
        <time>2018-04-24T11:09:46.000Z</time>
      </trkpt>
      <trkpt lat="43.90868" lon="7.26292">
        <ele>391</ele>
        <time>2018-04-24T11:09:48.000Z</time>
      </trkpt>
      <trkpt lat="43.90859" lon="7.26287">
        <ele>391</ele>
        <time>2018-04-24T11:09:52.000Z</time>
      </trkpt>
      <trkpt lat="43.90857" lon="7.26285">
        <ele>391</ele>
        <time>2018-04-24T11:09:53.000Z</time>
      </trkpt>
      <trkpt lat="43.9085" lon="7.26275">
        <ele>390</ele>
        <time>2018-04-24T11:09:57.000Z</time>
      </trkpt>
      <trkpt lat="43.90848" lon="7.26268">
        <ele>389</ele>
        <time>2018-04-24T11:09:59.000Z</time>
      </trkpt>
      <trkpt lat="43.90846" lon="7.26262">
        <ele>389</ele>
        <time>2018-04-24T11:10:01.000Z</time>
      </trkpt>
      <trkpt lat="43.90844" lon="7.2625">
        <ele>388</ele>
        <time>2018-04-24T11:10:05.000Z</time>
      </trkpt>
      <trkpt lat="43.90838" lon="7.26241">
        <ele>380</ele>
        <time>2018-04-24T11:10:09.000Z</time>
      </trkpt>
      <trkpt lat="43.90834" lon="7.26236">
        <ele>378</ele>
        <time>2018-04-24T11:10:11.000Z</time>
      </trkpt>
      <trkpt lat="43.90828" lon="7.2623">
        <ele>390</ele>
        <time>2018-04-24T11:10:14.000Z</time>
      </trkpt>
      <trkpt lat="43.90819" lon="7.26225">
        <ele>390</ele>
        <time>2018-04-24T11:10:18.000Z</time>
      </trkpt>
      <trkpt lat="43.90811" lon="7.26221">
        <ele>391</ele>
        <time>2018-04-24T11:10:22.000Z</time>
      </trkpt>
      <trkpt lat="43.90802" lon="7.26218">
        <ele>393</ele>
        <time>2018-04-24T11:10:26.000Z</time>
      </trkpt>
      <trkpt lat="43.90795" lon="7.26216">
        <ele>394</ele>
        <time>2018-04-24T11:10:29.000Z</time>
      </trkpt>
      <trkpt lat="43.90787" lon="7.26211">
        <ele>395</ele>
        <time>2018-04-24T11:10:33.000Z</time>
      </trkpt>
      <trkpt lat="43.90781" lon="7.26206">
        <ele>395</ele>
        <time>2018-04-24T11:10:36.000Z</time>
      </trkpt>
      <trkpt lat="43.90777" lon="7.26201">
        <ele>395</ele>
        <time>2018-04-24T11:10:38.000Z</time>
      </trkpt>
      <trkpt lat="43.90769" lon="7.26191">
        <ele>395</ele>
        <time>2018-04-24T11:10:42.000Z</time>
      </trkpt>
      <trkpt lat="43.90765" lon="7.26182">
        <ele>395</ele>
        <time>2018-04-24T11:10:45.000Z</time>
      </trkpt>
      <trkpt lat="43.90762" lon="7.26177">
        <ele>395</ele>
        <time>2018-04-24T11:10:47.000Z</time>
      </trkpt>
      <trkpt lat="43.90753" lon="7.26164">
        <ele>392</ele>
        <time>2018-04-24T11:10:53.000Z</time>
      </trkpt>
      <trkpt lat="43.90737" lon="7.2615">
        <ele>400</ele>
        <time>2018-04-24T11:11:01.000Z</time>
      </trkpt>
      <trkpt lat="43.90733" lon="7.26147">
        <ele>400</ele>
        <time>2018-04-24T11:11:03.000Z</time>
      </trkpt>
      <trkpt lat="43.90722" lon="7.26141">
        <ele>401</ele>
        <time>2018-04-24T11:11:08.000Z</time>
      </trkpt>
      <trkpt lat="43.90717" lon="7.26136">
        <ele>402</ele>
        <time>2018-04-24T11:11:11.000Z</time>
      </trkpt>
      <trkpt lat="43.9071" lon="7.26126">
        <ele>402</ele>
        <time>2018-04-24T11:11:15.000Z</time>
      </trkpt>
      <trkpt lat="43.90708" lon="7.26121">
        <ele>402</ele>
        <time>2018-04-24T11:11:17.000Z</time>
      </trkpt>
      <trkpt lat="43.90705" lon="7.26108">
        <ele>401</ele>
        <time>2018-04-24T11:11:21.000Z</time>
      </trkpt>
      <trkpt lat="43.90705" lon="7.26105">
        <ele>400</ele>
        <time>2018-04-24T11:11:22.000Z</time>
      </trkpt>
      <trkpt lat="43.90701" lon="7.26087">
        <ele>400</ele>
        <time>2018-04-24T11:11:29.000Z</time>
      </trkpt>
      <trkpt lat="43.907" lon="7.26084">
        <ele>400</ele>
        <time>2018-04-24T11:11:30.000Z</time>
      </trkpt>
      <trkpt lat="43.90689" lon="7.26072">
        <ele>392</ele>
        <time>2018-04-24T11:11:36.000Z</time>
      </trkpt>
      <trkpt lat="43.90684" lon="7.26068">
        <ele>393</ele>
        <time>2018-04-24T11:11:38.000Z</time>
      </trkpt>
      <trkpt lat="43.9067" lon="7.26057">
        <ele>393</ele>
        <time>2018-04-24T11:11:45.000Z</time>
      </trkpt>
      <trkpt lat="43.90665" lon="7.26049">
        <ele>409</ele>
        <time>2018-04-24T11:11:48.000Z</time>
      </trkpt>
      <trkpt lat="43.90661" lon="7.26044">
        <ele>409</ele>
        <time>2018-04-24T11:11:50.000Z</time>
      </trkpt>
      <trkpt lat="43.90656" lon="7.26033">
        <ele>408</ele>
        <time>2018-04-24T11:11:54.000Z</time>
      </trkpt>
      <trkpt lat="43.90652" lon="7.26019">
        <ele>406</ele>
        <time>2018-04-24T11:11:59.000Z</time>
      </trkpt>
      <trkpt lat="43.90644" lon="7.26005">
        <ele>406</ele>
        <time>2018-04-24T11:12:05.000Z</time>
      </trkpt>
      <trkpt lat="43.9064" lon="7.26001">
        <ele>407</ele>
        <time>2018-04-24T11:12:07.000Z</time>
      </trkpt>
      <trkpt lat="43.90626" lon="7.25999">
        <ele>401</ele>
        <time>2018-04-24T11:12:13.000Z</time>
      </trkpt>
      <trkpt lat="43.90621" lon="7.26001">
        <ele>410</ele>
        <time>2018-04-24T11:12:15.000Z</time>
      </trkpt>
      <trkpt lat="43.90605" lon="7.26007">
        <ele>412</ele>
        <time>2018-04-24T11:12:22.000Z</time>
      </trkpt>
      <trkpt lat="43.90595" lon="7.26009">
        <ele>413</ele>
        <time>2018-04-24T11:12:26.000Z</time>
      </trkpt>
      <trkpt lat="43.90585" lon="7.26005">
        <ele>414</ele>
        <time>2018-04-24T11:12:30.000Z</time>
      </trkpt>
      <trkpt lat="43.90582" lon="7.26003">
        <ele>417</ele>
        <time>2018-04-24T11:12:31.000Z</time>
      </trkpt>
      <trkpt lat="43.90574" lon="7.25991">
        <ele>418</ele>
        <time>2018-04-24T11:12:36.000Z</time>
      </trkpt>
      <trkpt lat="43.90569" lon="7.25973">
        <ele>419</ele>
        <time>2018-04-24T11:12:42.000Z</time>
      </trkpt>
      <trkpt lat="43.90569" lon="7.2597">
        <ele>419</ele>
        <time>2018-04-24T11:12:43.000Z</time>
      </trkpt>
      <trkpt lat="43.90563" lon="7.25952">
        <ele>418</ele>
        <time>2018-04-24T11:12:49.000Z</time>
      </trkpt>
      <trkpt lat="43.90554" lon="7.2593">
        <ele>417</ele>
        <time>2018-04-24T11:12:56.000Z</time>
      </trkpt>
      <trkpt lat="43.90549" lon="7.25925">
        <ele>418</ele>
        <time>2018-04-24T11:12:58.000Z</time>
      </trkpt>
      <trkpt lat="43.9054" lon="7.2591">
        <ele>411</ele>
        <time>2018-04-24T11:13:03.000Z</time>
      </trkpt>
      <trkpt lat="43.90536" lon="7.25906">
        <ele>412</ele>
        <time>2018-04-24T11:13:05.000Z</time>
      </trkpt>
      <trkpt lat="43.90529" lon="7.25898">
        <ele>414</ele>
        <time>2018-04-24T11:13:08.000Z</time>
      </trkpt>
      <trkpt lat="43.90521" lon="7.25886">
        <ele>414</ele>
        <time>2018-04-24T11:13:12.000Z</time>
      </trkpt>
      <trkpt lat="43.90516" lon="7.25875">
        <ele>413</ele>
        <time>2018-04-24T11:13:15.000Z</time>
      </trkpt>
      <trkpt lat="43.90512" lon="7.25864">
        <ele>412</ele>
        <time>2018-04-24T11:13:18.000Z</time>
      </trkpt>
      <trkpt lat="43.90505" lon="7.25844">
        <ele>415</ele>
        <time>2018-04-24T11:13:23.000Z</time>
      </trkpt>
      <trkpt lat="43.90502" lon="7.25833">
        <ele>417</ele>
        <time>2018-04-24T11:13:26.000Z</time>
      </trkpt>
      <trkpt lat="43.90495" lon="7.25812">
        <ele>416</ele>
        <time>2018-04-24T11:13:32.000Z</time>
      </trkpt>
      <trkpt lat="43.90492" lon="7.25805">
        <ele>415</ele>
        <time>2018-04-24T11:13:34.000Z</time>
      </trkpt>
      <trkpt lat="43.90482" lon="7.25771">
        <ele>412</ele>
        <time>2018-04-24T11:13:44.000Z</time>
      </trkpt>
      <trkpt lat="43.90477" lon="7.25756">
        <ele>411</ele>
        <time>2018-04-24T11:13:49.000Z</time>
      </trkpt>
      <trkpt lat="43.90471" lon="7.25741">
        <ele>406</ele>
        <time>2018-04-24T11:13:54.000Z</time>
      </trkpt>
      <trkpt lat="43.90457" lon="7.25734">
        <ele>406</ele>
        <time>2018-04-24T11:14:00.000Z</time>
      </trkpt>
      <trkpt lat="43.90447" lon="7.25744">
        <ele>406</ele>
        <time>2018-04-24T11:14:05.000Z</time>
      </trkpt>
      <trkpt lat="43.90443" lon="7.2575">
        <ele>410</ele>
        <time>2018-04-24T11:14:07.000Z</time>
      </trkpt>
      <trkpt lat="43.90438" lon="7.25765">
        <ele>411</ele>
        <time>2018-04-24T11:14:11.000Z</time>
      </trkpt>
      <trkpt lat="43.90436" lon="7.25768">
        <ele>411</ele>
        <time>2018-04-24T11:14:12.000Z</time>
      </trkpt>
      <trkpt lat="43.90425" lon="7.25785">
        <ele>413</ele>
        <time>2018-04-24T11:14:17.000Z</time>
      </trkpt>
      <trkpt lat="43.90406" lon="7.25799">
        <ele>411</ele>
        <time>2018-04-24T11:14:25.000Z</time>
      </trkpt>
      <trkpt lat="43.90401" lon="7.25802">
        <ele>411</ele>
        <time>2018-04-24T11:14:27.000Z</time>
      </trkpt>
      <trkpt lat="43.90391" lon="7.25811">
        <ele>412</ele>
        <time>2018-04-24T11:14:32.000Z</time>
      </trkpt>
      <trkpt lat="43.90388" lon="7.25817">
        <ele>412</ele>
        <time>2018-04-24T11:14:34.000Z</time>
      </trkpt>
      <trkpt lat="43.90386" lon="7.25828">
        <ele>412</ele>
        <time>2018-04-24T11:14:37.000Z</time>
      </trkpt>
      <trkpt lat="43.90386" lon="7.25841">
        <ele>418</ele>
        <time>2018-04-24T11:14:40.000Z</time>
      </trkpt>
      <trkpt lat="43.90388" lon="7.25848">
        <ele>418</ele>
        <time>2018-04-24T11:14:42.000Z</time>
      </trkpt>
      <trkpt lat="43.90394" lon="7.25876">
        <ele>419</ele>
        <time>2018-04-24T11:14:49.000Z</time>
      </trkpt>
      <trkpt lat="43.90401" lon="7.25904">
        <ele>423</ele>
        <time>2018-04-24T11:14:56.000Z</time>
      </trkpt>
      <trkpt lat="43.90403" lon="7.25911">
        <ele>425</ele>
        <time>2018-04-24T11:14:58.000Z</time>
      </trkpt>
      <trkpt lat="43.90408" lon="7.25932">
        <ele>426</ele>
        <time>2018-04-24T11:15:04.000Z</time>
      </trkpt>
      <trkpt lat="43.9041" lon="7.25942">
        <ele>425</ele>
        <time>2018-04-24T11:15:07.000Z</time>
      </trkpt>
      <trkpt lat="43.90413" lon="7.25965">
        <ele>424</ele>
        <time>2018-04-24T11:15:13.000Z</time>
      </trkpt>
      <trkpt lat="43.90413" lon="7.25975">
        <ele>425</ele>
        <time>2018-04-24T11:15:16.000Z</time>
      </trkpt>
      <trkpt lat="43.90412" lon="7.25998">
        <ele>431</ele>
        <time>2018-04-24T11:15:22.000Z</time>
      </trkpt>
      <trkpt lat="43.90412" lon="7.26006">
        <ele>430</ele>
        <time>2018-04-24T11:15:24.000Z</time>
      </trkpt>
      <trkpt lat="43.9041" lon="7.2603">
        <ele>427</ele>
        <time>2018-04-24T11:15:30.000Z</time>
      </trkpt>
      <trkpt lat="43.9041" lon="7.26041">
        <ele>427</ele>
        <time>2018-04-24T11:15:33.000Z</time>
      </trkpt>
      <trkpt lat="43.90412" lon="7.26057">
        <ele>428</ele>
        <time>2018-04-24T11:15:38.000Z</time>
      </trkpt>
      <trkpt lat="43.90413" lon="7.26065">
        <ele>430</ele>
        <time>2018-04-24T11:15:40.000Z</time>
      </trkpt>
      <trkpt lat="43.90417" lon="7.2609">
        <ele>440</ele>
        <time>2018-04-24T11:15:47.000Z</time>
      </trkpt>
      <trkpt lat="43.90416" lon="7.26105">
        <ele>438</ele>
        <time>2018-04-24T11:15:51.000Z</time>
      </trkpt>
      <trkpt lat="43.90413" lon="7.26112">
        <ele>439</ele>
        <time>2018-04-24T11:15:53.000Z</time>
      </trkpt>
      <trkpt lat="43.90402" lon="7.26124">
        <ele>440</ele>
        <time>2018-04-24T11:15:58.000Z</time>
      </trkpt>
      <trkpt lat="43.904" lon="7.26125">
        <ele>440</ele>
        <time>2018-04-24T11:15:59.000Z</time>
      </trkpt>
      <trkpt lat="43.90383" lon="7.26126">
        <ele>439</ele>
        <time>2018-04-24T11:16:05.000Z</time>
      </trkpt>
      <trkpt lat="43.90367" lon="7.26127">
        <ele>437</ele>
        <time>2018-04-24T11:16:11.000Z</time>
      </trkpt>
      <trkpt lat="43.90359" lon="7.26129">
        <ele>437</ele>
        <time>2018-04-24T11:16:14.000Z</time>
      </trkpt>
      <trkpt lat="43.90344" lon="7.26135">
        <ele>437</ele>
        <time>2018-04-24T11:16:19.000Z</time>
      </trkpt>
      <trkpt lat="43.90335" lon="7.2614">
        <ele>438</ele>
        <time>2018-04-24T11:16:22.000Z</time>
      </trkpt>
      <trkpt lat="43.90321" lon="7.2615">
        <ele>435</ele>
        <time>2018-04-24T11:16:26.000Z</time>
      </trkpt>
      <trkpt lat="43.90318" lon="7.26154">
        <ele>436</ele>
        <time>2018-04-24T11:16:27.000Z</time>
      </trkpt>
      <trkpt lat="43.90305" lon="7.26181">
        <ele>444</ele>
        <time>2018-04-24T11:16:32.000Z</time>
      </trkpt>
      <trkpt lat="43.90298" lon="7.26195">
        <ele>445</ele>
        <time>2018-04-24T11:16:34.000Z</time>
      </trkpt>
      <trkpt lat="43.90289" lon="7.26204">
        <ele>445</ele>
        <time>2018-04-24T11:16:36.000Z</time>
      </trkpt>
      <trkpt lat="43.90279" lon="7.2621">
        <ele>444</ele>
        <time>2018-04-24T11:16:38.000Z</time>
      </trkpt>
      <trkpt lat="43.90263" lon="7.2622">
        <ele>444</ele>
        <time>2018-04-24T11:16:41.000Z</time>
      </trkpt>
      <trkpt lat="43.90226" lon="7.26253">
        <ele>448</ele>
        <time>2018-04-24T11:16:48.000Z</time>
      </trkpt>
      <trkpt lat="43.90215" lon="7.26262">
        <ele>449</ele>
        <time>2018-04-24T11:16:50.000Z</time>
      </trkpt>
      <trkpt lat="43.90199" lon="7.26276">
        <ele>449</ele>
        <time>2018-04-24T11:16:53.000Z</time>
      </trkpt>
      <trkpt lat="43.90194" lon="7.2628">
        <ele>450</ele>
        <time>2018-04-24T11:16:54.000Z</time>
      </trkpt>
      <trkpt lat="43.90183" lon="7.26286">
        <ele>450</ele>
        <time>2018-04-24T11:16:56.000Z</time>
      </trkpt>
      <trkpt lat="43.90172" lon="7.26286">
        <ele>449</ele>
        <time>2018-04-24T11:16:58.000Z</time>
      </trkpt>
      <trkpt lat="43.90159" lon="7.26272">
        <ele>446</ele>
        <time>2018-04-24T11:17:01.000Z</time>
      </trkpt>
      <trkpt lat="43.9015" lon="7.26246">
        <ele>447</ele>
        <time>2018-04-24T11:17:05.000Z</time>
      </trkpt>
      <trkpt lat="43.90154" lon="7.26222">
        <ele>452</ele>
        <time>2018-04-24T11:17:09.000Z</time>
      </trkpt>
      <trkpt lat="43.90158" lon="7.26213">
        <ele>454</ele>
        <time>2018-04-24T11:17:11.000Z</time>
      </trkpt>
      <trkpt lat="43.90161" lon="7.26205">
        <ele>454</ele>
        <time>2018-04-24T11:17:13.000Z</time>
      </trkpt>
      <trkpt lat="43.90164" lon="7.26197">
        <ele>454</ele>
        <time>2018-04-24T11:17:15.000Z</time>
      </trkpt>
      <trkpt lat="43.90168" lon="7.26187">
        <ele>442</ele>
        <time>2018-04-24T11:17:18.000Z</time>
      </trkpt>
      <trkpt lat="43.90173" lon="7.26173">
        <ele>444</ele>
        <time>2018-04-24T11:17:22.000Z</time>
      </trkpt>
      <trkpt lat="43.90177" lon="7.26164">
        <ele>446</ele>
        <time>2018-04-24T11:17:25.000Z</time>
      </trkpt>
      <trkpt lat="43.90184" lon="7.26149">
        <ele>446</ele>
        <time>2018-04-24T11:17:30.000Z</time>
      </trkpt>
      <trkpt lat="43.90196" lon="7.26133">
        <ele>446</ele>
        <time>2018-04-24T11:17:36.000Z</time>
      </trkpt>
      <trkpt lat="43.90197" lon="7.2613">
        <ele>446</ele>
        <time>2018-04-24T11:17:37.000Z</time>
      </trkpt>
      <trkpt lat="43.90204" lon="7.26123">
        <ele>446</ele>
        <time>2018-04-24T11:17:40.000Z</time>
      </trkpt>
      <trkpt lat="43.90214" lon="7.26114">
        <ele>445</ele>
        <time>2018-04-24T11:17:45.000Z</time>
      </trkpt>
      <trkpt lat="43.90227" lon="7.26103">
        <ele>443</ele>
        <time>2018-04-24T11:17:51.000Z</time>
      </trkpt>
      <trkpt lat="43.90231" lon="7.26099">
        <ele>442</ele>
        <time>2018-04-24T11:17:53.000Z</time>
      </trkpt>
      <trkpt lat="43.9024" lon="7.2609">
        <ele>440</ele>
        <time>2018-04-24T11:17:57.000Z</time>
      </trkpt>
      <trkpt lat="43.90247" lon="7.26081">
        <ele>439</ele>
        <time>2018-04-24T11:18:01.000Z</time>
      </trkpt>
      <trkpt lat="43.9025" lon="7.26076">
        <ele>434</ele>
        <time>2018-04-24T11:18:03.000Z</time>
      </trkpt>
      <trkpt lat="43.90251" lon="7.26072">
        <ele>433</ele>
        <time>2018-04-24T11:18:04.000Z</time>
      </trkpt>
      <trkpt lat="43.90253" lon="7.26066">
        <ele>432</ele>
        <time>2018-04-24T11:18:06.000Z</time>
      </trkpt>
      <trkpt lat="43.90256" lon="7.2605">
        <ele>432</ele>
        <time>2018-04-24T11:18:11.000Z</time>
      </trkpt>
      <trkpt lat="43.90255" lon="7.26047">
        <ele>432</ele>
        <time>2018-04-24T11:18:12.000Z</time>
      </trkpt>
      <trkpt lat="43.90255" lon="7.26029">
        <ele>435</ele>
        <time>2018-04-24T11:18:17.000Z</time>
      </trkpt>
      <trkpt lat="43.90254" lon="7.26017">
        <ele>438</ele>
        <time>2018-04-24T11:18:20.000Z</time>
      </trkpt>
      <trkpt lat="43.90256" lon="7.26007">
        <ele>443</ele>
        <time>2018-04-24T11:18:23.000Z</time>
      </trkpt>
      <trkpt lat="43.90258" lon="7.25997">
        <ele>443</ele>
        <time>2018-04-24T11:18:26.000Z</time>
      </trkpt>
      <trkpt lat="43.9026" lon="7.25987">
        <ele>438</ele>
        <time>2018-04-24T11:18:29.000Z</time>
      </trkpt>
      <trkpt lat="43.90264" lon="7.25969">
        <ele>433</ele>
        <time>2018-04-24T11:18:34.000Z</time>
      </trkpt>
      <trkpt lat="43.90266" lon="7.25956">
        <ele>432</ele>
        <time>2018-04-24T11:18:38.000Z</time>
      </trkpt>
      <trkpt lat="43.90264" lon="7.25946">
        <ele>432</ele>
        <time>2018-04-24T11:18:41.000Z</time>
      </trkpt>
      <trkpt lat="43.90263" lon="7.25944">
        <ele>433</ele>
        <time>2018-04-24T11:18:42.000Z</time>
      </trkpt>
      <trkpt lat="43.90257" lon="7.25934">
        <ele>435</ele>
        <time>2018-04-24T11:18:46.000Z</time>
      </trkpt>
      <trkpt lat="43.90254" lon="7.25934">
        <ele>435</ele>
        <time>2018-04-24T11:18:47.000Z</time>
      </trkpt>
      <trkpt lat="43.90241" lon="7.25935">
        <ele>453</ele>
        <time>2018-04-24T11:18:53.000Z</time>
      </trkpt>
      <trkpt lat="43.90223" lon="7.25937">
        <ele>458</ele>
        <time>2018-04-24T11:19:01.000Z</time>
      </trkpt>
      <trkpt lat="43.90218" lon="7.25938">
        <ele>459</ele>
        <time>2018-04-24T11:19:03.000Z</time>
      </trkpt>
      <trkpt lat="43.90211" lon="7.25937">
        <ele>461</ele>
        <time>2018-04-24T11:19:06.000Z</time>
      </trkpt>
      <trkpt lat="43.90203" lon="7.25935">
        <ele>462</ele>
        <time>2018-04-24T11:19:09.000Z</time>
      </trkpt>
      <trkpt lat="43.90193" lon="7.25927">
        <ele>465</ele>
        <time>2018-04-24T11:19:14.000Z</time>
      </trkpt>
      <trkpt lat="43.90191" lon="7.25926">
        <ele>465</ele>
        <time>2018-04-24T11:19:15.000Z</time>
      </trkpt>
      <trkpt lat="43.9018" lon="7.25919">
        <ele>468</ele>
        <time>2018-04-24T11:19:20.000Z</time>
      </trkpt>
      <trkpt lat="43.90173" lon="7.25911">
        <ele>469</ele>
        <time>2018-04-24T11:19:24.000Z</time>
      </trkpt>
      <trkpt lat="43.90169" lon="7.25905">
        <ele>467</ele>
        <time>2018-04-24T11:19:26.000Z</time>
      </trkpt>
      <trkpt lat="43.90166" lon="7.25895">
        <ele>481</ele>
        <time>2018-04-24T11:19:29.000Z</time>
      </trkpt>
      <trkpt lat="43.90165" lon="7.25884">
        <ele>482</ele>
        <time>2018-04-24T11:19:32.000Z</time>
      </trkpt>
      <trkpt lat="43.90166" lon="7.25874">
        <ele>483</ele>
        <time>2018-04-24T11:19:35.000Z</time>
      </trkpt>
      <trkpt lat="43.90167" lon="7.2586">
        <ele>464</ele>
        <time>2018-04-24T11:19:39.000Z</time>
      </trkpt>
      <trkpt lat="43.90167" lon="7.25856">
        <ele>465</ele>
        <time>2018-04-24T11:19:40.000Z</time>
      </trkpt>
      <trkpt lat="43.90168" lon="7.25853">
        <ele>465</ele>
        <time>2018-04-24T11:19:41.000Z</time>
      </trkpt>
      <trkpt lat="43.90171" lon="7.25843">
        <ele>468</ele>
        <time>2018-04-24T11:19:44.000Z</time>
      </trkpt>
      <trkpt lat="43.90175" lon="7.25834">
        <ele>469</ele>
        <time>2018-04-24T11:19:47.000Z</time>
      </trkpt>
      <trkpt lat="43.90179" lon="7.25823">
        <ele>470</ele>
        <time>2018-04-24T11:19:51.000Z</time>
      </trkpt>
      <trkpt lat="43.90182" lon="7.25818">
        <ele>469</ele>
        <time>2018-04-24T11:19:53.000Z</time>
      </trkpt>
      <trkpt lat="43.90189" lon="7.2581">
        <ele>468</ele>
        <time>2018-04-24T11:19:57.000Z</time>
      </trkpt>
      <trkpt lat="43.90196" lon="7.25803">
        <ele>467</ele>
        <time>2018-04-24T11:20:01.000Z</time>
      </trkpt>
      <trkpt lat="43.90202" lon="7.25795">
        <ele>467</ele>
        <time>2018-04-24T11:20:05.000Z</time>
      </trkpt>
      <trkpt lat="43.90217" lon="7.25773">
        <ele>466</ele>
        <time>2018-04-24T11:20:14.000Z</time>
      </trkpt>
      <trkpt lat="43.90227" lon="7.25756">
        <ele>464</ele>
        <time>2018-04-24T11:20:20.000Z</time>
      </trkpt>
      <trkpt lat="43.90231" lon="7.25748">
        <ele>469</ele>
        <time>2018-04-24T11:20:23.000Z</time>
      </trkpt>
      <trkpt lat="43.90234" lon="7.25742">
        <ele>469</ele>
        <time>2018-04-24T11:20:25.000Z</time>
      </trkpt>
      <trkpt lat="43.90239" lon="7.25721">
        <ele>472</ele>
        <time>2018-04-24T11:20:31.000Z</time>
      </trkpt>
      <trkpt lat="43.90237" lon="7.25701">
        <ele>474</ele>
        <time>2018-04-24T11:20:37.000Z</time>
      </trkpt>
      <trkpt lat="43.90235" lon="7.25695">
        <ele>474</ele>
        <time>2018-04-24T11:20:39.000Z</time>
      </trkpt>
      <trkpt lat="43.90231" lon="7.25678">
        <ele>473</ele>
        <time>2018-04-24T11:20:44.000Z</time>
      </trkpt>
      <trkpt lat="43.9023" lon="7.25675">
        <ele>474</ele>
        <time>2018-04-24T11:20:45.000Z</time>
      </trkpt>
      <trkpt lat="43.90227" lon="7.25662">
        <ele>472</ele>
        <time>2018-04-24T11:20:49.000Z</time>
      </trkpt>
      <trkpt lat="43.90224" lon="7.25654">
        <ele>473</ele>
        <time>2018-04-24T11:20:52.000Z</time>
      </trkpt>
      <trkpt lat="43.90221" lon="7.25645">
        <ele>473</ele>
        <time>2018-04-24T11:20:55.000Z</time>
      </trkpt>
      <trkpt lat="43.90218" lon="7.25632">
        <ele>473</ele>
        <time>2018-04-24T11:20:59.000Z</time>
      </trkpt>
      <trkpt lat="43.90215" lon="7.25624">
        <ele>473</ele>
        <time>2018-04-24T11:21:02.000Z</time>
      </trkpt>
      <trkpt lat="43.90208" lon="7.2561">
        <ele>473</ele>
        <time>2018-04-24T11:21:07.000Z</time>
      </trkpt>
      <trkpt lat="43.90194" lon="7.25594">
        <ele>476</ele>
        <time>2018-04-24T11:21:14.000Z</time>
      </trkpt>
      <trkpt lat="43.9019" lon="7.25591">
        <ele>477</ele>
        <time>2018-04-24T11:21:16.000Z</time>
      </trkpt>
      <trkpt lat="43.90178" lon="7.25586">
        <ele>480</ele>
        <time>2018-04-24T11:21:21.000Z</time>
      </trkpt>
      <trkpt lat="43.90161" lon="7.25584">
        <ele>488</ele>
        <time>2018-04-24T11:21:28.000Z</time>
      </trkpt>
      <trkpt lat="43.90156" lon="7.25583">
        <ele>486</ele>
        <time>2018-04-24T11:21:30.000Z</time>
      </trkpt>
      <trkpt lat="43.9014" lon="7.25583">
        <ele>488</ele>
        <time>2018-04-24T11:21:37.000Z</time>
      </trkpt>
      <trkpt lat="43.90138" lon="7.25583">
        <ele>489</ele>
        <time>2018-04-24T11:21:38.000Z</time>
      </trkpt>
      <trkpt lat="43.90127" lon="7.25579">
        <ele>490</ele>
        <time>2018-04-24T11:21:43.000Z</time>
      </trkpt>
      <trkpt lat="43.90114" lon="7.25568">
        <ele>492</ele>
        <time>2018-04-24T11:21:49.000Z</time>
      </trkpt>
      <trkpt lat="43.90112" lon="7.25565">
        <ele>492</ele>
        <time>2018-04-24T11:21:50.000Z</time>
      </trkpt>
      <trkpt lat="43.90105" lon="7.25554">
        <ele>492</ele>
        <time>2018-04-24T11:21:54.000Z</time>
      </trkpt>
      <trkpt lat="43.90101" lon="7.25549">
        <ele>492</ele>
        <time>2018-04-24T11:21:56.000Z</time>
      </trkpt>
      <trkpt lat="43.90093" lon="7.25538">
        <ele>491</ele>
        <time>2018-04-24T11:22:02.000Z</time>
      </trkpt>
      <trkpt lat="43.90089" lon="7.25534">
        <ele>491</ele>
        <time>2018-04-24T11:22:04.000Z</time>
      </trkpt>
      <trkpt lat="43.90078" lon="7.25526">
        <ele>500</ele>
        <time>2018-04-24T11:22:10.000Z</time>
      </trkpt>
      <trkpt lat="43.90075" lon="7.25524">
        <ele>500</ele>
        <time>2018-04-24T11:22:12.000Z</time>
      </trkpt>
      <trkpt lat="43.90065" lon="7.2552">
        <ele>500</ele>
        <time>2018-04-24T11:22:17.000Z</time>
      </trkpt>
      <trkpt lat="43.90061" lon="7.25518">
        <ele>501</ele>
        <time>2018-04-24T11:22:19.000Z</time>
      </trkpt>
      <trkpt lat="43.90045" lon="7.25512">
        <ele>502</ele>
        <time>2018-04-24T11:22:27.000Z</time>
      </trkpt>
      <trkpt lat="43.90037" lon="7.25509">
        <ele>503</ele>
        <time>2018-04-24T11:22:31.000Z</time>
      </trkpt>
      <trkpt lat="43.9003" lon="7.25508">
        <ele>503</ele>
        <time>2018-04-24T11:22:35.000Z</time>
      </trkpt>
      <trkpt lat="43.90022" lon="7.25507">
        <ele>503</ele>
        <time>2018-04-24T11:22:39.000Z</time>
      </trkpt>
      <trkpt lat="43.90015" lon="7.25508">
        <ele>503</ele>
        <time>2018-04-24T11:22:42.000Z</time>
      </trkpt>
      <trkpt lat="43.90012" lon="7.25509">
        <ele>503</ele>
        <time>2018-04-24T11:22:43.000Z</time>
      </trkpt>
      <trkpt lat="43.89998" lon="7.25509">
        <ele>507</ele>
        <time>2018-04-24T11:22:48.000Z</time>
      </trkpt>
      <trkpt lat="43.89994" lon="7.25508">
        <ele>508</ele>
        <time>2018-04-24T11:22:50.000Z</time>
      </trkpt>
      <trkpt lat="43.89989" lon="7.25506">
        <ele>509</ele>
        <time>2018-04-24T11:22:52.000Z</time>
      </trkpt>
      <trkpt lat="43.89975" lon="7.25498">
        <ele>490</ele>
        <time>2018-04-24T11:22:58.000Z</time>
      </trkpt>
      <trkpt lat="43.89958" lon="7.25482">
        <ele>489</ele>
        <time>2018-04-24T11:23:06.000Z</time>
      </trkpt>
      <trkpt lat="43.8994" lon="7.25466">
        <ele>488</ele>
        <time>2018-04-24T11:23:14.000Z</time>
      </trkpt>
      <trkpt lat="43.89927" lon="7.25458">
        <ele>489</ele>
        <time>2018-04-24T11:23:20.000Z</time>
      </trkpt>
      <trkpt lat="43.89921" lon="7.25457">
        <ele>489</ele>
        <time>2018-04-24T11:23:23.000Z</time>
      </trkpt>
      <trkpt lat="43.89912" lon="7.25458">
        <ele>512</ele>
        <time>2018-04-24T11:23:27.000Z</time>
      </trkpt>
      <trkpt lat="43.89904" lon="7.25463">
        <ele>513</ele>
        <time>2018-04-24T11:23:31.000Z</time>
      </trkpt>
      <trkpt lat="43.8989" lon="7.25472">
        <ele>516</ele>
        <time>2018-04-24T11:23:38.000Z</time>
      </trkpt>
      <trkpt lat="43.89879" lon="7.25478">
        <ele>518</ele>
        <time>2018-04-24T11:23:43.000Z</time>
      </trkpt>
      <trkpt lat="43.89872" lon="7.25481">
        <ele>520</ele>
        <time>2018-04-24T11:23:46.000Z</time>
      </trkpt>
      <trkpt lat="43.8986" lon="7.25484">
        <ele>523</ele>
        <time>2018-04-24T11:23:51.000Z</time>
      </trkpt>
      <trkpt lat="43.89858" lon="7.25484">
        <ele>523</ele>
        <time>2018-04-24T11:23:52.000Z</time>
      </trkpt>
      <trkpt lat="43.89846" lon="7.25479">
        <ele>525</ele>
        <time>2018-04-24T11:23:57.000Z</time>
      </trkpt>
      <trkpt lat="43.89841" lon="7.25477">
        <ele>525</ele>
        <time>2018-04-24T11:23:59.000Z</time>
      </trkpt>
      <trkpt lat="43.89833" lon="7.25474">
        <ele>532</ele>
        <time>2018-04-24T11:24:02.000Z</time>
      </trkpt>
      <trkpt lat="43.89819" lon="7.25475">
        <ele>532</ele>
        <time>2018-04-24T11:24:07.000Z</time>
      </trkpt>
      <trkpt lat="43.898" lon="7.25478">
        <ele>532</ele>
        <time>2018-04-24T11:24:13.000Z</time>
      </trkpt>
      <trkpt lat="43.89795" lon="7.25479">
        <ele>532</ele>
        <time>2018-04-24T11:24:15.000Z</time>
      </trkpt>
      <trkpt lat="43.89729" lon="7.25527">
        <ele>531</ele>
        <time>2018-04-24T11:24:34.000Z</time>
      </trkpt>
      <trkpt lat="43.89708" lon="7.25515">
        <ele>526</ele>
        <time>2018-04-24T11:24:38.000Z</time>
      </trkpt>
      <trkpt lat="43.89701" lon="7.25513">
        <ele>524</ele>
        <time>2018-04-24T11:24:39.000Z</time>
      </trkpt>
      <trkpt lat="43.89687" lon="7.25515">
        <ele>520</ele>
        <time>2018-04-24T11:24:41.000Z</time>
      </trkpt>
      <trkpt lat="43.89673" lon="7.2552">
        <ele>518</ele>
        <time>2018-04-24T11:24:43.000Z</time>
      </trkpt>
      <trkpt lat="43.89666" lon="7.25522">
        <ele>503</ele>
        <time>2018-04-24T11:24:44.000Z</time>
      </trkpt>
      <trkpt lat="43.89658" lon="7.25523">
        <ele>502</ele>
        <time>2018-04-24T11:24:45.000Z</time>
      </trkpt>
      <trkpt lat="43.89652" lon="7.25524">
        <ele>502</ele>
        <time>2018-04-24T11:24:46.000Z</time>
      </trkpt>
      <trkpt lat="43.89645" lon="7.25526">
        <ele>501</ele>
        <time>2018-04-24T11:24:47.000Z</time>
      </trkpt>
      <trkpt lat="43.8964" lon="7.25531">
        <ele>501</ele>
        <time>2018-04-24T11:24:48.000Z</time>
      </trkpt>
      <trkpt lat="43.89636" lon="7.2554">
        <ele>501</ele>
        <time>2018-04-24T11:24:49.000Z</time>
      </trkpt>
      <trkpt lat="43.89634" lon="7.2555">
        <ele>501</ele>
        <time>2018-04-24T11:24:50.000Z</time>
      </trkpt>
      <trkpt lat="43.89631" lon="7.25559">
        <ele>502</ele>
        <time>2018-04-24T11:24:51.000Z</time>
      </trkpt>
      <trkpt lat="43.89627" lon="7.25569">
        <ele>501</ele>
        <time>2018-04-24T11:24:52.000Z</time>
      </trkpt>
      <trkpt lat="43.89623" lon="7.25577">
        <ele>501</ele>
        <time>2018-04-24T11:24:53.000Z</time>
      </trkpt>
      <trkpt lat="43.89617" lon="7.25588">
        <ele>504</ele>
        <time>2018-04-24T11:24:54.000Z</time>
      </trkpt>
      <trkpt lat="43.89607" lon="7.25605">
        <ele>502</ele>
        <time>2018-04-24T11:24:56.000Z</time>
      </trkpt>
      <trkpt lat="43.89604" lon="7.25614">
        <ele>502</ele>
        <time>2018-04-24T11:24:57.000Z</time>
      </trkpt>
      <trkpt lat="43.89601" lon="7.25645">
        <ele>502</ele>
        <time>2018-04-24T11:25:00.000Z</time>
      </trkpt>
      <trkpt lat="43.89585" lon="7.25665">
        <ele>496</ele>
        <time>2018-04-24T11:25:03.000Z</time>
      </trkpt>
      <trkpt lat="43.89565" lon="7.2569">
        <ele>492</ele>
        <time>2018-04-24T11:25:06.000Z</time>
      </trkpt>
      <trkpt lat="43.89559" lon="7.257">
        <ele>491</ele>
        <time>2018-04-24T11:25:07.000Z</time>
      </trkpt>
      <trkpt lat="43.89554" lon="7.25707">
        <ele>491</ele>
        <time>2018-04-24T11:25:08.000Z</time>
      </trkpt>
      <trkpt lat="43.89547" lon="7.25713">
        <ele>490</ele>
        <time>2018-04-24T11:25:09.000Z</time>
      </trkpt>
      <trkpt lat="43.89541" lon="7.25719">
        <ele>490</ele>
        <time>2018-04-24T11:25:10.000Z</time>
      </trkpt>
      <trkpt lat="43.89537" lon="7.25738">
        <ele>488</ele>
        <time>2018-04-24T11:25:12.000Z</time>
      </trkpt>
      <trkpt lat="43.89536" lon="7.25761">
        <ele>485</ele>
        <time>2018-04-24T11:25:14.000Z</time>
      </trkpt>
      <trkpt lat="43.89533" lon="7.25786">
        <ele>485</ele>
        <time>2018-04-24T11:25:16.000Z</time>
      </trkpt>
      <trkpt lat="43.89523" lon="7.25807">
        <ele>483</ele>
        <time>2018-04-24T11:25:18.000Z</time>
      </trkpt>
      <trkpt lat="43.89516" lon="7.25816">
        <ele>480</ele>
        <time>2018-04-24T11:25:19.000Z</time>
      </trkpt>
      <trkpt lat="43.89512" lon="7.25825">
        <ele>477</ele>
        <time>2018-04-24T11:25:20.000Z</time>
      </trkpt>
      <trkpt lat="43.89511" lon="7.25837">
        <ele>477</ele>
        <time>2018-04-24T11:25:21.000Z</time>
      </trkpt>
      <trkpt lat="43.89512" lon="7.25849">
        <ele>481</ele>
        <time>2018-04-24T11:25:22.000Z</time>
      </trkpt>
      <trkpt lat="43.89514" lon="7.25859">
        <ele>484</ele>
        <time>2018-04-24T11:25:23.000Z</time>
      </trkpt>
      <trkpt lat="43.89516" lon="7.25873">
        <ele>486</ele>
        <time>2018-04-24T11:25:24.000Z</time>
      </trkpt>
      <trkpt lat="43.89515" lon="7.25895">
        <ele>485</ele>
        <time>2018-04-24T11:25:26.000Z</time>
      </trkpt>
      <trkpt lat="43.89513" lon="7.25904">
        <ele>483</ele>
        <time>2018-04-24T11:25:27.000Z</time>
      </trkpt>
      <trkpt lat="43.89488" lon="7.25915">
        <ele>466</ele>
        <time>2018-04-24T11:25:30.000Z</time>
      </trkpt>
      <trkpt lat="43.89471" lon="7.25922">
        <ele>465</ele>
        <time>2018-04-24T11:25:32.000Z</time>
      </trkpt>
      <trkpt lat="43.89463" lon="7.25927">
        <ele>463</ele>
        <time>2018-04-24T11:25:33.000Z</time>
      </trkpt>
      <trkpt lat="43.89457" lon="7.25933">
        <ele>461</ele>
        <time>2018-04-24T11:25:34.000Z</time>
      </trkpt>
      <trkpt lat="43.89449" lon="7.25943">
        <ele>460</ele>
        <time>2018-04-24T11:25:35.000Z</time>
      </trkpt>
      <trkpt lat="43.89438" lon="7.25965">
        <ele>460</ele>
        <time>2018-04-24T11:25:37.000Z</time>
      </trkpt>
      <trkpt lat="43.89434" lon="7.25976">
        <ele>460</ele>
        <time>2018-04-24T11:25:38.000Z</time>
      </trkpt>
      <trkpt lat="43.89429" lon="7.25989">
        <ele>459</ele>
        <time>2018-04-24T11:25:39.000Z</time>
      </trkpt>
      <trkpt lat="43.89417" lon="7.26014">
        <ele>465</ele>
        <time>2018-04-24T11:25:41.000Z</time>
      </trkpt>
      <trkpt lat="43.8941" lon="7.26026">
        <ele>443</ele>
        <time>2018-04-24T11:25:42.000Z</time>
      </trkpt>
      <trkpt lat="43.89405" lon="7.26037">
        <ele>442</ele>
        <time>2018-04-24T11:25:43.000Z</time>
      </trkpt>
      <trkpt lat="43.894" lon="7.2605">
        <ele>443</ele>
        <time>2018-04-24T11:25:44.000Z</time>
      </trkpt>
      <trkpt lat="43.89398" lon="7.26065">
        <ele>445</ele>
        <time>2018-04-24T11:25:45.000Z</time>
      </trkpt>
      <trkpt lat="43.89397" lon="7.26095">
        <ele>457</ele>
        <time>2018-04-24T11:25:47.000Z</time>
      </trkpt>
      <trkpt lat="43.89395" lon="7.26108">
        <ele>457</ele>
        <time>2018-04-24T11:25:48.000Z</time>
      </trkpt>
      <trkpt lat="43.89393" lon="7.26121">
        <ele>458</ele>
        <time>2018-04-24T11:25:49.000Z</time>
      </trkpt>
      <trkpt lat="43.8939" lon="7.26131">
        <ele>459</ele>
        <time>2018-04-24T11:25:50.000Z</time>
      </trkpt>
      <trkpt lat="43.89385" lon="7.26142">
        <ele>460</ele>
        <time>2018-04-24T11:25:51.000Z</time>
      </trkpt>
      <trkpt lat="43.89368" lon="7.26149">
        <ele>455</ele>
        <time>2018-04-24T11:25:53.000Z</time>
      </trkpt>
      <trkpt lat="43.8935" lon="7.26157">
        <ele>451</ele>
        <time>2018-04-24T11:25:55.000Z</time>
      </trkpt>
      <trkpt lat="43.8932" lon="7.26171">
        <ele>440</ele>
        <time>2018-04-24T11:25:58.000Z</time>
      </trkpt>
      <trkpt lat="43.8931" lon="7.26173">
        <ele>436</ele>
        <time>2018-04-24T11:25:59.000Z</time>
      </trkpt>
      <trkpt lat="43.893" lon="7.26176">
        <ele>433</ele>
        <time>2018-04-24T11:26:00.000Z</time>
      </trkpt>
      <trkpt lat="43.89291" lon="7.26179">
        <ele>429</ele>
        <time>2018-04-24T11:26:01.000Z</time>
      </trkpt>
      <trkpt lat="43.89285" lon="7.26184">
        <ele>427</ele>
        <time>2018-04-24T11:26:02.000Z</time>
      </trkpt>
      <trkpt lat="43.8928" lon="7.2619">
        <ele>426</ele>
        <time>2018-04-24T11:26:03.000Z</time>
      </trkpt>
      <trkpt lat="43.89279" lon="7.262">
        <ele>427</ele>
        <time>2018-04-24T11:26:04.000Z</time>
      </trkpt>
      <trkpt lat="43.89278" lon="7.2622">
        <ele>427</ele>
        <time>2018-04-24T11:26:06.000Z</time>
      </trkpt>
      <trkpt lat="43.8928" lon="7.26232">
        <ele>428</ele>
        <time>2018-04-24T11:26:07.000Z</time>
      </trkpt>
      <trkpt lat="43.89281" lon="7.26244">
        <ele>428</ele>
        <time>2018-04-24T11:26:08.000Z</time>
      </trkpt>
      <trkpt lat="43.8928" lon="7.26257">
        <ele>436</ele>
        <time>2018-04-24T11:26:09.000Z</time>
      </trkpt>
      <trkpt lat="43.89275" lon="7.2627">
        <ele>436</ele>
        <time>2018-04-24T11:26:10.000Z</time>
      </trkpt>
      <trkpt lat="43.89269" lon="7.2628">
        <ele>435</ele>
        <time>2018-04-24T11:26:11.000Z</time>
      </trkpt>
      <trkpt lat="43.89262" lon="7.26292">
        <ele>435</ele>
        <time>2018-04-24T11:26:12.000Z</time>
      </trkpt>
      <trkpt lat="43.89256" lon="7.26302">
        <ele>434</ele>
        <time>2018-04-24T11:26:13.000Z</time>
      </trkpt>
      <trkpt lat="43.89253" lon="7.26329">
        <ele>422</ele>
        <time>2018-04-24T11:26:15.000Z</time>
      </trkpt>
      <trkpt lat="43.89252" lon="7.26342">
        <ele>432</ele>
        <time>2018-04-24T11:26:16.000Z</time>
      </trkpt>
      <trkpt lat="43.8925" lon="7.26352">
        <ele>411</ele>
        <time>2018-04-24T11:26:17.000Z</time>
      </trkpt>
      <trkpt lat="43.89238" lon="7.26365">
        <ele>410</ele>
        <time>2018-04-24T11:26:19.000Z</time>
      </trkpt>
      <trkpt lat="43.89218" lon="7.26367">
        <ele>405</ele>
        <time>2018-04-24T11:26:21.000Z</time>
      </trkpt>
      <trkpt lat="43.89209" lon="7.2637">
        <ele>403</ele>
        <time>2018-04-24T11:26:22.000Z</time>
      </trkpt>
      <trkpt lat="43.89183" lon="7.2641">
        <ele>395</ele>
        <time>2018-04-24T11:26:26.000Z</time>
      </trkpt>
      <trkpt lat="43.89176" lon="7.26452">
        <ele>413</ele>
        <time>2018-04-24T11:26:29.000Z</time>
      </trkpt>
      <trkpt lat="43.89172" lon="7.26476">
        <ele>413</ele>
        <time>2018-04-24T11:26:31.000Z</time>
      </trkpt>
      <trkpt lat="43.89187" lon="7.26528">
        <ele>431</ele>
        <time>2018-04-24T11:26:35.000Z</time>
      </trkpt>
      <trkpt lat="43.89113" lon="7.26573">
        <ele>402</ele>
        <time>2018-04-24T11:26:46.000Z</time>
      </trkpt>
      <trkpt lat="43.8912" lon="7.26592">
        <ele>418</ele>
        <time>2018-04-24T11:26:48.000Z</time>
      </trkpt>
      <trkpt lat="43.89115" lon="7.26596">
        <ele>417</ele>
        <time>2018-04-24T11:26:49.000Z</time>
      </trkpt>
      <trkpt lat="43.89101" lon="7.2659">
        <ele>411</ele>
        <time>2018-04-24T11:26:51.000Z</time>
      </trkpt>
      <trkpt lat="43.89093" lon="7.26588">
        <ele>406</ele>
        <time>2018-04-24T11:26:52.000Z</time>
      </trkpt>
      <trkpt lat="43.89084" lon="7.26586">
        <ele>400</ele>
        <time>2018-04-24T11:26:53.000Z</time>
      </trkpt>
      <trkpt lat="43.89058" lon="7.26611">
        <ele>401</ele>
        <time>2018-04-24T11:26:56.000Z</time>
      </trkpt>
      <trkpt lat="43.89046" lon="7.26658">
        <ele>404</ele>
        <time>2018-04-24T11:27:00.000Z</time>
      </trkpt>
      <trkpt lat="43.89042" lon="7.26665">
        <ele>403</ele>
        <time>2018-04-24T11:27:01.000Z</time>
      </trkpt>
      <trkpt lat="43.89035" lon="7.26669">
        <ele>411</ele>
        <time>2018-04-24T11:27:02.000Z</time>
      </trkpt>
      <trkpt lat="43.89029" lon="7.26669">
        <ele>409</ele>
        <time>2018-04-24T11:27:03.000Z</time>
      </trkpt>
      <trkpt lat="43.89024" lon="7.26665">
        <ele>400</ele>
        <time>2018-04-24T11:27:04.000Z</time>
      </trkpt>
      <trkpt lat="43.89021" lon="7.26658">
        <ele>399</ele>
        <time>2018-04-24T11:27:05.000Z</time>
      </trkpt>
      <trkpt lat="43.89024" lon="7.26648">
        <ele>400</ele>
        <time>2018-04-24T11:27:06.000Z</time>
      </trkpt>
      <trkpt lat="43.89029" lon="7.26639">
        <ele>400</ele>
        <time>2018-04-24T11:27:07.000Z</time>
      </trkpt>
      <trkpt lat="43.89033" lon="7.26631">
        <ele>401</ele>
        <time>2018-04-24T11:27:08.000Z</time>
      </trkpt>
      <trkpt lat="43.89038" lon="7.26621">
        <ele>400</ele>
        <time>2018-04-24T11:27:09.000Z</time>
      </trkpt>
      <trkpt lat="43.89043" lon="7.26612">
        <ele>400</ele>
        <time>2018-04-24T11:27:10.000Z</time>
      </trkpt>
      <trkpt lat="43.89053" lon="7.26592">
        <ele>399</ele>
        <time>2018-04-24T11:27:12.000Z</time>
      </trkpt>
      <trkpt lat="43.89061" lon="7.26572">
        <ele>397</ele>
        <time>2018-04-24T11:27:14.000Z</time>
      </trkpt>
      <trkpt lat="43.8906" lon="7.26548">
        <ele>396</ele>
        <time>2018-04-24T11:27:16.000Z</time>
      </trkpt>
      <trkpt lat="43.89057" lon="7.26523">
        <ele>396</ele>
        <time>2018-04-24T11:27:18.000Z</time>
      </trkpt>
      <trkpt lat="43.89054" lon="7.26497">
        <ele>400</ele>
        <time>2018-04-24T11:27:20.000Z</time>
      </trkpt>
      <trkpt lat="43.89054" lon="7.26484">
        <ele>401</ele>
        <time>2018-04-24T11:27:21.000Z</time>
      </trkpt>
      <trkpt lat="43.89058" lon="7.26472">
        <ele>402</ele>
        <time>2018-04-24T11:27:22.000Z</time>
      </trkpt>
      <trkpt lat="43.89062" lon="7.26463">
        <ele>402</ele>
        <time>2018-04-24T11:27:23.000Z</time>
      </trkpt>
      <trkpt lat="43.89069" lon="7.26452">
        <ele>401</ele>
        <time>2018-04-24T11:27:24.000Z</time>
      </trkpt>
      <trkpt lat="43.89075" lon="7.26443">
        <ele>399</ele>
        <time>2018-04-24T11:27:25.000Z</time>
      </trkpt>
      <trkpt lat="43.89086" lon="7.26423">
        <ele>387</ele>
        <time>2018-04-24T11:27:27.000Z</time>
      </trkpt>
      <trkpt lat="43.89095" lon="7.26403">
        <ele>383</ele>
        <time>2018-04-24T11:27:29.000Z</time>
      </trkpt>
      <trkpt lat="43.89101" lon="7.26381">
        <ele>381</ele>
        <time>2018-04-24T11:27:31.000Z</time>
      </trkpt>
      <trkpt lat="43.89102" lon="7.2637">
        <ele>380</ele>
        <time>2018-04-24T11:27:32.000Z</time>
      </trkpt>
      <trkpt lat="43.89099" lon="7.26348">
        <ele>379</ele>
        <time>2018-04-24T11:27:34.000Z</time>
      </trkpt>
      <trkpt lat="43.89097" lon="7.26338">
        <ele>380</ele>
        <time>2018-04-24T11:27:35.000Z</time>
      </trkpt>
      <trkpt lat="43.89089" lon="7.26319">
        <ele>375</ele>
        <time>2018-04-24T11:27:37.000Z</time>
      </trkpt>
      <trkpt lat="43.89084" lon="7.26311">
        <ele>373</ele>
        <time>2018-04-24T11:27:38.000Z</time>
      </trkpt>
      <trkpt lat="43.89072" lon="7.26297">
        <ele>388</ele>
        <time>2018-04-24T11:27:40.000Z</time>
      </trkpt>
      <trkpt lat="43.89054" lon="7.26278">
        <ele>389</ele>
        <time>2018-04-24T11:27:43.000Z</time>
      </trkpt>
      <trkpt lat="43.8903" lon="7.26247">
        <ele>387</ele>
        <time>2018-04-24T11:27:47.000Z</time>
      </trkpt>
      <trkpt lat="43.89026" lon="7.26237">
        <ele>387</ele>
        <time>2018-04-24T11:27:48.000Z</time>
      </trkpt>
      <trkpt lat="43.89023" lon="7.26225">
        <ele>387</ele>
        <time>2018-04-24T11:27:49.000Z</time>
      </trkpt>
      <trkpt lat="43.89023" lon="7.26202">
        <ele>386</ele>
        <time>2018-04-24T11:27:51.000Z</time>
      </trkpt>
      <trkpt lat="43.89024" lon="7.26191">
        <ele>386</ele>
        <time>2018-04-24T11:27:52.000Z</time>
      </trkpt>
      <trkpt lat="43.89025" lon="7.26181">
        <ele>387</ele>
        <time>2018-04-24T11:27:53.000Z</time>
      </trkpt>
      <trkpt lat="43.89026" lon="7.26158">
        <ele>382</ele>
        <time>2018-04-24T11:27:55.000Z</time>
      </trkpt>
      <trkpt lat="43.89025" lon="7.26147">
        <ele>381</ele>
        <time>2018-04-24T11:27:56.000Z</time>
      </trkpt>
      <trkpt lat="43.89025" lon="7.26136">
        <ele>379</ele>
        <time>2018-04-24T11:27:57.000Z</time>
      </trkpt>
      <trkpt lat="43.89022" lon="7.26104">
        <ele>379</ele>
        <time>2018-04-24T11:28:00.000Z</time>
      </trkpt>
      <trkpt lat="43.89019" lon="7.26071">
        <ele>375</ele>
        <time>2018-04-24T11:28:03.000Z</time>
      </trkpt>
      <trkpt lat="43.89017" lon="7.26048">
        <ele>371</ele>
        <time>2018-04-24T11:28:05.000Z</time>
      </trkpt>
      <trkpt lat="43.89011" lon="7.26006">
        <ele>373</ele>
        <time>2018-04-24T11:28:09.000Z</time>
      </trkpt>
      <trkpt lat="43.89005" lon="7.25966">
        <ele>359</ele>
        <time>2018-04-24T11:28:13.000Z</time>
      </trkpt>
      <trkpt lat="43.89002" lon="7.25956">
        <ele>357</ele>
        <time>2018-04-24T11:28:14.000Z</time>
      </trkpt>
      <trkpt lat="43.88995" lon="7.25938">
        <ele>377</ele>
        <time>2018-04-24T11:28:16.000Z</time>
      </trkpt>
      <trkpt lat="43.88991" lon="7.25931">
        <ele>374</ele>
        <time>2018-04-24T11:28:17.000Z</time>
      </trkpt>
      <trkpt lat="43.88979" lon="7.25918">
        <ele>377</ele>
        <time>2018-04-24T11:28:19.000Z</time>
      </trkpt>
      <trkpt lat="43.88971" lon="7.25915">
        <ele>370</ele>
        <time>2018-04-24T11:28:20.000Z</time>
      </trkpt>
      <trkpt lat="43.88947" lon="7.25908">
        <ele>379</ele>
        <time>2018-04-24T11:28:23.000Z</time>
      </trkpt>
      <trkpt lat="43.88941" lon="7.25901">
        <ele>380</ele>
        <time>2018-04-24T11:28:24.000Z</time>
      </trkpt>
      <trkpt lat="43.88936" lon="7.25881">
        <ele>378</ele>
        <time>2018-04-24T11:28:26.000Z</time>
      </trkpt>
      <trkpt lat="43.88935" lon="7.2587">
        <ele>377</ele>
        <time>2018-04-24T11:28:27.000Z</time>
      </trkpt>
      <trkpt lat="43.88935" lon="7.25858">
        <ele>377</ele>
        <time>2018-04-24T11:28:28.000Z</time>
      </trkpt>
      <trkpt lat="43.88934" lon="7.25834">
        <ele>378</ele>
        <time>2018-04-24T11:28:30.000Z</time>
      </trkpt>
      <trkpt lat="43.88941" lon="7.25809">
        <ele>369</ele>
        <time>2018-04-24T11:28:32.000Z</time>
      </trkpt>
      <trkpt lat="43.88956" lon="7.25794">
        <ele>365</ele>
        <time>2018-04-24T11:28:34.000Z</time>
      </trkpt>
      <trkpt lat="43.88963" lon="7.2579">
        <ele>364</ele>
        <time>2018-04-24T11:28:35.000Z</time>
      </trkpt>
      <trkpt lat="43.88981" lon="7.25774">
        <ele>360</ele>
        <time>2018-04-24T11:28:37.000Z</time>
      </trkpt>
      <trkpt lat="43.88987" lon="7.25766">
        <ele>358</ele>
        <time>2018-04-24T11:28:38.000Z</time>
      </trkpt>
      <trkpt lat="43.88992" lon="7.25743">
        <ele>353</ele>
        <time>2018-04-24T11:28:40.000Z</time>
      </trkpt>
      <trkpt lat="43.88986" lon="7.25724">
        <ele>355</ele>
        <time>2018-04-24T11:28:42.000Z</time>
      </trkpt>
      <trkpt lat="43.88972" lon="7.25716">
        <ele>357</ele>
        <time>2018-04-24T11:28:44.000Z</time>
      </trkpt>
      <trkpt lat="43.88964" lon="7.25715">
        <ele>358</ele>
        <time>2018-04-24T11:28:45.000Z</time>
      </trkpt>
      <trkpt lat="43.88947" lon="7.25713">
        <ele>361</ele>
        <time>2018-04-24T11:28:47.000Z</time>
      </trkpt>
      <trkpt lat="43.8894" lon="7.25711">
        <ele>362</ele>
        <time>2018-04-24T11:28:48.000Z</time>
      </trkpt>
      <trkpt lat="43.88911" lon="7.25693">
        <ele>383</ele>
        <time>2018-04-24T11:28:52.000Z</time>
      </trkpt>
      <trkpt lat="43.88908" lon="7.25685">
        <ele>381</ele>
        <time>2018-04-24T11:28:53.000Z</time>
      </trkpt>
      <trkpt lat="43.88911" lon="7.25665">
        <ele>375</ele>
        <time>2018-04-24T11:28:55.000Z</time>
      </trkpt>
      <trkpt lat="43.8892" lon="7.25648">
        <ele>366</ele>
        <time>2018-04-24T11:28:57.000Z</time>
      </trkpt>
      <trkpt lat="43.88925" lon="7.25641">
        <ele>366</ele>
        <time>2018-04-24T11:28:58.000Z</time>
      </trkpt>
      <trkpt lat="43.88931" lon="7.25633">
        <ele>366</ele>
        <time>2018-04-24T11:28:59.000Z</time>
      </trkpt>
      <trkpt lat="43.88957" lon="7.25607">
        <ele>362</ele>
        <time>2018-04-24T11:29:03.000Z</time>
      </trkpt>
      <trkpt lat="43.88964" lon="7.25598">
        <ele>360</ele>
        <time>2018-04-24T11:29:04.000Z</time>
      </trkpt>
      <trkpt lat="43.88975" lon="7.25582">
        <ele>362</ele>
        <time>2018-04-24T11:29:06.000Z</time>
      </trkpt>
      <trkpt lat="43.88989" lon="7.25556">
        <ele>362</ele>
        <time>2018-04-24T11:29:09.000Z</time>
      </trkpt>
      <trkpt lat="43.88992" lon="7.25548">
        <ele>364</ele>
        <time>2018-04-24T11:29:10.000Z</time>
      </trkpt>
      <trkpt lat="43.88993" lon="7.2553">
        <ele>365</ele>
        <time>2018-04-24T11:29:12.000Z</time>
      </trkpt>
      <trkpt lat="43.88985" lon="7.25513">
        <ele>365</ele>
        <time>2018-04-24T11:29:14.000Z</time>
      </trkpt>
      <trkpt lat="43.88981" lon="7.25504">
        <ele>366</ele>
        <time>2018-04-24T11:29:15.000Z</time>
      </trkpt>
      <trkpt lat="43.88971" lon="7.25467">
        <ele>384</ele>
        <time>2018-04-24T11:29:19.000Z</time>
      </trkpt>
      <trkpt lat="43.88967" lon="7.25459">
        <ele>387</ele>
        <time>2018-04-24T11:29:20.000Z</time>
      </trkpt>
      <trkpt lat="43.88961" lon="7.25443">
        <ele>391</ele>
        <time>2018-04-24T11:29:22.000Z</time>
      </trkpt>
      <trkpt lat="43.88959" lon="7.25435">
        <ele>392</ele>
        <time>2018-04-24T11:29:23.000Z</time>
      </trkpt>
      <trkpt lat="43.88959" lon="7.25411">
        <ele>394</ele>
        <time>2018-04-24T11:29:26.000Z</time>
      </trkpt>
      <trkpt lat="43.88959" lon="7.25405">
        <ele>393</ele>
        <time>2018-04-24T11:29:27.000Z</time>
      </trkpt>
      <trkpt lat="43.88959" lon="7.25389">
        <ele>393</ele>
        <time>2018-04-24T11:29:30.000Z</time>
      </trkpt>
      <trkpt lat="43.8896" lon="7.25381">
        <ele>392</ele>
        <time>2018-04-24T11:29:32.000Z</time>
      </trkpt>
      <trkpt lat="43.88961" lon="7.25373">
        <ele>391</ele>
        <time>2018-04-24T11:29:34.000Z</time>
      </trkpt>
      <trkpt lat="43.88965" lon="7.25359">
        <ele>389</ele>
        <time>2018-04-24T11:29:38.000Z</time>
      </trkpt>
      <trkpt lat="43.88968" lon="7.25344">
        <ele>385</ele>
        <time>2018-04-24T11:29:42.000Z</time>
      </trkpt>
      <trkpt lat="43.88969" lon="7.25334">
        <ele>384</ele>
        <time>2018-04-24T11:29:45.000Z</time>
      </trkpt>
      <trkpt lat="43.88968" lon="7.25326">
        <ele>365</ele>
        <time>2018-04-24T11:29:48.000Z</time>
      </trkpt>
      <trkpt lat="43.88966" lon="7.2532">
        <ele>366</ele>
        <time>2018-04-24T11:29:50.000Z</time>
      </trkpt>
      <trkpt lat="43.88962" lon="7.25312">
        <ele>366</ele>
        <time>2018-04-24T11:29:53.000Z</time>
      </trkpt>
      <trkpt lat="43.88954" lon="7.25297">
        <ele>365</ele>
        <time>2018-04-24T11:29:59.000Z</time>
      </trkpt>
      <trkpt lat="43.88952" lon="7.25292">
        <ele>365</ele>
        <time>2018-04-24T11:30:01.000Z</time>
      </trkpt>
      <trkpt lat="43.88951" lon="7.25279">
        <ele>361</ele>
        <time>2018-04-24T11:30:06.000Z</time>
      </trkpt>
      <trkpt lat="43.88951" lon="7.2526">
        <ele>356</ele>
        <time>2018-04-24T11:30:13.000Z</time>
      </trkpt>
      <trkpt lat="43.88951" lon="7.25257">
        <ele>356</ele>
        <time>2018-04-24T11:30:14.000Z</time>
      </trkpt>
      <trkpt lat="43.88946" lon="7.25245">
        <ele>333</ele>
        <time>2018-04-24T11:30:19.000Z</time>
      </trkpt>
      <trkpt lat="43.88944" lon="7.2524">
        <ele>334</ele>
        <time>2018-04-24T11:30:21.000Z</time>
      </trkpt>
      <trkpt lat="43.88936" lon="7.25234">
        <ele>337</ele>
        <time>2018-04-24T11:30:25.000Z</time>
      </trkpt>
      <trkpt lat="43.88933" lon="7.2523">
        <ele>337</ele>
        <time>2018-04-24T11:30:27.000Z</time>
      </trkpt>
      <trkpt lat="43.88926" lon="7.25218">
        <ele>334</ele>
        <time>2018-04-24T11:30:32.000Z</time>
      </trkpt>
      <trkpt lat="43.88925" lon="7.25216">
        <ele>333</ele>
        <time>2018-04-24T11:30:33.000Z</time>
      </trkpt>
      <trkpt lat="43.88915" lon="7.25211">
        <ele>375</ele>
        <time>2018-04-24T11:30:37.000Z</time>
      </trkpt>
      <trkpt lat="43.88901" lon="7.25211">
        <ele>378</ele>
        <time>2018-04-24T11:30:43.000Z</time>
      </trkpt>
      <trkpt lat="43.88899" lon="7.25211">
        <ele>378</ele>
        <time>2018-04-24T11:30:44.000Z</time>
      </trkpt>
      <trkpt lat="43.88883" lon="7.25211">
        <ele>384</ele>
        <time>2018-04-24T11:30:50.000Z</time>
      </trkpt>
      <trkpt lat="43.88869" lon="7.252">
        <ele>386</ele>
        <time>2018-04-24T11:30:57.000Z</time>
      </trkpt>
      <trkpt lat="43.88868" lon="7.25198">
        <ele>386</ele>
        <time>2018-04-24T11:30:58.000Z</time>
      </trkpt>
      <trkpt lat="43.88863" lon="7.2518">
        <ele>383</ele>
        <time>2018-04-24T11:31:04.000Z</time>
      </trkpt>
      <trkpt lat="43.88863" lon="7.25177">
        <ele>383</ele>
        <time>2018-04-24T11:31:05.000Z</time>
      </trkpt>
      <trkpt lat="43.88862" lon="7.2516">
        <ele>356</ele>
        <time>2018-04-24T11:31:11.000Z</time>
      </trkpt>
      <trkpt lat="43.88861" lon="7.25158">
        <ele>356</ele>
        <time>2018-04-24T11:31:12.000Z</time>
      </trkpt>
      <trkpt lat="43.88859" lon="7.25156">
        <ele>356</ele>
        <time>2018-04-24T11:31:13.000Z</time>
      </trkpt>
      <trkpt lat="43.88852" lon="7.25148">
        <ele>358</ele>
        <time>2018-04-24T11:31:17.000Z</time>
      </trkpt>
      <trkpt lat="43.8885" lon="7.25147">
        <ele>358</ele>
        <time>2018-04-24T11:31:18.000Z</time>
      </trkpt>
      <trkpt lat="43.88842" lon="7.25142">
        <ele>359</ele>
        <time>2018-04-24T11:31:22.000Z</time>
      </trkpt>
      <trkpt lat="43.88836" lon="7.25139">
        <ele>359</ele>
        <time>2018-04-24T11:31:25.000Z</time>
      </trkpt>
      <trkpt lat="43.88832" lon="7.25138">
        <ele>403</ele>
        <time>2018-04-24T11:31:27.000Z</time>
      </trkpt>
      <trkpt lat="43.8882" lon="7.25133">
        <ele>406</ele>
        <time>2018-04-24T11:31:34.000Z</time>
      </trkpt>
      <trkpt lat="43.88819" lon="7.25132">
        <ele>406</ele>
        <time>2018-04-24T11:31:35.000Z</time>
      </trkpt>
      <trkpt lat="43.88809" lon="7.25128">
        <ele>410</ele>
        <time>2018-04-24T11:31:40.000Z</time>
      </trkpt>
      <trkpt lat="43.88803" lon="7.25126">
        <ele>412</ele>
        <time>2018-04-24T11:31:43.000Z</time>
      </trkpt>
      <trkpt lat="43.88793" lon="7.25119">
        <ele>416</ele>
        <time>2018-04-24T11:31:48.000Z</time>
      </trkpt>
      <trkpt lat="43.88789" lon="7.25114">
        <ele>417</ele>
        <time>2018-04-24T11:31:50.000Z</time>
      </trkpt>
      <trkpt lat="43.88787" lon="7.25109">
        <ele>416</ele>
        <time>2018-04-24T11:31:52.000Z</time>
      </trkpt>
      <trkpt lat="43.88788" lon="7.25106">
        <ele>415</ele>
        <time>2018-04-24T11:31:53.000Z</time>
      </trkpt>
      <trkpt lat="43.88793" lon="7.25093">
        <ele>409</ele>
        <time>2018-04-24T11:31:58.000Z</time>
      </trkpt>
      <trkpt lat="43.88795" lon="7.25075">
        <ele>382</ele>
        <time>2018-04-24T11:32:04.000Z</time>
      </trkpt>
      <trkpt lat="43.88796" lon="7.25073">
        <ele>381</ele>
        <time>2018-04-24T11:32:05.000Z</time>
      </trkpt>
      <trkpt lat="43.88795" lon="7.25056">
        <ele>379</ele>
        <time>2018-04-24T11:32:11.000Z</time>
      </trkpt>
      <trkpt lat="43.88792" lon="7.25046">
        <ele>379</ele>
        <time>2018-04-24T11:32:15.000Z</time>
      </trkpt>
      <trkpt lat="43.88786" lon="7.2504">
        <ele>380</ele>
        <time>2018-04-24T11:32:18.000Z</time>
      </trkpt>
      <trkpt lat="43.88776" lon="7.2503">
        <ele>382</ele>
        <time>2018-04-24T11:32:23.000Z</time>
      </trkpt>
      <trkpt lat="43.8877" lon="7.25024">
        <ele>383</ele>
        <time>2018-04-24T11:32:26.000Z</time>
      </trkpt>
      <trkpt lat="43.88767" lon="7.25019">
        <ele>384</ele>
        <time>2018-04-24T11:32:28.000Z</time>
      </trkpt>
      <trkpt lat="43.88762" lon="7.25007">
        <ele>385</ele>
        <time>2018-04-24T11:32:33.000Z</time>
      </trkpt>
      <trkpt lat="43.88761" lon="7.25004">
        <ele>386</ele>
        <time>2018-04-24T11:32:34.000Z</time>
      </trkpt>
      <trkpt lat="43.88753" lon="7.24992">
        <ele>380</ele>
        <time>2018-04-24T11:32:39.000Z</time>
      </trkpt>
      <trkpt lat="43.88739" lon="7.24987">
        <ele>397</ele>
        <time>2018-04-24T11:32:45.000Z</time>
      </trkpt>
      <trkpt lat="43.8873" lon="7.24989">
        <ele>399</ele>
        <time>2018-04-24T11:32:49.000Z</time>
      </trkpt>
      <trkpt lat="43.88724" lon="7.2499">
        <ele>401</ele>
        <time>2018-04-24T11:32:51.000Z</time>
      </trkpt>
      <trkpt lat="43.88713" lon="7.24993">
        <ele>406</ele>
        <time>2018-04-24T11:32:55.000Z</time>
      </trkpt>
      <trkpt lat="43.88705" lon="7.2499">
        <ele>410</ele>
        <time>2018-04-24T11:32:58.000Z</time>
      </trkpt>
      <trkpt lat="43.88704" lon="7.24986">
        <ele>410</ele>
        <time>2018-04-24T11:32:59.000Z</time>
      </trkpt>
      <trkpt lat="43.88701" lon="7.24977">
        <ele>409</ele>
        <time>2018-04-24T11:33:02.000Z</time>
      </trkpt>
      <trkpt lat="43.887" lon="7.24974">
        <ele>409</ele>
        <time>2018-04-24T11:33:03.000Z</time>
      </trkpt>
      <trkpt lat="43.88695" lon="7.24959">
        <ele>407</ele>
        <time>2018-04-24T11:33:09.000Z</time>
      </trkpt>
      <trkpt lat="43.88694" lon="7.24956">
        <ele>406</ele>
        <time>2018-04-24T11:33:10.000Z</time>
      </trkpt>
      <trkpt lat="43.88689" lon="7.24939">
        <ele>404</ele>
        <time>2018-04-24T11:33:17.000Z</time>
      </trkpt>
      <trkpt lat="43.88688" lon="7.24937">
        <ele>404</ele>
        <time>2018-04-24T11:33:18.000Z</time>
      </trkpt>
      <trkpt lat="43.88682" lon="7.24928">
        <ele>405</ele>
        <time>2018-04-24T11:33:22.000Z</time>
      </trkpt>
      <trkpt lat="43.88677" lon="7.24923">
        <ele>406</ele>
        <time>2018-04-24T11:33:25.000Z</time>
      </trkpt>
      <trkpt lat="43.88665" lon="7.24913">
        <ele>407</ele>
        <time>2018-04-24T11:33:32.000Z</time>
      </trkpt>
      <trkpt lat="43.88653" lon="7.24909">
        <ele>404</ele>
        <time>2018-04-24T11:33:39.000Z</time>
      </trkpt>
      <trkpt lat="43.88641" lon="7.24913">
        <ele>404</ele>
        <time>2018-04-24T11:33:45.000Z</time>
      </trkpt>
      <trkpt lat="43.88622" lon="7.24912">
        <ele>406</ele>
        <time>2018-04-24T11:33:54.000Z</time>
      </trkpt>
      <trkpt lat="43.8862" lon="7.24912">
        <ele>406</ele>
        <time>2018-04-24T11:33:55.000Z</time>
      </trkpt>
      <trkpt lat="43.88605" lon="7.24911">
        <ele>412</ele>
        <time>2018-04-24T11:34:02.000Z</time>
      </trkpt>
      <trkpt lat="43.88598" lon="7.2491">
        <ele>415</ele>
        <time>2018-04-24T11:34:05.000Z</time>
      </trkpt>
      <trkpt lat="43.88589" lon="7.24909">
        <ele>421</ele>
        <time>2018-04-24T11:34:09.000Z</time>
      </trkpt>
      <trkpt lat="43.8857" lon="7.24908">
        <ele>416</ele>
        <time>2018-04-24T11:34:19.000Z</time>
      </trkpt>
      <trkpt lat="43.88559" lon="7.24912">
        <ele>412</ele>
        <time>2018-04-24T11:34:25.000Z</time>
      </trkpt>
      <trkpt lat="43.88555" lon="7.24914">
        <ele>411</ele>
        <time>2018-04-24T11:34:27.000Z</time>
      </trkpt>
      <trkpt lat="43.88552" lon="7.24916">
        <ele>410</ele>
        <time>2018-04-24T11:34:32.000Z</time>
      </trkpt>
      <trkpt lat="43.88552" lon="7.24916">
        <ele>410</ele>
        <time>2018-04-24T11:34:34.000Z</time>
      </trkpt>
      <trkpt lat="43.88551" lon="7.24916">
        <ele>410</ele>
        <time>2018-04-24T11:34:41.000Z</time>
      </trkpt>
      <trkpt lat="43.88551" lon="7.24916">
        <ele>410</ele>
        <time>2018-04-24T11:34:57.000Z</time>
      </trkpt>
      <trkpt lat="43.88548" lon="7.24918">
        <ele>451</ele>
        <time>2018-04-24T11:35:10.000Z</time>
      </trkpt>
      <trkpt lat="43.88547" lon="7.2492">
        <ele>452</ele>
        <time>2018-04-24T11:35:12.000Z</time>
      </trkpt>
      <trkpt lat="43.88542" lon="7.24922">
        <ele>452</ele>
        <time>2018-04-24T11:35:15.000Z</time>
      </trkpt>
      <trkpt lat="43.88531" lon="7.24926">
        <ele>452</ele>
        <time>2018-04-24T11:35:19.000Z</time>
      </trkpt>
      <trkpt lat="43.88529" lon="7.24926">
        <ele>452</ele>
        <time>2018-04-24T11:35:20.000Z</time>
      </trkpt>
      <trkpt lat="43.88519" lon="7.24929">
        <ele>450</ele>
        <time>2018-04-24T11:35:25.000Z</time>
      </trkpt>
      <trkpt lat="43.88507" lon="7.24927">
        <ele>445</ele>
        <time>2018-04-24T11:35:31.000Z</time>
      </trkpt>
      <trkpt lat="43.88503" lon="7.24926">
        <ele>443</ele>
        <time>2018-04-24T11:35:33.000Z</time>
      </trkpt>
      <trkpt lat="43.88492" lon="7.2492">
        <ele>442</ele>
        <time>2018-04-24T11:35:38.000Z</time>
      </trkpt>
      <trkpt lat="43.88482" lon="7.24914">
        <ele>413</ele>
        <time>2018-04-24T11:35:42.000Z</time>
      </trkpt>
      <trkpt lat="43.88471" lon="7.24906">
        <ele>405</ele>
        <time>2018-04-24T11:35:47.000Z</time>
      </trkpt>
      <trkpt lat="43.88468" lon="7.24905">
        <ele>404</ele>
        <time>2018-04-24T11:35:48.000Z</time>
      </trkpt>
      <trkpt lat="43.88451" lon="7.24893">
        <ele>399</ele>
        <time>2018-04-24T11:35:55.000Z</time>
      </trkpt>
      <trkpt lat="43.88446" lon="7.2489">
        <ele>398</ele>
        <time>2018-04-24T11:35:57.000Z</time>
      </trkpt>
      <trkpt lat="43.88431" lon="7.2489">
        <ele>400</ele>
        <time>2018-04-24T11:36:03.000Z</time>
      </trkpt>
      <trkpt lat="43.88421" lon="7.24902">
        <ele>409</ele>
        <time>2018-04-24T11:36:08.000Z</time>
      </trkpt>
      <trkpt lat="43.88412" lon="7.24916">
        <ele>419</ele>
        <time>2018-04-24T11:36:13.000Z</time>
      </trkpt>
      <trkpt lat="43.88406" lon="7.24924">
        <ele>437</ele>
        <time>2018-04-24T11:36:16.000Z</time>
      </trkpt>
      <trkpt lat="43.88398" lon="7.24933">
        <ele>443</ele>
        <time>2018-04-24T11:36:19.000Z</time>
      </trkpt>
      <trkpt lat="43.88396" lon="7.24936">
        <ele>445</ele>
        <time>2018-04-24T11:36:20.000Z</time>
      </trkpt>
      <trkpt lat="43.88394" lon="7.2494">
        <ele>446</ele>
        <time>2018-04-24T11:36:21.000Z</time>
      </trkpt>
      <trkpt lat="43.88385" lon="7.24953">
        <ele>452</ele>
        <time>2018-04-24T11:36:25.000Z</time>
      </trkpt>
      <trkpt lat="43.88381" lon="7.24954">
        <ele>452</ele>
        <time>2018-04-24T11:36:26.000Z</time>
      </trkpt>
      <trkpt lat="43.88375" lon="7.24956">
        <ele>452</ele>
        <time>2018-04-24T11:36:28.000Z</time>
      </trkpt>
      <trkpt lat="43.88368" lon="7.24956">
        <ele>451</ele>
        <time>2018-04-24T11:36:30.000Z</time>
      </trkpt>
      <trkpt lat="43.88362" lon="7.24956">
        <ele>450</ele>
        <time>2018-04-24T11:36:32.000Z</time>
      </trkpt>
      <trkpt lat="43.88353" lon="7.24956">
        <ele>449</ele>
        <time>2018-04-24T11:36:35.000Z</time>
      </trkpt>
      <trkpt lat="43.88341" lon="7.24954">
        <ele>447</ele>
        <time>2018-04-24T11:36:39.000Z</time>
      </trkpt>
      <trkpt lat="43.88335" lon="7.24951">
        <ele>444</ele>
        <time>2018-04-24T11:36:41.000Z</time>
      </trkpt>
      <trkpt lat="43.8832" lon="7.24937">
        <ele>441</ele>
        <time>2018-04-24T11:36:47.000Z</time>
      </trkpt>
      <trkpt lat="43.8831" lon="7.24916">
        <ele>409</ele>
        <time>2018-04-24T11:36:53.000Z</time>
      </trkpt>
      <trkpt lat="43.88298" lon="7.24906">
        <ele>411</ele>
        <time>2018-04-24T11:36:58.000Z</time>
      </trkpt>
      <trkpt lat="43.8829" lon="7.24904">
        <ele>413</ele>
        <time>2018-04-24T11:37:01.000Z</time>
      </trkpt>
      <trkpt lat="43.88277" lon="7.24899">
        <ele>417</ele>
        <time>2018-04-24T11:37:06.000Z</time>
      </trkpt>
      <trkpt lat="43.88257" lon="7.24889">
        <ele>420</ele>
        <time>2018-04-24T11:37:13.000Z</time>
      </trkpt>
      <trkpt lat="43.88255" lon="7.24887">
        <ele>419</ele>
        <time>2018-04-24T11:37:14.000Z</time>
      </trkpt>
      <trkpt lat="43.88243" lon="7.24868">
        <ele>429</ele>
        <time>2018-04-24T11:37:20.000Z</time>
      </trkpt>
      <trkpt lat="43.88232" lon="7.24856">
        <ele>425</ele>
        <time>2018-04-24T11:37:25.000Z</time>
      </trkpt>
      <trkpt lat="43.88221" lon="7.24854">
        <ele>427</ele>
        <time>2018-04-24T11:37:29.000Z</time>
      </trkpt>
      <trkpt lat="43.88216" lon="7.24855">
        <ele>429</ele>
        <time>2018-04-24T11:37:31.000Z</time>
      </trkpt>
      <trkpt lat="43.88201" lon="7.24862">
        <ele>433</ele>
        <time>2018-04-24T11:37:36.000Z</time>
      </trkpt>
      <trkpt lat="43.88198" lon="7.24864">
        <ele>434</ele>
        <time>2018-04-24T11:37:37.000Z</time>
      </trkpt>
      <trkpt lat="43.88174" lon="7.24875">
        <ele>441</ele>
        <time>2018-04-24T11:37:45.000Z</time>
      </trkpt>
      <trkpt lat="43.8817" lon="7.24875">
        <ele>441</ele>
        <time>2018-04-24T11:37:46.000Z</time>
      </trkpt>
      <trkpt lat="43.8816" lon="7.24872">
        <ele>455</ele>
        <time>2018-04-24T11:37:49.000Z</time>
      </trkpt>
      <trkpt lat="43.88149" lon="7.24867">
        <ele>454</ele>
        <time>2018-04-24T11:37:53.000Z</time>
      </trkpt>
      <trkpt lat="43.8814" lon="7.24863">
        <ele>455</ele>
        <time>2018-04-24T11:37:56.000Z</time>
      </trkpt>
      <trkpt lat="43.88127" lon="7.24857">
        <ele>456</ele>
        <time>2018-04-24T11:38:00.000Z</time>
      </trkpt>
      <trkpt lat="43.88121" lon="7.24855">
        <ele>456</ele>
        <time>2018-04-24T11:38:02.000Z</time>
      </trkpt>
      <trkpt lat="43.88111" lon="7.24844">
        <ele>455</ele>
        <time>2018-04-24T11:38:06.000Z</time>
      </trkpt>
      <trkpt lat="43.88105" lon="7.24831">
        <ele>430</ele>
        <time>2018-04-24T11:38:10.000Z</time>
      </trkpt>
      <trkpt lat="43.881" lon="7.24826">
        <ele>432</ele>
        <time>2018-04-24T11:38:12.000Z</time>
      </trkpt>
      <trkpt lat="43.88091" lon="7.24816">
        <ele>432</ele>
        <time>2018-04-24T11:38:16.000Z</time>
      </trkpt>
      <trkpt lat="43.88077" lon="7.24798">
        <ele>456</ele>
        <time>2018-04-24T11:38:22.000Z</time>
      </trkpt>
      <trkpt lat="43.88068" lon="7.24782">
        <ele>454</ele>
        <time>2018-04-24T11:38:27.000Z</time>
      </trkpt>
      <trkpt lat="43.88062" lon="7.24772">
        <ele>452</ele>
        <time>2018-04-24T11:38:30.000Z</time>
      </trkpt>
      <trkpt lat="43.88049" lon="7.24754">
        <ele>455</ele>
        <time>2018-04-24T11:38:36.000Z</time>
      </trkpt>
      <trkpt lat="43.88041" lon="7.24743">
        <ele>434</ele>
        <time>2018-04-24T11:38:40.000Z</time>
      </trkpt>
      <trkpt lat="43.88032" lon="7.24732">
        <ele>436</ele>
        <time>2018-04-24T11:38:44.000Z</time>
      </trkpt>
      <trkpt lat="43.88019" lon="7.24717">
        <ele>436</ele>
        <time>2018-04-24T11:38:50.000Z</time>
      </trkpt>
      <trkpt lat="43.88012" lon="7.2471">
        <ele>435</ele>
        <time>2018-04-24T11:38:53.000Z</time>
      </trkpt>
      <trkpt lat="43.88" lon="7.24699">
        <ele>465</ele>
        <time>2018-04-24T11:38:58.000Z</time>
      </trkpt>
      <trkpt lat="43.87992" lon="7.2469">
        <ele>461</ele>
        <time>2018-04-24T11:39:01.000Z</time>
      </trkpt>
      <trkpt lat="43.87982" lon="7.24669">
        <ele>456</ele>
        <time>2018-04-24T11:39:07.000Z</time>
      </trkpt>
      <trkpt lat="43.87981" lon="7.24666">
        <ele>434</ele>
        <time>2018-04-24T11:39:08.000Z</time>
      </trkpt>
      <trkpt lat="43.8797" lon="7.24645">
        <ele>432</ele>
        <time>2018-04-24T11:39:14.000Z</time>
      </trkpt>
      <trkpt lat="43.87963" lon="7.24637">
        <ele>432</ele>
        <time>2018-04-24T11:39:17.000Z</time>
      </trkpt>
      <trkpt lat="43.87946" lon="7.24625">
        <ele>433</ele>
        <time>2018-04-24T11:39:23.000Z</time>
      </trkpt>
      <trkpt lat="43.87938" lon="7.24621">
        <ele>434</ele>
        <time>2018-04-24T11:39:26.000Z</time>
      </trkpt>
      <trkpt lat="43.87928" lon="7.24622">
        <ele>437</ele>
        <time>2018-04-24T11:39:29.000Z</time>
      </trkpt>
      <trkpt lat="43.87925" lon="7.24623">
        <ele>437</ele>
        <time>2018-04-24T11:39:30.000Z</time>
      </trkpt>
      <trkpt lat="43.87911" lon="7.24625">
        <ele>463</ele>
        <time>2018-04-24T11:39:35.000Z</time>
      </trkpt>
      <trkpt lat="43.87897" lon="7.24618">
        <ele>462</ele>
        <time>2018-04-24T11:39:40.000Z</time>
      </trkpt>
      <trkpt lat="43.87887" lon="7.24607">
        <ele>460</ele>
        <time>2018-04-24T11:39:44.000Z</time>
      </trkpt>
      <trkpt lat="43.87885" lon="7.24603">
        <ele>460</ele>
        <time>2018-04-24T11:39:45.000Z</time>
      </trkpt>
      <trkpt lat="43.87869" lon="7.24578">
        <ele>435</ele>
        <time>2018-04-24T11:39:52.000Z</time>
      </trkpt>
      <trkpt lat="43.87848" lon="7.24571">
        <ele>442</ele>
        <time>2018-04-24T11:39:58.000Z</time>
      </trkpt>
      <trkpt lat="43.8784" lon="7.24569">
        <ele>444</ele>
        <time>2018-04-24T11:40:00.000Z</time>
      </trkpt>
      <trkpt lat="43.87809" lon="7.24562">
        <ele>447</ele>
        <time>2018-04-24T11:40:07.000Z</time>
      </trkpt>
      <trkpt lat="43.87787" lon="7.24558">
        <ele>445</ele>
        <time>2018-04-24T11:40:12.000Z</time>
      </trkpt>
      <trkpt lat="43.87783" lon="7.24557">
        <ele>446</ele>
        <time>2018-04-24T11:40:13.000Z</time>
      </trkpt>
      <trkpt lat="43.87759" lon="7.24553">
        <ele>446</ele>
        <time>2018-04-24T11:40:18.000Z</time>
      </trkpt>
      <trkpt lat="43.87728" lon="7.24547">
        <ele>439</ele>
        <time>2018-04-24T11:40:24.000Z</time>
      </trkpt>
      <trkpt lat="43.87707" lon="7.24547">
        <ele>437</ele>
        <time>2018-04-24T11:40:28.000Z</time>
      </trkpt>
      <trkpt lat="43.87697" lon="7.24553">
        <ele>437</ele>
        <time>2018-04-24T11:40:30.000Z</time>
      </trkpt>
      <trkpt lat="43.87677" lon="7.24569">
        <ele>440</ele>
        <time>2018-04-24T11:40:34.000Z</time>
      </trkpt>
      <trkpt lat="43.87673" lon="7.24574">
        <ele>441</ele>
        <time>2018-04-24T11:40:35.000Z</time>
      </trkpt>
      <trkpt lat="43.87659" lon="7.24583">
        <ele>442</ele>
        <time>2018-04-24T11:40:38.000Z</time>
      </trkpt>
      <trkpt lat="43.87653" lon="7.24586">
        <ele>451</ele>
        <time>2018-04-24T11:40:39.000Z</time>
      </trkpt>
      <trkpt lat="43.87632" lon="7.24599">
        <ele>456</ele>
        <time>2018-04-24T11:40:43.000Z</time>
      </trkpt>
      <trkpt lat="43.87609" lon="7.2461">
        <ele>457</ele>
        <time>2018-04-24T11:40:47.000Z</time>
      </trkpt>
      <trkpt lat="43.87603" lon="7.24613">
        <ele>457</ele>
        <time>2018-04-24T11:40:48.000Z</time>
      </trkpt>
      <trkpt lat="43.87597" lon="7.24617">
        <ele>457</ele>
        <time>2018-04-24T11:40:49.000Z</time>
      </trkpt>
      <trkpt lat="43.87587" lon="7.24621">
        <ele>458</ele>
        <time>2018-04-24T11:40:51.000Z</time>
      </trkpt>
      <trkpt lat="43.87572" lon="7.24618">
        <ele>467</ele>
        <time>2018-04-24T11:40:54.000Z</time>
      </trkpt>
      <trkpt lat="43.87563" lon="7.24603">
        <ele>466</ele>
        <time>2018-04-24T11:40:57.000Z</time>
      </trkpt>
      <trkpt lat="43.87561" lon="7.24581">
        <ele>458</ele>
        <time>2018-04-24T11:41:00.000Z</time>
      </trkpt>
      <trkpt lat="43.8756" lon="7.24574">
        <ele>458</ele>
        <time>2018-04-24T11:41:01.000Z</time>
      </trkpt>
      <trkpt lat="43.87553" lon="7.245">
        <ele>453</ele>
        <time>2018-04-24T11:41:11.000Z</time>
      </trkpt>
      <trkpt lat="43.87548" lon="7.24479">
        <ele>456</ele>
        <time>2018-04-24T11:41:14.000Z</time>
      </trkpt>
      <trkpt lat="43.87542" lon="7.2445">
        <ele>458</ele>
        <time>2018-04-24T11:41:18.000Z</time>
      </trkpt>
      <trkpt lat="43.87545" lon="7.24435">
        <ele>456</ele>
        <time>2018-04-24T11:41:20.000Z</time>
      </trkpt>
      <trkpt lat="43.87548" lon="7.24428">
        <ele>454</ele>
        <time>2018-04-24T11:41:21.000Z</time>
      </trkpt>
      <trkpt lat="43.87555" lon="7.24407">
        <ele>450</ele>
        <time>2018-04-24T11:41:24.000Z</time>
      </trkpt>
      <trkpt lat="43.87557" lon="7.24392">
        <ele>450</ele>
        <time>2018-04-24T11:41:26.000Z</time>
      </trkpt>
      <trkpt lat="43.87561" lon="7.24334">
        <ele>446</ele>
        <time>2018-04-24T11:41:34.000Z</time>
      </trkpt>
      <trkpt lat="43.87555" lon="7.2429">
        <ele>450</ele>
        <time>2018-04-24T11:41:41.000Z</time>
      </trkpt>
      <trkpt lat="43.87547" lon="7.24262">
        <ele>451</ele>
        <time>2018-04-24T11:41:46.000Z</time>
      </trkpt>
      <trkpt lat="43.87542" lon="7.2424">
        <ele>447</ele>
        <time>2018-04-24T11:41:50.000Z</time>
      </trkpt>
      <trkpt lat="43.87531" lon="7.24203">
        <ele>447</ele>
        <time>2018-04-24T11:41:57.000Z</time>
      </trkpt>
      <trkpt lat="43.87519" lon="7.24155">
        <ele>446</ele>
        <time>2018-04-24T11:42:06.000Z</time>
      </trkpt>
      <trkpt lat="43.87517" lon="7.24145">
        <ele>444</ele>
        <time>2018-04-24T11:42:08.000Z</time>
      </trkpt>
      <trkpt lat="43.87512" lon="7.24112">
        <ele>442</ele>
        <time>2018-04-24T11:42:14.000Z</time>
      </trkpt>
      <trkpt lat="43.8751" lon="7.24101">
        <ele>445</ele>
        <time>2018-04-24T11:42:16.000Z</time>
      </trkpt>
      <trkpt lat="43.87504" lon="7.24067">
        <ele>441</ele>
        <time>2018-04-24T11:42:22.000Z</time>
      </trkpt>
      <trkpt lat="43.87501" lon="7.24055">
        <ele>436</ele>
        <time>2018-04-24T11:42:24.000Z</time>
      </trkpt>
      <trkpt lat="43.8749" lon="7.23988">
        <ele>455</ele>
        <time>2018-04-24T11:42:35.000Z</time>
      </trkpt>
      <trkpt lat="43.87485" lon="7.23964">
        <ele>461</ele>
        <time>2018-04-24T11:42:39.000Z</time>
      </trkpt>
      <trkpt lat="43.87479" lon="7.23936">
        <ele>459</ele>
        <time>2018-04-24T11:42:44.000Z</time>
      </trkpt>
      <trkpt lat="43.87473" lon="7.23912">
        <ele>452</ele>
        <time>2018-04-24T11:42:48.000Z</time>
      </trkpt>
      <trkpt lat="43.87466" lon="7.23883">
        <ele>456</ele>
        <time>2018-04-24T11:42:53.000Z</time>
      </trkpt>
      <trkpt lat="43.87462" lon="7.2387">
        <ele>456</ele>
        <time>2018-04-24T11:42:55.000Z</time>
      </trkpt>
      <trkpt lat="43.87449" lon="7.23823">
        <ele>448</ele>
        <time>2018-04-24T11:43:03.000Z</time>
      </trkpt>
      <trkpt lat="43.87434" lon="7.23772">
        <ele>447</ele>
        <time>2018-04-24T11:43:12.000Z</time>
      </trkpt>
      <trkpt lat="43.87433" lon="7.23766">
        <ele>447</ele>
        <time>2018-04-24T11:43:13.000Z</time>
      </trkpt>
      <trkpt lat="43.87426" lon="7.23739">
        <ele>442</ele>
        <time>2018-04-24T11:43:18.000Z</time>
      </trkpt>
      <trkpt lat="43.87411" lon="7.23724">
        <ele>454</ele>
        <time>2018-04-24T11:43:22.000Z</time>
      </trkpt>
      <trkpt lat="43.87406" lon="7.23721">
        <ele>454</ele>
        <time>2018-04-24T11:43:23.000Z</time>
      </trkpt>
      <trkpt lat="43.87379" lon="7.23706">
        <ele>455</ele>
        <time>2018-04-24T11:43:29.000Z</time>
      </trkpt>
      <trkpt lat="43.87365" lon="7.23699">
        <ele>456</ele>
        <time>2018-04-24T11:43:32.000Z</time>
      </trkpt>
      <trkpt lat="43.87355" lon="7.23694">
        <ele>456</ele>
        <time>2018-04-24T11:43:34.000Z</time>
      </trkpt>
      <trkpt lat="43.87351" lon="7.23691">
        <ele>456</ele>
        <time>2018-04-24T11:43:35.000Z</time>
      </trkpt>
      <trkpt lat="43.8734" lon="7.2368">
        <ele>456</ele>
        <time>2018-04-24T11:43:38.000Z</time>
      </trkpt>
      <trkpt lat="43.8734" lon="7.2367">
        <ele>456</ele>
        <time>2018-04-24T11:43:39.000Z</time>
      </trkpt>
      <trkpt lat="43.8734" lon="7.23662">
        <ele>453</ele>
        <time>2018-04-24T11:43:40.000Z</time>
      </trkpt>
      <trkpt lat="43.87344" lon="7.23613">
        <ele>448</ele>
        <time>2018-04-24T11:43:47.000Z</time>
      </trkpt>
      <trkpt lat="43.87346" lon="7.23573">
        <ele>450</ele>
        <time>2018-04-24T11:43:54.000Z</time>
      </trkpt>
      <trkpt lat="43.87344" lon="7.23551">
        <ele>449</ele>
        <time>2018-04-24T11:43:59.000Z</time>
      </trkpt>
      <trkpt lat="43.87343" lon="7.23547">
        <ele>449</ele>
        <time>2018-04-24T11:44:00.000Z</time>
      </trkpt>
      <trkpt lat="43.87335" lon="7.23526">
        <ele>451</ele>
        <time>2018-04-24T11:44:05.000Z</time>
      </trkpt>
      <trkpt lat="43.8733" lon="7.23515">
        <ele>464</ele>
        <time>2018-04-24T11:44:08.000Z</time>
      </trkpt>
      <trkpt lat="43.87317" lon="7.23485">
        <ele>469</ele>
        <time>2018-04-24T11:44:15.000Z</time>
      </trkpt>
      <trkpt lat="43.87317" lon="7.2348">
        <ele>470</ele>
        <time>2018-04-24T11:44:16.000Z</time>
      </trkpt>
      <trkpt lat="43.8732" lon="7.23461">
        <ele>473</ele>
        <time>2018-04-24T11:44:20.000Z</time>
      </trkpt>
      <trkpt lat="43.87325" lon="7.2345">
        <ele>473</ele>
        <time>2018-04-24T11:44:23.000Z</time>
      </trkpt>
      <trkpt lat="43.87328" lon="7.23447">
        <ele>473</ele>
        <time>2018-04-24T11:44:24.000Z</time>
      </trkpt>
      <trkpt lat="43.87349" lon="7.23435">
        <ele>461</ele>
        <time>2018-04-24T11:44:31.000Z</time>
      </trkpt>
      <trkpt lat="43.87354" lon="7.23432">
        <ele>461</ele>
        <time>2018-04-24T11:44:33.000Z</time>
      </trkpt>
      <trkpt lat="43.87368" lon="7.23419">
        <ele>458</ele>
        <time>2018-04-24T11:44:38.000Z</time>
      </trkpt>
      <trkpt lat="43.87375" lon="7.23412">
        <ele>466</ele>
        <time>2018-04-24T11:44:41.000Z</time>
      </trkpt>
      <trkpt lat="43.87382" lon="7.23403">
        <ele>465</ele>
        <time>2018-04-24T11:44:44.000Z</time>
      </trkpt>
      <trkpt lat="43.87387" lon="7.23392">
        <ele>465</ele>
        <time>2018-04-24T11:44:47.000Z</time>
      </trkpt>
      <trkpt lat="43.8739" lon="7.23372">
        <ele>467</ele>
        <time>2018-04-24T11:44:52.000Z</time>
      </trkpt>
      <trkpt lat="43.8739" lon="7.23368">
        <ele>468</ele>
        <time>2018-04-24T11:44:53.000Z</time>
      </trkpt>
      <trkpt lat="43.87391" lon="7.23342">
        <ele>469</ele>
        <time>2018-04-24T11:44:59.000Z</time>
      </trkpt>
      <trkpt lat="43.87392" lon="7.23337">
        <ele>469</ele>
        <time>2018-04-24T11:45:00.000Z</time>
      </trkpt>
      <trkpt lat="43.87396" lon="7.23321">
        <ele>480</ele>
        <time>2018-04-24T11:45:04.000Z</time>
      </trkpt>
      <trkpt lat="43.87405" lon="7.23309">
        <ele>481</ele>
        <time>2018-04-24T11:45:08.000Z</time>
      </trkpt>
      <trkpt lat="43.87411" lon="7.23305">
        <ele>482</ele>
        <time>2018-04-24T11:45:10.000Z</time>
      </trkpt>
      <trkpt lat="43.87425" lon="7.23297">
        <ele>460</ele>
        <time>2018-04-24T11:45:15.000Z</time>
      </trkpt>
      <trkpt lat="43.87431" lon="7.23295">
        <ele>460</ele>
        <time>2018-04-24T11:45:17.000Z</time>
      </trkpt>
      <trkpt lat="43.87453" lon="7.23287">
        <ele>455</ele>
        <time>2018-04-24T11:45:25.000Z</time>
      </trkpt>
      <trkpt lat="43.87469" lon="7.23275">
        <ele>451</ele>
        <time>2018-04-24T11:45:32.000Z</time>
      </trkpt>
      <trkpt lat="43.87476" lon="7.23259">
        <ele>448</ele>
        <time>2018-04-24T11:45:37.000Z</time>
      </trkpt>
      <trkpt lat="43.87476" lon="7.23256">
        <ele>447</ele>
        <time>2018-04-24T11:45:38.000Z</time>
      </trkpt>
      <trkpt lat="43.87474" lon="7.23237">
        <ele>449</ele>
        <time>2018-04-24T11:45:43.000Z</time>
      </trkpt>
      <trkpt lat="43.87463" lon="7.23203">
        <ele>452</ele>
        <time>2018-04-24T11:45:52.000Z</time>
      </trkpt>
      <trkpt lat="43.87443" lon="7.23163">
        <ele>447</ele>
        <time>2018-04-24T11:46:02.000Z</time>
      </trkpt>
      <trkpt lat="43.87431" lon="7.23149">
        <ele>450</ele>
        <time>2018-04-24T11:46:06.000Z</time>
      </trkpt>
      <trkpt lat="43.87427" lon="7.23147">
        <ele>450</ele>
        <time>2018-04-24T11:46:07.000Z</time>
      </trkpt>
      <trkpt lat="43.87402" lon="7.23138">
        <ele>475</ele>
        <time>2018-04-24T11:46:13.000Z</time>
      </trkpt>
      <trkpt lat="43.87394" lon="7.23134">
        <ele>475</ele>
        <time>2018-04-24T11:46:15.000Z</time>
      </trkpt>
      <trkpt lat="43.87379" lon="7.23121">
        <ele>476</ele>
        <time>2018-04-24T11:46:19.000Z</time>
      </trkpt>
      <trkpt lat="43.87364" lon="7.23109">
        <ele>476</ele>
        <time>2018-04-24T11:46:23.000Z</time>
      </trkpt>
      <trkpt lat="43.87339" lon="7.23093">
        <ele>476</ele>
        <time>2018-04-24T11:46:29.000Z</time>
      </trkpt>
      <trkpt lat="43.87313" lon="7.23077">
        <ele>477</ele>
        <time>2018-04-24T11:46:35.000Z</time>
      </trkpt>
      <trkpt lat="43.87288" lon="7.23054">
        <ele>480</ele>
        <time>2018-04-24T11:46:41.000Z</time>
      </trkpt>
      <trkpt lat="43.87257" lon="7.23021">
        <ele>480</ele>
        <time>2018-04-24T11:46:49.000Z</time>
      </trkpt>
      <trkpt lat="43.87252" lon="7.23011">
        <ele>480</ele>
        <time>2018-04-24T11:46:51.000Z</time>
      </trkpt>
      <trkpt lat="43.87246" lon="7.22995">
        <ele>488</ele>
        <time>2018-04-24T11:46:54.000Z</time>
      </trkpt>
      <trkpt lat="43.87245" lon="7.22989">
        <ele>492</ele>
        <time>2018-04-24T11:46:55.000Z</time>
      </trkpt>
      <trkpt lat="43.8724" lon="7.22972">
        <ele>498</ele>
        <time>2018-04-24T11:46:58.000Z</time>
      </trkpt>
      <trkpt lat="43.87235" lon="7.22955">
        <ele>500</ele>
        <time>2018-04-24T11:47:01.000Z</time>
      </trkpt>
      <trkpt lat="43.87228" lon="7.22936">
        <ele>499</ele>
        <time>2018-04-24T11:47:05.000Z</time>
      </trkpt>
      <trkpt lat="43.87226" lon="7.2293">
        <ele>498</ele>
        <time>2018-04-24T11:47:07.000Z</time>
      </trkpt>
      <trkpt lat="43.87226" lon="7.22928">
        <ele>498</ele>
        <time>2018-04-24T11:47:08.000Z</time>
      </trkpt>
      <trkpt lat="43.87226" lon="7.22926">
        <ele>498</ele>
        <time>2018-04-24T11:47:09.000Z</time>
      </trkpt>
      <trkpt lat="43.87226" lon="7.22924">
        <ele>498</ele>
        <time>2018-04-24T11:47:12.000Z</time>
      </trkpt>
      <trkpt lat="43.87226" lon="7.22922">
        <ele>497</ele>
        <time>2018-04-24T11:47:22.000Z</time>
      </trkpt>
      <trkpt lat="43.87226" lon="7.22922">
        <ele>497</ele>
        <time>2018-04-24T11:47:25.000Z</time>
      </trkpt>
      <trkpt lat="43.87227" lon="7.22916">
        <ele>492</ele>
        <time>2018-04-24T11:47:43.000Z</time>
      </trkpt>
      <trkpt lat="43.87228" lon="7.22904">
        <ele>493</ele>
        <time>2018-04-24T11:47:48.000Z</time>
      </trkpt>
      <trkpt lat="43.87229" lon="7.22887">
        <ele>494</ele>
        <time>2018-04-24T11:47:54.000Z</time>
      </trkpt>
      <trkpt lat="43.87229" lon="7.22885">
        <ele>494</ele>
        <time>2018-04-24T11:47:55.000Z</time>
      </trkpt>
      <trkpt lat="43.87233" lon="7.22872">
        <ele>494</ele>
        <time>2018-04-24T11:47:59.000Z</time>
      </trkpt>
      <trkpt lat="43.87243" lon="7.22856">
        <ele>489</ele>
        <time>2018-04-24T11:48:04.000Z</time>
      </trkpt>
      <trkpt lat="43.87245" lon="7.22853">
        <ele>488</ele>
        <time>2018-04-24T11:48:05.000Z</time>
      </trkpt>
      <trkpt lat="43.87254" lon="7.22835">
        <ele>472</ele>
        <time>2018-04-24T11:48:10.000Z</time>
      </trkpt>
      <trkpt lat="43.87254" lon="7.22831">
        <ele>471</ele>
        <time>2018-04-24T11:48:11.000Z</time>
      </trkpt>
      <trkpt lat="43.87252" lon="7.22823">
        <ele>466</ele>
        <time>2018-04-24T11:48:13.000Z</time>
      </trkpt>
      <trkpt lat="43.8725" lon="7.22819">
        <ele>480</ele>
        <time>2018-04-24T11:48:14.000Z</time>
      </trkpt>
      <trkpt lat="43.87248" lon="7.22815">
        <ele>480</ele>
        <time>2018-04-24T11:48:15.000Z</time>
      </trkpt>
      <trkpt lat="43.87235" lon="7.22793">
        <ele>481</ele>
        <time>2018-04-24T11:48:21.000Z</time>
      </trkpt>
      <trkpt lat="43.87233" lon="7.22789">
        <ele>481</ele>
        <time>2018-04-24T11:48:22.000Z</time>
      </trkpt>
      <trkpt lat="43.87221" lon="7.22771">
        <ele>480</ele>
        <time>2018-04-24T11:48:27.000Z</time>
      </trkpt>
      <trkpt lat="43.87217" lon="7.22764">
        <ele>480</ele>
        <time>2018-04-24T11:48:29.000Z</time>
      </trkpt>
      <trkpt lat="43.87207" lon="7.22745">
        <ele>467</ele>
        <time>2018-04-24T11:48:34.000Z</time>
      </trkpt>
      <trkpt lat="43.87203" lon="7.22738">
        <ele>467</ele>
        <time>2018-04-24T11:48:36.000Z</time>
      </trkpt>
      <trkpt lat="43.87192" lon="7.22722">
        <ele>467</ele>
        <time>2018-04-24T11:48:41.000Z</time>
      </trkpt>
      <trkpt lat="43.87178" lon="7.22715">
        <ele>468</ele>
        <time>2018-04-24T11:48:46.000Z</time>
      </trkpt>
      <trkpt lat="43.87169" lon="7.22721">
        <ele>471</ele>
        <time>2018-04-24T11:48:50.000Z</time>
      </trkpt>
      <trkpt lat="43.87167" lon="7.22724">
        <ele>476</ele>
        <time>2018-04-24T11:48:51.000Z</time>
      </trkpt>
      <trkpt lat="43.87163" lon="7.22729">
        <ele>477</ele>
        <time>2018-04-24T11:48:53.000Z</time>
      </trkpt>
      <trkpt lat="43.87154" lon="7.22747">
        <ele>481</ele>
        <time>2018-04-24T11:48:58.000Z</time>
      </trkpt>
      <trkpt lat="43.87142" lon="7.22764">
        <ele>495</ele>
        <time>2018-04-24T11:49:03.000Z</time>
      </trkpt>
      <trkpt lat="43.87133" lon="7.22778">
        <ele>497</ele>
        <time>2018-04-24T11:49:07.000Z</time>
      </trkpt>
      <trkpt lat="43.87124" lon="7.22792">
        <ele>499</ele>
        <time>2018-04-24T11:49:11.000Z</time>
      </trkpt>
      <trkpt lat="43.8712" lon="7.22793">
        <ele>499</ele>
        <time>2018-04-24T11:49:12.000Z</time>
      </trkpt>
      <trkpt lat="43.87115" lon="7.22798">
        <ele>500</ele>
        <time>2018-04-24T11:49:14.000Z</time>
      </trkpt>
      <trkpt lat="43.87109" lon="7.22804">
        <ele>501</ele>
        <time>2018-04-24T11:49:16.000Z</time>
      </trkpt>
      <trkpt lat="43.87099" lon="7.22816">
        <ele>505</ele>
        <time>2018-04-24T11:49:20.000Z</time>
      </trkpt>
      <trkpt lat="43.87083" lon="7.22829">
        <ele>514</ele>
        <time>2018-04-24T11:49:25.000Z</time>
      </trkpt>
      <trkpt lat="43.87078" lon="7.2283">
        <ele>514</ele>
        <time>2018-04-24T11:49:27.000Z</time>
      </trkpt>
      <trkpt lat="43.87072" lon="7.22827">
        <ele>513</ele>
        <time>2018-04-24T11:49:29.000Z</time>
      </trkpt>
      <trkpt lat="43.87061" lon="7.22821">
        <ele>513</ele>
        <time>2018-04-24T11:49:33.000Z</time>
      </trkpt>
      <trkpt lat="43.87054" lon="7.22816">
        <ele>513</ele>
        <time>2018-04-24T11:49:35.000Z</time>
      </trkpt>
      <trkpt lat="43.87043" lon="7.22803">
        <ele>512</ele>
        <time>2018-04-24T11:49:39.000Z</time>
      </trkpt>
      <trkpt lat="43.87039" lon="7.22795">
        <ele>511</ele>
        <time>2018-04-24T11:49:41.000Z</time>
      </trkpt>
      <trkpt lat="43.87037" lon="7.2279">
        <ele>510</ele>
        <time>2018-04-24T11:49:42.000Z</time>
      </trkpt>
      <trkpt lat="43.87032" lon="7.22778">
        <ele>509</ele>
        <time>2018-04-24T11:49:45.000Z</time>
      </trkpt>
      <trkpt lat="43.87024" lon="7.22762">
        <ele>508</ele>
        <time>2018-04-24T11:49:49.000Z</time>
      </trkpt>
      <trkpt lat="43.87018" lon="7.22751">
        <ele>508</ele>
        <time>2018-04-24T11:49:52.000Z</time>
      </trkpt>
      <trkpt lat="43.87009" lon="7.22734">
        <ele>491</ele>
        <time>2018-04-24T11:49:57.000Z</time>
      </trkpt>
      <trkpt lat="43.86995" lon="7.22719">
        <ele>492</ele>
        <time>2018-04-24T11:50:03.000Z</time>
      </trkpt>
      <trkpt lat="43.86992" lon="7.22717">
        <ele>492</ele>
        <time>2018-04-24T11:50:04.000Z</time>
      </trkpt>
      <trkpt lat="43.86971" lon="7.22713">
        <ele>490</ele>
        <time>2018-04-24T11:50:11.000Z</time>
      </trkpt>
      <trkpt lat="43.86961" lon="7.22716">
        <ele>490</ele>
        <time>2018-04-24T11:50:14.000Z</time>
      </trkpt>
      <trkpt lat="43.86955" lon="7.2272">
        <ele>490</ele>
        <time>2018-04-24T11:50:16.000Z</time>
      </trkpt>
      <trkpt lat="43.86937" lon="7.22735">
        <ele>493</ele>
        <time>2018-04-24T11:50:23.000Z</time>
      </trkpt>
      <trkpt lat="43.86931" lon="7.22741">
        <ele>495</ele>
        <time>2018-04-24T11:50:25.000Z</time>
      </trkpt>
      <trkpt lat="43.86916" lon="7.22756">
        <ele>502</ele>
        <time>2018-04-24T11:50:31.000Z</time>
      </trkpt>
      <trkpt lat="43.86904" lon="7.22776">
        <ele>506</ele>
        <time>2018-04-24T11:50:38.000Z</time>
      </trkpt>
      <trkpt lat="43.86902" lon="7.22781">
        <ele>507</ele>
        <time>2018-04-24T11:50:39.000Z</time>
      </trkpt>
      <trkpt lat="43.86895" lon="7.22802">
        <ele>511</ele>
        <time>2018-04-24T11:50:44.000Z</time>
      </trkpt>
      <trkpt lat="43.86892" lon="7.22809">
        <ele>512</ele>
        <time>2018-04-24T11:50:46.000Z</time>
      </trkpt>
      <trkpt lat="43.86881" lon="7.22825">
        <ele>512</ele>
        <time>2018-04-24T11:50:51.000Z</time>
      </trkpt>
      <trkpt lat="43.86878" lon="7.22826">
        <ele>512</ele>
        <time>2018-04-24T11:50:52.000Z</time>
      </trkpt>
      <trkpt lat="43.86868" lon="7.22825">
        <ele>510</ele>
        <time>2018-04-24T11:50:55.000Z</time>
      </trkpt>
      <trkpt lat="43.86864" lon="7.22823">
        <ele>509</ele>
        <time>2018-04-24T11:50:57.000Z</time>
      </trkpt>
      <trkpt lat="43.86853" lon="7.22824">
        <ele>508</ele>
        <time>2018-04-24T11:51:01.000Z</time>
      </trkpt>
      <trkpt lat="43.86841" lon="7.22834">
        <ele>517</ele>
        <time>2018-04-24T11:51:06.000Z</time>
      </trkpt>
      <trkpt lat="43.86838" lon="7.22836">
        <ele>515</ele>
        <time>2018-04-24T11:51:07.000Z</time>
      </trkpt>
      <trkpt lat="43.86833" lon="7.22839">
        <ele>513</ele>
        <time>2018-04-24T11:51:09.000Z</time>
      </trkpt>
      <trkpt lat="43.86831" lon="7.22842">
        <ele>515</ele>
        <time>2018-04-24T11:51:10.000Z</time>
      </trkpt>
      <trkpt lat="43.86826" lon="7.22847">
        <ele>518</ele>
        <time>2018-04-24T11:51:12.000Z</time>
      </trkpt>
      <trkpt lat="43.86819" lon="7.22856">
        <ele>522</ele>
        <time>2018-04-24T11:51:15.000Z</time>
      </trkpt>
      <trkpt lat="43.86805" lon="7.2286">
        <ele>524</ele>
        <time>2018-04-24T11:51:20.000Z</time>
      </trkpt>
      <trkpt lat="43.86803" lon="7.22859">
        <ele>524</ele>
        <time>2018-04-24T11:51:21.000Z</time>
      </trkpt>
      <trkpt lat="43.86788" lon="7.22859">
        <ele>524</ele>
        <time>2018-04-24T11:51:27.000Z</time>
      </trkpt>
      <trkpt lat="43.86782" lon="7.2286">
        <ele>524</ele>
        <time>2018-04-24T11:51:29.000Z</time>
      </trkpt>
      <trkpt lat="43.8677" lon="7.22863">
        <ele>524</ele>
        <time>2018-04-24T11:51:33.000Z</time>
      </trkpt>
      <trkpt lat="43.86755" lon="7.22865">
        <ele>524</ele>
        <time>2018-04-24T11:51:38.000Z</time>
      </trkpt>
      <trkpt lat="43.86752" lon="7.22866">
        <ele>524</ele>
        <time>2018-04-24T11:51:39.000Z</time>
      </trkpt>
      <trkpt lat="43.86744" lon="7.22871">
        <ele>523</ele>
        <time>2018-04-24T11:51:42.000Z</time>
      </trkpt>
      <trkpt lat="43.8673" lon="7.22876">
        <ele>524</ele>
        <time>2018-04-24T11:51:46.000Z</time>
      </trkpt>
      <trkpt lat="43.86723" lon="7.22879">
        <ele>524</ele>
        <time>2018-04-24T11:51:48.000Z</time>
      </trkpt>
      <trkpt lat="43.86713" lon="7.22883">
        <ele>525</ele>
        <time>2018-04-24T11:51:51.000Z</time>
      </trkpt>
      <trkpt lat="43.86708" lon="7.22882">
        <ele>524</ele>
        <time>2018-04-24T11:51:53.000Z</time>
      </trkpt>
      <trkpt lat="43.86702" lon="7.22872">
        <ele>523</ele>
        <time>2018-04-24T11:51:56.000Z</time>
      </trkpt>
      <trkpt lat="43.867" lon="7.2287">
        <ele>522</ele>
        <time>2018-04-24T11:51:57.000Z</time>
      </trkpt>
      <trkpt lat="43.86684" lon="7.22859">
        <ele>520</ele>
        <time>2018-04-24T11:52:02.000Z</time>
      </trkpt>
      <trkpt lat="43.86677" lon="7.22857">
        <ele>519</ele>
        <time>2018-04-24T11:52:04.000Z</time>
      </trkpt>
      <trkpt lat="43.86665" lon="7.22857">
        <ele>521</ele>
        <time>2018-04-24T11:52:07.000Z</time>
      </trkpt>
      <trkpt lat="43.86663" lon="7.22856">
        <ele>521</ele>
        <time>2018-04-24T11:52:08.000Z</time>
      </trkpt>
      <trkpt lat="43.8666" lon="7.22857">
        <ele>521</ele>
        <time>2018-04-24T11:52:09.000Z</time>
      </trkpt>
      <trkpt lat="43.86644" lon="7.22869">
        <ele>525</ele>
        <time>2018-04-24T11:52:14.000Z</time>
      </trkpt>
      <trkpt lat="43.86633" lon="7.22876">
        <ele>526</ele>
        <time>2018-04-24T11:52:17.000Z</time>
      </trkpt>
      <trkpt lat="43.86629" lon="7.22878">
        <ele>527</ele>
        <time>2018-04-24T11:52:18.000Z</time>
      </trkpt>
      <trkpt lat="43.86614" lon="7.22877">
        <ele>527</ele>
        <time>2018-04-24T11:52:22.000Z</time>
      </trkpt>
      <trkpt lat="43.86604" lon="7.22856">
        <ele>527</ele>
        <time>2018-04-24T11:52:26.000Z</time>
      </trkpt>
      <trkpt lat="43.86607" lon="7.22838">
        <ele>527</ele>
        <time>2018-04-24T11:52:29.000Z</time>
      </trkpt>
      <trkpt lat="43.86608" lon="7.22832">
        <ele>523</ele>
        <time>2018-04-24T11:52:30.000Z</time>
      </trkpt>
      <trkpt lat="43.8661" lon="7.22827">
        <ele>523</ele>
        <time>2018-04-24T11:52:31.000Z</time>
      </trkpt>
      <trkpt lat="43.86619" lon="7.22812">
        <ele>521</ele>
        <time>2018-04-24T11:52:35.000Z</time>
      </trkpt>
      <trkpt lat="43.86635" lon="7.22791">
        <ele>519</ele>
        <time>2018-04-24T11:52:41.000Z</time>
      </trkpt>
      <trkpt lat="43.86638" lon="7.22788">
        <ele>519</ele>
        <time>2018-04-24T11:52:42.000Z</time>
      </trkpt>
      <trkpt lat="43.86639" lon="7.22783">
        <ele>519</ele>
        <time>2018-04-24T11:52:43.000Z</time>
      </trkpt>
      <trkpt lat="43.86642" lon="7.22774">
        <ele>518</ele>
        <time>2018-04-24T11:52:45.000Z</time>
      </trkpt>
      <trkpt lat="43.86658" lon="7.22754">
        <ele>515</ele>
        <time>2018-04-24T11:52:51.000Z</time>
      </trkpt>
      <trkpt lat="43.86661" lon="7.22751">
        <ele>515</ele>
        <time>2018-04-24T11:52:52.000Z</time>
      </trkpt>
      <trkpt lat="43.86674" lon="7.22735">
        <ele>509</ele>
        <time>2018-04-24T11:52:57.000Z</time>
      </trkpt>
      <trkpt lat="43.86676" lon="7.22732">
        <ele>508</ele>
        <time>2018-04-24T11:52:58.000Z</time>
      </trkpt>
      <trkpt lat="43.86694" lon="7.22705">
        <ele>506</ele>
        <time>2018-04-24T11:53:06.000Z</time>
      </trkpt>
      <trkpt lat="43.86702" lon="7.22677">
        <ele>506</ele>
        <time>2018-04-24T11:53:13.000Z</time>
      </trkpt>
      <trkpt lat="43.86702" lon="7.22661">
        <ele>505</ele>
        <time>2018-04-24T11:53:17.000Z</time>
      </trkpt>
      <trkpt lat="43.867" lon="7.22658">
        <ele>505</ele>
        <time>2018-04-24T11:53:18.000Z</time>
      </trkpt>
      <trkpt lat="43.86686" lon="7.22654">
        <ele>507</ele>
        <time>2018-04-24T11:53:22.000Z</time>
      </trkpt>
      <trkpt lat="43.86682" lon="7.22655">
        <ele>508</ele>
        <time>2018-04-24T11:53:23.000Z</time>
      </trkpt>
      <trkpt lat="43.86659" lon="7.22658">
        <ele>511</ele>
        <time>2018-04-24T11:53:28.000Z</time>
      </trkpt>
      <trkpt lat="43.86649" lon="7.2266">
        <ele>510</ele>
        <time>2018-04-24T11:53:30.000Z</time>
      </trkpt>
      <trkpt lat="43.8664" lon="7.22665">
        <ele>509</ele>
        <time>2018-04-24T11:53:32.000Z</time>
      </trkpt>
      <trkpt lat="43.86626" lon="7.22675">
        <ele>515</ele>
        <time>2018-04-24T11:53:35.000Z</time>
      </trkpt>
      <trkpt lat="43.86621" lon="7.22678">
        <ele>515</ele>
        <time>2018-04-24T11:53:36.000Z</time>
      </trkpt>
      <trkpt lat="43.86588" lon="7.22705">
        <ele>516</ele>
        <time>2018-04-24T11:53:43.000Z</time>
      </trkpt>
      <trkpt lat="43.86573" lon="7.22715">
        <ele>520</ele>
        <time>2018-04-24T11:53:46.000Z</time>
      </trkpt>
      <trkpt lat="43.86562" lon="7.22718">
        <ele>520</ele>
        <time>2018-04-24T11:53:48.000Z</time>
      </trkpt>
      <trkpt lat="43.86539" lon="7.22722">
        <ele>521</ele>
        <time>2018-04-24T11:53:52.000Z</time>
      </trkpt>
      <trkpt lat="43.86527" lon="7.22724">
        <ele>522</ele>
        <time>2018-04-24T11:53:54.000Z</time>
      </trkpt>
      <trkpt lat="43.86521" lon="7.22725">
        <ele>522</ele>
        <time>2018-04-24T11:53:55.000Z</time>
      </trkpt>
      <trkpt lat="43.86478" lon="7.22731">
        <ele>523</ele>
        <time>2018-04-24T11:54:02.000Z</time>
      </trkpt>
      <trkpt lat="43.86434" lon="7.22738">
        <ele>523</ele>
        <time>2018-04-24T11:54:09.000Z</time>
      </trkpt>
      <trkpt lat="43.86427" lon="7.22739">
        <ele>523</ele>
        <time>2018-04-24T11:54:10.000Z</time>
      </trkpt>
      <trkpt lat="43.86402" lon="7.22743">
        <ele>521</ele>
        <time>2018-04-24T11:54:14.000Z</time>
      </trkpt>
      <trkpt lat="43.86396" lon="7.22745">
        <ele>520</ele>
        <time>2018-04-24T11:54:15.000Z</time>
      </trkpt>
      <trkpt lat="43.86379" lon="7.2275">
        <ele>518</ele>
        <time>2018-04-24T11:54:18.000Z</time>
      </trkpt>
      <trkpt lat="43.86372" lon="7.22751">
        <ele>527</ele>
        <time>2018-04-24T11:54:19.000Z</time>
      </trkpt>
      <trkpt lat="43.86344" lon="7.22762">
        <ele>522</ele>
        <time>2018-04-24T11:54:24.000Z</time>
      </trkpt>
      <trkpt lat="43.86318" lon="7.22775">
        <ele>518</ele>
        <time>2018-04-24T11:54:29.000Z</time>
      </trkpt>
      <trkpt lat="43.86309" lon="7.22785">
        <ele>519</ele>
        <time>2018-04-24T11:54:31.000Z</time>
      </trkpt>
      <trkpt lat="43.8628" lon="7.22822">
        <ele>519</ele>
        <time>2018-04-24T11:54:38.000Z</time>
      </trkpt>
      <trkpt lat="43.86271" lon="7.22833">
        <ele>519</ele>
        <time>2018-04-24T11:54:40.000Z</time>
      </trkpt>
      <trkpt lat="43.86257" lon="7.22847">
        <ele>524</ele>
        <time>2018-04-24T11:54:43.000Z</time>
      </trkpt>
      <trkpt lat="43.86238" lon="7.22867">
        <ele>518</ele>
        <time>2018-04-24T11:54:47.000Z</time>
      </trkpt>
      <trkpt lat="43.8623" lon="7.22877">
        <ele>519</ele>
        <time>2018-04-24T11:54:49.000Z</time>
      </trkpt>
      <trkpt lat="43.86205" lon="7.229">
        <ele>518</ele>
        <time>2018-04-24T11:54:54.000Z</time>
      </trkpt>
      <trkpt lat="43.86193" lon="7.22906">
        <ele>517</ele>
        <time>2018-04-24T11:54:56.000Z</time>
      </trkpt>
      <trkpt lat="43.86177" lon="7.22908">
        <ele>516</ele>
        <time>2018-04-24T11:54:59.000Z</time>
      </trkpt>
      <trkpt lat="43.86166" lon="7.22908">
        <ele>515</ele>
        <time>2018-04-24T11:55:01.000Z</time>
      </trkpt>
      <trkpt lat="43.86134" lon="7.22907">
        <ele>516</ele>
        <time>2018-04-24T11:55:08.000Z</time>
      </trkpt>
      <trkpt lat="43.86109" lon="7.22905">
        <ele>518</ele>
        <time>2018-04-24T11:55:14.000Z</time>
      </trkpt>
      <trkpt lat="43.86104" lon="7.22905">
        <ele>518</ele>
        <time>2018-04-24T11:55:15.000Z</time>
      </trkpt>
      <trkpt lat="43.86089" lon="7.22905">
        <ele>520</ele>
        <time>2018-04-24T11:55:19.000Z</time>
      </trkpt>
      <trkpt lat="43.86078" lon="7.22905">
        <ele>522</ele>
        <time>2018-04-24T11:55:22.000Z</time>
      </trkpt>
      <trkpt lat="43.86067" lon="7.22905">
        <ele>522</ele>
        <time>2018-04-24T11:55:25.000Z</time>
      </trkpt>
      <trkpt lat="43.86054" lon="7.22904">
        <ele>522</ele>
        <time>2018-04-24T11:55:29.000Z</time>
      </trkpt>
      <trkpt lat="43.86044" lon="7.22906">
        <ele>522</ele>
        <time>2018-04-24T11:55:32.000Z</time>
      </trkpt>
      <trkpt lat="43.8604" lon="7.22905">
        <ele>522</ele>
        <time>2018-04-24T11:55:33.000Z</time>
      </trkpt>
      <trkpt lat="43.86013" lon="7.22909">
        <ele>522</ele>
        <time>2018-04-24T11:55:41.000Z</time>
      </trkpt>
      <trkpt lat="43.86008" lon="7.22913">
        <ele>523</ele>
        <time>2018-04-24T11:55:43.000Z</time>
      </trkpt>
      <trkpt lat="43.85996" lon="7.22924">
        <ele>522</ele>
        <time>2018-04-24T11:55:47.000Z</time>
      </trkpt>
      <trkpt lat="43.85974" lon="7.22948">
        <ele>521</ele>
        <time>2018-04-24T11:55:55.000Z</time>
      </trkpt>
      <trkpt lat="43.85961" lon="7.22961">
        <ele>520</ele>
        <time>2018-04-24T11:56:00.000Z</time>
      </trkpt>
      <trkpt lat="43.85959" lon="7.22962">
        <ele>520</ele>
        <time>2018-04-24T11:56:01.000Z</time>
      </trkpt>
      <trkpt lat="43.85957" lon="7.22963">
        <ele>520</ele>
        <time>2018-04-24T11:56:03.000Z</time>
      </trkpt>
      <trkpt lat="43.85955" lon="7.22966">
        <ele>520</ele>
        <time>2018-04-24T11:56:06.000Z</time>
      </trkpt>
      <trkpt lat="43.85956" lon="7.22967">
        <ele>520</ele>
        <time>2018-04-24T11:56:08.000Z</time>
      </trkpt>
      <trkpt lat="43.85963" lon="7.22957">
        <ele>520</ele>
        <time>2018-04-24T11:56:12.000Z</time>
      </trkpt>
      <trkpt lat="43.85967" lon="7.22952">
        <ele>520</ele>
        <time>2018-04-24T11:56:14.000Z</time>
      </trkpt>
      <trkpt lat="43.85974" lon="7.22939">
        <ele>520</ele>
        <time>2018-04-24T11:56:18.000Z</time>
      </trkpt>
      <trkpt lat="43.85973" lon="7.22934">
        <ele>520</ele>
        <time>2018-04-24T11:56:19.000Z</time>
      </trkpt>
      <trkpt lat="43.85966" lon="7.22927">
        <ele>520</ele>
        <time>2018-04-24T11:56:21.000Z</time>
      </trkpt>
      <trkpt lat="43.85955" lon="7.22923">
        <ele>518</ele>
        <time>2018-04-24T11:56:23.000Z</time>
      </trkpt>
      <trkpt lat="43.85948" lon="7.22921">
        <ele>518</ele>
        <time>2018-04-24T11:56:24.000Z</time>
      </trkpt>
      <trkpt lat="43.85941" lon="7.22917">
        <ele>516</ele>
        <time>2018-04-24T11:56:25.000Z</time>
      </trkpt>
      <trkpt lat="43.85926" lon="7.22906">
        <ele>514</ele>
        <time>2018-04-24T11:56:27.000Z</time>
      </trkpt>
      <trkpt lat="43.8592" lon="7.22899">
        <ele>515</ele>
        <time>2018-04-24T11:56:28.000Z</time>
      </trkpt>
      <trkpt lat="43.85908" lon="7.2288">
        <ele>512</ele>
        <time>2018-04-24T11:56:30.000Z</time>
      </trkpt>
      <trkpt lat="43.85892" lon="7.22852">
        <ele>513</ele>
        <time>2018-04-24T11:56:33.000Z</time>
      </trkpt>
      <trkpt lat="43.85887" lon="7.22842">
        <ele>513</ele>
        <time>2018-04-24T11:56:34.000Z</time>
      </trkpt>
      <trkpt lat="43.85872" lon="7.2283">
        <ele>519</ele>
        <time>2018-04-24T11:56:36.000Z</time>
      </trkpt>
      <trkpt lat="43.85864" lon="7.22827">
        <ele>519</ele>
        <time>2018-04-24T11:56:37.000Z</time>
      </trkpt>
      <trkpt lat="43.85856" lon="7.22824">
        <ele>518</ele>
        <time>2018-04-24T11:56:38.000Z</time>
      </trkpt>
      <trkpt lat="43.85847" lon="7.22822">
        <ele>517</ele>
        <time>2018-04-24T11:56:39.000Z</time>
      </trkpt>
      <trkpt lat="43.85839" lon="7.2282">
        <ele>516</ele>
        <time>2018-04-24T11:56:40.000Z</time>
      </trkpt>
      <trkpt lat="43.85797" lon="7.2281">
        <ele>515</ele>
        <time>2018-04-24T11:56:45.000Z</time>
      </trkpt>
      <trkpt lat="43.85788" lon="7.22808">
        <ele>515</ele>
        <time>2018-04-24T11:56:46.000Z</time>
      </trkpt>
      <trkpt lat="43.8578" lon="7.22805">
        <ele>515</ele>
        <time>2018-04-24T11:56:47.000Z</time>
      </trkpt>
      <trkpt lat="43.85763" lon="7.228">
        <ele>514</ele>
        <time>2018-04-24T11:56:49.000Z</time>
      </trkpt>
      <trkpt lat="43.85737" lon="7.22793">
        <ele>509</ele>
        <time>2018-04-24T11:56:52.000Z</time>
      </trkpt>
      <trkpt lat="43.85719" lon="7.22786">
        <ele>508</ele>
        <time>2018-04-24T11:56:54.000Z</time>
      </trkpt>
      <trkpt lat="43.85711" lon="7.22783">
        <ele>508</ele>
        <time>2018-04-24T11:56:55.000Z</time>
      </trkpt>
      <trkpt lat="43.8566" lon="7.22765">
        <ele>501</ele>
        <time>2018-04-24T11:57:01.000Z</time>
      </trkpt>
      <trkpt lat="43.85627" lon="7.22754">
        <ele>500</ele>
        <time>2018-04-24T11:57:05.000Z</time>
      </trkpt>
      <trkpt lat="43.85619" lon="7.22749">
        <ele>502</ele>
        <time>2018-04-24T11:57:06.000Z</time>
      </trkpt>
      <trkpt lat="43.85612" lon="7.22744">
        <ele>501</ele>
        <time>2018-04-24T11:57:07.000Z</time>
      </trkpt>
      <trkpt lat="43.85607" lon="7.22738">
        <ele>501</ele>
        <time>2018-04-24T11:57:08.000Z</time>
      </trkpt>
      <trkpt lat="43.85595" lon="7.22726">
        <ele>501</ele>
        <time>2018-04-24T11:57:10.000Z</time>
      </trkpt>
      <trkpt lat="43.85576" lon="7.22725">
        <ele>501</ele>
        <time>2018-04-24T11:57:13.000Z</time>
      </trkpt>
      <trkpt lat="43.85564" lon="7.22732">
        <ele>502</ele>
        <time>2018-04-24T11:57:15.000Z</time>
      </trkpt>
      <trkpt lat="43.85559" lon="7.22736">
        <ele>502</ele>
        <time>2018-04-24T11:57:16.000Z</time>
      </trkpt>
      <trkpt lat="43.85554" lon="7.2274">
        <ele>503</ele>
        <time>2018-04-24T11:57:17.000Z</time>
      </trkpt>
      <trkpt lat="43.85543" lon="7.22761">
        <ele>501</ele>
        <time>2018-04-24T11:57:20.000Z</time>
      </trkpt>
      <trkpt lat="43.85538" lon="7.22777">
        <ele>501</ele>
        <time>2018-04-24T11:57:22.000Z</time>
      </trkpt>
      <trkpt lat="43.85526" lon="7.22822">
        <ele>500</ele>
        <time>2018-04-24T11:57:28.000Z</time>
      </trkpt>
      <trkpt lat="43.85512" lon="7.22877">
        <ele>499</ele>
        <time>2018-04-24T11:57:36.000Z</time>
      </trkpt>
      <trkpt lat="43.85509" lon="7.22889">
        <ele>499</ele>
        <time>2018-04-24T11:57:38.000Z</time>
      </trkpt>
      <trkpt lat="43.855" lon="7.22922">
        <ele>498</ele>
        <time>2018-04-24T11:57:44.000Z</time>
      </trkpt>
      <trkpt lat="43.85498" lon="7.22927">
        <ele>498</ele>
        <time>2018-04-24T11:57:45.000Z</time>
      </trkpt>
      <trkpt lat="43.85487" lon="7.22948">
        <ele>496</ele>
        <time>2018-04-24T11:57:50.000Z</time>
      </trkpt>
      <trkpt lat="43.85483" lon="7.22951">
        <ele>496</ele>
        <time>2018-04-24T11:57:51.000Z</time>
      </trkpt>
      <trkpt lat="43.8548" lon="7.22953">
        <ele>496</ele>
        <time>2018-04-24T11:57:52.000Z</time>
      </trkpt>
      <trkpt lat="43.85471" lon="7.22966">
        <ele>495</ele>
        <time>2018-04-24T11:57:55.000Z</time>
      </trkpt>
      <trkpt lat="43.85457" lon="7.22983">
        <ele>494</ele>
        <time>2018-04-24T11:58:00.000Z</time>
      </trkpt>
      <trkpt lat="43.8545" lon="7.22973">
        <ele>494</ele>
        <time>2018-04-24T11:58:03.000Z</time>
      </trkpt>
      <trkpt lat="43.85448" lon="7.22967">
        <ele>494</ele>
        <time>2018-04-24T11:58:04.000Z</time>
      </trkpt>
      <trkpt lat="43.85441" lon="7.22949">
        <ele>493</ele>
        <time>2018-04-24T11:58:07.000Z</time>
      </trkpt>
      <trkpt lat="43.85438" lon="7.22943">
        <ele>493</ele>
        <time>2018-04-24T11:58:08.000Z</time>
      </trkpt>
      <trkpt lat="43.85426" lon="7.22913">
        <ele>493</ele>
        <time>2018-04-24T11:58:12.000Z</time>
      </trkpt>
      <trkpt lat="43.85417" lon="7.22895">
        <ele>496</ele>
        <time>2018-04-24T11:58:15.000Z</time>
      </trkpt>
      <trkpt lat="43.85414" lon="7.2289">
        <ele>492</ele>
        <time>2018-04-24T11:58:16.000Z</time>
      </trkpt>
      <trkpt lat="43.85403" lon="7.2288">
        <ele>493</ele>
        <time>2018-04-24T11:58:19.000Z</time>
      </trkpt>
      <trkpt lat="43.85394" lon="7.22872">
        <ele>493</ele>
        <time>2018-04-24T11:58:22.000Z</time>
      </trkpt>
      <trkpt lat="43.85385" lon="7.22865">
        <ele>493</ele>
        <time>2018-04-24T11:58:25.000Z</time>
      </trkpt>
      <trkpt lat="43.85379" lon="7.22861">
        <ele>493</ele>
        <time>2018-04-24T11:58:27.000Z</time>
      </trkpt>
      <trkpt lat="43.85369" lon="7.22854">
        <ele>493</ele>
        <time>2018-04-24T11:58:30.000Z</time>
      </trkpt>
      <trkpt lat="43.85358" lon="7.2285">
        <ele>493</ele>
        <time>2018-04-24T11:58:33.000Z</time>
      </trkpt>
      <trkpt lat="43.85341" lon="7.2283">
        <ele>499</ele>
        <time>2018-04-24T11:58:38.000Z</time>
      </trkpt>
      <trkpt lat="43.85338" lon="7.22824">
        <ele>500</ele>
        <time>2018-04-24T11:58:39.000Z</time>
      </trkpt>
      <trkpt lat="43.85333" lon="7.22813">
        <ele>495</ele>
        <time>2018-04-24T11:58:41.000Z</time>
      </trkpt>
      <trkpt lat="43.85318" lon="7.22793">
        <ele>497</ele>
        <time>2018-04-24T11:58:45.000Z</time>
      </trkpt>
      <trkpt lat="43.85283" lon="7.2276">
        <ele>496</ele>
        <time>2018-04-24T11:58:53.000Z</time>
      </trkpt>
      <trkpt lat="43.85253" lon="7.22731">
        <ele>506</ele>
        <time>2018-04-24T11:58:59.000Z</time>
      </trkpt>
      <trkpt lat="43.85248" lon="7.22725">
        <ele>495</ele>
        <time>2018-04-24T11:59:00.000Z</time>
      </trkpt>
      <trkpt lat="43.85227" lon="7.22696">
        <ele>498</ele>
        <time>2018-04-24T11:59:05.000Z</time>
      </trkpt>
      <trkpt lat="43.85221" lon="7.22691">
        <ele>498</ele>
        <time>2018-04-24T11:59:06.000Z</time>
      </trkpt>
      <trkpt lat="43.85203" lon="7.22681">
        <ele>496</ele>
        <time>2018-04-24T11:59:09.000Z</time>
      </trkpt>
      <trkpt lat="43.85191" lon="7.22673">
        <ele>494</ele>
        <time>2018-04-24T11:59:11.000Z</time>
      </trkpt>
      <trkpt lat="43.85186" lon="7.22668">
        <ele>494</ele>
        <time>2018-04-24T11:59:12.000Z</time>
      </trkpt>
      <trkpt lat="43.8518" lon="7.22663">
        <ele>502</ele>
        <time>2018-04-24T11:59:13.000Z</time>
      </trkpt>
      <trkpt lat="43.85169" lon="7.2265">
        <ele>503</ele>
        <time>2018-04-24T11:59:15.000Z</time>
      </trkpt>
      <trkpt lat="43.85153" lon="7.22631">
        <ele>491</ele>
        <time>2018-04-24T11:59:18.000Z</time>
      </trkpt>
      <trkpt lat="43.85142" lon="7.22614">
        <ele>491</ele>
        <time>2018-04-24T11:59:20.000Z</time>
      </trkpt>
      <trkpt lat="43.85138" lon="7.22606">
        <ele>492</ele>
        <time>2018-04-24T11:59:21.000Z</time>
      </trkpt>
      <trkpt lat="43.85121" lon="7.22572">
        <ele>499</ele>
        <time>2018-04-24T11:59:25.000Z</time>
      </trkpt>
      <trkpt lat="43.85116" lon="7.22564">
        <ele>499</ele>
        <time>2018-04-24T11:59:26.000Z</time>
      </trkpt>
      <trkpt lat="43.85108" lon="7.22547">
        <ele>499</ele>
        <time>2018-04-24T11:59:28.000Z</time>
      </trkpt>
      <trkpt lat="43.85091" lon="7.22509">
        <ele>497</ele>
        <time>2018-04-24T11:59:32.000Z</time>
      </trkpt>
      <trkpt lat="43.85082" lon="7.22491">
        <ele>492</ele>
        <time>2018-04-24T11:59:34.000Z</time>
      </trkpt>
      <trkpt lat="43.85078" lon="7.22483">
        <ele>490</ele>
        <time>2018-04-24T11:59:35.000Z</time>
      </trkpt>
      <trkpt lat="43.8507" lon="7.22464">
        <ele>489</ele>
        <time>2018-04-24T11:59:37.000Z</time>
      </trkpt>
      <trkpt lat="43.85061" lon="7.22435">
        <ele>491</ele>
        <time>2018-04-24T11:59:40.000Z</time>
      </trkpt>
      <trkpt lat="43.85058" lon="7.22413">
        <ele>499</ele>
        <time>2018-04-24T11:59:42.000Z</time>
      </trkpt>
      <trkpt lat="43.85054" lon="7.22393">
        <ele>499</ele>
        <time>2018-04-24T11:59:44.000Z</time>
      </trkpt>
      <trkpt lat="43.8504" lon="7.22381">
        <ele>498</ele>
        <time>2018-04-24T11:59:46.000Z</time>
      </trkpt>
      <trkpt lat="43.85015" lon="7.22381">
        <ele>496</ele>
        <time>2018-04-24T11:59:49.000Z</time>
      </trkpt>
      <trkpt lat="43.85007" lon="7.2238">
        <ele>495</ele>
        <time>2018-04-24T11:59:50.000Z</time>
      </trkpt>
      <trkpt lat="43.84999" lon="7.22378">
        <ele>486</ele>
        <time>2018-04-24T11:59:51.000Z</time>
      </trkpt>
      <trkpt lat="43.84992" lon="7.22375">
        <ele>487</ele>
        <time>2018-04-24T11:59:52.000Z</time>
      </trkpt>
      <trkpt lat="43.84979" lon="7.22367">
        <ele>487</ele>
        <time>2018-04-24T11:59:54.000Z</time>
      </trkpt>
      <trkpt lat="43.8496" lon="7.22353">
        <ele>487</ele>
        <time>2018-04-24T11:59:57.000Z</time>
      </trkpt>
      <trkpt lat="43.84938" lon="7.22329">
        <ele>494</ele>
        <time>2018-04-24T12:00:01.000Z</time>
      </trkpt>
      <trkpt lat="43.84922" lon="7.22313">
        <ele>495</ele>
        <time>2018-04-24T12:00:04.000Z</time>
      </trkpt>
      <trkpt lat="43.84892" lon="7.22286">
        <ele>489</ele>
        <time>2018-04-24T12:00:10.000Z</time>
      </trkpt>
      <trkpt lat="43.84887" lon="7.22283">
        <ele>488</ele>
        <time>2018-04-24T12:00:11.000Z</time>
      </trkpt>
      <trkpt lat="43.84861" lon="7.22261">
        <ele>487</ele>
        <time>2018-04-24T12:00:17.000Z</time>
      </trkpt>
      <trkpt lat="43.8485" lon="7.22249">
        <ele>494</ele>
        <time>2018-04-24T12:00:20.000Z</time>
      </trkpt>
      <trkpt lat="43.84843" lon="7.22241">
        <ele>493</ele>
        <time>2018-04-24T12:00:22.000Z</time>
      </trkpt>
      <trkpt lat="43.84838" lon="7.22233">
        <ele>495</ele>
        <time>2018-04-24T12:00:24.000Z</time>
      </trkpt>
      <trkpt lat="43.84833" lon="7.22223">
        <ele>485</ele>
        <time>2018-04-24T12:00:26.000Z</time>
      </trkpt>
      <trkpt lat="43.84831" lon="7.22218">
        <ele>486</ele>
        <time>2018-04-24T12:00:27.000Z</time>
      </trkpt>
      <trkpt lat="43.84824" lon="7.22197">
        <ele>488</ele>
        <time>2018-04-24T12:00:31.000Z</time>
      </trkpt>
      <trkpt lat="43.84818" lon="7.22181">
        <ele>491</ele>
        <time>2018-04-24T12:00:34.000Z</time>
      </trkpt>
      <trkpt lat="43.84812" lon="7.22157">
        <ele>498</ele>
        <time>2018-04-24T12:00:38.000Z</time>
      </trkpt>
      <trkpt lat="43.8481" lon="7.22151">
        <ele>497</ele>
        <time>2018-04-24T12:00:39.000Z</time>
      </trkpt>
      <trkpt lat="43.848" lon="7.22113">
        <ele>498</ele>
        <time>2018-04-24T12:00:46.000Z</time>
      </trkpt>
      <trkpt lat="43.84796" lon="7.22099">
        <ele>498</ele>
        <time>2018-04-24T12:00:49.000Z</time>
      </trkpt>
      <trkpt lat="43.8479" lon="7.22088">
        <ele>497</ele>
        <time>2018-04-24T12:00:52.000Z</time>
      </trkpt>
      <trkpt lat="43.84775" lon="7.22058">
        <ele>504</ele>
        <time>2018-04-24T12:00:58.000Z</time>
      </trkpt>
      <trkpt lat="43.84773" lon="7.22051">
        <ele>505</ele>
        <time>2018-04-24T12:01:00.000Z</time>
      </trkpt>
      <trkpt lat="43.84767" lon="7.22014">
        <ele>507</ele>
        <time>2018-04-24T12:01:04.000Z</time>
      </trkpt>
      <trkpt lat="43.84764" lon="7.21999">
        <ele>512</ele>
        <time>2018-04-24T12:01:06.000Z</time>
      </trkpt>
      <trkpt lat="43.84757" lon="7.21986">
        <ele>514</ele>
        <time>2018-04-24T12:01:08.000Z</time>
      </trkpt>
      <trkpt lat="43.84746" lon="7.21982">
        <ele>505</ele>
        <time>2018-04-24T12:01:10.000Z</time>
      </trkpt>
      <trkpt lat="43.8474" lon="7.21983">
        <ele>505</ele>
        <time>2018-04-24T12:01:11.000Z</time>
      </trkpt>
      <trkpt lat="43.84733" lon="7.21984">
        <ele>505</ele>
        <time>2018-04-24T12:01:12.000Z</time>
      </trkpt>
      <trkpt lat="43.84713" lon="7.21984">
        <ele>504</ele>
        <time>2018-04-24T12:01:15.000Z</time>
      </trkpt>
      <trkpt lat="43.84687" lon="7.21981">
        <ele>502</ele>
        <time>2018-04-24T12:01:19.000Z</time>
      </trkpt>
      <trkpt lat="43.84663" lon="7.21977">
        <ele>492</ele>
        <time>2018-04-24T12:01:23.000Z</time>
      </trkpt>
      <trkpt lat="43.84617" lon="7.21959">
        <ele>492</ele>
        <time>2018-04-24T12:01:30.000Z</time>
      </trkpt>
      <trkpt lat="43.84603" lon="7.2195">
        <ele>492</ele>
        <time>2018-04-24T12:01:32.000Z</time>
      </trkpt>
      <trkpt lat="43.84597" lon="7.21945">
        <ele>492</ele>
        <time>2018-04-24T12:01:33.000Z</time>
      </trkpt>
      <trkpt lat="43.8459" lon="7.21938">
        <ele>492</ele>
        <time>2018-04-24T12:01:34.000Z</time>
      </trkpt>
      <trkpt lat="43.84584" lon="7.21932">
        <ele>493</ele>
        <time>2018-04-24T12:01:35.000Z</time>
      </trkpt>
      <trkpt lat="43.84584" lon="7.21931">
        <ele>493</ele>
        <time>2018-04-24T12:01:36.000Z</time>
      </trkpt>
      <trkpt lat="43.84571" lon="7.21902">
        <ele>487</ele>
        <time>2018-04-24T12:01:38.000Z</time>
      </trkpt>
      <trkpt lat="43.84566" lon="7.21866">
        <ele>486</ele>
        <time>2018-04-24T12:01:41.000Z</time>
      </trkpt>
      <trkpt lat="43.84565" lon="7.21853">
        <ele>487</ele>
        <time>2018-04-24T12:01:42.000Z</time>
      </trkpt>
      <trkpt lat="43.84563" lon="7.21842">
        <ele>488</ele>
        <time>2018-04-24T12:01:43.000Z</time>
      </trkpt>
      <trkpt lat="43.84551" lon="7.21809">
        <ele>489</ele>
        <time>2018-04-24T12:01:46.000Z</time>
      </trkpt>
      <trkpt lat="43.84533" lon="7.21782">
        <ele>487</ele>
        <time>2018-04-24T12:01:49.000Z</time>
      </trkpt>
      <trkpt lat="43.84526" lon="7.21774">
        <ele>486</ele>
        <time>2018-04-24T12:01:50.000Z</time>
      </trkpt>
      <trkpt lat="43.8452" lon="7.21766">
        <ele>485</ele>
        <time>2018-04-24T12:01:51.000Z</time>
      </trkpt>
      <trkpt lat="43.8449" lon="7.21725">
        <ele>480</ele>
        <time>2018-04-24T12:01:56.000Z</time>
      </trkpt>
      <trkpt lat="43.84471" lon="7.21691">
        <ele>480</ele>
        <time>2018-04-24T12:02:00.000Z</time>
      </trkpt>
      <trkpt lat="43.8446" lon="7.21664">
        <ele>483</ele>
        <time>2018-04-24T12:02:03.000Z</time>
      </trkpt>
      <trkpt lat="43.84443" lon="7.21617">
        <ele>482</ele>
        <time>2018-04-24T12:02:08.000Z</time>
      </trkpt>
      <trkpt lat="43.84438" lon="7.21598">
        <ele>482</ele>
        <time>2018-04-24T12:02:10.000Z</time>
      </trkpt>
      <trkpt lat="43.84427" lon="7.21559">
        <ele>492</ele>
        <time>2018-04-24T12:02:14.000Z</time>
      </trkpt>
      <trkpt lat="43.84423" lon="7.2155">
        <ele>494</ele>
        <time>2018-04-24T12:02:15.000Z</time>
      </trkpt>
      <trkpt lat="43.84408" lon="7.21532">
        <ele>483</ele>
        <time>2018-04-24T12:02:18.000Z</time>
      </trkpt>
      <trkpt lat="43.84388" lon="7.2152">
        <ele>482</ele>
        <time>2018-04-24T12:02:21.000Z</time>
      </trkpt>
      <trkpt lat="43.84369" lon="7.21509">
        <ele>480</ele>
        <time>2018-04-24T12:02:24.000Z</time>
      </trkpt>
      <trkpt lat="43.84343" lon="7.21496">
        <ele>489</ele>
        <time>2018-04-24T12:02:28.000Z</time>
      </trkpt>
      <trkpt lat="43.84329" lon="7.21493">
        <ele>484</ele>
        <time>2018-04-24T12:02:30.000Z</time>
      </trkpt>
      <trkpt lat="43.84322" lon="7.21492">
        <ele>486</ele>
        <time>2018-04-24T12:02:31.000Z</time>
      </trkpt>
      <trkpt lat="43.84268" lon="7.21482">
        <ele>486</ele>
        <time>2018-04-24T12:02:39.000Z</time>
      </trkpt>
      <trkpt lat="43.84262" lon="7.2148">
        <ele>485</ele>
        <time>2018-04-24T12:02:40.000Z</time>
      </trkpt>
      <trkpt lat="43.84256" lon="7.21478">
        <ele>485</ele>
        <time>2018-04-24T12:02:41.000Z</time>
      </trkpt>
      <trkpt lat="43.84238" lon="7.21478">
        <ele>479</ele>
        <time>2018-04-24T12:02:44.000Z</time>
      </trkpt>
      <trkpt lat="43.84232" lon="7.21479">
        <ele>479</ele>
        <time>2018-04-24T12:02:45.000Z</time>
      </trkpt>
      <trkpt lat="43.84215" lon="7.21482">
        <ele>478</ele>
        <time>2018-04-24T12:02:48.000Z</time>
      </trkpt>
      <trkpt lat="43.84204" lon="7.2148">
        <ele>477</ele>
        <time>2018-04-24T12:02:50.000Z</time>
      </trkpt>
      <trkpt lat="43.8418" lon="7.21464">
        <ele>478</ele>
        <time>2018-04-24T12:02:55.000Z</time>
      </trkpt>
      <trkpt lat="43.84175" lon="7.2146">
        <ele>479</ele>
        <time>2018-04-24T12:02:56.000Z</time>
      </trkpt>
      <trkpt lat="43.84167" lon="7.2145">
        <ele>481</ele>
        <time>2018-04-24T12:02:58.000Z</time>
      </trkpt>
      <trkpt lat="43.84152" lon="7.21428">
        <ele>476</ele>
        <time>2018-04-24T12:03:02.000Z</time>
      </trkpt>
      <trkpt lat="43.84126" lon="7.21383">
        <ele>490</ele>
        <time>2018-04-24T12:03:10.000Z</time>
      </trkpt>
      <trkpt lat="43.84112" lon="7.21376">
        <ele>490</ele>
        <time>2018-04-24T12:03:13.000Z</time>
      </trkpt>
      <trkpt lat="43.84097" lon="7.21384">
        <ele>487</ele>
        <time>2018-04-24T12:03:16.000Z</time>
      </trkpt>
      <trkpt lat="43.84093" lon="7.21389">
        <ele>486</ele>
        <time>2018-04-24T12:03:17.000Z</time>
      </trkpt>
      <trkpt lat="43.84088" lon="7.21393">
        <ele>484</ele>
        <time>2018-04-24T12:03:18.000Z</time>
      </trkpt>
      <trkpt lat="43.84077" lon="7.21397">
        <ele>474</ele>
        <time>2018-04-24T12:03:20.000Z</time>
      </trkpt>
      <trkpt lat="43.84062" lon="7.2139">
        <ele>475</ele>
        <time>2018-04-24T12:03:23.000Z</time>
      </trkpt>
      <trkpt lat="43.84059" lon="7.21386">
        <ele>475</ele>
        <time>2018-04-24T12:03:24.000Z</time>
      </trkpt>
      <trkpt lat="43.84047" lon="7.21374">
        <ele>476</ele>
        <time>2018-04-24T12:03:27.000Z</time>
      </trkpt>
      <trkpt lat="43.84043" lon="7.21369">
        <ele>476</ele>
        <time>2018-04-24T12:03:28.000Z</time>
      </trkpt>
      <trkpt lat="43.84012" lon="7.21334">
        <ele>477</ele>
        <time>2018-04-24T12:03:36.000Z</time>
      </trkpt>
      <trkpt lat="43.84001" lon="7.2132">
        <ele>485</ele>
        <time>2018-04-24T12:03:39.000Z</time>
      </trkpt>
      <trkpt lat="43.83998" lon="7.21315">
        <ele>481</ele>
        <time>2018-04-24T12:03:40.000Z</time>
      </trkpt>
      <trkpt lat="43.83992" lon="7.21303">
        <ele>483</ele>
        <time>2018-04-24T12:03:42.000Z</time>
      </trkpt>
      <trkpt lat="43.83985" lon="7.21284">
        <ele>486</ele>
        <time>2018-04-24T12:03:45.000Z</time>
      </trkpt>
      <trkpt lat="43.83975" lon="7.21269">
        <ele>487</ele>
        <time>2018-04-24T12:03:48.000Z</time>
      </trkpt>
      <trkpt lat="43.83955" lon="7.21261">
        <ele>487</ele>
        <time>2018-04-24T12:03:52.000Z</time>
      </trkpt>
      <trkpt lat="43.83939" lon="7.21265">
        <ele>486</ele>
        <time>2018-04-24T12:03:55.000Z</time>
      </trkpt>
      <trkpt lat="43.83934" lon="7.21268">
        <ele>486</ele>
        <time>2018-04-24T12:03:56.000Z</time>
      </trkpt>
      <trkpt lat="43.83901" lon="7.21293">
        <ele>480</ele>
        <time>2018-04-24T12:04:03.000Z</time>
      </trkpt>
      <trkpt lat="43.83881" lon="7.21317">
        <ele>479</ele>
        <time>2018-04-24T12:04:08.000Z</time>
      </trkpt>
      <trkpt lat="43.83859" lon="7.21321">
        <ele>480</ele>
        <time>2018-04-24T12:04:12.000Z</time>
      </trkpt>
      <trkpt lat="43.83843" lon="7.21308">
        <ele>481</ele>
        <time>2018-04-24T12:04:15.000Z</time>
      </trkpt>
      <trkpt lat="43.83834" lon="7.21293">
        <ele>481</ele>
        <time>2018-04-24T12:04:17.000Z</time>
      </trkpt>
      <trkpt lat="43.83824" lon="7.21274">
        <ele>480</ele>
        <time>2018-04-24T12:04:19.000Z</time>
      </trkpt>
      <trkpt lat="43.8382" lon="7.21265">
        <ele>481</ele>
        <time>2018-04-24T12:04:20.000Z</time>
      </trkpt>
      <trkpt lat="43.83812" lon="7.21248">
        <ele>482</ele>
        <time>2018-04-24T12:04:22.000Z</time>
      </trkpt>
      <trkpt lat="43.83808" lon="7.21241">
        <ele>481</ele>
        <time>2018-04-24T12:04:23.000Z</time>
      </trkpt>
      <trkpt lat="43.83802" lon="7.21237">
        <ele>481</ele>
        <time>2018-04-24T12:04:24.000Z</time>
      </trkpt>
      <trkpt lat="43.83794" lon="7.21245">
        <ele>480</ele>
        <time>2018-04-24T12:04:26.000Z</time>
      </trkpt>
      <trkpt lat="43.83796" lon="7.2126">
        <ele>478</ele>
        <time>2018-04-24T12:04:28.000Z</time>
      </trkpt>
      <trkpt lat="43.83793" lon="7.21288">
        <ele>477</ele>
        <time>2018-04-24T12:04:31.000Z</time>
      </trkpt>
      <trkpt lat="43.83785" lon="7.21293">
        <ele>477</ele>
        <time>2018-04-24T12:04:32.000Z</time>
      </trkpt>
      <trkpt lat="43.83777" lon="7.21294">
        <ele>476</ele>
        <time>2018-04-24T12:04:33.000Z</time>
      </trkpt>
      <trkpt lat="43.83769" lon="7.21293">
        <ele>476</ele>
        <time>2018-04-24T12:04:34.000Z</time>
      </trkpt>
      <trkpt lat="43.8376" lon="7.21292">
        <ele>476</ele>
        <time>2018-04-24T12:04:35.000Z</time>
      </trkpt>
      <trkpt lat="43.83751" lon="7.21291">
        <ele>475</ele>
        <time>2018-04-24T12:04:36.000Z</time>
      </trkpt>
      <trkpt lat="43.83733" lon="7.21291">
        <ele>474</ele>
        <time>2018-04-24T12:04:38.000Z</time>
      </trkpt>
      <trkpt lat="43.83714" lon="7.21287">
        <ele>474</ele>
        <time>2018-04-24T12:04:40.000Z</time>
      </trkpt>
      <trkpt lat="43.83697" lon="7.21275">
        <ele>474</ele>
        <time>2018-04-24T12:04:42.000Z</time>
      </trkpt>
      <trkpt lat="43.83691" lon="7.21264">
        <ele>474</ele>
        <time>2018-04-24T12:04:43.000Z</time>
      </trkpt>
      <trkpt lat="43.83687" lon="7.21251">
        <ele>474</ele>
        <time>2018-04-24T12:04:44.000Z</time>
      </trkpt>
      <trkpt lat="43.83685" lon="7.21238">
        <ele>471</ele>
        <time>2018-04-24T12:04:45.000Z</time>
      </trkpt>
      <trkpt lat="43.83681" lon="7.21211">
        <ele>470</ele>
        <time>2018-04-24T12:04:47.000Z</time>
      </trkpt>
      <trkpt lat="43.8368" lon="7.21198">
        <ele>469</ele>
        <time>2018-04-24T12:04:48.000Z</time>
      </trkpt>
      <trkpt lat="43.83672" lon="7.21173">
        <ele>467</ele>
        <time>2018-04-24T12:04:50.000Z</time>
      </trkpt>
      <trkpt lat="43.83664" lon="7.21164">
        <ele>466</ele>
        <time>2018-04-24T12:04:51.000Z</time>
      </trkpt>
      <trkpt lat="43.83656" lon="7.21157">
        <ele>468</ele>
        <time>2018-04-24T12:04:52.000Z</time>
      </trkpt>
      <trkpt lat="43.8364" lon="7.21139">
        <ele>470</ele>
        <time>2018-04-24T12:04:54.000Z</time>
      </trkpt>
      <trkpt lat="43.83632" lon="7.21114">
        <ele>469</ele>
        <time>2018-04-24T12:04:56.000Z</time>
      </trkpt>
      <trkpt lat="43.83633" lon="7.21099">
        <ele>468</ele>
        <time>2018-04-24T12:04:57.000Z</time>
      </trkpt>
      <trkpt lat="43.83637" lon="7.21086">
        <ele>466</ele>
        <time>2018-04-24T12:04:58.000Z</time>
      </trkpt>
      <trkpt lat="43.83641" lon="7.21073">
        <ele>462</ele>
        <time>2018-04-24T12:04:59.000Z</time>
      </trkpt>
      <trkpt lat="43.83643" lon="7.2106">
        <ele>462</ele>
        <time>2018-04-24T12:05:00.000Z</time>
      </trkpt>
      <trkpt lat="43.83644" lon="7.21046">
        <ele>462</ele>
        <time>2018-04-24T12:05:01.000Z</time>
      </trkpt>
      <trkpt lat="43.83642" lon="7.21018">
        <ele>461</ele>
        <time>2018-04-24T12:05:03.000Z</time>
      </trkpt>
      <trkpt lat="43.8364" lon="7.21004">
        <ele>461</ele>
        <time>2018-04-24T12:05:04.000Z</time>
      </trkpt>
      <trkpt lat="43.83638" lon="7.20992">
        <ele>456</ele>
        <time>2018-04-24T12:05:05.000Z</time>
      </trkpt>
      <trkpt lat="43.83629" lon="7.20966">
        <ele>455</ele>
        <time>2018-04-24T12:05:07.000Z</time>
      </trkpt>
      <trkpt lat="43.83615" lon="7.20945">
        <ele>454</ele>
        <time>2018-04-24T12:05:09.000Z</time>
      </trkpt>
      <trkpt lat="43.83607" lon="7.20936">
        <ele>453</ele>
        <time>2018-04-24T12:05:10.000Z</time>
      </trkpt>
      <trkpt lat="43.8359" lon="7.20921">
        <ele>450</ele>
        <time>2018-04-24T12:05:12.000Z</time>
      </trkpt>
      <trkpt lat="43.8357" lon="7.2091">
        <ele>445</ele>
        <time>2018-04-24T12:05:14.000Z</time>
      </trkpt>
      <trkpt lat="43.8356" lon="7.20905">
        <ele>444</ele>
        <time>2018-04-24T12:05:15.000Z</time>
      </trkpt>
      <trkpt lat="43.83549" lon="7.20901">
        <ele>444</ele>
        <time>2018-04-24T12:05:16.000Z</time>
      </trkpt>
      <trkpt lat="43.83529" lon="7.20892">
        <ele>445</ele>
        <time>2018-04-24T12:05:18.000Z</time>
      </trkpt>
      <trkpt lat="43.83518" lon="7.20887">
        <ele>444</ele>
        <time>2018-04-24T12:05:19.000Z</time>
      </trkpt>
      <trkpt lat="43.83498" lon="7.20874">
        <ele>449</ele>
        <time>2018-04-24T12:05:21.000Z</time>
      </trkpt>
      <trkpt lat="43.83479" lon="7.20858">
        <ele>447</ele>
        <time>2018-04-24T12:05:23.000Z</time>
      </trkpt>
      <trkpt lat="43.83459" lon="7.20839">
        <ele>447</ele>
        <time>2018-04-24T12:05:25.000Z</time>
      </trkpt>
      <trkpt lat="43.83441" lon="7.20821">
        <ele>434</ele>
        <time>2018-04-24T12:05:27.000Z</time>
      </trkpt>
      <trkpt lat="43.83432" lon="7.20812">
        <ele>434</ele>
        <time>2018-04-24T12:05:28.000Z</time>
      </trkpt>
      <trkpt lat="43.83423" lon="7.20803">
        <ele>433</ele>
        <time>2018-04-24T12:05:29.000Z</time>
      </trkpt>
      <trkpt lat="43.83413" lon="7.20794">
        <ele>435</ele>
        <time>2018-04-24T12:05:30.000Z</time>
      </trkpt>
      <trkpt lat="43.83394" lon="7.20778">
        <ele>433</ele>
        <time>2018-04-24T12:05:32.000Z</time>
      </trkpt>
      <trkpt lat="43.83385" lon="7.20775">
        <ele>433</ele>
        <time>2018-04-24T12:05:33.000Z</time>
      </trkpt>
      <trkpt lat="43.83365" lon="7.20774">
        <ele>432</ele>
        <time>2018-04-24T12:05:35.000Z</time>
      </trkpt>
      <trkpt lat="43.83355" lon="7.20775">
        <ele>432</ele>
        <time>2018-04-24T12:05:36.000Z</time>
      </trkpt>
      <trkpt lat="43.83341" lon="7.20777">
        <ele>432</ele>
        <time>2018-04-24T12:05:38.000Z</time>
      </trkpt>
      <trkpt lat="43.83331" lon="7.20777">
        <ele>426</ele>
        <time>2018-04-24T12:05:40.000Z</time>
      </trkpt>
      <trkpt lat="43.83332" lon="7.20769">
        <ele>425</ele>
        <time>2018-04-24T12:05:42.000Z</time>
      </trkpt>
      <trkpt lat="43.83346" lon="7.20766">
        <ele>430</ele>
        <time>2018-04-24T12:05:45.000Z</time>
      </trkpt>
      <trkpt lat="43.83363" lon="7.20761">
        <ele>431</ele>
        <time>2018-04-24T12:05:48.000Z</time>
      </trkpt>
      <trkpt lat="43.83376" lon="7.20758">
        <ele>431</ele>
        <time>2018-04-24T12:05:50.000Z</time>
      </trkpt>
      <trkpt lat="43.8339" lon="7.20757">
        <ele>431</ele>
        <time>2018-04-24T12:05:52.000Z</time>
      </trkpt>
      <trkpt lat="43.83405" lon="7.20762">
        <ele>430</ele>
        <time>2018-04-24T12:05:54.000Z</time>
      </trkpt>
      <trkpt lat="43.83419" lon="7.20766">
        <ele>427</ele>
        <time>2018-04-24T12:05:56.000Z</time>
      </trkpt>
      <trkpt lat="43.83425" lon="7.20763">
        <ele>427</ele>
        <time>2018-04-24T12:05:57.000Z</time>
      </trkpt>
      <trkpt lat="43.83426" lon="7.20757">
        <ele>426</ele>
        <time>2018-04-24T12:05:58.000Z</time>
      </trkpt>
      <trkpt lat="43.83423" lon="7.20753">
        <ele>426</ele>
        <time>2018-04-24T12:05:59.000Z</time>
      </trkpt>
      <trkpt lat="43.83419" lon="7.20748">
        <ele>423</ele>
        <time>2018-04-24T12:06:00.000Z</time>
      </trkpt>
      <trkpt lat="43.83413" lon="7.20748">
        <ele>423</ele>
        <time>2018-04-24T12:06:01.000Z</time>
      </trkpt>
      <trkpt lat="43.83406" lon="7.20746">
        <ele>420</ele>
        <time>2018-04-24T12:06:02.000Z</time>
      </trkpt>
      <trkpt lat="43.83385" lon="7.20743">
        <ele>416</ele>
        <time>2018-04-24T12:06:05.000Z</time>
      </trkpt>
      <trkpt lat="43.83369" lon="7.20742">
        <ele>415</ele>
        <time>2018-04-24T12:06:07.000Z</time>
      </trkpt>
      <trkpt lat="43.83343" lon="7.20741">
        <ele>418</ele>
        <time>2018-04-24T12:06:10.000Z</time>
      </trkpt>
      <trkpt lat="43.83326" lon="7.20742">
        <ele>416</ele>
        <time>2018-04-24T12:06:12.000Z</time>
      </trkpt>
      <trkpt lat="43.83317" lon="7.20746">
        <ele>414</ele>
        <time>2018-04-24T12:06:13.000Z</time>
      </trkpt>
      <trkpt lat="43.83294" lon="7.20769">
        <ele>423</ele>
        <time>2018-04-24T12:06:16.000Z</time>
      </trkpt>
      <trkpt lat="43.83279" lon="7.20789">
        <ele>424</ele>
        <time>2018-04-24T12:06:18.000Z</time>
      </trkpt>
      <trkpt lat="43.83271" lon="7.20797">
        <ele>424</ele>
        <time>2018-04-24T12:06:19.000Z</time>
      </trkpt>
      <trkpt lat="43.83263" lon="7.20803">
        <ele>424</ele>
        <time>2018-04-24T12:06:20.000Z</time>
      </trkpt>
      <trkpt lat="43.83244" lon="7.20804">
        <ele>421</ele>
        <time>2018-04-24T12:06:22.000Z</time>
      </trkpt>
      <trkpt lat="43.83226" lon="7.20798">
        <ele>421</ele>
        <time>2018-04-24T12:06:24.000Z</time>
      </trkpt>
      <trkpt lat="43.83217" lon="7.20791">
        <ele>421</ele>
        <time>2018-04-24T12:06:25.000Z</time>
      </trkpt>
      <trkpt lat="43.83205" lon="7.20769">
        <ele>420</ele>
        <time>2018-04-24T12:06:27.000Z</time>
      </trkpt>
      <trkpt lat="43.832" lon="7.20726">
        <ele>407</ele>
        <time>2018-04-24T12:06:30.000Z</time>
      </trkpt>
      <trkpt lat="43.83199" lon="7.20715">
        <ele>406</ele>
        <time>2018-04-24T12:06:31.000Z</time>
      </trkpt>
      <trkpt lat="43.83195" lon="7.20707">
        <ele>405</ele>
        <time>2018-04-24T12:06:32.000Z</time>
      </trkpt>
      <trkpt lat="43.83189" lon="7.20701">
        <ele>405</ele>
        <time>2018-04-24T12:06:33.000Z</time>
      </trkpt>
      <trkpt lat="43.83181" lon="7.20697">
        <ele>405</ele>
        <time>2018-04-24T12:06:34.000Z</time>
      </trkpt>
      <trkpt lat="43.83174" lon="7.20693">
        <ele>405</ele>
        <time>2018-04-24T12:06:35.000Z</time>
      </trkpt>
      <trkpt lat="43.83166" lon="7.20687">
        <ele>415</ele>
        <time>2018-04-24T12:06:36.000Z</time>
      </trkpt>
      <trkpt lat="43.83159" lon="7.2068">
        <ele>414</ele>
        <time>2018-04-24T12:06:37.000Z</time>
      </trkpt>
      <trkpt lat="43.83152" lon="7.20672">
        <ele>414</ele>
        <time>2018-04-24T12:06:38.000Z</time>
      </trkpt>
      <trkpt lat="43.83145" lon="7.20663">
        <ele>407</ele>
        <time>2018-04-24T12:06:39.000Z</time>
      </trkpt>
      <trkpt lat="43.83138" lon="7.20653">
        <ele>408</ele>
        <time>2018-04-24T12:06:40.000Z</time>
      </trkpt>
      <trkpt lat="43.83132" lon="7.20643">
        <ele>408</ele>
        <time>2018-04-24T12:06:41.000Z</time>
      </trkpt>
      <trkpt lat="43.83118" lon="7.20622">
        <ele>408</ele>
        <time>2018-04-24T12:06:43.000Z</time>
      </trkpt>
      <trkpt lat="43.83102" lon="7.20598">
        <ele>409</ele>
        <time>2018-04-24T12:06:45.000Z</time>
      </trkpt>
      <trkpt lat="43.83089" lon="7.20576">
        <ele>403</ele>
        <time>2018-04-24T12:06:47.000Z</time>
      </trkpt>
      <trkpt lat="43.83075" lon="7.20553">
        <ele>402</ele>
        <time>2018-04-24T12:06:49.000Z</time>
      </trkpt>
      <trkpt lat="43.83062" lon="7.20527">
        <ele>396</ele>
        <time>2018-04-24T12:06:51.000Z</time>
      </trkpt>
      <trkpt lat="43.83053" lon="7.20502">
        <ele>394</ele>
        <time>2018-04-24T12:06:53.000Z</time>
      </trkpt>
      <trkpt lat="43.83048" lon="7.2049">
        <ele>380</ele>
        <time>2018-04-24T12:06:54.000Z</time>
      </trkpt>
      <trkpt lat="43.83041" lon="7.20482">
        <ele>380</ele>
        <time>2018-04-24T12:06:55.000Z</time>
      </trkpt>
      <trkpt lat="43.83032" lon="7.20477">
        <ele>381</ele>
        <time>2018-04-24T12:06:56.000Z</time>
      </trkpt>
      <trkpt lat="43.83023" lon="7.20473">
        <ele>381</ele>
        <time>2018-04-24T12:06:57.000Z</time>
      </trkpt>
      <trkpt lat="43.83005" lon="7.2047">
        <ele>383</ele>
        <time>2018-04-24T12:06:59.000Z</time>
      </trkpt>
      <trkpt lat="43.82996" lon="7.20469">
        <ele>381</ele>
        <time>2018-04-24T12:07:00.000Z</time>
      </trkpt>
      <trkpt lat="43.82988" lon="7.2047">
        <ele>380</ele>
        <time>2018-04-24T12:07:01.000Z</time>
      </trkpt>
      <trkpt lat="43.82975" lon="7.20481">
        <ele>380</ele>
        <time>2018-04-24T12:07:03.000Z</time>
      </trkpt>
      <trkpt lat="43.82971" lon="7.20503">
        <ele>392</ele>
        <time>2018-04-24T12:07:05.000Z</time>
      </trkpt>
      <trkpt lat="43.82967" lon="7.20525">
        <ele>393</ele>
        <time>2018-04-24T12:07:07.000Z</time>
      </trkpt>
      <trkpt lat="43.82965" lon="7.20533">
        <ele>393</ele>
        <time>2018-04-24T12:07:08.000Z</time>
      </trkpt>
      <trkpt lat="43.82963" lon="7.2054">
        <ele>394</ele>
        <time>2018-04-24T12:07:09.000Z</time>
      </trkpt>
      <trkpt lat="43.82961" lon="7.20545">
        <ele>394</ele>
        <time>2018-04-24T12:07:10.000Z</time>
      </trkpt>
      <trkpt lat="43.82954" lon="7.20544">
        <ele>393</ele>
        <time>2018-04-24T12:07:12.000Z</time>
      </trkpt>
      <trkpt lat="43.82955" lon="7.20532">
        <ele>392</ele>
        <time>2018-04-24T12:07:14.000Z</time>
      </trkpt>
      <trkpt lat="43.82959" lon="7.20511">
        <ele>390</ele>
        <time>2018-04-24T12:07:17.000Z</time>
      </trkpt>
      <trkpt lat="43.8296" lon="7.20503">
        <ele>390</ele>
        <time>2018-04-24T12:07:18.000Z</time>
      </trkpt>
      <trkpt lat="43.8296" lon="7.20494">
        <ele>378</ele>
        <time>2018-04-24T12:07:19.000Z</time>
      </trkpt>
      <trkpt lat="43.82958" lon="7.20475">
        <ele>376</ele>
        <time>2018-04-24T12:07:21.000Z</time>
      </trkpt>
      <trkpt lat="43.82953" lon="7.20457">
        <ele>374</ele>
        <time>2018-04-24T12:07:23.000Z</time>
      </trkpt>
      <trkpt lat="43.8295" lon="7.20435">
        <ele>372</ele>
        <time>2018-04-24T12:07:25.000Z</time>
      </trkpt>
      <trkpt lat="43.82955" lon="7.20414">
        <ele>364</ele>
        <time>2018-04-24T12:07:27.000Z</time>
      </trkpt>
      <trkpt lat="43.82961" lon="7.20406">
        <ele>364</ele>
        <time>2018-04-24T12:07:28.000Z</time>
      </trkpt>
      <trkpt lat="43.82976" lon="7.20398">
        <ele>367</ele>
        <time>2018-04-24T12:07:30.000Z</time>
      </trkpt>
      <trkpt lat="43.82991" lon="7.20409">
        <ele>372</ele>
        <time>2018-04-24T12:07:32.000Z</time>
      </trkpt>
      <trkpt lat="43.83013" lon="7.20426">
        <ele>377</ele>
        <time>2018-04-24T12:07:35.000Z</time>
      </trkpt>
      <trkpt lat="43.83021" lon="7.20427">
        <ele>377</ele>
        <time>2018-04-24T12:07:36.000Z</time>
      </trkpt>
      <trkpt lat="43.83026" lon="7.20421">
        <ele>376</ele>
        <time>2018-04-24T12:07:37.000Z</time>
      </trkpt>
      <trkpt lat="43.83027" lon="7.20414">
        <ele>365</ele>
        <time>2018-04-24T12:07:38.000Z</time>
      </trkpt>
      <trkpt lat="43.83023" lon="7.20407">
        <ele>366</ele>
        <time>2018-04-24T12:07:39.000Z</time>
      </trkpt>
      <trkpt lat="43.83018" lon="7.20401">
        <ele>366</ele>
        <time>2018-04-24T12:07:40.000Z</time>
      </trkpt>
      <trkpt lat="43.83" lon="7.20383">
        <ele>367</ele>
        <time>2018-04-24T12:07:43.000Z</time>
      </trkpt>
      <trkpt lat="43.82993" lon="7.20375">
        <ele>365</ele>
        <time>2018-04-24T12:07:44.000Z</time>
      </trkpt>
      <trkpt lat="43.82987" lon="7.20366">
        <ele>364</ele>
        <time>2018-04-24T12:07:45.000Z</time>
      </trkpt>
      <trkpt lat="43.8298" lon="7.20359">
        <ele>363</ele>
        <time>2018-04-24T12:07:46.000Z</time>
      </trkpt>
      <trkpt lat="43.82972" lon="7.20355">
        <ele>362</ele>
        <time>2018-04-24T12:07:47.000Z</time>
      </trkpt>
      <trkpt lat="43.82957" lon="7.2035">
        <ele>361</ele>
        <time>2018-04-24T12:07:49.000Z</time>
      </trkpt>
      <trkpt lat="43.82952" lon="7.20342">
        <ele>360</ele>
        <time>2018-04-24T12:07:50.000Z</time>
      </trkpt>
      <trkpt lat="43.8295" lon="7.20319">
        <ele>353</ele>
        <time>2018-04-24T12:07:52.000Z</time>
      </trkpt>
      <trkpt lat="43.82943" lon="7.20282">
        <ele>352</ele>
        <time>2018-04-24T12:07:55.000Z</time>
      </trkpt>
      <trkpt lat="43.82932" lon="7.20259">
        <ele>351</ele>
        <time>2018-04-24T12:07:57.000Z</time>
      </trkpt>
      <trkpt lat="43.82926" lon="7.20249">
        <ele>349</ele>
        <time>2018-04-24T12:07:58.000Z</time>
      </trkpt>
      <trkpt lat="43.82919" lon="7.20238">
        <ele>349</ele>
        <time>2018-04-24T12:07:59.000Z</time>
      </trkpt>
      <trkpt lat="43.82907" lon="7.20213">
        <ele>343</ele>
        <time>2018-04-24T12:08:01.000Z</time>
      </trkpt>
      <trkpt lat="43.82904" lon="7.20199">
        <ele>344</ele>
        <time>2018-04-24T12:08:02.000Z</time>
      </trkpt>
      <trkpt lat="43.82903" lon="7.20185">
        <ele>345</ele>
        <time>2018-04-24T12:08:03.000Z</time>
      </trkpt>
      <trkpt lat="43.82902" lon="7.2017">
        <ele>347</ele>
        <time>2018-04-24T12:08:04.000Z</time>
      </trkpt>
      <trkpt lat="43.82904" lon="7.20158">
        <ele>349</ele>
        <time>2018-04-24T12:08:05.000Z</time>
      </trkpt>
      <trkpt lat="43.82907" lon="7.20137">
        <ele>348</ele>
        <time>2018-04-24T12:08:07.000Z</time>
      </trkpt>
      <trkpt lat="43.82907" lon="7.20129">
        <ele>348</ele>
        <time>2018-04-24T12:08:08.000Z</time>
      </trkpt>
      <trkpt lat="43.82901" lon="7.2012">
        <ele>347</ele>
        <time>2018-04-24T12:08:10.000Z</time>
      </trkpt>
      <trkpt lat="43.82884" lon="7.20124">
        <ele>347</ele>
        <time>2018-04-24T12:08:13.000Z</time>
      </trkpt>
      <trkpt lat="43.82876" lon="7.20126">
        <ele>347</ele>
        <time>2018-04-24T12:08:14.000Z</time>
      </trkpt>
      <trkpt lat="43.82861" lon="7.20127">
        <ele>347</ele>
        <time>2018-04-24T12:08:16.000Z</time>
      </trkpt>
      <trkpt lat="43.82853" lon="7.20126">
        <ele>346</ele>
        <time>2018-04-24T12:08:17.000Z</time>
      </trkpt>
      <trkpt lat="43.82837" lon="7.20121">
        <ele>347</ele>
        <time>2018-04-24T12:08:19.000Z</time>
      </trkpt>
      <trkpt lat="43.82821" lon="7.20111">
        <ele>334</ele>
        <time>2018-04-24T12:08:21.000Z</time>
      </trkpt>
      <trkpt lat="43.82808" lon="7.20096">
        <ele>334</ele>
        <time>2018-04-24T12:08:23.000Z</time>
      </trkpt>
      <trkpt lat="43.82795" lon="7.20075">
        <ele>340</ele>
        <time>2018-04-24T12:08:25.000Z</time>
      </trkpt>
      <trkpt lat="43.82785" lon="7.20038">
        <ele>340</ele>
        <time>2018-04-24T12:08:28.000Z</time>
      </trkpt>
      <trkpt lat="43.82771" lon="7.19998">
        <ele>346</ele>
        <time>2018-04-24T12:08:31.000Z</time>
      </trkpt>
      <trkpt lat="43.82765" lon="7.19985">
        <ele>346</ele>
        <time>2018-04-24T12:08:32.000Z</time>
      </trkpt>
      <trkpt lat="43.82752" lon="7.19962">
        <ele>352</ele>
        <time>2018-04-24T12:08:34.000Z</time>
      </trkpt>
      <trkpt lat="43.82745" lon="7.19951">
        <ele>323</ele>
        <time>2018-04-24T12:08:35.000Z</time>
      </trkpt>
      <trkpt lat="43.82733" lon="7.19925">
        <ele>330</ele>
        <time>2018-04-24T12:08:37.000Z</time>
      </trkpt>
      <trkpt lat="43.82728" lon="7.19912">
        <ele>339</ele>
        <time>2018-04-24T12:08:38.000Z</time>
      </trkpt>
      <trkpt lat="43.82723" lon="7.19898">
        <ele>335</ele>
        <time>2018-04-24T12:08:39.000Z</time>
      </trkpt>
      <trkpt lat="43.82718" lon="7.19885">
        <ele>333</ele>
        <time>2018-04-24T12:08:40.000Z</time>
      </trkpt>
      <trkpt lat="43.82714" lon="7.19872">
        <ele>333</ele>
        <time>2018-04-24T12:08:41.000Z</time>
      </trkpt>
      <trkpt lat="43.82705" lon="7.19846">
        <ele>331</ele>
        <time>2018-04-24T12:08:43.000Z</time>
      </trkpt>
      <trkpt lat="43.827" lon="7.19833">
        <ele>334</ele>
        <time>2018-04-24T12:08:44.000Z</time>
      </trkpt>
      <trkpt lat="43.82695" lon="7.1982">
        <ele>331</ele>
        <time>2018-04-24T12:08:45.000Z</time>
      </trkpt>
      <trkpt lat="43.82691" lon="7.19808">
        <ele>331</ele>
        <time>2018-04-24T12:08:46.000Z</time>
      </trkpt>
      <trkpt lat="43.82688" lon="7.19796">
        <ele>331</ele>
        <time>2018-04-24T12:08:47.000Z</time>
      </trkpt>
      <trkpt lat="43.82688" lon="7.19783">
        <ele>331</ele>
        <time>2018-04-24T12:08:48.000Z</time>
      </trkpt>
      <trkpt lat="43.82693" lon="7.19758">
        <ele>330</ele>
        <time>2018-04-24T12:08:50.000Z</time>
      </trkpt>
      <trkpt lat="43.82695" lon="7.19746">
        <ele>327</ele>
        <time>2018-04-24T12:08:51.000Z</time>
      </trkpt>
      <trkpt lat="43.82694" lon="7.19708">
        <ele>327</ele>
        <time>2018-04-24T12:08:54.000Z</time>
      </trkpt>
      <trkpt lat="43.82693" lon="7.19695">
        <ele>325</ele>
        <time>2018-04-24T12:08:55.000Z</time>
      </trkpt>
      <trkpt lat="43.82692" lon="7.19666">
        <ele>311</ele>
        <time>2018-04-24T12:08:57.000Z</time>
      </trkpt>
      <trkpt lat="43.82692" lon="7.19637">
        <ele>311</ele>
        <time>2018-04-24T12:08:59.000Z</time>
      </trkpt>
      <trkpt lat="43.82694" lon="7.19588">
        <ele>307</ele>
        <time>2018-04-24T12:09:02.000Z</time>
      </trkpt>
      <trkpt lat="43.82696" lon="7.19561">
        <ele>294</ele>
        <time>2018-04-24T12:09:04.000Z</time>
      </trkpt>
      <trkpt lat="43.82698" lon="7.19551">
        <ele>293</ele>
        <time>2018-04-24T12:09:05.000Z</time>
      </trkpt>
      <trkpt lat="43.82705" lon="7.19539">
        <ele>291</ele>
        <time>2018-04-24T12:09:07.000Z</time>
      </trkpt>
      <trkpt lat="43.82712" lon="7.19547">
        <ele>292</ele>
        <time>2018-04-24T12:09:09.000Z</time>
      </trkpt>
      <trkpt lat="43.82724" lon="7.19573">
        <ele>296</ele>
        <time>2018-04-24T12:09:13.000Z</time>
      </trkpt>
      <trkpt lat="43.82736" lon="7.19584">
        <ele>308</ele>
        <time>2018-04-24T12:09:15.000Z</time>
      </trkpt>
      <trkpt lat="43.82749" lon="7.19594">
        <ele>308</ele>
        <time>2018-04-24T12:09:17.000Z</time>
      </trkpt>
      <trkpt lat="43.82764" lon="7.19606">
        <ele>305</ele>
        <time>2018-04-24T12:09:19.000Z</time>
      </trkpt>
      <trkpt lat="43.82779" lon="7.19619">
        <ele>305</ele>
        <time>2018-04-24T12:09:21.000Z</time>
      </trkpt>
      <trkpt lat="43.82786" lon="7.19626">
        <ele>305</ele>
        <time>2018-04-24T12:09:22.000Z</time>
      </trkpt>
      <trkpt lat="43.82815" lon="7.19659">
        <ele>303</ele>
        <time>2018-04-24T12:09:26.000Z</time>
      </trkpt>
      <trkpt lat="43.82821" lon="7.19669">
        <ele>316</ele>
        <time>2018-04-24T12:09:27.000Z</time>
      </trkpt>
      <trkpt lat="43.82826" lon="7.1968">
        <ele>319</ele>
        <time>2018-04-24T12:09:28.000Z</time>
      </trkpt>
      <trkpt lat="43.82832" lon="7.19691">
        <ele>324</ele>
        <time>2018-04-24T12:09:29.000Z</time>
      </trkpt>
      <trkpt lat="43.8284" lon="7.197">
        <ele>302</ele>
        <time>2018-04-24T12:09:30.000Z</time>
      </trkpt>
      <trkpt lat="43.82848" lon="7.19707">
        <ele>303</ele>
        <time>2018-04-24T12:09:31.000Z</time>
      </trkpt>
      <trkpt lat="43.82858" lon="7.19713">
        <ele>302</ele>
        <time>2018-04-24T12:09:32.000Z</time>
      </trkpt>
      <trkpt lat="43.82866" lon="7.1972">
        <ele>301</ele>
        <time>2018-04-24T12:09:33.000Z</time>
      </trkpt>
      <trkpt lat="43.82875" lon="7.19729">
        <ele>300</ele>
        <time>2018-04-24T12:09:34.000Z</time>
      </trkpt>
      <trkpt lat="43.82882" lon="7.1974">
        <ele>298</ele>
        <time>2018-04-24T12:09:35.000Z</time>
      </trkpt>
      <trkpt lat="43.82889" lon="7.19752">
        <ele>313</ele>
        <time>2018-04-24T12:09:36.000Z</time>
      </trkpt>
      <trkpt lat="43.82901" lon="7.19776">
        <ele>313</ele>
        <time>2018-04-24T12:09:38.000Z</time>
      </trkpt>
      <trkpt lat="43.82913" lon="7.19802">
        <ele>316</ele>
        <time>2018-04-24T12:09:40.000Z</time>
      </trkpt>
      <trkpt lat="43.82919" lon="7.19814">
        <ele>293</ele>
        <time>2018-04-24T12:09:41.000Z</time>
      </trkpt>
      <trkpt lat="43.82927" lon="7.19826">
        <ele>296</ele>
        <time>2018-04-24T12:09:42.000Z</time>
      </trkpt>
      <trkpt lat="43.82944" lon="7.19842">
        <ele>300</ele>
        <time>2018-04-24T12:09:44.000Z</time>
      </trkpt>
      <trkpt lat="43.82961" lon="7.19858">
        <ele>297</ele>
        <time>2018-04-24T12:09:46.000Z</time>
      </trkpt>
      <trkpt lat="43.82967" lon="7.1987">
        <ele>297</ele>
        <time>2018-04-24T12:09:47.000Z</time>
      </trkpt>
      <trkpt lat="43.82972" lon="7.19883">
        <ele>297</ele>
        <time>2018-04-24T12:09:48.000Z</time>
      </trkpt>
      <trkpt lat="43.82976" lon="7.19896">
        <ele>297</ele>
        <time>2018-04-24T12:09:49.000Z</time>
      </trkpt>
      <trkpt lat="43.82982" lon="7.19908">
        <ele>295</ele>
        <time>2018-04-24T12:09:50.000Z</time>
      </trkpt>
      <trkpt lat="43.8299" lon="7.19919">
        <ele>298</ele>
        <time>2018-04-24T12:09:51.000Z</time>
      </trkpt>
      <trkpt lat="43.83008" lon="7.19934">
        <ele>291</ele>
        <time>2018-04-24T12:09:53.000Z</time>
      </trkpt>
      <trkpt lat="43.83019" lon="7.19942">
        <ele>292</ele>
        <time>2018-04-24T12:09:54.000Z</time>
      </trkpt>
      <trkpt lat="43.83028" lon="7.19948">
        <ele>292</ele>
        <time>2018-04-24T12:09:55.000Z</time>
      </trkpt>
      <trkpt lat="43.83037" lon="7.19952">
        <ele>292</ele>
        <time>2018-04-24T12:09:56.000Z</time>
      </trkpt>
      <trkpt lat="43.83045" lon="7.19953">
        <ele>291</ele>
        <time>2018-04-24T12:09:57.000Z</time>
      </trkpt>
      <trkpt lat="43.83053" lon="7.19951">
        <ele>291</ele>
        <time>2018-04-24T12:09:58.000Z</time>
      </trkpt>
      <trkpt lat="43.83061" lon="7.19946">
        <ele>290</ele>
        <time>2018-04-24T12:09:59.000Z</time>
      </trkpt>
      <trkpt lat="43.83074" lon="7.19928">
        <ele>287</ele>
        <time>2018-04-24T12:10:01.000Z</time>
      </trkpt>
      <trkpt lat="43.83078" lon="7.19917">
        <ele>285</ele>
        <time>2018-04-24T12:10:02.000Z</time>
      </trkpt>
      <trkpt lat="43.83081" lon="7.19905">
        <ele>282</ele>
        <time>2018-04-24T12:10:03.000Z</time>
      </trkpt>
      <trkpt lat="43.83089" lon="7.19884">
        <ele>280</ele>
        <time>2018-04-24T12:10:05.000Z</time>
      </trkpt>
      <trkpt lat="43.83106" lon="7.19873">
        <ele>279</ele>
        <time>2018-04-24T12:10:07.000Z</time>
      </trkpt>
      <trkpt lat="43.83124" lon="7.19868">
        <ele>280</ele>
        <time>2018-04-24T12:10:09.000Z</time>
      </trkpt>
      <trkpt lat="43.8314" lon="7.19856">
        <ele>280</ele>
        <time>2018-04-24T12:10:11.000Z</time>
      </trkpt>
      <trkpt lat="43.83146" lon="7.19832">
        <ele>279</ele>
        <time>2018-04-24T12:10:13.000Z</time>
      </trkpt>
      <trkpt lat="43.83139" lon="7.19809">
        <ele>278</ele>
        <time>2018-04-24T12:10:15.000Z</time>
      </trkpt>
      <trkpt lat="43.83131" lon="7.19801">
        <ele>277</ele>
        <time>2018-04-24T12:10:16.000Z</time>
      </trkpt>
      <trkpt lat="43.83123" lon="7.19793">
        <ele>276</ele>
        <time>2018-04-24T12:10:17.000Z</time>
      </trkpt>
      <trkpt lat="43.83116" lon="7.19784">
        <ele>275</ele>
        <time>2018-04-24T12:10:18.000Z</time>
      </trkpt>
      <trkpt lat="43.8311" lon="7.19771">
        <ele>273</ele>
        <time>2018-04-24T12:10:19.000Z</time>
      </trkpt>
      <trkpt lat="43.83108" lon="7.19758">
        <ele>272</ele>
        <time>2018-04-24T12:10:20.000Z</time>
      </trkpt>
      <trkpt lat="43.83108" lon="7.19731">
        <ele>269</ele>
        <time>2018-04-24T12:10:22.000Z</time>
      </trkpt>
      <trkpt lat="43.83108" lon="7.19718">
        <ele>269</ele>
        <time>2018-04-24T12:10:23.000Z</time>
      </trkpt>
      <trkpt lat="43.83107" lon="7.19702">
        <ele>268</ele>
        <time>2018-04-24T12:10:24.000Z</time>
      </trkpt>
      <trkpt lat="43.83107" lon="7.19688">
        <ele>267</ele>
        <time>2018-04-24T12:10:25.000Z</time>
      </trkpt>
      <trkpt lat="43.8311" lon="7.19661">
        <ele>256</ele>
        <time>2018-04-24T12:10:27.000Z</time>
      </trkpt>
      <trkpt lat="43.83115" lon="7.19649">
        <ele>256</ele>
        <time>2018-04-24T12:10:28.000Z</time>
      </trkpt>
      <trkpt lat="43.8313" lon="7.19631">
        <ele>256</ele>
        <time>2018-04-24T12:10:30.000Z</time>
      </trkpt>
      <trkpt lat="43.83139" lon="7.19621">
        <ele>256</ele>
        <time>2018-04-24T12:10:31.000Z</time>
      </trkpt>
      <trkpt lat="43.83146" lon="7.19612">
        <ele>255</ele>
        <time>2018-04-24T12:10:32.000Z</time>
      </trkpt>
      <trkpt lat="43.83153" lon="7.19606">
        <ele>255</ele>
        <time>2018-04-24T12:10:33.000Z</time>
      </trkpt>
      <trkpt lat="43.83161" lon="7.19599">
        <ele>254</ele>
        <time>2018-04-24T12:10:34.000Z</time>
      </trkpt>
      <trkpt lat="43.83169" lon="7.19595">
        <ele>260</ele>
        <time>2018-04-24T12:10:35.000Z</time>
      </trkpt>
      <trkpt lat="43.83187" lon="7.19598">
        <ele>265</ele>
        <time>2018-04-24T12:10:37.000Z</time>
      </trkpt>
      <trkpt lat="43.83205" lon="7.19601">
        <ele>268</ele>
        <time>2018-04-24T12:10:39.000Z</time>
      </trkpt>
      <trkpt lat="43.83224" lon="7.19599">
        <ele>269</ele>
        <time>2018-04-24T12:10:41.000Z</time>
      </trkpt>
      <trkpt lat="43.83242" lon="7.19596">
        <ele>267</ele>
        <time>2018-04-24T12:10:43.000Z</time>
      </trkpt>
      <trkpt lat="43.83256" lon="7.1959">
        <ele>261</ele>
        <time>2018-04-24T12:10:45.000Z</time>
      </trkpt>
      <trkpt lat="43.83253" lon="7.19578">
        <ele>255</ele>
        <time>2018-04-24T12:10:47.000Z</time>
      </trkpt>
      <trkpt lat="43.83248" lon="7.19577">
        <ele>256</ele>
        <time>2018-04-24T12:10:48.000Z</time>
      </trkpt>
      <trkpt lat="43.8324" lon="7.19579">
        <ele>253</ele>
        <time>2018-04-24T12:10:49.000Z</time>
      </trkpt>
      <trkpt lat="43.83233" lon="7.19581">
        <ele>250</ele>
        <time>2018-04-24T12:10:50.000Z</time>
      </trkpt>
      <trkpt lat="43.83211" lon="7.19586">
        <ele>267</ele>
        <time>2018-04-24T12:10:53.000Z</time>
      </trkpt>
      <trkpt lat="43.83192" lon="7.19584">
        <ele>264</ele>
        <time>2018-04-24T12:10:55.000Z</time>
      </trkpt>
      <trkpt lat="43.83183" lon="7.1958">
        <ele>245</ele>
        <time>2018-04-24T12:10:56.000Z</time>
      </trkpt>
      <trkpt lat="43.83174" lon="7.19576">
        <ele>246</ele>
        <time>2018-04-24T12:10:57.000Z</time>
      </trkpt>
      <trkpt lat="43.83165" lon="7.19574">
        <ele>242</ele>
        <time>2018-04-24T12:10:58.000Z</time>
      </trkpt>
      <trkpt lat="43.83155" lon="7.19575">
        <ele>238</ele>
        <time>2018-04-24T12:10:59.000Z</time>
      </trkpt>
      <trkpt lat="43.83135" lon="7.19584">
        <ele>251</ele>
        <time>2018-04-24T12:11:01.000Z</time>
      </trkpt>
      <trkpt lat="43.83125" lon="7.19589">
        <ele>249</ele>
        <time>2018-04-24T12:11:02.000Z</time>
      </trkpt>
      <trkpt lat="43.83116" lon="7.19594">
        <ele>247</ele>
        <time>2018-04-24T12:11:03.000Z</time>
      </trkpt>
      <trkpt lat="43.83095" lon="7.19607">
        <ele>245</ele>
        <time>2018-04-24T12:11:05.000Z</time>
      </trkpt>
      <trkpt lat="43.83075" lon="7.19626">
        <ele>234</ele>
        <time>2018-04-24T12:11:07.000Z</time>
      </trkpt>
      <trkpt lat="43.83061" lon="7.19652">
        <ele>238</ele>
        <time>2018-04-24T12:11:09.000Z</time>
      </trkpt>
      <trkpt lat="43.83055" lon="7.19664">
        <ele>238</ele>
        <time>2018-04-24T12:11:10.000Z</time>
      </trkpt>
      <trkpt lat="43.83052" lon="7.19677">
        <ele>249</ele>
        <time>2018-04-24T12:11:11.000Z</time>
      </trkpt>
      <trkpt lat="43.83051" lon="7.19692">
        <ele>249</ele>
        <time>2018-04-24T12:11:12.000Z</time>
      </trkpt>
      <trkpt lat="43.83053" lon="7.19705">
        <ele>250</ele>
        <time>2018-04-24T12:11:13.000Z</time>
      </trkpt>
      <trkpt lat="43.83055" lon="7.19719">
        <ele>252</ele>
        <time>2018-04-24T12:11:14.000Z</time>
      </trkpt>
      <trkpt lat="43.83056" lon="7.19732">
        <ele>253</ele>
        <time>2018-04-24T12:11:15.000Z</time>
      </trkpt>
      <trkpt lat="43.83048" lon="7.19751">
        <ele>262</ele>
        <time>2018-04-24T12:11:17.000Z</time>
      </trkpt>
      <trkpt lat="43.83034" lon="7.19748">
        <ele>252</ele>
        <time>2018-04-24T12:11:19.000Z</time>
      </trkpt>
      <trkpt lat="43.8303" lon="7.1974">
        <ele>251</ele>
        <time>2018-04-24T12:11:20.000Z</time>
      </trkpt>
      <trkpt lat="43.83026" lon="7.1973">
        <ele>250</ele>
        <time>2018-04-24T12:11:21.000Z</time>
      </trkpt>
      <trkpt lat="43.83021" lon="7.19721">
        <ele>249</ele>
        <time>2018-04-24T12:11:22.000Z</time>
      </trkpt>
      <trkpt lat="43.83009" lon="7.19708">
        <ele>247</ele>
        <time>2018-04-24T12:11:24.000Z</time>
      </trkpt>
      <trkpt lat="43.82992" lon="7.19697">
        <ele>249</ele>
        <time>2018-04-24T12:11:26.000Z</time>
      </trkpt>
      <trkpt lat="43.82985" lon="7.1969">
        <ele>248</ele>
        <time>2018-04-24T12:11:27.000Z</time>
      </trkpt>
      <trkpt lat="43.82978" lon="7.19683">
        <ele>248</ele>
        <time>2018-04-24T12:11:28.000Z</time>
      </trkpt>
      <trkpt lat="43.82964" lon="7.19665">
        <ele>236</ele>
        <time>2018-04-24T12:11:30.000Z</time>
      </trkpt>
      <trkpt lat="43.8295" lon="7.19643">
        <ele>237</ele>
        <time>2018-04-24T12:11:32.000Z</time>
      </trkpt>
      <trkpt lat="43.82946" lon="7.19631">
        <ele>236</ele>
        <time>2018-04-24T12:11:33.000Z</time>
      </trkpt>
      <trkpt lat="43.82943" lon="7.19616">
        <ele>234</ele>
        <time>2018-04-24T12:11:34.000Z</time>
      </trkpt>
      <trkpt lat="43.82939" lon="7.19585">
        <ele>232</ele>
        <time>2018-04-24T12:11:36.000Z</time>
      </trkpt>
      <trkpt lat="43.82935" lon="7.1957">
        <ele>220</ele>
        <time>2018-04-24T12:11:37.000Z</time>
      </trkpt>
      <trkpt lat="43.82931" lon="7.19557">
        <ele>218</ele>
        <time>2018-04-24T12:11:38.000Z</time>
      </trkpt>
      <trkpt lat="43.82925" lon="7.19541">
        <ele>216</ele>
        <time>2018-04-24T12:11:39.000Z</time>
      </trkpt>
      <trkpt lat="43.82919" lon="7.19527">
        <ele>214</ele>
        <time>2018-04-24T12:11:40.000Z</time>
      </trkpt>
      <trkpt lat="43.82914" lon="7.19513">
        <ele>224</ele>
        <time>2018-04-24T12:11:41.000Z</time>
      </trkpt>
      <trkpt lat="43.82902" lon="7.19489">
        <ele>213</ele>
        <time>2018-04-24T12:11:43.000Z</time>
      </trkpt>
      <trkpt lat="43.82887" lon="7.19476">
        <ele>211</ele>
        <time>2018-04-24T12:11:45.000Z</time>
      </trkpt>
      <trkpt lat="43.82868" lon="7.19473">
        <ele>213</ele>
        <time>2018-04-24T12:11:47.000Z</time>
      </trkpt>
      <trkpt lat="43.82859" lon="7.19471">
        <ele>214</ele>
        <time>2018-04-24T12:11:48.000Z</time>
      </trkpt>
      <trkpt lat="43.82838" lon="7.19465">
        <ele>214</ele>
        <time>2018-04-24T12:11:50.000Z</time>
      </trkpt>
      <trkpt lat="43.82818" lon="7.19457">
        <ele>227</ele>
        <time>2018-04-24T12:11:52.000Z</time>
      </trkpt>
      <trkpt lat="43.82809" lon="7.19453">
        <ele>228</ele>
        <time>2018-04-24T12:11:53.000Z</time>
      </trkpt>
      <trkpt lat="43.82798" lon="7.19445">
        <ele>228</ele>
        <time>2018-04-24T12:11:54.000Z</time>
      </trkpt>
      <trkpt lat="43.8278" lon="7.19428">
        <ele>229</ele>
        <time>2018-04-24T12:11:56.000Z</time>
      </trkpt>
      <trkpt lat="43.82762" lon="7.19412">
        <ele>217</ele>
        <time>2018-04-24T12:11:58.000Z</time>
      </trkpt>
      <trkpt lat="43.82753" lon="7.19402">
        <ele>215</ele>
        <time>2018-04-24T12:11:59.000Z</time>
      </trkpt>
      <trkpt lat="43.82744" lon="7.1939">
        <ele>227</ele>
        <time>2018-04-24T12:12:00.000Z</time>
      </trkpt>
      <trkpt lat="43.82728" lon="7.19349">
        <ele>217</ele>
        <time>2018-04-24T12:12:03.000Z</time>
      </trkpt>
      <trkpt lat="43.82721" lon="7.19335">
        <ele>217</ele>
        <time>2018-04-24T12:12:04.000Z</time>
      </trkpt>
      <trkpt lat="43.82714" lon="7.19324">
        <ele>196</ele>
        <time>2018-04-24T12:12:05.000Z</time>
      </trkpt>
      <trkpt lat="43.82704" lon="7.19315">
        <ele>197</ele>
        <time>2018-04-24T12:12:06.000Z</time>
      </trkpt>
      <trkpt lat="43.82693" lon="7.19309">
        <ele>199</ele>
        <time>2018-04-24T12:12:07.000Z</time>
      </trkpt>
      <trkpt lat="43.82683" lon="7.19304">
        <ele>200</ele>
        <time>2018-04-24T12:12:08.000Z</time>
      </trkpt>
      <trkpt lat="43.82671" lon="7.19298">
        <ele>199</ele>
        <time>2018-04-24T12:12:09.000Z</time>
      </trkpt>
      <trkpt lat="43.82639" lon="7.19278">
        <ele>208</ele>
        <time>2018-04-24T12:12:12.000Z</time>
      </trkpt>
      <trkpt lat="43.82618" lon="7.19263">
        <ele>208</ele>
        <time>2018-04-24T12:12:14.000Z</time>
      </trkpt>
      <trkpt lat="43.82607" lon="7.19256">
        <ele>207</ele>
        <time>2018-04-24T12:12:15.000Z</time>
      </trkpt>
      <trkpt lat="43.82597" lon="7.19248">
        <ele>192</ele>
        <time>2018-04-24T12:12:16.000Z</time>
      </trkpt>
      <trkpt lat="43.82571" lon="7.19229">
        <ele>189</ele>
        <time>2018-04-24T12:12:19.000Z</time>
      </trkpt>
      <trkpt lat="43.82554" lon="7.1922">
        <ele>185</ele>
        <time>2018-04-24T12:12:22.000Z</time>
      </trkpt>
      <trkpt lat="43.82558" lon="7.19207">
        <ele>183</ele>
        <time>2018-04-24T12:12:24.000Z</time>
      </trkpt>
      <trkpt lat="43.82564" lon="7.19206">
        <ele>183</ele>
        <time>2018-04-24T12:12:25.000Z</time>
      </trkpt>
      <trkpt lat="43.82571" lon="7.19207">
        <ele>183</ele>
        <time>2018-04-24T12:12:26.000Z</time>
      </trkpt>
      <trkpt lat="43.82591" lon="7.19218">
        <ele>185</ele>
        <time>2018-04-24T12:12:29.000Z</time>
      </trkpt>
      <trkpt lat="43.82598" lon="7.19224">
        <ele>186</ele>
        <time>2018-04-24T12:12:30.000Z</time>
      </trkpt>
      <trkpt lat="43.82612" lon="7.19236">
        <ele>186</ele>
        <time>2018-04-24T12:12:32.000Z</time>
      </trkpt>
      <trkpt lat="43.82636" lon="7.19254">
        <ele>204</ele>
        <time>2018-04-24T12:12:35.000Z</time>
      </trkpt>
      <trkpt lat="43.82645" lon="7.1926">
        <ele>202</ele>
        <time>2018-04-24T12:12:36.000Z</time>
      </trkpt>
      <trkpt lat="43.82656" lon="7.19264">
        <ele>200</ele>
        <time>2018-04-24T12:12:37.000Z</time>
      </trkpt>
      <trkpt lat="43.82675" lon="7.19272">
        <ele>191</ele>
        <time>2018-04-24T12:12:39.000Z</time>
      </trkpt>
      <trkpt lat="43.82685" lon="7.19276">
        <ele>191</ele>
        <time>2018-04-24T12:12:40.000Z</time>
      </trkpt>
      <trkpt lat="43.82705" lon="7.1928">
        <ele>190</ele>
        <time>2018-04-24T12:12:42.000Z</time>
      </trkpt>
      <trkpt lat="43.82715" lon="7.19282">
        <ele>188</ele>
        <time>2018-04-24T12:12:43.000Z</time>
      </trkpt>
      <trkpt lat="43.82726" lon="7.19286">
        <ele>187</ele>
        <time>2018-04-24T12:12:44.000Z</time>
      </trkpt>
      <trkpt lat="43.82745" lon="7.19296">
        <ele>187</ele>
        <time>2018-04-24T12:12:46.000Z</time>
      </trkpt>
      <trkpt lat="43.82755" lon="7.19302">
        <ele>173</ele>
        <time>2018-04-24T12:12:47.000Z</time>
      </trkpt>
      <trkpt lat="43.82764" lon="7.19308">
        <ele>173</ele>
        <time>2018-04-24T12:12:48.000Z</time>
      </trkpt>
      <trkpt lat="43.82775" lon="7.19314">
        <ele>173</ele>
        <time>2018-04-24T12:12:49.000Z</time>
      </trkpt>
      <trkpt lat="43.82785" lon="7.1932">
        <ele>171</ele>
        <time>2018-04-24T12:12:50.000Z</time>
      </trkpt>
      <trkpt lat="43.82806" lon="7.19331">
        <ele>169</ele>
        <time>2018-04-24T12:12:52.000Z</time>
      </trkpt>
      <trkpt lat="43.82838" lon="7.19352">
        <ele>174</ele>
        <time>2018-04-24T12:12:55.000Z</time>
      </trkpt>
      <trkpt lat="43.82867" lon="7.1937">
        <ele>177</ele>
        <time>2018-04-24T12:12:58.000Z</time>
      </trkpt>
      <trkpt lat="43.82886" lon="7.19372">
        <ele>176</ele>
        <time>2018-04-24T12:13:00.000Z</time>
      </trkpt>
      <trkpt lat="43.82895" lon="7.19371">
        <ele>175</ele>
        <time>2018-04-24T12:13:01.000Z</time>
      </trkpt>
      <trkpt lat="43.82905" lon="7.19371">
        <ele>174</ele>
        <time>2018-04-24T12:13:02.000Z</time>
      </trkpt>
      <trkpt lat="43.82934" lon="7.19375">
        <ele>163</ele>
        <time>2018-04-24T12:13:05.000Z</time>
      </trkpt>
      <trkpt lat="43.82944" lon="7.19379">
        <ele>163</ele>
        <time>2018-04-24T12:13:06.000Z</time>
      </trkpt>
      <trkpt lat="43.82963" lon="7.19385">
        <ele>162</ele>
        <time>2018-04-24T12:13:08.000Z</time>
      </trkpt>
      <trkpt lat="43.82991" lon="7.19397">
        <ele>162</ele>
        <time>2018-04-24T12:13:11.000Z</time>
      </trkpt>
      <trkpt lat="43.83003" lon="7.19409">
        <ele>159</ele>
        <time>2018-04-24T12:13:13.000Z</time>
      </trkpt>
      <trkpt lat="43.83009" lon="7.19417">
        <ele>159</ele>
        <time>2018-04-24T12:13:14.000Z</time>
      </trkpt>
      <trkpt lat="43.83019" lon="7.19424">
        <ele>169</ele>
        <time>2018-04-24T12:13:16.000Z</time>
      </trkpt>
      <trkpt lat="43.83023" lon="7.19421">
        <ele>169</ele>
        <time>2018-04-24T12:13:17.000Z</time>
      </trkpt>
      <trkpt lat="43.83021" lon="7.19409">
        <ele>153</ele>
        <time>2018-04-24T12:13:19.000Z</time>
      </trkpt>
      <trkpt lat="43.83016" lon="7.19404">
        <ele>153</ele>
        <time>2018-04-24T12:13:20.000Z</time>
      </trkpt>
      <trkpt lat="43.83011" lon="7.19399">
        <ele>153</ele>
        <time>2018-04-24T12:13:21.000Z</time>
      </trkpt>
      <trkpt lat="43.83006" lon="7.19393">
        <ele>151</ele>
        <time>2018-04-24T12:13:22.000Z</time>
      </trkpt>
      <trkpt lat="43.82987" lon="7.19375">
        <ele>157</ele>
        <time>2018-04-24T12:13:25.000Z</time>
      </trkpt>
      <trkpt lat="43.8298" lon="7.19372">
        <ele>157</ele>
        <time>2018-04-24T12:13:26.000Z</time>
      </trkpt>
      <trkpt lat="43.82972" lon="7.19369">
        <ele>157</ele>
        <time>2018-04-24T12:13:27.000Z</time>
      </trkpt>
      <trkpt lat="43.82964" lon="7.19367">
        <ele>158</ele>
        <time>2018-04-24T12:13:28.000Z</time>
      </trkpt>
      <trkpt lat="43.82955" lon="7.19365">
        <ele>159</ele>
        <time>2018-04-24T12:13:29.000Z</time>
      </trkpt>
      <trkpt lat="43.82947" lon="7.19363">
        <ele>159</ele>
        <time>2018-04-24T12:13:30.000Z</time>
      </trkpt>
      <trkpt lat="43.8293" lon="7.19356">
        <ele>158</ele>
        <time>2018-04-24T12:13:32.000Z</time>
      </trkpt>
      <trkpt lat="43.82913" lon="7.19345">
        <ele>161</ele>
        <time>2018-04-24T12:13:34.000Z</time>
      </trkpt>
      <trkpt lat="43.82905" lon="7.19338">
        <ele>162</ele>
        <time>2018-04-24T12:13:35.000Z</time>
      </trkpt>
      <trkpt lat="43.82879" lon="7.19316">
        <ele>148</ele>
        <time>2018-04-24T12:13:38.000Z</time>
      </trkpt>
      <trkpt lat="43.82871" lon="7.19305">
        <ele>148</ele>
        <time>2018-04-24T12:13:39.000Z</time>
      </trkpt>
      <trkpt lat="43.82864" lon="7.19295">
        <ele>147</ele>
        <time>2018-04-24T12:13:40.000Z</time>
      </trkpt>
      <trkpt lat="43.82856" lon="7.19286">
        <ele>146</ele>
        <time>2018-04-24T12:13:41.000Z</time>
      </trkpt>
      <trkpt lat="43.82847" lon="7.19278">
        <ele>145</ele>
        <time>2018-04-24T12:13:42.000Z</time>
      </trkpt>
      <trkpt lat="43.82838" lon="7.19274">
        <ele>144</ele>
        <time>2018-04-24T12:13:43.000Z</time>
      </trkpt>
      <trkpt lat="43.82817" lon="7.19265">
        <ele>155</ele>
        <time>2018-04-24T12:13:45.000Z</time>
      </trkpt>
      <trkpt lat="43.82808" lon="7.19258">
        <ele>157</ele>
        <time>2018-04-24T12:13:46.000Z</time>
      </trkpt>
      <trkpt lat="43.82785" lon="7.19225">
        <ele>144</ele>
        <time>2018-04-24T12:13:49.000Z</time>
      </trkpt>
      <trkpt lat="43.8277" lon="7.19202">
        <ele>142</ele>
        <time>2018-04-24T12:13:51.000Z</time>
      </trkpt>
      <trkpt lat="43.82756" lon="7.19178">
        <ele>140</ele>
        <time>2018-04-24T12:13:53.000Z</time>
      </trkpt>
      <trkpt lat="43.8274" lon="7.1915">
        <ele>139</ele>
        <time>2018-04-24T12:13:55.000Z</time>
      </trkpt>
      <trkpt lat="43.82729" lon="7.19121">
        <ele>137</ele>
        <time>2018-04-24T12:13:57.000Z</time>
      </trkpt>
      <trkpt lat="43.82719" lon="7.19093">
        <ele>135</ele>
        <time>2018-04-24T12:13:59.000Z</time>
      </trkpt>
      <trkpt lat="43.82709" lon="7.19069">
        <ele>125</ele>
        <time>2018-04-24T12:14:01.000Z</time>
      </trkpt>
      <trkpt lat="43.82701" lon="7.19062">
        <ele>125</ele>
        <time>2018-04-24T12:14:02.000Z</time>
      </trkpt>
      <trkpt lat="43.82691" lon="7.19058">
        <ele>126</ele>
        <time>2018-04-24T12:14:03.000Z</time>
      </trkpt>
      <trkpt lat="43.82681" lon="7.19054">
        <ele>126</ele>
        <time>2018-04-24T12:14:04.000Z</time>
      </trkpt>
      <trkpt lat="43.82671" lon="7.19051">
        <ele>126</ele>
        <time>2018-04-24T12:14:05.000Z</time>
      </trkpt>
      <trkpt lat="43.8266" lon="7.19047">
        <ele>131</ele>
        <time>2018-04-24T12:14:06.000Z</time>
      </trkpt>
      <trkpt lat="43.82639" lon="7.1904">
        <ele>130</ele>
        <time>2018-04-24T12:14:08.000Z</time>
      </trkpt>
      <trkpt lat="43.82618" lon="7.19029">
        <ele>129</ele>
        <time>2018-04-24T12:14:10.000Z</time>
      </trkpt>
      <trkpt lat="43.82589" lon="7.1901">
        <ele>124</ele>
        <time>2018-04-24T12:14:13.000Z</time>
      </trkpt>
      <trkpt lat="43.82569" lon="7.19">
        <ele>126</ele>
        <time>2018-04-24T12:14:15.000Z</time>
      </trkpt>
      <trkpt lat="43.82561" lon="7.18996">
        <ele>118</ele>
        <time>2018-04-24T12:14:16.000Z</time>
      </trkpt>
      <trkpt lat="43.82547" lon="7.18991">
        <ele>117</ele>
        <time>2018-04-24T12:14:18.000Z</time>
      </trkpt>
      <trkpt lat="43.82542" lon="7.1899">
        <ele>117</ele>
        <time>2018-04-24T12:14:19.000Z</time>
      </trkpt>
      <trkpt lat="43.82526" lon="7.18986">
        <ele>118</ele>
        <time>2018-04-24T12:14:22.000Z</time>
      </trkpt>
      <trkpt lat="43.82515" lon="7.18987">
        <ele>119</ele>
        <time>2018-04-24T12:14:24.000Z</time>
      </trkpt>
      <trkpt lat="43.82503" lon="7.1899">
        <ele>121</ele>
        <time>2018-04-24T12:14:26.000Z</time>
      </trkpt>
      <trkpt lat="43.82496" lon="7.18993">
        <ele>121</ele>
        <time>2018-04-24T12:14:27.000Z</time>
      </trkpt>
      <trkpt lat="43.82484" lon="7.18995">
        <ele>120</ele>
        <time>2018-04-24T12:14:29.000Z</time>
      </trkpt>
      <trkpt lat="43.82476" lon="7.18996">
        <ele>118</ele>
        <time>2018-04-24T12:14:31.000Z</time>
      </trkpt>
      <trkpt lat="43.82458" lon="7.18995">
        <ele>117</ele>
        <time>2018-04-24T12:14:37.000Z</time>
      </trkpt>
      <trkpt lat="43.82447" lon="7.18995">
        <ele>116</ele>
        <time>2018-04-24T12:14:40.000Z</time>
      </trkpt>
      <trkpt lat="43.82437" lon="7.19">
        <ele>116</ele>
        <time>2018-04-24T12:14:43.000Z</time>
      </trkpt>
      <trkpt lat="43.82422" lon="7.19006">
        <ele>119</ele>
        <time>2018-04-24T12:14:47.000Z</time>
      </trkpt>
      <trkpt lat="43.82413" lon="7.1901">
        <ele>117</ele>
        <time>2018-04-24T12:14:49.000Z</time>
      </trkpt>
      <trkpt lat="43.82409" lon="7.19012">
        <ele>117</ele>
        <time>2018-04-24T12:14:50.000Z</time>
      </trkpt>
      <trkpt lat="43.82399" lon="7.1902">
        <ele>117</ele>
        <time>2018-04-24T12:14:52.000Z</time>
      </trkpt>
      <trkpt lat="43.82383" lon="7.19034">
        <ele>118</ele>
        <time>2018-04-24T12:14:55.000Z</time>
      </trkpt>
      <trkpt lat="43.82377" lon="7.19037">
        <ele>118</ele>
        <time>2018-04-24T12:14:56.000Z</time>
      </trkpt>
      <trkpt lat="43.82365" lon="7.19043">
        <ele>117</ele>
        <time>2018-04-24T12:14:58.000Z</time>
      </trkpt>
      <trkpt lat="43.8236" lon="7.19047">
        <ele>117</ele>
        <time>2018-04-24T12:14:59.000Z</time>
      </trkpt>
      <trkpt lat="43.82355" lon="7.19051">
        <ele>117</ele>
        <time>2018-04-24T12:15:00.000Z</time>
      </trkpt>
      <trkpt lat="43.82347" lon="7.1906">
        <ele>117</ele>
        <time>2018-04-24T12:15:02.000Z</time>
      </trkpt>
      <trkpt lat="43.82338" lon="7.19069">
        <ele>116</ele>
        <time>2018-04-24T12:15:04.000Z</time>
      </trkpt>
      <trkpt lat="43.82335" lon="7.19074">
        <ele>116</ele>
        <time>2018-04-24T12:15:05.000Z</time>
      </trkpt>
      <trkpt lat="43.82327" lon="7.19087">
        <ele>115</ele>
        <time>2018-04-24T12:15:07.000Z</time>
      </trkpt>
      <trkpt lat="43.82315" lon="7.19106">
        <ele>116</ele>
        <time>2018-04-24T12:15:10.000Z</time>
      </trkpt>
      <trkpt lat="43.82305" lon="7.19116">
        <ele>116</ele>
        <time>2018-04-24T12:15:12.000Z</time>
      </trkpt>
      <trkpt lat="43.82295" lon="7.19123">
        <ele>116</ele>
        <time>2018-04-24T12:15:14.000Z</time>
      </trkpt>
      <trkpt lat="43.82284" lon="7.19128">
        <ele>116</ele>
        <time>2018-04-24T12:15:16.000Z</time>
      </trkpt>
      <trkpt lat="43.82279" lon="7.19131">
        <ele>115</ele>
        <time>2018-04-24T12:15:17.000Z</time>
      </trkpt>
      <trkpt lat="43.82274" lon="7.19133">
        <ele>115</ele>
        <time>2018-04-24T12:15:18.000Z</time>
      </trkpt>
      <trkpt lat="43.82255" lon="7.1914">
        <ele>114</ele>
        <time>2018-04-24T12:15:22.000Z</time>
      </trkpt>
      <trkpt lat="43.82251" lon="7.1914">
        <ele>114</ele>
        <time>2018-04-24T12:15:23.000Z</time>
      </trkpt>
      <trkpt lat="43.82238" lon="7.19139">
        <ele>111</ele>
        <time>2018-04-24T12:15:26.000Z</time>
      </trkpt>
      <trkpt lat="43.8223" lon="7.19138">
        <ele>111</ele>
        <time>2018-04-24T12:15:28.000Z</time>
      </trkpt>
      <trkpt lat="43.82205" lon="7.19133">
        <ele>111</ele>
        <time>2018-04-24T12:15:34.000Z</time>
      </trkpt>
      <trkpt lat="43.82203" lon="7.19132">
        <ele>111</ele>
        <time>2018-04-24T12:15:35.000Z</time>
      </trkpt>
      <trkpt lat="43.82188" lon="7.19127">
        <ele>111</ele>
        <time>2018-04-24T12:15:41.000Z</time>
      </trkpt>
      <trkpt lat="43.82171" lon="7.19121">
        <ele>110</ele>
        <time>2018-04-24T12:15:46.000Z</time>
      </trkpt>
      <trkpt lat="43.82168" lon="7.1912">
        <ele>110</ele>
        <time>2018-04-24T12:15:47.000Z</time>
      </trkpt>
      <trkpt lat="43.82136" lon="7.19108">
        <ele>110</ele>
        <time>2018-04-24T12:15:56.000Z</time>
      </trkpt>
      <trkpt lat="43.82128" lon="7.19105">
        <ele>109</ele>
        <time>2018-04-24T12:15:59.000Z</time>
      </trkpt>
      <trkpt lat="43.82123" lon="7.19099">
        <ele>109</ele>
        <time>2018-04-24T12:16:01.000Z</time>
      </trkpt>
      <trkpt lat="43.82125" lon="7.19084">
        <ele>109</ele>
        <time>2018-04-24T12:16:04.000Z</time>
      </trkpt>
      <trkpt lat="43.82127" lon="7.19073">
        <ele>109</ele>
        <time>2018-04-24T12:16:06.000Z</time>
      </trkpt>
      <trkpt lat="43.82132" lon="7.19037">
        <ele>109</ele>
        <time>2018-04-24T12:16:12.000Z</time>
      </trkpt>
      <trkpt lat="43.82142" lon="7.1898">
        <ele>109</ele>
        <time>2018-04-24T12:16:21.000Z</time>
      </trkpt>
      <trkpt lat="43.82144" lon="7.18968">
        <ele>109</ele>
        <time>2018-04-24T12:16:23.000Z</time>
      </trkpt>
      <trkpt lat="43.82149" lon="7.18935">
        <ele>109</ele>
        <time>2018-04-24T12:16:28.000Z</time>
      </trkpt>
      <trkpt lat="43.8215" lon="7.18907">
        <ele>108</ele>
        <time>2018-04-24T12:16:32.000Z</time>
      </trkpt>
      <trkpt lat="43.82147" lon="7.18895">
        <ele>108</ele>
        <time>2018-04-24T12:16:34.000Z</time>
      </trkpt>
      <trkpt lat="43.82133" lon="7.1889">
        <ele>108</ele>
        <time>2018-04-24T12:16:37.000Z</time>
      </trkpt>
      <trkpt lat="43.82129" lon="7.18889">
        <ele>107</ele>
        <time>2018-04-24T12:16:38.000Z</time>
      </trkpt>
      <trkpt lat="43.821" lon="7.18888">
        <ele>107</ele>
        <time>2018-04-24T12:16:44.000Z</time>
      </trkpt>
      <trkpt lat="43.82096" lon="7.18887">
        <ele>107</ele>
        <time>2018-04-24T12:16:45.000Z</time>
      </trkpt>
      <trkpt lat="43.82087" lon="7.18883">
        <ele>107</ele>
        <time>2018-04-24T12:16:47.000Z</time>
      </trkpt>
      <trkpt lat="43.82084" lon="7.18873">
        <ele>107</ele>
        <time>2018-04-24T12:16:49.000Z</time>
      </trkpt>
      <trkpt lat="43.82081" lon="7.18862">
        <ele>106</ele>
        <time>2018-04-24T12:16:53.000Z</time>
      </trkpt>
      <trkpt lat="43.8208" lon="7.18857">
        <ele>106</ele>
        <time>2018-04-24T12:16:54.000Z</time>
      </trkpt>
      <trkpt lat="43.82075" lon="7.1885">
        <ele>106</ele>
        <time>2018-04-24T12:16:56.000Z</time>
      </trkpt>
      <trkpt lat="43.82071" lon="7.18847">
        <ele>106</ele>
        <time>2018-04-24T12:16:57.000Z</time>
      </trkpt>
      <trkpt lat="43.82067" lon="7.18846">
        <ele>106</ele>
        <time>2018-04-24T12:16:58.000Z</time>
      </trkpt>
      <trkpt lat="43.82057" lon="7.18842">
        <ele>106</ele>
        <time>2018-04-24T12:17:00.000Z</time>
      </trkpt>
      <trkpt lat="43.82036" lon="7.18836">
        <ele>106</ele>
        <time>2018-04-24T12:17:04.000Z</time>
      </trkpt>
      <trkpt lat="43.82016" lon="7.1883">
        <ele>104</ele>
        <time>2018-04-24T12:17:08.000Z</time>
      </trkpt>
      <trkpt lat="43.81976" lon="7.18819">
        <ele>104</ele>
        <time>2018-04-24T12:17:15.000Z</time>
      </trkpt>
      <trkpt lat="43.81917" lon="7.18803">
        <ele>104</ele>
        <time>2018-04-24T12:17:25.000Z</time>
      </trkpt>
      <trkpt lat="43.81911" lon="7.18802">
        <ele>104</ele>
        <time>2018-04-24T12:17:26.000Z</time>
      </trkpt>
      <trkpt lat="43.81854" lon="7.18798">
        <ele>103</ele>
        <time>2018-04-24T12:17:35.000Z</time>
      </trkpt>
      <trkpt lat="43.81835" lon="7.18799">
        <ele>103</ele>
        <time>2018-04-24T12:17:38.000Z</time>
      </trkpt>
      <trkpt lat="43.81804" lon="7.18801">
        <ele>102</ele>
        <time>2018-04-24T12:17:43.000Z</time>
      </trkpt>
      <trkpt lat="43.81797" lon="7.18801">
        <ele>102</ele>
        <time>2018-04-24T12:17:44.000Z</time>
      </trkpt>
      <trkpt lat="43.81761" lon="7.18803">
        <ele>102</ele>
        <time>2018-04-24T12:17:50.000Z</time>
      </trkpt>
      <trkpt lat="43.81744" lon="7.18804">
        <ele>101</ele>
        <time>2018-04-24T12:17:53.000Z</time>
      </trkpt>
      <trkpt lat="43.8169" lon="7.1881">
        <ele>101</ele>
        <time>2018-04-24T12:18:02.000Z</time>
      </trkpt>
      <trkpt lat="43.81635" lon="7.1882">
        <ele>100</ele>
        <time>2018-04-24T12:18:12.000Z</time>
      </trkpt>
      <trkpt lat="43.8163" lon="7.18821">
        <ele>100</ele>
        <time>2018-04-24T12:18:13.000Z</time>
      </trkpt>
      <trkpt lat="43.81598" lon="7.18827">
        <ele>100</ele>
        <time>2018-04-24T12:18:19.000Z</time>
      </trkpt>
      <trkpt lat="43.81587" lon="7.1883">
        <ele>101</ele>
        <time>2018-04-24T12:18:21.000Z</time>
      </trkpt>
      <trkpt lat="43.81561" lon="7.18837">
        <ele>101</ele>
        <time>2018-04-24T12:18:26.000Z</time>
      </trkpt>
      <trkpt lat="43.8155" lon="7.1884">
        <ele>101</ele>
        <time>2018-04-24T12:18:28.000Z</time>
      </trkpt>
      <trkpt lat="43.81535" lon="7.18844">
        <ele>101</ele>
        <time>2018-04-24T12:18:31.000Z</time>
      </trkpt>
      <trkpt lat="43.81481" lon="7.18861">
        <ele>101</ele>
        <time>2018-04-24T12:18:42.000Z</time>
      </trkpt>
      <trkpt lat="43.81477" lon="7.18863">
        <ele>101</ele>
        <time>2018-04-24T12:18:43.000Z</time>
      </trkpt>
      <trkpt lat="43.81431" lon="7.18879">
        <ele>101</ele>
        <time>2018-04-24T12:18:53.000Z</time>
      </trkpt>
      <trkpt lat="43.81395" lon="7.18895">
        <ele>101</ele>
        <time>2018-04-24T12:19:01.000Z</time>
      </trkpt>
      <trkpt lat="43.8138" lon="7.18901">
        <ele>100</ele>
        <time>2018-04-24T12:19:04.000Z</time>
      </trkpt>
      <trkpt lat="43.81328" lon="7.18926">
        <ele>101</ele>
        <time>2018-04-24T12:19:14.000Z</time>
      </trkpt>
      <trkpt lat="43.81271" lon="7.18956">
        <ele>100</ele>
        <time>2018-04-24T12:19:24.000Z</time>
      </trkpt>
      <trkpt lat="43.81265" lon="7.18959">
        <ele>100</ele>
        <time>2018-04-24T12:19:25.000Z</time>
      </trkpt>
      <trkpt lat="43.81253" lon="7.18966">
        <ele>100</ele>
        <time>2018-04-24T12:19:27.000Z</time>
      </trkpt>
      <trkpt lat="43.81236" lon="7.18976">
        <ele>98</ele>
        <time>2018-04-24T12:19:30.000Z</time>
      </trkpt>
      <trkpt lat="43.81214" lon="7.1899">
        <ele>98</ele>
        <time>2018-04-24T12:19:34.000Z</time>
      </trkpt>
      <trkpt lat="43.81203" lon="7.18996">
        <ele>98</ele>
        <time>2018-04-24T12:19:36.000Z</time>
      </trkpt>
      <trkpt lat="43.81153" lon="7.1903">
        <ele>97</ele>
        <time>2018-04-24T12:19:46.000Z</time>
      </trkpt>
      <trkpt lat="43.81148" lon="7.19033">
        <ele>97</ele>
        <time>2018-04-24T12:19:47.000Z</time>
      </trkpt>
      <trkpt lat="43.81113" lon="7.19058">
        <ele>97</ele>
        <time>2018-04-24T12:19:54.000Z</time>
      </trkpt>
      <trkpt lat="43.81085" lon="7.1908">
        <ele>97</ele>
        <time>2018-04-24T12:20:00.000Z</time>
      </trkpt>
      <trkpt lat="43.81047" lon="7.19112">
        <ele>98</ele>
        <time>2018-04-24T12:20:09.000Z</time>
      </trkpt>
      <trkpt lat="43.81039" lon="7.19119">
        <ele>98</ele>
        <time>2018-04-24T12:20:11.000Z</time>
      </trkpt>
      <trkpt lat="43.8101" lon="7.19152">
        <ele>99</ele>
        <time>2018-04-24T12:20:19.000Z</time>
      </trkpt>
      <trkpt lat="43.80991" lon="7.19173">
        <ele>99</ele>
        <time>2018-04-24T12:20:24.000Z</time>
      </trkpt>
      <trkpt lat="43.80976" lon="7.19191">
        <ele>98</ele>
        <time>2018-04-24T12:20:28.000Z</time>
      </trkpt>
      <trkpt lat="43.8094" lon="7.19232">
        <ele>98</ele>
        <time>2018-04-24T12:20:36.000Z</time>
      </trkpt>
      <trkpt lat="43.80896" lon="7.19284">
        <ele>96</ele>
        <time>2018-04-24T12:20:45.000Z</time>
      </trkpt>
      <trkpt lat="43.80891" lon="7.1929">
        <ele>96</ele>
        <time>2018-04-24T12:20:46.000Z</time>
      </trkpt>
      <trkpt lat="43.80865" lon="7.1932">
        <ele>95</ele>
        <time>2018-04-24T12:20:51.000Z</time>
      </trkpt>
      <trkpt lat="43.80823" lon="7.19369">
        <ele>95</ele>
        <time>2018-04-24T12:20:59.000Z</time>
      </trkpt>
      <trkpt lat="43.80778" lon="7.19422">
        <ele>95</ele>
        <time>2018-04-24T12:21:08.000Z</time>
      </trkpt>
      <trkpt lat="43.80773" lon="7.19427">
        <ele>95</ele>
        <time>2018-04-24T12:21:09.000Z</time>
      </trkpt>
      <trkpt lat="43.80763" lon="7.19438">
        <ele>95</ele>
        <time>2018-04-24T12:21:11.000Z</time>
      </trkpt>
      <trkpt lat="43.80721" lon="7.19488">
        <ele>93</ele>
        <time>2018-04-24T12:21:20.000Z</time>
      </trkpt>
      <trkpt lat="43.80711" lon="7.19499">
        <ele>93</ele>
        <time>2018-04-24T12:21:22.000Z</time>
      </trkpt>
      <trkpt lat="43.80669" lon="7.19549">
        <ele>95</ele>
        <time>2018-04-24T12:21:31.000Z</time>
      </trkpt>
      <trkpt lat="43.8064" lon="7.19582">
        <ele>92</ele>
        <time>2018-04-24T12:21:37.000Z</time>
      </trkpt>
      <trkpt lat="43.80598" lon="7.19632">
        <ele>93</ele>
        <time>2018-04-24T12:21:46.000Z</time>
      </trkpt>
      <trkpt lat="43.80589" lon="7.19642">
        <ele>93</ele>
        <time>2018-04-24T12:21:48.000Z</time>
      </trkpt>
      <trkpt lat="43.80574" lon="7.19659">
        <ele>91</ele>
        <time>2018-04-24T12:21:51.000Z</time>
      </trkpt>
      <trkpt lat="43.80533" lon="7.19707">
        <ele>93</ele>
        <time>2018-04-24T12:22:00.000Z</time>
      </trkpt>
      <trkpt lat="43.80511" lon="7.19733">
        <ele>93</ele>
        <time>2018-04-24T12:22:05.000Z</time>
      </trkpt>
      <trkpt lat="43.80481" lon="7.19767">
        <ele>93</ele>
        <time>2018-04-24T12:22:12.000Z</time>
      </trkpt>
      <trkpt lat="43.80447" lon="7.19807">
        <ele>92</ele>
        <time>2018-04-24T12:22:20.000Z</time>
      </trkpt>
      <trkpt lat="43.8043" lon="7.19827">
        <ele>92</ele>
        <time>2018-04-24T12:22:24.000Z</time>
      </trkpt>
      <trkpt lat="43.80387" lon="7.19877">
        <ele>92</ele>
        <time>2018-04-24T12:22:33.000Z</time>
      </trkpt>
      <trkpt lat="43.80382" lon="7.19885">
        <ele>92</ele>
        <time>2018-04-24T12:22:34.000Z</time>
      </trkpt>
      <trkpt lat="43.80361" lon="7.19909">
        <ele>92</ele>
        <time>2018-04-24T12:22:38.000Z</time>
      </trkpt>
      <trkpt lat="43.80316" lon="7.19961">
        <ele>90</ele>
        <time>2018-04-24T12:22:46.000Z</time>
      </trkpt>
      <trkpt lat="43.80293" lon="7.19988">
        <ele>90</ele>
        <time>2018-04-24T12:22:50.000Z</time>
      </trkpt>
      <trkpt lat="43.80248" lon="7.20039">
        <ele>89</ele>
        <time>2018-04-24T12:22:58.000Z</time>
      </trkpt>
      <trkpt lat="43.80242" lon="7.20046">
        <ele>89</ele>
        <time>2018-04-24T12:22:59.000Z</time>
      </trkpt>
      <trkpt lat="43.80199" lon="7.20096">
        <ele>90</ele>
        <time>2018-04-24T12:23:07.000Z</time>
      </trkpt>
      <trkpt lat="43.80183" lon="7.20114">
        <ele>90</ele>
        <time>2018-04-24T12:23:10.000Z</time>
      </trkpt>
      <trkpt lat="43.80141" lon="7.20163">
        <ele>88</ele>
        <time>2018-04-24T12:23:18.000Z</time>
      </trkpt>
      <trkpt lat="43.80116" lon="7.20192">
        <ele>89</ele>
        <time>2018-04-24T12:23:23.000Z</time>
      </trkpt>
      <trkpt lat="43.80072" lon="7.20242">
        <ele>89</ele>
        <time>2018-04-24T12:23:32.000Z</time>
      </trkpt>
      <trkpt lat="43.80068" lon="7.20247">
        <ele>88</ele>
        <time>2018-04-24T12:23:33.000Z</time>
      </trkpt>
      <trkpt lat="43.80039" lon="7.20282">
        <ele>88</ele>
        <time>2018-04-24T12:23:39.000Z</time>
      </trkpt>
      <trkpt lat="43.80019" lon="7.20305">
        <ele>89</ele>
        <time>2018-04-24T12:23:43.000Z</time>
      </trkpt>
      <trkpt lat="43.79983" lon="7.2036">
        <ele>90</ele>
        <time>2018-04-24T12:23:51.000Z</time>
      </trkpt>
      <trkpt lat="43.79968" lon="7.20379">
        <ele>90</ele>
        <time>2018-04-24T12:23:54.000Z</time>
      </trkpt>
      <trkpt lat="43.79963" lon="7.20384">
        <ele>90</ele>
        <time>2018-04-24T12:23:55.000Z</time>
      </trkpt>
      <trkpt lat="43.79957" lon="7.20388">
        <ele>89</ele>
        <time>2018-04-24T12:23:56.000Z</time>
      </trkpt>
      <trkpt lat="43.79938" lon="7.2041">
        <ele>89</ele>
        <time>2018-04-24T12:24:00.000Z</time>
      </trkpt>
      <trkpt lat="43.79934" lon="7.20417">
        <ele>89</ele>
        <time>2018-04-24T12:24:01.000Z</time>
      </trkpt>
      <trkpt lat="43.79925" lon="7.20428">
        <ele>90</ele>
        <time>2018-04-24T12:24:03.000Z</time>
      </trkpt>
      <trkpt lat="43.79914" lon="7.20438">
        <ele>88</ele>
        <time>2018-04-24T12:24:05.000Z</time>
      </trkpt>
      <trkpt lat="43.7987" lon="7.20478">
        <ele>87</ele>
        <time>2018-04-24T12:24:13.000Z</time>
      </trkpt>
      <trkpt lat="43.79865" lon="7.20484">
        <ele>86</ele>
        <time>2018-04-24T12:24:14.000Z</time>
      </trkpt>
      <trkpt lat="43.79824" lon="7.20531">
        <ele>85</ele>
        <time>2018-04-24T12:24:22.000Z</time>
      </trkpt>
      <trkpt lat="43.79781" lon="7.2058">
        <ele>86</ele>
        <time>2018-04-24T12:24:30.000Z</time>
      </trkpt>
      <trkpt lat="43.79759" lon="7.20606">
        <ele>86</ele>
        <time>2018-04-24T12:24:34.000Z</time>
      </trkpt>
      <trkpt lat="43.79726" lon="7.20645">
        <ele>85</ele>
        <time>2018-04-24T12:24:40.000Z</time>
      </trkpt>
      <trkpt lat="43.79697" lon="7.20677">
        <ele>85</ele>
        <time>2018-04-24T12:24:45.000Z</time>
      </trkpt>
      <trkpt lat="43.79653" lon="7.20729">
        <ele>84</ele>
        <time>2018-04-24T12:24:53.000Z</time>
      </trkpt>
      <trkpt lat="43.79613" lon="7.20776">
        <ele>85</ele>
        <time>2018-04-24T12:25:00.000Z</time>
      </trkpt>
      <trkpt lat="43.79575" lon="7.2082">
        <ele>85</ele>
        <time>2018-04-24T12:25:07.000Z</time>
      </trkpt>
      <trkpt lat="43.79553" lon="7.20845">
        <ele>85</ele>
        <time>2018-04-24T12:25:11.000Z</time>
      </trkpt>
      <trkpt lat="43.79508" lon="7.20897">
        <ele>84</ele>
        <time>2018-04-24T12:25:19.000Z</time>
      </trkpt>
      <trkpt lat="43.79497" lon="7.2091">
        <ele>83</ele>
        <time>2018-04-24T12:25:21.000Z</time>
      </trkpt>
      <trkpt lat="43.79455" lon="7.20959">
        <ele>83</ele>
        <time>2018-04-24T12:25:29.000Z</time>
      </trkpt>
      <trkpt lat="43.7945" lon="7.20965">
        <ele>83</ele>
        <time>2018-04-24T12:25:30.000Z</time>
      </trkpt>
      <trkpt lat="43.79404" lon="7.21018">
        <ele>83</ele>
        <time>2018-04-24T12:25:39.000Z</time>
      </trkpt>
      <trkpt lat="43.7938" lon="7.21045">
        <ele>82</ele>
        <time>2018-04-24T12:25:44.000Z</time>
      </trkpt>
      <trkpt lat="43.79342" lon="7.2109">
        <ele>82</ele>
        <time>2018-04-24T12:25:52.000Z</time>
      </trkpt>
      <trkpt lat="43.79304" lon="7.21134">
        <ele>82</ele>
        <time>2018-04-24T12:26:00.000Z</time>
      </trkpt>
      <trkpt lat="43.79285" lon="7.21156">
        <ele>82</ele>
        <time>2018-04-24T12:26:04.000Z</time>
      </trkpt>
      <trkpt lat="43.79241" lon="7.21207">
        <ele>81</ele>
        <time>2018-04-24T12:26:13.000Z</time>
      </trkpt>
      <trkpt lat="43.79221" lon="7.2123">
        <ele>81</ele>
        <time>2018-04-24T12:26:17.000Z</time>
      </trkpt>
      <trkpt lat="43.79177" lon="7.21282">
        <ele>82</ele>
        <time>2018-04-24T12:26:26.000Z</time>
      </trkpt>
      <trkpt lat="43.79163" lon="7.213">
        <ele>81</ele>
        <time>2018-04-24T12:26:29.000Z</time>
      </trkpt>
      <trkpt lat="43.79124" lon="7.21357">
        <ele>80</ele>
        <time>2018-04-24T12:26:38.000Z</time>
      </trkpt>
      <trkpt lat="43.79115" lon="7.2137">
        <ele>80</ele>
        <time>2018-04-24T12:26:40.000Z</time>
      </trkpt>
      <trkpt lat="43.7911" lon="7.21376">
        <ele>80</ele>
        <time>2018-04-24T12:26:41.000Z</time>
      </trkpt>
      <trkpt lat="43.79105" lon="7.21382">
        <ele>80</ele>
        <time>2018-04-24T12:26:42.000Z</time>
      </trkpt>
      <trkpt lat="43.79094" lon="7.2139">
        <ele>81</ele>
        <time>2018-04-24T12:26:44.000Z</time>
      </trkpt>
      <trkpt lat="43.79089" lon="7.21395">
        <ele>81</ele>
        <time>2018-04-24T12:26:45.000Z</time>
      </trkpt>
      <trkpt lat="43.79075" lon="7.21413">
        <ele>80</ele>
        <time>2018-04-24T12:26:48.000Z</time>
      </trkpt>
      <trkpt lat="43.7907" lon="7.21419">
        <ele>80</ele>
        <time>2018-04-24T12:26:49.000Z</time>
      </trkpt>
      <trkpt lat="43.79054" lon="7.21433">
        <ele>80</ele>
        <time>2018-04-24T12:26:52.000Z</time>
      </trkpt>
      <trkpt lat="43.79004" lon="7.21472">
        <ele>80</ele>
        <time>2018-04-24T12:27:01.000Z</time>
      </trkpt>
      <trkpt lat="43.78994" lon="7.21481">
        <ele>79</ele>
        <time>2018-04-24T12:27:03.000Z</time>
      </trkpt>
      <trkpt lat="43.78943" lon="7.21522">
        <ele>79</ele>
        <time>2018-04-24T12:27:12.000Z</time>
      </trkpt>
      <trkpt lat="43.78926" lon="7.21535">
        <ele>79</ele>
        <time>2018-04-24T12:27:15.000Z</time>
      </trkpt>
      <trkpt lat="43.78886" lon="7.21562">
        <ele>77</ele>
        <time>2018-04-24T12:27:22.000Z</time>
      </trkpt>
      <trkpt lat="43.78832" lon="7.21596">
        <ele>77</ele>
        <time>2018-04-24T12:27:31.000Z</time>
      </trkpt>
      <trkpt lat="43.78826" lon="7.216">
        <ele>78</ele>
        <time>2018-04-24T12:27:32.000Z</time>
      </trkpt>
      <trkpt lat="43.78814" lon="7.21607">
        <ele>78</ele>
        <time>2018-04-24T12:27:34.000Z</time>
      </trkpt>
      <trkpt lat="43.78764" lon="7.21636">
        <ele>78</ele>
        <time>2018-04-24T12:27:42.000Z</time>
      </trkpt>
      <trkpt lat="43.7875" lon="7.21642">
        <ele>78</ele>
        <time>2018-04-24T12:27:44.000Z</time>
      </trkpt>
      <trkpt lat="43.78709" lon="7.21662">
        <ele>77</ele>
        <time>2018-04-24T12:27:50.000Z</time>
      </trkpt>
      <trkpt lat="43.78661" lon="7.21684">
        <ele>77</ele>
        <time>2018-04-24T12:27:57.000Z</time>
      </trkpt>
      <trkpt lat="43.78605" lon="7.21707">
        <ele>77</ele>
        <time>2018-04-24T12:28:05.000Z</time>
      </trkpt>
      <trkpt lat="43.78569" lon="7.2172">
        <ele>76</ele>
        <time>2018-04-24T12:28:10.000Z</time>
      </trkpt>
      <trkpt lat="43.78512" lon="7.21738">
        <ele>75</ele>
        <time>2018-04-24T12:28:18.000Z</time>
      </trkpt>
      <trkpt lat="43.7849" lon="7.21744">
        <ele>74</ele>
        <time>2018-04-24T12:28:21.000Z</time>
      </trkpt>
      <trkpt lat="43.78433" lon="7.21759">
        <ele>73</ele>
        <time>2018-04-24T12:28:29.000Z</time>
      </trkpt>
      <trkpt lat="43.78404" lon="7.21765">
        <ele>73</ele>
        <time>2018-04-24T12:28:33.000Z</time>
      </trkpt>
      <trkpt lat="43.78347" lon="7.21776">
        <ele>75</ele>
        <time>2018-04-24T12:28:41.000Z</time>
      </trkpt>
      <trkpt lat="43.7834" lon="7.21777">
        <ele>75</ele>
        <time>2018-04-24T12:28:42.000Z</time>
      </trkpt>
      <trkpt lat="43.78326" lon="7.21779">
        <ele>75</ele>
        <time>2018-04-24T12:28:44.000Z</time>
      </trkpt>
      <trkpt lat="43.78268" lon="7.21785">
        <ele>74</ele>
        <time>2018-04-24T12:28:53.000Z</time>
      </trkpt>
      <trkpt lat="43.78261" lon="7.21785">
        <ele>74</ele>
        <time>2018-04-24T12:28:54.000Z</time>
      </trkpt>
      <trkpt lat="43.78224" lon="7.21787">
        <ele>73</ele>
        <time>2018-04-24T12:29:00.000Z</time>
      </trkpt>
      <trkpt lat="43.78193" lon="7.21788">
        <ele>73</ele>
        <time>2018-04-24T12:29:05.000Z</time>
      </trkpt>
      <trkpt lat="43.78136" lon="7.21788">
        <ele>73</ele>
        <time>2018-04-24T12:29:13.000Z</time>
      </trkpt>
      <trkpt lat="43.78122" lon="7.21788">
        <ele>73</ele>
        <time>2018-04-24T12:29:15.000Z</time>
      </trkpt>
      <trkpt lat="43.78081" lon="7.21787">
        <ele>74</ele>
        <time>2018-04-24T12:29:21.000Z</time>
      </trkpt>
      <trkpt lat="43.78024" lon="7.21781">
        <ele>75</ele>
        <time>2018-04-24T12:29:30.000Z</time>
      </trkpt>
      <trkpt lat="43.78017" lon="7.2178">
        <ele>75</ele>
        <time>2018-04-24T12:29:31.000Z</time>
      </trkpt>
      <trkpt lat="43.77961" lon="7.21771">
        <ele>77</ele>
        <time>2018-04-24T12:29:40.000Z</time>
      </trkpt>
      <trkpt lat="43.77955" lon="7.2177">
        <ele>77</ele>
        <time>2018-04-24T12:29:41.000Z</time>
      </trkpt>
      <trkpt lat="43.77924" lon="7.21764">
        <ele>76</ele>
        <time>2018-04-24T12:29:46.000Z</time>
      </trkpt>
      <trkpt lat="43.77881" lon="7.21755">
        <ele>77</ele>
        <time>2018-04-24T12:29:53.000Z</time>
      </trkpt>
      <trkpt lat="43.77825" lon="7.2174">
        <ele>73</ele>
        <time>2018-04-24T12:30:02.000Z</time>
      </trkpt>
      <trkpt lat="43.77773" lon="7.21723">
        <ele>73</ele>
        <time>2018-04-24T12:30:11.000Z</time>
      </trkpt>
      <trkpt lat="43.7772" lon="7.21704">
        <ele>72</ele>
        <time>2018-04-24T12:30:19.000Z</time>
      </trkpt>
      <trkpt lat="43.77665" lon="7.21681">
        <ele>72</ele>
        <time>2018-04-24T12:30:28.000Z</time>
      </trkpt>
      <trkpt lat="43.77653" lon="7.21676">
        <ele>72</ele>
        <time>2018-04-24T12:30:30.000Z</time>
      </trkpt>
      <trkpt lat="43.77605" lon="7.21653">
        <ele>72</ele>
        <time>2018-04-24T12:30:38.000Z</time>
      </trkpt>
      <trkpt lat="43.7758" lon="7.2164">
        <ele>71</ele>
        <time>2018-04-24T12:30:42.000Z</time>
      </trkpt>
      <trkpt lat="43.77524" lon="7.2161">
        <ele>70</ele>
        <time>2018-04-24T12:30:51.000Z</time>
      </trkpt>
      <trkpt lat="43.77518" lon="7.21607">
        <ele>70</ele>
        <time>2018-04-24T12:30:52.000Z</time>
      </trkpt>
      <trkpt lat="43.77472" lon="7.21578">
        <ele>70</ele>
        <time>2018-04-24T12:31:00.000Z</time>
      </trkpt>
      <trkpt lat="43.77444" lon="7.21561">
        <ele>70</ele>
        <time>2018-04-24T12:31:05.000Z</time>
      </trkpt>
      <trkpt lat="43.77395" lon="7.21527">
        <ele>69</ele>
        <time>2018-04-24T12:31:14.000Z</time>
      </trkpt>
      <trkpt lat="43.7738" lon="7.21516">
        <ele>69</ele>
        <time>2018-04-24T12:31:17.000Z</time>
      </trkpt>
      <trkpt lat="43.77332" lon="7.2148">
        <ele>68</ele>
        <time>2018-04-24T12:31:26.000Z</time>
      </trkpt>
      <trkpt lat="43.7731" lon="7.21462">
        <ele>67</ele>
        <time>2018-04-24T12:31:30.000Z</time>
      </trkpt>
      <trkpt lat="43.77273" lon="7.21432">
        <ele>67</ele>
        <time>2018-04-24T12:31:37.000Z</time>
      </trkpt>
      <trkpt lat="43.77253" lon="7.21413">
        <ele>67</ele>
        <time>2018-04-24T12:31:41.000Z</time>
      </trkpt>
      <trkpt lat="43.77206" lon="7.21374">
        <ele>66</ele>
        <time>2018-04-24T12:31:50.000Z</time>
      </trkpt>
      <trkpt lat="43.77195" lon="7.21368">
        <ele>66</ele>
        <time>2018-04-24T12:31:52.000Z</time>
      </trkpt>
      <trkpt lat="43.77191" lon="7.21364">
        <ele>66</ele>
        <time>2018-04-24T12:31:53.000Z</time>
      </trkpt>
      <trkpt lat="43.77177" lon="7.21349">
        <ele>66</ele>
        <time>2018-04-24T12:31:56.000Z</time>
      </trkpt>
      <trkpt lat="43.77162" lon="7.21337">
        <ele>66</ele>
        <time>2018-04-24T12:31:59.000Z</time>
      </trkpt>
      <trkpt lat="43.77158" lon="7.21331">
        <ele>66</ele>
        <time>2018-04-24T12:32:00.000Z</time>
      </trkpt>
      <trkpt lat="43.77137" lon="7.21303">
        <ele>65</ele>
        <time>2018-04-24T12:32:05.000Z</time>
      </trkpt>
      <trkpt lat="43.77126" lon="7.21291">
        <ele>65</ele>
        <time>2018-04-24T12:32:07.000Z</time>
      </trkpt>
      <trkpt lat="43.77081" lon="7.21243">
        <ele>67</ele>
        <time>2018-04-24T12:32:16.000Z</time>
      </trkpt>
      <trkpt lat="43.77076" lon="7.21238">
        <ele>67</ele>
        <time>2018-04-24T12:32:17.000Z</time>
      </trkpt>
      <trkpt lat="43.7705" lon="7.2121">
        <ele>67</ele>
        <time>2018-04-24T12:32:22.000Z</time>
      </trkpt>
      <trkpt lat="43.77009" lon="7.21167">
        <ele>66</ele>
        <time>2018-04-24T12:32:30.000Z</time>
      </trkpt>
      <trkpt lat="43.76964" lon="7.2112">
        <ele>65</ele>
        <time>2018-04-24T12:32:39.000Z</time>
      </trkpt>
      <trkpt lat="43.76928" lon="7.21083">
        <ele>66</ele>
        <time>2018-04-24T12:32:46.000Z</time>
      </trkpt>
      <trkpt lat="43.76904" lon="7.21058">
        <ele>66</ele>
        <time>2018-04-24T12:32:51.000Z</time>
      </trkpt>
      <trkpt lat="43.76875" lon="7.21027">
        <ele>66</ele>
        <time>2018-04-24T12:32:57.000Z</time>
      </trkpt>
      <trkpt lat="43.76828" lon="7.20978">
        <ele>67</ele>
        <time>2018-04-24T12:33:07.000Z</time>
      </trkpt>
      <trkpt lat="43.76818" lon="7.20968">
        <ele>67</ele>
        <time>2018-04-24T12:33:09.000Z</time>
      </trkpt>
      <trkpt lat="43.76774" lon="7.20921">
        <ele>68</ele>
        <time>2018-04-24T12:33:18.000Z</time>
      </trkpt>
      <trkpt lat="43.76744" lon="7.20887">
        <ele>67</ele>
        <time>2018-04-24T12:33:24.000Z</time>
      </trkpt>
      <trkpt lat="43.76725" lon="7.20865">
        <ele>66</ele>
        <time>2018-04-24T12:33:28.000Z</time>
      </trkpt>
      <trkpt lat="43.76715" lon="7.20854">
        <ele>66</ele>
        <time>2018-04-24T12:33:30.000Z</time>
      </trkpt>
      <trkpt lat="43.76674" lon="7.20806">
        <ele>64</ele>
        <time>2018-04-24T12:33:39.000Z</time>
      </trkpt>
      <trkpt lat="43.7663" lon="7.20759">
        <ele>64</ele>
        <time>2018-04-24T12:33:48.000Z</time>
      </trkpt>
      <trkpt lat="43.76615" lon="7.20744">
        <ele>63</ele>
        <time>2018-04-24T12:33:51.000Z</time>
      </trkpt>
      <trkpt lat="43.7657" lon="7.20697">
        <ele>64</ele>
        <time>2018-04-24T12:34:00.000Z</time>
      </trkpt>
      <trkpt lat="43.76538" lon="7.20657">
        <ele>64</ele>
        <time>2018-04-24T12:34:07.000Z</time>
      </trkpt>
      <trkpt lat="43.76515" lon="7.20629">
        <ele>63</ele>
        <time>2018-04-24T12:34:12.000Z</time>
      </trkpt>
      <trkpt lat="43.76501" lon="7.20612">
        <ele>63</ele>
        <time>2018-04-24T12:34:15.000Z</time>
      </trkpt>
      <trkpt lat="43.76458" lon="7.20562">
        <ele>62</ele>
        <time>2018-04-24T12:34:25.000Z</time>
      </trkpt>
      <trkpt lat="43.7643" lon="7.20533">
        <ele>62</ele>
        <time>2018-04-24T12:34:32.000Z</time>
      </trkpt>
      <trkpt lat="43.76426" lon="7.20529">
        <ele>62</ele>
        <time>2018-04-24T12:34:33.000Z</time>
      </trkpt>
      <trkpt lat="43.76419" lon="7.20522">
        <ele>62</ele>
        <time>2018-04-24T12:34:35.000Z</time>
      </trkpt>
      <trkpt lat="43.76416" lon="7.2051">
        <ele>63</ele>
        <time>2018-04-24T12:34:37.000Z</time>
      </trkpt>
      <trkpt lat="43.76423" lon="7.20495">
        <ele>61</ele>
        <time>2018-04-24T12:34:40.000Z</time>
      </trkpt>
      <trkpt lat="43.7643" lon="7.20482">
        <ele>61</ele>
        <time>2018-04-24T12:34:43.000Z</time>
      </trkpt>
      <trkpt lat="43.76436" lon="7.20472">
        <ele>61</ele>
        <time>2018-04-24T12:34:45.000Z</time>
      </trkpt>
      <trkpt lat="43.76442" lon="7.20462">
        <ele>60</ele>
        <time>2018-04-24T12:34:47.000Z</time>
      </trkpt>
      <trkpt lat="43.76458" lon="7.20433">
        <ele>60</ele>
        <time>2018-04-24T12:34:52.000Z</time>
      </trkpt>
      <trkpt lat="43.76489" lon="7.20376">
        <ele>59</ele>
        <time>2018-04-24T12:35:02.000Z</time>
      </trkpt>
      <trkpt lat="43.76515" lon="7.20331">
        <ele>61</ele>
        <time>2018-04-24T12:35:10.000Z</time>
      </trkpt>
      <trkpt lat="43.76548" lon="7.20271">
        <ele>62</ele>
        <time>2018-04-24T12:35:20.000Z</time>
      </trkpt>
      <trkpt lat="43.76554" lon="7.20259">
        <ele>62</ele>
        <time>2018-04-24T12:35:22.000Z</time>
      </trkpt>
      <trkpt lat="43.76581" lon="7.20211">
        <ele>63</ele>
        <time>2018-04-24T12:35:30.000Z</time>
      </trkpt>
      <trkpt lat="43.76585" lon="7.20208">
        <ele>64</ele>
        <time>2018-04-24T12:35:31.000Z</time>
      </trkpt>
      <trkpt lat="43.76601" lon="7.20201">
        <ele>64</ele>
        <time>2018-04-24T12:35:35.000Z</time>
      </trkpt>
      <trkpt lat="43.76614" lon="7.20202">
        <ele>64</ele>
        <time>2018-04-24T12:35:38.000Z</time>
      </trkpt>
      <trkpt lat="43.76628" lon="7.20221">
        <ele>64</ele>
        <time>2018-04-24T12:35:42.000Z</time>
      </trkpt>
      <trkpt lat="43.76636" lon="7.20239">
        <ele>64</ele>
        <time>2018-04-24T12:35:45.000Z</time>
      </trkpt>
      <trkpt lat="43.76641" lon="7.20257">
        <ele>64</ele>
        <time>2018-04-24T12:35:48.000Z</time>
      </trkpt>
      <trkpt lat="43.76639" lon="7.2027">
        <ele>64</ele>
        <time>2018-04-24T12:35:51.000Z</time>
      </trkpt>
      <trkpt lat="43.76628" lon="7.20271">
        <ele>64</ele>
        <time>2018-04-24T12:35:54.000Z</time>
      </trkpt>
      <trkpt lat="43.76615" lon="7.20259">
        <ele>64</ele>
        <time>2018-04-24T12:35:57.000Z</time>
      </trkpt>
      <trkpt lat="43.76611" lon="7.20255">
        <ele>64</ele>
        <time>2018-04-24T12:35:58.000Z</time>
      </trkpt>
      <trkpt lat="43.76601" lon="7.20246">
        <ele>64</ele>
        <time>2018-04-24T12:36:00.000Z</time>
      </trkpt>
      <trkpt lat="43.7659" lon="7.20235">
        <ele>64</ele>
        <time>2018-04-24T12:36:02.000Z</time>
      </trkpt>
      <trkpt lat="43.76585" lon="7.20229">
        <ele>64</ele>
        <time>2018-04-24T12:36:03.000Z</time>
      </trkpt>
      <trkpt lat="43.76573" lon="7.20216">
        <ele>63</ele>
        <time>2018-04-24T12:36:05.000Z</time>
      </trkpt>
      <trkpt lat="43.76559" lon="7.202">
        <ele>62</ele>
        <time>2018-04-24T12:36:08.000Z</time>
      </trkpt>
      <trkpt lat="43.76548" lon="7.20186">
        <ele>62</ele>
        <time>2018-04-24T12:36:12.000Z</time>
      </trkpt>
      <trkpt lat="43.76547" lon="7.20184">
        <ele>62</ele>
        <time>2018-04-24T12:36:13.000Z</time>
      </trkpt>
      <trkpt lat="43.76547" lon="7.20178">
        <ele>62</ele>
        <time>2018-04-24T12:36:15.000Z</time>
      </trkpt>
      <trkpt lat="43.76546" lon="7.20176">
        <ele>62</ele>
        <time>2018-04-24T12:36:16.000Z</time>
      </trkpt>
      <trkpt lat="43.7654" lon="7.20172">
        <ele>62</ele>
        <time>2018-04-24T12:36:19.000Z</time>
      </trkpt>
      <trkpt lat="43.76536" lon="7.20167">
        <ele>62</ele>
        <time>2018-04-24T12:36:21.000Z</time>
      </trkpt>
      <trkpt lat="43.76527" lon="7.2016">
        <ele>63</ele>
        <time>2018-04-24T12:36:24.000Z</time>
      </trkpt>
      <trkpt lat="43.7652" lon="7.20154">
        <ele>62</ele>
        <time>2018-04-24T12:36:26.000Z</time>
      </trkpt>
      <trkpt lat="43.76491" lon="7.20131">
        <ele>62</ele>
        <time>2018-04-24T12:36:32.000Z</time>
      </trkpt>
      <trkpt lat="43.76456" lon="7.20106">
        <ele>61</ele>
        <time>2018-04-24T12:36:38.000Z</time>
      </trkpt>
      <trkpt lat="43.76444" lon="7.20096">
        <ele>61</ele>
        <time>2018-04-24T12:36:40.000Z</time>
      </trkpt>
      <trkpt lat="43.76433" lon="7.20086">
        <ele>61</ele>
        <time>2018-04-24T12:36:42.000Z</time>
      </trkpt>
      <trkpt lat="43.76413" lon="7.20066">
        <ele>61</ele>
        <time>2018-04-24T12:36:46.000Z</time>
      </trkpt>
      <trkpt lat="43.76408" lon="7.20061">
        <ele>61</ele>
        <time>2018-04-24T12:36:47.000Z</time>
      </trkpt>
      <trkpt lat="43.76381" lon="7.20033">
        <ele>60</ele>
        <time>2018-04-24T12:36:53.000Z</time>
      </trkpt>
      <trkpt lat="43.76376" lon="7.20027">
        <ele>60</ele>
        <time>2018-04-24T12:36:54.000Z</time>
      </trkpt>
      <trkpt lat="43.76345" lon="7.19994">
        <ele>60</ele>
        <time>2018-04-24T12:37:01.000Z</time>
      </trkpt>
      <trkpt lat="43.76308" lon="7.19957">
        <ele>60</ele>
        <time>2018-04-24T12:37:09.000Z</time>
      </trkpt>
      <trkpt lat="43.7628" lon="7.19926">
        <ele>59</ele>
        <time>2018-04-24T12:37:15.000Z</time>
      </trkpt>
      <trkpt lat="43.76271" lon="7.19916">
        <ele>60</ele>
        <time>2018-04-24T12:37:17.000Z</time>
      </trkpt>
      <trkpt lat="43.76234" lon="7.19877">
        <ele>59</ele>
        <time>2018-04-24T12:37:25.000Z</time>
      </trkpt>
      <trkpt lat="43.76225" lon="7.19868">
        <ele>59</ele>
        <time>2018-04-24T12:37:27.000Z</time>
      </trkpt>
      <trkpt lat="43.76198" lon="7.1984">
        <ele>59</ele>
        <time>2018-04-24T12:37:33.000Z</time>
      </trkpt>
      <trkpt lat="43.76158" lon="7.19797">
        <ele>59</ele>
        <time>2018-04-24T12:37:42.000Z</time>
      </trkpt>
      <trkpt lat="43.76127" lon="7.19763">
        <ele>59</ele>
        <time>2018-04-24T12:37:49.000Z</time>
      </trkpt>
      <trkpt lat="43.76114" lon="7.19749">
        <ele>60</ele>
        <time>2018-04-24T12:37:52.000Z</time>
      </trkpt>
      <trkpt lat="43.7608" lon="7.19705">
        <ele>59</ele>
        <time>2018-04-24T12:38:01.000Z</time>
      </trkpt>
      <trkpt lat="43.76077" lon="7.197">
        <ele>59</ele>
        <time>2018-04-24T12:38:02.000Z</time>
      </trkpt>
      <trkpt lat="43.76076" lon="7.19685">
        <ele>59</ele>
        <time>2018-04-24T12:38:05.000Z</time>
      </trkpt>
      <trkpt lat="43.76087" lon="7.19661">
        <ele>59</ele>
        <time>2018-04-24T12:38:10.000Z</time>
      </trkpt>
      <trkpt lat="43.76094" lon="7.19649">
        <ele>59</ele>
        <time>2018-04-24T12:38:15.000Z</time>
      </trkpt>
      <trkpt lat="43.76095" lon="7.19648">
        <ele>59</ele>
        <time>2018-04-24T12:38:21.000Z</time>
      </trkpt>
      <trkpt lat="43.76095" lon="7.19648">
        <ele>59</ele>
        <time>2018-04-24T12:38:33.000Z</time>
      </trkpt>
      <trkpt lat="43.76094" lon="7.19645">
        <ele>59</ele>
        <time>2018-04-24T12:38:40.000Z</time>
      </trkpt>
      <trkpt lat="43.76096" lon="7.19638">
        <ele>59</ele>
        <time>2018-04-24T12:38:48.000Z</time>
      </trkpt>
      <trkpt lat="43.76097" lon="7.19636">
        <ele>59</ele>
        <time>2018-04-24T12:38:53.000Z</time>
      </trkpt>
      <trkpt lat="43.76097" lon="7.19636">
        <ele>59</ele>
        <time>2018-04-24T12:38:56.000Z</time>
      </trkpt>
      <trkpt lat="43.76097" lon="7.19635">
        <ele>59</ele>
        <time>2018-04-24T12:38:58.000Z</time>
      </trkpt>
      <trkpt lat="43.76098" lon="7.19631">
        <ele>59</ele>
        <time>2018-04-24T12:39:04.000Z</time>
      </trkpt>
      <trkpt lat="43.76098" lon="7.19631">
        <ele>59</ele>
        <time>2018-04-24T12:39:05.000Z</time>
      </trkpt>
      <trkpt lat="43.76099" lon="7.1963">
        <ele>59</ele>
        <time>2018-04-24T12:39:12.000Z</time>
      </trkpt>
      <trkpt lat="43.761" lon="7.19625">
        <ele>59</ele>
        <time>2018-04-24T12:39:18.000Z</time>
      </trkpt>
      <trkpt lat="43.76102" lon="7.19624">
        <ele>58</ele>
        <time>2018-04-24T12:39:23.000Z</time>
      </trkpt>
      <trkpt lat="43.76102" lon="7.19623">
        <ele>58</ele>
        <time>2018-04-24T12:39:29.000Z</time>
      </trkpt>
      <trkpt lat="43.76103" lon="7.19617">
        <ele>58</ele>
        <time>2018-04-24T12:39:33.000Z</time>
      </trkpt>
      <trkpt lat="43.76102" lon="7.19614">
        <ele>58</ele>
        <time>2018-04-24T12:39:35.000Z</time>
      </trkpt>
      <trkpt lat="43.76102" lon="7.19613">
        <ele>58</ele>
        <time>2018-04-24T12:39:41.000Z</time>
      </trkpt>
      <trkpt lat="43.76101" lon="7.1961">
        <ele>58</ele>
        <time>2018-04-24T12:39:47.000Z</time>
      </trkpt>
      <trkpt lat="43.76098" lon="7.19605">
        <ele>58</ele>
        <time>2018-04-24T12:39:54.000Z</time>
      </trkpt>
      <trkpt lat="43.76094" lon="7.196">
        <ele>58</ele>
        <time>2018-04-24T12:40:00.000Z</time>
      </trkpt>
      <trkpt lat="43.76093" lon="7.19599">
        <ele>58</ele>
        <time>2018-04-24T12:40:01.000Z</time>
      </trkpt>
      <trkpt lat="43.76086" lon="7.1959">
        <ele>58</ele>
        <time>2018-04-24T12:40:10.000Z</time>
      </trkpt>
      <trkpt lat="43.76086" lon="7.19588">
        <ele>58</ele>
        <time>2018-04-24T12:40:15.000Z</time>
      </trkpt>
      <trkpt lat="43.76082" lon="7.19583">
        <ele>58</ele>
        <time>2018-04-24T12:40:20.000Z</time>
      </trkpt>
      <trkpt lat="43.76078" lon="7.19578">
        <ele>58</ele>
        <time>2018-04-24T12:40:22.000Z</time>
      </trkpt>
      <trkpt lat="43.7607" lon="7.19568">
        <ele>58</ele>
        <time>2018-04-24T12:40:26.000Z</time>
      </trkpt>
      <trkpt lat="43.76058" lon="7.19554">
        <ele>58</ele>
        <time>2018-04-24T12:40:31.000Z</time>
      </trkpt>
      <trkpt lat="43.76049" lon="7.19543">
        <ele>58</ele>
        <time>2018-04-24T12:40:34.000Z</time>
      </trkpt>
      <trkpt lat="43.76042" lon="7.19535">
        <ele>58</ele>
        <time>2018-04-24T12:40:36.000Z</time>
      </trkpt>
      <trkpt lat="43.76007" lon="7.19495">
        <ele>57</ele>
        <time>2018-04-24T12:40:45.000Z</time>
      </trkpt>
      <trkpt lat="43.75962" lon="7.19443">
        <ele>57</ele>
        <time>2018-04-24T12:40:56.000Z</time>
      </trkpt>
      <trkpt lat="43.75932" lon="7.19409">
        <ele>56</ele>
        <time>2018-04-24T12:41:03.000Z</time>
      </trkpt>
      <trkpt lat="43.75927" lon="7.19404">
        <ele>56</ele>
        <time>2018-04-24T12:41:04.000Z</time>
      </trkpt>
      <trkpt lat="43.75881" lon="7.19362">
        <ele>55</ele>
        <time>2018-04-24T12:41:14.000Z</time>
      </trkpt>
      <trkpt lat="43.75872" lon="7.19353">
        <ele>55</ele>
        <time>2018-04-24T12:41:16.000Z</time>
      </trkpt>
      <trkpt lat="43.75843" lon="7.19327">
        <ele>55</ele>
        <time>2018-04-24T12:41:22.000Z</time>
      </trkpt>
      <trkpt lat="43.75825" lon="7.19311">
        <ele>55</ele>
        <time>2018-04-24T12:41:26.000Z</time>
      </trkpt>
      <trkpt lat="43.75778" lon="7.1927">
        <ele>55</ele>
        <time>2018-04-24T12:41:36.000Z</time>
      </trkpt>
      <trkpt lat="43.75769" lon="7.19262">
        <ele>56</ele>
        <time>2018-04-24T12:41:38.000Z</time>
      </trkpt>
      <trkpt lat="43.75756" lon="7.1925">
        <ele>56</ele>
        <time>2018-04-24T12:41:41.000Z</time>
      </trkpt>
      <trkpt lat="43.75737" lon="7.19233">
        <ele>56</ele>
        <time>2018-04-24T12:41:45.000Z</time>
      </trkpt>
      <trkpt lat="43.75713" lon="7.19212">
        <ele>55</ele>
        <time>2018-04-24T12:41:50.000Z</time>
      </trkpt>
      <trkpt lat="43.75693" lon="7.19195">
        <ele>55</ele>
        <time>2018-04-24T12:41:54.000Z</time>
      </trkpt>
      <trkpt lat="43.75679" lon="7.19181">
        <ele>55</ele>
        <time>2018-04-24T12:41:57.000Z</time>
      </trkpt>
      <trkpt lat="43.75659" lon="7.19163">
        <ele>55</ele>
        <time>2018-04-24T12:42:01.000Z</time>
      </trkpt>
      <trkpt lat="43.75618" lon="7.19129">
        <ele>55</ele>
        <time>2018-04-24T12:42:09.000Z</time>
      </trkpt>
      <trkpt lat="43.75571" lon="7.19093">
        <ele>55</ele>
        <time>2018-04-24T12:42:18.000Z</time>
      </trkpt>
      <trkpt lat="43.75526" lon="7.1906">
        <ele>54</ele>
        <time>2018-04-24T12:42:26.000Z</time>
      </trkpt>
      <trkpt lat="43.75515" lon="7.19052">
        <ele>54</ele>
        <time>2018-04-24T12:42:28.000Z</time>
      </trkpt>
      <trkpt lat="43.75466" lon="7.19013">
        <ele>53</ele>
        <time>2018-04-24T12:42:37.000Z</time>
      </trkpt>
      <trkpt lat="43.75461" lon="7.19009">
        <ele>53</ele>
        <time>2018-04-24T12:42:38.000Z</time>
      </trkpt>
      <trkpt lat="43.75413" lon="7.18969">
        <ele>52</ele>
        <time>2018-04-24T12:42:47.000Z</time>
      </trkpt>
      <trkpt lat="43.75365" lon="7.18925">
        <ele>52</ele>
        <time>2018-04-24T12:42:56.000Z</time>
      </trkpt>
      <trkpt lat="43.75318" lon="7.18881">
        <ele>52</ele>
        <time>2018-04-24T12:43:05.000Z</time>
      </trkpt>
      <trkpt lat="43.75307" lon="7.18871">
        <ele>52</ele>
        <time>2018-04-24T12:43:07.000Z</time>
      </trkpt>
      <trkpt lat="43.75287" lon="7.18851">
        <ele>52</ele>
        <time>2018-04-24T12:43:11.000Z</time>
      </trkpt>
      <trkpt lat="43.75252" lon="7.18815">
        <ele>53</ele>
        <time>2018-04-24T12:43:18.000Z</time>
      </trkpt>
      <trkpt lat="43.75204" lon="7.18767">
        <ele>53</ele>
        <time>2018-04-24T12:43:27.000Z</time>
      </trkpt>
      <trkpt lat="43.752" lon="7.18762">
        <ele>53</ele>
        <time>2018-04-24T12:43:28.000Z</time>
      </trkpt>
      <trkpt lat="43.75158" lon="7.18719">
        <ele>53</ele>
        <time>2018-04-24T12:43:36.000Z</time>
      </trkpt>
      <trkpt lat="43.75122" lon="7.18683">
        <ele>52</ele>
        <time>2018-04-24T12:43:43.000Z</time>
      </trkpt>
      <trkpt lat="43.75096" lon="7.18656">
        <ele>51</ele>
        <time>2018-04-24T12:43:48.000Z</time>
      </trkpt>
      <trkpt lat="43.75058" lon="7.18618">
        <ele>49</ele>
        <time>2018-04-24T12:43:55.000Z</time>
      </trkpt>
      <trkpt lat="43.75021" lon="7.18579">
        <ele>49</ele>
        <time>2018-04-24T12:44:02.000Z</time>
      </trkpt>
      <trkpt lat="43.75005" lon="7.18563">
        <ele>49</ele>
        <time>2018-04-24T12:44:05.000Z</time>
      </trkpt>
      <trkpt lat="43.74959" lon="7.18516">
        <ele>49</ele>
        <time>2018-04-24T12:44:14.000Z</time>
      </trkpt>
      <trkpt lat="43.74949" lon="7.18506">
        <ele>49</ele>
        <time>2018-04-24T12:44:16.000Z</time>
      </trkpt>
      <trkpt lat="43.74939" lon="7.18496">
        <ele>50</ele>
        <time>2018-04-24T12:44:18.000Z</time>
      </trkpt>
      <trkpt lat="43.74892" lon="7.18455">
        <ele>49</ele>
        <time>2018-04-24T12:44:27.000Z</time>
      </trkpt>
      <trkpt lat="43.74882" lon="7.18446">
        <ele>49</ele>
        <time>2018-04-24T12:44:29.000Z</time>
      </trkpt>
      <trkpt lat="43.74834" lon="7.18407">
        <ele>49</ele>
        <time>2018-04-24T12:44:38.000Z</time>
      </trkpt>
      <trkpt lat="43.74824" lon="7.18398">
        <ele>49</ele>
        <time>2018-04-24T12:44:40.000Z</time>
      </trkpt>
      <trkpt lat="43.74777" lon="7.1836">
        <ele>49</ele>
        <time>2018-04-24T12:44:49.000Z</time>
      </trkpt>
      <trkpt lat="43.74761" lon="7.18347">
        <ele>49</ele>
        <time>2018-04-24T12:44:52.000Z</time>
      </trkpt>
      <trkpt lat="43.74735" lon="7.18326">
        <ele>49</ele>
        <time>2018-04-24T12:44:57.000Z</time>
      </trkpt>
      <trkpt lat="43.74703" lon="7.18304">
        <ele>49</ele>
        <time>2018-04-24T12:45:03.000Z</time>
      </trkpt>
      <trkpt lat="43.74662" lon="7.18274">
        <ele>48</ele>
        <time>2018-04-24T12:45:11.000Z</time>
      </trkpt>
      <trkpt lat="43.74646" lon="7.18262">
        <ele>48</ele>
        <time>2018-04-24T12:45:14.000Z</time>
      </trkpt>
      <trkpt lat="43.74614" lon="7.18241">
        <ele>48</ele>
        <time>2018-04-24T12:45:20.000Z</time>
      </trkpt>
      <trkpt lat="43.7457" lon="7.18213">
        <ele>47</ele>
        <time>2018-04-24T12:45:29.000Z</time>
      </trkpt>
      <trkpt lat="43.7452" lon="7.18184">
        <ele>48</ele>
        <time>2018-04-24T12:45:39.000Z</time>
      </trkpt>
      <trkpt lat="43.74506" lon="7.18175">
        <ele>48</ele>
        <time>2018-04-24T12:45:42.000Z</time>
      </trkpt>
      <trkpt lat="43.74477" lon="7.18159">
        <ele>47</ele>
        <time>2018-04-24T12:45:48.000Z</time>
      </trkpt>
      <trkpt lat="43.74436" lon="7.18137">
        <ele>47</ele>
        <time>2018-04-24T12:45:56.000Z</time>
      </trkpt>
      <trkpt lat="43.74383" lon="7.18114">
        <ele>46</ele>
        <time>2018-04-24T12:46:06.000Z</time>
      </trkpt>
      <trkpt lat="43.74378" lon="7.18112">
        <ele>46</ele>
        <time>2018-04-24T12:46:07.000Z</time>
      </trkpt>
      <trkpt lat="43.74373" lon="7.1811">
        <ele>46</ele>
        <time>2018-04-24T12:46:08.000Z</time>
      </trkpt>
      <trkpt lat="43.7433" lon="7.18092">
        <ele>46</ele>
        <time>2018-04-24T12:46:16.000Z</time>
      </trkpt>
      <trkpt lat="43.74277" lon="7.1807">
        <ele>46</ele>
        <time>2018-04-24T12:46:26.000Z</time>
      </trkpt>
      <trkpt lat="43.74271" lon="7.18068">
        <ele>46</ele>
        <time>2018-04-24T12:46:27.000Z</time>
      </trkpt>
      <trkpt lat="43.74216" lon="7.1805">
        <ele>45</ele>
        <time>2018-04-24T12:46:37.000Z</time>
      </trkpt>
      <trkpt lat="43.74211" lon="7.18048">
        <ele>44</ele>
        <time>2018-04-24T12:46:38.000Z</time>
      </trkpt>
      <trkpt lat="43.7416" lon="7.18037">
        <ele>43</ele>
        <time>2018-04-24T12:46:47.000Z</time>
      </trkpt>
      <trkpt lat="43.74133" lon="7.18031">
        <ele>43</ele>
        <time>2018-04-24T12:46:52.000Z</time>
      </trkpt>
      <trkpt lat="43.74105" lon="7.18025">
        <ele>43</ele>
        <time>2018-04-24T12:46:57.000Z</time>
      </trkpt>
      <trkpt lat="43.74062" lon="7.18016">
        <ele>43</ele>
        <time>2018-04-24T12:47:05.000Z</time>
      </trkpt>
      <trkpt lat="43.74014" lon="7.18002">
        <ele>44</ele>
        <time>2018-04-24T12:47:14.000Z</time>
      </trkpt>
      <trkpt lat="43.74003" lon="7.17998">
        <ele>45</ele>
        <time>2018-04-24T12:47:16.000Z</time>
      </trkpt>
      <trkpt lat="43.73948" lon="7.17987">
        <ele>45</ele>
        <time>2018-04-24T12:47:26.000Z</time>
      </trkpt>
      <trkpt lat="43.739" lon="7.17981">
        <ele>44</ele>
        <time>2018-04-24T12:47:35.000Z</time>
      </trkpt>
      <trkpt lat="43.73845" lon="7.17976">
        <ele>44</ele>
        <time>2018-04-24T12:47:45.000Z</time>
      </trkpt>
      <trkpt lat="43.7379" lon="7.17973">
        <ele>44</ele>
        <time>2018-04-24T12:47:55.000Z</time>
      </trkpt>
      <trkpt lat="43.73741" lon="7.17973">
        <ele>43</ele>
        <time>2018-04-24T12:48:04.000Z</time>
      </trkpt>
      <trkpt lat="43.73736" lon="7.17973">
        <ele>44</ele>
        <time>2018-04-24T12:48:05.000Z</time>
      </trkpt>
      <trkpt lat="43.737" lon="7.17974">
        <ele>44</ele>
        <time>2018-04-24T12:48:11.000Z</time>
      </trkpt>
      <trkpt lat="43.73694" lon="7.17974">
        <ele>44</ele>
        <time>2018-04-24T12:48:12.000Z</time>
      </trkpt>
      <trkpt lat="43.73669" lon="7.17976">
        <ele>43</ele>
        <time>2018-04-24T12:48:16.000Z</time>
      </trkpt>
      <trkpt lat="43.73633" lon="7.17981">
        <ele>43</ele>
        <time>2018-04-24T12:48:22.000Z</time>
      </trkpt>
      <trkpt lat="43.7358" lon="7.17987">
        <ele>41</ele>
        <time>2018-04-24T12:48:31.000Z</time>
      </trkpt>
      <trkpt lat="43.7353" lon="7.17992">
        <ele>42</ele>
        <time>2018-04-24T12:48:40.000Z</time>
      </trkpt>
      <trkpt lat="43.73482" lon="7.17997">
        <ele>41</ele>
        <time>2018-04-24T12:48:49.000Z</time>
      </trkpt>
      <trkpt lat="43.73476" lon="7.17998">
        <ele>42</ele>
        <time>2018-04-24T12:48:50.000Z</time>
      </trkpt>
      <trkpt lat="43.73432" lon="7.18005">
        <ele>39</ele>
        <time>2018-04-24T12:48:57.000Z</time>
      </trkpt>
      <trkpt lat="43.73376" lon="7.18017">
        <ele>38</ele>
        <time>2018-04-24T12:49:07.000Z</time>
      </trkpt>
      <trkpt lat="43.73323" lon="7.18021">
        <ele>37</ele>
        <time>2018-04-24T12:49:16.000Z</time>
      </trkpt>
      <trkpt lat="43.73271" lon="7.18027">
        <ele>37</ele>
        <time>2018-04-24T12:49:25.000Z</time>
      </trkpt>
      <trkpt lat="43.73227" lon="7.18034">
        <ele>38</ele>
        <time>2018-04-24T12:49:33.000Z</time>
      </trkpt>
      <trkpt lat="43.73205" lon="7.18038">
        <ele>38</ele>
        <time>2018-04-24T12:49:37.000Z</time>
      </trkpt>
      <trkpt lat="43.73194" lon="7.18039">
        <ele>38</ele>
        <time>2018-04-24T12:49:39.000Z</time>
      </trkpt>
      <trkpt lat="43.73141" lon="7.18048">
        <ele>37</ele>
        <time>2018-04-24T12:49:49.000Z</time>
      </trkpt>
      <trkpt lat="43.73087" lon="7.18054">
        <ele>37</ele>
        <time>2018-04-24T12:49:59.000Z</time>
      </trkpt>
      <trkpt lat="43.73031" lon="7.18061">
        <ele>37</ele>
        <time>2018-04-24T12:50:09.000Z</time>
      </trkpt>
      <trkpt lat="43.73014" lon="7.18063">
        <ele>37</ele>
        <time>2018-04-24T12:50:12.000Z</time>
      </trkpt>
      <trkpt lat="43.72974" lon="7.1807">
        <ele>38</ele>
        <time>2018-04-24T12:50:19.000Z</time>
      </trkpt>
      <trkpt lat="43.72916" lon="7.18078">
        <ele>38</ele>
        <time>2018-04-24T12:50:29.000Z</time>
      </trkpt>
      <trkpt lat="43.7291" lon="7.18079">
        <ele>38</ele>
        <time>2018-04-24T12:50:30.000Z</time>
      </trkpt>
      <trkpt lat="43.72904" lon="7.18079">
        <ele>38</ele>
        <time>2018-04-24T12:50:31.000Z</time>
      </trkpt>
      <trkpt lat="43.72855" lon="7.18087">
        <ele>35</ele>
        <time>2018-04-24T12:50:39.000Z</time>
      </trkpt>
      <trkpt lat="43.72798" lon="7.18095">
        <ele>34</ele>
        <time>2018-04-24T12:50:48.000Z</time>
      </trkpt>
      <trkpt lat="43.72754" lon="7.18102">
        <ele>35</ele>
        <time>2018-04-24T12:50:55.000Z</time>
      </trkpt>
      <trkpt lat="43.72712" lon="7.18109">
        <ele>33</ele>
        <time>2018-04-24T12:51:02.000Z</time>
      </trkpt>
      <trkpt lat="43.72664" lon="7.18119">
        <ele>33</ele>
        <time>2018-04-24T12:51:11.000Z</time>
      </trkpt>
      <trkpt lat="43.72643" lon="7.18123">
        <ele>33</ele>
        <time>2018-04-24T12:51:15.000Z</time>
      </trkpt>
      <trkpt lat="43.72633" lon="7.18121">
        <ele>34</ele>
        <time>2018-04-24T12:51:17.000Z</time>
      </trkpt>
      <trkpt lat="43.72625" lon="7.18117">
        <ele>34</ele>
        <time>2018-04-24T12:51:19.000Z</time>
      </trkpt>
      <trkpt lat="43.72616" lon="7.18117">
        <ele>34</ele>
        <time>2018-04-24T12:51:21.000Z</time>
      </trkpt>
      <trkpt lat="43.72598" lon="7.18119">
        <ele>34</ele>
        <time>2018-04-24T12:51:25.000Z</time>
      </trkpt>
      <trkpt lat="43.72582" lon="7.18123">
        <ele>35</ele>
        <time>2018-04-24T12:51:28.000Z</time>
      </trkpt>
      <trkpt lat="43.72563" lon="7.18125">
        <ele>35</ele>
        <time>2018-04-24T12:51:31.000Z</time>
      </trkpt>
      <trkpt lat="43.72539" lon="7.18128">
        <ele>35</ele>
        <time>2018-04-24T12:51:35.000Z</time>
      </trkpt>
      <trkpt lat="43.72485" lon="7.18135">
        <ele>34</ele>
        <time>2018-04-24T12:51:44.000Z</time>
      </trkpt>
      <trkpt lat="43.72444" lon="7.1814">
        <ele>34</ele>
        <time>2018-04-24T12:51:51.000Z</time>
      </trkpt>
      <trkpt lat="43.72427" lon="7.18142">
        <ele>34</ele>
        <time>2018-04-24T12:51:54.000Z</time>
      </trkpt>
      <trkpt lat="43.72398" lon="7.18147">
        <ele>33</ele>
        <time>2018-04-24T12:51:59.000Z</time>
      </trkpt>
      <trkpt lat="43.72367" lon="7.18154">
        <ele>33</ele>
        <time>2018-04-24T12:52:04.000Z</time>
      </trkpt>
      <trkpt lat="43.7231" lon="7.18162">
        <ele>33</ele>
        <time>2018-04-24T12:52:14.000Z</time>
      </trkpt>
      <trkpt lat="43.72293" lon="7.18164">
        <ele>33</ele>
        <time>2018-04-24T12:52:17.000Z</time>
      </trkpt>
      <trkpt lat="43.72247" lon="7.18169">
        <ele>32</ele>
        <time>2018-04-24T12:52:25.000Z</time>
      </trkpt>
      <trkpt lat="43.72198" lon="7.18172">
        <ele>31</ele>
        <time>2018-04-24T12:52:33.000Z</time>
      </trkpt>
      <trkpt lat="43.72142" lon="7.18181">
        <ele>32</ele>
        <time>2018-04-24T12:52:42.000Z</time>
      </trkpt>
      <trkpt lat="43.7213" lon="7.18182">
        <ele>32</ele>
        <time>2018-04-24T12:52:44.000Z</time>
      </trkpt>
      <trkpt lat="43.7208" lon="7.18187">
        <ele>31</ele>
        <time>2018-04-24T12:52:52.000Z</time>
      </trkpt>
      <trkpt lat="43.72068" lon="7.18188">
        <ele>31</ele>
        <time>2018-04-24T12:52:54.000Z</time>
      </trkpt>
      <trkpt lat="43.72013" lon="7.18197">
        <ele>30</ele>
        <time>2018-04-24T12:53:03.000Z</time>
      </trkpt>
      <trkpt lat="43.71996" lon="7.18199">
        <ele>29</ele>
        <time>2018-04-24T12:53:06.000Z</time>
      </trkpt>
      <trkpt lat="43.71991" lon="7.18195">
        <ele>29</ele>
        <time>2018-04-24T12:53:07.000Z</time>
      </trkpt>
      <trkpt lat="43.71988" lon="7.18183">
        <ele>29</ele>
        <time>2018-04-24T12:53:09.000Z</time>
      </trkpt>
      <trkpt lat="43.71988" lon="7.18176">
        <ele>30</ele>
        <time>2018-04-24T12:53:10.000Z</time>
      </trkpt>
      <trkpt lat="43.71984" lon="7.18118">
        <ele>31</ele>
        <time>2018-04-24T12:53:18.000Z</time>
      </trkpt>
      <trkpt lat="43.71977" lon="7.18045">
        <ele>33</ele>
        <time>2018-04-24T12:53:28.000Z</time>
      </trkpt>
      <trkpt lat="43.7197" lon="7.17982">
        <ele>35</ele>
        <time>2018-04-24T12:53:37.000Z</time>
      </trkpt>
      <trkpt lat="43.7197" lon="7.17976">
        <ele>35</ele>
        <time>2018-04-24T12:53:38.000Z</time>
      </trkpt>
      <trkpt lat="43.71968" lon="7.17954">
        <ele>36</ele>
        <time>2018-04-24T12:53:42.000Z</time>
      </trkpt>
      <trkpt lat="43.71966" lon="7.17937">
        <ele>36</ele>
        <time>2018-04-24T12:53:46.000Z</time>
      </trkpt>
      <trkpt lat="43.71964" lon="7.17934">
        <ele>36</ele>
        <time>2018-04-24T12:53:47.000Z</time>
      </trkpt>
      <trkpt lat="43.71951" lon="7.17932">
        <ele>36</ele>
        <time>2018-04-24T12:53:51.000Z</time>
      </trkpt>
      <trkpt lat="43.71936" lon="7.17936">
        <ele>36</ele>
        <time>2018-04-24T12:53:55.000Z</time>
      </trkpt>
      <trkpt lat="43.71927" lon="7.17938">
        <ele>36</ele>
        <time>2018-04-24T12:53:57.000Z</time>
      </trkpt>
      <trkpt lat="43.71916" lon="7.17935">
        <ele>36</ele>
        <time>2018-04-24T12:54:00.000Z</time>
      </trkpt>
      <trkpt lat="43.71913" lon="7.17934">
        <ele>36</ele>
        <time>2018-04-24T12:54:01.000Z</time>
      </trkpt>
      <trkpt lat="43.71895" lon="7.17933">
        <ele>36</ele>
        <time>2018-04-24T12:54:06.000Z</time>
      </trkpt>
      <trkpt lat="43.71875" lon="7.1794">
        <ele>35</ele>
        <time>2018-04-24T12:54:10.000Z</time>
      </trkpt>
      <trkpt lat="43.71869" lon="7.17941">
        <ele>35</ele>
        <time>2018-04-24T12:54:11.000Z</time>
      </trkpt>
      <trkpt lat="43.71852" lon="7.1794">
        <ele>35</ele>
        <time>2018-04-24T12:54:14.000Z</time>
      </trkpt>
      <trkpt lat="43.71841" lon="7.17937">
        <ele>35</ele>
        <time>2018-04-24T12:54:16.000Z</time>
      </trkpt>
      <trkpt lat="43.7182" lon="7.1793">
        <ele>34</ele>
        <time>2018-04-24T12:54:20.000Z</time>
      </trkpt>
      <trkpt lat="43.7181" lon="7.17924">
        <ele>34</ele>
        <time>2018-04-24T12:54:22.000Z</time>
      </trkpt>
      <trkpt lat="43.71806" lon="7.1792">
        <ele>34</ele>
        <time>2018-04-24T12:54:23.000Z</time>
      </trkpt>
      <trkpt lat="43.71787" lon="7.17899">
        <ele>35</ele>
        <time>2018-04-24T12:54:27.000Z</time>
      </trkpt>
      <trkpt lat="43.71755" lon="7.17863">
        <ele>35</ele>
        <time>2018-04-24T12:54:34.000Z</time>
      </trkpt>
      <trkpt lat="43.71751" lon="7.17859">
        <ele>35</ele>
        <time>2018-04-24T12:54:35.000Z</time>
      </trkpt>
      <trkpt lat="43.71726" lon="7.17841">
        <ele>34</ele>
        <time>2018-04-24T12:54:40.000Z</time>
      </trkpt>
      <trkpt lat="43.71721" lon="7.17838">
        <ele>34</ele>
        <time>2018-04-24T12:54:41.000Z</time>
      </trkpt>
      <trkpt lat="43.71669" lon="7.17805">
        <ele>37</ele>
        <time>2018-04-24T12:54:51.000Z</time>
      </trkpt>
      <trkpt lat="43.71649" lon="7.17793">
        <ele>35</ele>
        <time>2018-04-24T12:54:55.000Z</time>
      </trkpt>
      <trkpt lat="43.71633" lon="7.17788">
        <ele>35</ele>
        <time>2018-04-24T12:54:58.000Z</time>
      </trkpt>
      <trkpt lat="43.71577" lon="7.1777">
        <ele>32</ele>
        <time>2018-04-24T12:55:08.000Z</time>
      </trkpt>
      <trkpt lat="43.71542" lon="7.17747">
        <ele>36</ele>
        <time>2018-04-24T12:55:15.000Z</time>
      </trkpt>
      <trkpt lat="43.71501" lon="7.17709">
        <ele>38</ele>
        <time>2018-04-24T12:55:24.000Z</time>
      </trkpt>
      <trkpt lat="43.71476" lon="7.17702">
        <ele>40</ele>
        <time>2018-04-24T12:55:29.000Z</time>
      </trkpt>
      <trkpt lat="43.71464" lon="7.17703">
        <ele>40</ele>
        <time>2018-04-24T12:55:31.000Z</time>
      </trkpt>
      <trkpt lat="43.71442" lon="7.17711">
        <ele>40</ele>
        <time>2018-04-24T12:55:35.000Z</time>
      </trkpt>
      <trkpt lat="43.71415" lon="7.17732">
        <ele>42</ele>
        <time>2018-04-24T12:55:40.000Z</time>
      </trkpt>
      <trkpt lat="43.71373" lon="7.1777">
        <ele>40</ele>
        <time>2018-04-24T12:55:48.000Z</time>
      </trkpt>
      <trkpt lat="43.71334" lon="7.17803">
        <ele>39</ele>
        <time>2018-04-24T12:55:55.000Z</time>
      </trkpt>
      <trkpt lat="43.713" lon="7.17825">
        <ele>41</ele>
        <time>2018-04-24T12:56:01.000Z</time>
      </trkpt>
      <trkpt lat="43.71293" lon="7.17827">
        <ele>41</ele>
        <time>2018-04-24T12:56:02.000Z</time>
      </trkpt>
      <trkpt lat="43.7127" lon="7.17822">
        <ele>40</ele>
        <time>2018-04-24T12:56:06.000Z</time>
      </trkpt>
      <trkpt lat="43.71261" lon="7.17816">
        <ele>40</ele>
        <time>2018-04-24T12:56:08.000Z</time>
      </trkpt>
      <trkpt lat="43.7124" lon="7.17803">
        <ele>41</ele>
        <time>2018-04-24T12:56:12.000Z</time>
      </trkpt>
      <trkpt lat="43.71203" lon="7.17789">
        <ele>42</ele>
        <time>2018-04-24T12:56:19.000Z</time>
      </trkpt>
      <trkpt lat="43.71172" lon="7.17782">
        <ele>43</ele>
        <time>2018-04-24T12:56:25.000Z</time>
      </trkpt>
      <trkpt lat="43.71162" lon="7.17781">
        <ele>44</ele>
        <time>2018-04-24T12:56:27.000Z</time>
      </trkpt>
      <trkpt lat="43.71147" lon="7.17781">
        <ele>43</ele>
        <time>2018-04-24T12:56:30.000Z</time>
      </trkpt>
      <trkpt lat="43.71122" lon="7.17783">
        <ele>43</ele>
        <time>2018-04-24T12:56:35.000Z</time>
      </trkpt>
      <trkpt lat="43.71081" lon="7.17793">
        <ele>40</ele>
        <time>2018-04-24T12:56:43.000Z</time>
      </trkpt>
      <trkpt lat="43.7105" lon="7.178">
        <ele>39</ele>
        <time>2018-04-24T12:56:49.000Z</time>
      </trkpt>
      <trkpt lat="43.71046" lon="7.17799">
        <ele>39</ele>
        <time>2018-04-24T12:56:50.000Z</time>
      </trkpt>
      <trkpt lat="43.71041" lon="7.17798">
        <ele>39</ele>
        <time>2018-04-24T12:56:51.000Z</time>
      </trkpt>
      <trkpt lat="43.71014" lon="7.17791">
        <ele>39</ele>
        <time>2018-04-24T12:56:56.000Z</time>
      </trkpt>
      <trkpt lat="43.70981" lon="7.17787">
        <ele>38</ele>
        <time>2018-04-24T12:57:02.000Z</time>
      </trkpt>
      <trkpt lat="43.70933" lon="7.17793">
        <ele>38</ele>
        <time>2018-04-24T12:57:11.000Z</time>
      </trkpt>
      <trkpt lat="43.70889" lon="7.17798">
        <ele>39</ele>
        <time>2018-04-24T12:57:19.000Z</time>
      </trkpt>
      <trkpt lat="43.7085" lon="7.17797">
        <ele>39</ele>
        <time>2018-04-24T12:57:26.000Z</time>
      </trkpt>
      <trkpt lat="43.70811" lon="7.17803">
        <ele>40</ele>
        <time>2018-04-24T12:57:33.000Z</time>
      </trkpt>
      <trkpt lat="43.70806" lon="7.17804">
        <ele>40</ele>
        <time>2018-04-24T12:57:34.000Z</time>
      </trkpt>
      <trkpt lat="43.70784" lon="7.17812">
        <ele>40</ele>
        <time>2018-04-24T12:57:38.000Z</time>
      </trkpt>
      <trkpt lat="43.70773" lon="7.1782">
        <ele>40</ele>
        <time>2018-04-24T12:57:40.000Z</time>
      </trkpt>
      <trkpt lat="43.70768" lon="7.17823">
        <ele>39</ele>
        <time>2018-04-24T12:57:41.000Z</time>
      </trkpt>
      <trkpt lat="43.70739" lon="7.17839">
        <ele>34</ele>
        <time>2018-04-24T12:57:46.000Z</time>
      </trkpt>
      <trkpt lat="43.70733" lon="7.1784">
        <ele>34</ele>
        <time>2018-04-24T12:57:47.000Z</time>
      </trkpt>
      <trkpt lat="43.70695" lon="7.17841">
        <ele>33</ele>
        <time>2018-04-24T12:57:53.000Z</time>
      </trkpt>
      <trkpt lat="43.70678" lon="7.17838">
        <ele>35</ele>
        <time>2018-04-24T12:57:56.000Z</time>
      </trkpt>
      <trkpt lat="43.70663" lon="7.17834">
        <ele>36</ele>
        <time>2018-04-24T12:57:59.000Z</time>
      </trkpt>
      <trkpt lat="43.70658" lon="7.17832">
        <ele>38</ele>
        <time>2018-04-24T12:58:00.000Z</time>
      </trkpt>
      <trkpt lat="43.70625" lon="7.17819">
        <ele>39</ele>
        <time>2018-04-24T12:58:07.000Z</time>
      </trkpt>
      <trkpt lat="43.70591" lon="7.17803">
        <ele>39</ele>
        <time>2018-04-24T12:58:15.000Z</time>
      </trkpt>
      <trkpt lat="43.70573" lon="7.17783">
        <ele>38</ele>
        <time>2018-04-24T12:58:20.000Z</time>
      </trkpt>
      <trkpt lat="43.70565" lon="7.17777">
        <ele>38</ele>
        <time>2018-04-24T12:58:22.000Z</time>
      </trkpt>
      <trkpt lat="43.70552" lon="7.1777">
        <ele>38</ele>
        <time>2018-04-24T12:58:25.000Z</time>
      </trkpt>
      <trkpt lat="43.70547" lon="7.17768">
        <ele>38</ele>
        <time>2018-04-24T12:58:26.000Z</time>
      </trkpt>
      <trkpt lat="43.70527" lon="7.17767">
        <ele>38</ele>
        <time>2018-04-24T12:58:30.000Z</time>
      </trkpt>
      <trkpt lat="43.70496" lon="7.17776">
        <ele>38</ele>
        <time>2018-04-24T12:58:36.000Z</time>
      </trkpt>
      <trkpt lat="43.70451" lon="7.1779">
        <ele>37</ele>
        <time>2018-04-24T12:58:44.000Z</time>
      </trkpt>
      <trkpt lat="43.70401" lon="7.17803">
        <ele>38</ele>
        <time>2018-04-24T12:58:53.000Z</time>
      </trkpt>
      <trkpt lat="43.70354" lon="7.17822">
        <ele>38</ele>
        <time>2018-04-24T12:59:01.000Z</time>
      </trkpt>
      <trkpt lat="43.70304" lon="7.17849">
        <ele>34</ele>
        <time>2018-04-24T12:59:09.000Z</time>
      </trkpt>
      <trkpt lat="43.70282" lon="7.1786">
        <ele>35</ele>
        <time>2018-04-24T12:59:12.000Z</time>
      </trkpt>
      <trkpt lat="43.70261" lon="7.17873">
        <ele>35</ele>
        <time>2018-04-24T12:59:15.000Z</time>
      </trkpt>
      <trkpt lat="43.70248" lon="7.17879">
        <ele>41</ele>
        <time>2018-04-24T12:59:17.000Z</time>
      </trkpt>
      <trkpt lat="43.70242" lon="7.17882">
        <ele>40</ele>
        <time>2018-04-24T12:59:18.000Z</time>
      </trkpt>
      <trkpt lat="43.70215" lon="7.17897">
        <ele>42</ele>
        <time>2018-04-24T12:59:22.000Z</time>
      </trkpt>
      <trkpt lat="43.70186" lon="7.17918">
        <ele>39</ele>
        <time>2018-04-24T12:59:27.000Z</time>
      </trkpt>
      <trkpt lat="43.70181" lon="7.17924">
        <ele>40</ele>
        <time>2018-04-24T12:59:28.000Z</time>
      </trkpt>
      <trkpt lat="43.70166" lon="7.17948">
        <ele>42</ele>
        <time>2018-04-24T12:59:32.000Z</time>
      </trkpt>
      <trkpt lat="43.70164" lon="7.17955">
        <ele>42</ele>
        <time>2018-04-24T12:59:33.000Z</time>
      </trkpt>
      <trkpt lat="43.70161" lon="7.17961">
        <ele>41</ele>
        <time>2018-04-24T12:59:34.000Z</time>
      </trkpt>
      <trkpt lat="43.7015" lon="7.17981">
        <ele>39</ele>
        <time>2018-04-24T12:59:37.000Z</time>
      </trkpt>
      <trkpt lat="43.70147" lon="7.17987">
        <ele>38</ele>
        <time>2018-04-24T12:59:38.000Z</time>
      </trkpt>
      <trkpt lat="43.70143" lon="7.17992">
        <ele>39</ele>
        <time>2018-04-24T12:59:39.000Z</time>
      </trkpt>
      <trkpt lat="43.70131" lon="7.1801">
        <ele>34</ele>
        <time>2018-04-24T12:59:42.000Z</time>
      </trkpt>
      <trkpt lat="43.701" lon="7.18056">
        <ele>32</ele>
        <time>2018-04-24T12:59:49.000Z</time>
      </trkpt>
      <trkpt lat="43.70075" lon="7.18093">
        <ele>29</ele>
        <time>2018-04-24T12:59:54.000Z</time>
      </trkpt>
      <trkpt lat="43.70064" lon="7.18108">
        <ele>28</ele>
        <time>2018-04-24T12:59:56.000Z</time>
      </trkpt>
      <trkpt lat="43.70058" lon="7.18115">
        <ele>28</ele>
        <time>2018-04-24T12:59:57.000Z</time>
      </trkpt>
      <trkpt lat="43.70052" lon="7.18121">
        <ele>28</ele>
        <time>2018-04-24T12:59:58.000Z</time>
      </trkpt>
      <trkpt lat="43.70032" lon="7.18132">
        <ele>28</ele>
        <time>2018-04-24T13:00:01.000Z</time>
      </trkpt>
      <trkpt lat="43.70025" lon="7.18134">
        <ele>27</ele>
        <time>2018-04-24T13:00:02.000Z</time>
      </trkpt>
      <trkpt lat="43.69993" lon="7.18139">
        <ele>28</ele>
        <time>2018-04-24T13:00:07.000Z</time>
      </trkpt>
      <trkpt lat="43.69981" lon="7.1814">
        <ele>29</ele>
        <time>2018-04-24T13:00:09.000Z</time>
      </trkpt>
      <trkpt lat="43.69958" lon="7.18137">
        <ele>29</ele>
        <time>2018-04-24T13:00:13.000Z</time>
      </trkpt>
      <trkpt lat="43.69941" lon="7.18136">
        <ele>30</ele>
        <time>2018-04-24T13:00:16.000Z</time>
      </trkpt>
      <trkpt lat="43.6993" lon="7.18139">
        <ele>30</ele>
        <time>2018-04-24T13:00:18.000Z</time>
      </trkpt>
      <trkpt lat="43.6992" lon="7.18144">
        <ele>29</ele>
        <time>2018-04-24T13:00:20.000Z</time>
      </trkpt>
      <trkpt lat="43.69906" lon="7.18152">
        <ele>31</ele>
        <time>2018-04-24T13:00:23.000Z</time>
      </trkpt>
      <trkpt lat="43.699" lon="7.18154">
        <ele>31</ele>
        <time>2018-04-24T13:00:24.000Z</time>
      </trkpt>
      <trkpt lat="43.69885" lon="7.18156">
        <ele>31</ele>
        <time>2018-04-24T13:00:27.000Z</time>
      </trkpt>
      <trkpt lat="43.69876" lon="7.18156">
        <ele>32</ele>
        <time>2018-04-24T13:00:29.000Z</time>
      </trkpt>
      <trkpt lat="43.69859" lon="7.18155">
        <ele>32</ele>
        <time>2018-04-24T13:00:33.000Z</time>
      </trkpt>
      <trkpt lat="43.69854" lon="7.18156">
        <ele>32</ele>
        <time>2018-04-24T13:00:34.000Z</time>
      </trkpt>
      <trkpt lat="43.69849" lon="7.18158">
        <ele>32</ele>
        <time>2018-04-24T13:00:35.000Z</time>
      </trkpt>
      <trkpt lat="43.69812" lon="7.18174">
        <ele>30</ele>
        <time>2018-04-24T13:00:43.000Z</time>
      </trkpt>
      <trkpt lat="43.69782" lon="7.18183">
        <ele>30</ele>
        <time>2018-04-24T13:00:49.000Z</time>
      </trkpt>
      <trkpt lat="43.69768" lon="7.18194">
        <ele>30</ele>
        <time>2018-04-24T13:00:52.000Z</time>
      </trkpt>
      <trkpt lat="43.69759" lon="7.18204">
        <ele>30</ele>
        <time>2018-04-24T13:00:54.000Z</time>
      </trkpt>
      <trkpt lat="43.69741" lon="7.18224">
        <ele>30</ele>
        <time>2018-04-24T13:00:58.000Z</time>
      </trkpt>
      <trkpt lat="43.6973" lon="7.18232">
        <ele>30</ele>
        <time>2018-04-24T13:01:00.000Z</time>
      </trkpt>
      <trkpt lat="43.69708" lon="7.1825">
        <ele>28</ele>
        <time>2018-04-24T13:01:04.000Z</time>
      </trkpt>
      <trkpt lat="43.69692" lon="7.18266">
        <ele>28</ele>
        <time>2018-04-24T13:01:07.000Z</time>
      </trkpt>
      <trkpt lat="43.69652" lon="7.18299">
        <ele>29</ele>
        <time>2018-04-24T13:01:14.000Z</time>
      </trkpt>
      <trkpt lat="43.69647" lon="7.18303">
        <ele>29</ele>
        <time>2018-04-24T13:01:15.000Z</time>
      </trkpt>
      <trkpt lat="43.69635" lon="7.1831">
        <ele>29</ele>
        <time>2018-04-24T13:01:17.000Z</time>
      </trkpt>
      <trkpt lat="43.69617" lon="7.18317">
        <ele>28</ele>
        <time>2018-04-24T13:01:20.000Z</time>
      </trkpt>
      <trkpt lat="43.69611" lon="7.18318">
        <ele>28</ele>
        <time>2018-04-24T13:01:21.000Z</time>
      </trkpt>
      <trkpt lat="43.69601" lon="7.18319">
        <ele>28</ele>
        <time>2018-04-24T13:01:23.000Z</time>
      </trkpt>
      <trkpt lat="43.69589" lon="7.18319">
        <ele>28</ele>
        <time>2018-04-24T13:01:25.000Z</time>
      </trkpt>
      <trkpt lat="43.69546" lon="7.18315">
        <ele>29</ele>
        <time>2018-04-24T13:01:33.000Z</time>
      </trkpt>
      <trkpt lat="43.69488" lon="7.18308">
        <ele>30</ele>
        <time>2018-04-24T13:01:44.000Z</time>
      </trkpt>
      <trkpt lat="43.69467" lon="7.18305">
        <ele>31</ele>
        <time>2018-04-24T13:01:48.000Z</time>
      </trkpt>
      <trkpt lat="43.69452" lon="7.18305">
        <ele>31</ele>
        <time>2018-04-24T13:01:51.000Z</time>
      </trkpt>
      <trkpt lat="43.69442" lon="7.18303">
        <ele>31</ele>
        <time>2018-04-24T13:01:53.000Z</time>
      </trkpt>
      <trkpt lat="43.69427" lon="7.18294">
        <ele>31</ele>
        <time>2018-04-24T13:01:56.000Z</time>
      </trkpt>
      <trkpt lat="43.69422" lon="7.18292">
        <ele>31</ele>
        <time>2018-04-24T13:01:57.000Z</time>
      </trkpt>
      <trkpt lat="43.69406" lon="7.1829">
        <ele>33</ele>
        <time>2018-04-24T13:02:00.000Z</time>
      </trkpt>
      <trkpt lat="43.69387" lon="7.18305">
        <ele>33</ele>
        <time>2018-04-24T13:02:04.000Z</time>
      </trkpt>
      <trkpt lat="43.69381" lon="7.18317">
        <ele>32</ele>
        <time>2018-04-24T13:02:06.000Z</time>
      </trkpt>
      <trkpt lat="43.69369" lon="7.18342">
        <ele>27</ele>
        <time>2018-04-24T13:02:10.000Z</time>
      </trkpt>
      <trkpt lat="43.69366" lon="7.18347">
        <ele>27</ele>
        <time>2018-04-24T13:02:11.000Z</time>
      </trkpt>
      <trkpt lat="43.69352" lon="7.18359">
        <ele>27</ele>
        <time>2018-04-24T13:02:14.000Z</time>
      </trkpt>
      <trkpt lat="43.69332" lon="7.18365">
        <ele>28</ele>
        <time>2018-04-24T13:02:18.000Z</time>
      </trkpt>
      <trkpt lat="43.69327" lon="7.18366">
        <ele>28</ele>
        <time>2018-04-24T13:02:19.000Z</time>
      </trkpt>
      <trkpt lat="43.69283" lon="7.18371">
        <ele>28</ele>
        <time>2018-04-24T13:02:27.000Z</time>
      </trkpt>
      <trkpt lat="43.69229" lon="7.18375">
        <ele>29</ele>
        <time>2018-04-24T13:02:37.000Z</time>
      </trkpt>
      <trkpt lat="43.69224" lon="7.18376">
        <ele>29</ele>
        <time>2018-04-24T13:02:38.000Z</time>
      </trkpt>
      <trkpt lat="43.69214" lon="7.18378">
        <ele>29</ele>
        <time>2018-04-24T13:02:40.000Z</time>
      </trkpt>
      <trkpt lat="43.6918" lon="7.18387">
        <ele>30</ele>
        <time>2018-04-24T13:02:47.000Z</time>
      </trkpt>
      <trkpt lat="43.69153" lon="7.18395">
        <ele>31</ele>
        <time>2018-04-24T13:02:53.000Z</time>
      </trkpt>
      <trkpt lat="43.69132" lon="7.18399">
        <ele>31</ele>
        <time>2018-04-24T13:02:57.000Z</time>
      </trkpt>
      <trkpt lat="43.69096" lon="7.18405">
        <ele>31</ele>
        <time>2018-04-24T13:03:04.000Z</time>
      </trkpt>
      <trkpt lat="43.69092" lon="7.18404">
        <ele>31</ele>
        <time>2018-04-24T13:03:05.000Z</time>
      </trkpt>
      <trkpt lat="43.69086" lon="7.18403">
        <ele>30</ele>
        <time>2018-04-24T13:03:06.000Z</time>
      </trkpt>
      <trkpt lat="43.69066" lon="7.18393">
        <ele>31</ele>
        <time>2018-04-24T13:03:10.000Z</time>
      </trkpt>
      <trkpt lat="43.69037" lon="7.18376">
        <ele>32</ele>
        <time>2018-04-24T13:03:16.000Z</time>
      </trkpt>
      <trkpt lat="43.69007" lon="7.18358">
        <ele>33</ele>
        <time>2018-04-24T13:03:22.000Z</time>
      </trkpt>
      <trkpt lat="43.68968" lon="7.18339">
        <ele>31</ele>
        <time>2018-04-24T13:03:30.000Z</time>
      </trkpt>
      <trkpt lat="43.68929" lon="7.18335">
        <ele>31</ele>
        <time>2018-04-24T13:03:37.000Z</time>
      </trkpt>
      <trkpt lat="43.68924" lon="7.18334">
        <ele>31</ele>
        <time>2018-04-24T13:03:38.000Z</time>
      </trkpt>
      <trkpt lat="43.68896" lon="7.18328">
        <ele>35</ele>
        <time>2018-04-24T13:03:43.000Z</time>
      </trkpt>
      <trkpt lat="43.68879" lon="7.18327">
        <ele>36</ele>
        <time>2018-04-24T13:03:46.000Z</time>
      </trkpt>
      <trkpt lat="43.68864" lon="7.18332">
        <ele>36</ele>
        <time>2018-04-24T13:03:49.000Z</time>
      </trkpt>
      <trkpt lat="43.68851" lon="7.18342">
        <ele>33</ele>
        <time>2018-04-24T13:03:52.000Z</time>
      </trkpt>
      <trkpt lat="43.68843" lon="7.18349">
        <ele>33</ele>
        <time>2018-04-24T13:03:54.000Z</time>
      </trkpt>
      <trkpt lat="43.6884" lon="7.18352">
        <ele>32</ele>
        <time>2018-04-24T13:03:55.000Z</time>
      </trkpt>
      <trkpt lat="43.68816" lon="7.18363">
        <ele>35</ele>
        <time>2018-04-24T13:04:01.000Z</time>
      </trkpt>
      <trkpt lat="43.68784" lon="7.18374">
        <ele>36</ele>
        <time>2018-04-24T13:04:09.000Z</time>
      </trkpt>
      <trkpt lat="43.68781" lon="7.18375">
        <ele>36</ele>
        <time>2018-04-24T13:04:10.000Z</time>
      </trkpt>
      <trkpt lat="43.68753" lon="7.18383">
        <ele>36</ele>
        <time>2018-04-24T13:04:17.000Z</time>
      </trkpt>
      <trkpt lat="43.68715" lon="7.18394">
        <ele>40</ele>
        <time>2018-04-24T13:04:24.000Z</time>
      </trkpt>
      <trkpt lat="43.68704" lon="7.18397">
        <ele>40</ele>
        <time>2018-04-24T13:04:26.000Z</time>
      </trkpt>
      <trkpt lat="43.68686" lon="7.18406">
        <ele>40</ele>
        <time>2018-04-24T13:04:29.000Z</time>
      </trkpt>
      <trkpt lat="43.68679" lon="7.18411">
        <ele>39</ele>
        <time>2018-04-24T13:04:30.000Z</time>
      </trkpt>
      <trkpt lat="43.68661" lon="7.18425">
        <ele>37</ele>
        <time>2018-04-24T13:04:33.000Z</time>
      </trkpt>
      <trkpt lat="43.68648" lon="7.18431">
        <ele>35</ele>
        <time>2018-04-24T13:04:35.000Z</time>
      </trkpt>
      <trkpt lat="43.6864" lon="7.18434">
        <ele>35</ele>
        <time>2018-04-24T13:04:36.000Z</time>
      </trkpt>
      <trkpt lat="43.68618" lon="7.18442">
        <ele>35</ele>
        <time>2018-04-24T13:04:39.000Z</time>
      </trkpt>
      <trkpt lat="43.68589" lon="7.18456">
        <ele>34</ele>
        <time>2018-04-24T13:04:43.000Z</time>
      </trkpt>
      <trkpt lat="43.68566" lon="7.18478">
        <ele>34</ele>
        <time>2018-04-24T13:04:47.000Z</time>
      </trkpt>
      <trkpt lat="43.68537" lon="7.18507">
        <ele>28</ele>
        <time>2018-04-24T13:04:53.000Z</time>
      </trkpt>
      <trkpt lat="43.68518" lon="7.18516">
        <ele>29</ele>
        <time>2018-04-24T13:04:57.000Z</time>
      </trkpt>
      <trkpt lat="43.68504" lon="7.18522">
        <ele>29</ele>
        <time>2018-04-24T13:05:00.000Z</time>
      </trkpt>
      <trkpt lat="43.68492" lon="7.18526">
        <ele>32</ele>
        <time>2018-04-24T13:05:03.000Z</time>
      </trkpt>
      <trkpt lat="43.68474" lon="7.18532">
        <ele>31</ele>
        <time>2018-04-24T13:05:07.000Z</time>
      </trkpt>
      <trkpt lat="43.68456" lon="7.18538">
        <ele>31</ele>
        <time>2018-04-24T13:05:11.000Z</time>
      </trkpt>
      <trkpt lat="43.68443" lon="7.18544">
        <ele>31</ele>
        <time>2018-04-24T13:05:14.000Z</time>
      </trkpt>
      <trkpt lat="43.68417" lon="7.18555">
        <ele>30</ele>
        <time>2018-04-24T13:05:20.000Z</time>
      </trkpt>
      <trkpt lat="43.68399" lon="7.18566">
        <ele>31</ele>
        <time>2018-04-24T13:05:24.000Z</time>
      </trkpt>
      <trkpt lat="43.68385" lon="7.18577">
        <ele>31</ele>
        <time>2018-04-24T13:05:27.000Z</time>
      </trkpt>
      <trkpt lat="43.68358" lon="7.18599">
        <ele>27</ele>
        <time>2018-04-24T13:05:32.000Z</time>
      </trkpt>
      <trkpt lat="43.68353" lon="7.18605">
        <ele>27</ele>
        <time>2018-04-24T13:05:33.000Z</time>
      </trkpt>
      <trkpt lat="43.68347" lon="7.18611">
        <ele>26</ele>
        <time>2018-04-24T13:05:34.000Z</time>
      </trkpt>
      <trkpt lat="43.68336" lon="7.18622">
        <ele>26</ele>
        <time>2018-04-24T13:05:36.000Z</time>
      </trkpt>
      <trkpt lat="43.68324" lon="7.18632">
        <ele>28</ele>
        <time>2018-04-24T13:05:38.000Z</time>
      </trkpt>
      <trkpt lat="43.68311" lon="7.18639">
        <ele>28</ele>
        <time>2018-04-24T13:05:40.000Z</time>
      </trkpt>
      <trkpt lat="43.68274" lon="7.18649">
        <ele>29</ele>
        <time>2018-04-24T13:05:45.000Z</time>
      </trkpt>
      <trkpt lat="43.68267" lon="7.1865">
        <ele>29</ele>
        <time>2018-04-24T13:05:46.000Z</time>
      </trkpt>
      <trkpt lat="43.68252" lon="7.18653">
        <ele>29</ele>
        <time>2018-04-24T13:05:48.000Z</time>
      </trkpt>
      <trkpt lat="43.68241" lon="7.18662">
        <ele>31</ele>
        <time>2018-04-24T13:05:50.000Z</time>
      </trkpt>
      <trkpt lat="43.68225" lon="7.18689">
        <ele>28</ele>
        <time>2018-04-24T13:05:54.000Z</time>
      </trkpt>
      <trkpt lat="43.68211" lon="7.18724">
        <ele>26</ele>
        <time>2018-04-24T13:05:59.000Z</time>
      </trkpt>
      <trkpt lat="43.68207" lon="7.18731">
        <ele>26</ele>
        <time>2018-04-24T13:06:00.000Z</time>
      </trkpt>
      <trkpt lat="43.68186" lon="7.18745">
        <ele>26</ele>
        <time>2018-04-24T13:06:04.000Z</time>
      </trkpt>
      <trkpt lat="43.6818" lon="7.18747">
        <ele>26</ele>
        <time>2018-04-24T13:06:05.000Z</time>
      </trkpt>
      <trkpt lat="43.68154" lon="7.18749">
        <ele>27</ele>
        <time>2018-04-24T13:06:09.000Z</time>
      </trkpt>
      <trkpt lat="43.68148" lon="7.18748">
        <ele>27</ele>
        <time>2018-04-24T13:06:10.000Z</time>
      </trkpt>
      <trkpt lat="43.68129" lon="7.18746">
        <ele>28</ele>
        <time>2018-04-24T13:06:13.000Z</time>
      </trkpt>
      <trkpt lat="43.68117" lon="7.18749">
        <ele>28</ele>
        <time>2018-04-24T13:06:15.000Z</time>
      </trkpt>
      <trkpt lat="43.6807" lon="7.18764">
        <ele>25</ele>
        <time>2018-04-24T13:06:23.000Z</time>
      </trkpt>
      <trkpt lat="43.68063" lon="7.18764">
        <ele>24</ele>
        <time>2018-04-24T13:06:24.000Z</time>
      </trkpt>
      <trkpt lat="43.68045" lon="7.1876">
        <ele>24</ele>
        <time>2018-04-24T13:06:27.000Z</time>
      </trkpt>
      <trkpt lat="43.68035" lon="7.18753">
        <ele>24</ele>
        <time>2018-04-24T13:06:29.000Z</time>
      </trkpt>
      <trkpt lat="43.68024" lon="7.18746">
        <ele>28</ele>
        <time>2018-04-24T13:06:31.000Z</time>
      </trkpt>
      <trkpt lat="43.68005" lon="7.18743">
        <ele>27</ele>
        <time>2018-04-24T13:06:35.000Z</time>
      </trkpt>
      <trkpt lat="43.67988" lon="7.18759">
        <ele>27</ele>
        <time>2018-04-24T13:06:39.000Z</time>
      </trkpt>
      <trkpt lat="43.6798" lon="7.18779">
        <ele>27</ele>
        <time>2018-04-24T13:06:42.000Z</time>
      </trkpt>
      <trkpt lat="43.67977" lon="7.18785">
        <ele>27</ele>
        <time>2018-04-24T13:06:43.000Z</time>
      </trkpt>
      <trkpt lat="43.67958" lon="7.18802">
        <ele>27</ele>
        <time>2018-04-24T13:06:47.000Z</time>
      </trkpt>
      <trkpt lat="43.67943" lon="7.18812">
        <ele>28</ele>
        <time>2018-04-24T13:06:50.000Z</time>
      </trkpt>
      <trkpt lat="43.67928" lon="7.18823">
        <ele>28</ele>
        <time>2018-04-24T13:06:53.000Z</time>
      </trkpt>
      <trkpt lat="43.67889" lon="7.18856">
        <ele>26</ele>
        <time>2018-04-24T13:07:00.000Z</time>
      </trkpt>
      <trkpt lat="43.67873" lon="7.18871">
        <ele>25</ele>
        <time>2018-04-24T13:07:03.000Z</time>
      </trkpt>
      <trkpt lat="43.6786" lon="7.18877">
        <ele>25</ele>
        <time>2018-04-24T13:07:05.000Z</time>
      </trkpt>
      <trkpt lat="43.67826" lon="7.18878">
        <ele>27</ele>
        <time>2018-04-24T13:07:10.000Z</time>
      </trkpt>
      <trkpt lat="43.67813" lon="7.18875">
        <ele>27</ele>
        <time>2018-04-24T13:07:12.000Z</time>
      </trkpt>
      <trkpt lat="43.67796" lon="7.18869">
        <ele>28</ele>
        <time>2018-04-24T13:07:15.000Z</time>
      </trkpt>
      <trkpt lat="43.67772" lon="7.18863">
        <ele>29</ele>
        <time>2018-04-24T13:07:20.000Z</time>
      </trkpt>
      <trkpt lat="43.67767" lon="7.18863">
        <ele>29</ele>
        <time>2018-04-24T13:07:21.000Z</time>
      </trkpt>
      <trkpt lat="43.67759" lon="7.18863">
        <ele>29</ele>
        <time>2018-04-24T13:07:23.000Z</time>
      </trkpt>
      <trkpt lat="43.6775" lon="7.18863">
        <ele>31</ele>
        <time>2018-04-24T13:07:25.000Z</time>
      </trkpt>
      <trkpt lat="43.67741" lon="7.1886">
        <ele>31</ele>
        <time>2018-04-24T13:07:27.000Z</time>
      </trkpt>
      <trkpt lat="43.67737" lon="7.1886">
        <ele>31</ele>
        <time>2018-04-24T13:07:28.000Z</time>
      </trkpt>
      <trkpt lat="43.67724" lon="7.18859">
        <ele>31</ele>
        <time>2018-04-24T13:07:31.000Z</time>
      </trkpt>
      <trkpt lat="43.67716" lon="7.18859">
        <ele>31</ele>
        <time>2018-04-24T13:07:33.000Z</time>
      </trkpt>
      <trkpt lat="43.67708" lon="7.18858">
        <ele>31</ele>
        <time>2018-04-24T13:07:35.000Z</time>
      </trkpt>
      <trkpt lat="43.67704" lon="7.18858">
        <ele>31</ele>
        <time>2018-04-24T13:07:36.000Z</time>
      </trkpt>
      <trkpt lat="43.6769" lon="7.18856">
        <ele>31</ele>
        <time>2018-04-24T13:07:40.000Z</time>
      </trkpt>
      <trkpt lat="43.67664" lon="7.18856">
        <ele>31</ele>
        <time>2018-04-24T13:07:46.000Z</time>
      </trkpt>
      <trkpt lat="43.67655" lon="7.18856">
        <ele>31</ele>
        <time>2018-04-24T13:07:48.000Z</time>
      </trkpt>
      <trkpt lat="43.6763" lon="7.18857">
        <ele>31</ele>
        <time>2018-04-24T13:07:53.000Z</time>
      </trkpt>
      <trkpt lat="43.67619" lon="7.18857">
        <ele>31</ele>
        <time>2018-04-24T13:07:55.000Z</time>
      </trkpt>
      <trkpt lat="43.6759" lon="7.18858">
        <ele>31</ele>
        <time>2018-04-24T13:08:00.000Z</time>
      </trkpt>
      <trkpt lat="43.67577" lon="7.18858">
        <ele>30</ele>
        <time>2018-04-24T13:08:02.000Z</time>
      </trkpt>
      <trkpt lat="43.67552" lon="7.1886">
        <ele>30</ele>
        <time>2018-04-24T13:08:06.000Z</time>
      </trkpt>
      <trkpt lat="43.67542" lon="7.18864">
        <ele>30</ele>
        <time>2018-04-24T13:08:08.000Z</time>
      </trkpt>
      <trkpt lat="43.67537" lon="7.18868">
        <ele>30</ele>
        <time>2018-04-24T13:08:09.000Z</time>
      </trkpt>
      <trkpt lat="43.67532" lon="7.18872">
        <ele>30</ele>
        <time>2018-04-24T13:08:10.000Z</time>
      </trkpt>
      <trkpt lat="43.67522" lon="7.18882">
        <ele>30</ele>
        <time>2018-04-24T13:08:12.000Z</time>
      </trkpt>
      <trkpt lat="43.67518" lon="7.18886">
        <ele>30</ele>
        <time>2018-04-24T13:08:13.000Z</time>
      </trkpt>
      <trkpt lat="43.67489" lon="7.18907">
        <ele>30</ele>
        <time>2018-04-24T13:08:19.000Z</time>
      </trkpt>
      <trkpt lat="43.67448" lon="7.18936">
        <ele>29</ele>
        <time>2018-04-24T13:08:28.000Z</time>
      </trkpt>
      <trkpt lat="43.67408" lon="7.18968">
        <ele>29</ele>
        <time>2018-04-24T13:08:36.000Z</time>
      </trkpt>
      <trkpt lat="43.67392" lon="7.1898">
        <ele>29</ele>
        <time>2018-04-24T13:08:39.000Z</time>
      </trkpt>
      <trkpt lat="43.67373" lon="7.18995">
        <ele>29</ele>
        <time>2018-04-24T13:08:43.000Z</time>
      </trkpt>
      <trkpt lat="43.6736" lon="7.19007">
        <ele>26</ele>
        <time>2018-04-24T13:08:46.000Z</time>
      </trkpt>
      <trkpt lat="43.67349" lon="7.19016">
        <ele>26</ele>
        <time>2018-04-24T13:08:49.000Z</time>
      </trkpt>
      <trkpt lat="43.67332" lon="7.19024">
        <ele>27</ele>
        <time>2018-04-24T13:08:54.000Z</time>
      </trkpt>
      <trkpt lat="43.67305" lon="7.19028">
        <ele>27</ele>
        <time>2018-04-24T13:09:01.000Z</time>
      </trkpt>
      <trkpt lat="43.67292" lon="7.19029">
        <ele>27</ele>
        <time>2018-04-24T13:09:06.000Z</time>
      </trkpt>
      <trkpt lat="43.6728" lon="7.19028">
        <ele>27</ele>
        <time>2018-04-24T13:09:11.000Z</time>
      </trkpt>
      <trkpt lat="43.67274" lon="7.19028">
        <ele>28</ele>
        <time>2018-04-24T13:09:13.000Z</time>
      </trkpt>
      <trkpt lat="43.67262" lon="7.19027">
        <ele>28</ele>
        <time>2018-04-24T13:09:17.000Z</time>
      </trkpt>
      <trkpt lat="43.67243" lon="7.19026">
        <ele>29</ele>
        <time>2018-04-24T13:09:23.000Z</time>
      </trkpt>
      <trkpt lat="43.67226" lon="7.19024">
        <ele>29</ele>
        <time>2018-04-24T13:09:29.000Z</time>
      </trkpt>
      <trkpt lat="43.67206" lon="7.19022">
        <ele>29</ele>
        <time>2018-04-24T13:09:35.000Z</time>
      </trkpt>
      <trkpt lat="43.6718" lon="7.1902">
        <ele>29</ele>
        <time>2018-04-24T13:09:42.000Z</time>
      </trkpt>
      <trkpt lat="43.6717" lon="7.19021">
        <ele>29</ele>
        <time>2018-04-24T13:09:47.000Z</time>
      </trkpt>
      <trkpt lat="43.67154" lon="7.19018">
        <ele>28</ele>
        <time>2018-04-24T13:09:53.000Z</time>
      </trkpt>
      <trkpt lat="43.67134" lon="7.19013">
        <ele>28</ele>
        <time>2018-04-24T13:09:59.000Z</time>
      </trkpt>
      <trkpt lat="43.67116" lon="7.19012">
        <ele>28</ele>
        <time>2018-04-24T13:10:05.000Z</time>
      </trkpt>
      <trkpt lat="43.67115" lon="7.19012">
        <ele>28</ele>
        <time>2018-04-24T13:10:09.000Z</time>
      </trkpt>
      <trkpt lat="43.67115" lon="7.19012">
        <ele>28</ele>
        <time>2018-04-24T13:10:12.000Z</time>
      </trkpt>
      <trkpt lat="43.67115" lon="7.19013">
        <ele>28</ele>
        <time>2018-04-24T13:10:21.000Z</time>
      </trkpt>
      <trkpt lat="43.67115" lon="7.19014">
        <ele>28</ele>
        <time>2018-04-24T13:10:30.000Z</time>
      </trkpt>
      <trkpt lat="43.67115" lon="7.19015">
        <ele>28</ele>
        <time>2018-04-24T13:10:45.000Z</time>
      </trkpt>
      <trkpt lat="43.67115" lon="7.19016">
        <ele>28</ele>
        <time>2018-04-24T13:10:57.000Z</time>
      </trkpt>
      <trkpt lat="43.67115" lon="7.19015">
        <ele>28</ele>
        <time>2018-04-24T13:11:14.000Z</time>
      </trkpt>
      <trkpt lat="43.67114" lon="7.19015">
        <ele>28</ele>
        <time>2018-04-24T13:11:25.000Z</time>
      </trkpt>
      <trkpt lat="43.67112" lon="7.19015">
        <ele>28</ele>
        <time>2018-04-24T13:11:26.000Z</time>
      </trkpt>
      <trkpt lat="43.67099" lon="7.19016">
        <ele>27</ele>
        <time>2018-04-24T13:11:30.000Z</time>
      </trkpt>
      <trkpt lat="43.67089" lon="7.19017">
        <ele>27</ele>
        <time>2018-04-24T13:11:32.000Z</time>
      </trkpt>
      <trkpt lat="43.67081" lon="7.19024">
        <ele>28</ele>
        <time>2018-04-24T13:11:34.000Z</time>
      </trkpt>
      <trkpt lat="43.67068" lon="7.19051">
        <ele>28</ele>
        <time>2018-04-24T13:11:39.000Z</time>
      </trkpt>
      <trkpt lat="43.67065" lon="7.19063">
        <ele>28</ele>
        <time>2018-04-24T13:11:41.000Z</time>
      </trkpt>
      <trkpt lat="43.67061" lon="7.19084">
        <ele>28</ele>
        <time>2018-04-24T13:11:44.000Z</time>
      </trkpt>
      <trkpt lat="43.67058" lon="7.1909">
        <ele>28</ele>
        <time>2018-04-24T13:11:45.000Z</time>
      </trkpt>
      <trkpt lat="43.67054" lon="7.19095">
        <ele>28</ele>
        <time>2018-04-24T13:11:46.000Z</time>
      </trkpt>
      <trkpt lat="43.67042" lon="7.19107">
        <ele>28</ele>
        <time>2018-04-24T13:11:49.000Z</time>
      </trkpt>
      <trkpt lat="43.6702" lon="7.19118">
        <ele>29</ele>
        <time>2018-04-24T13:11:54.000Z</time>
      </trkpt>
      <trkpt lat="43.67012" lon="7.19121">
        <ele>29</ele>
        <time>2018-04-24T13:11:58.000Z</time>
      </trkpt>
      <trkpt lat="43.67009" lon="7.19119">
        <ele>29</ele>
        <time>2018-04-24T13:12:05.000Z</time>
      </trkpt>
      <trkpt lat="43.67007" lon="7.19119">
        <ele>29</ele>
        <time>2018-04-24T13:12:12.000Z</time>
      </trkpt>
      <trkpt lat="43.67008" lon="7.19118">
        <ele>29</ele>
        <time>2018-04-24T13:12:22.000Z</time>
      </trkpt>
      <trkpt lat="43.67014" lon="7.19114">
        <ele>28</ele>
        <time>2018-04-24T13:12:59.000Z</time>
      </trkpt>
      <trkpt lat="43.67011" lon="7.19106">
        <ele>28</ele>
        <time>2018-04-24T13:13:04.000Z</time>
      </trkpt>
      <trkpt lat="43.67007" lon="7.1911">
        <ele>28</ele>
        <time>2018-04-24T13:13:09.000Z</time>
      </trkpt>
      <trkpt lat="43.67001" lon="7.19118">
        <ele>29</ele>
        <time>2018-04-24T13:13:16.000Z</time>
      </trkpt>
      <trkpt lat="43.66999" lon="7.19116">
        <ele>28</ele>
        <time>2018-04-24T13:13:29.000Z</time>
      </trkpt>
      <trkpt lat="43.67002" lon="7.19113">
        <ele>28</ele>
        <time>2018-04-24T13:13:41.000Z</time>
      </trkpt>
      <trkpt lat="43.67004" lon="7.19111">
        <ele>28</ele>
        <time>2018-04-24T13:13:50.000Z</time>
      </trkpt>
      <trkpt lat="43.67009" lon="7.19108">
        <ele>28</ele>
        <time>2018-04-24T13:13:56.000Z</time>
      </trkpt>
      <trkpt lat="43.67018" lon="7.19104">
        <ele>28</ele>
        <time>2018-04-24T13:14:02.000Z</time>
      </trkpt>
      <trkpt lat="43.67025" lon="7.19098">
        <ele>28</ele>
        <time>2018-04-24T13:14:06.000Z</time>
      </trkpt>
      <trkpt lat="43.67028" lon="7.19097">
        <ele>28</ele>
        <time>2018-04-24T13:14:07.000Z</time>
      </trkpt>
      <trkpt lat="43.67048" lon="7.19087">
        <ele>28</ele>
        <time>2018-04-24T13:14:13.000Z</time>
      </trkpt>
      <trkpt lat="43.67062" lon="7.19078">
        <ele>28</ele>
        <time>2018-04-24T13:14:17.000Z</time>
      </trkpt>
      <trkpt lat="43.67063" lon="7.19073">
        <ele>28</ele>
        <time>2018-04-24T13:14:18.000Z</time>
      </trkpt>
      <trkpt lat="43.67061" lon="7.19049">
        <ele>28</ele>
        <time>2018-04-24T13:14:23.000Z</time>
      </trkpt>
      <trkpt lat="43.67058" lon="7.1904">
        <ele>28</ele>
        <time>2018-04-24T13:14:25.000Z</time>
      </trkpt>
      <trkpt lat="43.67056" lon="7.19028">
        <ele>28</ele>
        <time>2018-04-24T13:14:28.000Z</time>
      </trkpt>
      <trkpt lat="43.67054" lon="7.1901">
        <ele>28</ele>
        <time>2018-04-24T13:14:33.000Z</time>
      </trkpt>
      <trkpt lat="43.67052" lon="7.19004">
        <ele>28</ele>
        <time>2018-04-24T13:14:35.000Z</time>
      </trkpt>
      <trkpt lat="43.6705" lon="7.19002">
        <ele>28</ele>
        <time>2018-04-24T13:14:36.000Z</time>
      </trkpt>
      <trkpt lat="43.67046" lon="7.18999">
        <ele>31</ele>
        <time>2018-04-24T13:14:38.000Z</time>
      </trkpt>
      <trkpt lat="43.67038" lon="7.18996">
        <ele>31</ele>
        <time>2018-04-24T13:14:42.000Z</time>
      </trkpt>
      <trkpt lat="43.67024" lon="7.18986">
        <ele>31</ele>
        <time>2018-04-24T13:14:47.000Z</time>
      </trkpt>
      <trkpt lat="43.67019" lon="7.18982">
        <ele>32</ele>
        <time>2018-04-24T13:14:49.000Z</time>
      </trkpt>
      <trkpt lat="43.6701" lon="7.18977">
        <ele>32</ele>
        <time>2018-04-24T13:14:52.000Z</time>
      </trkpt>
      <trkpt lat="43.66999" lon="7.18968">
        <ele>34</ele>
        <time>2018-04-24T13:14:56.000Z</time>
      </trkpt>
      <trkpt lat="43.66975" lon="7.18952">
        <ele>34</ele>
        <time>2018-04-24T13:15:05.000Z</time>
      </trkpt>
      <trkpt lat="43.66973" lon="7.1895">
        <ele>35</ele>
        <time>2018-04-24T13:15:06.000Z</time>
      </trkpt>
      <trkpt lat="43.66963" lon="7.18943">
        <ele>35</ele>
        <time>2018-04-24T13:15:10.000Z</time>
      </trkpt>
      <trkpt lat="43.66958" lon="7.18938">
        <ele>35</ele>
        <time>2018-04-24T13:15:13.000Z</time>
      </trkpt>
      <trkpt lat="43.66956" lon="7.18935">
        <ele>35</ele>
        <time>2018-04-24T13:15:14.000Z</time>
      </trkpt>
      <trkpt lat="43.66942" lon="7.18917">
        <ele>36</ele>
        <time>2018-04-24T13:15:21.000Z</time>
      </trkpt>
      <trkpt lat="43.66935" lon="7.18907">
        <ele>40</ele>
        <time>2018-04-24T13:15:25.000Z</time>
      </trkpt>
      <trkpt lat="43.6693" lon="7.189">
        <ele>41</ele>
        <time>2018-04-24T13:15:28.000Z</time>
      </trkpt>
      <trkpt lat="43.66929" lon="7.18898">
        <ele>41</ele>
        <time>2018-04-24T13:15:29.000Z</time>
      </trkpt>
      <trkpt lat="43.66924" lon="7.18892">
        <ele>41</ele>
        <time>2018-04-24T13:15:32.000Z</time>
      </trkpt>
      <trkpt lat="43.66918" lon="7.18882">
        <ele>42</ele>
        <time>2018-04-24T13:15:36.000Z</time>
      </trkpt>
      <trkpt lat="43.66915" lon="7.18875">
        <ele>39</ele>
        <time>2018-04-24T13:15:39.000Z</time>
      </trkpt>
      <trkpt lat="43.66914" lon="7.18873">
        <ele>39</ele>
        <time>2018-04-24T13:15:40.000Z</time>
      </trkpt>
      <trkpt lat="43.6691" lon="7.18863">
        <ele>40</ele>
        <time>2018-04-24T13:15:44.000Z</time>
      </trkpt>
      <trkpt lat="43.66908" lon="7.18855">
        <ele>40</ele>
        <time>2018-04-24T13:15:47.000Z</time>
      </trkpt>
      <trkpt lat="43.66906" lon="7.18849">
        <ele>41</ele>
        <time>2018-04-24T13:15:49.000Z</time>
      </trkpt>
      <trkpt lat="43.66903" lon="7.1883">
        <ele>43</ele>
        <time>2018-04-24T13:15:55.000Z</time>
      </trkpt>
      <trkpt lat="43.66902" lon="7.18827">
        <ele>43</ele>
        <time>2018-04-24T13:15:56.000Z</time>
      </trkpt>
      <trkpt lat="43.66898" lon="7.188">
        <ele>43</ele>
        <time>2018-04-24T13:16:04.000Z</time>
      </trkpt>
      <trkpt lat="43.66898" lon="7.18793">
        <ele>43</ele>
        <time>2018-04-24T13:16:06.000Z</time>
      </trkpt>
      <trkpt lat="43.66893" lon="7.18761">
        <ele>44</ele>
        <time>2018-04-24T13:16:14.000Z</time>
      </trkpt>
      <trkpt lat="43.66893" lon="7.18753">
        <ele>44</ele>
        <time>2018-04-24T13:16:16.000Z</time>
      </trkpt>
      <trkpt lat="43.6689" lon="7.18728">
        <ele>46</ele>
        <time>2018-04-24T13:16:22.000Z</time>
      </trkpt>
      <trkpt lat="43.66887" lon="7.18703">
        <ele>46</ele>
        <time>2018-04-24T13:16:28.000Z</time>
      </trkpt>
      <trkpt lat="43.66885" lon="7.18685">
        <ele>47</ele>
        <time>2018-04-24T13:16:32.000Z</time>
      </trkpt>
      <trkpt lat="43.66881" lon="7.18645">
        <ele>48</ele>
        <time>2018-04-24T13:16:40.000Z</time>
      </trkpt>
      <trkpt lat="43.66881" lon="7.18641">
        <ele>48</ele>
        <time>2018-04-24T13:16:41.000Z</time>
      </trkpt>
      <trkpt lat="43.66877" lon="7.18605">
        <ele>48</ele>
        <time>2018-04-24T13:16:48.000Z</time>
      </trkpt>
      <trkpt lat="43.66876" lon="7.18595">
        <ele>48</ele>
        <time>2018-04-24T13:16:50.000Z</time>
      </trkpt>
      <trkpt lat="43.66873" lon="7.1857">
        <ele>49</ele>
        <time>2018-04-24T13:16:55.000Z</time>
      </trkpt>
      <trkpt lat="43.66872" lon="7.18561">
        <ele>49</ele>
        <time>2018-04-24T13:16:57.000Z</time>
      </trkpt>
      <trkpt lat="43.66871" lon="7.18548">
        <ele>49</ele>
        <time>2018-04-24T13:17:00.000Z</time>
      </trkpt>
      <trkpt lat="43.66863" lon="7.18513">
        <ele>49</ele>
        <time>2018-04-24T13:17:07.000Z</time>
      </trkpt>
      <trkpt lat="43.66856" lon="7.18489">
        <ele>49</ele>
        <time>2018-04-24T13:17:11.000Z</time>
      </trkpt>
      <trkpt lat="43.66855" lon="7.18475">
        <ele>49</ele>
        <time>2018-04-24T13:17:13.000Z</time>
      </trkpt>
      <trkpt lat="43.66859" lon="7.18459">
        <ele>50</ele>
        <time>2018-04-24T13:17:16.000Z</time>
      </trkpt>
      <trkpt lat="43.6686" lon="7.18454">
        <ele>50</ele>
        <time>2018-04-24T13:17:17.000Z</time>
      </trkpt>
      <trkpt lat="43.66872" lon="7.18414">
        <ele>50</ele>
        <time>2018-04-24T13:17:25.000Z</time>
      </trkpt>
      <trkpt lat="43.66878" lon="7.18394">
        <ele>50</ele>
        <time>2018-04-24T13:17:29.000Z</time>
      </trkpt>
      <trkpt lat="43.66882" lon="7.18385">
        <ele>50</ele>
        <time>2018-04-24T13:17:31.000Z</time>
      </trkpt>
      <trkpt lat="43.66886" lon="7.18383">
        <ele>50</ele>
        <time>2018-04-24T13:17:32.000Z</time>
      </trkpt>
      <trkpt lat="43.66899" lon="7.1838">
        <ele>51</ele>
        <time>2018-04-24T13:17:36.000Z</time>
      </trkpt>
      <trkpt lat="43.66902" lon="7.18381">
        <ele>51</ele>
        <time>2018-04-24T13:17:37.000Z</time>
      </trkpt>
      <trkpt lat="43.66916" lon="7.18381">
        <ele>51</ele>
        <time>2018-04-24T13:17:42.000Z</time>
      </trkpt>
      <trkpt lat="43.66928" lon="7.1838">
        <ele>56</ele>
        <time>2018-04-24T13:17:47.000Z</time>
      </trkpt>
      <trkpt lat="43.66936" lon="7.18379">
        <ele>56</ele>
        <time>2018-04-24T13:17:50.000Z</time>
      </trkpt>
      <trkpt lat="43.66939" lon="7.18378">
        <ele>56</ele>
        <time>2018-04-24T13:17:51.000Z</time>
      </trkpt>
      <trkpt lat="43.66951" lon="7.18377">
        <ele>57</ele>
        <time>2018-04-24T13:17:56.000Z</time>
      </trkpt>
      <trkpt lat="43.66956" lon="7.18376">
        <ele>57</ele>
        <time>2018-04-24T13:18:01.000Z</time>
      </trkpt>
      <trkpt lat="43.66956" lon="7.18376">
        <ele>57</ele>
        <time>2018-04-24T13:18:02.000Z</time>
      </trkpt>
      <trkpt lat="43.66957" lon="7.18375">
        <ele>57</ele>
        <time>2018-04-24T13:18:08.000Z</time>
      </trkpt>
      <trkpt lat="43.66958" lon="7.18373">
        <ele>57</ele>
        <time>2018-04-24T13:18:12.000Z</time>
      </trkpt>
      <trkpt lat="43.66959" lon="7.18373">
        <ele>57</ele>
        <time>2018-04-24T13:18:14.000Z</time>
      </trkpt>
      <trkpt lat="43.6696" lon="7.18372">
        <ele>57</ele>
        <time>2018-04-24T13:18:23.000Z</time>
      </trkpt>
      <trkpt lat="43.66965" lon="7.18369">
        <ele>57</ele>
        <time>2018-04-24T13:18:29.000Z</time>
      </trkpt>
      <trkpt lat="43.66965" lon="7.18369">
        <ele>57</ele>
        <time>2018-04-24T13:18:34.000Z</time>
      </trkpt>
      <trkpt lat="43.66966" lon="7.18369">
        <ele>57</ele>
        <time>2018-04-24T13:18:37.000Z</time>
      </trkpt>
      <trkpt lat="43.66965" lon="7.1837">
        <ele>57</ele>
        <time>2018-04-24T13:18:41.000Z</time>
      </trkpt>
      <trkpt lat="43.66962" lon="7.18371">
        <ele>57</ele>
        <time>2018-04-24T13:18:45.000Z</time>
      </trkpt>
      <trkpt lat="43.66962" lon="7.1837">
        <ele>57</ele>
        <time>2018-04-24T13:18:46.000Z</time>
      </trkpt>
      <trkpt lat="43.66962" lon="7.18369">
        <ele>57</ele>
        <time>2018-04-24T13:18:48.000Z</time>
      </trkpt>
    </trkseg>
  </trk>
</gpx>